<?xml version="1.0" encoding="utf-8"?>
<gpx xmlns:xsi="http://www.w3.org/2001/XMLSchema-instance" xmlns:xsd="http://www.w3.org/2001/XMLSchema" version="1.1" creator="Shapelink.com" xmlns="http://www.topografix.com/GPX/1/1" xmlns:gpxtpx="http://www.garmin.com/xmlschemas/TrackPointExtension/v1">
  <metadata>
    <name>Cykling 136.46 km, 2014-10-11</name>
    <desc></desc>
    <author><name>Alexander Engvall</name></author> 
    <time>2014-10-11T10:02:14Z</time>
  </metadata>
  <trk>
    <name>Cykling 136.46 km, 2014-10-11</name>
    <trkseg>
      <trkpt lat="59.237958" lon="17.94672">
        <ele>43.7</ele>
        <time>2014-10-11T10:02:14Z</time>
      </trkpt>
      <trkpt lat="59.237918" lon="17.946803">
        <ele>43.3</ele>
        <time>2014-10-11T10:02:28Z</time>
      </trkpt>
      <trkpt lat="59.237891" lon="17.946853">
        <ele>43.2</ele>
        <time>2014-10-11T10:02:30Z</time>
      </trkpt>
      <trkpt lat="59.237863" lon="17.946904">
        <ele>43</ele>
        <time>2014-10-11T10:02:31Z</time>
      </trkpt>
      <trkpt lat="59.237836" lon="17.946959">
        <ele>42.8</ele>
        <time>2014-10-11T10:02:32Z</time>
      </trkpt>
      <trkpt lat="59.237801" lon="17.947028">
        <ele>42.5</ele>
        <time>2014-10-11T10:02:33Z</time>
      </trkpt>
      <trkpt lat="59.237769" lon="17.947088">
        <ele>42.3</ele>
        <time>2014-10-11T10:02:34Z</time>
      </trkpt>
      <trkpt lat="59.237736" lon="17.94715">
        <ele>42.3</ele>
        <time>2014-10-11T10:02:35Z</time>
      </trkpt>
      <trkpt lat="59.237704" lon="17.947212">
        <ele>42.3</ele>
        <time>2014-10-11T10:02:36Z</time>
      </trkpt>
      <trkpt lat="59.237671" lon="17.947246">
        <ele>42.2</ele>
        <time>2014-10-11T10:02:37Z</time>
      </trkpt>
      <trkpt lat="59.237629" lon="17.947255">
        <ele>42</ele>
        <time>2014-10-11T10:02:38Z</time>
      </trkpt>
      <trkpt lat="59.237591" lon="17.947237">
        <ele>41.8</ele>
        <time>2014-10-11T10:02:39Z</time>
      </trkpt>
      <trkpt lat="59.237551" lon="17.947209">
        <ele>41.5</ele>
        <time>2014-10-11T10:02:40Z</time>
      </trkpt>
      <trkpt lat="59.237508" lon="17.947189">
        <ele>41.3</ele>
        <time>2014-10-11T10:02:41Z</time>
      </trkpt>
      <trkpt lat="59.237466" lon="17.947196">
        <ele>41.1</ele>
        <time>2014-10-11T10:02:42Z</time>
      </trkpt>
      <trkpt lat="59.237422" lon="17.947233">
        <ele>41</ele>
        <time>2014-10-11T10:02:43Z</time>
      </trkpt>
      <trkpt lat="59.237384" lon="17.947333">
        <ele>41</ele>
        <time>2014-10-11T10:02:44Z</time>
      </trkpt>
      <trkpt lat="59.237346" lon="17.947406">
        <ele>41</ele>
        <time>2014-10-11T10:02:45Z</time>
      </trkpt>
      <trkpt lat="59.237297" lon="17.947477">
        <ele>41</ele>
        <time>2014-10-11T10:02:46Z</time>
      </trkpt>
      <trkpt lat="59.237252" lon="17.947519">
        <ele>40.9</ele>
        <time>2014-10-11T10:02:47Z</time>
      </trkpt>
      <trkpt lat="59.237212" lon="17.947591">
        <ele>40.8</ele>
        <time>2014-10-11T10:02:48Z</time>
      </trkpt>
      <trkpt lat="59.237189" lon="17.947694">
        <ele>41</ele>
        <time>2014-10-11T10:02:49Z</time>
      </trkpt>
      <trkpt lat="59.23717" lon="17.947784">
        <ele>41.1</ele>
        <time>2014-10-11T10:02:50Z</time>
      </trkpt>
      <trkpt lat="59.237152" lon="17.947889">
        <ele>41.3</ele>
        <time>2014-10-11T10:02:51Z</time>
      </trkpt>
      <trkpt lat="59.237115" lon="17.948009">
        <ele>41.5</ele>
        <time>2014-10-11T10:02:52Z</time>
      </trkpt>
      <trkpt lat="59.237097" lon="17.948119">
        <ele>41.8</ele>
        <time>2014-10-11T10:02:53Z</time>
      </trkpt>
      <trkpt lat="59.237068" lon="17.948228">
        <ele>42.1</ele>
        <time>2014-10-11T10:02:54Z</time>
      </trkpt>
      <trkpt lat="59.237042" lon="17.948327">
        <ele>42.5</ele>
        <time>2014-10-11T10:02:55Z</time>
      </trkpt>
      <trkpt lat="59.23698" lon="17.948462">
        <ele>42.9</ele>
        <time>2014-10-11T10:02:56Z</time>
      </trkpt>
      <trkpt lat="59.236961" lon="17.948572">
        <ele>43.3</ele>
        <time>2014-10-11T10:02:57Z</time>
      </trkpt>
      <trkpt lat="59.236944" lon="17.948709">
        <ele>43.8</ele>
        <time>2014-10-11T10:02:58Z</time>
      </trkpt>
      <trkpt lat="59.236927" lon="17.948836">
        <ele>44.6</ele>
        <time>2014-10-11T10:02:59Z</time>
      </trkpt>
      <trkpt lat="59.23694" lon="17.948977">
        <ele>45.5</ele>
        <time>2014-10-11T10:03:00Z</time>
      </trkpt>
      <trkpt lat="59.236948" lon="17.94911">
        <ele>46.4</ele>
        <time>2014-10-11T10:03:01Z</time>
      </trkpt>
      <trkpt lat="59.236955" lon="17.94923">
        <ele>47.2</ele>
        <time>2014-10-11T10:03:02Z</time>
      </trkpt>
      <trkpt lat="59.236978" lon="17.949354">
        <ele>48</ele>
        <time>2014-10-11T10:03:03Z</time>
      </trkpt>
      <trkpt lat="59.236988" lon="17.94949">
        <ele>48.8</ele>
        <time>2014-10-11T10:03:04Z</time>
      </trkpt>
      <trkpt lat="59.237" lon="17.94963">
        <ele>49.7</ele>
        <time>2014-10-11T10:03:05Z</time>
      </trkpt>
      <trkpt lat="59.237008" lon="17.949751">
        <ele>50.4</ele>
        <time>2014-10-11T10:03:06Z</time>
      </trkpt>
      <trkpt lat="59.237032" lon="17.94988">
        <ele>51.1</ele>
        <time>2014-10-11T10:03:07Z</time>
      </trkpt>
      <trkpt lat="59.23704" lon="17.950025">
        <ele>52</ele>
        <time>2014-10-11T10:03:08Z</time>
      </trkpt>
      <trkpt lat="59.237051" lon="17.95016">
        <ele>52.7</ele>
        <time>2014-10-11T10:03:09Z</time>
      </trkpt>
      <trkpt lat="59.237046" lon="17.950322">
        <ele>53.8</ele>
        <time>2014-10-11T10:03:10Z</time>
      </trkpt>
      <trkpt lat="59.237069" lon="17.950415">
        <ele>54.1</ele>
        <time>2014-10-11T10:03:11Z</time>
      </trkpt>
      <trkpt lat="59.237085" lon="17.95057">
        <ele>54</ele>
        <time>2014-10-11T10:03:12Z</time>
      </trkpt>
      <trkpt lat="59.2371" lon="17.95071">
        <ele>53.9</ele>
        <time>2014-10-11T10:03:13Z</time>
      </trkpt>
      <trkpt lat="59.237111" lon="17.95085">
        <ele>53.8</ele>
        <time>2014-10-11T10:03:14Z</time>
      </trkpt>
      <trkpt lat="59.237129" lon="17.950964">
        <ele>53.7</ele>
        <time>2014-10-11T10:03:15Z</time>
      </trkpt>
      <trkpt lat="59.237143" lon="17.951085">
        <ele>53.6</ele>
        <time>2014-10-11T10:03:16Z</time>
      </trkpt>
      <trkpt lat="59.237145" lon="17.951232">
        <ele>53.6</ele>
        <time>2014-10-11T10:03:17Z</time>
      </trkpt>
      <trkpt lat="59.237157" lon="17.951372">
        <ele>53.7</ele>
        <time>2014-10-11T10:03:18Z</time>
      </trkpt>
      <trkpt lat="59.237174" lon="17.95148">
        <ele>53.7</ele>
        <time>2014-10-11T10:03:19Z</time>
      </trkpt>
      <trkpt lat="59.237197" lon="17.951572">
        <ele>53.6</ele>
        <time>2014-10-11T10:03:20Z</time>
      </trkpt>
      <trkpt lat="59.237208" lon="17.95169">
        <ele>53.6</ele>
        <time>2014-10-11T10:03:21Z</time>
      </trkpt>
      <trkpt lat="59.237214" lon="17.951811">
        <ele>53.7</ele>
        <time>2014-10-11T10:03:22Z</time>
      </trkpt>
      <trkpt lat="59.237216" lon="17.951945">
        <ele>53.8</ele>
        <time>2014-10-11T10:03:23Z</time>
      </trkpt>
      <trkpt lat="59.23722" lon="17.952076">
        <ele>53.8</ele>
        <time>2014-10-11T10:03:24Z</time>
      </trkpt>
      <trkpt lat="59.237241" lon="17.952204">
        <ele>53.6</ele>
        <time>2014-10-11T10:03:25Z</time>
      </trkpt>
      <trkpt lat="59.237241" lon="17.952316">
        <ele>53.6</ele>
        <time>2014-10-11T10:03:26Z</time>
      </trkpt>
      <trkpt lat="59.237255" lon="17.95243">
        <ele>53.5</ele>
        <time>2014-10-11T10:03:27Z</time>
      </trkpt>
      <trkpt lat="59.237266" lon="17.952549">
        <ele>53.3</ele>
        <time>2014-10-11T10:03:28Z</time>
      </trkpt>
      <trkpt lat="59.23728" lon="17.952673">
        <ele>53.2</ele>
        <time>2014-10-11T10:03:29Z</time>
      </trkpt>
      <trkpt lat="59.237283" lon="17.952792">
        <ele>53.1</ele>
        <time>2014-10-11T10:03:30Z</time>
      </trkpt>
      <trkpt lat="59.237283" lon="17.952933">
        <ele>53.1</ele>
        <time>2014-10-11T10:03:31Z</time>
      </trkpt>
      <trkpt lat="59.237295" lon="17.953059">
        <ele>52.9</ele>
        <time>2014-10-11T10:03:32Z</time>
      </trkpt>
      <trkpt lat="59.2373" lon="17.953192">
        <ele>52.8</ele>
        <time>2014-10-11T10:03:33Z</time>
      </trkpt>
      <trkpt lat="59.237306" lon="17.953325">
        <ele>52.7</ele>
        <time>2014-10-11T10:03:34Z</time>
      </trkpt>
      <trkpt lat="59.237309" lon="17.953444">
        <ele>52.7</ele>
        <time>2014-10-11T10:03:35Z</time>
      </trkpt>
      <trkpt lat="59.237309" lon="17.953582">
        <ele>52.6</ele>
        <time>2014-10-11T10:03:36Z</time>
      </trkpt>
      <trkpt lat="59.237322" lon="17.953687">
        <ele>52.4</ele>
        <time>2014-10-11T10:03:37Z</time>
      </trkpt>
      <trkpt lat="59.237323" lon="17.953816">
        <ele>52.4</ele>
        <time>2014-10-11T10:03:38Z</time>
      </trkpt>
      <trkpt lat="59.23732" lon="17.95395">
        <ele>52.3</ele>
        <time>2014-10-11T10:03:39Z</time>
      </trkpt>
      <trkpt lat="59.237307" lon="17.954109">
        <ele>52.3</ele>
        <time>2014-10-11T10:03:40Z</time>
      </trkpt>
      <trkpt lat="59.237303" lon="17.954251">
        <ele>52.2</ele>
        <time>2014-10-11T10:03:41Z</time>
      </trkpt>
      <trkpt lat="59.237282" lon="17.954433">
        <ele>52.2</ele>
        <time>2014-10-11T10:03:42Z</time>
      </trkpt>
      <trkpt lat="59.237281" lon="17.954571">
        <ele>52.1</ele>
        <time>2014-10-11T10:03:43Z</time>
      </trkpt>
      <trkpt lat="59.237265" lon="17.954726">
        <ele>52.1</ele>
        <time>2014-10-11T10:03:44Z</time>
      </trkpt>
      <trkpt lat="59.237265" lon="17.954881">
        <ele>51.9</ele>
        <time>2014-10-11T10:03:45Z</time>
      </trkpt>
      <trkpt lat="59.237259" lon="17.955016">
        <ele>51.8</ele>
        <time>2014-10-11T10:03:46Z</time>
      </trkpt>
      <trkpt lat="59.237256" lon="17.955178">
        <ele>51.6</ele>
        <time>2014-10-11T10:03:47Z</time>
      </trkpt>
      <trkpt lat="59.237257" lon="17.955326">
        <ele>51.4</ele>
        <time>2014-10-11T10:03:48Z</time>
      </trkpt>
      <trkpt lat="59.23725" lon="17.95549">
        <ele>51.4</ele>
        <time>2014-10-11T10:03:49Z</time>
      </trkpt>
      <trkpt lat="59.237254" lon="17.955611">
        <ele>51.4</ele>
        <time>2014-10-11T10:03:50Z</time>
      </trkpt>
      <trkpt lat="59.237262" lon="17.955758">
        <ele>51.3</ele>
        <time>2014-10-11T10:03:51Z</time>
      </trkpt>
      <trkpt lat="59.237273" lon="17.955897">
        <ele>51.2</ele>
        <time>2014-10-11T10:03:52Z</time>
      </trkpt>
      <trkpt lat="59.237287" lon="17.956039">
        <ele>51</ele>
        <time>2014-10-11T10:03:53Z</time>
      </trkpt>
      <trkpt lat="59.237288" lon="17.956187">
        <ele>51</ele>
        <time>2014-10-11T10:03:54Z</time>
      </trkpt>
      <trkpt lat="59.237297" lon="17.956328">
        <ele>51</ele>
        <time>2014-10-11T10:03:55Z</time>
      </trkpt>
      <trkpt lat="59.237303" lon="17.956479">
        <ele>51.1</ele>
        <time>2014-10-11T10:03:56Z</time>
      </trkpt>
      <trkpt lat="59.237305" lon="17.956628">
        <ele>51.2</ele>
        <time>2014-10-11T10:03:57Z</time>
      </trkpt>
      <trkpt lat="59.237311" lon="17.956784">
        <ele>51.3</ele>
        <time>2014-10-11T10:03:58Z</time>
      </trkpt>
      <trkpt lat="59.23731" lon="17.956945">
        <ele>51.4</ele>
        <time>2014-10-11T10:03:59Z</time>
      </trkpt>
      <trkpt lat="59.23731" lon="17.957112">
        <ele>51.5</ele>
        <time>2014-10-11T10:04:00Z</time>
      </trkpt>
      <trkpt lat="59.237297" lon="17.95726">
        <ele>51.2</ele>
        <time>2014-10-11T10:04:01Z</time>
      </trkpt>
      <trkpt lat="59.237275" lon="17.957425">
        <ele>50.9</ele>
        <time>2014-10-11T10:04:02Z</time>
      </trkpt>
      <trkpt lat="59.23726" lon="17.95758">
        <ele>50.6</ele>
        <time>2014-10-11T10:04:03Z</time>
      </trkpt>
      <trkpt lat="59.237221" lon="17.95772">
        <ele>50.5</ele>
        <time>2014-10-11T10:04:04Z</time>
      </trkpt>
      <trkpt lat="59.237177" lon="17.957847">
        <ele>50.4</ele>
        <time>2014-10-11T10:04:05Z</time>
      </trkpt>
      <trkpt lat="59.237125" lon="17.957978">
        <ele>50.4</ele>
        <time>2014-10-11T10:04:06Z</time>
      </trkpt>
      <trkpt lat="59.237073" lon="17.958106">
        <ele>50.2</ele>
        <time>2014-10-11T10:04:07Z</time>
      </trkpt>
      <trkpt lat="59.237019" lon="17.958222">
        <ele>50.2</ele>
        <time>2014-10-11T10:04:08Z</time>
      </trkpt>
      <trkpt lat="59.23697" lon="17.95834">
        <ele>50.1</ele>
        <time>2014-10-11T10:04:09Z</time>
      </trkpt>
      <trkpt lat="59.236918" lon="17.95846">
        <ele>50</ele>
        <time>2014-10-11T10:04:10Z</time>
      </trkpt>
      <trkpt lat="59.236847" lon="17.958579">
        <ele>50.1</ele>
        <time>2014-10-11T10:04:11Z</time>
      </trkpt>
      <trkpt lat="59.236793" lon="17.958707">
        <ele>50</ele>
        <time>2014-10-11T10:04:12Z</time>
      </trkpt>
      <trkpt lat="59.236748" lon="17.95881">
        <ele>50</ele>
        <time>2014-10-11T10:04:13Z</time>
      </trkpt>
      <trkpt lat="59.236692" lon="17.958934">
        <ele>50.1</ele>
        <time>2014-10-11T10:04:14Z</time>
      </trkpt>
      <trkpt lat="59.236621" lon="17.959052">
        <ele>50.3</ele>
        <time>2014-10-11T10:04:15Z</time>
      </trkpt>
      <trkpt lat="59.236559" lon="17.959186">
        <ele>50.2</ele>
        <time>2014-10-11T10:04:16Z</time>
      </trkpt>
      <trkpt lat="59.236493" lon="17.95932">
        <ele>50</ele>
        <time>2014-10-11T10:04:17Z</time>
      </trkpt>
      <trkpt lat="59.236436" lon="17.959446">
        <ele>49.8</ele>
        <time>2014-10-11T10:04:18Z</time>
      </trkpt>
      <trkpt lat="59.236377" lon="17.959592">
        <ele>49.3</ele>
        <time>2014-10-11T10:04:19Z</time>
      </trkpt>
      <trkpt lat="59.23632" lon="17.959729">
        <ele>48.8</ele>
        <time>2014-10-11T10:04:20Z</time>
      </trkpt>
      <trkpt lat="59.236277" lon="17.959894">
        <ele>48.1</ele>
        <time>2014-10-11T10:04:21Z</time>
      </trkpt>
      <trkpt lat="59.236261" lon="17.960021">
        <ele>47.3</ele>
        <time>2014-10-11T10:04:22Z</time>
      </trkpt>
      <trkpt lat="59.236231" lon="17.960176">
        <ele>46.6</ele>
        <time>2014-10-11T10:04:23Z</time>
      </trkpt>
      <trkpt lat="59.236191" lon="17.960347">
        <ele>45.9</ele>
        <time>2014-10-11T10:04:24Z</time>
      </trkpt>
      <trkpt lat="59.236144" lon="17.960499">
        <ele>45.6</ele>
        <time>2014-10-11T10:04:25Z</time>
      </trkpt>
      <trkpt lat="59.236104" lon="17.960652">
        <ele>45.5</ele>
        <time>2014-10-11T10:04:26Z</time>
      </trkpt>
      <trkpt lat="59.236061" lon="17.960816">
        <ele>45.5</ele>
        <time>2014-10-11T10:04:27Z</time>
      </trkpt>
      <trkpt lat="59.236012" lon="17.960993">
        <ele>45.5</ele>
        <time>2014-10-11T10:04:28Z</time>
      </trkpt>
      <trkpt lat="59.235975" lon="17.96115">
        <ele>45.5</ele>
        <time>2014-10-11T10:04:29Z</time>
      </trkpt>
      <trkpt lat="59.235937" lon="17.9613">
        <ele>45.6</ele>
        <time>2014-10-11T10:04:30Z</time>
      </trkpt>
      <trkpt lat="59.235903" lon="17.96146">
        <ele>45.5</ele>
        <time>2014-10-11T10:04:31Z</time>
      </trkpt>
      <trkpt lat="59.235879" lon="17.961634">
        <ele>45.2</ele>
        <time>2014-10-11T10:04:32Z</time>
      </trkpt>
      <trkpt lat="59.235839" lon="17.9618">
        <ele>45.3</ele>
        <time>2014-10-11T10:04:33Z</time>
      </trkpt>
      <trkpt lat="59.2358" lon="17.961957">
        <ele>45.4</ele>
        <time>2014-10-11T10:04:34Z</time>
      </trkpt>
      <trkpt lat="59.235759" lon="17.962135">
        <ele>45.5</ele>
        <time>2014-10-11T10:04:35Z</time>
      </trkpt>
      <trkpt lat="59.23572" lon="17.962288">
        <ele>45.6</ele>
        <time>2014-10-11T10:04:36Z</time>
      </trkpt>
      <trkpt lat="59.235679" lon="17.962451">
        <ele>45.7</ele>
        <time>2014-10-11T10:04:37Z</time>
      </trkpt>
      <trkpt lat="59.235638" lon="17.962625">
        <ele>45.6</ele>
        <time>2014-10-11T10:04:38Z</time>
      </trkpt>
      <trkpt lat="59.235603" lon="17.962776">
        <ele>45.5</ele>
        <time>2014-10-11T10:04:39Z</time>
      </trkpt>
      <trkpt lat="59.235564" lon="17.962926">
        <ele>45.4</ele>
        <time>2014-10-11T10:04:40Z</time>
      </trkpt>
      <trkpt lat="59.235528" lon="17.963085">
        <ele>45.1</ele>
        <time>2014-10-11T10:04:41Z</time>
      </trkpt>
      <trkpt lat="59.235493" lon="17.963227">
        <ele>44.8</ele>
        <time>2014-10-11T10:04:42Z</time>
      </trkpt>
      <trkpt lat="59.235451" lon="17.963385">
        <ele>44.5</ele>
        <time>2014-10-11T10:04:43Z</time>
      </trkpt>
      <trkpt lat="59.235418" lon="17.963539">
        <ele>44</ele>
        <time>2014-10-11T10:04:44Z</time>
      </trkpt>
      <trkpt lat="59.235385" lon="17.963691">
        <ele>43.3</ele>
        <time>2014-10-11T10:04:45Z</time>
      </trkpt>
      <trkpt lat="59.235344" lon="17.96386">
        <ele>42.7</ele>
        <time>2014-10-11T10:04:46Z</time>
      </trkpt>
      <trkpt lat="59.235304" lon="17.964013">
        <ele>42.3</ele>
        <time>2014-10-11T10:04:47Z</time>
      </trkpt>
      <trkpt lat="59.235253" lon="17.964193">
        <ele>41.8</ele>
        <time>2014-10-11T10:04:48Z</time>
      </trkpt>
      <trkpt lat="59.235209" lon="17.964352">
        <ele>41.4</ele>
        <time>2014-10-11T10:04:49Z</time>
      </trkpt>
      <trkpt lat="59.235167" lon="17.96448">
        <ele>41.2</ele>
        <time>2014-10-11T10:04:50Z</time>
      </trkpt>
      <trkpt lat="59.235117" lon="17.964642">
        <ele>40.9</ele>
        <time>2014-10-11T10:04:51Z</time>
      </trkpt>
      <trkpt lat="59.235074" lon="17.964788">
        <ele>40.7</ele>
        <time>2014-10-11T10:04:52Z</time>
      </trkpt>
      <trkpt lat="59.235032" lon="17.964902">
        <ele>40.6</ele>
        <time>2014-10-11T10:04:53Z</time>
      </trkpt>
      <trkpt lat="59.234966" lon="17.965077">
        <ele>40.5</ele>
        <time>2014-10-11T10:04:54Z</time>
      </trkpt>
      <trkpt lat="59.234889" lon="17.965142">
        <ele>40.7</ele>
        <time>2014-10-11T10:04:55Z</time>
      </trkpt>
      <trkpt lat="59.234823" lon="17.96523">
        <ele>40.9</ele>
        <time>2014-10-11T10:04:56Z</time>
      </trkpt>
      <trkpt lat="59.234754" lon="17.965316">
        <ele>41.1</ele>
        <time>2014-10-11T10:04:57Z</time>
      </trkpt>
      <trkpt lat="59.234692" lon="17.965392">
        <ele>41.4</ele>
        <time>2014-10-11T10:04:58Z</time>
      </trkpt>
      <trkpt lat="59.234627" lon="17.965487">
        <ele>41.7</ele>
        <time>2014-10-11T10:04:59Z</time>
      </trkpt>
      <trkpt lat="59.234562" lon="17.965581">
        <ele>42.1</ele>
        <time>2014-10-11T10:05:00Z</time>
      </trkpt>
      <trkpt lat="59.234519" lon="17.965655">
        <ele>42.3</ele>
        <time>2014-10-11T10:05:01Z</time>
      </trkpt>
      <trkpt lat="59.234471" lon="17.965746">
        <ele>42.5</ele>
        <time>2014-10-11T10:05:02Z</time>
      </trkpt>
      <trkpt lat="59.234421" lon="17.965823">
        <ele>42.7</ele>
        <time>2014-10-11T10:05:03Z</time>
      </trkpt>
      <trkpt lat="59.23436" lon="17.965904">
        <ele>42.9</ele>
        <time>2014-10-11T10:05:04Z</time>
      </trkpt>
      <trkpt lat="59.234311" lon="17.965969">
        <ele>43.1</ele>
        <time>2014-10-11T10:05:05Z</time>
      </trkpt>
      <trkpt lat="59.234267" lon="17.966023">
        <ele>43.2</ele>
        <time>2014-10-11T10:05:06Z</time>
      </trkpt>
      <trkpt lat="59.234221" lon="17.966087">
        <ele>43.4</ele>
        <time>2014-10-11T10:05:07Z</time>
      </trkpt>
      <trkpt lat="59.234183" lon="17.966141">
        <ele>43.5</ele>
        <time>2014-10-11T10:05:08Z</time>
      </trkpt>
      <trkpt lat="59.23414" lon="17.966233">
        <ele>43.6</ele>
        <time>2014-10-11T10:05:10Z</time>
      </trkpt>
      <trkpt lat="59.234113" lon="17.966284">
        <ele>43.7</ele>
        <time>2014-10-11T10:05:11Z</time>
      </trkpt>
      <trkpt lat="59.234077" lon="17.966326">
        <ele>43.7</ele>
        <time>2014-10-11T10:05:12Z</time>
      </trkpt>
      <trkpt lat="59.234035" lon="17.966367">
        <ele>43.8</ele>
        <time>2014-10-11T10:05:13Z</time>
      </trkpt>
      <trkpt lat="59.234001" lon="17.966418">
        <ele>43.9</ele>
        <time>2014-10-11T10:05:14Z</time>
      </trkpt>
      <trkpt lat="59.233955" lon="17.966475">
        <ele>44</ele>
        <time>2014-10-11T10:05:15Z</time>
      </trkpt>
      <trkpt lat="59.233915" lon="17.966525">
        <ele>44.1</ele>
        <time>2014-10-11T10:05:16Z</time>
      </trkpt>
      <trkpt lat="59.233875" lon="17.966568">
        <ele>44.2</ele>
        <time>2014-10-11T10:05:17Z</time>
      </trkpt>
      <trkpt lat="59.233819" lon="17.966621">
        <ele>44.3</ele>
        <time>2014-10-11T10:05:18Z</time>
      </trkpt>
      <trkpt lat="59.233781" lon="17.966669">
        <ele>44.4</ele>
        <time>2014-10-11T10:05:19Z</time>
      </trkpt>
      <trkpt lat="59.23373" lon="17.966733">
        <ele>44.3</ele>
        <time>2014-10-11T10:05:20Z</time>
      </trkpt>
      <trkpt lat="59.233685" lon="17.966805">
        <ele>43.9</ele>
        <time>2014-10-11T10:05:21Z</time>
      </trkpt>
      <trkpt lat="59.233634" lon="17.966865">
        <ele>43.5</ele>
        <time>2014-10-11T10:05:22Z</time>
      </trkpt>
      <trkpt lat="59.233583" lon="17.966934">
        <ele>43</ele>
        <time>2014-10-11T10:05:23Z</time>
      </trkpt>
      <trkpt lat="59.233535" lon="17.966994">
        <ele>42.6</ele>
        <time>2014-10-11T10:05:24Z</time>
      </trkpt>
      <trkpt lat="59.233482" lon="17.967057">
        <ele>42.1</ele>
        <time>2014-10-11T10:05:25Z</time>
      </trkpt>
      <trkpt lat="59.233427" lon="17.967129">
        <ele>41.7</ele>
        <time>2014-10-11T10:05:26Z</time>
      </trkpt>
      <trkpt lat="59.233376" lon="17.967193">
        <ele>41.3</ele>
        <time>2014-10-11T10:05:27Z</time>
      </trkpt>
      <trkpt lat="59.233321" lon="17.967254">
        <ele>40.9</ele>
        <time>2014-10-11T10:05:28Z</time>
      </trkpt>
      <trkpt lat="59.233262" lon="17.967327">
        <ele>40.5</ele>
        <time>2014-10-11T10:05:29Z</time>
      </trkpt>
      <trkpt lat="59.233212" lon="17.967389">
        <ele>40.1</ele>
        <time>2014-10-11T10:05:30Z</time>
      </trkpt>
      <trkpt lat="59.233153" lon="17.967454">
        <ele>39.7</ele>
        <time>2014-10-11T10:05:31Z</time>
      </trkpt>
      <trkpt lat="59.233095" lon="17.967515">
        <ele>39.3</ele>
        <time>2014-10-11T10:05:32Z</time>
      </trkpt>
      <trkpt lat="59.233039" lon="17.967574">
        <ele>38.9</ele>
        <time>2014-10-11T10:05:33Z</time>
      </trkpt>
      <trkpt lat="59.232418" lon="17.967981">
        <ele>36.3</ele>
        <time>2014-10-11T10:05:42Z</time>
      </trkpt>
      <trkpt lat="59.232382" lon="17.968067">
        <ele>36.3</ele>
        <time>2014-10-11T10:05:44Z</time>
      </trkpt>
      <trkpt lat="59.232368" lon="17.968157">
        <ele>36.4</ele>
        <time>2014-10-11T10:05:45Z</time>
      </trkpt>
      <trkpt lat="59.232369" lon="17.968249">
        <ele>36.6</ele>
        <time>2014-10-11T10:05:46Z</time>
      </trkpt>
      <trkpt lat="59.23237" lon="17.968357">
        <ele>36.7</ele>
        <time>2014-10-11T10:05:47Z</time>
      </trkpt>
      <trkpt lat="59.232375" lon="17.968452">
        <ele>36.9</ele>
        <time>2014-10-11T10:05:48Z</time>
      </trkpt>
      <trkpt lat="59.232381" lon="17.968542">
        <ele>37</ele>
        <time>2014-10-11T10:05:49Z</time>
      </trkpt>
      <trkpt lat="59.232381" lon="17.968664">
        <ele>37.2</ele>
        <time>2014-10-11T10:05:50Z</time>
      </trkpt>
      <trkpt lat="59.232385" lon="17.968764">
        <ele>37.4</ele>
        <time>2014-10-11T10:05:51Z</time>
      </trkpt>
      <trkpt lat="59.232383" lon="17.968877">
        <ele>37.4</ele>
        <time>2014-10-11T10:05:52Z</time>
      </trkpt>
      <trkpt lat="59.23238" lon="17.968982">
        <ele>37.4</ele>
        <time>2014-10-11T10:05:53Z</time>
      </trkpt>
      <trkpt lat="59.232376" lon="17.969088">
        <ele>37.4</ele>
        <time>2014-10-11T10:05:54Z</time>
      </trkpt>
      <trkpt lat="59.23237" lon="17.969208">
        <ele>37.3</ele>
        <time>2014-10-11T10:05:55Z</time>
      </trkpt>
      <trkpt lat="59.23236" lon="17.96931">
        <ele>37.3</ele>
        <time>2014-10-11T10:05:56Z</time>
      </trkpt>
      <trkpt lat="59.232346" lon="17.969422">
        <ele>37.3</ele>
        <time>2014-10-11T10:05:57Z</time>
      </trkpt>
      <trkpt lat="59.232344" lon="17.969545">
        <ele>37.3</ele>
        <time>2014-10-11T10:05:58Z</time>
      </trkpt>
      <trkpt lat="59.232347" lon="17.969655">
        <ele>37.3</ele>
        <time>2014-10-11T10:05:59Z</time>
      </trkpt>
      <trkpt lat="59.232352" lon="17.969773">
        <ele>37.4</ele>
        <time>2014-10-11T10:06:00Z</time>
      </trkpt>
      <trkpt lat="59.232365" lon="17.969902">
        <ele>37.5</ele>
        <time>2014-10-11T10:06:01Z</time>
      </trkpt>
      <trkpt lat="59.232386" lon="17.970024">
        <ele>37.6</ele>
        <time>2014-10-11T10:06:02Z</time>
      </trkpt>
      <trkpt lat="59.232417" lon="17.970152">
        <ele>37.7</ele>
        <time>2014-10-11T10:06:03Z</time>
      </trkpt>
      <trkpt lat="59.232453" lon="17.970278">
        <ele>37.8</ele>
        <time>2014-10-11T10:06:04Z</time>
      </trkpt>
      <trkpt lat="59.232499" lon="17.97039">
        <ele>38</ele>
        <time>2014-10-11T10:06:05Z</time>
      </trkpt>
      <trkpt lat="59.232543" lon="17.970515">
        <ele>38</ele>
        <time>2014-10-11T10:06:06Z</time>
      </trkpt>
      <trkpt lat="59.232587" lon="17.970614">
        <ele>37.9</ele>
        <time>2014-10-11T10:06:07Z</time>
      </trkpt>
      <trkpt lat="59.23263" lon="17.970749">
        <ele>37.8</ele>
        <time>2014-10-11T10:06:08Z</time>
      </trkpt>
      <trkpt lat="59.23268" lon="17.970866">
        <ele>37.7</ele>
        <time>2014-10-11T10:06:09Z</time>
      </trkpt>
      <trkpt lat="59.232728" lon="17.970959">
        <ele>37.5</ele>
        <time>2014-10-11T10:06:10Z</time>
      </trkpt>
      <trkpt lat="59.23278" lon="17.971083">
        <ele>37.3</ele>
        <time>2014-10-11T10:06:11Z</time>
      </trkpt>
      <trkpt lat="59.232824" lon="17.971187">
        <ele>37.1</ele>
        <time>2014-10-11T10:06:12Z</time>
      </trkpt>
      <trkpt lat="59.232869" lon="17.971328">
        <ele>36.7</ele>
        <time>2014-10-11T10:06:13Z</time>
      </trkpt>
      <trkpt lat="59.23292" lon="17.971449">
        <ele>36.3</ele>
        <time>2014-10-11T10:06:14Z</time>
      </trkpt>
      <trkpt lat="59.232966" lon="17.971567">
        <ele>35.9</ele>
        <time>2014-10-11T10:06:15Z</time>
      </trkpt>
      <trkpt lat="59.23301" lon="17.971668">
        <ele>35.6</ele>
        <time>2014-10-11T10:06:16Z</time>
      </trkpt>
      <trkpt lat="59.233064" lon="17.971779">
        <ele>35.3</ele>
        <time>2014-10-11T10:06:17Z</time>
      </trkpt>
      <trkpt lat="59.233119" lon="17.971879">
        <ele>35</ele>
        <time>2014-10-11T10:06:18Z</time>
      </trkpt>
      <trkpt lat="59.233179" lon="17.971989">
        <ele>34.7</ele>
        <time>2014-10-11T10:06:19Z</time>
      </trkpt>
      <trkpt lat="59.233237" lon="17.972095">
        <ele>34.4</ele>
        <time>2014-10-11T10:06:20Z</time>
      </trkpt>
      <trkpt lat="59.233293" lon="17.972197">
        <ele>34.5</ele>
        <time>2014-10-11T10:06:21Z</time>
      </trkpt>
      <trkpt lat="59.233352" lon="17.972311">
        <ele>34.5</ele>
        <time>2014-10-11T10:06:22Z</time>
      </trkpt>
      <trkpt lat="59.233413" lon="17.972398">
        <ele>34.6</ele>
        <time>2014-10-11T10:06:23Z</time>
      </trkpt>
      <trkpt lat="59.233481" lon="17.972435">
        <ele>34.7</ele>
        <time>2014-10-11T10:06:24Z</time>
      </trkpt>
      <trkpt lat="59.233544" lon="17.97253">
        <ele>34.8</ele>
        <time>2014-10-11T10:06:25Z</time>
      </trkpt>
      <trkpt lat="59.233597" lon="17.972597">
        <ele>34.8</ele>
        <time>2014-10-11T10:06:26Z</time>
      </trkpt>
      <trkpt lat="59.233661" lon="17.972688">
        <ele>34.9</ele>
        <time>2014-10-11T10:06:27Z</time>
      </trkpt>
      <trkpt lat="59.233715" lon="17.972754">
        <ele>35</ele>
        <time>2014-10-11T10:06:28Z</time>
      </trkpt>
      <trkpt lat="59.233779" lon="17.97284">
        <ele>35.1</ele>
        <time>2014-10-11T10:06:29Z</time>
      </trkpt>
      <trkpt lat="59.233847" lon="17.972913">
        <ele>35.4</ele>
        <time>2014-10-11T10:06:30Z</time>
      </trkpt>
      <trkpt lat="59.233908" lon="17.972992">
        <ele>35.4</ele>
        <time>2014-10-11T10:06:31Z</time>
      </trkpt>
      <trkpt lat="59.233969" lon="17.973065">
        <ele>35.5</ele>
        <time>2014-10-11T10:06:32Z</time>
      </trkpt>
      <trkpt lat="59.23403" lon="17.973138">
        <ele>35.6</ele>
        <time>2014-10-11T10:06:33Z</time>
      </trkpt>
      <trkpt lat="59.234092" lon="17.973189">
        <ele>35.6</ele>
        <time>2014-10-11T10:06:34Z</time>
      </trkpt>
      <trkpt lat="59.234156" lon="17.973249">
        <ele>35.7</ele>
        <time>2014-10-11T10:06:35Z</time>
      </trkpt>
      <trkpt lat="59.234213" lon="17.973321">
        <ele>35.6</ele>
        <time>2014-10-11T10:06:36Z</time>
      </trkpt>
      <trkpt lat="59.234265" lon="17.973379">
        <ele>35.6</ele>
        <time>2014-10-11T10:06:37Z</time>
      </trkpt>
      <trkpt lat="59.234324" lon="17.973434">
        <ele>35.6</ele>
        <time>2014-10-11T10:06:38Z</time>
      </trkpt>
      <trkpt lat="59.234384" lon="17.973488">
        <ele>35.6</ele>
        <time>2014-10-11T10:06:39Z</time>
      </trkpt>
      <trkpt lat="59.234447" lon="17.973508">
        <ele>35.6</ele>
        <time>2014-10-11T10:06:40Z</time>
      </trkpt>
      <trkpt lat="59.23451" lon="17.973554">
        <ele>35.6</ele>
        <time>2014-10-11T10:06:41Z</time>
      </trkpt>
      <trkpt lat="59.23458" lon="17.973591">
        <ele>35.6</ele>
        <time>2014-10-11T10:06:42Z</time>
      </trkpt>
      <trkpt lat="59.234644" lon="17.973625">
        <ele>35.4</ele>
        <time>2014-10-11T10:06:43Z</time>
      </trkpt>
      <trkpt lat="59.234719" lon="17.973636">
        <ele>35.4</ele>
        <time>2014-10-11T10:06:44Z</time>
      </trkpt>
      <trkpt lat="59.23478" lon="17.973662">
        <ele>35.3</ele>
        <time>2014-10-11T10:06:45Z</time>
      </trkpt>
      <trkpt lat="59.234832" lon="17.973654">
        <ele>35.3</ele>
        <time>2014-10-11T10:06:46Z</time>
      </trkpt>
      <trkpt lat="59.234885" lon="17.973673">
        <ele>35.2</ele>
        <time>2014-10-11T10:06:47Z</time>
      </trkpt>
      <trkpt lat="59.234939" lon="17.973688">
        <ele>35.2</ele>
        <time>2014-10-11T10:06:48Z</time>
      </trkpt>
      <trkpt lat="59.234999" lon="17.973686">
        <ele>35.2</ele>
        <time>2014-10-11T10:06:49Z</time>
      </trkpt>
      <trkpt lat="59.235057" lon="17.97369">
        <ele>35.2</ele>
        <time>2014-10-11T10:06:50Z</time>
      </trkpt>
      <trkpt lat="59.235111" lon="17.973708">
        <ele>35.1</ele>
        <time>2014-10-11T10:06:51Z</time>
      </trkpt>
      <trkpt lat="59.235164" lon="17.973732">
        <ele>35</ele>
        <time>2014-10-11T10:06:52Z</time>
      </trkpt>
      <trkpt lat="59.235215" lon="17.973765">
        <ele>35</ele>
        <time>2014-10-11T10:06:53Z</time>
      </trkpt>
      <trkpt lat="59.235267" lon="17.973802">
        <ele>35</ele>
        <time>2014-10-11T10:06:54Z</time>
      </trkpt>
      <trkpt lat="59.235309" lon="17.973823">
        <ele>35</ele>
        <time>2014-10-11T10:06:55Z</time>
      </trkpt>
      <trkpt lat="59.235352" lon="17.973839">
        <ele>35</ele>
        <time>2014-10-11T10:06:56Z</time>
      </trkpt>
      <trkpt lat="59.235396" lon="17.973867">
        <ele>35</ele>
        <time>2014-10-11T10:06:57Z</time>
      </trkpt>
      <trkpt lat="59.235424" lon="17.973917">
        <ele>35</ele>
        <time>2014-10-11T10:06:58Z</time>
      </trkpt>
      <trkpt lat="59.235448" lon="17.973972">
        <ele>35.1</ele>
        <time>2014-10-11T10:06:59Z</time>
      </trkpt>
      <trkpt lat="59.235472" lon="17.974031">
        <ele>35.2</ele>
        <time>2014-10-11T10:07:01Z</time>
      </trkpt>
      <trkpt lat="59.235481" lon="17.973979">
        <ele>35.3</ele>
        <time>2014-10-11T10:07:08Z</time>
      </trkpt>
      <trkpt lat="59.235499" lon="17.974128">
        <ele>35.3</ele>
        <time>2014-10-11T10:07:36Z</time>
      </trkpt>
      <trkpt lat="59.235497" lon="17.974188">
        <ele>35.3</ele>
        <time>2014-10-11T10:07:37Z</time>
      </trkpt>
      <trkpt lat="59.235483" lon="17.974271">
        <ele>35.2</ele>
        <time>2014-10-11T10:07:38Z</time>
      </trkpt>
      <trkpt lat="59.235436" lon="17.974435">
        <ele>35.1</ele>
        <time>2014-10-11T10:07:39Z</time>
      </trkpt>
      <trkpt lat="59.235406" lon="17.97455">
        <ele>35</ele>
        <time>2014-10-11T10:07:40Z</time>
      </trkpt>
      <trkpt lat="59.235375" lon="17.974666">
        <ele>35</ele>
        <time>2014-10-11T10:07:41Z</time>
      </trkpt>
      <trkpt lat="59.235333" lon="17.974781">
        <ele>35</ele>
        <time>2014-10-11T10:07:42Z</time>
      </trkpt>
      <trkpt lat="59.2353" lon="17.974898">
        <ele>34.9</ele>
        <time>2014-10-11T10:07:43Z</time>
      </trkpt>
      <trkpt lat="59.235271" lon="17.975011">
        <ele>34.9</ele>
        <time>2014-10-11T10:07:44Z</time>
      </trkpt>
      <trkpt lat="59.235236" lon="17.975134">
        <ele>34.9</ele>
        <time>2014-10-11T10:07:45Z</time>
      </trkpt>
      <trkpt lat="59.235201" lon="17.975247">
        <ele>34.8</ele>
        <time>2014-10-11T10:07:46Z</time>
      </trkpt>
      <trkpt lat="59.235163" lon="17.975368">
        <ele>34.7</ele>
        <time>2014-10-11T10:07:47Z</time>
      </trkpt>
      <trkpt lat="59.235128" lon="17.975493">
        <ele>34.6</ele>
        <time>2014-10-11T10:07:48Z</time>
      </trkpt>
      <trkpt lat="59.235092" lon="17.97562">
        <ele>34.6</ele>
        <time>2014-10-11T10:07:49Z</time>
      </trkpt>
      <trkpt lat="59.235052" lon="17.975729">
        <ele>34.5</ele>
        <time>2014-10-11T10:07:50Z</time>
      </trkpt>
      <trkpt lat="59.235013" lon="17.975844">
        <ele>34.5</ele>
        <time>2014-10-11T10:07:51Z</time>
      </trkpt>
      <trkpt lat="59.234974" lon="17.97596">
        <ele>34.5</ele>
        <time>2014-10-11T10:07:52Z</time>
      </trkpt>
      <trkpt lat="59.234931" lon="17.976074">
        <ele>34.5</ele>
        <time>2014-10-11T10:07:53Z</time>
      </trkpt>
      <trkpt lat="59.234884" lon="17.97619">
        <ele>34.6</ele>
        <time>2014-10-11T10:07:54Z</time>
      </trkpt>
      <trkpt lat="59.234837" lon="17.976298">
        <ele>34.7</ele>
        <time>2014-10-11T10:07:55Z</time>
      </trkpt>
      <trkpt lat="59.234792" lon="17.976404">
        <ele>34.8</ele>
        <time>2014-10-11T10:07:56Z</time>
      </trkpt>
      <trkpt lat="59.23475" lon="17.976501">
        <ele>35</ele>
        <time>2014-10-11T10:07:57Z</time>
      </trkpt>
      <trkpt lat="59.234702" lon="17.9766">
        <ele>35.2</ele>
        <time>2014-10-11T10:07:58Z</time>
      </trkpt>
      <trkpt lat="59.234645" lon="17.97669">
        <ele>35.4</ele>
        <time>2014-10-11T10:07:59Z</time>
      </trkpt>
      <trkpt lat="59.234597" lon="17.976787">
        <ele>35.6</ele>
        <time>2014-10-11T10:08:00Z</time>
      </trkpt>
      <trkpt lat="59.234531" lon="17.976844">
        <ele>35.9</ele>
        <time>2014-10-11T10:08:01Z</time>
      </trkpt>
      <trkpt lat="59.234477" lon="17.976917">
        <ele>36.2</ele>
        <time>2014-10-11T10:08:02Z</time>
      </trkpt>
      <trkpt lat="59.234417" lon="17.977002">
        <ele>36.5</ele>
        <time>2014-10-11T10:08:03Z</time>
      </trkpt>
      <trkpt lat="59.234363" lon="17.977089">
        <ele>36.8</ele>
        <time>2014-10-11T10:08:04Z</time>
      </trkpt>
      <trkpt lat="59.234311" lon="17.977172">
        <ele>37</ele>
        <time>2014-10-11T10:08:05Z</time>
      </trkpt>
      <trkpt lat="59.234265" lon="17.977241">
        <ele>37.2</ele>
        <time>2014-10-11T10:08:06Z</time>
      </trkpt>
      <trkpt lat="59.234228" lon="17.977293">
        <ele>37.3</ele>
        <time>2014-10-11T10:08:07Z</time>
      </trkpt>
      <trkpt lat="59.234198" lon="17.977338">
        <ele>37.4</ele>
        <time>2014-10-11T10:08:08Z</time>
      </trkpt>
      <trkpt lat="59.234165" lon="17.977335">
        <ele>37.5</ele>
        <time>2014-10-11T10:08:10Z</time>
      </trkpt>
      <trkpt lat="59.234138" lon="17.977371">
        <ele>37.6</ele>
        <time>2014-10-11T10:08:12Z</time>
      </trkpt>
      <trkpt lat="59.234113" lon="17.977408">
        <ele>37.6</ele>
        <time>2014-10-11T10:08:13Z</time>
      </trkpt>
      <trkpt lat="59.234062" lon="17.977486">
        <ele>37.8</ele>
        <time>2014-10-11T10:08:15Z</time>
      </trkpt>
      <trkpt lat="59.234017" lon="17.977537">
        <ele>37.8</ele>
        <time>2014-10-11T10:08:16Z</time>
      </trkpt>
      <trkpt lat="59.233959" lon="17.977587">
        <ele>37.9</ele>
        <time>2014-10-11T10:08:17Z</time>
      </trkpt>
      <trkpt lat="59.233904" lon="17.977644">
        <ele>38</ele>
        <time>2014-10-11T10:08:18Z</time>
      </trkpt>
      <trkpt lat="59.23384" lon="17.977705">
        <ele>38.1</ele>
        <time>2014-10-11T10:08:19Z</time>
      </trkpt>
      <trkpt lat="59.233774" lon="17.977765">
        <ele>38.1</ele>
        <time>2014-10-11T10:08:20Z</time>
      </trkpt>
      <trkpt lat="59.233709" lon="17.977837">
        <ele>38.1</ele>
        <time>2014-10-11T10:08:21Z</time>
      </trkpt>
      <trkpt lat="59.233639" lon="17.977911">
        <ele>38.1</ele>
        <time>2014-10-11T10:08:22Z</time>
      </trkpt>
      <trkpt lat="59.233568" lon="17.977992">
        <ele>38.1</ele>
        <time>2014-10-11T10:08:23Z</time>
      </trkpt>
      <trkpt lat="59.233495" lon="17.978067">
        <ele>38.1</ele>
        <time>2014-10-11T10:08:24Z</time>
      </trkpt>
      <trkpt lat="59.233426" lon="17.978146">
        <ele>38</ele>
        <time>2014-10-11T10:08:25Z</time>
      </trkpt>
      <trkpt lat="59.233361" lon="17.978198">
        <ele>38</ele>
        <time>2014-10-11T10:08:26Z</time>
      </trkpt>
      <trkpt lat="59.233285" lon="17.978288">
        <ele>37.9</ele>
        <time>2014-10-11T10:08:27Z</time>
      </trkpt>
      <trkpt lat="59.23319" lon="17.978385">
        <ele>37.7</ele>
        <time>2014-10-11T10:08:28Z</time>
      </trkpt>
      <trkpt lat="59.233113" lon="17.978453">
        <ele>37.6</ele>
        <time>2014-10-11T10:08:29Z</time>
      </trkpt>
      <trkpt lat="59.233037" lon="17.978548">
        <ele>37.4</ele>
        <time>2014-10-11T10:08:30Z</time>
      </trkpt>
      <trkpt lat="59.232965" lon="17.978633">
        <ele>37.3</ele>
        <time>2014-10-11T10:08:31Z</time>
      </trkpt>
      <trkpt lat="59.232884" lon="17.978734">
        <ele>37</ele>
        <time>2014-10-11T10:08:32Z</time>
      </trkpt>
      <trkpt lat="59.232802" lon="17.978855">
        <ele>36.6</ele>
        <time>2014-10-11T10:08:33Z</time>
      </trkpt>
      <trkpt lat="59.232732" lon="17.978964">
        <ele>36.4</ele>
        <time>2014-10-11T10:08:34Z</time>
      </trkpt>
      <trkpt lat="59.232657" lon="17.979077">
        <ele>36.2</ele>
        <time>2014-10-11T10:08:35Z</time>
      </trkpt>
      <trkpt lat="59.23258" lon="17.979204">
        <ele>36.1</ele>
        <time>2014-10-11T10:08:36Z</time>
      </trkpt>
      <trkpt lat="59.232499" lon="17.979342">
        <ele>36</ele>
        <time>2014-10-11T10:08:37Z</time>
      </trkpt>
      <trkpt lat="59.232424" lon="17.979465">
        <ele>36</ele>
        <time>2014-10-11T10:08:38Z</time>
      </trkpt>
      <trkpt lat="59.232353" lon="17.979592">
        <ele>36</ele>
        <time>2014-10-11T10:08:39Z</time>
      </trkpt>
      <trkpt lat="59.232279" lon="17.97972">
        <ele>36.2</ele>
        <time>2014-10-11T10:08:40Z</time>
      </trkpt>
      <trkpt lat="59.232218" lon="17.97985">
        <ele>36.4</ele>
        <time>2014-10-11T10:08:41Z</time>
      </trkpt>
      <trkpt lat="59.232161" lon="17.979988">
        <ele>36.8</ele>
        <time>2014-10-11T10:08:42Z</time>
      </trkpt>
      <trkpt lat="59.232099" lon="17.980128">
        <ele>37.3</ele>
        <time>2014-10-11T10:08:43Z</time>
      </trkpt>
      <trkpt lat="59.232039" lon="17.980263">
        <ele>38.2</ele>
        <time>2014-10-11T10:08:44Z</time>
      </trkpt>
      <trkpt lat="59.231966" lon="17.980379">
        <ele>39.5</ele>
        <time>2014-10-11T10:08:45Z</time>
      </trkpt>
      <trkpt lat="59.231902" lon="17.980514">
        <ele>40.3</ele>
        <time>2014-10-11T10:08:46Z</time>
      </trkpt>
      <trkpt lat="59.231837" lon="17.980641">
        <ele>40.9</ele>
        <time>2014-10-11T10:08:47Z</time>
      </trkpt>
      <trkpt lat="59.231789" lon="17.980794">
        <ele>41.3</ele>
        <time>2014-10-11T10:08:48Z</time>
      </trkpt>
      <trkpt lat="59.231737" lon="17.980952">
        <ele>41.7</ele>
        <time>2014-10-11T10:08:49Z</time>
      </trkpt>
      <trkpt lat="59.231694" lon="17.981083">
        <ele>42</ele>
        <time>2014-10-11T10:08:50Z</time>
      </trkpt>
      <trkpt lat="59.231648" lon="17.981209">
        <ele>42.3</ele>
        <time>2014-10-11T10:08:51Z</time>
      </trkpt>
      <trkpt lat="59.231598" lon="17.981343">
        <ele>42.6</ele>
        <time>2014-10-11T10:08:52Z</time>
      </trkpt>
      <trkpt lat="59.231555" lon="17.981504">
        <ele>42.8</ele>
        <time>2014-10-11T10:08:53Z</time>
      </trkpt>
      <trkpt lat="59.231507" lon="17.981656">
        <ele>43.1</ele>
        <time>2014-10-11T10:08:54Z</time>
      </trkpt>
      <trkpt lat="59.231458" lon="17.981797">
        <ele>43.4</ele>
        <time>2014-10-11T10:08:55Z</time>
      </trkpt>
      <trkpt lat="59.231419" lon="17.98197">
        <ele>43.4</ele>
        <time>2014-10-11T10:08:56Z</time>
      </trkpt>
      <trkpt lat="59.231378" lon="17.982115">
        <ele>43.3</ele>
        <time>2014-10-11T10:08:57Z</time>
      </trkpt>
      <trkpt lat="59.231331" lon="17.982271">
        <ele>42.4</ele>
        <time>2014-10-11T10:08:58Z</time>
      </trkpt>
      <trkpt lat="59.231284" lon="17.982412">
        <ele>41.5</ele>
        <time>2014-10-11T10:08:59Z</time>
      </trkpt>
      <trkpt lat="59.231241" lon="17.982583">
        <ele>40.2</ele>
        <time>2014-10-11T10:09:00Z</time>
      </trkpt>
      <trkpt lat="59.231192" lon="17.982716">
        <ele>39.2</ele>
        <time>2014-10-11T10:09:01Z</time>
      </trkpt>
      <trkpt lat="59.231134" lon="17.982868">
        <ele>38.3</ele>
        <time>2014-10-11T10:09:02Z</time>
      </trkpt>
      <trkpt lat="59.231086" lon="17.983021">
        <ele>37.3</ele>
        <time>2014-10-11T10:09:03Z</time>
      </trkpt>
      <trkpt lat="59.231041" lon="17.983169">
        <ele>36.5</ele>
        <time>2014-10-11T10:09:04Z</time>
      </trkpt>
      <trkpt lat="59.23099" lon="17.983323">
        <ele>35.7</ele>
        <time>2014-10-11T10:09:05Z</time>
      </trkpt>
      <trkpt lat="59.230949" lon="17.983475">
        <ele>35</ele>
        <time>2014-10-11T10:09:06Z</time>
      </trkpt>
      <trkpt lat="59.230901" lon="17.98365">
        <ele>34.3</ele>
        <time>2014-10-11T10:09:07Z</time>
      </trkpt>
      <trkpt lat="59.230848" lon="17.983823">
        <ele>34.3</ele>
        <time>2014-10-11T10:09:08Z</time>
      </trkpt>
      <trkpt lat="59.2308" lon="17.983984">
        <ele>35.1</ele>
        <time>2014-10-11T10:09:09Z</time>
      </trkpt>
      <trkpt lat="59.230756" lon="17.984144">
        <ele>35.9</ele>
        <time>2014-10-11T10:09:10Z</time>
      </trkpt>
      <trkpt lat="59.230717" lon="17.984297">
        <ele>36.6</ele>
        <time>2014-10-11T10:09:11Z</time>
      </trkpt>
      <trkpt lat="59.230674" lon="17.984447">
        <ele>37.5</ele>
        <time>2014-10-11T10:09:12Z</time>
      </trkpt>
      <trkpt lat="59.23063" lon="17.984621">
        <ele>38.5</ele>
        <time>2014-10-11T10:09:13Z</time>
      </trkpt>
      <trkpt lat="59.230582" lon="17.984768">
        <ele>39.7</ele>
        <time>2014-10-11T10:09:14Z</time>
      </trkpt>
      <trkpt lat="59.230542" lon="17.984933">
        <ele>40.8</ele>
        <time>2014-10-11T10:09:15Z</time>
      </trkpt>
      <trkpt lat="59.230492" lon="17.985103">
        <ele>42.3</ele>
        <time>2014-10-11T10:09:16Z</time>
      </trkpt>
      <trkpt lat="59.230447" lon="17.985256">
        <ele>43.8</ele>
        <time>2014-10-11T10:09:17Z</time>
      </trkpt>
      <trkpt lat="59.230405" lon="17.985417">
        <ele>45.1</ele>
        <time>2014-10-11T10:09:18Z</time>
      </trkpt>
      <trkpt lat="59.230356" lon="17.985585">
        <ele>44</ele>
        <time>2014-10-11T10:09:19Z</time>
      </trkpt>
      <trkpt lat="59.2303" lon="17.985732">
        <ele>43.2</ele>
        <time>2014-10-11T10:09:20Z</time>
      </trkpt>
      <trkpt lat="59.230251" lon="17.985893">
        <ele>42.4</ele>
        <time>2014-10-11T10:09:21Z</time>
      </trkpt>
      <trkpt lat="59.230203" lon="17.986035">
        <ele>41.8</ele>
        <time>2014-10-11T10:09:22Z</time>
      </trkpt>
      <trkpt lat="59.230145" lon="17.986163">
        <ele>41.5</ele>
        <time>2014-10-11T10:09:23Z</time>
      </trkpt>
      <trkpt lat="59.230089" lon="17.986305">
        <ele>41.2</ele>
        <time>2014-10-11T10:09:24Z</time>
      </trkpt>
      <trkpt lat="59.230036" lon="17.986464">
        <ele>40.8</ele>
        <time>2014-10-11T10:09:25Z</time>
      </trkpt>
      <trkpt lat="59.229975" lon="17.986608">
        <ele>40.7</ele>
        <time>2014-10-11T10:09:26Z</time>
      </trkpt>
      <trkpt lat="59.229926" lon="17.986764">
        <ele>40.4</ele>
        <time>2014-10-11T10:09:27Z</time>
      </trkpt>
      <trkpt lat="59.229873" lon="17.986915">
        <ele>40.4</ele>
        <time>2014-10-11T10:09:28Z</time>
      </trkpt>
      <trkpt lat="59.229813" lon="17.987029">
        <ele>40.7</ele>
        <time>2014-10-11T10:09:29Z</time>
      </trkpt>
      <trkpt lat="59.229768" lon="17.98715">
        <ele>40.7</ele>
        <time>2014-10-11T10:09:30Z</time>
      </trkpt>
      <trkpt lat="59.229724" lon="17.987267">
        <ele>40.6</ele>
        <time>2014-10-11T10:09:31Z</time>
      </trkpt>
      <trkpt lat="59.229674" lon="17.987418">
        <ele>40.4</ele>
        <time>2014-10-11T10:09:32Z</time>
      </trkpt>
      <trkpt lat="59.229628" lon="17.987567">
        <ele>39.9</ele>
        <time>2014-10-11T10:09:33Z</time>
      </trkpt>
      <trkpt lat="59.229575" lon="17.987712">
        <ele>39.5</ele>
        <time>2014-10-11T10:09:34Z</time>
      </trkpt>
      <trkpt lat="59.22952" lon="17.987853">
        <ele>38.5</ele>
        <time>2014-10-11T10:09:35Z</time>
      </trkpt>
      <trkpt lat="59.229463" lon="17.988001">
        <ele>37.4</ele>
        <time>2014-10-11T10:09:36Z</time>
      </trkpt>
      <trkpt lat="59.229409" lon="17.988134">
        <ele>36.5</ele>
        <time>2014-10-11T10:09:37Z</time>
      </trkpt>
      <trkpt lat="59.229358" lon="17.988263">
        <ele>35.6</ele>
        <time>2014-10-11T10:09:38Z</time>
      </trkpt>
      <trkpt lat="59.229308" lon="17.98839">
        <ele>34.8</ele>
        <time>2014-10-11T10:09:39Z</time>
      </trkpt>
      <trkpt lat="59.229262" lon="17.988536">
        <ele>33.8</ele>
        <time>2014-10-11T10:09:40Z</time>
      </trkpt>
      <trkpt lat="59.229221" lon="17.988679">
        <ele>32.9</ele>
        <time>2014-10-11T10:09:41Z</time>
      </trkpt>
      <trkpt lat="59.229174" lon="17.988817">
        <ele>32.4</ele>
        <time>2014-10-11T10:09:42Z</time>
      </trkpt>
      <trkpt lat="59.229131" lon="17.988947">
        <ele>32.2</ele>
        <time>2014-10-11T10:09:43Z</time>
      </trkpt>
      <trkpt lat="59.229083" lon="17.98908">
        <ele>32</ele>
        <time>2014-10-11T10:09:44Z</time>
      </trkpt>
      <trkpt lat="59.229036" lon="17.989204">
        <ele>31.9</ele>
        <time>2014-10-11T10:09:45Z</time>
      </trkpt>
      <trkpt lat="59.228989" lon="17.9893">
        <ele>31.9</ele>
        <time>2014-10-11T10:09:46Z</time>
      </trkpt>
      <trkpt lat="59.228945" lon="17.989422">
        <ele>31.8</ele>
        <time>2014-10-11T10:09:47Z</time>
      </trkpt>
      <trkpt lat="59.228901" lon="17.989545">
        <ele>31.7</ele>
        <time>2014-10-11T10:09:48Z</time>
      </trkpt>
      <trkpt lat="59.228875" lon="17.989689">
        <ele>31.4</ele>
        <time>2014-10-11T10:09:49Z</time>
      </trkpt>
      <trkpt lat="59.228846" lon="17.989771">
        <ele>31.3</ele>
        <time>2014-10-11T10:09:50Z</time>
      </trkpt>
      <trkpt lat="59.228804" lon="17.9899">
        <ele>31.1</ele>
        <time>2014-10-11T10:09:51Z</time>
      </trkpt>
      <trkpt lat="59.22875" lon="17.990019">
        <ele>31</ele>
        <time>2014-10-11T10:09:52Z</time>
      </trkpt>
      <trkpt lat="59.228712" lon="17.990127">
        <ele>30.8</ele>
        <time>2014-10-11T10:09:53Z</time>
      </trkpt>
      <trkpt lat="59.228682" lon="17.990242">
        <ele>30.7</ele>
        <time>2014-10-11T10:09:54Z</time>
      </trkpt>
      <trkpt lat="59.228639" lon="17.99037">
        <ele>30.5</ele>
        <time>2014-10-11T10:09:55Z</time>
      </trkpt>
      <trkpt lat="59.228603" lon="17.990492">
        <ele>30.5</ele>
        <time>2014-10-11T10:09:56Z</time>
      </trkpt>
      <trkpt lat="59.228569" lon="17.990625">
        <ele>30.7</ele>
        <time>2014-10-11T10:09:57Z</time>
      </trkpt>
      <trkpt lat="59.228545" lon="17.990758">
        <ele>30.7</ele>
        <time>2014-10-11T10:09:58Z</time>
      </trkpt>
      <trkpt lat="59.228525" lon="17.990897">
        <ele>30.8</ele>
        <time>2014-10-11T10:09:59Z</time>
      </trkpt>
      <trkpt lat="59.228509" lon="17.991026">
        <ele>30.9</ele>
        <time>2014-10-11T10:10:00Z</time>
      </trkpt>
      <trkpt lat="59.228485" lon="17.991177">
        <ele>31</ele>
        <time>2014-10-11T10:10:01Z</time>
      </trkpt>
      <trkpt lat="59.228472" lon="17.991309">
        <ele>30.9</ele>
        <time>2014-10-11T10:10:02Z</time>
      </trkpt>
      <trkpt lat="59.228465" lon="17.991446">
        <ele>30.8</ele>
        <time>2014-10-11T10:10:03Z</time>
      </trkpt>
      <trkpt lat="59.228446" lon="17.991588">
        <ele>30.7</ele>
        <time>2014-10-11T10:10:04Z</time>
      </trkpt>
      <trkpt lat="59.228419" lon="17.991725">
        <ele>30.6</ele>
        <time>2014-10-11T10:10:05Z</time>
      </trkpt>
      <trkpt lat="59.228404" lon="17.991874">
        <ele>30.5</ele>
        <time>2014-10-11T10:10:06Z</time>
      </trkpt>
      <trkpt lat="59.228414" lon="17.991987">
        <ele>30.3</ele>
        <time>2014-10-11T10:10:07Z</time>
      </trkpt>
      <trkpt lat="59.228406" lon="17.99213">
        <ele>30.3</ele>
        <time>2014-10-11T10:10:08Z</time>
      </trkpt>
      <trkpt lat="59.228391" lon="17.992291">
        <ele>30.4</ele>
        <time>2014-10-11T10:10:09Z</time>
      </trkpt>
      <trkpt lat="59.228393" lon="17.992442">
        <ele>30.5</ele>
        <time>2014-10-11T10:10:10Z</time>
      </trkpt>
      <trkpt lat="59.22839" lon="17.99259">
        <ele>30.6</ele>
        <time>2014-10-11T10:10:11Z</time>
      </trkpt>
      <trkpt lat="59.228373" lon="17.99272">
        <ele>30.8</ele>
        <time>2014-10-11T10:10:12Z</time>
      </trkpt>
      <trkpt lat="59.228379" lon="17.992868">
        <ele>30.9</ele>
        <time>2014-10-11T10:10:13Z</time>
      </trkpt>
      <trkpt lat="59.228385" lon="17.99302">
        <ele>31.1</ele>
        <time>2014-10-11T10:10:14Z</time>
      </trkpt>
      <trkpt lat="59.228387" lon="17.993162">
        <ele>31.3</ele>
        <time>2014-10-11T10:10:15Z</time>
      </trkpt>
      <trkpt lat="59.228389" lon="17.993302">
        <ele>31.6</ele>
        <time>2014-10-11T10:10:16Z</time>
      </trkpt>
      <trkpt lat="59.228398" lon="17.993441">
        <ele>31.8</ele>
        <time>2014-10-11T10:10:17Z</time>
      </trkpt>
      <trkpt lat="59.2284" lon="17.993567">
        <ele>32.1</ele>
        <time>2014-10-11T10:10:18Z</time>
      </trkpt>
      <trkpt lat="59.228397" lon="17.993711">
        <ele>32.3</ele>
        <time>2014-10-11T10:10:19Z</time>
      </trkpt>
      <trkpt lat="59.228403" lon="17.993822">
        <ele>32.5</ele>
        <time>2014-10-11T10:10:20Z</time>
      </trkpt>
      <trkpt lat="59.228407" lon="17.993952">
        <ele>32.7</ele>
        <time>2014-10-11T10:10:21Z</time>
      </trkpt>
      <trkpt lat="59.228357" lon="17.994112">
        <ele>33.1</ele>
        <time>2014-10-11T10:10:22Z</time>
      </trkpt>
      <trkpt lat="59.228365" lon="17.994228">
        <ele>33.3</ele>
        <time>2014-10-11T10:10:23Z</time>
      </trkpt>
      <trkpt lat="59.228365" lon="17.994361">
        <ele>33.5</ele>
        <time>2014-10-11T10:10:24Z</time>
      </trkpt>
      <trkpt lat="59.228353" lon="17.994536">
        <ele>33.8</ele>
        <time>2014-10-11T10:10:25Z</time>
      </trkpt>
      <trkpt lat="59.228348" lon="17.994706">
        <ele>34.3</ele>
        <time>2014-10-11T10:10:26Z</time>
      </trkpt>
      <trkpt lat="59.228344" lon="17.99486">
        <ele>34.8</ele>
        <time>2014-10-11T10:10:27Z</time>
      </trkpt>
      <trkpt lat="59.228347" lon="17.995021">
        <ele>35.2</ele>
        <time>2014-10-11T10:10:28Z</time>
      </trkpt>
      <trkpt lat="59.228347" lon="17.995161">
        <ele>35.6</ele>
        <time>2014-10-11T10:10:29Z</time>
      </trkpt>
      <trkpt lat="59.228344" lon="17.995327">
        <ele>36.1</ele>
        <time>2014-10-11T10:10:30Z</time>
      </trkpt>
      <trkpt lat="59.228322" lon="17.995513">
        <ele>36.1</ele>
        <time>2014-10-11T10:10:31Z</time>
      </trkpt>
      <trkpt lat="59.22833" lon="17.995669">
        <ele>35.3</ele>
        <time>2014-10-11T10:10:32Z</time>
      </trkpt>
      <trkpt lat="59.228315" lon="17.995838">
        <ele>34.6</ele>
        <time>2014-10-11T10:10:33Z</time>
      </trkpt>
      <trkpt lat="59.228298" lon="17.996013">
        <ele>33.9</ele>
        <time>2014-10-11T10:10:34Z</time>
      </trkpt>
      <trkpt lat="59.228289" lon="17.996192">
        <ele>33.1</ele>
        <time>2014-10-11T10:10:35Z</time>
      </trkpt>
      <trkpt lat="59.228274" lon="17.99638">
        <ele>32.1</ele>
        <time>2014-10-11T10:10:36Z</time>
      </trkpt>
      <trkpt lat="59.228264" lon="17.996533">
        <ele>31.2</ele>
        <time>2014-10-11T10:10:37Z</time>
      </trkpt>
      <trkpt lat="59.228255" lon="17.996709">
        <ele>30.1</ele>
        <time>2014-10-11T10:10:38Z</time>
      </trkpt>
      <trkpt lat="59.228246" lon="17.996875">
        <ele>29.1</ele>
        <time>2014-10-11T10:10:39Z</time>
      </trkpt>
      <trkpt lat="59.228234" lon="17.99705">
        <ele>28.1</ele>
        <time>2014-10-11T10:10:40Z</time>
      </trkpt>
      <trkpt lat="59.228231" lon="17.997207">
        <ele>27.8</ele>
        <time>2014-10-11T10:10:41Z</time>
      </trkpt>
      <trkpt lat="59.228228" lon="17.997367">
        <ele>27.7</ele>
        <time>2014-10-11T10:10:42Z</time>
      </trkpt>
      <trkpt lat="59.228226" lon="17.997531">
        <ele>27.5</ele>
        <time>2014-10-11T10:10:43Z</time>
      </trkpt>
      <trkpt lat="59.228223" lon="17.997692">
        <ele>27.4</ele>
        <time>2014-10-11T10:10:44Z</time>
      </trkpt>
      <trkpt lat="59.228212" lon="17.997852">
        <ele>27.3</ele>
        <time>2014-10-11T10:10:45Z</time>
      </trkpt>
      <trkpt lat="59.228201" lon="17.998023">
        <ele>27.1</ele>
        <time>2014-10-11T10:10:46Z</time>
      </trkpt>
      <trkpt lat="59.228194" lon="17.998188">
        <ele>26.8</ele>
        <time>2014-10-11T10:10:47Z</time>
      </trkpt>
      <trkpt lat="59.228192" lon="17.998361">
        <ele>26.4</ele>
        <time>2014-10-11T10:10:48Z</time>
      </trkpt>
      <trkpt lat="59.228184" lon="17.998534">
        <ele>26.1</ele>
        <time>2014-10-11T10:10:49Z</time>
      </trkpt>
      <trkpt lat="59.228189" lon="17.998684">
        <ele>25.8</ele>
        <time>2014-10-11T10:10:50Z</time>
      </trkpt>
      <trkpt lat="59.228188" lon="17.998836">
        <ele>25.7</ele>
        <time>2014-10-11T10:10:51Z</time>
      </trkpt>
      <trkpt lat="59.228185" lon="17.998998">
        <ele>25.8</ele>
        <time>2014-10-11T10:10:52Z</time>
      </trkpt>
      <trkpt lat="59.22817" lon="17.999145">
        <ele>25.8</ele>
        <time>2014-10-11T10:10:53Z</time>
      </trkpt>
      <trkpt lat="59.22814" lon="17.999266">
        <ele>25.9</ele>
        <time>2014-10-11T10:10:54Z</time>
      </trkpt>
      <trkpt lat="59.228091" lon="17.999331">
        <ele>25.9</ele>
        <time>2014-10-11T10:10:55Z</time>
      </trkpt>
      <trkpt lat="59.228019" lon="17.999401">
        <ele>26</ele>
        <time>2014-10-11T10:10:56Z</time>
      </trkpt>
      <trkpt lat="59.227951" lon="17.999397">
        <ele>26</ele>
        <time>2014-10-11T10:10:57Z</time>
      </trkpt>
      <trkpt lat="59.227886" lon="17.999391">
        <ele>26.1</ele>
        <time>2014-10-11T10:10:58Z</time>
      </trkpt>
      <trkpt lat="59.227813" lon="17.999391">
        <ele>26.2</ele>
        <time>2014-10-11T10:10:59Z</time>
      </trkpt>
      <trkpt lat="59.227741" lon="17.999413">
        <ele>26.3</ele>
        <time>2014-10-11T10:11:00Z</time>
      </trkpt>
      <trkpt lat="59.227668" lon="17.999438">
        <ele>26.5</ele>
        <time>2014-10-11T10:11:01Z</time>
      </trkpt>
      <trkpt lat="59.2276" lon="17.999458">
        <ele>26.6</ele>
        <time>2014-10-11T10:11:02Z</time>
      </trkpt>
      <trkpt lat="59.227529" lon="17.999463">
        <ele>26.8</ele>
        <time>2014-10-11T10:11:03Z</time>
      </trkpt>
      <trkpt lat="59.227453" lon="17.999475">
        <ele>27</ele>
        <time>2014-10-11T10:11:04Z</time>
      </trkpt>
      <trkpt lat="59.227379" lon="17.999492">
        <ele>27.1</ele>
        <time>2014-10-11T10:11:05Z</time>
      </trkpt>
      <trkpt lat="59.227309" lon="17.9995">
        <ele>27.3</ele>
        <time>2014-10-11T10:11:06Z</time>
      </trkpt>
      <trkpt lat="59.22724" lon="17.999496">
        <ele>27.5</ele>
        <time>2014-10-11T10:11:07Z</time>
      </trkpt>
      <trkpt lat="59.227164" lon="17.999521">
        <ele>27.7</ele>
        <time>2014-10-11T10:11:08Z</time>
      </trkpt>
      <trkpt lat="59.227097" lon="17.999529">
        <ele>27.8</ele>
        <time>2014-10-11T10:11:09Z</time>
      </trkpt>
      <trkpt lat="59.22703" lon="17.999546">
        <ele>28.5</ele>
        <time>2014-10-11T10:11:10Z</time>
      </trkpt>
      <trkpt lat="59.226973" lon="17.999546">
        <ele>29.1</ele>
        <time>2014-10-11T10:11:11Z</time>
      </trkpt>
      <trkpt lat="59.226904" lon="17.999531">
        <ele>29.9</ele>
        <time>2014-10-11T10:11:12Z</time>
      </trkpt>
      <trkpt lat="59.226833" lon="17.999535">
        <ele>30.7</ele>
        <time>2014-10-11T10:11:13Z</time>
      </trkpt>
      <trkpt lat="59.226764" lon="17.999551">
        <ele>31.5</ele>
        <time>2014-10-11T10:11:14Z</time>
      </trkpt>
      <trkpt lat="59.226696" lon="17.99957">
        <ele>32.2</ele>
        <time>2014-10-11T10:11:15Z</time>
      </trkpt>
      <trkpt lat="59.226633" lon="17.999595">
        <ele>32.8</ele>
        <time>2014-10-11T10:11:16Z</time>
      </trkpt>
      <trkpt lat="59.226564" lon="17.999634">
        <ele>33.4</ele>
        <time>2014-10-11T10:11:17Z</time>
      </trkpt>
      <trkpt lat="59.226488" lon="17.999684">
        <ele>33.9</ele>
        <time>2014-10-11T10:11:18Z</time>
      </trkpt>
      <trkpt lat="59.226428" lon="17.999702">
        <ele>34.4</ele>
        <time>2014-10-11T10:11:19Z</time>
      </trkpt>
      <trkpt lat="59.226351" lon="17.999766">
        <ele>34.6</ele>
        <time>2014-10-11T10:11:20Z</time>
      </trkpt>
      <trkpt lat="59.226279" lon="17.999839">
        <ele>34.6</ele>
        <time>2014-10-11T10:11:21Z</time>
      </trkpt>
      <trkpt lat="59.226211" lon="17.999892">
        <ele>34.8</ele>
        <time>2014-10-11T10:11:22Z</time>
      </trkpt>
      <trkpt lat="59.22614" lon="17.999967">
        <ele>34.9</ele>
        <time>2014-10-11T10:11:23Z</time>
      </trkpt>
      <trkpt lat="59.226074" lon="18.000043">
        <ele>35.1</ele>
        <time>2014-10-11T10:11:24Z</time>
      </trkpt>
      <trkpt lat="59.226015" lon="18.000095">
        <ele>35.4</ele>
        <time>2014-10-11T10:11:25Z</time>
      </trkpt>
      <trkpt lat="59.225949" lon="18.00016">
        <ele>35.7</ele>
        <time>2014-10-11T10:11:26Z</time>
      </trkpt>
      <trkpt lat="59.22589" lon="18.000214">
        <ele>36</ele>
        <time>2014-10-11T10:11:27Z</time>
      </trkpt>
      <trkpt lat="59.225805" lon="18.000256">
        <ele>36.8</ele>
        <time>2014-10-11T10:11:28Z</time>
      </trkpt>
      <trkpt lat="59.225737" lon="18.000332">
        <ele>37.2</ele>
        <time>2014-10-11T10:11:29Z</time>
      </trkpt>
      <trkpt lat="59.225691" lon="18.000394">
        <ele>37.5</ele>
        <time>2014-10-11T10:11:30Z</time>
      </trkpt>
      <trkpt lat="59.225631" lon="18.000465">
        <ele>38.1</ele>
        <time>2014-10-11T10:11:31Z</time>
      </trkpt>
      <trkpt lat="59.225581" lon="18.000529">
        <ele>38.6</ele>
        <time>2014-10-11T10:11:32Z</time>
      </trkpt>
      <trkpt lat="59.225531" lon="18.000607">
        <ele>39.1</ele>
        <time>2014-10-11T10:11:33Z</time>
      </trkpt>
      <trkpt lat="59.225477" lon="18.000671">
        <ele>39.5</ele>
        <time>2014-10-11T10:11:34Z</time>
      </trkpt>
      <trkpt lat="59.225421" lon="18.000729">
        <ele>39.8</ele>
        <time>2014-10-11T10:11:35Z</time>
      </trkpt>
      <trkpt lat="59.22536" lon="18.000835">
        <ele>40.1</ele>
        <time>2014-10-11T10:11:36Z</time>
      </trkpt>
      <trkpt lat="59.225312" lon="18.000908">
        <ele>40.4</ele>
        <time>2014-10-11T10:11:37Z</time>
      </trkpt>
      <trkpt lat="59.225263" lon="18.000976">
        <ele>40.7</ele>
        <time>2014-10-11T10:11:38Z</time>
      </trkpt>
      <trkpt lat="59.225206" lon="18.001067">
        <ele>41</ele>
        <time>2014-10-11T10:11:39Z</time>
      </trkpt>
      <trkpt lat="59.225143" lon="18.001149">
        <ele>41.4</ele>
        <time>2014-10-11T10:11:40Z</time>
      </trkpt>
      <trkpt lat="59.2251" lon="18.00123">
        <ele>41.5</ele>
        <time>2014-10-11T10:11:41Z</time>
      </trkpt>
      <trkpt lat="59.225065" lon="18.001297">
        <ele>41.6</ele>
        <time>2014-10-11T10:11:42Z</time>
      </trkpt>
      <trkpt lat="59.225017" lon="18.001391">
        <ele>41.6</ele>
        <time>2014-10-11T10:11:43Z</time>
      </trkpt>
      <trkpt lat="59.224968" lon="18.001468">
        <ele>41.8</ele>
        <time>2014-10-11T10:11:44Z</time>
      </trkpt>
      <trkpt lat="59.224936" lon="18.001532">
        <ele>41.8</ele>
        <time>2014-10-11T10:11:45Z</time>
      </trkpt>
      <trkpt lat="59.224898" lon="18.001607">
        <ele>41.9</ele>
        <time>2014-10-11T10:11:46Z</time>
      </trkpt>
      <trkpt lat="59.224853" lon="18.001682">
        <ele>42</ele>
        <time>2014-10-11T10:11:47Z</time>
      </trkpt>
      <trkpt lat="59.224815" lon="18.001749">
        <ele>42.1</ele>
        <time>2014-10-11T10:11:48Z</time>
      </trkpt>
      <trkpt lat="59.224777" lon="18.001846">
        <ele>42</ele>
        <time>2014-10-11T10:11:49Z</time>
      </trkpt>
      <trkpt lat="59.224736" lon="18.001909">
        <ele>42.2</ele>
        <time>2014-10-11T10:11:50Z</time>
      </trkpt>
      <trkpt lat="59.224699" lon="18.001979">
        <ele>42.3</ele>
        <time>2014-10-11T10:11:51Z</time>
      </trkpt>
      <trkpt lat="59.224656" lon="18.002042">
        <ele>42.4</ele>
        <time>2014-10-11T10:11:52Z</time>
      </trkpt>
      <trkpt lat="59.224609" lon="18.002099">
        <ele>42.7</ele>
        <time>2014-10-11T10:11:53Z</time>
      </trkpt>
      <trkpt lat="59.224572" lon="18.002144">
        <ele>43</ele>
        <time>2014-10-11T10:11:54Z</time>
      </trkpt>
      <trkpt lat="59.224533" lon="18.002213">
        <ele>43.4</ele>
        <time>2014-10-11T10:11:55Z</time>
      </trkpt>
      <trkpt lat="59.224494" lon="18.002292">
        <ele>43.7</ele>
        <time>2014-10-11T10:11:56Z</time>
      </trkpt>
      <trkpt lat="59.224456" lon="18.002342">
        <ele>44.1</ele>
        <time>2014-10-11T10:11:57Z</time>
      </trkpt>
      <trkpt lat="59.224419" lon="18.002405">
        <ele>44.4</ele>
        <time>2014-10-11T10:11:58Z</time>
      </trkpt>
      <trkpt lat="59.22438" lon="18.002488">
        <ele>44.7</ele>
        <time>2014-10-11T10:11:59Z</time>
      </trkpt>
      <trkpt lat="59.224337" lon="18.002534">
        <ele>45.2</ele>
        <time>2014-10-11T10:12:00Z</time>
      </trkpt>
      <trkpt lat="59.224299" lon="18.002624">
        <ele>45.5</ele>
        <time>2014-10-11T10:12:01Z</time>
      </trkpt>
      <trkpt lat="59.224264" lon="18.002697">
        <ele>45.7</ele>
        <time>2014-10-11T10:12:02Z</time>
      </trkpt>
      <trkpt lat="59.224216" lon="18.002756">
        <ele>46.2</ele>
        <time>2014-10-11T10:12:03Z</time>
      </trkpt>
      <trkpt lat="59.224178" lon="18.002822">
        <ele>46.6</ele>
        <time>2014-10-11T10:12:04Z</time>
      </trkpt>
      <trkpt lat="59.224138" lon="18.002899">
        <ele>46.9</ele>
        <time>2014-10-11T10:12:05Z</time>
      </trkpt>
      <trkpt lat="59.2241" lon="18.002972">
        <ele>47.2</ele>
        <time>2014-10-11T10:12:06Z</time>
      </trkpt>
      <trkpt lat="59.224059" lon="18.003052">
        <ele>47.6</ele>
        <time>2014-10-11T10:12:07Z</time>
      </trkpt>
      <trkpt lat="59.224021" lon="18.003128">
        <ele>47.9</ele>
        <time>2014-10-11T10:12:08Z</time>
      </trkpt>
      <trkpt lat="59.223989" lon="18.003176">
        <ele>48.2</ele>
        <time>2014-10-11T10:12:09Z</time>
      </trkpt>
      <trkpt lat="59.223947" lon="18.003244">
        <ele>48.6</ele>
        <time>2014-10-11T10:12:10Z</time>
      </trkpt>
      <trkpt lat="59.223909" lon="18.003321">
        <ele>48.9</ele>
        <time>2014-10-11T10:12:11Z</time>
      </trkpt>
      <trkpt lat="59.22387" lon="18.003403">
        <ele>49.2</ele>
        <time>2014-10-11T10:12:12Z</time>
      </trkpt>
      <trkpt lat="59.223834" lon="18.003466">
        <ele>49.6</ele>
        <time>2014-10-11T10:12:13Z</time>
      </trkpt>
      <trkpt lat="59.223793" lon="18.003528">
        <ele>50</ele>
        <time>2014-10-11T10:12:14Z</time>
      </trkpt>
      <trkpt lat="59.223753" lon="18.003588">
        <ele>50.3</ele>
        <time>2014-10-11T10:12:15Z</time>
      </trkpt>
      <trkpt lat="59.223722" lon="18.003644">
        <ele>50.5</ele>
        <time>2014-10-11T10:12:16Z</time>
      </trkpt>
      <trkpt lat="59.223686" lon="18.003713">
        <ele>50.6</ele>
        <time>2014-10-11T10:12:17Z</time>
      </trkpt>
      <trkpt lat="59.223638" lon="18.003759">
        <ele>50.9</ele>
        <time>2014-10-11T10:12:18Z</time>
      </trkpt>
      <trkpt lat="59.223599" lon="18.003843">
        <ele>51.1</ele>
        <time>2014-10-11T10:12:19Z</time>
      </trkpt>
      <trkpt lat="59.223562" lon="18.003925">
        <ele>51.3</ele>
        <time>2014-10-11T10:12:20Z</time>
      </trkpt>
      <trkpt lat="59.223531" lon="18.003988">
        <ele>51.5</ele>
        <time>2014-10-11T10:12:21Z</time>
      </trkpt>
      <trkpt lat="59.223492" lon="18.004064">
        <ele>51.7</ele>
        <time>2014-10-11T10:12:22Z</time>
      </trkpt>
      <trkpt lat="59.223455" lon="18.004137">
        <ele>51.8</ele>
        <time>2014-10-11T10:12:23Z</time>
      </trkpt>
      <trkpt lat="59.223411" lon="18.004211">
        <ele>52.1</ele>
        <time>2014-10-11T10:12:24Z</time>
      </trkpt>
      <trkpt lat="59.223384" lon="18.004252">
        <ele>52.2</ele>
        <time>2014-10-11T10:12:25Z</time>
      </trkpt>
      <trkpt lat="59.223345" lon="18.004317">
        <ele>52.4</ele>
        <time>2014-10-11T10:12:26Z</time>
      </trkpt>
      <trkpt lat="59.223296" lon="18.004385">
        <ele>52.6</ele>
        <time>2014-10-11T10:12:27Z</time>
      </trkpt>
      <trkpt lat="59.223253" lon="18.004471">
        <ele>52.8</ele>
        <time>2014-10-11T10:12:28Z</time>
      </trkpt>
      <trkpt lat="59.223221" lon="18.00452">
        <ele>52.9</ele>
        <time>2014-10-11T10:12:29Z</time>
      </trkpt>
      <trkpt lat="59.223179" lon="18.004591">
        <ele>53.1</ele>
        <time>2014-10-11T10:12:30Z</time>
      </trkpt>
      <trkpt lat="59.223143" lon="18.004642">
        <ele>53.2</ele>
        <time>2014-10-11T10:12:31Z</time>
      </trkpt>
      <trkpt lat="59.223101" lon="18.004724">
        <ele>53.3</ele>
        <time>2014-10-11T10:12:32Z</time>
      </trkpt>
      <trkpt lat="59.223057" lon="18.004795">
        <ele>53.5</ele>
        <time>2014-10-11T10:12:33Z</time>
      </trkpt>
      <trkpt lat="59.223015" lon="18.004839">
        <ele>53.7</ele>
        <time>2014-10-11T10:12:34Z</time>
      </trkpt>
      <trkpt lat="59.22296" lon="18.004918">
        <ele>53.9</ele>
        <time>2014-10-11T10:12:35Z</time>
      </trkpt>
      <trkpt lat="59.222913" lon="18.004994">
        <ele>54</ele>
        <time>2014-10-11T10:12:36Z</time>
      </trkpt>
      <trkpt lat="59.222856" lon="18.005069">
        <ele>54.3</ele>
        <time>2014-10-11T10:12:37Z</time>
      </trkpt>
      <trkpt lat="59.222823" lon="18.005113">
        <ele>54.5</ele>
        <time>2014-10-11T10:12:38Z</time>
      </trkpt>
      <trkpt lat="59.222767" lon="18.005192">
        <ele>54.7</ele>
        <time>2014-10-11T10:12:39Z</time>
      </trkpt>
      <trkpt lat="59.222712" lon="18.005248">
        <ele>55.1</ele>
        <time>2014-10-11T10:12:40Z</time>
      </trkpt>
      <trkpt lat="59.222674" lon="18.005299">
        <ele>55.3</ele>
        <time>2014-10-11T10:12:41Z</time>
      </trkpt>
      <trkpt lat="59.222634" lon="18.005375">
        <ele>55.5</ele>
        <time>2014-10-11T10:12:42Z</time>
      </trkpt>
      <trkpt lat="59.222578" lon="18.005455">
        <ele>55.7</ele>
        <time>2014-10-11T10:12:43Z</time>
      </trkpt>
      <trkpt lat="59.222528" lon="18.005527">
        <ele>55.9</ele>
        <time>2014-10-11T10:12:44Z</time>
      </trkpt>
      <trkpt lat="59.222483" lon="18.005585">
        <ele>56</ele>
        <time>2014-10-11T10:12:45Z</time>
      </trkpt>
      <trkpt lat="59.222436" lon="18.005671">
        <ele>56.1</ele>
        <time>2014-10-11T10:12:46Z</time>
      </trkpt>
      <trkpt lat="59.222393" lon="18.005741">
        <ele>56.1</ele>
        <time>2014-10-11T10:12:47Z</time>
      </trkpt>
      <trkpt lat="59.222347" lon="18.005815">
        <ele>56.2</ele>
        <time>2014-10-11T10:12:48Z</time>
      </trkpt>
      <trkpt lat="59.22229" lon="18.005929">
        <ele>56.1</ele>
        <time>2014-10-11T10:12:49Z</time>
      </trkpt>
      <trkpt lat="59.222239" lon="18.006001">
        <ele>56.1</ele>
        <time>2014-10-11T10:12:50Z</time>
      </trkpt>
      <trkpt lat="59.222179" lon="18.006088">
        <ele>56.2</ele>
        <time>2014-10-11T10:12:51Z</time>
      </trkpt>
      <trkpt lat="59.2221" lon="18.006172">
        <ele>56.3</ele>
        <time>2014-10-11T10:12:52Z</time>
      </trkpt>
      <trkpt lat="59.222067" lon="18.006266">
        <ele>56</ele>
        <time>2014-10-11T10:12:53Z</time>
      </trkpt>
      <trkpt lat="59.222017" lon="18.00634">
        <ele>55.8</ele>
        <time>2014-10-11T10:12:54Z</time>
      </trkpt>
      <trkpt lat="59.221967" lon="18.006402">
        <ele>55.7</ele>
        <time>2014-10-11T10:12:55Z</time>
      </trkpt>
      <trkpt lat="59.221917" lon="18.006467">
        <ele>55.7</ele>
        <time>2014-10-11T10:12:56Z</time>
      </trkpt>
      <trkpt lat="59.221857" lon="18.006526">
        <ele>55.8</ele>
        <time>2014-10-11T10:12:57Z</time>
      </trkpt>
      <trkpt lat="59.221803" lon="18.006609">
        <ele>55.8</ele>
        <time>2014-10-11T10:12:58Z</time>
      </trkpt>
      <trkpt lat="59.221754" lon="18.006686">
        <ele>55.8</ele>
        <time>2014-10-11T10:12:59Z</time>
      </trkpt>
      <trkpt lat="59.221703" lon="18.006759">
        <ele>55.9</ele>
        <time>2014-10-11T10:13:00Z</time>
      </trkpt>
      <trkpt lat="59.221656" lon="18.006826">
        <ele>56</ele>
        <time>2014-10-11T10:13:01Z</time>
      </trkpt>
      <trkpt lat="59.221583" lon="18.006923">
        <ele>56.3</ele>
        <time>2014-10-11T10:13:02Z</time>
      </trkpt>
      <trkpt lat="59.221531" lon="18.007001">
        <ele>56.5</ele>
        <time>2014-10-11T10:13:03Z</time>
      </trkpt>
      <trkpt lat="59.221491" lon="18.007068">
        <ele>56.7</ele>
        <time>2014-10-11T10:13:04Z</time>
      </trkpt>
      <trkpt lat="59.221442" lon="18.007146">
        <ele>56.9</ele>
        <time>2014-10-11T10:13:05Z</time>
      </trkpt>
      <trkpt lat="59.221395" lon="18.007214">
        <ele>57.1</ele>
        <time>2014-10-11T10:13:06Z</time>
      </trkpt>
      <trkpt lat="59.221345" lon="18.007286">
        <ele>57.2</ele>
        <time>2014-10-11T10:13:07Z</time>
      </trkpt>
      <trkpt lat="59.221269" lon="18.007353">
        <ele>57.5</ele>
        <time>2014-10-11T10:13:08Z</time>
      </trkpt>
      <trkpt lat="59.2212" lon="18.007413">
        <ele>57.6</ele>
        <time>2014-10-11T10:13:09Z</time>
      </trkpt>
      <trkpt lat="59.221171" lon="18.007399">
        <ele>57.7</ele>
        <time>2014-10-11T10:13:10Z</time>
      </trkpt>
      <trkpt lat="59.221122" lon="18.007439">
        <ele>57.7</ele>
        <time>2014-10-11T10:13:11Z</time>
      </trkpt>
      <trkpt lat="59.221077" lon="18.0075">
        <ele>57.5</ele>
        <time>2014-10-11T10:13:12Z</time>
      </trkpt>
      <trkpt lat="59.22103" lon="18.007589">
        <ele>57.3</ele>
        <time>2014-10-11T10:13:13Z</time>
      </trkpt>
      <trkpt lat="59.220986" lon="18.007673">
        <ele>57</ele>
        <time>2014-10-11T10:13:14Z</time>
      </trkpt>
      <trkpt lat="59.220973" lon="18.007799">
        <ele>56.5</ele>
        <time>2014-10-11T10:13:15Z</time>
      </trkpt>
      <trkpt lat="59.220902" lon="18.007884">
        <ele>56.4</ele>
        <time>2014-10-11T10:13:16Z</time>
      </trkpt>
      <trkpt lat="59.220863" lon="18.007952">
        <ele>56.2</ele>
        <time>2014-10-11T10:13:17Z</time>
      </trkpt>
      <trkpt lat="59.220808" lon="18.008049">
        <ele>55.9</ele>
        <time>2014-10-11T10:13:18Z</time>
      </trkpt>
      <trkpt lat="59.220763" lon="18.008091">
        <ele>55.8</ele>
        <time>2014-10-11T10:13:19Z</time>
      </trkpt>
      <trkpt lat="59.220715" lon="18.008173">
        <ele>55.6</ele>
        <time>2014-10-11T10:13:20Z</time>
      </trkpt>
      <trkpt lat="59.220659" lon="18.008253">
        <ele>55.4</ele>
        <time>2014-10-11T10:13:21Z</time>
      </trkpt>
      <trkpt lat="59.220599" lon="18.008331">
        <ele>55.2</ele>
        <time>2014-10-11T10:13:22Z</time>
      </trkpt>
      <trkpt lat="59.220537" lon="18.008416">
        <ele>55.1</ele>
        <time>2014-10-11T10:13:23Z</time>
      </trkpt>
      <trkpt lat="59.220477" lon="18.008489">
        <ele>55</ele>
        <time>2014-10-11T10:13:24Z</time>
      </trkpt>
      <trkpt lat="59.220416" lon="18.008563">
        <ele>54.9</ele>
        <time>2014-10-11T10:13:25Z</time>
      </trkpt>
      <trkpt lat="59.220349" lon="18.008649">
        <ele>55</ele>
        <time>2014-10-11T10:13:26Z</time>
      </trkpt>
      <trkpt lat="59.220283" lon="18.008711">
        <ele>55.3</ele>
        <time>2014-10-11T10:13:27Z</time>
      </trkpt>
      <trkpt lat="59.220211" lon="18.008751">
        <ele>55.7</ele>
        <time>2014-10-11T10:13:28Z</time>
      </trkpt>
      <trkpt lat="59.220139" lon="18.0088">
        <ele>56.2</ele>
        <time>2014-10-11T10:13:29Z</time>
      </trkpt>
      <trkpt lat="59.220068" lon="18.008864">
        <ele>56.6</ele>
        <time>2014-10-11T10:13:30Z</time>
      </trkpt>
      <trkpt lat="59.220002" lon="18.008966">
        <ele>56.8</ele>
        <time>2014-10-11T10:13:31Z</time>
      </trkpt>
      <trkpt lat="59.219956" lon="18.009106">
        <ele>56.7</ele>
        <time>2014-10-11T10:13:32Z</time>
      </trkpt>
      <trkpt lat="59.219891" lon="18.009222">
        <ele>56.6</ele>
        <time>2014-10-11T10:13:33Z</time>
      </trkpt>
      <trkpt lat="59.219817" lon="18.009325">
        <ele>56.6</ele>
        <time>2014-10-11T10:13:34Z</time>
      </trkpt>
      <trkpt lat="59.219741" lon="18.009395">
        <ele>56.5</ele>
        <time>2014-10-11T10:13:35Z</time>
      </trkpt>
      <trkpt lat="59.219657" lon="18.009474">
        <ele>56.4</ele>
        <time>2014-10-11T10:13:36Z</time>
      </trkpt>
      <trkpt lat="59.219566" lon="18.009561">
        <ele>56.1</ele>
        <time>2014-10-11T10:13:37Z</time>
      </trkpt>
      <trkpt lat="59.219486" lon="18.009643">
        <ele>55.4</ele>
        <time>2014-10-11T10:13:38Z</time>
      </trkpt>
      <trkpt lat="59.219391" lon="18.009731">
        <ele>54.7</ele>
        <time>2014-10-11T10:13:39Z</time>
      </trkpt>
      <trkpt lat="59.219307" lon="18.009823">
        <ele>53.8</ele>
        <time>2014-10-11T10:13:40Z</time>
      </trkpt>
      <trkpt lat="59.218925" lon="18.010126">
        <ele>50.8</ele>
        <time>2014-10-11T10:13:44Z</time>
      </trkpt>
      <trkpt lat="59.21882" lon="18.010199">
        <ele>50</ele>
        <time>2014-10-11T10:13:45Z</time>
      </trkpt>
      <trkpt lat="59.218743" lon="18.010263">
        <ele>49.3</ele>
        <time>2014-10-11T10:13:46Z</time>
      </trkpt>
      <trkpt lat="59.218522" lon="18.010397">
        <ele>49</ele>
        <time>2014-10-11T10:13:48Z</time>
      </trkpt>
      <trkpt lat="59.218426" lon="18.010448">
        <ele>49.1</ele>
        <time>2014-10-11T10:13:49Z</time>
      </trkpt>
      <trkpt lat="59.218326" lon="18.010512">
        <ele>49.2</ele>
        <time>2014-10-11T10:13:50Z</time>
      </trkpt>
      <trkpt lat="59.218241" lon="18.010571">
        <ele>49.2</ele>
        <time>2014-10-11T10:13:51Z</time>
      </trkpt>
      <trkpt lat="59.218144" lon="18.010637">
        <ele>49.1</ele>
        <time>2014-10-11T10:13:52Z</time>
      </trkpt>
      <trkpt lat="59.218044" lon="18.01069">
        <ele>49.1</ele>
        <time>2014-10-11T10:13:53Z</time>
      </trkpt>
      <trkpt lat="59.217954" lon="18.010758">
        <ele>48.9</ele>
        <time>2014-10-11T10:13:54Z</time>
      </trkpt>
      <trkpt lat="59.217847" lon="18.010836">
        <ele>48.7</ele>
        <time>2014-10-11T10:13:55Z</time>
      </trkpt>
      <trkpt lat="59.217761" lon="18.010897">
        <ele>48.6</ele>
        <time>2014-10-11T10:13:56Z</time>
      </trkpt>
      <trkpt lat="59.217666" lon="18.010949">
        <ele>48.6</ele>
        <time>2014-10-11T10:13:57Z</time>
      </trkpt>
      <trkpt lat="59.217566" lon="18.011009">
        <ele>48.5</ele>
        <time>2014-10-11T10:13:58Z</time>
      </trkpt>
      <trkpt lat="59.217477" lon="18.011062">
        <ele>48.4</ele>
        <time>2014-10-11T10:13:59Z</time>
      </trkpt>
      <trkpt lat="59.217396" lon="18.011105">
        <ele>48.3</ele>
        <time>2014-10-11T10:14:00Z</time>
      </trkpt>
      <trkpt lat="59.217301" lon="18.011176">
        <ele>48.1</ele>
        <time>2014-10-11T10:14:01Z</time>
      </trkpt>
      <trkpt lat="59.217223" lon="18.011223">
        <ele>47.9</ele>
        <time>2014-10-11T10:14:02Z</time>
      </trkpt>
      <trkpt lat="59.217132" lon="18.011291">
        <ele>47.5</ele>
        <time>2014-10-11T10:14:03Z</time>
      </trkpt>
      <trkpt lat="59.21705" lon="18.011368">
        <ele>46.7</ele>
        <time>2014-10-11T10:14:04Z</time>
      </trkpt>
      <trkpt lat="59.21697" lon="18.011442">
        <ele>45.7</ele>
        <time>2014-10-11T10:14:05Z</time>
      </trkpt>
      <trkpt lat="59.216875" lon="18.011515">
        <ele>44.7</ele>
        <time>2014-10-11T10:14:06Z</time>
      </trkpt>
      <trkpt lat="59.216787" lon="18.011584">
        <ele>43.7</ele>
        <time>2014-10-11T10:14:07Z</time>
      </trkpt>
      <trkpt lat="59.216696" lon="18.011663">
        <ele>42.6</ele>
        <time>2014-10-11T10:14:08Z</time>
      </trkpt>
      <trkpt lat="59.216609" lon="18.011731">
        <ele>41.7</ele>
        <time>2014-10-11T10:14:09Z</time>
      </trkpt>
      <trkpt lat="59.216536" lon="18.011785">
        <ele>40.9</ele>
        <time>2014-10-11T10:14:10Z</time>
      </trkpt>
      <trkpt lat="59.216449" lon="18.011854">
        <ele>39.9</ele>
        <time>2014-10-11T10:14:11Z</time>
      </trkpt>
      <trkpt lat="59.216363" lon="18.011932">
        <ele>38.9</ele>
        <time>2014-10-11T10:14:12Z</time>
      </trkpt>
      <trkpt lat="59.216279" lon="18.012">
        <ele>37.9</ele>
        <time>2014-10-11T10:14:13Z</time>
      </trkpt>
      <trkpt lat="59.216193" lon="18.012079">
        <ele>37.2</ele>
        <time>2014-10-11T10:14:14Z</time>
      </trkpt>
      <trkpt lat="59.216114" lon="18.012157">
        <ele>37.6</ele>
        <time>2014-10-11T10:14:15Z</time>
      </trkpt>
      <trkpt lat="59.216029" lon="18.012218">
        <ele>38</ele>
        <time>2014-10-11T10:14:16Z</time>
      </trkpt>
      <trkpt lat="59.215934" lon="18.012291">
        <ele>38.4</ele>
        <time>2014-10-11T10:14:17Z</time>
      </trkpt>
      <trkpt lat="59.215865" lon="18.012352">
        <ele>38.6</ele>
        <time>2014-10-11T10:14:18Z</time>
      </trkpt>
      <trkpt lat="59.215781" lon="18.012421">
        <ele>38.8</ele>
        <time>2014-10-11T10:14:19Z</time>
      </trkpt>
      <trkpt lat="59.215711" lon="18.012487">
        <ele>39</ele>
        <time>2014-10-11T10:14:20Z</time>
      </trkpt>
      <trkpt lat="59.21563" lon="18.012569">
        <ele>39.1</ele>
        <time>2014-10-11T10:14:21Z</time>
      </trkpt>
      <trkpt lat="59.215554" lon="18.01263">
        <ele>39.1</ele>
        <time>2014-10-11T10:14:22Z</time>
      </trkpt>
      <trkpt lat="59.21548" lon="18.012692">
        <ele>39.1</ele>
        <time>2014-10-11T10:14:23Z</time>
      </trkpt>
      <trkpt lat="59.215402" lon="18.012761">
        <ele>39</ele>
        <time>2014-10-11T10:14:24Z</time>
      </trkpt>
      <trkpt lat="59.215308" lon="18.012798">
        <ele>38.9</ele>
        <time>2014-10-11T10:14:25Z</time>
      </trkpt>
      <trkpt lat="59.215232" lon="18.012862">
        <ele>38.8</ele>
        <time>2014-10-11T10:14:26Z</time>
      </trkpt>
      <trkpt lat="59.215143" lon="18.012888">
        <ele>38.7</ele>
        <time>2014-10-11T10:14:27Z</time>
      </trkpt>
      <trkpt lat="59.215061" lon="18.012946">
        <ele>38.5</ele>
        <time>2014-10-11T10:14:28Z</time>
      </trkpt>
      <trkpt lat="59.214983" lon="18.013009">
        <ele>38.3</ele>
        <time>2014-10-11T10:14:29Z</time>
      </trkpt>
      <trkpt lat="59.214913" lon="18.013068">
        <ele>38.1</ele>
        <time>2014-10-11T10:14:30Z</time>
      </trkpt>
      <trkpt lat="59.214838" lon="18.01313">
        <ele>37.9</ele>
        <time>2014-10-11T10:14:31Z</time>
      </trkpt>
      <trkpt lat="59.21477" lon="18.013184">
        <ele>37.7</ele>
        <time>2014-10-11T10:14:32Z</time>
      </trkpt>
      <trkpt lat="59.214692" lon="18.013247">
        <ele>37.4</ele>
        <time>2014-10-11T10:14:33Z</time>
      </trkpt>
      <trkpt lat="59.214622" lon="18.013322">
        <ele>37.1</ele>
        <time>2014-10-11T10:14:34Z</time>
      </trkpt>
      <trkpt lat="59.21455" lon="18.013391">
        <ele>36.6</ele>
        <time>2014-10-11T10:14:35Z</time>
      </trkpt>
      <trkpt lat="59.214461" lon="18.013471">
        <ele>35.6</ele>
        <time>2014-10-11T10:14:36Z</time>
      </trkpt>
      <trkpt lat="59.214389" lon="18.013535">
        <ele>34.8</ele>
        <time>2014-10-11T10:14:37Z</time>
      </trkpt>
      <trkpt lat="59.21431" lon="18.013614">
        <ele>34</ele>
        <time>2014-10-11T10:14:38Z</time>
      </trkpt>
      <trkpt lat="59.214241" lon="18.013654">
        <ele>33.3</ele>
        <time>2014-10-11T10:14:39Z</time>
      </trkpt>
      <trkpt lat="59.214165" lon="18.01372">
        <ele>32.5</ele>
        <time>2014-10-11T10:14:40Z</time>
      </trkpt>
      <trkpt lat="59.214086" lon="18.013777">
        <ele>31.8</ele>
        <time>2014-10-11T10:14:41Z</time>
      </trkpt>
      <trkpt lat="59.214018" lon="18.013845">
        <ele>31.4</ele>
        <time>2014-10-11T10:14:42Z</time>
      </trkpt>
      <trkpt lat="59.213938" lon="18.013902">
        <ele>30.8</ele>
        <time>2014-10-11T10:14:43Z</time>
      </trkpt>
      <trkpt lat="59.213862" lon="18.013955">
        <ele>30.3</ele>
        <time>2014-10-11T10:14:44Z</time>
      </trkpt>
      <trkpt lat="59.213793" lon="18.014019">
        <ele>30</ele>
        <time>2014-10-11T10:14:45Z</time>
      </trkpt>
      <trkpt lat="59.213719" lon="18.014086">
        <ele>29.8</ele>
        <time>2014-10-11T10:14:46Z</time>
      </trkpt>
      <trkpt lat="59.213649" lon="18.014139">
        <ele>29.9</ele>
        <time>2014-10-11T10:14:47Z</time>
      </trkpt>
      <trkpt lat="59.213576" lon="18.014188">
        <ele>30.1</ele>
        <time>2014-10-11T10:14:48Z</time>
      </trkpt>
      <trkpt lat="59.21349" lon="18.014246">
        <ele>30.2</ele>
        <time>2014-10-11T10:14:49Z</time>
      </trkpt>
      <trkpt lat="59.213423" lon="18.014297">
        <ele>30.3</ele>
        <time>2014-10-11T10:14:50Z</time>
      </trkpt>
      <trkpt lat="59.21335" lon="18.014325">
        <ele>30.4</ele>
        <time>2014-10-11T10:14:51Z</time>
      </trkpt>
      <trkpt lat="59.213273" lon="18.014357">
        <ele>30.5</ele>
        <time>2014-10-11T10:14:52Z</time>
      </trkpt>
      <trkpt lat="59.213201" lon="18.014395">
        <ele>30.5</ele>
        <time>2014-10-11T10:14:53Z</time>
      </trkpt>
      <trkpt lat="59.213129" lon="18.014423">
        <ele>30.6</ele>
        <time>2014-10-11T10:14:54Z</time>
      </trkpt>
      <trkpt lat="59.213057" lon="18.014447">
        <ele>30.7</ele>
        <time>2014-10-11T10:14:55Z</time>
      </trkpt>
      <trkpt lat="59.212982" lon="18.014443">
        <ele>30.7</ele>
        <time>2014-10-11T10:14:56Z</time>
      </trkpt>
      <trkpt lat="59.212897" lon="18.014468">
        <ele>30.7</ele>
        <time>2014-10-11T10:14:57Z</time>
      </trkpt>
      <trkpt lat="59.212819" lon="18.014466">
        <ele>30.5</ele>
        <time>2014-10-11T10:14:58Z</time>
      </trkpt>
      <trkpt lat="59.212745" lon="18.014494">
        <ele>30.4</ele>
        <time>2014-10-11T10:14:59Z</time>
      </trkpt>
      <trkpt lat="59.212673" lon="18.014491">
        <ele>30.2</ele>
        <time>2014-10-11T10:15:00Z</time>
      </trkpt>
      <trkpt lat="59.212595" lon="18.014519">
        <ele>30.1</ele>
        <time>2014-10-11T10:15:01Z</time>
      </trkpt>
      <trkpt lat="59.212516" lon="18.014527">
        <ele>29.9</ele>
        <time>2014-10-11T10:15:02Z</time>
      </trkpt>
      <trkpt lat="59.212438" lon="18.014528">
        <ele>29.8</ele>
        <time>2014-10-11T10:15:03Z</time>
      </trkpt>
      <trkpt lat="59.212354" lon="18.014517">
        <ele>29.5</ele>
        <time>2014-10-11T10:15:04Z</time>
      </trkpt>
      <trkpt lat="59.212274" lon="18.014517">
        <ele>29.4</ele>
        <time>2014-10-11T10:15:05Z</time>
      </trkpt>
      <trkpt lat="59.212189" lon="18.014499">
        <ele>29.1</ele>
        <time>2014-10-11T10:15:06Z</time>
      </trkpt>
      <trkpt lat="59.212111" lon="18.014483">
        <ele>28.9</ele>
        <time>2014-10-11T10:15:07Z</time>
      </trkpt>
      <trkpt lat="59.212026" lon="18.014472">
        <ele>28.9</ele>
        <time>2014-10-11T10:15:08Z</time>
      </trkpt>
      <trkpt lat="59.211955" lon="18.014467">
        <ele>28.9</ele>
        <time>2014-10-11T10:15:09Z</time>
      </trkpt>
      <trkpt lat="59.211875" lon="18.014451">
        <ele>29</ele>
        <time>2014-10-11T10:15:10Z</time>
      </trkpt>
      <trkpt lat="59.211799" lon="18.014429">
        <ele>29</ele>
        <time>2014-10-11T10:15:11Z</time>
      </trkpt>
      <trkpt lat="59.211721" lon="18.014396">
        <ele>28.9</ele>
        <time>2014-10-11T10:15:12Z</time>
      </trkpt>
      <trkpt lat="59.211638" lon="18.014379">
        <ele>28.9</ele>
        <time>2014-10-11T10:15:13Z</time>
      </trkpt>
      <trkpt lat="59.211554" lon="18.014352">
        <ele>28.8</ele>
        <time>2014-10-11T10:15:14Z</time>
      </trkpt>
      <trkpt lat="59.211476" lon="18.014313">
        <ele>28.7</ele>
        <time>2014-10-11T10:15:15Z</time>
      </trkpt>
      <trkpt lat="59.211399" lon="18.014266">
        <ele>28.5</ele>
        <time>2014-10-11T10:15:16Z</time>
      </trkpt>
      <trkpt lat="59.211325" lon="18.014233">
        <ele>28.3</ele>
        <time>2014-10-11T10:15:17Z</time>
      </trkpt>
      <trkpt lat="59.211241" lon="18.014178">
        <ele>28.1</ele>
        <time>2014-10-11T10:15:18Z</time>
      </trkpt>
      <trkpt lat="59.211166" lon="18.014124">
        <ele>28</ele>
        <time>2014-10-11T10:15:19Z</time>
      </trkpt>
      <trkpt lat="59.211083" lon="18.014066">
        <ele>28</ele>
        <time>2014-10-11T10:15:20Z</time>
      </trkpt>
      <trkpt lat="59.211006" lon="18.014012">
        <ele>27.9</ele>
        <time>2014-10-11T10:15:21Z</time>
      </trkpt>
      <trkpt lat="59.21093" lon="18.013965">
        <ele>27.9</ele>
        <time>2014-10-11T10:15:22Z</time>
      </trkpt>
      <trkpt lat="59.210856" lon="18.013894">
        <ele>27.7</ele>
        <time>2014-10-11T10:15:23Z</time>
      </trkpt>
      <trkpt lat="59.210781" lon="18.013831">
        <ele>27.6</ele>
        <time>2014-10-11T10:15:24Z</time>
      </trkpt>
      <trkpt lat="59.210715" lon="18.013767">
        <ele>27.4</ele>
        <time>2014-10-11T10:15:25Z</time>
      </trkpt>
      <trkpt lat="59.210643" lon="18.013694">
        <ele>27.6</ele>
        <time>2014-10-11T10:15:26Z</time>
      </trkpt>
      <trkpt lat="59.210573" lon="18.01363">
        <ele>28</ele>
        <time>2014-10-11T10:15:27Z</time>
      </trkpt>
      <trkpt lat="59.210501" lon="18.013547">
        <ele>28.5</ele>
        <time>2014-10-11T10:15:28Z</time>
      </trkpt>
      <trkpt lat="59.210431" lon="18.013452">
        <ele>29</ele>
        <time>2014-10-11T10:15:29Z</time>
      </trkpt>
      <trkpt lat="59.210354" lon="18.013372">
        <ele>29.8</ele>
        <time>2014-10-11T10:15:30Z</time>
      </trkpt>
      <trkpt lat="59.210285" lon="18.013273">
        <ele>30.5</ele>
        <time>2014-10-11T10:15:31Z</time>
      </trkpt>
      <trkpt lat="59.210226" lon="18.013182">
        <ele>31</ele>
        <time>2014-10-11T10:15:32Z</time>
      </trkpt>
      <trkpt lat="59.210158" lon="18.013076">
        <ele>31.5</ele>
        <time>2014-10-11T10:15:33Z</time>
      </trkpt>
      <trkpt lat="59.210099" lon="18.01299">
        <ele>31.7</ele>
        <time>2014-10-11T10:15:34Z</time>
      </trkpt>
      <trkpt lat="59.210036" lon="18.0129">
        <ele>31.9</ele>
        <time>2014-10-11T10:15:35Z</time>
      </trkpt>
      <trkpt lat="59.209974" lon="18.012812">
        <ele>32</ele>
        <time>2014-10-11T10:15:36Z</time>
      </trkpt>
      <trkpt lat="59.209904" lon="18.012717">
        <ele>32</ele>
        <time>2014-10-11T10:15:37Z</time>
      </trkpt>
      <trkpt lat="59.209849" lon="18.012637">
        <ele>31.9</ele>
        <time>2014-10-11T10:15:38Z</time>
      </trkpt>
      <trkpt lat="59.209799" lon="18.012548">
        <ele>31.7</ele>
        <time>2014-10-11T10:15:39Z</time>
      </trkpt>
      <trkpt lat="59.20974" lon="18.012459">
        <ele>31.5</ele>
        <time>2014-10-11T10:15:40Z</time>
      </trkpt>
      <trkpt lat="59.209683" lon="18.012379">
        <ele>31.2</ele>
        <time>2014-10-11T10:15:41Z</time>
      </trkpt>
      <trkpt lat="59.209626" lon="18.012284">
        <ele>30.8</ele>
        <time>2014-10-11T10:15:42Z</time>
      </trkpt>
      <trkpt lat="59.209575" lon="18.012195">
        <ele>30.4</ele>
        <time>2014-10-11T10:15:43Z</time>
      </trkpt>
      <trkpt lat="59.209525" lon="18.012107">
        <ele>29.9</ele>
        <time>2014-10-11T10:15:44Z</time>
      </trkpt>
      <trkpt lat="59.209474" lon="18.011989">
        <ele>29.4</ele>
        <time>2014-10-11T10:15:45Z</time>
      </trkpt>
      <trkpt lat="59.209423" lon="18.01189">
        <ele>29</ele>
        <time>2014-10-11T10:15:46Z</time>
      </trkpt>
      <trkpt lat="59.209369" lon="18.011795">
        <ele>28.7</ele>
        <time>2014-10-11T10:15:47Z</time>
      </trkpt>
      <trkpt lat="59.209313" lon="18.0117">
        <ele>28.4</ele>
        <time>2014-10-11T10:15:48Z</time>
      </trkpt>
      <trkpt lat="59.209258" lon="18.011611">
        <ele>28.1</ele>
        <time>2014-10-11T10:15:49Z</time>
      </trkpt>
      <trkpt lat="59.209202" lon="18.011509">
        <ele>27.9</ele>
        <time>2014-10-11T10:15:50Z</time>
      </trkpt>
      <trkpt lat="59.209148" lon="18.011417">
        <ele>27.7</ele>
        <time>2014-10-11T10:15:51Z</time>
      </trkpt>
      <trkpt lat="59.209078" lon="18.011322">
        <ele>27.5</ele>
        <time>2014-10-11T10:15:52Z</time>
      </trkpt>
      <trkpt lat="59.20902" lon="18.011226">
        <ele>27.3</ele>
        <time>2014-10-11T10:15:53Z</time>
      </trkpt>
      <trkpt lat="59.208956" lon="18.011143">
        <ele>27.2</ele>
        <time>2014-10-11T10:15:54Z</time>
      </trkpt>
      <trkpt lat="59.208893" lon="18.011042">
        <ele>27.1</ele>
        <time>2014-10-11T10:15:55Z</time>
      </trkpt>
      <trkpt lat="59.208822" lon="18.010943">
        <ele>27.1</ele>
        <time>2014-10-11T10:15:56Z</time>
      </trkpt>
      <trkpt lat="59.20876" lon="18.010857">
        <ele>27</ele>
        <time>2014-10-11T10:15:57Z</time>
      </trkpt>
      <trkpt lat="59.208704" lon="18.010757">
        <ele>27.3</ele>
        <time>2014-10-11T10:15:58Z</time>
      </trkpt>
      <trkpt lat="59.208643" lon="18.010667">
        <ele>27.8</ele>
        <time>2014-10-11T10:15:59Z</time>
      </trkpt>
      <trkpt lat="59.208586" lon="18.010565">
        <ele>28.3</ele>
        <time>2014-10-11T10:16:00Z</time>
      </trkpt>
      <trkpt lat="59.208526" lon="18.010463">
        <ele>28.8</ele>
        <time>2014-10-11T10:16:01Z</time>
      </trkpt>
      <trkpt lat="59.208465" lon="18.010371">
        <ele>29.6</ele>
        <time>2014-10-11T10:16:02Z</time>
      </trkpt>
      <trkpt lat="59.208405" lon="18.010268">
        <ele>30.5</ele>
        <time>2014-10-11T10:16:03Z</time>
      </trkpt>
      <trkpt lat="59.208333" lon="18.010149">
        <ele>31.6</ele>
        <time>2014-10-11T10:16:04Z</time>
      </trkpt>
      <trkpt lat="59.208271" lon="18.010048">
        <ele>32.5</ele>
        <time>2014-10-11T10:16:05Z</time>
      </trkpt>
      <trkpt lat="59.20821" lon="18.009951">
        <ele>33.4</ele>
        <time>2014-10-11T10:16:06Z</time>
      </trkpt>
      <trkpt lat="59.208152" lon="18.00985">
        <ele>34.3</ele>
        <time>2014-10-11T10:16:07Z</time>
      </trkpt>
      <trkpt lat="59.208089" lon="18.009746">
        <ele>35.1</ele>
        <time>2014-10-11T10:16:08Z</time>
      </trkpt>
      <trkpt lat="59.208029" lon="18.009649">
        <ele>35.9</ele>
        <time>2014-10-11T10:16:09Z</time>
      </trkpt>
      <trkpt lat="59.207969" lon="18.009559">
        <ele>36.7</ele>
        <time>2014-10-11T10:16:10Z</time>
      </trkpt>
      <trkpt lat="59.207922" lon="18.009437">
        <ele>37.3</ele>
        <time>2014-10-11T10:16:11Z</time>
      </trkpt>
      <trkpt lat="59.207865" lon="18.009335">
        <ele>38</ele>
        <time>2014-10-11T10:16:12Z</time>
      </trkpt>
      <trkpt lat="59.207821" lon="18.009255">
        <ele>38.5</ele>
        <time>2014-10-11T10:16:13Z</time>
      </trkpt>
      <trkpt lat="59.207758" lon="18.009175">
        <ele>39.1</ele>
        <time>2014-10-11T10:16:14Z</time>
      </trkpt>
      <trkpt lat="59.207716" lon="18.00909">
        <ele>39.6</ele>
        <time>2014-10-11T10:16:15Z</time>
      </trkpt>
      <trkpt lat="59.207664" lon="18.008983">
        <ele>40.1</ele>
        <time>2014-10-11T10:16:16Z</time>
      </trkpt>
      <trkpt lat="59.207601" lon="18.008916">
        <ele>40.6</ele>
        <time>2014-10-11T10:16:17Z</time>
      </trkpt>
      <trkpt lat="59.20756" lon="18.008849">
        <ele>41</ele>
        <time>2014-10-11T10:16:18Z</time>
      </trkpt>
      <trkpt lat="59.207517" lon="18.00878">
        <ele>41.4</ele>
        <time>2014-10-11T10:16:19Z</time>
      </trkpt>
      <trkpt lat="59.207486" lon="18.008689">
        <ele>41.8</ele>
        <time>2014-10-11T10:16:20Z</time>
      </trkpt>
      <trkpt lat="59.207464" lon="18.008613">
        <ele>42.2</ele>
        <time>2014-10-11T10:16:21Z</time>
      </trkpt>
      <trkpt lat="59.207436" lon="18.008539">
        <ele>42.6</ele>
        <time>2014-10-11T10:16:22Z</time>
      </trkpt>
      <trkpt lat="59.207435" lon="18.008466">
        <ele>42.8</ele>
        <time>2014-10-11T10:16:24Z</time>
      </trkpt>
      <trkpt lat="59.207413" lon="18.008433">
        <ele>43</ele>
        <time>2014-10-11T10:16:25Z</time>
      </trkpt>
      <trkpt lat="59.207382" lon="18.008413">
        <ele>43.2</ele>
        <time>2014-10-11T10:16:27Z</time>
      </trkpt>
      <trkpt lat="59.207331" lon="18.008514">
        <ele>43.1</ele>
        <time>2014-10-11T10:16:46Z</time>
      </trkpt>
      <trkpt lat="59.207288" lon="18.008532">
        <ele>43.3</ele>
        <time>2014-10-11T10:16:48Z</time>
      </trkpt>
      <trkpt lat="59.207258" lon="18.008532">
        <ele>43.4</ele>
        <time>2014-10-11T10:16:49Z</time>
      </trkpt>
      <trkpt lat="59.207222" lon="18.008508">
        <ele>43.7</ele>
        <time>2014-10-11T10:16:50Z</time>
      </trkpt>
      <trkpt lat="59.207185" lon="18.008493">
        <ele>43.8</ele>
        <time>2014-10-11T10:16:51Z</time>
      </trkpt>
      <trkpt lat="59.207106" lon="18.008344">
        <ele>44.4</ele>
        <time>2014-10-11T10:16:52Z</time>
      </trkpt>
      <trkpt lat="59.207057" lon="18.008287">
        <ele>44.6</ele>
        <time>2014-10-11T10:16:53Z</time>
      </trkpt>
      <trkpt lat="59.207" lon="18.008243">
        <ele>44.8</ele>
        <time>2014-10-11T10:16:54Z</time>
      </trkpt>
      <trkpt lat="59.206952" lon="18.008208">
        <ele>44.9</ele>
        <time>2014-10-11T10:16:55Z</time>
      </trkpt>
      <trkpt lat="59.2069" lon="18.008162">
        <ele>45</ele>
        <time>2014-10-11T10:16:56Z</time>
      </trkpt>
      <trkpt lat="59.20683" lon="18.00816">
        <ele>45.1</ele>
        <time>2014-10-11T10:16:57Z</time>
      </trkpt>
      <trkpt lat="59.206785" lon="18.008145">
        <ele>45.1</ele>
        <time>2014-10-11T10:16:58Z</time>
      </trkpt>
      <trkpt lat="59.206734" lon="18.008122">
        <ele>45.2</ele>
        <time>2014-10-11T10:16:59Z</time>
      </trkpt>
      <trkpt lat="59.206683" lon="18.008098">
        <ele>45.2</ele>
        <time>2014-10-11T10:17:00Z</time>
      </trkpt>
      <trkpt lat="59.206638" lon="18.008061">
        <ele>45.2</ele>
        <time>2014-10-11T10:17:01Z</time>
      </trkpt>
      <trkpt lat="59.206588" lon="18.008025">
        <ele>45.2</ele>
        <time>2014-10-11T10:17:02Z</time>
      </trkpt>
      <trkpt lat="59.206538" lon="18.008009">
        <ele>45.2</ele>
        <time>2014-10-11T10:17:03Z</time>
      </trkpt>
      <trkpt lat="59.206484" lon="18.007985">
        <ele>45.2</ele>
        <time>2014-10-11T10:17:04Z</time>
      </trkpt>
      <trkpt lat="59.206419" lon="18.00795">
        <ele>45.1</ele>
        <time>2014-10-11T10:17:05Z</time>
      </trkpt>
      <trkpt lat="59.206371" lon="18.007932">
        <ele>45</ele>
        <time>2014-10-11T10:17:06Z</time>
      </trkpt>
      <trkpt lat="59.206312" lon="18.0079">
        <ele>45</ele>
        <time>2014-10-11T10:17:07Z</time>
      </trkpt>
      <trkpt lat="59.20626" lon="18.0079">
        <ele>45</ele>
        <time>2014-10-11T10:17:08Z</time>
      </trkpt>
      <trkpt lat="59.206207" lon="18.007884">
        <ele>45.3</ele>
        <time>2014-10-11T10:17:09Z</time>
      </trkpt>
      <trkpt lat="59.20615" lon="18.00786">
        <ele>45.7</ele>
        <time>2014-10-11T10:17:10Z</time>
      </trkpt>
      <trkpt lat="59.206098" lon="18.007837">
        <ele>46.1</ele>
        <time>2014-10-11T10:17:11Z</time>
      </trkpt>
      <trkpt lat="59.20603" lon="18.007798">
        <ele>46.6</ele>
        <time>2014-10-11T10:17:12Z</time>
      </trkpt>
      <trkpt lat="59.205981" lon="18.007761">
        <ele>46.9</ele>
        <time>2014-10-11T10:17:13Z</time>
      </trkpt>
      <trkpt lat="59.205931" lon="18.00774">
        <ele>47.3</ele>
        <time>2014-10-11T10:17:14Z</time>
      </trkpt>
      <trkpt lat="59.205882" lon="18.007721">
        <ele>47.6</ele>
        <time>2014-10-11T10:17:15Z</time>
      </trkpt>
      <trkpt lat="59.205829" lon="18.007694">
        <ele>48</ele>
        <time>2014-10-11T10:17:16Z</time>
      </trkpt>
      <trkpt lat="59.205781" lon="18.007668">
        <ele>48.3</ele>
        <time>2014-10-11T10:17:17Z</time>
      </trkpt>
      <trkpt lat="59.205736" lon="18.007635">
        <ele>48.6</ele>
        <time>2014-10-11T10:17:18Z</time>
      </trkpt>
      <trkpt lat="59.205692" lon="18.007623">
        <ele>49</ele>
        <time>2014-10-11T10:17:19Z</time>
      </trkpt>
      <trkpt lat="59.205644" lon="18.0076">
        <ele>49.3</ele>
        <time>2014-10-11T10:17:20Z</time>
      </trkpt>
      <trkpt lat="59.205597" lon="18.007564">
        <ele>49.6</ele>
        <time>2014-10-11T10:17:21Z</time>
      </trkpt>
      <trkpt lat="59.205553" lon="18.007548">
        <ele>50</ele>
        <time>2014-10-11T10:17:22Z</time>
      </trkpt>
      <trkpt lat="59.205503" lon="18.007536">
        <ele>50.4</ele>
        <time>2014-10-11T10:17:23Z</time>
      </trkpt>
      <trkpt lat="59.20546" lon="18.007514">
        <ele>50.7</ele>
        <time>2014-10-11T10:17:24Z</time>
      </trkpt>
      <trkpt lat="59.20542" lon="18.007491">
        <ele>51</ele>
        <time>2014-10-11T10:17:25Z</time>
      </trkpt>
      <trkpt lat="59.205375" lon="18.007478">
        <ele>51.2</ele>
        <time>2014-10-11T10:17:26Z</time>
      </trkpt>
      <trkpt lat="59.205329" lon="18.007455">
        <ele>51.5</ele>
        <time>2014-10-11T10:17:27Z</time>
      </trkpt>
      <trkpt lat="59.205284" lon="18.007435">
        <ele>51.7</ele>
        <time>2014-10-11T10:17:28Z</time>
      </trkpt>
      <trkpt lat="59.20524" lon="18.007416">
        <ele>52</ele>
        <time>2014-10-11T10:17:29Z</time>
      </trkpt>
      <trkpt lat="59.205192" lon="18.007401">
        <ele>52.3</ele>
        <time>2014-10-11T10:17:30Z</time>
      </trkpt>
      <trkpt lat="59.205141" lon="18.007387">
        <ele>52.6</ele>
        <time>2014-10-11T10:17:31Z</time>
      </trkpt>
      <trkpt lat="59.205097" lon="18.007378">
        <ele>52.9</ele>
        <time>2014-10-11T10:17:32Z</time>
      </trkpt>
      <trkpt lat="59.205053" lon="18.007367">
        <ele>53.2</ele>
        <time>2014-10-11T10:17:33Z</time>
      </trkpt>
      <trkpt lat="59.205006" lon="18.007354">
        <ele>53.4</ele>
        <time>2014-10-11T10:17:34Z</time>
      </trkpt>
      <trkpt lat="59.204966" lon="18.007346">
        <ele>53.7</ele>
        <time>2014-10-11T10:17:35Z</time>
      </trkpt>
      <trkpt lat="59.20492" lon="18.007331">
        <ele>54</ele>
        <time>2014-10-11T10:17:36Z</time>
      </trkpt>
      <trkpt lat="59.204866" lon="18.007309">
        <ele>54.3</ele>
        <time>2014-10-11T10:17:37Z</time>
      </trkpt>
      <trkpt lat="59.204827" lon="18.007288">
        <ele>54.6</ele>
        <time>2014-10-11T10:17:38Z</time>
      </trkpt>
      <trkpt lat="59.204778" lon="18.007268">
        <ele>54.9</ele>
        <time>2014-10-11T10:17:39Z</time>
      </trkpt>
      <trkpt lat="59.204723" lon="18.007247">
        <ele>55.2</ele>
        <time>2014-10-11T10:17:40Z</time>
      </trkpt>
      <trkpt lat="59.204674" lon="18.007225">
        <ele>55.5</ele>
        <time>2014-10-11T10:17:41Z</time>
      </trkpt>
      <trkpt lat="59.204629" lon="18.007206">
        <ele>55.8</ele>
        <time>2014-10-11T10:17:42Z</time>
      </trkpt>
      <trkpt lat="59.204578" lon="18.007187">
        <ele>56.1</ele>
        <time>2014-10-11T10:17:43Z</time>
      </trkpt>
      <trkpt lat="59.204538" lon="18.007171">
        <ele>56.3</ele>
        <time>2014-10-11T10:17:44Z</time>
      </trkpt>
      <trkpt lat="59.204485" lon="18.007153">
        <ele>56.4</ele>
        <time>2014-10-11T10:17:45Z</time>
      </trkpt>
      <trkpt lat="59.204447" lon="18.007127">
        <ele>56.5</ele>
        <time>2014-10-11T10:17:46Z</time>
      </trkpt>
      <trkpt lat="59.204397" lon="18.007104">
        <ele>56.7</ele>
        <time>2014-10-11T10:17:47Z</time>
      </trkpt>
      <trkpt lat="59.20435" lon="18.007072">
        <ele>56.8</ele>
        <time>2014-10-11T10:17:48Z</time>
      </trkpt>
      <trkpt lat="59.204312" lon="18.007013">
        <ele>57</ele>
        <time>2014-10-11T10:17:49Z</time>
      </trkpt>
      <trkpt lat="59.204272" lon="18.006981">
        <ele>57.2</ele>
        <time>2014-10-11T10:17:50Z</time>
      </trkpt>
      <trkpt lat="59.204226" lon="18.006947">
        <ele>57.3</ele>
        <time>2014-10-11T10:17:51Z</time>
      </trkpt>
      <trkpt lat="59.204185" lon="18.006898">
        <ele>57.4</ele>
        <time>2014-10-11T10:17:52Z</time>
      </trkpt>
      <trkpt lat="59.204139" lon="18.006846">
        <ele>57.6</ele>
        <time>2014-10-11T10:17:53Z</time>
      </trkpt>
      <trkpt lat="59.204094" lon="18.006812">
        <ele>57.7</ele>
        <time>2014-10-11T10:17:54Z</time>
      </trkpt>
      <trkpt lat="59.204042" lon="18.006758">
        <ele>57.8</ele>
        <time>2014-10-11T10:17:55Z</time>
      </trkpt>
      <trkpt lat="59.203999" lon="18.006688">
        <ele>57.9</ele>
        <time>2014-10-11T10:17:56Z</time>
      </trkpt>
      <trkpt lat="59.203946" lon="18.00664">
        <ele>58</ele>
        <time>2014-10-11T10:17:57Z</time>
      </trkpt>
      <trkpt lat="59.203893" lon="18.006598">
        <ele>58.1</ele>
        <time>2014-10-11T10:17:58Z</time>
      </trkpt>
      <trkpt lat="59.203847" lon="18.006558">
        <ele>58.2</ele>
        <time>2014-10-11T10:17:59Z</time>
      </trkpt>
      <trkpt lat="59.203792" lon="18.006512">
        <ele>58.2</ele>
        <time>2014-10-11T10:18:00Z</time>
      </trkpt>
      <trkpt lat="59.203743" lon="18.006475">
        <ele>58.3</ele>
        <time>2014-10-11T10:18:01Z</time>
      </trkpt>
      <trkpt lat="59.203703" lon="18.006448">
        <ele>58.2</ele>
        <time>2014-10-11T10:18:02Z</time>
      </trkpt>
      <trkpt lat="59.203653" lon="18.006409">
        <ele>58.1</ele>
        <time>2014-10-11T10:18:03Z</time>
      </trkpt>
      <trkpt lat="59.203604" lon="18.006372">
        <ele>58</ele>
        <time>2014-10-11T10:18:04Z</time>
      </trkpt>
      <trkpt lat="59.203558" lon="18.006348">
        <ele>57.9</ele>
        <time>2014-10-11T10:18:05Z</time>
      </trkpt>
      <trkpt lat="59.203504" lon="18.00631">
        <ele>57.8</ele>
        <time>2014-10-11T10:18:06Z</time>
      </trkpt>
      <trkpt lat="59.203448" lon="18.006269">
        <ele>57.7</ele>
        <time>2014-10-11T10:18:07Z</time>
      </trkpt>
      <trkpt lat="59.203387" lon="18.006236">
        <ele>57.6</ele>
        <time>2014-10-11T10:18:08Z</time>
      </trkpt>
      <trkpt lat="59.203336" lon="18.006195">
        <ele>57.5</ele>
        <time>2014-10-11T10:18:09Z</time>
      </trkpt>
      <trkpt lat="59.203283" lon="18.006158">
        <ele>57.4</ele>
        <time>2014-10-11T10:18:10Z</time>
      </trkpt>
      <trkpt lat="59.203217" lon="18.006103">
        <ele>57.2</ele>
        <time>2014-10-11T10:18:11Z</time>
      </trkpt>
      <trkpt lat="59.203156" lon="18.006058">
        <ele>57.1</ele>
        <time>2014-10-11T10:18:12Z</time>
      </trkpt>
      <trkpt lat="59.203094" lon="18.006019">
        <ele>57</ele>
        <time>2014-10-11T10:18:13Z</time>
      </trkpt>
      <trkpt lat="59.203038" lon="18.005994">
        <ele>56.9</ele>
        <time>2014-10-11T10:18:14Z</time>
      </trkpt>
      <trkpt lat="59.202981" lon="18.005957">
        <ele>56.8</ele>
        <time>2014-10-11T10:18:15Z</time>
      </trkpt>
      <trkpt lat="59.202915" lon="18.005925">
        <ele>56.6</ele>
        <time>2014-10-11T10:18:16Z</time>
      </trkpt>
      <trkpt lat="59.202863" lon="18.005878">
        <ele>56.2</ele>
        <time>2014-10-11T10:18:17Z</time>
      </trkpt>
      <trkpt lat="59.202805" lon="18.005832">
        <ele>55.8</ele>
        <time>2014-10-11T10:18:18Z</time>
      </trkpt>
      <trkpt lat="59.202742" lon="18.005793">
        <ele>55.4</ele>
        <time>2014-10-11T10:18:19Z</time>
      </trkpt>
      <trkpt lat="59.202674" lon="18.005762">
        <ele>55</ele>
        <time>2014-10-11T10:18:20Z</time>
      </trkpt>
      <trkpt lat="59.202617" lon="18.005727">
        <ele>54.6</ele>
        <time>2014-10-11T10:18:21Z</time>
      </trkpt>
      <trkpt lat="59.202554" lon="18.005693">
        <ele>54.2</ele>
        <time>2014-10-11T10:18:22Z</time>
      </trkpt>
      <trkpt lat="59.202491" lon="18.005671">
        <ele>53.8</ele>
        <time>2014-10-11T10:18:23Z</time>
      </trkpt>
      <trkpt lat="59.202422" lon="18.005648">
        <ele>53.3</ele>
        <time>2014-10-11T10:18:24Z</time>
      </trkpt>
      <trkpt lat="59.202351" lon="18.005653">
        <ele>52.9</ele>
        <time>2014-10-11T10:18:25Z</time>
      </trkpt>
      <trkpt lat="59.202284" lon="18.005657">
        <ele>52.5</ele>
        <time>2014-10-11T10:18:26Z</time>
      </trkpt>
      <trkpt lat="59.202216" lon="18.005645">
        <ele>52.1</ele>
        <time>2014-10-11T10:18:27Z</time>
      </trkpt>
      <trkpt lat="59.202147" lon="18.00565">
        <ele>51.7</ele>
        <time>2014-10-11T10:18:28Z</time>
      </trkpt>
      <trkpt lat="59.202063" lon="18.005695">
        <ele>51.3</ele>
        <time>2014-10-11T10:18:29Z</time>
      </trkpt>
      <trkpt lat="59.201996" lon="18.005733">
        <ele>51.1</ele>
        <time>2014-10-11T10:18:30Z</time>
      </trkpt>
      <trkpt lat="59.201928" lon="18.005777">
        <ele>51</ele>
        <time>2014-10-11T10:18:31Z</time>
      </trkpt>
      <trkpt lat="59.201841" lon="18.005853">
        <ele>50.8</ele>
        <time>2014-10-11T10:18:32Z</time>
      </trkpt>
      <trkpt lat="59.201763" lon="18.005913">
        <ele>50.6</ele>
        <time>2014-10-11T10:18:33Z</time>
      </trkpt>
      <trkpt lat="59.201688" lon="18.005973">
        <ele>50.4</ele>
        <time>2014-10-11T10:18:34Z</time>
      </trkpt>
      <trkpt lat="59.201604" lon="18.006049">
        <ele>50.2</ele>
        <time>2014-10-11T10:18:35Z</time>
      </trkpt>
      <trkpt lat="59.201513" lon="18.006093">
        <ele>49.9</ele>
        <time>2014-10-11T10:18:36Z</time>
      </trkpt>
      <trkpt lat="59.201429" lon="18.006134">
        <ele>49.6</ele>
        <time>2014-10-11T10:18:37Z</time>
      </trkpt>
      <trkpt lat="59.201336" lon="18.006197">
        <ele>49.3</ele>
        <time>2014-10-11T10:18:38Z</time>
      </trkpt>
      <trkpt lat="59.201251" lon="18.006254">
        <ele>49</ele>
        <time>2014-10-11T10:18:39Z</time>
      </trkpt>
      <trkpt lat="59.201162" lon="18.00632">
        <ele>48.6</ele>
        <time>2014-10-11T10:18:40Z</time>
      </trkpt>
      <trkpt lat="59.200811" lon="18.006644">
        <ele>46.4</ele>
        <time>2014-10-11T10:18:44Z</time>
      </trkpt>
      <trkpt lat="59.200723" lon="18.006711">
        <ele>45.8</ele>
        <time>2014-10-11T10:18:45Z</time>
      </trkpt>
      <trkpt lat="59.200648" lon="18.006782">
        <ele>45.3</ele>
        <time>2014-10-11T10:18:46Z</time>
      </trkpt>
      <trkpt lat="59.200562" lon="18.006867">
        <ele>44.6</ele>
        <time>2014-10-11T10:18:47Z</time>
      </trkpt>
      <trkpt lat="59.200475" lon="18.006941">
        <ele>43.8</ele>
        <time>2014-10-11T10:18:48Z</time>
      </trkpt>
      <trkpt lat="59.200392" lon="18.00701">
        <ele>43.4</ele>
        <time>2014-10-11T10:18:49Z</time>
      </trkpt>
      <trkpt lat="59.200314" lon="18.007095">
        <ele>43.5</ele>
        <time>2014-10-11T10:18:50Z</time>
      </trkpt>
      <trkpt lat="59.200226" lon="18.007189">
        <ele>43.9</ele>
        <time>2014-10-11T10:18:51Z</time>
      </trkpt>
      <trkpt lat="59.200132" lon="18.007306">
        <ele>44.3</ele>
        <time>2014-10-11T10:18:52Z</time>
      </trkpt>
      <trkpt lat="59.200054" lon="18.007413">
        <ele>44.4</ele>
        <time>2014-10-11T10:18:53Z</time>
      </trkpt>
      <trkpt lat="59.199969" lon="18.007512">
        <ele>44.6</ele>
        <time>2014-10-11T10:18:54Z</time>
      </trkpt>
      <trkpt lat="59.199874" lon="18.007588">
        <ele>44.6</ele>
        <time>2014-10-11T10:18:55Z</time>
      </trkpt>
      <trkpt lat="59.199788" lon="18.00769">
        <ele>44.5</ele>
        <time>2014-10-11T10:18:56Z</time>
      </trkpt>
      <trkpt lat="59.199699" lon="18.007786">
        <ele>44.4</ele>
        <time>2014-10-11T10:18:57Z</time>
      </trkpt>
      <trkpt lat="59.199621" lon="18.007884">
        <ele>44.1</ele>
        <time>2014-10-11T10:18:58Z</time>
      </trkpt>
      <trkpt lat="59.199554" lon="18.008006">
        <ele>43.5</ele>
        <time>2014-10-11T10:18:59Z</time>
      </trkpt>
      <trkpt lat="59.19949" lon="18.008121">
        <ele>42.8</ele>
        <time>2014-10-11T10:19:00Z</time>
      </trkpt>
      <trkpt lat="59.199413" lon="18.008232">
        <ele>42</ele>
        <time>2014-10-11T10:19:01Z</time>
      </trkpt>
      <trkpt lat="59.199344" lon="18.008344">
        <ele>41.2</ele>
        <time>2014-10-11T10:19:02Z</time>
      </trkpt>
      <trkpt lat="59.199271" lon="18.008469">
        <ele>40.2</ele>
        <time>2014-10-11T10:19:03Z</time>
      </trkpt>
      <trkpt lat="59.199204" lon="18.008581">
        <ele>39.3</ele>
        <time>2014-10-11T10:19:04Z</time>
      </trkpt>
      <trkpt lat="59.199138" lon="18.008706">
        <ele>38.2</ele>
        <time>2014-10-11T10:19:05Z</time>
      </trkpt>
      <trkpt lat="59.199087" lon="18.008791">
        <ele>37.6</ele>
        <time>2014-10-11T10:19:06Z</time>
      </trkpt>
      <trkpt lat="59.199042" lon="18.008854">
        <ele>37.3</ele>
        <time>2014-10-11T10:19:07Z</time>
      </trkpt>
      <trkpt lat="59.198992" lon="18.008933">
        <ele>37</ele>
        <time>2014-10-11T10:19:08Z</time>
      </trkpt>
      <trkpt lat="59.19896" lon="18.008986">
        <ele>36.8</ele>
        <time>2014-10-11T10:19:09Z</time>
      </trkpt>
      <trkpt lat="59.198929" lon="18.009035">
        <ele>36.6</ele>
        <time>2014-10-11T10:19:10Z</time>
      </trkpt>
      <trkpt lat="59.198901" lon="18.009072">
        <ele>36.4</ele>
        <time>2014-10-11T10:19:11Z</time>
      </trkpt>
      <trkpt lat="59.198863" lon="18.009065">
        <ele>36.2</ele>
        <time>2014-10-11T10:19:12Z</time>
      </trkpt>
      <trkpt lat="59.198818" lon="18.009045">
        <ele>36</ele>
        <time>2014-10-11T10:19:13Z</time>
      </trkpt>
      <trkpt lat="59.198765" lon="18.008959">
        <ele>35.8</ele>
        <time>2014-10-11T10:19:14Z</time>
      </trkpt>
      <trkpt lat="59.198696" lon="18.008896">
        <ele>35.7</ele>
        <time>2014-10-11T10:19:15Z</time>
      </trkpt>
      <trkpt lat="59.198625" lon="18.008874">
        <ele>35.6</ele>
        <time>2014-10-11T10:19:16Z</time>
      </trkpt>
      <trkpt lat="59.198551" lon="18.008853">
        <ele>35.4</ele>
        <time>2014-10-11T10:19:17Z</time>
      </trkpt>
      <trkpt lat="59.198474" lon="18.008872">
        <ele>35.2</ele>
        <time>2014-10-11T10:19:18Z</time>
      </trkpt>
      <trkpt lat="59.198398" lon="18.008891">
        <ele>35</ele>
        <time>2014-10-11T10:19:19Z</time>
      </trkpt>
      <trkpt lat="59.198321" lon="18.00892">
        <ele>34.8</ele>
        <time>2014-10-11T10:19:20Z</time>
      </trkpt>
      <trkpt lat="59.198248" lon="18.008962">
        <ele>34.5</ele>
        <time>2014-10-11T10:19:21Z</time>
      </trkpt>
      <trkpt lat="59.198176" lon="18.009017">
        <ele>34.3</ele>
        <time>2014-10-11T10:19:22Z</time>
      </trkpt>
      <trkpt lat="59.198103" lon="18.009064">
        <ele>34.1</ele>
        <time>2014-10-11T10:19:23Z</time>
      </trkpt>
      <trkpt lat="59.198025" lon="18.009135">
        <ele>33.8</ele>
        <time>2014-10-11T10:19:24Z</time>
      </trkpt>
      <trkpt lat="59.197958" lon="18.009193">
        <ele>33.6</ele>
        <time>2014-10-11T10:19:25Z</time>
      </trkpt>
      <trkpt lat="59.197869" lon="18.009249">
        <ele>33.5</ele>
        <time>2014-10-11T10:19:26Z</time>
      </trkpt>
      <trkpt lat="59.197792" lon="18.009298">
        <ele>33.7</ele>
        <time>2014-10-11T10:19:27Z</time>
      </trkpt>
      <trkpt lat="59.19772" lon="18.009344">
        <ele>33.9</ele>
        <time>2014-10-11T10:19:28Z</time>
      </trkpt>
      <trkpt lat="59.197652" lon="18.009399">
        <ele>34</ele>
        <time>2014-10-11T10:19:29Z</time>
      </trkpt>
      <trkpt lat="59.197585" lon="18.009446">
        <ele>34.2</ele>
        <time>2014-10-11T10:19:30Z</time>
      </trkpt>
      <trkpt lat="59.197518" lon="18.009497">
        <ele>34.4</ele>
        <time>2014-10-11T10:19:31Z</time>
      </trkpt>
      <trkpt lat="59.197442" lon="18.009557">
        <ele>34.7</ele>
        <time>2014-10-11T10:19:32Z</time>
      </trkpt>
      <trkpt lat="59.197371" lon="18.009608">
        <ele>35</ele>
        <time>2014-10-11T10:19:33Z</time>
      </trkpt>
      <trkpt lat="59.197301" lon="18.009666">
        <ele>35.3</ele>
        <time>2014-10-11T10:19:34Z</time>
      </trkpt>
      <trkpt lat="59.197232" lon="18.009721">
        <ele>35.7</ele>
        <time>2014-10-11T10:19:35Z</time>
      </trkpt>
      <trkpt lat="59.197168" lon="18.009783">
        <ele>36.1</ele>
        <time>2014-10-11T10:19:36Z</time>
      </trkpt>
      <trkpt lat="59.197106" lon="18.009829">
        <ele>36.5</ele>
        <time>2014-10-11T10:19:37Z</time>
      </trkpt>
      <trkpt lat="59.197043" lon="18.009909">
        <ele>36.9</ele>
        <time>2014-10-11T10:19:38Z</time>
      </trkpt>
      <trkpt lat="59.19698" lon="18.009982">
        <ele>37.3</ele>
        <time>2014-10-11T10:19:39Z</time>
      </trkpt>
      <trkpt lat="59.196929" lon="18.010073">
        <ele>37.7</ele>
        <time>2014-10-11T10:19:40Z</time>
      </trkpt>
      <trkpt lat="59.19688" lon="18.01016">
        <ele>38.1</ele>
        <time>2014-10-11T10:19:41Z</time>
      </trkpt>
      <trkpt lat="59.196839" lon="18.010223">
        <ele>38.5</ele>
        <time>2014-10-11T10:19:42Z</time>
      </trkpt>
      <trkpt lat="59.196797" lon="18.01029">
        <ele>38.9</ele>
        <time>2014-10-11T10:19:43Z</time>
      </trkpt>
      <trkpt lat="59.196754" lon="18.010347">
        <ele>39.3</ele>
        <time>2014-10-11T10:19:44Z</time>
      </trkpt>
      <trkpt lat="59.1967" lon="18.010383">
        <ele>39.7</ele>
        <time>2014-10-11T10:19:45Z</time>
      </trkpt>
      <trkpt lat="59.196656" lon="18.010407">
        <ele>40</ele>
        <time>2014-10-11T10:19:46Z</time>
      </trkpt>
      <trkpt lat="59.196606" lon="18.010437">
        <ele>40.4</ele>
        <time>2014-10-11T10:19:47Z</time>
      </trkpt>
      <trkpt lat="59.19656" lon="18.010463">
        <ele>40.7</ele>
        <time>2014-10-11T10:19:48Z</time>
      </trkpt>
      <trkpt lat="59.196509" lon="18.010498">
        <ele>41</ele>
        <time>2014-10-11T10:19:49Z</time>
      </trkpt>
      <trkpt lat="59.196459" lon="18.010541">
        <ele>41.4</ele>
        <time>2014-10-11T10:19:50Z</time>
      </trkpt>
      <trkpt lat="59.196408" lon="18.010574">
        <ele>41.7</ele>
        <time>2014-10-11T10:19:51Z</time>
      </trkpt>
      <trkpt lat="59.196368" lon="18.010607">
        <ele>42</ele>
        <time>2014-10-11T10:19:52Z</time>
      </trkpt>
      <trkpt lat="59.196328" lon="18.010644">
        <ele>42.2</ele>
        <time>2014-10-11T10:19:53Z</time>
      </trkpt>
      <trkpt lat="59.196293" lon="18.010682">
        <ele>42.5</ele>
        <time>2014-10-11T10:19:54Z</time>
      </trkpt>
      <trkpt lat="59.196253" lon="18.010731">
        <ele>42.7</ele>
        <time>2014-10-11T10:19:55Z</time>
      </trkpt>
      <trkpt lat="59.196207" lon="18.010771">
        <ele>42.4</ele>
        <time>2014-10-11T10:19:56Z</time>
      </trkpt>
      <trkpt lat="59.196168" lon="18.010809">
        <ele>42.1</ele>
        <time>2014-10-11T10:19:57Z</time>
      </trkpt>
      <trkpt lat="59.196123" lon="18.010861">
        <ele>41.8</ele>
        <time>2014-10-11T10:19:58Z</time>
      </trkpt>
      <trkpt lat="59.19608" lon="18.010901">
        <ele>41.4</ele>
        <time>2014-10-11T10:19:59Z</time>
      </trkpt>
      <trkpt lat="59.196042" lon="18.010949">
        <ele>41.1</ele>
        <time>2014-10-11T10:20:00Z</time>
      </trkpt>
      <trkpt lat="59.195999" lon="18.011004">
        <ele>40.8</ele>
        <time>2014-10-11T10:20:01Z</time>
      </trkpt>
      <trkpt lat="59.195963" lon="18.011057">
        <ele>40.5</ele>
        <time>2014-10-11T10:20:02Z</time>
      </trkpt>
      <trkpt lat="59.195923" lon="18.011106">
        <ele>40.2</ele>
        <time>2014-10-11T10:20:03Z</time>
      </trkpt>
      <trkpt lat="59.195891" lon="18.011164">
        <ele>40</ele>
        <time>2014-10-11T10:20:04Z</time>
      </trkpt>
      <trkpt lat="59.195853" lon="18.011216">
        <ele>39.7</ele>
        <time>2014-10-11T10:20:05Z</time>
      </trkpt>
      <trkpt lat="59.195819" lon="18.01129">
        <ele>39.4</ele>
        <time>2014-10-11T10:20:06Z</time>
      </trkpt>
      <trkpt lat="59.195784" lon="18.011343">
        <ele>39.1</ele>
        <time>2014-10-11T10:20:07Z</time>
      </trkpt>
      <trkpt lat="59.195741" lon="18.011407">
        <ele>38.8</ele>
        <time>2014-10-11T10:20:08Z</time>
      </trkpt>
      <trkpt lat="59.195702" lon="18.011473">
        <ele>38.4</ele>
        <time>2014-10-11T10:20:09Z</time>
      </trkpt>
      <trkpt lat="59.195659" lon="18.011545">
        <ele>38.1</ele>
        <time>2014-10-11T10:20:10Z</time>
      </trkpt>
      <trkpt lat="59.195623" lon="18.01161">
        <ele>37.8</ele>
        <time>2014-10-11T10:20:11Z</time>
      </trkpt>
      <trkpt lat="59.195584" lon="18.01169">
        <ele>37.4</ele>
        <time>2014-10-11T10:20:12Z</time>
      </trkpt>
      <trkpt lat="59.195546" lon="18.011771">
        <ele>37.1</ele>
        <time>2014-10-11T10:20:13Z</time>
      </trkpt>
      <trkpt lat="59.195508" lon="18.011859">
        <ele>36.8</ele>
        <time>2014-10-11T10:20:14Z</time>
      </trkpt>
      <trkpt lat="59.195457" lon="18.011973">
        <ele>36.3</ele>
        <time>2014-10-11T10:20:15Z</time>
      </trkpt>
      <trkpt lat="59.19542" lon="18.012064">
        <ele>36</ele>
        <time>2014-10-11T10:20:16Z</time>
      </trkpt>
      <trkpt lat="59.195391" lon="18.012146">
        <ele>36.1</ele>
        <time>2014-10-11T10:20:17Z</time>
      </trkpt>
      <trkpt lat="59.195345" lon="18.012231">
        <ele>36.1</ele>
        <time>2014-10-11T10:20:18Z</time>
      </trkpt>
      <trkpt lat="59.195302" lon="18.012334">
        <ele>36.2</ele>
        <time>2014-10-11T10:20:19Z</time>
      </trkpt>
      <trkpt lat="59.19526" lon="18.012426">
        <ele>36.2</ele>
        <time>2014-10-11T10:20:20Z</time>
      </trkpt>
      <trkpt lat="59.195208" lon="18.012526">
        <ele>36.1</ele>
        <time>2014-10-11T10:20:21Z</time>
      </trkpt>
      <trkpt lat="59.19516" lon="18.012629">
        <ele>36</ele>
        <time>2014-10-11T10:20:22Z</time>
      </trkpt>
      <trkpt lat="59.195123" lon="18.012732">
        <ele>35.9</ele>
        <time>2014-10-11T10:20:23Z</time>
      </trkpt>
      <trkpt lat="59.195077" lon="18.012841">
        <ele>35.7</ele>
        <time>2014-10-11T10:20:24Z</time>
      </trkpt>
      <trkpt lat="59.195041" lon="18.012948">
        <ele>35.6</ele>
        <time>2014-10-11T10:20:25Z</time>
      </trkpt>
      <trkpt lat="59.194992" lon="18.013052">
        <ele>35.2</ele>
        <time>2014-10-11T10:20:26Z</time>
      </trkpt>
      <trkpt lat="59.194934" lon="18.013168">
        <ele>34.7</ele>
        <time>2014-10-11T10:20:27Z</time>
      </trkpt>
      <trkpt lat="59.194878" lon="18.013299">
        <ele>34.2</ele>
        <time>2014-10-11T10:20:28Z</time>
      </trkpt>
      <trkpt lat="59.194833" lon="18.01343">
        <ele>33.7</ele>
        <time>2014-10-11T10:20:29Z</time>
      </trkpt>
      <trkpt lat="59.194776" lon="18.013575">
        <ele>33</ele>
        <time>2014-10-11T10:20:30Z</time>
      </trkpt>
      <trkpt lat="59.194734" lon="18.013704">
        <ele>32.5</ele>
        <time>2014-10-11T10:20:31Z</time>
      </trkpt>
      <trkpt lat="59.194686" lon="18.013834">
        <ele>31.7</ele>
        <time>2014-10-11T10:20:32Z</time>
      </trkpt>
      <trkpt lat="59.194636" lon="18.013966">
        <ele>30.9</ele>
        <time>2014-10-11T10:20:33Z</time>
      </trkpt>
      <trkpt lat="59.194593" lon="18.01409">
        <ele>30.2</ele>
        <time>2014-10-11T10:20:34Z</time>
      </trkpt>
      <trkpt lat="59.194552" lon="18.014227">
        <ele>29.9</ele>
        <time>2014-10-11T10:20:35Z</time>
      </trkpt>
      <trkpt lat="59.194518" lon="18.014346">
        <ele>29.8</ele>
        <time>2014-10-11T10:20:36Z</time>
      </trkpt>
      <trkpt lat="59.194488" lon="18.014462">
        <ele>29.7</ele>
        <time>2014-10-11T10:20:37Z</time>
      </trkpt>
      <trkpt lat="59.194463" lon="18.014603">
        <ele>29.7</ele>
        <time>2014-10-11T10:20:38Z</time>
      </trkpt>
      <trkpt lat="59.194447" lon="18.014742">
        <ele>29.8</ele>
        <time>2014-10-11T10:20:39Z</time>
      </trkpt>
      <trkpt lat="59.194441" lon="18.014899">
        <ele>29.9</ele>
        <time>2014-10-11T10:20:40Z</time>
      </trkpt>
      <trkpt lat="59.194426" lon="18.015073">
        <ele>30</ele>
        <time>2014-10-11T10:20:41Z</time>
      </trkpt>
      <trkpt lat="59.194423" lon="18.015233">
        <ele>30.1</ele>
        <time>2014-10-11T10:20:42Z</time>
      </trkpt>
      <trkpt lat="59.194411" lon="18.015426">
        <ele>30.2</ele>
        <time>2014-10-11T10:20:43Z</time>
      </trkpt>
      <trkpt lat="59.194401" lon="18.015615">
        <ele>30.7</ele>
        <time>2014-10-11T10:20:44Z</time>
      </trkpt>
      <trkpt lat="59.19439" lon="18.015787">
        <ele>31.2</ele>
        <time>2014-10-11T10:20:45Z</time>
      </trkpt>
      <trkpt lat="59.194375" lon="18.015991">
        <ele>31.8</ele>
        <time>2014-10-11T10:20:46Z</time>
      </trkpt>
      <trkpt lat="59.194371" lon="18.016166">
        <ele>32.3</ele>
        <time>2014-10-11T10:20:47Z</time>
      </trkpt>
      <trkpt lat="59.194366" lon="18.016357">
        <ele>32.9</ele>
        <time>2014-10-11T10:20:48Z</time>
      </trkpt>
      <trkpt lat="59.194358" lon="18.016558">
        <ele>33.6</ele>
        <time>2014-10-11T10:20:49Z</time>
      </trkpt>
      <trkpt lat="59.194345" lon="18.016737">
        <ele>34.3</ele>
        <time>2014-10-11T10:20:50Z</time>
      </trkpt>
      <trkpt lat="59.194337" lon="18.016933">
        <ele>35</ele>
        <time>2014-10-11T10:20:51Z</time>
      </trkpt>
      <trkpt lat="59.194333" lon="18.017094">
        <ele>35.6</ele>
        <time>2014-10-11T10:20:52Z</time>
      </trkpt>
      <trkpt lat="59.194329" lon="18.017266">
        <ele>36.2</ele>
        <time>2014-10-11T10:20:53Z</time>
      </trkpt>
      <trkpt lat="59.194321" lon="18.017462">
        <ele>36.8</ele>
        <time>2014-10-11T10:20:54Z</time>
      </trkpt>
      <trkpt lat="59.194316" lon="18.017627">
        <ele>37.4</ele>
        <time>2014-10-11T10:20:55Z</time>
      </trkpt>
      <trkpt lat="59.194316" lon="18.017794">
        <ele>37.8</ele>
        <time>2014-10-11T10:20:56Z</time>
      </trkpt>
      <trkpt lat="59.194305" lon="18.017976">
        <ele>38.5</ele>
        <time>2014-10-11T10:20:57Z</time>
      </trkpt>
      <trkpt lat="59.194289" lon="18.018132">
        <ele>39.3</ele>
        <time>2014-10-11T10:20:58Z</time>
      </trkpt>
      <trkpt lat="59.194268" lon="18.018307">
        <ele>40.2</ele>
        <time>2014-10-11T10:20:59Z</time>
      </trkpt>
      <trkpt lat="59.194238" lon="18.018466">
        <ele>41.3</ele>
        <time>2014-10-11T10:21:00Z</time>
      </trkpt>
      <trkpt lat="59.194208" lon="18.018607">
        <ele>42.3</ele>
        <time>2014-10-11T10:21:01Z</time>
      </trkpt>
      <trkpt lat="59.194166" lon="18.01876">
        <ele>43.5</ele>
        <time>2014-10-11T10:21:02Z</time>
      </trkpt>
      <trkpt lat="59.194129" lon="18.018887">
        <ele>43.7</ele>
        <time>2014-10-11T10:21:03Z</time>
      </trkpt>
      <trkpt lat="59.19408" lon="18.019027">
        <ele>44.1</ele>
        <time>2014-10-11T10:21:04Z</time>
      </trkpt>
      <trkpt lat="59.194027" lon="18.019157">
        <ele>44.5</ele>
        <time>2014-10-11T10:21:05Z</time>
      </trkpt>
      <trkpt lat="59.193977" lon="18.019256">
        <ele>45</ele>
        <time>2014-10-11T10:21:06Z</time>
      </trkpt>
      <trkpt lat="59.193941" lon="18.019357">
        <ele>45.1</ele>
        <time>2014-10-11T10:21:07Z</time>
      </trkpt>
      <trkpt lat="59.193898" lon="18.019469">
        <ele>45.3</ele>
        <time>2014-10-11T10:21:08Z</time>
      </trkpt>
      <trkpt lat="59.193861" lon="18.019576">
        <ele>45.4</ele>
        <time>2014-10-11T10:21:09Z</time>
      </trkpt>
      <trkpt lat="59.193819" lon="18.019671">
        <ele>45.6</ele>
        <time>2014-10-11T10:21:10Z</time>
      </trkpt>
      <trkpt lat="59.193793" lon="18.019759">
        <ele>45.6</ele>
        <time>2014-10-11T10:21:11Z</time>
      </trkpt>
      <trkpt lat="59.193753" lon="18.019853">
        <ele>45.7</ele>
        <time>2014-10-11T10:21:12Z</time>
      </trkpt>
      <trkpt lat="59.193722" lon="18.019924">
        <ele>45.3</ele>
        <time>2014-10-11T10:21:13Z</time>
      </trkpt>
      <trkpt lat="59.193684" lon="18.020005">
        <ele>44.7</ele>
        <time>2014-10-11T10:21:14Z</time>
      </trkpt>
      <trkpt lat="59.19365" lon="18.020086">
        <ele>44.3</ele>
        <time>2014-10-11T10:21:15Z</time>
      </trkpt>
      <trkpt lat="59.193596" lon="18.020178">
        <ele>43.7</ele>
        <time>2014-10-11T10:21:16Z</time>
      </trkpt>
      <trkpt lat="59.19356" lon="18.020245">
        <ele>43.3</ele>
        <time>2014-10-11T10:21:17Z</time>
      </trkpt>
      <trkpt lat="59.193525" lon="18.020316">
        <ele>42.9</ele>
        <time>2014-10-11T10:21:18Z</time>
      </trkpt>
      <trkpt lat="59.193502" lon="18.020385">
        <ele>42.5</ele>
        <time>2014-10-11T10:21:19Z</time>
      </trkpt>
      <trkpt lat="59.193466" lon="18.020465">
        <ele>42.3</ele>
        <time>2014-10-11T10:21:20Z</time>
      </trkpt>
      <trkpt lat="59.193424" lon="18.020563">
        <ele>42.1</ele>
        <time>2014-10-11T10:21:21Z</time>
      </trkpt>
      <trkpt lat="59.193398" lon="18.020608">
        <ele>42.1</ele>
        <time>2014-10-11T10:21:22Z</time>
      </trkpt>
      <trkpt lat="59.193365" lon="18.020669">
        <ele>41.9</ele>
        <time>2014-10-11T10:21:23Z</time>
      </trkpt>
      <trkpt lat="59.193337" lon="18.020747">
        <ele>41.8</ele>
        <time>2014-10-11T10:21:24Z</time>
      </trkpt>
      <trkpt lat="59.193289" lon="18.020865">
        <ele>41.6</ele>
        <time>2014-10-11T10:21:25Z</time>
      </trkpt>
      <trkpt lat="59.193257" lon="18.020938">
        <ele>41.4</ele>
        <time>2014-10-11T10:21:26Z</time>
      </trkpt>
      <trkpt lat="59.193232" lon="18.021009">
        <ele>41.3</ele>
        <time>2014-10-11T10:21:27Z</time>
      </trkpt>
      <trkpt lat="59.193202" lon="18.021056">
        <ele>41.2</ele>
        <time>2014-10-11T10:21:28Z</time>
      </trkpt>
      <trkpt lat="59.193168" lon="18.021123">
        <ele>41</ele>
        <time>2014-10-11T10:21:29Z</time>
      </trkpt>
      <trkpt lat="59.193137" lon="18.021178">
        <ele>40.9</ele>
        <time>2014-10-11T10:21:30Z</time>
      </trkpt>
      <trkpt lat="59.193106" lon="18.021264">
        <ele>40.7</ele>
        <time>2014-10-11T10:21:31Z</time>
      </trkpt>
      <trkpt lat="59.193069" lon="18.021338">
        <ele>40.5</ele>
        <time>2014-10-11T10:21:32Z</time>
      </trkpt>
      <trkpt lat="59.193037" lon="18.021394">
        <ele>40.3</ele>
        <time>2014-10-11T10:21:33Z</time>
      </trkpt>
      <trkpt lat="59.193002" lon="18.021478">
        <ele>40.1</ele>
        <time>2014-10-11T10:21:34Z</time>
      </trkpt>
      <trkpt lat="59.192971" lon="18.021544">
        <ele>39.9</ele>
        <time>2014-10-11T10:21:35Z</time>
      </trkpt>
      <trkpt lat="59.192938" lon="18.021599">
        <ele>39.7</ele>
        <time>2014-10-11T10:21:36Z</time>
      </trkpt>
      <trkpt lat="59.192907" lon="18.021659">
        <ele>39.5</ele>
        <time>2014-10-11T10:21:37Z</time>
      </trkpt>
      <trkpt lat="59.192858" lon="18.02174">
        <ele>39.4</ele>
        <time>2014-10-11T10:21:38Z</time>
      </trkpt>
      <trkpt lat="59.192823" lon="18.021799">
        <ele>39.3</ele>
        <time>2014-10-11T10:21:39Z</time>
      </trkpt>
      <trkpt lat="59.192794" lon="18.021845">
        <ele>39.3</ele>
        <time>2014-10-11T10:21:40Z</time>
      </trkpt>
      <trkpt lat="59.192751" lon="18.021868">
        <ele>39.3</ele>
        <time>2014-10-11T10:21:41Z</time>
      </trkpt>
      <trkpt lat="59.192709" lon="18.021909">
        <ele>39.2</ele>
        <time>2014-10-11T10:21:42Z</time>
      </trkpt>
      <trkpt lat="59.192675" lon="18.021969">
        <ele>39.1</ele>
        <time>2014-10-11T10:21:43Z</time>
      </trkpt>
      <trkpt lat="59.192643" lon="18.022025">
        <ele>39.1</ele>
        <time>2014-10-11T10:21:44Z</time>
      </trkpt>
      <trkpt lat="59.192606" lon="18.022079">
        <ele>39</ele>
        <time>2014-10-11T10:21:45Z</time>
      </trkpt>
      <trkpt lat="59.192565" lon="18.022136">
        <ele>39.1</ele>
        <time>2014-10-11T10:21:46Z</time>
      </trkpt>
      <trkpt lat="59.192519" lon="18.022194">
        <ele>39.1</ele>
        <time>2014-10-11T10:21:47Z</time>
      </trkpt>
      <trkpt lat="59.192471" lon="18.022253">
        <ele>39.2</ele>
        <time>2014-10-11T10:21:48Z</time>
      </trkpt>
      <trkpt lat="59.192425" lon="18.022312">
        <ele>39.2</ele>
        <time>2014-10-11T10:21:49Z</time>
      </trkpt>
      <trkpt lat="59.192371" lon="18.022369">
        <ele>39.1</ele>
        <time>2014-10-11T10:21:50Z</time>
      </trkpt>
      <trkpt lat="59.19232" lon="18.022425">
        <ele>39.1</ele>
        <time>2014-10-11T10:21:51Z</time>
      </trkpt>
      <trkpt lat="59.192261" lon="18.02247">
        <ele>38.9</ele>
        <time>2014-10-11T10:21:52Z</time>
      </trkpt>
      <trkpt lat="59.192189" lon="18.022546">
        <ele>38.7</ele>
        <time>2014-10-11T10:21:53Z</time>
      </trkpt>
      <trkpt lat="59.192123" lon="18.022595">
        <ele>38.5</ele>
        <time>2014-10-11T10:21:54Z</time>
      </trkpt>
      <trkpt lat="59.192051" lon="18.022629">
        <ele>38.7</ele>
        <time>2014-10-11T10:21:55Z</time>
      </trkpt>
      <trkpt lat="59.191981" lon="18.022689">
        <ele>39.3</ele>
        <time>2014-10-11T10:21:56Z</time>
      </trkpt>
      <trkpt lat="59.191909" lon="18.022757">
        <ele>39.9</ele>
        <time>2014-10-11T10:21:57Z</time>
      </trkpt>
      <trkpt lat="59.191836" lon="18.022821">
        <ele>40.5</ele>
        <time>2014-10-11T10:21:58Z</time>
      </trkpt>
      <trkpt lat="59.191764" lon="18.022881">
        <ele>41.1</ele>
        <time>2014-10-11T10:21:59Z</time>
      </trkpt>
      <trkpt lat="59.191693" lon="18.022943">
        <ele>41.7</ele>
        <time>2014-10-11T10:22:00Z</time>
      </trkpt>
      <trkpt lat="59.191611" lon="18.022992">
        <ele>42.4</ele>
        <time>2014-10-11T10:22:01Z</time>
      </trkpt>
      <trkpt lat="59.19153" lon="18.023066">
        <ele>43</ele>
        <time>2014-10-11T10:22:02Z</time>
      </trkpt>
      <trkpt lat="59.191449" lon="18.023135">
        <ele>43.6</ele>
        <time>2014-10-11T10:22:03Z</time>
      </trkpt>
      <trkpt lat="59.191357" lon="18.023211">
        <ele>44.3</ele>
        <time>2014-10-11T10:22:04Z</time>
      </trkpt>
      <trkpt lat="59.191271" lon="18.023279">
        <ele>44.9</ele>
        <time>2014-10-11T10:22:05Z</time>
      </trkpt>
      <trkpt lat="59.191186" lon="18.023354">
        <ele>45.4</ele>
        <time>2014-10-11T10:22:06Z</time>
      </trkpt>
      <trkpt lat="59.191096" lon="18.023432">
        <ele>45.8</ele>
        <time>2014-10-11T10:22:07Z</time>
      </trkpt>
      <trkpt lat="59.191007" lon="18.023509">
        <ele>46.2</ele>
        <time>2014-10-11T10:22:08Z</time>
      </trkpt>
      <trkpt lat="59.190925" lon="18.023603">
        <ele>46.6</ele>
        <time>2014-10-11T10:22:09Z</time>
      </trkpt>
      <trkpt lat="59.190832" lon="18.023692">
        <ele>47.1</ele>
        <time>2014-10-11T10:22:10Z</time>
      </trkpt>
      <trkpt lat="59.190746" lon="18.023765">
        <ele>47.5</ele>
        <time>2014-10-11T10:22:11Z</time>
      </trkpt>
      <trkpt lat="59.190661" lon="18.023838">
        <ele>47.3</ele>
        <time>2014-10-11T10:22:12Z</time>
      </trkpt>
      <trkpt lat="59.190561" lon="18.023931">
        <ele>47</ele>
        <time>2014-10-11T10:22:13Z</time>
      </trkpt>
      <trkpt lat="59.190477" lon="18.024012">
        <ele>46.8</ele>
        <time>2014-10-11T10:22:14Z</time>
      </trkpt>
      <trkpt lat="59.190394" lon="18.024089">
        <ele>46.3</ele>
        <time>2014-10-11T10:22:15Z</time>
      </trkpt>
      <trkpt lat="59.190321" lon="18.024146">
        <ele>45.8</ele>
        <time>2014-10-11T10:22:16Z</time>
      </trkpt>
      <trkpt lat="59.190237" lon="18.024221">
        <ele>45.1</ele>
        <time>2014-10-11T10:22:17Z</time>
      </trkpt>
      <trkpt lat="59.190152" lon="18.024299">
        <ele>44.4</ele>
        <time>2014-10-11T10:22:18Z</time>
      </trkpt>
      <trkpt lat="59.190068" lon="18.024375">
        <ele>43.8</ele>
        <time>2014-10-11T10:22:19Z</time>
      </trkpt>
      <trkpt lat="59.189972" lon="18.02448">
        <ele>43</ele>
        <time>2014-10-11T10:22:20Z</time>
      </trkpt>
      <trkpt lat="59.189893" lon="18.024558">
        <ele>42.5</ele>
        <time>2014-10-11T10:22:21Z</time>
      </trkpt>
      <trkpt lat="59.189821" lon="18.024629">
        <ele>42</ele>
        <time>2014-10-11T10:22:22Z</time>
      </trkpt>
      <trkpt lat="59.189748" lon="18.024701">
        <ele>41.6</ele>
        <time>2014-10-11T10:22:23Z</time>
      </trkpt>
      <trkpt lat="59.189663" lon="18.024768">
        <ele>41.4</ele>
        <time>2014-10-11T10:22:24Z</time>
      </trkpt>
      <trkpt lat="59.189589" lon="18.024833">
        <ele>41.2</ele>
        <time>2014-10-11T10:22:25Z</time>
      </trkpt>
      <trkpt lat="59.189527" lon="18.024893">
        <ele>41.2</ele>
        <time>2014-10-11T10:22:26Z</time>
      </trkpt>
      <trkpt lat="59.189454" lon="18.024956">
        <ele>41.4</ele>
        <time>2014-10-11T10:22:27Z</time>
      </trkpt>
      <trkpt lat="59.189389" lon="18.025027">
        <ele>41.3</ele>
        <time>2014-10-11T10:22:28Z</time>
      </trkpt>
      <trkpt lat="59.189325" lon="18.025094">
        <ele>41.2</ele>
        <time>2014-10-11T10:22:29Z</time>
      </trkpt>
      <trkpt lat="59.189257" lon="18.02515">
        <ele>41.3</ele>
        <time>2014-10-11T10:22:30Z</time>
      </trkpt>
      <trkpt lat="59.189194" lon="18.025192">
        <ele>41.3</ele>
        <time>2014-10-11T10:22:31Z</time>
      </trkpt>
      <trkpt lat="59.189157" lon="18.025182">
        <ele>41.7</ele>
        <time>2014-10-11T10:22:32Z</time>
      </trkpt>
      <trkpt lat="59.189098" lon="18.025235">
        <ele>41.6</ele>
        <time>2014-10-11T10:22:33Z</time>
      </trkpt>
      <trkpt lat="59.189021" lon="18.025313">
        <ele>41.4</ele>
        <time>2014-10-11T10:22:34Z</time>
      </trkpt>
      <trkpt lat="59.188956" lon="18.025373">
        <ele>41.2</ele>
        <time>2014-10-11T10:22:35Z</time>
      </trkpt>
      <trkpt lat="59.18889" lon="18.025434">
        <ele>41.1</ele>
        <time>2014-10-11T10:22:36Z</time>
      </trkpt>
      <trkpt lat="59.18882" lon="18.025488">
        <ele>41.3</ele>
        <time>2014-10-11T10:22:37Z</time>
      </trkpt>
      <trkpt lat="59.188748" lon="18.025559">
        <ele>41.3</ele>
        <time>2014-10-11T10:22:38Z</time>
      </trkpt>
      <trkpt lat="59.188682" lon="18.025617">
        <ele>41.3</ele>
        <time>2014-10-11T10:22:39Z</time>
      </trkpt>
      <trkpt lat="59.188611" lon="18.025685">
        <ele>41.2</ele>
        <time>2014-10-11T10:22:40Z</time>
      </trkpt>
      <trkpt lat="59.188541" lon="18.025742">
        <ele>41.1</ele>
        <time>2014-10-11T10:22:41Z</time>
      </trkpt>
      <trkpt lat="59.188482" lon="18.0258">
        <ele>41</ele>
        <time>2014-10-11T10:22:42Z</time>
      </trkpt>
      <trkpt lat="59.188409" lon="18.025873">
        <ele>40.8</ele>
        <time>2014-10-11T10:22:43Z</time>
      </trkpt>
      <trkpt lat="59.188354" lon="18.025904">
        <ele>40.8</ele>
        <time>2014-10-11T10:22:44Z</time>
      </trkpt>
      <trkpt lat="59.188274" lon="18.025985">
        <ele>40.6</ele>
        <time>2014-10-11T10:22:45Z</time>
      </trkpt>
      <trkpt lat="59.18799" lon="18.026162">
        <ele>40.3</ele>
        <time>2014-10-11T10:22:49Z</time>
      </trkpt>
      <trkpt lat="59.187942" lon="18.026191">
        <ele>40.3</ele>
        <time>2014-10-11T10:22:50Z</time>
      </trkpt>
      <trkpt lat="59.187885" lon="18.02623">
        <ele>40.1</ele>
        <time>2014-10-11T10:22:51Z</time>
      </trkpt>
      <trkpt lat="59.18782" lon="18.026281">
        <ele>39.8</ele>
        <time>2014-10-11T10:22:52Z</time>
      </trkpt>
      <trkpt lat="59.187748" lon="18.026333">
        <ele>39.5</ele>
        <time>2014-10-11T10:22:53Z</time>
      </trkpt>
      <trkpt lat="59.187682" lon="18.026379">
        <ele>39.2</ele>
        <time>2014-10-11T10:22:54Z</time>
      </trkpt>
      <trkpt lat="59.187617" lon="18.026416">
        <ele>39</ele>
        <time>2014-10-11T10:22:55Z</time>
      </trkpt>
      <trkpt lat="59.187546" lon="18.026456">
        <ele>38.8</ele>
        <time>2014-10-11T10:22:56Z</time>
      </trkpt>
      <trkpt lat="59.18748" lon="18.026485">
        <ele>38.6</ele>
        <time>2014-10-11T10:22:57Z</time>
      </trkpt>
      <trkpt lat="59.187418" lon="18.026521">
        <ele>38.4</ele>
        <time>2014-10-11T10:22:58Z</time>
      </trkpt>
      <trkpt lat="59.187352" lon="18.02655">
        <ele>38.2</ele>
        <time>2014-10-11T10:22:59Z</time>
      </trkpt>
      <trkpt lat="59.187296" lon="18.026578">
        <ele>38</ele>
        <time>2014-10-11T10:23:00Z</time>
      </trkpt>
      <trkpt lat="59.187231" lon="18.026617">
        <ele>37.8</ele>
        <time>2014-10-11T10:23:01Z</time>
      </trkpt>
      <trkpt lat="59.187165" lon="18.02666">
        <ele>37.5</ele>
        <time>2014-10-11T10:23:02Z</time>
      </trkpt>
      <trkpt lat="59.187103" lon="18.026687">
        <ele>37.4</ele>
        <time>2014-10-11T10:23:03Z</time>
      </trkpt>
      <trkpt lat="59.187041" lon="18.02672">
        <ele>37</ele>
        <time>2014-10-11T10:23:04Z</time>
      </trkpt>
      <trkpt lat="59.186985" lon="18.026743">
        <ele>36.7</ele>
        <time>2014-10-11T10:23:05Z</time>
      </trkpt>
      <trkpt lat="59.186934" lon="18.026765">
        <ele>36.4</ele>
        <time>2014-10-11T10:23:06Z</time>
      </trkpt>
      <trkpt lat="59.186884" lon="18.026804">
        <ele>36</ele>
        <time>2014-10-11T10:23:07Z</time>
      </trkpt>
      <trkpt lat="59.186836" lon="18.026835">
        <ele>35.7</ele>
        <time>2014-10-11T10:23:08Z</time>
      </trkpt>
      <trkpt lat="59.186784" lon="18.026876">
        <ele>35.3</ele>
        <time>2014-10-11T10:23:09Z</time>
      </trkpt>
      <trkpt lat="59.186734" lon="18.026906">
        <ele>35</ele>
        <time>2014-10-11T10:23:10Z</time>
      </trkpt>
      <trkpt lat="59.186684" lon="18.026931">
        <ele>34.8</ele>
        <time>2014-10-11T10:23:11Z</time>
      </trkpt>
      <trkpt lat="59.186632" lon="18.026964">
        <ele>34.5</ele>
        <time>2014-10-11T10:23:12Z</time>
      </trkpt>
      <trkpt lat="59.186583" lon="18.027">
        <ele>34.2</ele>
        <time>2014-10-11T10:23:13Z</time>
      </trkpt>
      <trkpt lat="59.186536" lon="18.027037">
        <ele>33.9</ele>
        <time>2014-10-11T10:23:14Z</time>
      </trkpt>
      <trkpt lat="59.18649" lon="18.027075">
        <ele>33.6</ele>
        <time>2014-10-11T10:23:15Z</time>
      </trkpt>
      <trkpt lat="59.186446" lon="18.027108">
        <ele>33.7</ele>
        <time>2014-10-11T10:23:16Z</time>
      </trkpt>
      <trkpt lat="59.186404" lon="18.027146">
        <ele>33.9</ele>
        <time>2014-10-11T10:23:17Z</time>
      </trkpt>
      <trkpt lat="59.18636" lon="18.027188">
        <ele>34.2</ele>
        <time>2014-10-11T10:23:18Z</time>
      </trkpt>
      <trkpt lat="59.186319" lon="18.027226">
        <ele>34.4</ele>
        <time>2014-10-11T10:23:19Z</time>
      </trkpt>
      <trkpt lat="59.18627" lon="18.027263">
        <ele>34.6</ele>
        <time>2014-10-11T10:23:20Z</time>
      </trkpt>
      <trkpt lat="59.186225" lon="18.0273">
        <ele>34.8</ele>
        <time>2014-10-11T10:23:21Z</time>
      </trkpt>
      <trkpt lat="59.186182" lon="18.027338">
        <ele>35</ele>
        <time>2014-10-11T10:23:22Z</time>
      </trkpt>
      <trkpt lat="59.186133" lon="18.027382">
        <ele>35.3</ele>
        <time>2014-10-11T10:23:23Z</time>
      </trkpt>
      <trkpt lat="59.18609" lon="18.027426">
        <ele>35.6</ele>
        <time>2014-10-11T10:23:24Z</time>
      </trkpt>
      <trkpt lat="59.18605" lon="18.027467">
        <ele>35.8</ele>
        <time>2014-10-11T10:23:25Z</time>
      </trkpt>
      <trkpt lat="59.186003" lon="18.027518">
        <ele>36</ele>
        <time>2014-10-11T10:23:26Z</time>
      </trkpt>
      <trkpt lat="59.185966" lon="18.027562">
        <ele>36.2</ele>
        <time>2014-10-11T10:23:27Z</time>
      </trkpt>
      <trkpt lat="59.185919" lon="18.027608">
        <ele>36.4</ele>
        <time>2014-10-11T10:23:28Z</time>
      </trkpt>
      <trkpt lat="59.185877" lon="18.027654">
        <ele>36.6</ele>
        <time>2014-10-11T10:23:29Z</time>
      </trkpt>
      <trkpt lat="59.185846" lon="18.027682">
        <ele>36.6</ele>
        <time>2014-10-11T10:23:30Z</time>
      </trkpt>
      <trkpt lat="59.185805" lon="18.027737">
        <ele>36.8</ele>
        <time>2014-10-11T10:23:31Z</time>
      </trkpt>
      <trkpt lat="59.185768" lon="18.027785">
        <ele>36.9</ele>
        <time>2014-10-11T10:23:32Z</time>
      </trkpt>
      <trkpt lat="59.185731" lon="18.02783">
        <ele>37</ele>
        <time>2014-10-11T10:23:33Z</time>
      </trkpt>
      <trkpt lat="59.185684" lon="18.027877">
        <ele>37.1</ele>
        <time>2014-10-11T10:23:34Z</time>
      </trkpt>
      <trkpt lat="59.185647" lon="18.027928">
        <ele>37.2</ele>
        <time>2014-10-11T10:23:35Z</time>
      </trkpt>
      <trkpt lat="59.185605" lon="18.027976">
        <ele>37.3</ele>
        <time>2014-10-11T10:23:36Z</time>
      </trkpt>
      <trkpt lat="59.185564" lon="18.028012">
        <ele>37.2</ele>
        <time>2014-10-11T10:23:37Z</time>
      </trkpt>
      <trkpt lat="59.185527" lon="18.028067">
        <ele>37.3</ele>
        <time>2014-10-11T10:23:38Z</time>
      </trkpt>
      <trkpt lat="59.185487" lon="18.028118">
        <ele>37.4</ele>
        <time>2014-10-11T10:23:39Z</time>
      </trkpt>
      <trkpt lat="59.185455" lon="18.028185">
        <ele>37.5</ele>
        <time>2014-10-11T10:23:40Z</time>
      </trkpt>
      <trkpt lat="59.185296" lon="18.028371">
        <ele>38.7</ele>
        <time>2014-10-11T10:23:44Z</time>
      </trkpt>
      <trkpt lat="59.185261" lon="18.028397">
        <ele>38.9</ele>
        <time>2014-10-11T10:23:45Z</time>
      </trkpt>
      <trkpt lat="59.185223" lon="18.028443">
        <ele>39.2</ele>
        <time>2014-10-11T10:23:46Z</time>
      </trkpt>
      <trkpt lat="59.185156" lon="18.028509">
        <ele>39.6</ele>
        <time>2014-10-11T10:23:47Z</time>
      </trkpt>
      <trkpt lat="59.185114" lon="18.028575">
        <ele>39.9</ele>
        <time>2014-10-11T10:23:48Z</time>
      </trkpt>
      <trkpt lat="59.185074" lon="18.028608">
        <ele>40.1</ele>
        <time>2014-10-11T10:23:49Z</time>
      </trkpt>
      <trkpt lat="59.185035" lon="18.02866">
        <ele>40.3</ele>
        <time>2014-10-11T10:23:50Z</time>
      </trkpt>
      <trkpt lat="59.184996" lon="18.028705">
        <ele>40.4</ele>
        <time>2014-10-11T10:23:51Z</time>
      </trkpt>
      <trkpt lat="59.184951" lon="18.028755">
        <ele>40.6</ele>
        <time>2014-10-11T10:23:52Z</time>
      </trkpt>
      <trkpt lat="59.184902" lon="18.028805">
        <ele>40.9</ele>
        <time>2014-10-11T10:23:53Z</time>
      </trkpt>
      <trkpt lat="59.184862" lon="18.028849">
        <ele>41.2</ele>
        <time>2014-10-11T10:23:54Z</time>
      </trkpt>
      <trkpt lat="59.184813" lon="18.028903">
        <ele>41.4</ele>
        <time>2014-10-11T10:23:55Z</time>
      </trkpt>
      <trkpt lat="59.184761" lon="18.028948">
        <ele>41.6</ele>
        <time>2014-10-11T10:23:56Z</time>
      </trkpt>
      <trkpt lat="59.184717" lon="18.028995">
        <ele>41.8</ele>
        <time>2014-10-11T10:23:57Z</time>
      </trkpt>
      <trkpt lat="59.184669" lon="18.029049">
        <ele>41.9</ele>
        <time>2014-10-11T10:23:58Z</time>
      </trkpt>
      <trkpt lat="59.184622" lon="18.029093">
        <ele>41.9</ele>
        <time>2014-10-11T10:23:59Z</time>
      </trkpt>
      <trkpt lat="59.184574" lon="18.029155">
        <ele>42.2</ele>
        <time>2014-10-11T10:24:00Z</time>
      </trkpt>
      <trkpt lat="59.184525" lon="18.02923">
        <ele>43.3</ele>
        <time>2014-10-11T10:24:01Z</time>
      </trkpt>
      <trkpt lat="59.184477" lon="18.029292">
        <ele>44.3</ele>
        <time>2014-10-11T10:24:02Z</time>
      </trkpt>
      <trkpt lat="59.184418" lon="18.029384">
        <ele>45.4</ele>
        <time>2014-10-11T10:24:03Z</time>
      </trkpt>
      <trkpt lat="59.184371" lon="18.029456">
        <ele>46.3</ele>
        <time>2014-10-11T10:24:04Z</time>
      </trkpt>
      <trkpt lat="59.184324" lon="18.029547">
        <ele>47.1</ele>
        <time>2014-10-11T10:24:05Z</time>
      </trkpt>
      <trkpt lat="59.184272" lon="18.029648">
        <ele>47.8</ele>
        <time>2014-10-11T10:24:06Z</time>
      </trkpt>
      <trkpt lat="59.184231" lon="18.029733">
        <ele>48.4</ele>
        <time>2014-10-11T10:24:07Z</time>
      </trkpt>
      <trkpt lat="59.184183" lon="18.029835">
        <ele>48.8</ele>
        <time>2014-10-11T10:24:08Z</time>
      </trkpt>
      <trkpt lat="59.184127" lon="18.029952">
        <ele>49.3</ele>
        <time>2014-10-11T10:24:09Z</time>
      </trkpt>
      <trkpt lat="59.184084" lon="18.030053">
        <ele>49.4</ele>
        <time>2014-10-11T10:24:10Z</time>
      </trkpt>
      <trkpt lat="59.184043" lon="18.030162">
        <ele>49.5</ele>
        <time>2014-10-11T10:24:11Z</time>
      </trkpt>
      <trkpt lat="59.183999" lon="18.030284">
        <ele>49.3</ele>
        <time>2014-10-11T10:24:12Z</time>
      </trkpt>
      <trkpt lat="59.183961" lon="18.030418">
        <ele>49</ele>
        <time>2014-10-11T10:24:13Z</time>
      </trkpt>
      <trkpt lat="59.183925" lon="18.030556">
        <ele>48.7</ele>
        <time>2014-10-11T10:24:14Z</time>
      </trkpt>
      <trkpt lat="59.183897" lon="18.030678">
        <ele>48.4</ele>
        <time>2014-10-11T10:24:15Z</time>
      </trkpt>
      <trkpt lat="59.183868" lon="18.030825">
        <ele>47.9</ele>
        <time>2014-10-11T10:24:16Z</time>
      </trkpt>
      <trkpt lat="59.183842" lon="18.030962">
        <ele>47.4</ele>
        <time>2014-10-11T10:24:17Z</time>
      </trkpt>
      <trkpt lat="59.183818" lon="18.031096">
        <ele>46.8</ele>
        <time>2014-10-11T10:24:18Z</time>
      </trkpt>
      <trkpt lat="59.183783" lon="18.031236">
        <ele>46.1</ele>
        <time>2014-10-11T10:24:19Z</time>
      </trkpt>
      <trkpt lat="59.183767" lon="18.031374">
        <ele>45.5</ele>
        <time>2014-10-11T10:24:20Z</time>
      </trkpt>
      <trkpt lat="59.183745" lon="18.031539">
        <ele>44.7</ele>
        <time>2014-10-11T10:24:21Z</time>
      </trkpt>
      <trkpt lat="59.183733" lon="18.031664">
        <ele>44.3</ele>
        <time>2014-10-11T10:24:22Z</time>
      </trkpt>
      <trkpt lat="59.183713" lon="18.031809">
        <ele>44</ele>
        <time>2014-10-11T10:24:23Z</time>
      </trkpt>
      <trkpt lat="59.183691" lon="18.03193">
        <ele>43.7</ele>
        <time>2014-10-11T10:24:24Z</time>
      </trkpt>
      <trkpt lat="59.183681" lon="18.032047">
        <ele>43.3</ele>
        <time>2014-10-11T10:24:25Z</time>
      </trkpt>
      <trkpt lat="59.183669" lon="18.03217">
        <ele>43.5</ele>
        <time>2014-10-11T10:24:26Z</time>
      </trkpt>
      <trkpt lat="59.183652" lon="18.032313">
        <ele>44</ele>
        <time>2014-10-11T10:24:27Z</time>
      </trkpt>
      <trkpt lat="59.183632" lon="18.032447">
        <ele>44.5</ele>
        <time>2014-10-11T10:24:28Z</time>
      </trkpt>
      <trkpt lat="59.183629" lon="18.032572">
        <ele>44.8</ele>
        <time>2014-10-11T10:24:29Z</time>
      </trkpt>
      <trkpt lat="59.183627" lon="18.032707">
        <ele>45</ele>
        <time>2014-10-11T10:24:30Z</time>
      </trkpt>
      <trkpt lat="59.183621" lon="18.032824">
        <ele>45.3</ele>
        <time>2014-10-11T10:24:31Z</time>
      </trkpt>
      <trkpt lat="59.183619" lon="18.032963">
        <ele>45.5</ele>
        <time>2014-10-11T10:24:32Z</time>
      </trkpt>
      <trkpt lat="59.18362" lon="18.033111">
        <ele>45.9</ele>
        <time>2014-10-11T10:24:33Z</time>
      </trkpt>
      <trkpt lat="59.183622" lon="18.033237">
        <ele>46.2</ele>
        <time>2014-10-11T10:24:34Z</time>
      </trkpt>
      <trkpt lat="59.183624" lon="18.033379">
        <ele>46.5</ele>
        <time>2014-10-11T10:24:35Z</time>
      </trkpt>
      <trkpt lat="59.183629" lon="18.03351">
        <ele>46.8</ele>
        <time>2014-10-11T10:24:36Z</time>
      </trkpt>
      <trkpt lat="59.183629" lon="18.033644">
        <ele>47.2</ele>
        <time>2014-10-11T10:24:37Z</time>
      </trkpt>
      <trkpt lat="59.18363" lon="18.033782">
        <ele>47.5</ele>
        <time>2014-10-11T10:24:38Z</time>
      </trkpt>
      <trkpt lat="59.18363" lon="18.03391">
        <ele>47.8</ele>
        <time>2014-10-11T10:24:39Z</time>
      </trkpt>
      <trkpt lat="59.183646" lon="18.034026">
        <ele>48</ele>
        <time>2014-10-11T10:24:40Z</time>
      </trkpt>
      <trkpt lat="59.183652" lon="18.034173">
        <ele>48.3</ele>
        <time>2014-10-11T10:24:41Z</time>
      </trkpt>
      <trkpt lat="59.183634" lon="18.034321">
        <ele>48.7</ele>
        <time>2014-10-11T10:24:42Z</time>
      </trkpt>
      <trkpt lat="59.183627" lon="18.034454">
        <ele>49</ele>
        <time>2014-10-11T10:24:43Z</time>
      </trkpt>
      <trkpt lat="59.18357" lon="18.034635">
        <ele>49.6</ele>
        <time>2014-10-11T10:24:44Z</time>
      </trkpt>
      <trkpt lat="59.183553" lon="18.034753">
        <ele>50</ele>
        <time>2014-10-11T10:24:45Z</time>
      </trkpt>
      <trkpt lat="59.183554" lon="18.034847">
        <ele>50.3</ele>
        <time>2014-10-11T10:24:46Z</time>
      </trkpt>
      <trkpt lat="59.183537" lon="18.034981">
        <ele>50.7</ele>
        <time>2014-10-11T10:24:47Z</time>
      </trkpt>
      <trkpt lat="59.183519" lon="18.03511">
        <ele>51.1</ele>
        <time>2014-10-11T10:24:48Z</time>
      </trkpt>
      <trkpt lat="59.183486" lon="18.035239">
        <ele>51.5</ele>
        <time>2014-10-11T10:24:49Z</time>
      </trkpt>
      <trkpt lat="59.183452" lon="18.035375">
        <ele>51.9</ele>
        <time>2014-10-11T10:24:50Z</time>
      </trkpt>
      <trkpt lat="59.183428" lon="18.035512">
        <ele>51.7</ele>
        <time>2014-10-11T10:24:51Z</time>
      </trkpt>
      <trkpt lat="59.183412" lon="18.035624">
        <ele>51.4</ele>
        <time>2014-10-11T10:24:52Z</time>
      </trkpt>
      <trkpt lat="59.183389" lon="18.035773">
        <ele>51</ele>
        <time>2014-10-11T10:24:53Z</time>
      </trkpt>
      <trkpt lat="59.183364" lon="18.035904">
        <ele>50.6</ele>
        <time>2014-10-11T10:24:54Z</time>
      </trkpt>
      <trkpt lat="59.183322" lon="18.036043">
        <ele>50.1</ele>
        <time>2014-10-11T10:24:55Z</time>
      </trkpt>
      <trkpt lat="59.183287" lon="18.036153">
        <ele>49.7</ele>
        <time>2014-10-11T10:24:56Z</time>
      </trkpt>
      <trkpt lat="59.183257" lon="18.036277">
        <ele>49.3</ele>
        <time>2014-10-11T10:24:57Z</time>
      </trkpt>
      <trkpt lat="59.183229" lon="18.036395">
        <ele>48.9</ele>
        <time>2014-10-11T10:24:58Z</time>
      </trkpt>
      <trkpt lat="59.183195" lon="18.036585">
        <ele>48.1</ele>
        <time>2014-10-11T10:24:59Z</time>
      </trkpt>
      <trkpt lat="59.183171" lon="18.036729">
        <ele>47.6</ele>
        <time>2014-10-11T10:25:00Z</time>
      </trkpt>
      <trkpt lat="59.18314" lon="18.036889">
        <ele>47</ele>
        <time>2014-10-11T10:25:01Z</time>
      </trkpt>
      <trkpt lat="59.183128" lon="18.037055">
        <ele>46.4</ele>
        <time>2014-10-11T10:25:02Z</time>
      </trkpt>
      <trkpt lat="59.183128" lon="18.037206">
        <ele>46.4</ele>
        <time>2014-10-11T10:25:03Z</time>
      </trkpt>
      <trkpt lat="59.183149" lon="18.037345">
        <ele>46.6</ele>
        <time>2014-10-11T10:25:04Z</time>
      </trkpt>
      <trkpt lat="59.183154" lon="18.037506">
        <ele>46.9</ele>
        <time>2014-10-11T10:25:05Z</time>
      </trkpt>
      <trkpt lat="59.183177" lon="18.037657">
        <ele>47</ele>
        <time>2014-10-11T10:25:06Z</time>
      </trkpt>
      <trkpt lat="59.183198" lon="18.037829">
        <ele>47.2</ele>
        <time>2014-10-11T10:25:07Z</time>
      </trkpt>
      <trkpt lat="59.183219" lon="18.037989">
        <ele>47.4</ele>
        <time>2014-10-11T10:25:08Z</time>
      </trkpt>
      <trkpt lat="59.183248" lon="18.038168">
        <ele>47.6</ele>
        <time>2014-10-11T10:25:09Z</time>
      </trkpt>
      <trkpt lat="59.183289" lon="18.03833">
        <ele>47.7</ele>
        <time>2014-10-11T10:25:10Z</time>
      </trkpt>
      <trkpt lat="59.183331" lon="18.038474">
        <ele>47.7</ele>
        <time>2014-10-11T10:25:11Z</time>
      </trkpt>
      <trkpt lat="59.183381" lon="18.038626">
        <ele>47.5</ele>
        <time>2014-10-11T10:25:12Z</time>
      </trkpt>
      <trkpt lat="59.183442" lon="18.038772">
        <ele>47.3</ele>
        <time>2014-10-11T10:25:13Z</time>
      </trkpt>
      <trkpt lat="59.183493" lon="18.03891">
        <ele>47.4</ele>
        <time>2014-10-11T10:25:14Z</time>
      </trkpt>
      <trkpt lat="59.183544" lon="18.039038">
        <ele>47.3</ele>
        <time>2014-10-11T10:25:15Z</time>
      </trkpt>
      <trkpt lat="59.183604" lon="18.039178">
        <ele>47.1</ele>
        <time>2014-10-11T10:25:16Z</time>
      </trkpt>
      <trkpt lat="59.18366" lon="18.039306">
        <ele>46.7</ele>
        <time>2014-10-11T10:25:17Z</time>
      </trkpt>
      <trkpt lat="59.183724" lon="18.03944">
        <ele>46.2</ele>
        <time>2014-10-11T10:25:18Z</time>
      </trkpt>
      <trkpt lat="59.18379" lon="18.039581">
        <ele>46.1</ele>
        <time>2014-10-11T10:25:19Z</time>
      </trkpt>
      <trkpt lat="59.183853" lon="18.039726">
        <ele>46.5</ele>
        <time>2014-10-11T10:25:20Z</time>
      </trkpt>
      <trkpt lat="59.183913" lon="18.039883">
        <ele>46.8</ele>
        <time>2014-10-11T10:25:21Z</time>
      </trkpt>
      <trkpt lat="59.183966" lon="18.040046">
        <ele>47.1</ele>
        <time>2014-10-11T10:25:22Z</time>
      </trkpt>
      <trkpt lat="59.184032" lon="18.040195">
        <ele>47.2</ele>
        <time>2014-10-11T10:25:23Z</time>
      </trkpt>
      <trkpt lat="59.184086" lon="18.040362">
        <ele>47.2</ele>
        <time>2014-10-11T10:25:24Z</time>
      </trkpt>
      <trkpt lat="59.184144" lon="18.040559">
        <ele>47.2</ele>
        <time>2014-10-11T10:25:25Z</time>
      </trkpt>
      <trkpt lat="59.184184" lon="18.040772">
        <ele>47.1</ele>
        <time>2014-10-11T10:25:26Z</time>
      </trkpt>
      <trkpt lat="59.184238" lon="18.040926">
        <ele>46.9</ele>
        <time>2014-10-11T10:25:27Z</time>
      </trkpt>
      <trkpt lat="59.18429" lon="18.041121">
        <ele>46.5</ele>
        <time>2014-10-11T10:25:28Z</time>
      </trkpt>
      <trkpt lat="59.184337" lon="18.041315">
        <ele>46</ele>
        <time>2014-10-11T10:25:29Z</time>
      </trkpt>
      <trkpt lat="59.184379" lon="18.041503">
        <ele>45.3</ele>
        <time>2014-10-11T10:25:30Z</time>
      </trkpt>
      <trkpt lat="59.184425" lon="18.041704">
        <ele>44.3</ele>
        <time>2014-10-11T10:25:31Z</time>
      </trkpt>
      <trkpt lat="59.184473" lon="18.041909">
        <ele>43.2</ele>
        <time>2014-10-11T10:25:32Z</time>
      </trkpt>
      <trkpt lat="59.184522" lon="18.042065">
        <ele>42</ele>
        <time>2014-10-11T10:25:33Z</time>
      </trkpt>
      <trkpt lat="59.184565" lon="18.04224">
        <ele>41.3</ele>
        <time>2014-10-11T10:25:34Z</time>
      </trkpt>
      <trkpt lat="59.184611" lon="18.042426">
        <ele>40.9</ele>
        <time>2014-10-11T10:25:35Z</time>
      </trkpt>
      <trkpt lat="59.184654" lon="18.042588">
        <ele>40.7</ele>
        <time>2014-10-11T10:25:36Z</time>
      </trkpt>
      <trkpt lat="59.184704" lon="18.042742">
        <ele>40.5</ele>
        <time>2014-10-11T10:25:37Z</time>
      </trkpt>
      <trkpt lat="59.184747" lon="18.042922">
        <ele>40.2</ele>
        <time>2014-10-11T10:25:38Z</time>
      </trkpt>
      <trkpt lat="59.184768" lon="18.043104">
        <ele>40</ele>
        <time>2014-10-11T10:25:39Z</time>
      </trkpt>
      <trkpt lat="59.184796" lon="18.043269">
        <ele>39.8</ele>
        <time>2014-10-11T10:25:40Z</time>
      </trkpt>
      <trkpt lat="59.184824" lon="18.043451">
        <ele>39.5</ele>
        <time>2014-10-11T10:25:41Z</time>
      </trkpt>
      <trkpt lat="59.184836" lon="18.043619">
        <ele>39.3</ele>
        <time>2014-10-11T10:25:42Z</time>
      </trkpt>
      <trkpt lat="59.184833" lon="18.043792">
        <ele>39.1</ele>
        <time>2014-10-11T10:25:43Z</time>
      </trkpt>
      <trkpt lat="59.184816" lon="18.043973">
        <ele>38.9</ele>
        <time>2014-10-11T10:25:44Z</time>
      </trkpt>
      <trkpt lat="59.184805" lon="18.04414">
        <ele>38.7</ele>
        <time>2014-10-11T10:25:45Z</time>
      </trkpt>
      <trkpt lat="59.184784" lon="18.044283">
        <ele>38.6</ele>
        <time>2014-10-11T10:25:46Z</time>
      </trkpt>
      <trkpt lat="59.184736" lon="18.044414">
        <ele>38.6</ele>
        <time>2014-10-11T10:25:47Z</time>
      </trkpt>
      <trkpt lat="59.184701" lon="18.04455">
        <ele>38.5</ele>
        <time>2014-10-11T10:25:48Z</time>
      </trkpt>
      <trkpt lat="59.184666" lon="18.044661">
        <ele>38.4</ele>
        <time>2014-10-11T10:25:49Z</time>
      </trkpt>
      <trkpt lat="59.184608" lon="18.044775">
        <ele>38.4</ele>
        <time>2014-10-11T10:25:50Z</time>
      </trkpt>
      <trkpt lat="59.184567" lon="18.044882">
        <ele>38.4</ele>
        <time>2014-10-11T10:25:51Z</time>
      </trkpt>
      <trkpt lat="59.184527" lon="18.044984">
        <ele>38.4</ele>
        <time>2014-10-11T10:25:52Z</time>
      </trkpt>
      <trkpt lat="59.184476" lon="18.045084">
        <ele>38.4</ele>
        <time>2014-10-11T10:25:53Z</time>
      </trkpt>
      <trkpt lat="59.184432" lon="18.04519">
        <ele>38.4</ele>
        <time>2014-10-11T10:25:54Z</time>
      </trkpt>
      <trkpt lat="59.184391" lon="18.045305">
        <ele>38.3</ele>
        <time>2014-10-11T10:25:55Z</time>
      </trkpt>
      <trkpt lat="59.184355" lon="18.045419">
        <ele>38.1</ele>
        <time>2014-10-11T10:25:56Z</time>
      </trkpt>
      <trkpt lat="59.184351" lon="18.045549">
        <ele>38</ele>
        <time>2014-10-11T10:25:57Z</time>
      </trkpt>
      <trkpt lat="59.184342" lon="18.045661">
        <ele>38</ele>
        <time>2014-10-11T10:25:58Z</time>
      </trkpt>
      <trkpt lat="59.184318" lon="18.045769">
        <ele>38</ele>
        <time>2014-10-11T10:25:59Z</time>
      </trkpt>
      <trkpt lat="59.184283" lon="18.045922">
        <ele>38</ele>
        <time>2014-10-11T10:26:00Z</time>
      </trkpt>
      <trkpt lat="59.184266" lon="18.046061">
        <ele>37.9</ele>
        <time>2014-10-11T10:26:01Z</time>
      </trkpt>
      <trkpt lat="59.184247" lon="18.046184">
        <ele>37.9</ele>
        <time>2014-10-11T10:26:02Z</time>
      </trkpt>
      <trkpt lat="59.184212" lon="18.046314">
        <ele>37.9</ele>
        <time>2014-10-11T10:26:03Z</time>
      </trkpt>
      <trkpt lat="59.184162" lon="18.046427">
        <ele>37.9</ele>
        <time>2014-10-11T10:26:04Z</time>
      </trkpt>
      <trkpt lat="59.184108" lon="18.046519">
        <ele>37.9</ele>
        <time>2014-10-11T10:26:05Z</time>
      </trkpt>
      <trkpt lat="59.184046" lon="18.046617">
        <ele>37.9</ele>
        <time>2014-10-11T10:26:06Z</time>
      </trkpt>
      <trkpt lat="59.183984" lon="18.0467">
        <ele>37.8</ele>
        <time>2014-10-11T10:26:07Z</time>
      </trkpt>
      <trkpt lat="59.18392" lon="18.046782">
        <ele>37.7</ele>
        <time>2014-10-11T10:26:08Z</time>
      </trkpt>
      <trkpt lat="59.183845" lon="18.046875">
        <ele>37.5</ele>
        <time>2014-10-11T10:26:09Z</time>
      </trkpt>
      <trkpt lat="59.183782" lon="18.046955">
        <ele>37.3</ele>
        <time>2014-10-11T10:26:10Z</time>
      </trkpt>
      <trkpt lat="59.183709" lon="18.047039">
        <ele>37.9</ele>
        <time>2014-10-11T10:26:11Z</time>
      </trkpt>
      <trkpt lat="59.183636" lon="18.047125">
        <ele>39.1</ele>
        <time>2014-10-11T10:26:12Z</time>
      </trkpt>
      <trkpt lat="59.183564" lon="18.047212">
        <ele>40.3</ele>
        <time>2014-10-11T10:26:13Z</time>
      </trkpt>
      <trkpt lat="59.183485" lon="18.047301">
        <ele>41.5</ele>
        <time>2014-10-11T10:26:14Z</time>
      </trkpt>
      <trkpt lat="59.183418" lon="18.047373">
        <ele>42.4</ele>
        <time>2014-10-11T10:26:15Z</time>
      </trkpt>
      <trkpt lat="59.183344" lon="18.047446">
        <ele>43.3</ele>
        <time>2014-10-11T10:26:16Z</time>
      </trkpt>
      <trkpt lat="59.183266" lon="18.047521">
        <ele>44.2</ele>
        <time>2014-10-11T10:26:17Z</time>
      </trkpt>
      <trkpt lat="59.1832" lon="18.047584">
        <ele>44.8</ele>
        <time>2014-10-11T10:26:18Z</time>
      </trkpt>
      <trkpt lat="59.183134" lon="18.04767">
        <ele>45.2</ele>
        <time>2014-10-11T10:26:19Z</time>
      </trkpt>
      <trkpt lat="59.183063" lon="18.047748">
        <ele>45.6</ele>
        <time>2014-10-11T10:26:20Z</time>
      </trkpt>
      <trkpt lat="59.183" lon="18.047831">
        <ele>45.7</ele>
        <time>2014-10-11T10:26:21Z</time>
      </trkpt>
      <trkpt lat="59.182924" lon="18.047914">
        <ele>45.9</ele>
        <time>2014-10-11T10:26:22Z</time>
      </trkpt>
      <trkpt lat="59.182864" lon="18.047983">
        <ele>45.5</ele>
        <time>2014-10-11T10:26:23Z</time>
      </trkpt>
      <trkpt lat="59.182797" lon="18.048059">
        <ele>44.9</ele>
        <time>2014-10-11T10:26:24Z</time>
      </trkpt>
      <trkpt lat="59.182761" lon="18.048095">
        <ele>44.6</ele>
        <time>2014-10-11T10:26:25Z</time>
      </trkpt>
      <trkpt lat="59.182706" lon="18.048166">
        <ele>44</ele>
        <time>2014-10-11T10:26:26Z</time>
      </trkpt>
      <trkpt lat="59.18265" lon="18.048266">
        <ele>43.1</ele>
        <time>2014-10-11T10:26:27Z</time>
      </trkpt>
      <trkpt lat="59.182589" lon="18.048376">
        <ele>42.1</ele>
        <time>2014-10-11T10:26:28Z</time>
      </trkpt>
      <trkpt lat="59.182525" lon="18.048488">
        <ele>41</ele>
        <time>2014-10-11T10:26:29Z</time>
      </trkpt>
      <trkpt lat="59.182465" lon="18.048584">
        <ele>40.1</ele>
        <time>2014-10-11T10:26:30Z</time>
      </trkpt>
      <trkpt lat="59.182394" lon="18.048702">
        <ele>38.8</ele>
        <time>2014-10-11T10:26:31Z</time>
      </trkpt>
      <trkpt lat="59.182333" lon="18.048813">
        <ele>38.4</ele>
        <time>2014-10-11T10:26:32Z</time>
      </trkpt>
      <trkpt lat="59.182273" lon="18.048918">
        <ele>38.5</ele>
        <time>2014-10-11T10:26:33Z</time>
      </trkpt>
      <trkpt lat="59.182218" lon="18.048992">
        <ele>38.5</ele>
        <time>2014-10-11T10:26:34Z</time>
      </trkpt>
      <trkpt lat="59.182145" lon="18.049089">
        <ele>38.5</ele>
        <time>2014-10-11T10:26:35Z</time>
      </trkpt>
      <trkpt lat="59.182083" lon="18.04918">
        <ele>38.5</ele>
        <time>2014-10-11T10:26:36Z</time>
      </trkpt>
      <trkpt lat="59.182019" lon="18.049278">
        <ele>38.6</ele>
        <time>2014-10-11T10:26:37Z</time>
      </trkpt>
      <trkpt lat="59.181956" lon="18.049376">
        <ele>38.7</ele>
        <time>2014-10-11T10:26:38Z</time>
      </trkpt>
      <trkpt lat="59.181901" lon="18.049483">
        <ele>38.7</ele>
        <time>2014-10-11T10:26:39Z</time>
      </trkpt>
      <trkpt lat="59.181832" lon="18.0496">
        <ele>38.7</ele>
        <time>2014-10-11T10:26:40Z</time>
      </trkpt>
      <trkpt lat="59.181775" lon="18.049689">
        <ele>38.7</ele>
        <time>2014-10-11T10:26:41Z</time>
      </trkpt>
      <trkpt lat="59.18172" lon="18.049776">
        <ele>38.6</ele>
        <time>2014-10-11T10:26:42Z</time>
      </trkpt>
      <trkpt lat="59.181656" lon="18.049878">
        <ele>38.5</ele>
        <time>2014-10-11T10:26:43Z</time>
      </trkpt>
      <trkpt lat="59.181608" lon="18.049965">
        <ele>38.3</ele>
        <time>2014-10-11T10:26:44Z</time>
      </trkpt>
      <trkpt lat="59.181554" lon="18.050059">
        <ele>38.1</ele>
        <time>2014-10-11T10:26:45Z</time>
      </trkpt>
      <trkpt lat="59.181497" lon="18.05015">
        <ele>37.7</ele>
        <time>2014-10-11T10:26:46Z</time>
      </trkpt>
      <trkpt lat="59.181449" lon="18.050231">
        <ele>37.4</ele>
        <time>2014-10-11T10:26:47Z</time>
      </trkpt>
      <trkpt lat="59.181397" lon="18.05032">
        <ele>37</ele>
        <time>2014-10-11T10:26:48Z</time>
      </trkpt>
      <trkpt lat="59.181356" lon="18.050397">
        <ele>36.7</ele>
        <time>2014-10-11T10:26:49Z</time>
      </trkpt>
      <trkpt lat="59.181313" lon="18.050474">
        <ele>36.4</ele>
        <time>2014-10-11T10:26:50Z</time>
      </trkpt>
      <trkpt lat="59.18126" lon="18.050562">
        <ele>36.1</ele>
        <time>2014-10-11T10:26:51Z</time>
      </trkpt>
      <trkpt lat="59.181206" lon="18.050637">
        <ele>36.1</ele>
        <time>2014-10-11T10:26:52Z</time>
      </trkpt>
      <trkpt lat="59.181154" lon="18.050671">
        <ele>36.1</ele>
        <time>2014-10-11T10:26:53Z</time>
      </trkpt>
      <trkpt lat="59.181102" lon="18.050757">
        <ele>36.1</ele>
        <time>2014-10-11T10:26:54Z</time>
      </trkpt>
      <trkpt lat="59.181042" lon="18.050836">
        <ele>36.1</ele>
        <time>2014-10-11T10:26:55Z</time>
      </trkpt>
      <trkpt lat="59.180972" lon="18.050899">
        <ele>36.1</ele>
        <time>2014-10-11T10:26:56Z</time>
      </trkpt>
      <trkpt lat="59.180908" lon="18.050969">
        <ele>36</ele>
        <time>2014-10-11T10:26:57Z</time>
      </trkpt>
      <trkpt lat="59.180838" lon="18.051025">
        <ele>35.9</ele>
        <time>2014-10-11T10:26:58Z</time>
      </trkpt>
      <trkpt lat="59.180766" lon="18.051067">
        <ele>35.8</ele>
        <time>2014-10-11T10:26:59Z</time>
      </trkpt>
      <trkpt lat="59.180692" lon="18.051115">
        <ele>35.7</ele>
        <time>2014-10-11T10:27:00Z</time>
      </trkpt>
      <trkpt lat="59.180604" lon="18.051153">
        <ele>35.5</ele>
        <time>2014-10-11T10:27:01Z</time>
      </trkpt>
      <trkpt lat="59.180528" lon="18.051191">
        <ele>35.3</ele>
        <time>2014-10-11T10:27:02Z</time>
      </trkpt>
      <trkpt lat="59.18045" lon="18.051211">
        <ele>35.2</ele>
        <time>2014-10-11T10:27:03Z</time>
      </trkpt>
      <trkpt lat="59.180366" lon="18.051231">
        <ele>35.6</ele>
        <time>2014-10-11T10:27:04Z</time>
      </trkpt>
      <trkpt lat="59.180285" lon="18.05125">
        <ele>36.4</ele>
        <time>2014-10-11T10:27:05Z</time>
      </trkpt>
      <trkpt lat="59.180205" lon="18.051249">
        <ele>37.3</ele>
        <time>2014-10-11T10:27:06Z</time>
      </trkpt>
      <trkpt lat="59.180124" lon="18.05126">
        <ele>38.1</ele>
        <time>2014-10-11T10:27:07Z</time>
      </trkpt>
      <trkpt lat="59.180038" lon="18.051238">
        <ele>39.2</ele>
        <time>2014-10-11T10:27:08Z</time>
      </trkpt>
      <trkpt lat="59.179963" lon="18.051219">
        <ele>40.1</ele>
        <time>2014-10-11T10:27:09Z</time>
      </trkpt>
      <trkpt lat="59.179878" lon="18.051201">
        <ele>41.1</ele>
        <time>2014-10-11T10:27:10Z</time>
      </trkpt>
      <trkpt lat="59.179803" lon="18.051165">
        <ele>42.2</ele>
        <time>2014-10-11T10:27:11Z</time>
      </trkpt>
      <trkpt lat="59.179734" lon="18.051132">
        <ele>43.1</ele>
        <time>2014-10-11T10:27:12Z</time>
      </trkpt>
      <trkpt lat="59.179675" lon="18.051093">
        <ele>44.1</ele>
        <time>2014-10-11T10:27:13Z</time>
      </trkpt>
      <trkpt lat="59.179612" lon="18.05106">
        <ele>45</ele>
        <time>2014-10-11T10:27:14Z</time>
      </trkpt>
      <trkpt lat="59.179556" lon="18.051035">
        <ele>45.6</ele>
        <time>2014-10-11T10:27:15Z</time>
      </trkpt>
      <trkpt lat="59.179487" lon="18.051002">
        <ele>46.1</ele>
        <time>2014-10-11T10:27:16Z</time>
      </trkpt>
      <trkpt lat="59.17943" lon="18.050969">
        <ele>46.5</ele>
        <time>2014-10-11T10:27:17Z</time>
      </trkpt>
      <trkpt lat="59.179374" lon="18.050928">
        <ele>47</ele>
        <time>2014-10-11T10:27:18Z</time>
      </trkpt>
      <trkpt lat="59.179322" lon="18.050901">
        <ele>47.3</ele>
        <time>2014-10-11T10:27:19Z</time>
      </trkpt>
      <trkpt lat="59.179267" lon="18.050882">
        <ele>47.6</ele>
        <time>2014-10-11T10:27:20Z</time>
      </trkpt>
      <trkpt lat="59.179205" lon="18.050871">
        <ele>47.9</ele>
        <time>2014-10-11T10:27:21Z</time>
      </trkpt>
      <trkpt lat="59.179149" lon="18.050858">
        <ele>48.1</ele>
        <time>2014-10-11T10:27:22Z</time>
      </trkpt>
      <trkpt lat="59.179097" lon="18.050849">
        <ele>48.4</ele>
        <time>2014-10-11T10:27:23Z</time>
      </trkpt>
      <trkpt lat="59.179042" lon="18.050834">
        <ele>48.6</ele>
        <time>2014-10-11T10:27:24Z</time>
      </trkpt>
      <trkpt lat="59.17899" lon="18.050801">
        <ele>49</ele>
        <time>2014-10-11T10:27:25Z</time>
      </trkpt>
      <trkpt lat="59.178936" lon="18.050767">
        <ele>49.4</ele>
        <time>2014-10-11T10:27:26Z</time>
      </trkpt>
      <trkpt lat="59.17888" lon="18.050755">
        <ele>49.6</ele>
        <time>2014-10-11T10:27:27Z</time>
      </trkpt>
      <trkpt lat="59.178822" lon="18.050752">
        <ele>49.8</ele>
        <time>2014-10-11T10:27:28Z</time>
      </trkpt>
      <trkpt lat="59.178757" lon="18.050735">
        <ele>50.1</ele>
        <time>2014-10-11T10:27:29Z</time>
      </trkpt>
      <trkpt lat="59.1787" lon="18.050715">
        <ele>49.9</ele>
        <time>2014-10-11T10:27:30Z</time>
      </trkpt>
      <trkpt lat="59.178652" lon="18.050665">
        <ele>49.9</ele>
        <time>2014-10-11T10:27:31Z</time>
      </trkpt>
      <trkpt lat="59.178597" lon="18.050627">
        <ele>49.7</ele>
        <time>2014-10-11T10:27:32Z</time>
      </trkpt>
      <trkpt lat="59.17853" lon="18.050599">
        <ele>49.3</ele>
        <time>2014-10-11T10:27:33Z</time>
      </trkpt>
      <trkpt lat="59.178468" lon="18.05057">
        <ele>49</ele>
        <time>2014-10-11T10:27:34Z</time>
      </trkpt>
      <trkpt lat="59.178402" lon="18.050548">
        <ele>48.6</ele>
        <time>2014-10-11T10:27:35Z</time>
      </trkpt>
      <trkpt lat="59.178336" lon="18.05053">
        <ele>48.2</ele>
        <time>2014-10-11T10:27:36Z</time>
      </trkpt>
      <trkpt lat="59.178281" lon="18.050496">
        <ele>47.9</ele>
        <time>2014-10-11T10:27:37Z</time>
      </trkpt>
      <trkpt lat="59.178219" lon="18.050484">
        <ele>47.4</ele>
        <time>2014-10-11T10:27:38Z</time>
      </trkpt>
      <trkpt lat="59.178148" lon="18.050461">
        <ele>46.9</ele>
        <time>2014-10-11T10:27:39Z</time>
      </trkpt>
      <trkpt lat="59.178078" lon="18.050465">
        <ele>46.3</ele>
        <time>2014-10-11T10:27:40Z</time>
      </trkpt>
      <trkpt lat="59.178019" lon="18.050451">
        <ele>45.8</ele>
        <time>2014-10-11T10:27:41Z</time>
      </trkpt>
      <trkpt lat="59.177949" lon="18.050435">
        <ele>45.3</ele>
        <time>2014-10-11T10:27:42Z</time>
      </trkpt>
      <trkpt lat="59.177883" lon="18.050398">
        <ele>45.1</ele>
        <time>2014-10-11T10:27:43Z</time>
      </trkpt>
      <trkpt lat="59.17783" lon="18.050344">
        <ele>45.3</ele>
        <time>2014-10-11T10:27:44Z</time>
      </trkpt>
      <trkpt lat="59.17775" lon="18.050334">
        <ele>45.2</ele>
        <time>2014-10-11T10:27:45Z</time>
      </trkpt>
      <trkpt lat="59.177688" lon="18.05031">
        <ele>45.1</ele>
        <time>2014-10-11T10:27:46Z</time>
      </trkpt>
      <trkpt lat="59.177407" lon="18.050194">
        <ele>44.5</ele>
        <time>2014-10-11T10:27:50Z</time>
      </trkpt>
      <trkpt lat="59.177338" lon="18.050157">
        <ele>44.3</ele>
        <time>2014-10-11T10:27:51Z</time>
      </trkpt>
      <trkpt lat="59.177269" lon="18.050103">
        <ele>44</ele>
        <time>2014-10-11T10:27:52Z</time>
      </trkpt>
      <trkpt lat="59.177205" lon="18.050048">
        <ele>43.7</ele>
        <time>2014-10-11T10:27:53Z</time>
      </trkpt>
      <trkpt lat="59.177145" lon="18.049973">
        <ele>43.4</ele>
        <time>2014-10-11T10:27:54Z</time>
      </trkpt>
      <trkpt lat="59.177084" lon="18.049911">
        <ele>43</ele>
        <time>2014-10-11T10:27:55Z</time>
      </trkpt>
      <trkpt lat="59.177027" lon="18.049838">
        <ele>43.1</ele>
        <time>2014-10-11T10:27:56Z</time>
      </trkpt>
      <trkpt lat="59.176965" lon="18.049742">
        <ele>43.1</ele>
        <time>2014-10-11T10:27:57Z</time>
      </trkpt>
      <trkpt lat="59.17691" lon="18.049649">
        <ele>42.9</ele>
        <time>2014-10-11T10:27:58Z</time>
      </trkpt>
      <trkpt lat="59.176868" lon="18.049576">
        <ele>42.7</ele>
        <time>2014-10-11T10:27:59Z</time>
      </trkpt>
      <trkpt lat="59.176812" lon="18.049502">
        <ele>42.4</ele>
        <time>2014-10-11T10:28:00Z</time>
      </trkpt>
      <trkpt lat="59.176755" lon="18.049408">
        <ele>41.9</ele>
        <time>2014-10-11T10:28:01Z</time>
      </trkpt>
      <trkpt lat="59.176702" lon="18.049315">
        <ele>41.4</ele>
        <time>2014-10-11T10:28:02Z</time>
      </trkpt>
      <trkpt lat="59.176644" lon="18.049212">
        <ele>40.6</ele>
        <time>2014-10-11T10:28:03Z</time>
      </trkpt>
      <trkpt lat="59.176587" lon="18.049116">
        <ele>39.7</ele>
        <time>2014-10-11T10:28:04Z</time>
      </trkpt>
      <trkpt lat="59.176533" lon="18.04904">
        <ele>38.9</ele>
        <time>2014-10-11T10:28:05Z</time>
      </trkpt>
      <trkpt lat="59.176474" lon="18.048987">
        <ele>38.1</ele>
        <time>2014-10-11T10:28:06Z</time>
      </trkpt>
      <trkpt lat="59.176419" lon="18.048936">
        <ele>37.2</ele>
        <time>2014-10-11T10:28:07Z</time>
      </trkpt>
      <trkpt lat="59.17636" lon="18.048872">
        <ele>36.2</ele>
        <time>2014-10-11T10:28:08Z</time>
      </trkpt>
      <trkpt lat="59.176295" lon="18.048818">
        <ele>35.1</ele>
        <time>2014-10-11T10:28:09Z</time>
      </trkpt>
      <trkpt lat="59.176239" lon="18.048776">
        <ele>34.2</ele>
        <time>2014-10-11T10:28:10Z</time>
      </trkpt>
      <trkpt lat="59.176172" lon="18.048732">
        <ele>33.6</ele>
        <time>2014-10-11T10:28:11Z</time>
      </trkpt>
      <trkpt lat="59.176111" lon="18.048686">
        <ele>33.4</ele>
        <time>2014-10-11T10:28:12Z</time>
      </trkpt>
      <trkpt lat="59.176052" lon="18.048649">
        <ele>33.2</ele>
        <time>2014-10-11T10:28:13Z</time>
      </trkpt>
      <trkpt lat="59.175984" lon="18.048619">
        <ele>32.9</ele>
        <time>2014-10-11T10:28:14Z</time>
      </trkpt>
      <trkpt lat="59.17592" lon="18.048611">
        <ele>32.6</ele>
        <time>2014-10-11T10:28:15Z</time>
      </trkpt>
      <trkpt lat="59.175856" lon="18.048647">
        <ele>32.2</ele>
        <time>2014-10-11T10:28:16Z</time>
      </trkpt>
      <trkpt lat="59.175785" lon="18.048705">
        <ele>31.8</ele>
        <time>2014-10-11T10:28:17Z</time>
      </trkpt>
      <trkpt lat="59.175726" lon="18.048772">
        <ele>31.6</ele>
        <time>2014-10-11T10:28:18Z</time>
      </trkpt>
      <trkpt lat="59.175662" lon="18.048848">
        <ele>31.9</ele>
        <time>2014-10-11T10:28:19Z</time>
      </trkpt>
      <trkpt lat="59.175598" lon="18.048911">
        <ele>32</ele>
        <time>2014-10-11T10:28:20Z</time>
      </trkpt>
      <trkpt lat="59.175534" lon="18.048958">
        <ele>31.9</ele>
        <time>2014-10-11T10:28:21Z</time>
      </trkpt>
      <trkpt lat="59.175459" lon="18.049022">
        <ele>31.9</ele>
        <time>2014-10-11T10:28:22Z</time>
      </trkpt>
      <trkpt lat="59.175402" lon="18.049076">
        <ele>31.9</ele>
        <time>2014-10-11T10:28:23Z</time>
      </trkpt>
      <trkpt lat="59.17534" lon="18.049157">
        <ele>32.1</ele>
        <time>2014-10-11T10:28:24Z</time>
      </trkpt>
      <trkpt lat="59.175265" lon="18.049227">
        <ele>32.2</ele>
        <time>2014-10-11T10:28:25Z</time>
      </trkpt>
      <trkpt lat="59.175205" lon="18.049293">
        <ele>32.2</ele>
        <time>2014-10-11T10:28:26Z</time>
      </trkpt>
      <trkpt lat="59.17514" lon="18.049367">
        <ele>32.1</ele>
        <time>2014-10-11T10:28:27Z</time>
      </trkpt>
      <trkpt lat="59.175079" lon="18.049464">
        <ele>32.1</ele>
        <time>2014-10-11T10:28:28Z</time>
      </trkpt>
      <trkpt lat="59.17503" lon="18.049556">
        <ele>32.1</ele>
        <time>2014-10-11T10:28:29Z</time>
      </trkpt>
      <trkpt lat="59.174981" lon="18.049661">
        <ele>32.1</ele>
        <time>2014-10-11T10:28:30Z</time>
      </trkpt>
      <trkpt lat="59.174941" lon="18.049765">
        <ele>32.2</ele>
        <time>2014-10-11T10:28:31Z</time>
      </trkpt>
      <trkpt lat="59.1749" lon="18.049866">
        <ele>32.1</ele>
        <time>2014-10-11T10:28:32Z</time>
      </trkpt>
      <trkpt lat="59.174859" lon="18.049978">
        <ele>32.1</ele>
        <time>2014-10-11T10:28:33Z</time>
      </trkpt>
      <trkpt lat="59.174818" lon="18.050093">
        <ele>32</ele>
        <time>2014-10-11T10:28:34Z</time>
      </trkpt>
      <trkpt lat="59.174774" lon="18.050205">
        <ele>31.8</ele>
        <time>2014-10-11T10:28:35Z</time>
      </trkpt>
      <trkpt lat="59.174735" lon="18.050306">
        <ele>31.6</ele>
        <time>2014-10-11T10:28:36Z</time>
      </trkpt>
      <trkpt lat="59.174694" lon="18.050424">
        <ele>31.3</ele>
        <time>2014-10-11T10:28:37Z</time>
      </trkpt>
      <trkpt lat="59.174653" lon="18.050536">
        <ele>31</ele>
        <time>2014-10-11T10:28:38Z</time>
      </trkpt>
      <trkpt lat="59.174613" lon="18.050652">
        <ele>30.7</ele>
        <time>2014-10-11T10:28:39Z</time>
      </trkpt>
      <trkpt lat="59.174575" lon="18.050769">
        <ele>30.4</ele>
        <time>2014-10-11T10:28:40Z</time>
      </trkpt>
      <trkpt lat="59.174543" lon="18.050886">
        <ele>30.5</ele>
        <time>2014-10-11T10:28:41Z</time>
      </trkpt>
      <trkpt lat="59.174411" lon="18.051382">
        <ele>30.9</ele>
        <time>2014-10-11T10:28:45Z</time>
      </trkpt>
      <trkpt lat="59.174381" lon="18.051515">
        <ele>31.1</ele>
        <time>2014-10-11T10:28:46Z</time>
      </trkpt>
      <trkpt lat="59.174359" lon="18.051629">
        <ele>31.2</ele>
        <time>2014-10-11T10:28:47Z</time>
      </trkpt>
      <trkpt lat="59.174338" lon="18.051758">
        <ele>31.5</ele>
        <time>2014-10-11T10:28:48Z</time>
      </trkpt>
      <trkpt lat="59.174312" lon="18.051896">
        <ele>31.6</ele>
        <time>2014-10-11T10:28:49Z</time>
      </trkpt>
      <trkpt lat="59.174295" lon="18.05202">
        <ele>31.8</ele>
        <time>2014-10-11T10:28:50Z</time>
      </trkpt>
      <trkpt lat="59.174268" lon="18.052165">
        <ele>32.1</ele>
        <time>2014-10-11T10:28:51Z</time>
      </trkpt>
      <trkpt lat="59.174253" lon="18.052318">
        <ele>32.5</ele>
        <time>2014-10-11T10:28:52Z</time>
      </trkpt>
      <trkpt lat="59.174243" lon="18.052475">
        <ele>32.9</ele>
        <time>2014-10-11T10:28:53Z</time>
      </trkpt>
      <trkpt lat="59.174238" lon="18.052651">
        <ele>33.5</ele>
        <time>2014-10-11T10:28:54Z</time>
      </trkpt>
      <trkpt lat="59.174235" lon="18.052806">
        <ele>33.9</ele>
        <time>2014-10-11T10:28:55Z</time>
      </trkpt>
      <trkpt lat="59.174237" lon="18.052968">
        <ele>34.5</ele>
        <time>2014-10-11T10:28:56Z</time>
      </trkpt>
      <trkpt lat="59.174229" lon="18.053133">
        <ele>35.2</ele>
        <time>2014-10-11T10:28:57Z</time>
      </trkpt>
      <trkpt lat="59.174237" lon="18.053281">
        <ele>35.8</ele>
        <time>2014-10-11T10:28:58Z</time>
      </trkpt>
      <trkpt lat="59.174251" lon="18.05345">
        <ele>36.4</ele>
        <time>2014-10-11T10:28:59Z</time>
      </trkpt>
      <trkpt lat="59.174265" lon="18.053618">
        <ele>36.9</ele>
        <time>2014-10-11T10:29:00Z</time>
      </trkpt>
      <trkpt lat="59.174273" lon="18.053764">
        <ele>37.4</ele>
        <time>2014-10-11T10:29:01Z</time>
      </trkpt>
      <trkpt lat="59.174289" lon="18.053943">
        <ele>37.3</ele>
        <time>2014-10-11T10:29:02Z</time>
      </trkpt>
      <trkpt lat="59.174302" lon="18.054097">
        <ele>37.3</ele>
        <time>2014-10-11T10:29:03Z</time>
      </trkpt>
      <trkpt lat="59.174312" lon="18.054259">
        <ele>37.3</ele>
        <time>2014-10-11T10:29:04Z</time>
      </trkpt>
      <trkpt lat="59.17433" lon="18.054432">
        <ele>37.2</ele>
        <time>2014-10-11T10:29:05Z</time>
      </trkpt>
      <trkpt lat="59.174342" lon="18.054575">
        <ele>37.2</ele>
        <time>2014-10-11T10:29:06Z</time>
      </trkpt>
      <trkpt lat="59.17436" lon="18.054732">
        <ele>37.1</ele>
        <time>2014-10-11T10:29:07Z</time>
      </trkpt>
      <trkpt lat="59.174371" lon="18.054883">
        <ele>37.1</ele>
        <time>2014-10-11T10:29:08Z</time>
      </trkpt>
      <trkpt lat="59.174383" lon="18.055038">
        <ele>37</ele>
        <time>2014-10-11T10:29:09Z</time>
      </trkpt>
      <trkpt lat="59.174391" lon="18.055216">
        <ele>37.1</ele>
        <time>2014-10-11T10:29:10Z</time>
      </trkpt>
      <trkpt lat="59.174399" lon="18.055369">
        <ele>37.1</ele>
        <time>2014-10-11T10:29:11Z</time>
      </trkpt>
      <trkpt lat="59.174402" lon="18.055534">
        <ele>37.1</ele>
        <time>2014-10-11T10:29:12Z</time>
      </trkpt>
      <trkpt lat="59.174404" lon="18.055705">
        <ele>37.1</ele>
        <time>2014-10-11T10:29:13Z</time>
      </trkpt>
      <trkpt lat="59.174393" lon="18.05586">
        <ele>37.3</ele>
        <time>2014-10-11T10:29:14Z</time>
      </trkpt>
      <trkpt lat="59.174385" lon="18.056018">
        <ele>37.5</ele>
        <time>2014-10-11T10:29:15Z</time>
      </trkpt>
      <trkpt lat="59.174367" lon="18.056194">
        <ele>37.9</ele>
        <time>2014-10-11T10:29:16Z</time>
      </trkpt>
      <trkpt lat="59.174347" lon="18.056329">
        <ele>38.3</ele>
        <time>2014-10-11T10:29:17Z</time>
      </trkpt>
      <trkpt lat="59.174324" lon="18.056482">
        <ele>38.9</ele>
        <time>2014-10-11T10:29:18Z</time>
      </trkpt>
      <trkpt lat="59.174297" lon="18.056599">
        <ele>39.6</ele>
        <time>2014-10-11T10:29:19Z</time>
      </trkpt>
      <trkpt lat="59.174263" lon="18.056733">
        <ele>40.3</ele>
        <time>2014-10-11T10:29:20Z</time>
      </trkpt>
      <trkpt lat="59.174236" lon="18.056864">
        <ele>41</ele>
        <time>2014-10-11T10:29:21Z</time>
      </trkpt>
      <trkpt lat="59.174215" lon="18.056968">
        <ele>41.5</ele>
        <time>2014-10-11T10:29:22Z</time>
      </trkpt>
      <trkpt lat="59.174197" lon="18.057079">
        <ele>41.9</ele>
        <time>2014-10-11T10:29:23Z</time>
      </trkpt>
      <trkpt lat="59.174184" lon="18.057184">
        <ele>42.3</ele>
        <time>2014-10-11T10:29:24Z</time>
      </trkpt>
      <trkpt lat="59.174163" lon="18.057303">
        <ele>42.8</ele>
        <time>2014-10-11T10:29:25Z</time>
      </trkpt>
      <trkpt lat="59.174148" lon="18.057427">
        <ele>43.2</ele>
        <time>2014-10-11T10:29:26Z</time>
      </trkpt>
      <trkpt lat="59.174137" lon="18.057538">
        <ele>43.5</ele>
        <time>2014-10-11T10:29:27Z</time>
      </trkpt>
      <trkpt lat="59.17412" lon="18.057662">
        <ele>44</ele>
        <time>2014-10-11T10:29:28Z</time>
      </trkpt>
      <trkpt lat="59.174107" lon="18.057791">
        <ele>44.3</ele>
        <time>2014-10-11T10:29:29Z</time>
      </trkpt>
      <trkpt lat="59.174092" lon="18.057902">
        <ele>44.7</ele>
        <time>2014-10-11T10:29:30Z</time>
      </trkpt>
      <trkpt lat="59.174079" lon="18.058023">
        <ele>45</ele>
        <time>2014-10-11T10:29:31Z</time>
      </trkpt>
      <trkpt lat="59.174062" lon="18.058157">
        <ele>45.3</ele>
        <time>2014-10-11T10:29:32Z</time>
      </trkpt>
      <trkpt lat="59.174052" lon="18.058259">
        <ele>45.6</ele>
        <time>2014-10-11T10:29:33Z</time>
      </trkpt>
      <trkpt lat="59.174028" lon="18.058384">
        <ele>46</ele>
        <time>2014-10-11T10:29:34Z</time>
      </trkpt>
      <trkpt lat="59.174016" lon="18.058482">
        <ele>46.3</ele>
        <time>2014-10-11T10:29:35Z</time>
      </trkpt>
      <trkpt lat="59.174001" lon="18.058589">
        <ele>46.6</ele>
        <time>2014-10-11T10:29:36Z</time>
      </trkpt>
      <trkpt lat="59.173991" lon="18.058701">
        <ele>46.8</ele>
        <time>2014-10-11T10:29:37Z</time>
      </trkpt>
      <trkpt lat="59.173978" lon="18.058801">
        <ele>46.8</ele>
        <time>2014-10-11T10:29:38Z</time>
      </trkpt>
      <trkpt lat="59.173971" lon="18.058907">
        <ele>46.3</ele>
        <time>2014-10-11T10:29:39Z</time>
      </trkpt>
      <trkpt lat="59.173966" lon="18.059019">
        <ele>45.9</ele>
        <time>2014-10-11T10:29:40Z</time>
      </trkpt>
      <trkpt lat="59.173962" lon="18.059136">
        <ele>45.4</ele>
        <time>2014-10-11T10:29:41Z</time>
      </trkpt>
      <trkpt lat="59.17395" lon="18.059261">
        <ele>44.9</ele>
        <time>2014-10-11T10:29:42Z</time>
      </trkpt>
      <trkpt lat="59.17394" lon="18.059371">
        <ele>44.4</ele>
        <time>2014-10-11T10:29:43Z</time>
      </trkpt>
      <trkpt lat="59.173936" lon="18.059481">
        <ele>43.9</ele>
        <time>2014-10-11T10:29:44Z</time>
      </trkpt>
      <trkpt lat="59.173927" lon="18.059607">
        <ele>43.4</ele>
        <time>2014-10-11T10:29:45Z</time>
      </trkpt>
      <trkpt lat="59.173918" lon="18.059719">
        <ele>42.9</ele>
        <time>2014-10-11T10:29:46Z</time>
      </trkpt>
      <trkpt lat="59.173908" lon="18.059851">
        <ele>42.3</ele>
        <time>2014-10-11T10:29:47Z</time>
      </trkpt>
      <trkpt lat="59.173894" lon="18.059985">
        <ele>41.7</ele>
        <time>2014-10-11T10:29:48Z</time>
      </trkpt>
      <trkpt lat="59.173879" lon="18.060104">
        <ele>41.2</ele>
        <time>2014-10-11T10:29:49Z</time>
      </trkpt>
      <trkpt lat="59.173862" lon="18.060234">
        <ele>40.6</ele>
        <time>2014-10-11T10:29:50Z</time>
      </trkpt>
      <trkpt lat="59.173844" lon="18.060344">
        <ele>40.1</ele>
        <time>2014-10-11T10:29:51Z</time>
      </trkpt>
      <trkpt lat="59.173824" lon="18.060461">
        <ele>39.6</ele>
        <time>2014-10-11T10:29:52Z</time>
      </trkpt>
      <trkpt lat="59.173799" lon="18.060582">
        <ele>39.4</ele>
        <time>2014-10-11T10:29:53Z</time>
      </trkpt>
      <trkpt lat="59.17378" lon="18.060696">
        <ele>39.2</ele>
        <time>2014-10-11T10:29:54Z</time>
      </trkpt>
      <trkpt lat="59.173757" lon="18.060811">
        <ele>39</ele>
        <time>2014-10-11T10:29:55Z</time>
      </trkpt>
      <trkpt lat="59.173728" lon="18.060931">
        <ele>38.8</ele>
        <time>2014-10-11T10:29:56Z</time>
      </trkpt>
      <trkpt lat="59.173705" lon="18.061042">
        <ele>38.6</ele>
        <time>2014-10-11T10:29:57Z</time>
      </trkpt>
      <trkpt lat="59.173669" lon="18.061159">
        <ele>38.3</ele>
        <time>2014-10-11T10:29:58Z</time>
      </trkpt>
      <trkpt lat="59.173643" lon="18.061256">
        <ele>38.1</ele>
        <time>2014-10-11T10:29:59Z</time>
      </trkpt>
      <trkpt lat="59.173619" lon="18.061367">
        <ele>37.7</ele>
        <time>2014-10-11T10:30:00Z</time>
      </trkpt>
      <trkpt lat="59.173604" lon="18.061484">
        <ele>37.3</ele>
        <time>2014-10-11T10:30:01Z</time>
      </trkpt>
      <trkpt lat="59.173593" lon="18.0616">
        <ele>36.9</ele>
        <time>2014-10-11T10:30:02Z</time>
      </trkpt>
      <trkpt lat="59.173575" lon="18.061724">
        <ele>36.5</ele>
        <time>2014-10-11T10:30:03Z</time>
      </trkpt>
      <trkpt lat="59.173571" lon="18.06187">
        <ele>36</ele>
        <time>2014-10-11T10:30:04Z</time>
      </trkpt>
      <trkpt lat="59.173567" lon="18.062004">
        <ele>35.5</ele>
        <time>2014-10-11T10:30:05Z</time>
      </trkpt>
      <trkpt lat="59.173556" lon="18.06217">
        <ele>35.1</ele>
        <time>2014-10-11T10:30:06Z</time>
      </trkpt>
      <trkpt lat="59.173524" lon="18.062314">
        <ele>34.9</ele>
        <time>2014-10-11T10:30:07Z</time>
      </trkpt>
      <trkpt lat="59.173467" lon="18.062457">
        <ele>34.7</ele>
        <time>2014-10-11T10:30:08Z</time>
      </trkpt>
      <trkpt lat="59.173396" lon="18.062579">
        <ele>34.6</ele>
        <time>2014-10-11T10:30:09Z</time>
      </trkpt>
      <trkpt lat="59.173345" lon="18.062691">
        <ele>34.4</ele>
        <time>2014-10-11T10:30:10Z</time>
      </trkpt>
      <trkpt lat="59.173291" lon="18.06282">
        <ele>34.2</ele>
        <time>2014-10-11T10:30:11Z</time>
      </trkpt>
      <trkpt lat="59.173254" lon="18.062958">
        <ele>33.9</ele>
        <time>2014-10-11T10:30:12Z</time>
      </trkpt>
      <trkpt lat="59.173218" lon="18.063106">
        <ele>33.6</ele>
        <time>2014-10-11T10:30:13Z</time>
      </trkpt>
      <trkpt lat="59.173184" lon="18.063254">
        <ele>33.3</ele>
        <time>2014-10-11T10:30:14Z</time>
      </trkpt>
      <trkpt lat="59.173148" lon="18.063392">
        <ele>33</ele>
        <time>2014-10-11T10:30:15Z</time>
      </trkpt>
      <trkpt lat="59.173103" lon="18.063542">
        <ele>32.7</ele>
        <time>2014-10-11T10:30:16Z</time>
      </trkpt>
      <trkpt lat="59.173064" lon="18.063698">
        <ele>32.3</ele>
        <time>2014-10-11T10:30:17Z</time>
      </trkpt>
      <trkpt lat="59.173038" lon="18.063827">
        <ele>32.1</ele>
        <time>2014-10-11T10:30:18Z</time>
      </trkpt>
      <trkpt lat="59.173007" lon="18.06396">
        <ele>32.1</ele>
        <time>2014-10-11T10:30:19Z</time>
      </trkpt>
      <trkpt lat="59.172973" lon="18.064105">
        <ele>32</ele>
        <time>2014-10-11T10:30:20Z</time>
      </trkpt>
      <trkpt lat="59.172942" lon="18.064223">
        <ele>32</ele>
        <time>2014-10-11T10:30:21Z</time>
      </trkpt>
      <trkpt lat="59.172904" lon="18.064364">
        <ele>32.1</ele>
        <time>2014-10-11T10:30:22Z</time>
      </trkpt>
      <trkpt lat="59.172871" lon="18.064487">
        <ele>32.6</ele>
        <time>2014-10-11T10:30:23Z</time>
      </trkpt>
      <trkpt lat="59.172842" lon="18.064625">
        <ele>33</ele>
        <time>2014-10-11T10:30:24Z</time>
      </trkpt>
      <trkpt lat="59.172809" lon="18.064759">
        <ele>33.4</ele>
        <time>2014-10-11T10:30:25Z</time>
      </trkpt>
      <trkpt lat="59.172782" lon="18.064891">
        <ele>33.9</ele>
        <time>2014-10-11T10:30:26Z</time>
      </trkpt>
      <trkpt lat="59.172752" lon="18.06503">
        <ele>34.5</ele>
        <time>2014-10-11T10:30:27Z</time>
      </trkpt>
      <trkpt lat="59.172721" lon="18.065169">
        <ele>35.2</ele>
        <time>2014-10-11T10:30:28Z</time>
      </trkpt>
      <trkpt lat="59.172687" lon="18.065297">
        <ele>36.1</ele>
        <time>2014-10-11T10:30:29Z</time>
      </trkpt>
      <trkpt lat="59.17265" lon="18.065439">
        <ele>37.1</ele>
        <time>2014-10-11T10:30:30Z</time>
      </trkpt>
      <trkpt lat="59.172616" lon="18.065562">
        <ele>37.9</ele>
        <time>2014-10-11T10:30:31Z</time>
      </trkpt>
      <trkpt lat="59.172582" lon="18.065699">
        <ele>38.6</ele>
        <time>2014-10-11T10:30:32Z</time>
      </trkpt>
      <trkpt lat="59.172551" lon="18.06584">
        <ele>39.3</ele>
        <time>2014-10-11T10:30:33Z</time>
      </trkpt>
      <trkpt lat="59.172512" lon="18.065976">
        <ele>40.2</ele>
        <time>2014-10-11T10:30:34Z</time>
      </trkpt>
      <trkpt lat="59.172481" lon="18.066106">
        <ele>40.9</ele>
        <time>2014-10-11T10:30:35Z</time>
      </trkpt>
      <trkpt lat="59.172445" lon="18.066248">
        <ele>41.8</ele>
        <time>2014-10-11T10:30:36Z</time>
      </trkpt>
      <trkpt lat="59.172412" lon="18.066379">
        <ele>42.5</ele>
        <time>2014-10-11T10:30:37Z</time>
      </trkpt>
      <trkpt lat="59.172384" lon="18.066518">
        <ele>43.2</ele>
        <time>2014-10-11T10:30:38Z</time>
      </trkpt>
      <trkpt lat="59.172349" lon="18.066636">
        <ele>44.1</ele>
        <time>2014-10-11T10:30:39Z</time>
      </trkpt>
      <trkpt lat="59.172324" lon="18.066761">
        <ele>44.8</ele>
        <time>2014-10-11T10:30:40Z</time>
      </trkpt>
      <trkpt lat="59.1723" lon="18.066882">
        <ele>45.4</ele>
        <time>2014-10-11T10:30:41Z</time>
      </trkpt>
      <trkpt lat="59.172275" lon="18.067016">
        <ele>46.1</ele>
        <time>2014-10-11T10:30:42Z</time>
      </trkpt>
      <trkpt lat="59.172264" lon="18.067141">
        <ele>46.1</ele>
        <time>2014-10-11T10:30:43Z</time>
      </trkpt>
      <trkpt lat="59.172266" lon="18.067248">
        <ele>45.5</ele>
        <time>2014-10-11T10:30:44Z</time>
      </trkpt>
      <trkpt lat="59.172258" lon="18.067358">
        <ele>45</ele>
        <time>2014-10-11T10:30:45Z</time>
      </trkpt>
      <trkpt lat="59.172235" lon="18.067445">
        <ele>45</ele>
        <time>2014-10-11T10:30:46Z</time>
      </trkpt>
      <trkpt lat="59.172206" lon="18.067505">
        <ele>45.3</ele>
        <time>2014-10-11T10:30:47Z</time>
      </trkpt>
      <trkpt lat="59.172179" lon="18.067532">
        <ele>45.7</ele>
        <time>2014-10-11T10:30:48Z</time>
      </trkpt>
      <trkpt lat="59.172142" lon="18.067532">
        <ele>46.5</ele>
        <time>2014-10-11T10:30:49Z</time>
      </trkpt>
      <trkpt lat="59.172092" lon="18.067523">
        <ele>47.6</ele>
        <time>2014-10-11T10:30:51Z</time>
      </trkpt>
      <trkpt lat="59.172054" lon="18.067492">
        <ele>48.4</ele>
        <time>2014-10-11T10:30:53Z</time>
      </trkpt>
      <trkpt lat="59.172028" lon="18.067466">
        <ele>48.9</ele>
        <time>2014-10-11T10:30:55Z</time>
      </trkpt>
      <trkpt lat="59.171997" lon="18.067443">
        <ele>49.5</ele>
        <time>2014-10-11T10:30:57Z</time>
      </trkpt>
      <trkpt lat="59.171947" lon="18.067446">
        <ele>50</ele>
        <time>2014-10-11T10:30:59Z</time>
      </trkpt>
      <trkpt lat="59.171915" lon="18.067467">
        <ele>50.3</ele>
        <time>2014-10-11T10:31:00Z</time>
      </trkpt>
      <trkpt lat="59.17188" lon="18.067514">
        <ele>50.3</ele>
        <time>2014-10-11T10:31:01Z</time>
      </trkpt>
      <trkpt lat="59.17184" lon="18.067649">
        <ele>49.7</ele>
        <time>2014-10-11T10:31:02Z</time>
      </trkpt>
      <trkpt lat="59.171816" lon="18.067764">
        <ele>49.1</ele>
        <time>2014-10-11T10:31:03Z</time>
      </trkpt>
      <trkpt lat="59.171791" lon="18.067861">
        <ele>48.6</ele>
        <time>2014-10-11T10:31:04Z</time>
      </trkpt>
      <trkpt lat="59.171754" lon="18.067966">
        <ele>48.1</ele>
        <time>2014-10-11T10:31:05Z</time>
      </trkpt>
      <trkpt lat="59.171731" lon="18.068064">
        <ele>47.4</ele>
        <time>2014-10-11T10:31:06Z</time>
      </trkpt>
      <trkpt lat="59.171706" lon="18.068171">
        <ele>46.7</ele>
        <time>2014-10-11T10:31:07Z</time>
      </trkpt>
      <trkpt lat="59.171691" lon="18.068292">
        <ele>45.7</ele>
        <time>2014-10-11T10:31:08Z</time>
      </trkpt>
      <trkpt lat="59.171676" lon="18.068386">
        <ele>44.9</ele>
        <time>2014-10-11T10:31:09Z</time>
      </trkpt>
      <trkpt lat="59.171651" lon="18.068493">
        <ele>44.1</ele>
        <time>2014-10-11T10:31:10Z</time>
      </trkpt>
      <trkpt lat="59.171624" lon="18.068606">
        <ele>43.3</ele>
        <time>2014-10-11T10:31:11Z</time>
      </trkpt>
      <trkpt lat="59.171595" lon="18.068682">
        <ele>42.8</ele>
        <time>2014-10-11T10:31:12Z</time>
      </trkpt>
      <trkpt lat="59.171565" lon="18.068805">
        <ele>42.4</ele>
        <time>2014-10-11T10:31:13Z</time>
      </trkpt>
      <trkpt lat="59.17154" lon="18.068911">
        <ele>42.6</ele>
        <time>2014-10-11T10:31:14Z</time>
      </trkpt>
      <trkpt lat="59.171515" lon="18.069028">
        <ele>42.8</ele>
        <time>2014-10-11T10:31:15Z</time>
      </trkpt>
      <trkpt lat="59.171486" lon="18.069133">
        <ele>43</ele>
        <time>2014-10-11T10:31:16Z</time>
      </trkpt>
      <trkpt lat="59.171459" lon="18.06925">
        <ele>43.2</ele>
        <time>2014-10-11T10:31:17Z</time>
      </trkpt>
      <trkpt lat="59.171439" lon="18.069378">
        <ele>43.4</ele>
        <time>2014-10-11T10:31:18Z</time>
      </trkpt>
      <trkpt lat="59.171423" lon="18.069496">
        <ele>43.5</ele>
        <time>2014-10-11T10:31:19Z</time>
      </trkpt>
      <trkpt lat="59.171404" lon="18.069627">
        <ele>43.7</ele>
        <time>2014-10-11T10:31:20Z</time>
      </trkpt>
      <trkpt lat="59.171386" lon="18.069763">
        <ele>43.6</ele>
        <time>2014-10-11T10:31:21Z</time>
      </trkpt>
      <trkpt lat="59.171364" lon="18.069874">
        <ele>43.7</ele>
        <time>2014-10-11T10:31:22Z</time>
      </trkpt>
      <trkpt lat="59.171348" lon="18.069986">
        <ele>43.7</ele>
        <time>2014-10-11T10:31:23Z</time>
      </trkpt>
      <trkpt lat="59.171333" lon="18.070106">
        <ele>43.7</ele>
        <time>2014-10-11T10:31:24Z</time>
      </trkpt>
      <trkpt lat="59.171313" lon="18.07022">
        <ele>43.7</ele>
        <time>2014-10-11T10:31:25Z</time>
      </trkpt>
      <trkpt lat="59.171287" lon="18.070344">
        <ele>43.8</ele>
        <time>2014-10-11T10:31:26Z</time>
      </trkpt>
      <trkpt lat="59.171267" lon="18.070456">
        <ele>43.8</ele>
        <time>2014-10-11T10:31:27Z</time>
      </trkpt>
      <trkpt lat="59.171252" lon="18.070579">
        <ele>43.6</ele>
        <time>2014-10-11T10:31:28Z</time>
      </trkpt>
      <trkpt lat="59.171228" lon="18.070714">
        <ele>43.6</ele>
        <time>2014-10-11T10:31:29Z</time>
      </trkpt>
      <trkpt lat="59.171211" lon="18.070823">
        <ele>43.5</ele>
        <time>2014-10-11T10:31:30Z</time>
      </trkpt>
      <trkpt lat="59.171197" lon="18.070958">
        <ele>43.4</ele>
        <time>2014-10-11T10:31:31Z</time>
      </trkpt>
      <trkpt lat="59.171176" lon="18.071083">
        <ele>43.4</ele>
        <time>2014-10-11T10:31:32Z</time>
      </trkpt>
      <trkpt lat="59.171158" lon="18.07121">
        <ele>43.3</ele>
        <time>2014-10-11T10:31:33Z</time>
      </trkpt>
      <trkpt lat="59.171142" lon="18.071348">
        <ele>43.2</ele>
        <time>2014-10-11T10:31:34Z</time>
      </trkpt>
      <trkpt lat="59.171132" lon="18.071457">
        <ele>43.1</ele>
        <time>2014-10-11T10:31:35Z</time>
      </trkpt>
      <trkpt lat="59.171115" lon="18.07159">
        <ele>43</ele>
        <time>2014-10-11T10:31:36Z</time>
      </trkpt>
      <trkpt lat="59.171094" lon="18.071715">
        <ele>43</ele>
        <time>2014-10-11T10:31:37Z</time>
      </trkpt>
      <trkpt lat="59.17108" lon="18.071842">
        <ele>43</ele>
        <time>2014-10-11T10:31:38Z</time>
      </trkpt>
      <trkpt lat="59.171062" lon="18.071969">
        <ele>43</ele>
        <time>2014-10-11T10:31:39Z</time>
      </trkpt>
      <trkpt lat="59.17105" lon="18.0721">
        <ele>42.8</ele>
        <time>2014-10-11T10:31:40Z</time>
      </trkpt>
      <trkpt lat="59.171041" lon="18.072218">
        <ele>42.7</ele>
        <time>2014-10-11T10:31:41Z</time>
      </trkpt>
      <trkpt lat="59.171037" lon="18.072339">
        <ele>42.5</ele>
        <time>2014-10-11T10:31:42Z</time>
      </trkpt>
      <trkpt lat="59.171026" lon="18.07246">
        <ele>42.4</ele>
        <time>2014-10-11T10:31:43Z</time>
      </trkpt>
      <trkpt lat="59.171026" lon="18.072594">
        <ele>42.1</ele>
        <time>2014-10-11T10:31:44Z</time>
      </trkpt>
      <trkpt lat="59.171011" lon="18.072711">
        <ele>42</ele>
        <time>2014-10-11T10:31:45Z</time>
      </trkpt>
      <trkpt lat="59.171001" lon="18.072846">
        <ele>41.9</ele>
        <time>2014-10-11T10:31:46Z</time>
      </trkpt>
      <trkpt lat="59.170992" lon="18.072977">
        <ele>41.6</ele>
        <time>2014-10-11T10:31:47Z</time>
      </trkpt>
      <trkpt lat="59.170991" lon="18.073109">
        <ele>41.4</ele>
        <time>2014-10-11T10:31:48Z</time>
      </trkpt>
      <trkpt lat="59.170985" lon="18.073243">
        <ele>41.1</ele>
        <time>2014-10-11T10:31:49Z</time>
      </trkpt>
      <trkpt lat="59.170984" lon="18.073378">
        <ele>40.8</ele>
        <time>2014-10-11T10:31:50Z</time>
      </trkpt>
      <trkpt lat="59.170981" lon="18.073517">
        <ele>40.5</ele>
        <time>2014-10-11T10:31:51Z</time>
      </trkpt>
      <trkpt lat="59.17098" lon="18.073659">
        <ele>40.2</ele>
        <time>2014-10-11T10:31:52Z</time>
      </trkpt>
      <trkpt lat="59.170973" lon="18.073799">
        <ele>39.9</ele>
        <time>2014-10-11T10:31:53Z</time>
      </trkpt>
      <trkpt lat="59.170973" lon="18.073931">
        <ele>39.7</ele>
        <time>2014-10-11T10:31:54Z</time>
      </trkpt>
      <trkpt lat="59.170979" lon="18.074065">
        <ele>39.5</ele>
        <time>2014-10-11T10:31:55Z</time>
      </trkpt>
      <trkpt lat="59.170984" lon="18.074186">
        <ele>39.2</ele>
        <time>2014-10-11T10:31:56Z</time>
      </trkpt>
      <trkpt lat="59.170986" lon="18.074319">
        <ele>39</ele>
        <time>2014-10-11T10:31:57Z</time>
      </trkpt>
      <trkpt lat="59.170986" lon="18.074458">
        <ele>38.8</ele>
        <time>2014-10-11T10:31:58Z</time>
      </trkpt>
      <trkpt lat="59.17099" lon="18.074604">
        <ele>38.5</ele>
        <time>2014-10-11T10:31:59Z</time>
      </trkpt>
      <trkpt lat="59.170993" lon="18.074742">
        <ele>38.3</ele>
        <time>2014-10-11T10:32:00Z</time>
      </trkpt>
      <trkpt lat="59.171007" lon="18.074885">
        <ele>38</ele>
        <time>2014-10-11T10:32:01Z</time>
      </trkpt>
      <trkpt lat="59.17102" lon="18.075019">
        <ele>37.7</ele>
        <time>2014-10-11T10:32:02Z</time>
      </trkpt>
      <trkpt lat="59.171019" lon="18.075154">
        <ele>37.5</ele>
        <time>2014-10-11T10:32:03Z</time>
      </trkpt>
      <trkpt lat="59.171021" lon="18.075284">
        <ele>37.3</ele>
        <time>2014-10-11T10:32:04Z</time>
      </trkpt>
      <trkpt lat="59.171024" lon="18.075441">
        <ele>37.2</ele>
        <time>2014-10-11T10:32:05Z</time>
      </trkpt>
      <trkpt lat="59.171037" lon="18.075583">
        <ele>37.6</ele>
        <time>2014-10-11T10:32:06Z</time>
      </trkpt>
      <trkpt lat="59.171049" lon="18.075723">
        <ele>38</ele>
        <time>2014-10-11T10:32:07Z</time>
      </trkpt>
      <trkpt lat="59.17106" lon="18.07586">
        <ele>38.3</ele>
        <time>2014-10-11T10:32:08Z</time>
      </trkpt>
      <trkpt lat="59.171075" lon="18.075994">
        <ele>38.7</ele>
        <time>2014-10-11T10:32:09Z</time>
      </trkpt>
      <trkpt lat="59.171092" lon="18.076128">
        <ele>39</ele>
        <time>2014-10-11T10:32:10Z</time>
      </trkpt>
      <trkpt lat="59.171105" lon="18.076268">
        <ele>39.3</ele>
        <time>2014-10-11T10:32:11Z</time>
      </trkpt>
      <trkpt lat="59.171114" lon="18.07643">
        <ele>39.9</ele>
        <time>2014-10-11T10:32:12Z</time>
      </trkpt>
      <trkpt lat="59.171129" lon="18.076555">
        <ele>40.3</ele>
        <time>2014-10-11T10:32:13Z</time>
      </trkpt>
      <trkpt lat="59.171143" lon="18.076696">
        <ele>40.7</ele>
        <time>2014-10-11T10:32:14Z</time>
      </trkpt>
      <trkpt lat="59.171159" lon="18.076818">
        <ele>41</ele>
        <time>2014-10-11T10:32:15Z</time>
      </trkpt>
      <trkpt lat="59.171178" lon="18.076964">
        <ele>41.4</ele>
        <time>2014-10-11T10:32:16Z</time>
      </trkpt>
      <trkpt lat="59.171191" lon="18.077106">
        <ele>41.8</ele>
        <time>2014-10-11T10:32:17Z</time>
      </trkpt>
      <trkpt lat="59.171212" lon="18.077234">
        <ele>42.4</ele>
        <time>2014-10-11T10:32:18Z</time>
      </trkpt>
      <trkpt lat="59.171234" lon="18.077391">
        <ele>43.1</ele>
        <time>2014-10-11T10:32:19Z</time>
      </trkpt>
      <trkpt lat="59.171247" lon="18.077521">
        <ele>43.7</ele>
        <time>2014-10-11T10:32:20Z</time>
      </trkpt>
      <trkpt lat="59.171274" lon="18.077655">
        <ele>44.5</ele>
        <time>2014-10-11T10:32:21Z</time>
      </trkpt>
      <trkpt lat="59.171297" lon="18.077802">
        <ele>45.3</ele>
        <time>2014-10-11T10:32:22Z</time>
      </trkpt>
      <trkpt lat="59.171321" lon="18.077932">
        <ele>46.1</ele>
        <time>2014-10-11T10:32:23Z</time>
      </trkpt>
      <trkpt lat="59.171346" lon="18.078073">
        <ele>46.9</ele>
        <time>2014-10-11T10:32:24Z</time>
      </trkpt>
      <trkpt lat="59.171366" lon="18.078224">
        <ele>47.6</ele>
        <time>2014-10-11T10:32:25Z</time>
      </trkpt>
      <trkpt lat="59.171389" lon="18.078356">
        <ele>48.3</ele>
        <time>2014-10-11T10:32:26Z</time>
      </trkpt>
      <trkpt lat="59.171429" lon="18.078484">
        <ele>48.8</ele>
        <time>2014-10-11T10:32:27Z</time>
      </trkpt>
      <trkpt lat="59.171457" lon="18.078616">
        <ele>49.4</ele>
        <time>2014-10-11T10:32:28Z</time>
      </trkpt>
      <trkpt lat="59.171487" lon="18.078753">
        <ele>49.9</ele>
        <time>2014-10-11T10:32:29Z</time>
      </trkpt>
      <trkpt lat="59.171522" lon="18.078882">
        <ele>49.6</ele>
        <time>2014-10-11T10:32:30Z</time>
      </trkpt>
      <trkpt lat="59.171549" lon="18.079005">
        <ele>49.5</ele>
        <time>2014-10-11T10:32:31Z</time>
      </trkpt>
      <trkpt lat="59.171575" lon="18.079145">
        <ele>49.3</ele>
        <time>2014-10-11T10:32:32Z</time>
      </trkpt>
      <trkpt lat="59.171603" lon="18.079294">
        <ele>49</ele>
        <time>2014-10-11T10:32:33Z</time>
      </trkpt>
      <trkpt lat="59.171631" lon="18.079415">
        <ele>48.8</ele>
        <time>2014-10-11T10:32:34Z</time>
      </trkpt>
      <trkpt lat="59.17166" lon="18.079537">
        <ele>48.6</ele>
        <time>2014-10-11T10:32:35Z</time>
      </trkpt>
      <trkpt lat="59.17169" lon="18.079659">
        <ele>48.3</ele>
        <time>2014-10-11T10:32:36Z</time>
      </trkpt>
      <trkpt lat="59.171722" lon="18.079792">
        <ele>47.9</ele>
        <time>2014-10-11T10:32:37Z</time>
      </trkpt>
      <trkpt lat="59.171759" lon="18.079921">
        <ele>47.5</ele>
        <time>2014-10-11T10:32:38Z</time>
      </trkpt>
      <trkpt lat="59.171791" lon="18.080059">
        <ele>47</ele>
        <time>2014-10-11T10:32:39Z</time>
      </trkpt>
      <trkpt lat="59.171818" lon="18.080181">
        <ele>46.6</ele>
        <time>2014-10-11T10:32:40Z</time>
      </trkpt>
      <trkpt lat="59.171846" lon="18.080303">
        <ele>46.2</ele>
        <time>2014-10-11T10:32:41Z</time>
      </trkpt>
      <trkpt lat="59.171874" lon="18.080439">
        <ele>45.8</ele>
        <time>2014-10-11T10:32:42Z</time>
      </trkpt>
      <trkpt lat="59.171906" lon="18.08057">
        <ele>45.6</ele>
        <time>2014-10-11T10:32:43Z</time>
      </trkpt>
      <trkpt lat="59.171941" lon="18.080692">
        <ele>45.3</ele>
        <time>2014-10-11T10:32:44Z</time>
      </trkpt>
      <trkpt lat="59.17197" lon="18.080816">
        <ele>45.1</ele>
        <time>2014-10-11T10:32:45Z</time>
      </trkpt>
      <trkpt lat="59.171995" lon="18.08096">
        <ele>44.9</ele>
        <time>2014-10-11T10:32:46Z</time>
      </trkpt>
      <trkpt lat="59.172026" lon="18.081098">
        <ele>44.6</ele>
        <time>2014-10-11T10:32:47Z</time>
      </trkpt>
      <trkpt lat="59.172055" lon="18.081215">
        <ele>44.3</ele>
        <time>2014-10-11T10:32:48Z</time>
      </trkpt>
      <trkpt lat="59.172076" lon="18.081343">
        <ele>44</ele>
        <time>2014-10-11T10:32:49Z</time>
      </trkpt>
      <trkpt lat="59.172099" lon="18.081464">
        <ele>43.9</ele>
        <time>2014-10-11T10:32:50Z</time>
      </trkpt>
      <trkpt lat="59.172123" lon="18.081608">
        <ele>43.9</ele>
        <time>2014-10-11T10:32:51Z</time>
      </trkpt>
      <trkpt lat="59.172142" lon="18.081746">
        <ele>43.8</ele>
        <time>2014-10-11T10:32:52Z</time>
      </trkpt>
      <trkpt lat="59.172167" lon="18.081891">
        <ele>43.8</ele>
        <time>2014-10-11T10:32:53Z</time>
      </trkpt>
      <trkpt lat="59.172186" lon="18.082022">
        <ele>43.7</ele>
        <time>2014-10-11T10:32:54Z</time>
      </trkpt>
      <trkpt lat="59.172209" lon="18.082157">
        <ele>44.2</ele>
        <time>2014-10-11T10:32:55Z</time>
      </trkpt>
      <trkpt lat="59.172226" lon="18.082294">
        <ele>45</ele>
        <time>2014-10-11T10:32:56Z</time>
      </trkpt>
      <trkpt lat="59.17224" lon="18.082449">
        <ele>45.8</ele>
        <time>2014-10-11T10:32:57Z</time>
      </trkpt>
      <trkpt lat="59.172256" lon="18.082582">
        <ele>46.5</ele>
        <time>2014-10-11T10:32:58Z</time>
      </trkpt>
      <trkpt lat="59.172261" lon="18.082732">
        <ele>47.2</ele>
        <time>2014-10-11T10:32:59Z</time>
      </trkpt>
      <trkpt lat="59.172272" lon="18.082883">
        <ele>47.9</ele>
        <time>2014-10-11T10:33:00Z</time>
      </trkpt>
      <trkpt lat="59.172283" lon="18.083022">
        <ele>48.5</ele>
        <time>2014-10-11T10:33:01Z</time>
      </trkpt>
      <trkpt lat="59.172279" lon="18.08318">
        <ele>49.3</ele>
        <time>2014-10-11T10:33:02Z</time>
      </trkpt>
      <trkpt lat="59.172286" lon="18.083334">
        <ele>49.9</ele>
        <time>2014-10-11T10:33:03Z</time>
      </trkpt>
      <trkpt lat="59.172294" lon="18.083484">
        <ele>50.5</ele>
        <time>2014-10-11T10:33:04Z</time>
      </trkpt>
      <trkpt lat="59.172294" lon="18.083641">
        <ele>51.2</ele>
        <time>2014-10-11T10:33:05Z</time>
      </trkpt>
      <trkpt lat="59.172301" lon="18.08377">
        <ele>51.7</ele>
        <time>2014-10-11T10:33:06Z</time>
      </trkpt>
      <trkpt lat="59.172303" lon="18.083916">
        <ele>52.3</ele>
        <time>2014-10-11T10:33:07Z</time>
      </trkpt>
      <trkpt lat="59.172302" lon="18.084039">
        <ele>52.9</ele>
        <time>2014-10-11T10:33:08Z</time>
      </trkpt>
      <trkpt lat="59.172324" lon="18.084127">
        <ele>52.9</ele>
        <time>2014-10-11T10:33:09Z</time>
      </trkpt>
      <trkpt lat="59.172322" lon="18.084277">
        <ele>53.6</ele>
        <time>2014-10-11T10:33:10Z</time>
      </trkpt>
      <trkpt lat="59.172323" lon="18.084409">
        <ele>54.2</ele>
        <time>2014-10-11T10:33:11Z</time>
      </trkpt>
      <trkpt lat="59.172317" lon="18.084558">
        <ele>55</ele>
        <time>2014-10-11T10:33:12Z</time>
      </trkpt>
      <trkpt lat="59.172325" lon="18.084678">
        <ele>55.4</ele>
        <time>2014-10-11T10:33:13Z</time>
      </trkpt>
      <trkpt lat="59.172316" lon="18.084846">
        <ele>56.4</ele>
        <time>2014-10-11T10:33:14Z</time>
      </trkpt>
      <trkpt lat="59.172299" lon="18.085027">
        <ele>57.5</ele>
        <time>2014-10-11T10:33:15Z</time>
      </trkpt>
      <trkpt lat="59.172289" lon="18.085181">
        <ele>58.4</ele>
        <time>2014-10-11T10:33:16Z</time>
      </trkpt>
      <trkpt lat="59.17228" lon="18.085319">
        <ele>59.2</ele>
        <time>2014-10-11T10:33:17Z</time>
      </trkpt>
      <trkpt lat="59.172262" lon="18.085485">
        <ele>59.8</ele>
        <time>2014-10-11T10:33:18Z</time>
      </trkpt>
      <trkpt lat="59.172251" lon="18.085616">
        <ele>59.6</ele>
        <time>2014-10-11T10:33:19Z</time>
      </trkpt>
      <trkpt lat="59.172235" lon="18.08576">
        <ele>59.4</ele>
        <time>2014-10-11T10:33:20Z</time>
      </trkpt>
      <trkpt lat="59.172225" lon="18.085888">
        <ele>59.2</ele>
        <time>2014-10-11T10:33:21Z</time>
      </trkpt>
      <trkpt lat="59.172201" lon="18.086047">
        <ele>59.1</ele>
        <time>2014-10-11T10:33:22Z</time>
      </trkpt>
      <trkpt lat="59.172179" lon="18.086197">
        <ele>58.9</ele>
        <time>2014-10-11T10:33:23Z</time>
      </trkpt>
      <trkpt lat="59.172157" lon="18.08633">
        <ele>58.8</ele>
        <time>2014-10-11T10:33:24Z</time>
      </trkpt>
      <trkpt lat="59.172137" lon="18.086461">
        <ele>58.6</ele>
        <time>2014-10-11T10:33:25Z</time>
      </trkpt>
      <trkpt lat="59.172113" lon="18.086612">
        <ele>58.4</ele>
        <time>2014-10-11T10:33:26Z</time>
      </trkpt>
      <trkpt lat="59.17209" lon="18.086728">
        <ele>58.2</ele>
        <time>2014-10-11T10:33:27Z</time>
      </trkpt>
      <trkpt lat="59.172064" lon="18.086871">
        <ele>57.9</ele>
        <time>2014-10-11T10:33:28Z</time>
      </trkpt>
      <trkpt lat="59.17204" lon="18.087004">
        <ele>57.6</ele>
        <time>2014-10-11T10:33:29Z</time>
      </trkpt>
      <trkpt lat="59.172005" lon="18.087149">
        <ele>57.4</ele>
        <time>2014-10-11T10:33:30Z</time>
      </trkpt>
      <trkpt lat="59.171968" lon="18.087313">
        <ele>57</ele>
        <time>2014-10-11T10:33:31Z</time>
      </trkpt>
      <trkpt lat="59.171934" lon="18.08744">
        <ele>56.8</ele>
        <time>2014-10-11T10:33:32Z</time>
      </trkpt>
      <trkpt lat="59.171908" lon="18.087558">
        <ele>56.7</ele>
        <time>2014-10-11T10:33:33Z</time>
      </trkpt>
      <trkpt lat="59.171867" lon="18.087717">
        <ele>56.6</ele>
        <time>2014-10-11T10:33:34Z</time>
      </trkpt>
      <trkpt lat="59.171826" lon="18.087851">
        <ele>56.6</ele>
        <time>2014-10-11T10:33:35Z</time>
      </trkpt>
      <trkpt lat="59.171785" lon="18.087991">
        <ele>56.7</ele>
        <time>2014-10-11T10:33:36Z</time>
      </trkpt>
      <trkpt lat="59.171745" lon="18.088125">
        <ele>56.9</ele>
        <time>2014-10-11T10:33:37Z</time>
      </trkpt>
      <trkpt lat="59.171706" lon="18.088259">
        <ele>57.1</ele>
        <time>2014-10-11T10:33:38Z</time>
      </trkpt>
      <trkpt lat="59.171654" lon="18.088404">
        <ele>57.5</ele>
        <time>2014-10-11T10:33:39Z</time>
      </trkpt>
      <trkpt lat="59.171616" lon="18.088526">
        <ele>57.9</ele>
        <time>2014-10-11T10:33:40Z</time>
      </trkpt>
      <trkpt lat="59.171574" lon="18.088654">
        <ele>58.3</ele>
        <time>2014-10-11T10:33:41Z</time>
      </trkpt>
      <trkpt lat="59.171517" lon="18.088791">
        <ele>59</ele>
        <time>2014-10-11T10:33:42Z</time>
      </trkpt>
      <trkpt lat="59.171315" lon="18.089275">
        <ele>59.9</ele>
        <time>2014-10-11T10:33:46Z</time>
      </trkpt>
      <trkpt lat="59.171264" lon="18.089402">
        <ele>59.9</ele>
        <time>2014-10-11T10:33:47Z</time>
      </trkpt>
      <trkpt lat="59.171193" lon="18.089531">
        <ele>59.8</ele>
        <time>2014-10-11T10:33:48Z</time>
      </trkpt>
      <trkpt lat="59.171131" lon="18.089645">
        <ele>59.6</ele>
        <time>2014-10-11T10:33:49Z</time>
      </trkpt>
      <trkpt lat="59.171057" lon="18.089752">
        <ele>59.7</ele>
        <time>2014-10-11T10:33:50Z</time>
      </trkpt>
      <trkpt lat="59.170985" lon="18.089851">
        <ele>59.7</ele>
        <time>2014-10-11T10:33:51Z</time>
      </trkpt>
      <trkpt lat="59.17092" lon="18.089965">
        <ele>59.7</ele>
        <time>2014-10-11T10:33:52Z</time>
      </trkpt>
      <trkpt lat="59.170851" lon="18.090079">
        <ele>59.7</ele>
        <time>2014-10-11T10:33:53Z</time>
      </trkpt>
      <trkpt lat="59.170787" lon="18.090184">
        <ele>59.7</ele>
        <time>2014-10-11T10:33:54Z</time>
      </trkpt>
      <trkpt lat="59.170717" lon="18.090307">
        <ele>59.7</ele>
        <time>2014-10-11T10:33:55Z</time>
      </trkpt>
      <trkpt lat="59.170659" lon="18.09039">
        <ele>59.8</ele>
        <time>2014-10-11T10:33:56Z</time>
      </trkpt>
      <trkpt lat="59.170593" lon="18.09048">
        <ele>60</ele>
        <time>2014-10-11T10:33:57Z</time>
      </trkpt>
      <trkpt lat="59.170516" lon="18.090571">
        <ele>60.3</ele>
        <time>2014-10-11T10:33:58Z</time>
      </trkpt>
      <trkpt lat="59.170449" lon="18.090667">
        <ele>60.3</ele>
        <time>2014-10-11T10:33:59Z</time>
      </trkpt>
      <trkpt lat="59.17038" lon="18.090748">
        <ele>60.2</ele>
        <time>2014-10-11T10:34:00Z</time>
      </trkpt>
      <trkpt lat="59.170308" lon="18.090831">
        <ele>60.2</ele>
        <time>2014-10-11T10:34:01Z</time>
      </trkpt>
      <trkpt lat="59.17025" lon="18.090878">
        <ele>60.3</ele>
        <time>2014-10-11T10:34:02Z</time>
      </trkpt>
      <trkpt lat="59.170178" lon="18.090964">
        <ele>60.3</ele>
        <time>2014-10-11T10:34:03Z</time>
      </trkpt>
      <trkpt lat="59.170105" lon="18.091041">
        <ele>60.4</ele>
        <time>2014-10-11T10:34:04Z</time>
      </trkpt>
      <trkpt lat="59.170042" lon="18.091115">
        <ele>60.4</ele>
        <time>2014-10-11T10:34:05Z</time>
      </trkpt>
      <trkpt lat="59.169969" lon="18.091203">
        <ele>60.5</ele>
        <time>2014-10-11T10:34:06Z</time>
      </trkpt>
      <trkpt lat="59.169908" lon="18.091263">
        <ele>60.6</ele>
        <time>2014-10-11T10:34:07Z</time>
      </trkpt>
      <trkpt lat="59.16984" lon="18.091334">
        <ele>60.6</ele>
        <time>2014-10-11T10:34:08Z</time>
      </trkpt>
      <trkpt lat="59.169766" lon="18.091419">
        <ele>60.6</ele>
        <time>2014-10-11T10:34:09Z</time>
      </trkpt>
      <trkpt lat="59.169703" lon="18.091496">
        <ele>60.6</ele>
        <time>2014-10-11T10:34:10Z</time>
      </trkpt>
      <trkpt lat="59.169627" lon="18.091579">
        <ele>60.7</ele>
        <time>2014-10-11T10:34:11Z</time>
      </trkpt>
      <trkpt lat="59.169567" lon="18.091652">
        <ele>60.7</ele>
        <time>2014-10-11T10:34:12Z</time>
      </trkpt>
      <trkpt lat="59.169502" lon="18.091727">
        <ele>60.8</ele>
        <time>2014-10-11T10:34:13Z</time>
      </trkpt>
      <trkpt lat="59.169432" lon="18.0918">
        <ele>61</ele>
        <time>2014-10-11T10:34:14Z</time>
      </trkpt>
      <trkpt lat="59.169367" lon="18.091858">
        <ele>61.3</ele>
        <time>2014-10-11T10:34:15Z</time>
      </trkpt>
      <trkpt lat="59.169299" lon="18.091935">
        <ele>61.5</ele>
        <time>2014-10-11T10:34:16Z</time>
      </trkpt>
      <trkpt lat="59.169231" lon="18.091997">
        <ele>61.8</ele>
        <time>2014-10-11T10:34:17Z</time>
      </trkpt>
      <trkpt lat="59.169171" lon="18.092068">
        <ele>62</ele>
        <time>2014-10-11T10:34:18Z</time>
      </trkpt>
      <trkpt lat="59.169091" lon="18.092161">
        <ele>62.5</ele>
        <time>2014-10-11T10:34:19Z</time>
      </trkpt>
      <trkpt lat="59.169024" lon="18.092237">
        <ele>62.8</ele>
        <time>2014-10-11T10:34:20Z</time>
      </trkpt>
      <trkpt lat="59.168963" lon="18.09233">
        <ele>62.9</ele>
        <time>2014-10-11T10:34:21Z</time>
      </trkpt>
      <trkpt lat="59.168898" lon="18.092409">
        <ele>63</ele>
        <time>2014-10-11T10:34:22Z</time>
      </trkpt>
      <trkpt lat="59.168838" lon="18.092445">
        <ele>63.2</ele>
        <time>2014-10-11T10:34:23Z</time>
      </trkpt>
      <trkpt lat="59.16877" lon="18.092534">
        <ele>63.2</ele>
        <time>2014-10-11T10:34:24Z</time>
      </trkpt>
      <trkpt lat="59.168706" lon="18.092612">
        <ele>63</ele>
        <time>2014-10-11T10:34:25Z</time>
      </trkpt>
      <trkpt lat="59.168633" lon="18.092689">
        <ele>62.7</ele>
        <time>2014-10-11T10:34:26Z</time>
      </trkpt>
      <trkpt lat="59.168569" lon="18.092756">
        <ele>62.6</ele>
        <time>2014-10-11T10:34:27Z</time>
      </trkpt>
      <trkpt lat="59.168508" lon="18.092824">
        <ele>62.4</ele>
        <time>2014-10-11T10:34:28Z</time>
      </trkpt>
      <trkpt lat="59.16843" lon="18.09288">
        <ele>62.4</ele>
        <time>2014-10-11T10:34:29Z</time>
      </trkpt>
      <trkpt lat="59.168361" lon="18.092962">
        <ele>62.2</ele>
        <time>2014-10-11T10:34:30Z</time>
      </trkpt>
      <trkpt lat="59.168302" lon="18.093019">
        <ele>62.1</ele>
        <time>2014-10-11T10:34:31Z</time>
      </trkpt>
      <trkpt lat="59.168236" lon="18.093101">
        <ele>61.9</ele>
        <time>2014-10-11T10:34:32Z</time>
      </trkpt>
      <trkpt lat="59.168177" lon="18.093177">
        <ele>61.7</ele>
        <time>2014-10-11T10:34:33Z</time>
      </trkpt>
      <trkpt lat="59.168116" lon="18.093246">
        <ele>61.6</ele>
        <time>2014-10-11T10:34:34Z</time>
      </trkpt>
      <trkpt lat="59.168058" lon="18.093329">
        <ele>61.4</ele>
        <time>2014-10-11T10:34:35Z</time>
      </trkpt>
      <trkpt lat="59.168001" lon="18.093366">
        <ele>61.5</ele>
        <time>2014-10-11T10:34:36Z</time>
      </trkpt>
      <trkpt lat="59.167945" lon="18.093426">
        <ele>61.4</ele>
        <time>2014-10-11T10:34:37Z</time>
      </trkpt>
      <trkpt lat="59.167863" lon="18.093522">
        <ele>61.2</ele>
        <time>2014-10-11T10:34:38Z</time>
      </trkpt>
      <trkpt lat="59.167799" lon="18.0936">
        <ele>61</ele>
        <time>2014-10-11T10:34:39Z</time>
      </trkpt>
      <trkpt lat="59.167735" lon="18.093673">
        <ele>60.8</ele>
        <time>2014-10-11T10:34:40Z</time>
      </trkpt>
      <trkpt lat="59.167674" lon="18.093757">
        <ele>60.6</ele>
        <time>2014-10-11T10:34:41Z</time>
      </trkpt>
      <trkpt lat="59.167619" lon="18.093833">
        <ele>60.4</ele>
        <time>2014-10-11T10:34:42Z</time>
      </trkpt>
      <trkpt lat="59.167558" lon="18.093922">
        <ele>60.1</ele>
        <time>2014-10-11T10:34:43Z</time>
      </trkpt>
      <trkpt lat="59.167505" lon="18.09399">
        <ele>59.8</ele>
        <time>2014-10-11T10:34:44Z</time>
      </trkpt>
      <trkpt lat="59.167435" lon="18.094077">
        <ele>59.5</ele>
        <time>2014-10-11T10:34:45Z</time>
      </trkpt>
      <trkpt lat="59.16737" lon="18.094151">
        <ele>59.1</ele>
        <time>2014-10-11T10:34:46Z</time>
      </trkpt>
      <trkpt lat="59.167294" lon="18.094218">
        <ele>58.7</ele>
        <time>2014-10-11T10:34:47Z</time>
      </trkpt>
      <trkpt lat="59.167235" lon="18.094279">
        <ele>58.3</ele>
        <time>2014-10-11T10:34:48Z</time>
      </trkpt>
      <trkpt lat="59.167182" lon="18.094347">
        <ele>57.8</ele>
        <time>2014-10-11T10:34:49Z</time>
      </trkpt>
      <trkpt lat="59.167124" lon="18.094416">
        <ele>57.3</ele>
        <time>2014-10-11T10:34:50Z</time>
      </trkpt>
      <trkpt lat="59.16706" lon="18.094484">
        <ele>56.7</ele>
        <time>2014-10-11T10:34:51Z</time>
      </trkpt>
      <trkpt lat="59.167002" lon="18.094565">
        <ele>55.9</ele>
        <time>2014-10-11T10:34:52Z</time>
      </trkpt>
      <trkpt lat="59.166944" lon="18.094632">
        <ele>55.3</ele>
        <time>2014-10-11T10:34:53Z</time>
      </trkpt>
      <trkpt lat="59.166888" lon="18.094649">
        <ele>55</ele>
        <time>2014-10-11T10:34:54Z</time>
      </trkpt>
      <trkpt lat="59.166836" lon="18.094729">
        <ele>54.3</ele>
        <time>2014-10-11T10:34:55Z</time>
      </trkpt>
      <trkpt lat="59.166776" lon="18.094797">
        <ele>53.7</ele>
        <time>2014-10-11T10:34:56Z</time>
      </trkpt>
      <trkpt lat="59.16672" lon="18.094893">
        <ele>52.9</ele>
        <time>2014-10-11T10:34:57Z</time>
      </trkpt>
      <trkpt lat="59.166663" lon="18.094958">
        <ele>52.3</ele>
        <time>2014-10-11T10:34:58Z</time>
      </trkpt>
      <trkpt lat="59.166605" lon="18.095029">
        <ele>51.7</ele>
        <time>2014-10-11T10:34:59Z</time>
      </trkpt>
      <trkpt lat="59.166549" lon="18.095085">
        <ele>51.3</ele>
        <time>2014-10-11T10:35:00Z</time>
      </trkpt>
      <trkpt lat="59.166494" lon="18.095155">
        <ele>50.8</ele>
        <time>2014-10-11T10:35:01Z</time>
      </trkpt>
      <trkpt lat="59.166438" lon="18.095227">
        <ele>50.2</ele>
        <time>2014-10-11T10:35:02Z</time>
      </trkpt>
      <trkpt lat="59.166378" lon="18.095288">
        <ele>49.8</ele>
        <time>2014-10-11T10:35:03Z</time>
      </trkpt>
      <trkpt lat="59.166322" lon="18.095361">
        <ele>49.3</ele>
        <time>2014-10-11T10:35:04Z</time>
      </trkpt>
      <trkpt lat="59.166263" lon="18.095417">
        <ele>49</ele>
        <time>2014-10-11T10:35:05Z</time>
      </trkpt>
      <trkpt lat="59.16621" lon="18.095489">
        <ele>49.3</ele>
        <time>2014-10-11T10:35:06Z</time>
      </trkpt>
      <trkpt lat="59.166154" lon="18.095557">
        <ele>49.7</ele>
        <time>2014-10-11T10:35:07Z</time>
      </trkpt>
      <trkpt lat="59.166097" lon="18.0956">
        <ele>50.2</ele>
        <time>2014-10-11T10:35:08Z</time>
      </trkpt>
      <trkpt lat="59.166039" lon="18.095677">
        <ele>50.5</ele>
        <time>2014-10-11T10:35:09Z</time>
      </trkpt>
      <trkpt lat="59.165985" lon="18.09575">
        <ele>50.8</ele>
        <time>2014-10-11T10:35:10Z</time>
      </trkpt>
      <trkpt lat="59.165926" lon="18.095819">
        <ele>51.2</ele>
        <time>2014-10-11T10:35:11Z</time>
      </trkpt>
      <trkpt lat="59.16586" lon="18.095883">
        <ele>51.5</ele>
        <time>2014-10-11T10:35:12Z</time>
      </trkpt>
      <trkpt lat="59.165797" lon="18.095948">
        <ele>51.8</ele>
        <time>2014-10-11T10:35:13Z</time>
      </trkpt>
      <trkpt lat="59.165733" lon="18.096017">
        <ele>52</ele>
        <time>2014-10-11T10:35:14Z</time>
      </trkpt>
      <trkpt lat="59.165671" lon="18.096087">
        <ele>52.2</ele>
        <time>2014-10-11T10:35:15Z</time>
      </trkpt>
      <trkpt lat="59.165607" lon="18.096162">
        <ele>52.3</ele>
        <time>2014-10-11T10:35:16Z</time>
      </trkpt>
      <trkpt lat="59.16555" lon="18.096232">
        <ele>52.4</ele>
        <time>2014-10-11T10:35:17Z</time>
      </trkpt>
      <trkpt lat="59.165493" lon="18.096302">
        <ele>52.5</ele>
        <time>2014-10-11T10:35:18Z</time>
      </trkpt>
      <trkpt lat="59.165437" lon="18.096374">
        <ele>52.5</ele>
        <time>2014-10-11T10:35:19Z</time>
      </trkpt>
      <trkpt lat="59.165374" lon="18.096449">
        <ele>52.9</ele>
        <time>2014-10-11T10:35:20Z</time>
      </trkpt>
      <trkpt lat="59.165306" lon="18.096509">
        <ele>53.8</ele>
        <time>2014-10-11T10:35:21Z</time>
      </trkpt>
      <trkpt lat="59.165241" lon="18.096578">
        <ele>54.6</ele>
        <time>2014-10-11T10:35:22Z</time>
      </trkpt>
      <trkpt lat="59.165175" lon="18.096654">
        <ele>55.4</ele>
        <time>2014-10-11T10:35:23Z</time>
      </trkpt>
      <trkpt lat="59.165115" lon="18.096732">
        <ele>56.2</ele>
        <time>2014-10-11T10:35:24Z</time>
      </trkpt>
      <trkpt lat="59.165054" lon="18.096807">
        <ele>57.1</ele>
        <time>2014-10-11T10:35:25Z</time>
      </trkpt>
      <trkpt lat="59.164988" lon="18.096877">
        <ele>58.1</ele>
        <time>2014-10-11T10:35:26Z</time>
      </trkpt>
      <trkpt lat="59.164928" lon="18.096948">
        <ele>59</ele>
        <time>2014-10-11T10:35:27Z</time>
      </trkpt>
      <trkpt lat="59.164867" lon="18.09702">
        <ele>60</ele>
        <time>2014-10-11T10:35:28Z</time>
      </trkpt>
      <trkpt lat="59.164806" lon="18.097088">
        <ele>61</ele>
        <time>2014-10-11T10:35:29Z</time>
      </trkpt>
      <trkpt lat="59.164749" lon="18.097158">
        <ele>61.7</ele>
        <time>2014-10-11T10:35:30Z</time>
      </trkpt>
      <trkpt lat="59.164693" lon="18.097228">
        <ele>62.3</ele>
        <time>2014-10-11T10:35:31Z</time>
      </trkpt>
      <trkpt lat="59.164639" lon="18.097292">
        <ele>62.9</ele>
        <time>2014-10-11T10:35:32Z</time>
      </trkpt>
      <trkpt lat="59.164582" lon="18.097354">
        <ele>63.4</ele>
        <time>2014-10-11T10:35:33Z</time>
      </trkpt>
      <trkpt lat="59.164514" lon="18.0974">
        <ele>63.5</ele>
        <time>2014-10-11T10:35:34Z</time>
      </trkpt>
      <trkpt lat="59.164455" lon="18.097474">
        <ele>63.5</ele>
        <time>2014-10-11T10:35:35Z</time>
      </trkpt>
      <trkpt lat="59.164393" lon="18.097541">
        <ele>63.5</ele>
        <time>2014-10-11T10:35:36Z</time>
      </trkpt>
      <trkpt lat="59.164332" lon="18.097606">
        <ele>63.6</ele>
        <time>2014-10-11T10:35:37Z</time>
      </trkpt>
      <trkpt lat="59.164281" lon="18.097687">
        <ele>63.6</ele>
        <time>2014-10-11T10:35:38Z</time>
      </trkpt>
      <trkpt lat="59.164228" lon="18.097767">
        <ele>63.7</ele>
        <time>2014-10-11T10:35:39Z</time>
      </trkpt>
      <trkpt lat="59.164166" lon="18.097855">
        <ele>63.8</ele>
        <time>2014-10-11T10:35:40Z</time>
      </trkpt>
      <trkpt lat="59.164114" lon="18.097913">
        <ele>64</ele>
        <time>2014-10-11T10:35:41Z</time>
      </trkpt>
      <trkpt lat="59.164066" lon="18.09798">
        <ele>64.1</ele>
        <time>2014-10-11T10:35:42Z</time>
      </trkpt>
      <trkpt lat="59.164019" lon="18.098045">
        <ele>64.3</ele>
        <time>2014-10-11T10:35:43Z</time>
      </trkpt>
      <trkpt lat="59.163976" lon="18.098117">
        <ele>64.4</ele>
        <time>2014-10-11T10:35:44Z</time>
      </trkpt>
      <trkpt lat="59.163925" lon="18.098191">
        <ele>64.7</ele>
        <time>2014-10-11T10:35:45Z</time>
      </trkpt>
      <trkpt lat="59.163881" lon="18.098263">
        <ele>64.9</ele>
        <time>2014-10-11T10:35:46Z</time>
      </trkpt>
      <trkpt lat="59.163829" lon="18.098341">
        <ele>65.2</ele>
        <time>2014-10-11T10:35:47Z</time>
      </trkpt>
      <trkpt lat="59.163784" lon="18.098408">
        <ele>65.5</ele>
        <time>2014-10-11T10:35:48Z</time>
      </trkpt>
      <trkpt lat="59.163739" lon="18.098487">
        <ele>65.7</ele>
        <time>2014-10-11T10:35:49Z</time>
      </trkpt>
      <trkpt lat="59.163695" lon="18.09857">
        <ele>65.6</ele>
        <time>2014-10-11T10:35:50Z</time>
      </trkpt>
      <trkpt lat="59.163653" lon="18.098637">
        <ele>65.6</ele>
        <time>2014-10-11T10:35:51Z</time>
      </trkpt>
      <trkpt lat="59.163612" lon="18.098705">
        <ele>65.6</ele>
        <time>2014-10-11T10:35:52Z</time>
      </trkpt>
      <trkpt lat="59.163563" lon="18.098792">
        <ele>65.5</ele>
        <time>2014-10-11T10:35:53Z</time>
      </trkpt>
      <trkpt lat="59.163522" lon="18.098866">
        <ele>65.3</ele>
        <time>2014-10-11T10:35:54Z</time>
      </trkpt>
      <trkpt lat="59.163485" lon="18.098943">
        <ele>65</ele>
        <time>2014-10-11T10:35:55Z</time>
      </trkpt>
      <trkpt lat="59.163433" lon="18.099025">
        <ele>64.8</ele>
        <time>2014-10-11T10:35:56Z</time>
      </trkpt>
      <trkpt lat="59.163393" lon="18.099107">
        <ele>64.6</ele>
        <time>2014-10-11T10:35:57Z</time>
      </trkpt>
      <trkpt lat="59.163349" lon="18.099194">
        <ele>64.3</ele>
        <time>2014-10-11T10:35:58Z</time>
      </trkpt>
      <trkpt lat="59.163306" lon="18.099279">
        <ele>64.1</ele>
        <time>2014-10-11T10:35:59Z</time>
      </trkpt>
      <trkpt lat="59.163255" lon="18.09936">
        <ele>63.9</ele>
        <time>2014-10-11T10:36:00Z</time>
      </trkpt>
      <trkpt lat="59.163211" lon="18.099443">
        <ele>63.6</ele>
        <time>2014-10-11T10:36:01Z</time>
      </trkpt>
      <trkpt lat="59.163154" lon="18.099517">
        <ele>63.5</ele>
        <time>2014-10-11T10:36:02Z</time>
      </trkpt>
      <trkpt lat="59.163118" lon="18.099573">
        <ele>63.3</ele>
        <time>2014-10-11T10:36:03Z</time>
      </trkpt>
      <trkpt lat="59.163077" lon="18.09966">
        <ele>63</ele>
        <time>2014-10-11T10:36:04Z</time>
      </trkpt>
      <trkpt lat="59.163039" lon="18.099758">
        <ele>62.5</ele>
        <time>2014-10-11T10:36:05Z</time>
      </trkpt>
      <trkpt lat="59.162999" lon="18.099842">
        <ele>62.2</ele>
        <time>2014-10-11T10:36:06Z</time>
      </trkpt>
      <trkpt lat="59.162968" lon="18.099888">
        <ele>62</ele>
        <time>2014-10-11T10:36:07Z</time>
      </trkpt>
      <trkpt lat="59.162921" lon="18.099973">
        <ele>61.6</ele>
        <time>2014-10-11T10:36:08Z</time>
      </trkpt>
      <trkpt lat="59.162877" lon="18.100071">
        <ele>61.1</ele>
        <time>2014-10-11T10:36:09Z</time>
      </trkpt>
      <trkpt lat="59.162833" lon="18.100182">
        <ele>60.4</ele>
        <time>2014-10-11T10:36:10Z</time>
      </trkpt>
      <trkpt lat="59.162797" lon="18.100278">
        <ele>59.8</ele>
        <time>2014-10-11T10:36:11Z</time>
      </trkpt>
      <trkpt lat="59.162759" lon="18.100386">
        <ele>59.2</ele>
        <time>2014-10-11T10:36:12Z</time>
      </trkpt>
      <trkpt lat="59.162732" lon="18.100475">
        <ele>58.9</ele>
        <time>2014-10-11T10:36:13Z</time>
      </trkpt>
      <trkpt lat="59.162689" lon="18.100579">
        <ele>58.6</ele>
        <time>2014-10-11T10:36:14Z</time>
      </trkpt>
      <trkpt lat="59.162653" lon="18.100672">
        <ele>58.4</ele>
        <time>2014-10-11T10:36:15Z</time>
      </trkpt>
      <trkpt lat="59.162618" lon="18.100775">
        <ele>58.1</ele>
        <time>2014-10-11T10:36:16Z</time>
      </trkpt>
      <trkpt lat="59.16258" lon="18.100877">
        <ele>57.8</ele>
        <time>2014-10-11T10:36:17Z</time>
      </trkpt>
      <trkpt lat="59.162559" lon="18.100971">
        <ele>57.5</ele>
        <time>2014-10-11T10:36:18Z</time>
      </trkpt>
      <trkpt lat="59.162528" lon="18.101081">
        <ele>57.1</ele>
        <time>2014-10-11T10:36:19Z</time>
      </trkpt>
      <trkpt lat="59.162496" lon="18.101176">
        <ele>56.7</ele>
        <time>2014-10-11T10:36:20Z</time>
      </trkpt>
      <trkpt lat="59.162464" lon="18.101271">
        <ele>56.3</ele>
        <time>2014-10-11T10:36:21Z</time>
      </trkpt>
      <trkpt lat="59.162436" lon="18.101355">
        <ele>55.9</ele>
        <time>2014-10-11T10:36:22Z</time>
      </trkpt>
      <trkpt lat="59.162403" lon="18.101455">
        <ele>55.4</ele>
        <time>2014-10-11T10:36:23Z</time>
      </trkpt>
      <trkpt lat="59.16237" lon="18.10156">
        <ele>54.9</ele>
        <time>2014-10-11T10:36:24Z</time>
      </trkpt>
      <trkpt lat="59.162343" lon="18.101677">
        <ele>54.4</ele>
        <time>2014-10-11T10:36:25Z</time>
      </trkpt>
      <trkpt lat="59.162307" lon="18.101785">
        <ele>53.8</ele>
        <time>2014-10-11T10:36:26Z</time>
      </trkpt>
      <trkpt lat="59.162274" lon="18.101887">
        <ele>53.2</ele>
        <time>2014-10-11T10:36:27Z</time>
      </trkpt>
      <trkpt lat="59.16224" lon="18.101983">
        <ele>52.5</ele>
        <time>2014-10-11T10:36:28Z</time>
      </trkpt>
      <trkpt lat="59.162212" lon="18.102076">
        <ele>52</ele>
        <time>2014-10-11T10:36:29Z</time>
      </trkpt>
      <trkpt lat="59.16218" lon="18.102185">
        <ele>51.8</ele>
        <time>2014-10-11T10:36:30Z</time>
      </trkpt>
      <trkpt lat="59.16215" lon="18.102291">
        <ele>51.7</ele>
        <time>2014-10-11T10:36:31Z</time>
      </trkpt>
      <trkpt lat="59.162115" lon="18.102414">
        <ele>51.6</ele>
        <time>2014-10-11T10:36:32Z</time>
      </trkpt>
      <trkpt lat="59.16209" lon="18.102525">
        <ele>51.6</ele>
        <time>2014-10-11T10:36:33Z</time>
      </trkpt>
      <trkpt lat="59.162059" lon="18.102612">
        <ele>51.8</ele>
        <time>2014-10-11T10:36:34Z</time>
      </trkpt>
      <trkpt lat="59.162041" lon="18.102712">
        <ele>51.9</ele>
        <time>2014-10-11T10:36:35Z</time>
      </trkpt>
      <trkpt lat="59.162018" lon="18.102835">
        <ele>52.2</ele>
        <time>2014-10-11T10:36:36Z</time>
      </trkpt>
      <trkpt lat="59.161991" lon="18.102953">
        <ele>52.4</ele>
        <time>2014-10-11T10:36:37Z</time>
      </trkpt>
      <trkpt lat="59.161964" lon="18.103072">
        <ele>52.5</ele>
        <time>2014-10-11T10:36:38Z</time>
      </trkpt>
      <trkpt lat="59.16193" lon="18.103198">
        <ele>52.6</ele>
        <time>2014-10-11T10:36:39Z</time>
      </trkpt>
      <trkpt lat="59.161897" lon="18.103329">
        <ele>52.7</ele>
        <time>2014-10-11T10:36:40Z</time>
      </trkpt>
      <trkpt lat="59.16187" lon="18.103458">
        <ele>52.8</ele>
        <time>2014-10-11T10:36:41Z</time>
      </trkpt>
      <trkpt lat="59.161821" lon="18.103619">
        <ele>52.7</ele>
        <time>2014-10-11T10:36:42Z</time>
      </trkpt>
      <trkpt lat="59.161794" lon="18.10375">
        <ele>52.7</ele>
        <time>2014-10-11T10:36:43Z</time>
      </trkpt>
      <trkpt lat="59.161763" lon="18.103888">
        <ele>52.7</ele>
        <time>2014-10-11T10:36:44Z</time>
      </trkpt>
      <trkpt lat="59.161741" lon="18.104012">
        <ele>52.7</ele>
        <time>2014-10-11T10:36:45Z</time>
      </trkpt>
      <trkpt lat="59.161715" lon="18.104142">
        <ele>52.8</ele>
        <time>2014-10-11T10:36:46Z</time>
      </trkpt>
      <trkpt lat="59.16168" lon="18.104274">
        <ele>52.8</ele>
        <time>2014-10-11T10:36:47Z</time>
      </trkpt>
      <trkpt lat="59.161655" lon="18.104404">
        <ele>52.9</ele>
        <time>2014-10-11T10:36:48Z</time>
      </trkpt>
      <trkpt lat="59.161626" lon="18.104524">
        <ele>53</ele>
        <time>2014-10-11T10:36:49Z</time>
      </trkpt>
      <trkpt lat="59.161599" lon="18.104662">
        <ele>53.1</ele>
        <time>2014-10-11T10:36:50Z</time>
      </trkpt>
      <trkpt lat="59.161562" lon="18.104808">
        <ele>53.2</ele>
        <time>2014-10-11T10:36:51Z</time>
      </trkpt>
      <trkpt lat="59.161539" lon="18.104937">
        <ele>53.4</ele>
        <time>2014-10-11T10:36:52Z</time>
      </trkpt>
      <trkpt lat="59.161514" lon="18.105079">
        <ele>53.6</ele>
        <time>2014-10-11T10:36:53Z</time>
      </trkpt>
      <trkpt lat="59.161487" lon="18.105219">
        <ele>53.9</ele>
        <time>2014-10-11T10:36:54Z</time>
      </trkpt>
      <trkpt lat="59.16146" lon="18.105351">
        <ele>54.1</ele>
        <time>2014-10-11T10:36:55Z</time>
      </trkpt>
      <trkpt lat="59.161431" lon="18.105493">
        <ele>54.5</ele>
        <time>2014-10-11T10:36:56Z</time>
      </trkpt>
      <trkpt lat="59.161412" lon="18.10564">
        <ele>54.9</ele>
        <time>2014-10-11T10:36:57Z</time>
      </trkpt>
      <trkpt lat="59.161385" lon="18.105768">
        <ele>55.3</ele>
        <time>2014-10-11T10:36:58Z</time>
      </trkpt>
      <trkpt lat="59.161357" lon="18.105895">
        <ele>55.7</ele>
        <time>2014-10-11T10:36:59Z</time>
      </trkpt>
      <trkpt lat="59.161321" lon="18.106045">
        <ele>56.2</ele>
        <time>2014-10-11T10:37:00Z</time>
      </trkpt>
      <trkpt lat="59.161293" lon="18.106167">
        <ele>56.6</ele>
        <time>2014-10-11T10:37:01Z</time>
      </trkpt>
      <trkpt lat="59.161262" lon="18.106311">
        <ele>57.1</ele>
        <time>2014-10-11T10:37:02Z</time>
      </trkpt>
      <trkpt lat="59.161228" lon="18.106462">
        <ele>57.6</ele>
        <time>2014-10-11T10:37:03Z</time>
      </trkpt>
      <trkpt lat="59.161197" lon="18.106612">
        <ele>58.1</ele>
        <time>2014-10-11T10:37:04Z</time>
      </trkpt>
      <trkpt lat="59.161174" lon="18.106759">
        <ele>58.5</ele>
        <time>2014-10-11T10:37:05Z</time>
      </trkpt>
      <trkpt lat="59.161144" lon="18.106896">
        <ele>58.9</ele>
        <time>2014-10-11T10:37:06Z</time>
      </trkpt>
      <trkpt lat="59.161104" lon="18.107054">
        <ele>59.5</ele>
        <time>2014-10-11T10:37:07Z</time>
      </trkpt>
      <trkpt lat="59.161072" lon="18.107211">
        <ele>59.4</ele>
        <time>2014-10-11T10:37:08Z</time>
      </trkpt>
      <trkpt lat="59.161041" lon="18.107361">
        <ele>59.3</ele>
        <time>2014-10-11T10:37:09Z</time>
      </trkpt>
      <trkpt lat="59.161011" lon="18.107502">
        <ele>59.1</ele>
        <time>2014-10-11T10:37:10Z</time>
      </trkpt>
      <trkpt lat="59.160981" lon="18.107651">
        <ele>59</ele>
        <time>2014-10-11T10:37:11Z</time>
      </trkpt>
      <trkpt lat="59.160949" lon="18.107806">
        <ele>59</ele>
        <time>2014-10-11T10:37:12Z</time>
      </trkpt>
      <trkpt lat="59.160909" lon="18.107971">
        <ele>59</ele>
        <time>2014-10-11T10:37:13Z</time>
      </trkpt>
      <trkpt lat="59.160885" lon="18.108113">
        <ele>58.9</ele>
        <time>2014-10-11T10:37:14Z</time>
      </trkpt>
      <trkpt lat="59.160852" lon="18.108259">
        <ele>58.9</ele>
        <time>2014-10-11T10:37:15Z</time>
      </trkpt>
      <trkpt lat="59.160814" lon="18.108416">
        <ele>59.1</ele>
        <time>2014-10-11T10:37:16Z</time>
      </trkpt>
      <trkpt lat="59.160791" lon="18.108543">
        <ele>59.2</ele>
        <time>2014-10-11T10:37:17Z</time>
      </trkpt>
      <trkpt lat="59.160756" lon="18.108698">
        <ele>59.4</ele>
        <time>2014-10-11T10:37:18Z</time>
      </trkpt>
      <trkpt lat="59.160723" lon="18.108846">
        <ele>59.5</ele>
        <time>2014-10-11T10:37:19Z</time>
      </trkpt>
      <trkpt lat="59.160694" lon="18.109004">
        <ele>59.4</ele>
        <time>2014-10-11T10:37:20Z</time>
      </trkpt>
      <trkpt lat="59.16066" lon="18.109159">
        <ele>59.3</ele>
        <time>2014-10-11T10:37:21Z</time>
      </trkpt>
      <trkpt lat="59.160626" lon="18.109306">
        <ele>59.2</ele>
        <time>2014-10-11T10:37:22Z</time>
      </trkpt>
      <trkpt lat="59.160592" lon="18.109456">
        <ele>59.1</ele>
        <time>2014-10-11T10:37:23Z</time>
      </trkpt>
      <trkpt lat="59.160562" lon="18.109596">
        <ele>58.9</ele>
        <time>2014-10-11T10:37:24Z</time>
      </trkpt>
      <trkpt lat="59.160527" lon="18.109747">
        <ele>58.7</ele>
        <time>2014-10-11T10:37:25Z</time>
      </trkpt>
      <trkpt lat="59.160491" lon="18.109899">
        <ele>58.4</ele>
        <time>2014-10-11T10:37:26Z</time>
      </trkpt>
      <trkpt lat="59.160448" lon="18.110058">
        <ele>58.1</ele>
        <time>2014-10-11T10:37:27Z</time>
      </trkpt>
      <trkpt lat="59.160405" lon="18.110209">
        <ele>57.8</ele>
        <time>2014-10-11T10:37:28Z</time>
      </trkpt>
      <trkpt lat="59.160348" lon="18.11039">
        <ele>57.6</ele>
        <time>2014-10-11T10:37:29Z</time>
      </trkpt>
      <trkpt lat="59.160315" lon="18.110531">
        <ele>57.5</ele>
        <time>2014-10-11T10:37:30Z</time>
      </trkpt>
      <trkpt lat="59.160278" lon="18.110688">
        <ele>57.5</ele>
        <time>2014-10-11T10:37:31Z</time>
      </trkpt>
      <trkpt lat="59.160229" lon="18.110847">
        <ele>57.5</ele>
        <time>2014-10-11T10:37:32Z</time>
      </trkpt>
      <trkpt lat="59.160183" lon="18.110985">
        <ele>57.4</ele>
        <time>2014-10-11T10:37:33Z</time>
      </trkpt>
      <trkpt lat="59.160137" lon="18.111138">
        <ele>57.3</ele>
        <time>2014-10-11T10:37:34Z</time>
      </trkpt>
      <trkpt lat="59.160086" lon="18.111283">
        <ele>57.1</ele>
        <time>2014-10-11T10:37:35Z</time>
      </trkpt>
      <trkpt lat="59.160036" lon="18.111437">
        <ele>56.8</ele>
        <time>2014-10-11T10:37:36Z</time>
      </trkpt>
      <trkpt lat="59.159983" lon="18.111589">
        <ele>56.5</ele>
        <time>2014-10-11T10:37:37Z</time>
      </trkpt>
      <trkpt lat="59.159937" lon="18.111744">
        <ele>56.1</ele>
        <time>2014-10-11T10:37:38Z</time>
      </trkpt>
      <trkpt lat="59.159878" lon="18.111905">
        <ele>55.6</ele>
        <time>2014-10-11T10:37:39Z</time>
      </trkpt>
      <trkpt lat="59.159838" lon="18.112045">
        <ele>55.1</ele>
        <time>2014-10-11T10:37:40Z</time>
      </trkpt>
      <trkpt lat="59.159791" lon="18.112201">
        <ele>54.9</ele>
        <time>2014-10-11T10:37:41Z</time>
      </trkpt>
      <trkpt lat="59.15974" lon="18.112353">
        <ele>54.7</ele>
        <time>2014-10-11T10:37:42Z</time>
      </trkpt>
      <trkpt lat="59.159691" lon="18.112491">
        <ele>54.6</ele>
        <time>2014-10-11T10:37:43Z</time>
      </trkpt>
      <trkpt lat="59.159636" lon="18.112616">
        <ele>54.4</ele>
        <time>2014-10-11T10:37:44Z</time>
      </trkpt>
      <trkpt lat="59.159593" lon="18.11276">
        <ele>54.2</ele>
        <time>2014-10-11T10:37:45Z</time>
      </trkpt>
      <trkpt lat="59.159547" lon="18.112895">
        <ele>53.9</ele>
        <time>2014-10-11T10:37:46Z</time>
      </trkpt>
      <trkpt lat="59.1595" lon="18.113035">
        <ele>53.5</ele>
        <time>2014-10-11T10:37:47Z</time>
      </trkpt>
      <trkpt lat="59.159443" lon="18.113195">
        <ele>53.1</ele>
        <time>2014-10-11T10:37:48Z</time>
      </trkpt>
      <trkpt lat="59.159396" lon="18.113323">
        <ele>52.7</ele>
        <time>2014-10-11T10:37:49Z</time>
      </trkpt>
      <trkpt lat="59.159345" lon="18.113463">
        <ele>52.3</ele>
        <time>2014-10-11T10:37:50Z</time>
      </trkpt>
      <trkpt lat="59.159296" lon="18.113593">
        <ele>52</ele>
        <time>2014-10-11T10:37:51Z</time>
      </trkpt>
      <trkpt lat="59.159239" lon="18.113723">
        <ele>51.6</ele>
        <time>2014-10-11T10:37:52Z</time>
      </trkpt>
      <trkpt lat="59.159196" lon="18.113849">
        <ele>51.7</ele>
        <time>2014-10-11T10:37:53Z</time>
      </trkpt>
      <trkpt lat="59.159154" lon="18.113973">
        <ele>51.7</ele>
        <time>2014-10-11T10:37:54Z</time>
      </trkpt>
      <trkpt lat="59.159104" lon="18.114105">
        <ele>51.8</ele>
        <time>2014-10-11T10:37:55Z</time>
      </trkpt>
      <trkpt lat="59.15905" lon="18.114242">
        <ele>51.8</ele>
        <time>2014-10-11T10:37:56Z</time>
      </trkpt>
      <trkpt lat="59.159014" lon="18.114368">
        <ele>51.8</ele>
        <time>2014-10-11T10:37:57Z</time>
      </trkpt>
      <trkpt lat="59.158958" lon="18.114501">
        <ele>51.7</ele>
        <time>2014-10-11T10:37:58Z</time>
      </trkpt>
      <trkpt lat="59.158908" lon="18.114626">
        <ele>51.6</ele>
        <time>2014-10-11T10:37:59Z</time>
      </trkpt>
      <trkpt lat="59.158857" lon="18.11478">
        <ele>51.7</ele>
        <time>2014-10-11T10:38:00Z</time>
      </trkpt>
      <trkpt lat="59.158811" lon="18.114917">
        <ele>51.6</ele>
        <time>2014-10-11T10:38:01Z</time>
      </trkpt>
      <trkpt lat="59.158759" lon="18.115049">
        <ele>51.6</ele>
        <time>2014-10-11T10:38:02Z</time>
      </trkpt>
      <trkpt lat="59.158704" lon="18.115179">
        <ele>51.7</ele>
        <time>2014-10-11T10:38:03Z</time>
      </trkpt>
      <trkpt lat="59.158646" lon="18.115303">
        <ele>51.7</ele>
        <time>2014-10-11T10:38:04Z</time>
      </trkpt>
      <trkpt lat="59.158623" lon="18.115364">
        <ele>51.8</ele>
        <time>2014-10-11T10:38:05Z</time>
      </trkpt>
      <trkpt lat="59.158568" lon="18.11551">
        <ele>51.9</ele>
        <time>2014-10-11T10:38:06Z</time>
      </trkpt>
      <trkpt lat="59.158522" lon="18.115618">
        <ele>52</ele>
        <time>2014-10-11T10:38:07Z</time>
      </trkpt>
      <trkpt lat="59.158472" lon="18.115751">
        <ele>52.1</ele>
        <time>2014-10-11T10:38:08Z</time>
      </trkpt>
      <trkpt lat="59.158423" lon="18.115885">
        <ele>52.1</ele>
        <time>2014-10-11T10:38:09Z</time>
      </trkpt>
      <trkpt lat="59.158377" lon="18.116005">
        <ele>52</ele>
        <time>2014-10-11T10:38:10Z</time>
      </trkpt>
      <trkpt lat="59.158328" lon="18.11613">
        <ele>51.9</ele>
        <time>2014-10-11T10:38:11Z</time>
      </trkpt>
      <trkpt lat="59.158284" lon="18.116234">
        <ele>51.8</ele>
        <time>2014-10-11T10:38:12Z</time>
      </trkpt>
      <trkpt lat="59.158235" lon="18.116374">
        <ele>51.5</ele>
        <time>2014-10-11T10:38:13Z</time>
      </trkpt>
      <trkpt lat="59.158183" lon="18.116506">
        <ele>51.1</ele>
        <time>2014-10-11T10:38:14Z</time>
      </trkpt>
      <trkpt lat="59.158138" lon="18.116622">
        <ele>50.6</ele>
        <time>2014-10-11T10:38:15Z</time>
      </trkpt>
      <trkpt lat="59.158087" lon="18.116761">
        <ele>50.1</ele>
        <time>2014-10-11T10:38:16Z</time>
      </trkpt>
      <trkpt lat="59.158034" lon="18.116891">
        <ele>49.5</ele>
        <time>2014-10-11T10:38:17Z</time>
      </trkpt>
      <trkpt lat="59.157988" lon="18.117002">
        <ele>48.8</ele>
        <time>2014-10-11T10:38:18Z</time>
      </trkpt>
      <trkpt lat="59.15793" lon="18.117147">
        <ele>48.3</ele>
        <time>2014-10-11T10:38:19Z</time>
      </trkpt>
      <trkpt lat="59.157877" lon="18.117282">
        <ele>48.4</ele>
        <time>2014-10-11T10:38:20Z</time>
      </trkpt>
      <trkpt lat="59.157831" lon="18.117407">
        <ele>48.6</ele>
        <time>2014-10-11T10:38:21Z</time>
      </trkpt>
      <trkpt lat="59.157775" lon="18.117555">
        <ele>48.8</ele>
        <time>2014-10-11T10:38:22Z</time>
      </trkpt>
      <trkpt lat="59.157721" lon="18.117681">
        <ele>48.9</ele>
        <time>2014-10-11T10:38:23Z</time>
      </trkpt>
      <trkpt lat="59.157669" lon="18.117821">
        <ele>48.9</ele>
        <time>2014-10-11T10:38:24Z</time>
      </trkpt>
      <trkpt lat="59.157611" lon="18.117969">
        <ele>49</ele>
        <time>2014-10-11T10:38:25Z</time>
      </trkpt>
      <trkpt lat="59.157561" lon="18.118095">
        <ele>49.1</ele>
        <time>2014-10-11T10:38:26Z</time>
      </trkpt>
      <trkpt lat="59.157503" lon="18.118243">
        <ele>49.1</ele>
        <time>2014-10-11T10:38:27Z</time>
      </trkpt>
      <trkpt lat="59.15745" lon="18.118378">
        <ele>49.1</ele>
        <time>2014-10-11T10:38:28Z</time>
      </trkpt>
      <trkpt lat="59.157394" lon="18.118511">
        <ele>48.9</ele>
        <time>2014-10-11T10:38:29Z</time>
      </trkpt>
      <trkpt lat="59.157334" lon="18.118657">
        <ele>48.7</ele>
        <time>2014-10-11T10:38:30Z</time>
      </trkpt>
      <trkpt lat="59.157286" lon="18.118786">
        <ele>48.5</ele>
        <time>2014-10-11T10:38:31Z</time>
      </trkpt>
      <trkpt lat="59.157235" lon="18.118918">
        <ele>48.4</ele>
        <time>2014-10-11T10:38:32Z</time>
      </trkpt>
      <trkpt lat="59.157182" lon="18.119065">
        <ele>48.2</ele>
        <time>2014-10-11T10:38:33Z</time>
      </trkpt>
      <trkpt lat="59.157135" lon="18.119191">
        <ele>48</ele>
        <time>2014-10-11T10:38:34Z</time>
      </trkpt>
      <trkpt lat="59.157077" lon="18.119337">
        <ele>47.7</ele>
        <time>2014-10-11T10:38:35Z</time>
      </trkpt>
      <trkpt lat="59.157026" lon="18.11947">
        <ele>47.8</ele>
        <time>2014-10-11T10:38:36Z</time>
      </trkpt>
      <trkpt lat="59.156974" lon="18.119593">
        <ele>47.9</ele>
        <time>2014-10-11T10:38:37Z</time>
      </trkpt>
      <trkpt lat="59.156914" lon="18.119739">
        <ele>48.1</ele>
        <time>2014-10-11T10:38:38Z</time>
      </trkpt>
      <trkpt lat="59.156861" lon="18.119859">
        <ele>48.3</ele>
        <time>2014-10-11T10:38:39Z</time>
      </trkpt>
      <trkpt lat="59.156809" lon="18.119994">
        <ele>48.5</ele>
        <time>2014-10-11T10:38:40Z</time>
      </trkpt>
      <trkpt lat="59.156753" lon="18.120134">
        <ele>48.7</ele>
        <time>2014-10-11T10:38:41Z</time>
      </trkpt>
      <trkpt lat="59.156707" lon="18.120267">
        <ele>48.8</ele>
        <time>2014-10-11T10:38:42Z</time>
      </trkpt>
      <trkpt lat="59.156652" lon="18.120411">
        <ele>49</ele>
        <time>2014-10-11T10:38:43Z</time>
      </trkpt>
      <trkpt lat="59.156602" lon="18.120538">
        <ele>48.9</ele>
        <time>2014-10-11T10:38:44Z</time>
      </trkpt>
      <trkpt lat="59.156549" lon="18.120673">
        <ele>48.8</ele>
        <time>2014-10-11T10:38:45Z</time>
      </trkpt>
      <trkpt lat="59.156496" lon="18.120816">
        <ele>48.7</ele>
        <time>2014-10-11T10:38:46Z</time>
      </trkpt>
      <trkpt lat="59.156447" lon="18.120936">
        <ele>48.6</ele>
        <time>2014-10-11T10:38:47Z</time>
      </trkpt>
      <trkpt lat="59.156399" lon="18.121066">
        <ele>48.5</ele>
        <time>2014-10-11T10:38:48Z</time>
      </trkpt>
      <trkpt lat="59.156346" lon="18.121219">
        <ele>48.3</ele>
        <time>2014-10-11T10:38:49Z</time>
      </trkpt>
      <trkpt lat="59.156298" lon="18.121348">
        <ele>48.2</ele>
        <time>2014-10-11T10:38:50Z</time>
      </trkpt>
      <trkpt lat="59.156237" lon="18.121491">
        <ele>48</ele>
        <time>2014-10-11T10:38:51Z</time>
      </trkpt>
      <trkpt lat="59.15618" lon="18.121637">
        <ele>47.9</ele>
        <time>2014-10-11T10:38:52Z</time>
      </trkpt>
      <trkpt lat="59.156124" lon="18.121764">
        <ele>47.8</ele>
        <time>2014-10-11T10:38:53Z</time>
      </trkpt>
      <trkpt lat="59.156076" lon="18.121894">
        <ele>47.8</ele>
        <time>2014-10-11T10:38:54Z</time>
      </trkpt>
      <trkpt lat="59.156026" lon="18.122026">
        <ele>47.7</ele>
        <time>2014-10-11T10:38:55Z</time>
      </trkpt>
      <trkpt lat="59.155979" lon="18.122153">
        <ele>47.6</ele>
        <time>2014-10-11T10:38:56Z</time>
      </trkpt>
      <trkpt lat="59.155926" lon="18.122286">
        <ele>47.5</ele>
        <time>2014-10-11T10:38:57Z</time>
      </trkpt>
      <trkpt lat="59.155875" lon="18.122415">
        <ele>47.4</ele>
        <time>2014-10-11T10:38:58Z</time>
      </trkpt>
      <trkpt lat="59.155819" lon="18.122563">
        <ele>47.2</ele>
        <time>2014-10-11T10:38:59Z</time>
      </trkpt>
      <trkpt lat="59.155775" lon="18.122692">
        <ele>47</ele>
        <time>2014-10-11T10:39:00Z</time>
      </trkpt>
      <trkpt lat="59.155725" lon="18.122827">
        <ele>46.8</ele>
        <time>2014-10-11T10:39:01Z</time>
      </trkpt>
      <trkpt lat="59.155674" lon="18.122962">
        <ele>46.6</ele>
        <time>2014-10-11T10:39:02Z</time>
      </trkpt>
      <trkpt lat="59.155632" lon="18.123081">
        <ele>46.4</ele>
        <time>2014-10-11T10:39:03Z</time>
      </trkpt>
      <trkpt lat="59.155586" lon="18.12321">
        <ele>46.2</ele>
        <time>2014-10-11T10:39:04Z</time>
      </trkpt>
      <trkpt lat="59.155541" lon="18.123338">
        <ele>45.9</ele>
        <time>2014-10-11T10:39:05Z</time>
      </trkpt>
      <trkpt lat="59.155503" lon="18.123443">
        <ele>45.7</ele>
        <time>2014-10-11T10:39:06Z</time>
      </trkpt>
      <trkpt lat="59.155451" lon="18.123571">
        <ele>45.4</ele>
        <time>2014-10-11T10:39:07Z</time>
      </trkpt>
      <trkpt lat="59.155404" lon="18.123698">
        <ele>45.1</ele>
        <time>2014-10-11T10:39:08Z</time>
      </trkpt>
      <trkpt lat="59.155364" lon="18.12382">
        <ele>45.1</ele>
        <time>2014-10-11T10:39:09Z</time>
      </trkpt>
      <trkpt lat="59.155323" lon="18.123959">
        <ele>45.4</ele>
        <time>2014-10-11T10:39:10Z</time>
      </trkpt>
      <trkpt lat="59.155277" lon="18.124084">
        <ele>45.6</ele>
        <time>2014-10-11T10:39:11Z</time>
      </trkpt>
      <trkpt lat="59.155235" lon="18.124219">
        <ele>45.8</ele>
        <time>2014-10-11T10:39:12Z</time>
      </trkpt>
      <trkpt lat="59.155192" lon="18.124356">
        <ele>46</ele>
        <time>2014-10-11T10:39:13Z</time>
      </trkpt>
      <trkpt lat="59.155158" lon="18.124469">
        <ele>46.2</ele>
        <time>2014-10-11T10:39:14Z</time>
      </trkpt>
      <trkpt lat="59.155114" lon="18.124598">
        <ele>46.4</ele>
        <time>2014-10-11T10:39:15Z</time>
      </trkpt>
      <trkpt lat="59.155082" lon="18.124698">
        <ele>46.6</ele>
        <time>2014-10-11T10:39:16Z</time>
      </trkpt>
      <trkpt lat="59.155047" lon="18.124805">
        <ele>46.8</ele>
        <time>2014-10-11T10:39:17Z</time>
      </trkpt>
      <trkpt lat="59.15501" lon="18.124916">
        <ele>47.1</ele>
        <time>2014-10-11T10:39:18Z</time>
      </trkpt>
      <trkpt lat="59.154975" lon="18.125016">
        <ele>47.3</ele>
        <time>2014-10-11T10:39:19Z</time>
      </trkpt>
      <trkpt lat="59.154945" lon="18.125116">
        <ele>47.6</ele>
        <time>2014-10-11T10:39:20Z</time>
      </trkpt>
      <trkpt lat="59.15491" lon="18.125238">
        <ele>47.9</ele>
        <time>2014-10-11T10:39:21Z</time>
      </trkpt>
      <trkpt lat="59.154878" lon="18.125352">
        <ele>48.2</ele>
        <time>2014-10-11T10:39:22Z</time>
      </trkpt>
      <trkpt lat="59.154843" lon="18.125469">
        <ele>48.5</ele>
        <time>2014-10-11T10:39:23Z</time>
      </trkpt>
      <trkpt lat="59.154814" lon="18.125586">
        <ele>48.8</ele>
        <time>2014-10-11T10:39:24Z</time>
      </trkpt>
      <trkpt lat="59.154789" lon="18.125695">
        <ele>49</ele>
        <time>2014-10-11T10:39:25Z</time>
      </trkpt>
      <trkpt lat="59.154762" lon="18.125796">
        <ele>49.2</ele>
        <time>2014-10-11T10:39:26Z</time>
      </trkpt>
      <trkpt lat="59.154735" lon="18.125911">
        <ele>49.4</ele>
        <time>2014-10-11T10:39:27Z</time>
      </trkpt>
      <trkpt lat="59.154708" lon="18.126026">
        <ele>49.7</ele>
        <time>2014-10-11T10:39:28Z</time>
      </trkpt>
      <trkpt lat="59.154677" lon="18.12613">
        <ele>49.8</ele>
        <time>2014-10-11T10:39:29Z</time>
      </trkpt>
      <trkpt lat="59.154646" lon="18.12623">
        <ele>50</ele>
        <time>2014-10-11T10:39:30Z</time>
      </trkpt>
      <trkpt lat="59.154615" lon="18.126346">
        <ele>50.2</ele>
        <time>2014-10-11T10:39:31Z</time>
      </trkpt>
      <trkpt lat="59.154588" lon="18.126451">
        <ele>50.5</ele>
        <time>2014-10-11T10:39:32Z</time>
      </trkpt>
      <trkpt lat="59.154549" lon="18.126556">
        <ele>50.8</ele>
        <time>2014-10-11T10:39:33Z</time>
      </trkpt>
      <trkpt lat="59.154519" lon="18.126665">
        <ele>51.2</ele>
        <time>2014-10-11T10:39:34Z</time>
      </trkpt>
      <trkpt lat="59.15449" lon="18.126783">
        <ele>51.6</ele>
        <time>2014-10-11T10:39:35Z</time>
      </trkpt>
      <trkpt lat="59.154449" lon="18.126903">
        <ele>52.1</ele>
        <time>2014-10-11T10:39:36Z</time>
      </trkpt>
      <trkpt lat="59.154424" lon="18.127029">
        <ele>52.6</ele>
        <time>2014-10-11T10:39:37Z</time>
      </trkpt>
      <trkpt lat="59.154395" lon="18.127142">
        <ele>52.9</ele>
        <time>2014-10-11T10:39:38Z</time>
      </trkpt>
      <trkpt lat="59.154367" lon="18.127243">
        <ele>53</ele>
        <time>2014-10-11T10:39:39Z</time>
      </trkpt>
      <trkpt lat="59.154343" lon="18.127355">
        <ele>53.1</ele>
        <time>2014-10-11T10:39:40Z</time>
      </trkpt>
      <trkpt lat="59.154319" lon="18.127459">
        <ele>53.1</ele>
        <time>2014-10-11T10:39:41Z</time>
      </trkpt>
      <trkpt lat="59.154292" lon="18.127563">
        <ele>53.2</ele>
        <time>2014-10-11T10:39:42Z</time>
      </trkpt>
      <trkpt lat="59.15427" lon="18.127676">
        <ele>53.2</ele>
        <time>2014-10-11T10:39:43Z</time>
      </trkpt>
      <trkpt lat="59.154247" lon="18.127784">
        <ele>53.3</ele>
        <time>2014-10-11T10:39:44Z</time>
      </trkpt>
      <trkpt lat="59.154231" lon="18.127889">
        <ele>53.3</ele>
        <time>2014-10-11T10:39:45Z</time>
      </trkpt>
      <trkpt lat="59.1542" lon="18.128011">
        <ele>53.3</ele>
        <time>2014-10-11T10:39:46Z</time>
      </trkpt>
      <trkpt lat="59.154173" lon="18.128097">
        <ele>53.4</ele>
        <time>2014-10-11T10:39:47Z</time>
      </trkpt>
      <trkpt lat="59.154156" lon="18.128206">
        <ele>53.4</ele>
        <time>2014-10-11T10:39:48Z</time>
      </trkpt>
      <trkpt lat="59.154137" lon="18.12832">
        <ele>53.3</ele>
        <time>2014-10-11T10:39:49Z</time>
      </trkpt>
      <trkpt lat="59.154115" lon="18.128432">
        <ele>53.3</ele>
        <time>2014-10-11T10:39:50Z</time>
      </trkpt>
      <trkpt lat="59.154095" lon="18.12854">
        <ele>53.3</ele>
        <time>2014-10-11T10:39:51Z</time>
      </trkpt>
      <trkpt lat="59.154064" lon="18.128657">
        <ele>53.3</ele>
        <time>2014-10-11T10:39:52Z</time>
      </trkpt>
      <trkpt lat="59.154046" lon="18.128761">
        <ele>53.3</ele>
        <time>2014-10-11T10:39:53Z</time>
      </trkpt>
      <trkpt lat="59.154026" lon="18.128868">
        <ele>53.1</ele>
        <time>2014-10-11T10:39:54Z</time>
      </trkpt>
      <trkpt lat="59.154001" lon="18.128993">
        <ele>53</ele>
        <time>2014-10-11T10:39:55Z</time>
      </trkpt>
      <trkpt lat="59.153984" lon="18.1291">
        <ele>52.8</ele>
        <time>2014-10-11T10:39:56Z</time>
      </trkpt>
      <trkpt lat="59.153961" lon="18.129213">
        <ele>52.7</ele>
        <time>2014-10-11T10:39:57Z</time>
      </trkpt>
      <trkpt lat="59.153945" lon="18.129325">
        <ele>52.5</ele>
        <time>2014-10-11T10:39:58Z</time>
      </trkpt>
      <trkpt lat="59.153925" lon="18.129448">
        <ele>52.3</ele>
        <time>2014-10-11T10:39:59Z</time>
      </trkpt>
      <trkpt lat="59.153905" lon="18.129564">
        <ele>52</ele>
        <time>2014-10-11T10:40:00Z</time>
      </trkpt>
      <trkpt lat="59.153885" lon="18.129668">
        <ele>51.8</ele>
        <time>2014-10-11T10:40:01Z</time>
      </trkpt>
      <trkpt lat="59.153866" lon="18.129801">
        <ele>51.4</ele>
        <time>2014-10-11T10:40:02Z</time>
      </trkpt>
      <trkpt lat="59.15385" lon="18.129929">
        <ele>51</ele>
        <time>2014-10-11T10:40:03Z</time>
      </trkpt>
      <trkpt lat="59.153829" lon="18.130054">
        <ele>50.5</ele>
        <time>2014-10-11T10:40:04Z</time>
      </trkpt>
      <trkpt lat="59.153807" lon="18.130185">
        <ele>50</ele>
        <time>2014-10-11T10:40:05Z</time>
      </trkpt>
      <trkpt lat="59.153783" lon="18.130317">
        <ele>49.5</ele>
        <time>2014-10-11T10:40:06Z</time>
      </trkpt>
      <trkpt lat="59.153765" lon="18.130448">
        <ele>49.1</ele>
        <time>2014-10-11T10:40:07Z</time>
      </trkpt>
      <trkpt lat="59.153758" lon="18.130582">
        <ele>49</ele>
        <time>2014-10-11T10:40:08Z</time>
      </trkpt>
      <trkpt lat="59.153741" lon="18.130724">
        <ele>49</ele>
        <time>2014-10-11T10:40:09Z</time>
      </trkpt>
      <trkpt lat="59.153723" lon="18.130853">
        <ele>49</ele>
        <time>2014-10-11T10:40:10Z</time>
      </trkpt>
      <trkpt lat="59.153702" lon="18.130983">
        <ele>49</ele>
        <time>2014-10-11T10:40:11Z</time>
      </trkpt>
      <trkpt lat="59.153682" lon="18.131128">
        <ele>49</ele>
        <time>2014-10-11T10:40:12Z</time>
      </trkpt>
      <trkpt lat="59.15367" lon="18.131281">
        <ele>49</ele>
        <time>2014-10-11T10:40:13Z</time>
      </trkpt>
      <trkpt lat="59.153648" lon="18.131423">
        <ele>49.2</ele>
        <time>2014-10-11T10:40:14Z</time>
      </trkpt>
      <trkpt lat="59.153633" lon="18.131563">
        <ele>49.3</ele>
        <time>2014-10-11T10:40:15Z</time>
      </trkpt>
      <trkpt lat="59.153613" lon="18.131712">
        <ele>49.5</ele>
        <time>2014-10-11T10:40:16Z</time>
      </trkpt>
      <trkpt lat="59.153595" lon="18.131878">
        <ele>49.6</ele>
        <time>2014-10-11T10:40:17Z</time>
      </trkpt>
      <trkpt lat="59.153594" lon="18.132014">
        <ele>49.7</ele>
        <time>2014-10-11T10:40:18Z</time>
      </trkpt>
      <trkpt lat="59.153579" lon="18.132164">
        <ele>49.7</ele>
        <time>2014-10-11T10:40:19Z</time>
      </trkpt>
      <trkpt lat="59.153564" lon="18.132312">
        <ele>49.6</ele>
        <time>2014-10-11T10:40:20Z</time>
      </trkpt>
      <trkpt lat="59.153548" lon="18.13247">
        <ele>49.4</ele>
        <time>2014-10-11T10:40:21Z</time>
      </trkpt>
      <trkpt lat="59.153531" lon="18.132625">
        <ele>49.3</ele>
        <time>2014-10-11T10:40:22Z</time>
      </trkpt>
      <trkpt lat="59.153511" lon="18.132785">
        <ele>49.1</ele>
        <time>2014-10-11T10:40:23Z</time>
      </trkpt>
      <trkpt lat="59.153494" lon="18.132941">
        <ele>49</ele>
        <time>2014-10-11T10:40:24Z</time>
      </trkpt>
      <trkpt lat="59.153477" lon="18.133119">
        <ele>48.6</ele>
        <time>2014-10-11T10:40:25Z</time>
      </trkpt>
      <trkpt lat="59.15347" lon="18.13329">
        <ele>48.3</ele>
        <time>2014-10-11T10:40:26Z</time>
      </trkpt>
      <trkpt lat="59.153457" lon="18.133466">
        <ele>47.9</ele>
        <time>2014-10-11T10:40:27Z</time>
      </trkpt>
      <trkpt lat="59.153449" lon="18.133642">
        <ele>47.6</ele>
        <time>2014-10-11T10:40:28Z</time>
      </trkpt>
      <trkpt lat="59.153442" lon="18.133812">
        <ele>47.4</ele>
        <time>2014-10-11T10:40:29Z</time>
      </trkpt>
      <trkpt lat="59.153434" lon="18.134009">
        <ele>47.4</ele>
        <time>2014-10-11T10:40:30Z</time>
      </trkpt>
      <trkpt lat="59.153429" lon="18.134205">
        <ele>47.4</ele>
        <time>2014-10-11T10:40:31Z</time>
      </trkpt>
      <trkpt lat="59.153426" lon="18.134407">
        <ele>47.4</ele>
        <time>2014-10-11T10:40:32Z</time>
      </trkpt>
      <trkpt lat="59.153424" lon="18.134598">
        <ele>47.4</ele>
        <time>2014-10-11T10:40:33Z</time>
      </trkpt>
      <trkpt lat="59.153408" lon="18.134794">
        <ele>47.4</ele>
        <time>2014-10-11T10:40:34Z</time>
      </trkpt>
      <trkpt lat="59.153397" lon="18.134994">
        <ele>47.4</ele>
        <time>2014-10-11T10:40:35Z</time>
      </trkpt>
      <trkpt lat="59.153393" lon="18.135177">
        <ele>47.4</ele>
        <time>2014-10-11T10:40:36Z</time>
      </trkpt>
      <trkpt lat="59.153393" lon="18.135359">
        <ele>47.4</ele>
        <time>2014-10-11T10:40:37Z</time>
      </trkpt>
      <trkpt lat="59.153388" lon="18.135543">
        <ele>47.3</ele>
        <time>2014-10-11T10:40:38Z</time>
      </trkpt>
      <trkpt lat="59.153386" lon="18.13572">
        <ele>47.2</ele>
        <time>2014-10-11T10:40:39Z</time>
      </trkpt>
      <trkpt lat="59.153382" lon="18.135881">
        <ele>47.1</ele>
        <time>2014-10-11T10:40:40Z</time>
      </trkpt>
      <trkpt lat="59.153344" lon="18.136016">
        <ele>47.1</ele>
        <time>2014-10-11T10:40:41Z</time>
      </trkpt>
      <trkpt lat="59.1533" lon="18.136123">
        <ele>47.2</ele>
        <time>2014-10-11T10:40:42Z</time>
      </trkpt>
      <trkpt lat="59.153252" lon="18.136214">
        <ele>47.2</ele>
        <time>2014-10-11T10:40:43Z</time>
      </trkpt>
      <trkpt lat="59.153199" lon="18.136342">
        <ele>47.4</ele>
        <time>2014-10-11T10:40:44Z</time>
      </trkpt>
      <trkpt lat="59.153174" lon="18.136488">
        <ele>47.5</ele>
        <time>2014-10-11T10:40:45Z</time>
      </trkpt>
      <trkpt lat="59.15317" lon="18.136649">
        <ele>47.6</ele>
        <time>2014-10-11T10:40:46Z</time>
      </trkpt>
      <trkpt lat="59.153185" lon="18.136821">
        <ele>47.6</ele>
        <time>2014-10-11T10:40:47Z</time>
      </trkpt>
      <trkpt lat="59.153202" lon="18.136982">
        <ele>47.6</ele>
        <time>2014-10-11T10:40:48Z</time>
      </trkpt>
      <trkpt lat="59.153209" lon="18.13716">
        <ele>47.6</ele>
        <time>2014-10-11T10:40:49Z</time>
      </trkpt>
      <trkpt lat="59.153205" lon="18.137324">
        <ele>47.6</ele>
        <time>2014-10-11T10:40:50Z</time>
      </trkpt>
      <trkpt lat="59.153203" lon="18.137486">
        <ele>47.6</ele>
        <time>2014-10-11T10:40:51Z</time>
      </trkpt>
      <trkpt lat="59.153202" lon="18.137646">
        <ele>47.6</ele>
        <time>2014-10-11T10:40:52Z</time>
      </trkpt>
      <trkpt lat="59.153207" lon="18.137831">
        <ele>47.6</ele>
        <time>2014-10-11T10:40:53Z</time>
      </trkpt>
      <trkpt lat="59.15321" lon="18.138005">
        <ele>47.5</ele>
        <time>2014-10-11T10:40:54Z</time>
      </trkpt>
      <trkpt lat="59.153224" lon="18.138157">
        <ele>47.3</ele>
        <time>2014-10-11T10:40:55Z</time>
      </trkpt>
      <trkpt lat="59.153242" lon="18.1383">
        <ele>47.2</ele>
        <time>2014-10-11T10:40:56Z</time>
      </trkpt>
      <trkpt lat="59.153261" lon="18.138463">
        <ele>47</ele>
        <time>2014-10-11T10:40:57Z</time>
      </trkpt>
      <trkpt lat="59.153282" lon="18.138633">
        <ele>46.8</ele>
        <time>2014-10-11T10:40:58Z</time>
      </trkpt>
      <trkpt lat="59.153303" lon="18.138785">
        <ele>46.6</ele>
        <time>2014-10-11T10:40:59Z</time>
      </trkpt>
      <trkpt lat="59.153325" lon="18.13895">
        <ele>46.6</ele>
        <time>2014-10-11T10:41:00Z</time>
      </trkpt>
      <trkpt lat="59.153343" lon="18.1391">
        <ele>46.7</ele>
        <time>2014-10-11T10:41:01Z</time>
      </trkpt>
      <trkpt lat="59.153363" lon="18.139278">
        <ele>46.7</ele>
        <time>2014-10-11T10:41:02Z</time>
      </trkpt>
      <trkpt lat="59.153386" lon="18.139436">
        <ele>46.8</ele>
        <time>2014-10-11T10:41:03Z</time>
      </trkpt>
      <trkpt lat="59.153406" lon="18.139608">
        <ele>46.8</ele>
        <time>2014-10-11T10:41:04Z</time>
      </trkpt>
      <trkpt lat="59.153426" lon="18.139782">
        <ele>46.8</ele>
        <time>2014-10-11T10:41:05Z</time>
      </trkpt>
      <trkpt lat="59.153446" lon="18.13993">
        <ele>46.8</ele>
        <time>2014-10-11T10:41:06Z</time>
      </trkpt>
      <trkpt lat="59.153464" lon="18.140096">
        <ele>46.9</ele>
        <time>2014-10-11T10:41:07Z</time>
      </trkpt>
      <trkpt lat="59.153476" lon="18.140259">
        <ele>46.9</ele>
        <time>2014-10-11T10:41:08Z</time>
      </trkpt>
      <trkpt lat="59.1535" lon="18.14042">
        <ele>47</ele>
        <time>2014-10-11T10:41:09Z</time>
      </trkpt>
      <trkpt lat="59.153512" lon="18.140576">
        <ele>47</ele>
        <time>2014-10-11T10:41:10Z</time>
      </trkpt>
      <trkpt lat="59.15353" lon="18.140741">
        <ele>47</ele>
        <time>2014-10-11T10:41:11Z</time>
      </trkpt>
      <trkpt lat="59.15353" lon="18.14091">
        <ele>47</ele>
        <time>2014-10-11T10:41:12Z</time>
      </trkpt>
      <trkpt lat="59.153539" lon="18.141088">
        <ele>47</ele>
        <time>2014-10-11T10:41:13Z</time>
      </trkpt>
      <trkpt lat="59.153549" lon="18.141237">
        <ele>47</ele>
        <time>2014-10-11T10:41:14Z</time>
      </trkpt>
      <trkpt lat="59.15356" lon="18.141396">
        <ele>47.1</ele>
        <time>2014-10-11T10:41:15Z</time>
      </trkpt>
      <trkpt lat="59.153566" lon="18.141545">
        <ele>47.2</ele>
        <time>2014-10-11T10:41:16Z</time>
      </trkpt>
      <trkpt lat="59.153572" lon="18.14169">
        <ele>47.3</ele>
        <time>2014-10-11T10:41:17Z</time>
      </trkpt>
      <trkpt lat="59.153577" lon="18.141852">
        <ele>47.4</ele>
        <time>2014-10-11T10:41:18Z</time>
      </trkpt>
      <trkpt lat="59.153579" lon="18.142014">
        <ele>47.5</ele>
        <time>2014-10-11T10:41:19Z</time>
      </trkpt>
      <trkpt lat="59.153579" lon="18.142178">
        <ele>47.6</ele>
        <time>2014-10-11T10:41:20Z</time>
      </trkpt>
      <trkpt lat="59.153586" lon="18.142343">
        <ele>47.7</ele>
        <time>2014-10-11T10:41:21Z</time>
      </trkpt>
      <trkpt lat="59.153588" lon="18.142485">
        <ele>47.7</ele>
        <time>2014-10-11T10:41:22Z</time>
      </trkpt>
      <trkpt lat="59.153588" lon="18.142636">
        <ele>47.7</ele>
        <time>2014-10-11T10:41:23Z</time>
      </trkpt>
      <trkpt lat="59.153585" lon="18.142779">
        <ele>47.8</ele>
        <time>2014-10-11T10:41:24Z</time>
      </trkpt>
      <trkpt lat="59.153582" lon="18.142932">
        <ele>47.8</ele>
        <time>2014-10-11T10:41:25Z</time>
      </trkpt>
      <trkpt lat="59.153575" lon="18.143014">
        <ele>47.9</ele>
        <time>2014-10-11T10:41:26Z</time>
      </trkpt>
      <trkpt lat="59.153599" lon="18.143175">
        <ele>48.2</ele>
        <time>2014-10-11T10:41:27Z</time>
      </trkpt>
      <trkpt lat="59.153621" lon="18.143357">
        <ele>48.5</ele>
        <time>2014-10-11T10:41:28Z</time>
      </trkpt>
      <trkpt lat="59.153633" lon="18.14353">
        <ele>48.7</ele>
        <time>2014-10-11T10:41:29Z</time>
      </trkpt>
      <trkpt lat="59.153641" lon="18.14368">
        <ele>48.9</ele>
        <time>2014-10-11T10:41:30Z</time>
      </trkpt>
      <trkpt lat="59.153643" lon="18.143858">
        <ele>49</ele>
        <time>2014-10-11T10:41:31Z</time>
      </trkpt>
      <trkpt lat="59.153651" lon="18.144035">
        <ele>49</ele>
        <time>2014-10-11T10:41:32Z</time>
      </trkpt>
      <trkpt lat="59.153645" lon="18.144207">
        <ele>48.9</ele>
        <time>2014-10-11T10:41:33Z</time>
      </trkpt>
      <trkpt lat="59.153652" lon="18.144411">
        <ele>48.9</ele>
        <time>2014-10-11T10:41:34Z</time>
      </trkpt>
      <trkpt lat="59.153655" lon="18.144561">
        <ele>48.9</ele>
        <time>2014-10-11T10:41:35Z</time>
      </trkpt>
      <trkpt lat="59.153656" lon="18.144687">
        <ele>48.7</ele>
        <time>2014-10-11T10:41:36Z</time>
      </trkpt>
      <trkpt lat="59.153669" lon="18.144879">
        <ele>48.5</ele>
        <time>2014-10-11T10:41:37Z</time>
      </trkpt>
      <trkpt lat="59.153677" lon="18.145035">
        <ele>48.3</ele>
        <time>2014-10-11T10:41:38Z</time>
      </trkpt>
      <trkpt lat="59.153687" lon="18.145185">
        <ele>48.1</ele>
        <time>2014-10-11T10:41:39Z</time>
      </trkpt>
      <trkpt lat="59.15369" lon="18.145348">
        <ele>47.9</ele>
        <time>2014-10-11T10:41:40Z</time>
      </trkpt>
      <trkpt lat="59.153691" lon="18.145506">
        <ele>47.7</ele>
        <time>2014-10-11T10:41:41Z</time>
      </trkpt>
      <trkpt lat="59.153694" lon="18.145683">
        <ele>47.5</ele>
        <time>2014-10-11T10:41:42Z</time>
      </trkpt>
      <trkpt lat="59.153698" lon="18.145831">
        <ele>47.3</ele>
        <time>2014-10-11T10:41:43Z</time>
      </trkpt>
      <trkpt lat="59.1537" lon="18.145989">
        <ele>47.2</ele>
        <time>2014-10-11T10:41:44Z</time>
      </trkpt>
      <trkpt lat="59.153704" lon="18.146154">
        <ele>47</ele>
        <time>2014-10-11T10:41:45Z</time>
      </trkpt>
      <trkpt lat="59.153709" lon="18.146299">
        <ele>46.8</ele>
        <time>2014-10-11T10:41:46Z</time>
      </trkpt>
      <trkpt lat="59.153718" lon="18.146473">
        <ele>46.6</ele>
        <time>2014-10-11T10:41:47Z</time>
      </trkpt>
      <trkpt lat="59.153729" lon="18.14661">
        <ele>46.5</ele>
        <time>2014-10-11T10:41:48Z</time>
      </trkpt>
      <trkpt lat="59.153734" lon="18.146755">
        <ele>46.3</ele>
        <time>2014-10-11T10:41:49Z</time>
      </trkpt>
      <trkpt lat="59.153747" lon="18.146908">
        <ele>46.2</ele>
        <time>2014-10-11T10:41:50Z</time>
      </trkpt>
      <trkpt lat="59.15375" lon="18.147052">
        <ele>46</ele>
        <time>2014-10-11T10:41:51Z</time>
      </trkpt>
      <trkpt lat="59.153759" lon="18.147204">
        <ele>45.9</ele>
        <time>2014-10-11T10:41:52Z</time>
      </trkpt>
      <trkpt lat="59.153766" lon="18.147364">
        <ele>45.7</ele>
        <time>2014-10-11T10:41:53Z</time>
      </trkpt>
      <trkpt lat="59.15377" lon="18.147496">
        <ele>45.6</ele>
        <time>2014-10-11T10:41:54Z</time>
      </trkpt>
      <trkpt lat="59.153775" lon="18.147649">
        <ele>45.4</ele>
        <time>2014-10-11T10:41:55Z</time>
      </trkpt>
      <trkpt lat="59.15378" lon="18.147789">
        <ele>45.3</ele>
        <time>2014-10-11T10:41:56Z</time>
      </trkpt>
      <trkpt lat="59.153789" lon="18.147937">
        <ele>45.2</ele>
        <time>2014-10-11T10:41:57Z</time>
      </trkpt>
      <trkpt lat="59.153795" lon="18.148084">
        <ele>45</ele>
        <time>2014-10-11T10:41:58Z</time>
      </trkpt>
      <trkpt lat="59.153809" lon="18.148221">
        <ele>44.9</ele>
        <time>2014-10-11T10:41:59Z</time>
      </trkpt>
      <trkpt lat="59.153814" lon="18.148372">
        <ele>44.8</ele>
        <time>2014-10-11T10:42:00Z</time>
      </trkpt>
      <trkpt lat="59.153822" lon="18.148527">
        <ele>44.6</ele>
        <time>2014-10-11T10:42:01Z</time>
      </trkpt>
      <trkpt lat="59.153826" lon="18.14866">
        <ele>44.5</ele>
        <time>2014-10-11T10:42:02Z</time>
      </trkpt>
      <trkpt lat="59.153837" lon="18.148818">
        <ele>44.5</ele>
        <time>2014-10-11T10:42:03Z</time>
      </trkpt>
      <trkpt lat="59.153847" lon="18.148956">
        <ele>44.7</ele>
        <time>2014-10-11T10:42:04Z</time>
      </trkpt>
      <trkpt lat="59.153852" lon="18.149093">
        <ele>44.8</ele>
        <time>2014-10-11T10:42:05Z</time>
      </trkpt>
      <trkpt lat="59.153859" lon="18.149248">
        <ele>45</ele>
        <time>2014-10-11T10:42:06Z</time>
      </trkpt>
      <trkpt lat="59.153868" lon="18.149392">
        <ele>45.1</ele>
        <time>2014-10-11T10:42:07Z</time>
      </trkpt>
      <trkpt lat="59.153878" lon="18.149537">
        <ele>45.3</ele>
        <time>2014-10-11T10:42:08Z</time>
      </trkpt>
      <trkpt lat="59.153886" lon="18.14968">
        <ele>45.4</ele>
        <time>2014-10-11T10:42:09Z</time>
      </trkpt>
      <trkpt lat="59.153897" lon="18.14983">
        <ele>45.5</ele>
        <time>2014-10-11T10:42:10Z</time>
      </trkpt>
      <trkpt lat="59.153908" lon="18.149995">
        <ele>45.7</ele>
        <time>2014-10-11T10:42:11Z</time>
      </trkpt>
      <trkpt lat="59.153917" lon="18.150155">
        <ele>45.8</ele>
        <time>2014-10-11T10:42:12Z</time>
      </trkpt>
      <trkpt lat="59.153923" lon="18.150306">
        <ele>45.9</ele>
        <time>2014-10-11T10:42:13Z</time>
      </trkpt>
      <trkpt lat="59.153932" lon="18.150463">
        <ele>46</ele>
        <time>2014-10-11T10:42:14Z</time>
      </trkpt>
      <trkpt lat="59.153944" lon="18.150609">
        <ele>46</ele>
        <time>2014-10-11T10:42:15Z</time>
      </trkpt>
      <trkpt lat="59.153954" lon="18.150758">
        <ele>46</ele>
        <time>2014-10-11T10:42:16Z</time>
      </trkpt>
      <trkpt lat="59.153961" lon="18.150907">
        <ele>46</ele>
        <time>2014-10-11T10:42:17Z</time>
      </trkpt>
      <trkpt lat="59.153971" lon="18.151053">
        <ele>46</ele>
        <time>2014-10-11T10:42:18Z</time>
      </trkpt>
      <trkpt lat="59.15398" lon="18.151204">
        <ele>46</ele>
        <time>2014-10-11T10:42:19Z</time>
      </trkpt>
      <trkpt lat="59.153986" lon="18.151361">
        <ele>46.1</ele>
        <time>2014-10-11T10:42:20Z</time>
      </trkpt>
      <trkpt lat="59.153994" lon="18.151501">
        <ele>46.1</ele>
        <time>2014-10-11T10:42:21Z</time>
      </trkpt>
      <trkpt lat="59.154003" lon="18.15164">
        <ele>46.2</ele>
        <time>2014-10-11T10:42:22Z</time>
      </trkpt>
      <trkpt lat="59.154013" lon="18.151762">
        <ele>46.2</ele>
        <time>2014-10-11T10:42:23Z</time>
      </trkpt>
      <trkpt lat="59.154022" lon="18.151907">
        <ele>46.3</ele>
        <time>2014-10-11T10:42:24Z</time>
      </trkpt>
      <trkpt lat="59.154032" lon="18.152051">
        <ele>46.3</ele>
        <time>2014-10-11T10:42:25Z</time>
      </trkpt>
      <trkpt lat="59.154041" lon="18.152186">
        <ele>46.4</ele>
        <time>2014-10-11T10:42:26Z</time>
      </trkpt>
      <trkpt lat="59.154063" lon="18.152343">
        <ele>46.4</ele>
        <time>2014-10-11T10:42:27Z</time>
      </trkpt>
      <trkpt lat="59.154063" lon="18.152479">
        <ele>46.5</ele>
        <time>2014-10-11T10:42:28Z</time>
      </trkpt>
      <trkpt lat="59.154049" lon="18.152609">
        <ele>46.7</ele>
        <time>2014-10-11T10:42:29Z</time>
      </trkpt>
      <trkpt lat="59.154036" lon="18.15275">
        <ele>46.8</ele>
        <time>2014-10-11T10:42:30Z</time>
      </trkpt>
      <trkpt lat="59.154036" lon="18.152898">
        <ele>47</ele>
        <time>2014-10-11T10:42:31Z</time>
      </trkpt>
      <trkpt lat="59.154049" lon="18.153046">
        <ele>47</ele>
        <time>2014-10-11T10:42:32Z</time>
      </trkpt>
      <trkpt lat="59.154076" lon="18.153184">
        <ele>47</ele>
        <time>2014-10-11T10:42:33Z</time>
      </trkpt>
      <trkpt lat="59.154095" lon="18.153335">
        <ele>47.1</ele>
        <time>2014-10-11T10:42:34Z</time>
      </trkpt>
      <trkpt lat="59.154123" lon="18.153494">
        <ele>47</ele>
        <time>2014-10-11T10:42:35Z</time>
      </trkpt>
      <trkpt lat="59.154148" lon="18.153644">
        <ele>47</ele>
        <time>2014-10-11T10:42:36Z</time>
      </trkpt>
      <trkpt lat="59.154171" lon="18.153775">
        <ele>46.9</ele>
        <time>2014-10-11T10:42:37Z</time>
      </trkpt>
      <trkpt lat="59.154186" lon="18.153913">
        <ele>46.6</ele>
        <time>2014-10-11T10:42:38Z</time>
      </trkpt>
      <trkpt lat="59.15421" lon="18.154064">
        <ele>46.2</ele>
        <time>2014-10-11T10:42:39Z</time>
      </trkpt>
      <trkpt lat="59.154231" lon="18.154205">
        <ele>45.9</ele>
        <time>2014-10-11T10:42:40Z</time>
      </trkpt>
      <trkpt lat="59.154239" lon="18.154351">
        <ele>45.6</ele>
        <time>2014-10-11T10:42:41Z</time>
      </trkpt>
      <trkpt lat="59.154253" lon="18.154505">
        <ele>45.3</ele>
        <time>2014-10-11T10:42:42Z</time>
      </trkpt>
      <trkpt lat="59.154268" lon="18.154647">
        <ele>45</ele>
        <time>2014-10-11T10:42:43Z</time>
      </trkpt>
      <trkpt lat="59.154281" lon="18.154796">
        <ele>44.7</ele>
        <time>2014-10-11T10:42:44Z</time>
      </trkpt>
      <trkpt lat="59.154302" lon="18.154953">
        <ele>44.4</ele>
        <time>2014-10-11T10:42:45Z</time>
      </trkpt>
      <trkpt lat="59.154312" lon="18.1551">
        <ele>44.2</ele>
        <time>2014-10-11T10:42:46Z</time>
      </trkpt>
      <trkpt lat="59.154326" lon="18.155243">
        <ele>43.9</ele>
        <time>2014-10-11T10:42:47Z</time>
      </trkpt>
      <trkpt lat="59.154344" lon="18.155392">
        <ele>43.6</ele>
        <time>2014-10-11T10:42:48Z</time>
      </trkpt>
      <trkpt lat="59.154361" lon="18.155558">
        <ele>43.8</ele>
        <time>2014-10-11T10:42:49Z</time>
      </trkpt>
      <trkpt lat="59.154371" lon="18.155713">
        <ele>44.1</ele>
        <time>2014-10-11T10:42:50Z</time>
      </trkpt>
      <trkpt lat="59.15438" lon="18.155849">
        <ele>44.4</ele>
        <time>2014-10-11T10:42:51Z</time>
      </trkpt>
      <trkpt lat="59.1544" lon="18.156009">
        <ele>44.7</ele>
        <time>2014-10-11T10:42:52Z</time>
      </trkpt>
      <trkpt lat="59.154417" lon="18.156167">
        <ele>45</ele>
        <time>2014-10-11T10:42:53Z</time>
      </trkpt>
      <trkpt lat="59.154431" lon="18.156329">
        <ele>45.4</ele>
        <time>2014-10-11T10:42:54Z</time>
      </trkpt>
      <trkpt lat="59.15445" lon="18.156496">
        <ele>46</ele>
        <time>2014-10-11T10:42:55Z</time>
      </trkpt>
      <trkpt lat="59.154466" lon="18.15666">
        <ele>46.5</ele>
        <time>2014-10-11T10:42:56Z</time>
      </trkpt>
      <trkpt lat="59.154485" lon="18.156829">
        <ele>47</ele>
        <time>2014-10-11T10:42:57Z</time>
      </trkpt>
      <trkpt lat="59.154507" lon="18.156977">
        <ele>47.5</ele>
        <time>2014-10-11T10:42:58Z</time>
      </trkpt>
      <trkpt lat="59.154516" lon="18.157127">
        <ele>48.1</ele>
        <time>2014-10-11T10:42:59Z</time>
      </trkpt>
      <trkpt lat="59.154535" lon="18.157296">
        <ele>48.7</ele>
        <time>2014-10-11T10:43:00Z</time>
      </trkpt>
      <trkpt lat="59.154556" lon="18.157468">
        <ele>49.4</ele>
        <time>2014-10-11T10:43:01Z</time>
      </trkpt>
      <trkpt lat="59.154571" lon="18.157644">
        <ele>50</ele>
        <time>2014-10-11T10:43:02Z</time>
      </trkpt>
      <trkpt lat="59.154586" lon="18.157811">
        <ele>50.6</ele>
        <time>2014-10-11T10:43:03Z</time>
      </trkpt>
      <trkpt lat="59.154603" lon="18.157969">
        <ele>51.1</ele>
        <time>2014-10-11T10:43:04Z</time>
      </trkpt>
      <trkpt lat="59.154615" lon="18.158122">
        <ele>51.6</ele>
        <time>2014-10-11T10:43:05Z</time>
      </trkpt>
      <trkpt lat="59.154632" lon="18.158276">
        <ele>52.1</ele>
        <time>2014-10-11T10:43:06Z</time>
      </trkpt>
      <trkpt lat="59.15465" lon="18.158441">
        <ele>52.6</ele>
        <time>2014-10-11T10:43:07Z</time>
      </trkpt>
      <trkpt lat="59.154683" lon="18.158632">
        <ele>53.1</ele>
        <time>2014-10-11T10:43:08Z</time>
      </trkpt>
      <trkpt lat="59.154691" lon="18.158801">
        <ele>53.6</ele>
        <time>2014-10-11T10:43:09Z</time>
      </trkpt>
      <trkpt lat="59.154706" lon="18.158953">
        <ele>53.9</ele>
        <time>2014-10-11T10:43:10Z</time>
      </trkpt>
      <trkpt lat="59.154723" lon="18.159131">
        <ele>54.2</ele>
        <time>2014-10-11T10:43:11Z</time>
      </trkpt>
      <trkpt lat="59.154743" lon="18.159306">
        <ele>54.4</ele>
        <time>2014-10-11T10:43:12Z</time>
      </trkpt>
      <trkpt lat="59.154759" lon="18.159488">
        <ele>54.7</ele>
        <time>2014-10-11T10:43:13Z</time>
      </trkpt>
      <trkpt lat="59.154777" lon="18.159656">
        <ele>55</ele>
        <time>2014-10-11T10:43:14Z</time>
      </trkpt>
      <trkpt lat="59.154797" lon="18.159825">
        <ele>55.3</ele>
        <time>2014-10-11T10:43:15Z</time>
      </trkpt>
      <trkpt lat="59.154817" lon="18.159999">
        <ele>55.6</ele>
        <time>2014-10-11T10:43:16Z</time>
      </trkpt>
      <trkpt lat="59.154839" lon="18.1602">
        <ele>55.9</ele>
        <time>2014-10-11T10:43:17Z</time>
      </trkpt>
      <trkpt lat="59.154866" lon="18.160371">
        <ele>56.2</ele>
        <time>2014-10-11T10:43:18Z</time>
      </trkpt>
      <trkpt lat="59.154887" lon="18.160533">
        <ele>56.2</ele>
        <time>2014-10-11T10:43:19Z</time>
      </trkpt>
      <trkpt lat="59.154908" lon="18.160709">
        <ele>56.1</ele>
        <time>2014-10-11T10:43:20Z</time>
      </trkpt>
      <trkpt lat="59.154931" lon="18.160899">
        <ele>55.9</ele>
        <time>2014-10-11T10:43:21Z</time>
      </trkpt>
      <trkpt lat="59.154955" lon="18.161072">
        <ele>55.8</ele>
        <time>2014-10-11T10:43:22Z</time>
      </trkpt>
      <trkpt lat="59.154977" lon="18.161251">
        <ele>55.6</ele>
        <time>2014-10-11T10:43:23Z</time>
      </trkpt>
      <trkpt lat="59.155007" lon="18.161434">
        <ele>55.5</ele>
        <time>2014-10-11T10:43:24Z</time>
      </trkpt>
      <trkpt lat="59.155036" lon="18.161573">
        <ele>55.3</ele>
        <time>2014-10-11T10:43:25Z</time>
      </trkpt>
      <trkpt lat="59.15506" lon="18.161756">
        <ele>55.1</ele>
        <time>2014-10-11T10:43:26Z</time>
      </trkpt>
      <trkpt lat="59.155071" lon="18.161928">
        <ele>55.1</ele>
        <time>2014-10-11T10:43:27Z</time>
      </trkpt>
      <trkpt lat="59.155101" lon="18.162099">
        <ele>54.9</ele>
        <time>2014-10-11T10:43:28Z</time>
      </trkpt>
      <trkpt lat="59.155128" lon="18.162265">
        <ele>54.3</ele>
        <time>2014-10-11T10:43:29Z</time>
      </trkpt>
      <trkpt lat="59.155147" lon="18.162445">
        <ele>53.8</ele>
        <time>2014-10-11T10:43:30Z</time>
      </trkpt>
      <trkpt lat="59.155165" lon="18.162616">
        <ele>53.3</ele>
        <time>2014-10-11T10:43:31Z</time>
      </trkpt>
      <trkpt lat="59.155186" lon="18.162784">
        <ele>52.8</ele>
        <time>2014-10-11T10:43:32Z</time>
      </trkpt>
      <trkpt lat="59.155206" lon="18.162974">
        <ele>52.3</ele>
        <time>2014-10-11T10:43:33Z</time>
      </trkpt>
      <trkpt lat="59.155227" lon="18.163156">
        <ele>51.7</ele>
        <time>2014-10-11T10:43:34Z</time>
      </trkpt>
      <trkpt lat="59.155255" lon="18.163336">
        <ele>51.1</ele>
        <time>2014-10-11T10:43:35Z</time>
      </trkpt>
      <trkpt lat="59.155277" lon="18.163516">
        <ele>50.5</ele>
        <time>2014-10-11T10:43:36Z</time>
      </trkpt>
      <trkpt lat="59.155302" lon="18.1637">
        <ele>50</ele>
        <time>2014-10-11T10:43:37Z</time>
      </trkpt>
      <trkpt lat="59.155335" lon="18.163864">
        <ele>49.6</ele>
        <time>2014-10-11T10:43:38Z</time>
      </trkpt>
      <trkpt lat="59.15536" lon="18.164055">
        <ele>49.2</ele>
        <time>2014-10-11T10:43:39Z</time>
      </trkpt>
      <trkpt lat="59.155389" lon="18.164258">
        <ele>48.7</ele>
        <time>2014-10-11T10:43:40Z</time>
      </trkpt>
      <trkpt lat="59.155417" lon="18.164431">
        <ele>48.4</ele>
        <time>2014-10-11T10:43:41Z</time>
      </trkpt>
      <trkpt lat="59.155435" lon="18.164597">
        <ele>48.1</ele>
        <time>2014-10-11T10:43:42Z</time>
      </trkpt>
      <trkpt lat="59.155459" lon="18.164762">
        <ele>47.8</ele>
        <time>2014-10-11T10:43:43Z</time>
      </trkpt>
      <trkpt lat="59.155489" lon="18.16495">
        <ele>47.6</ele>
        <time>2014-10-11T10:43:44Z</time>
      </trkpt>
      <trkpt lat="59.155526" lon="18.165126">
        <ele>47.4</ele>
        <time>2014-10-11T10:43:45Z</time>
      </trkpt>
      <trkpt lat="59.155551" lon="18.165308">
        <ele>47.1</ele>
        <time>2014-10-11T10:43:46Z</time>
      </trkpt>
      <trkpt lat="59.155585" lon="18.165493">
        <ele>47</ele>
        <time>2014-10-11T10:43:47Z</time>
      </trkpt>
      <trkpt lat="59.155613" lon="18.165667">
        <ele>47</ele>
        <time>2014-10-11T10:43:48Z</time>
      </trkpt>
      <trkpt lat="59.155646" lon="18.16585">
        <ele>47.1</ele>
        <time>2014-10-11T10:43:49Z</time>
      </trkpt>
      <trkpt lat="59.155674" lon="18.16603">
        <ele>47.1</ele>
        <time>2014-10-11T10:43:50Z</time>
      </trkpt>
      <trkpt lat="59.155707" lon="18.166216">
        <ele>47.1</ele>
        <time>2014-10-11T10:43:51Z</time>
      </trkpt>
      <trkpt lat="59.155736" lon="18.166413">
        <ele>46.9</ele>
        <time>2014-10-11T10:43:52Z</time>
      </trkpt>
      <trkpt lat="59.155774" lon="18.166595">
        <ele>46.7</ele>
        <time>2014-10-11T10:43:53Z</time>
      </trkpt>
      <trkpt lat="59.155798" lon="18.166769">
        <ele>46.5</ele>
        <time>2014-10-11T10:43:54Z</time>
      </trkpt>
      <trkpt lat="59.155828" lon="18.166961">
        <ele>46.2</ele>
        <time>2014-10-11T10:43:55Z</time>
      </trkpt>
      <trkpt lat="59.155851" lon="18.167154">
        <ele>45.9</ele>
        <time>2014-10-11T10:43:56Z</time>
      </trkpt>
      <trkpt lat="59.155884" lon="18.167324">
        <ele>45.7</ele>
        <time>2014-10-11T10:43:57Z</time>
      </trkpt>
      <trkpt lat="59.15591" lon="18.167516">
        <ele>45.4</ele>
        <time>2014-10-11T10:43:58Z</time>
      </trkpt>
      <trkpt lat="59.155939" lon="18.167696">
        <ele>45.1</ele>
        <time>2014-10-11T10:43:59Z</time>
      </trkpt>
      <trkpt lat="59.155978" lon="18.167888">
        <ele>44.7</ele>
        <time>2014-10-11T10:44:00Z</time>
      </trkpt>
      <trkpt lat="59.156012" lon="18.16809">
        <ele>44.3</ele>
        <time>2014-10-11T10:44:01Z</time>
      </trkpt>
      <trkpt lat="59.15604" lon="18.168273">
        <ele>43.9</ele>
        <time>2014-10-11T10:44:02Z</time>
      </trkpt>
      <trkpt lat="59.156072" lon="18.168452">
        <ele>43.5</ele>
        <time>2014-10-11T10:44:03Z</time>
      </trkpt>
      <trkpt lat="59.156093" lon="18.168647">
        <ele>43.1</ele>
        <time>2014-10-11T10:44:04Z</time>
      </trkpt>
      <trkpt lat="59.156132" lon="18.16884">
        <ele>42.7</ele>
        <time>2014-10-11T10:44:05Z</time>
      </trkpt>
      <trkpt lat="59.156158" lon="18.169032">
        <ele>42.3</ele>
        <time>2014-10-11T10:44:06Z</time>
      </trkpt>
      <trkpt lat="59.156189" lon="18.169235">
        <ele>41.8</ele>
        <time>2014-10-11T10:44:07Z</time>
      </trkpt>
      <trkpt lat="59.156221" lon="18.169427">
        <ele>41.4</ele>
        <time>2014-10-11T10:44:08Z</time>
      </trkpt>
      <trkpt lat="59.156245" lon="18.169616">
        <ele>40.9</ele>
        <time>2014-10-11T10:44:09Z</time>
      </trkpt>
      <trkpt lat="59.156277" lon="18.169797">
        <ele>40.9</ele>
        <time>2014-10-11T10:44:10Z</time>
      </trkpt>
      <trkpt lat="59.156311" lon="18.169984">
        <ele>40.9</ele>
        <time>2014-10-11T10:44:11Z</time>
      </trkpt>
      <trkpt lat="59.156341" lon="18.170172">
        <ele>40.9</ele>
        <time>2014-10-11T10:44:12Z</time>
      </trkpt>
      <trkpt lat="59.15638" lon="18.170353">
        <ele>41</ele>
        <time>2014-10-11T10:44:13Z</time>
      </trkpt>
      <trkpt lat="59.15641" lon="18.170539">
        <ele>41.2</ele>
        <time>2014-10-11T10:44:14Z</time>
      </trkpt>
      <trkpt lat="59.156438" lon="18.170734">
        <ele>41.4</ele>
        <time>2014-10-11T10:44:15Z</time>
      </trkpt>
      <trkpt lat="59.156459" lon="18.17092">
        <ele>41.6</ele>
        <time>2014-10-11T10:44:16Z</time>
      </trkpt>
      <trkpt lat="59.156471" lon="18.171117">
        <ele>41.5</ele>
        <time>2014-10-11T10:44:17Z</time>
      </trkpt>
      <trkpt lat="59.156496" lon="18.171313">
        <ele>41.6</ele>
        <time>2014-10-11T10:44:18Z</time>
      </trkpt>
      <trkpt lat="59.156512" lon="18.171504">
        <ele>41.8</ele>
        <time>2014-10-11T10:44:19Z</time>
      </trkpt>
      <trkpt lat="59.156526" lon="18.171707">
        <ele>41.8</ele>
        <time>2014-10-11T10:44:20Z</time>
      </trkpt>
      <trkpt lat="59.156542" lon="18.171905">
        <ele>41.8</ele>
        <time>2014-10-11T10:44:21Z</time>
      </trkpt>
      <trkpt lat="59.156542" lon="18.172091">
        <ele>41.8</ele>
        <time>2014-10-11T10:44:22Z</time>
      </trkpt>
      <trkpt lat="59.156548" lon="18.17225">
        <ele>42.1</ele>
        <time>2014-10-11T10:44:23Z</time>
      </trkpt>
      <trkpt lat="59.156555" lon="18.172435">
        <ele>42.5</ele>
        <time>2014-10-11T10:44:24Z</time>
      </trkpt>
      <trkpt lat="59.156563" lon="18.172633">
        <ele>42.9</ele>
        <time>2014-10-11T10:44:25Z</time>
      </trkpt>
      <trkpt lat="59.156557" lon="18.172776">
        <ele>43.1</ele>
        <time>2014-10-11T10:44:26Z</time>
      </trkpt>
      <trkpt lat="59.156542" lon="18.172965">
        <ele>43.4</ele>
        <time>2014-10-11T10:44:27Z</time>
      </trkpt>
      <trkpt lat="59.156532" lon="18.173142">
        <ele>43.7</ele>
        <time>2014-10-11T10:44:28Z</time>
      </trkpt>
      <trkpt lat="59.156515" lon="18.173305">
        <ele>44</ele>
        <time>2014-10-11T10:44:29Z</time>
      </trkpt>
      <trkpt lat="59.1565" lon="18.17351">
        <ele>44.4</ele>
        <time>2014-10-11T10:44:30Z</time>
      </trkpt>
      <trkpt lat="59.156492" lon="18.173699">
        <ele>44.7</ele>
        <time>2014-10-11T10:44:31Z</time>
      </trkpt>
      <trkpt lat="59.156479" lon="18.173887">
        <ele>44.7</ele>
        <time>2014-10-11T10:44:32Z</time>
      </trkpt>
      <trkpt lat="59.156465" lon="18.174073">
        <ele>44.6</ele>
        <time>2014-10-11T10:44:33Z</time>
      </trkpt>
      <trkpt lat="59.156432" lon="18.174263">
        <ele>44.5</ele>
        <time>2014-10-11T10:44:34Z</time>
      </trkpt>
      <trkpt lat="59.15641" lon="18.17444">
        <ele>44.4</ele>
        <time>2014-10-11T10:44:35Z</time>
      </trkpt>
      <trkpt lat="59.156386" lon="18.17462">
        <ele>44.3</ele>
        <time>2014-10-11T10:44:36Z</time>
      </trkpt>
      <trkpt lat="59.156359" lon="18.174832">
        <ele>43.9</ele>
        <time>2014-10-11T10:44:37Z</time>
      </trkpt>
      <trkpt lat="59.156338" lon="18.174994">
        <ele>43.6</ele>
        <time>2014-10-11T10:44:38Z</time>
      </trkpt>
      <trkpt lat="59.156302" lon="18.175159">
        <ele>43.4</ele>
        <time>2014-10-11T10:44:39Z</time>
      </trkpt>
      <trkpt lat="59.156264" lon="18.175325">
        <ele>43.2</ele>
        <time>2014-10-11T10:44:40Z</time>
      </trkpt>
      <trkpt lat="59.156223" lon="18.175513">
        <ele>42.7</ele>
        <time>2014-10-11T10:44:41Z</time>
      </trkpt>
      <trkpt lat="59.156186" lon="18.175685">
        <ele>42.3</ele>
        <time>2014-10-11T10:44:42Z</time>
      </trkpt>
      <trkpt lat="59.156146" lon="18.17586">
        <ele>41.9</ele>
        <time>2014-10-11T10:44:43Z</time>
      </trkpt>
      <trkpt lat="59.1561" lon="18.176031">
        <ele>41.6</ele>
        <time>2014-10-11T10:44:44Z</time>
      </trkpt>
      <trkpt lat="59.156055" lon="18.176184">
        <ele>41.4</ele>
        <time>2014-10-11T10:44:45Z</time>
      </trkpt>
      <trkpt lat="59.156001" lon="18.176352">
        <ele>41.1</ele>
        <time>2014-10-11T10:44:46Z</time>
      </trkpt>
      <trkpt lat="59.155957" lon="18.176502">
        <ele>41</ele>
        <time>2014-10-11T10:44:47Z</time>
      </trkpt>
      <trkpt lat="59.155896" lon="18.176658">
        <ele>40.9</ele>
        <time>2014-10-11T10:44:48Z</time>
      </trkpt>
      <trkpt lat="59.155835" lon="18.176818">
        <ele>40.8</ele>
        <time>2014-10-11T10:44:49Z</time>
      </trkpt>
      <trkpt lat="59.155776" lon="18.176965">
        <ele>40.8</ele>
        <time>2014-10-11T10:44:50Z</time>
      </trkpt>
      <trkpt lat="59.15571" lon="18.177115">
        <ele>40.9</ele>
        <time>2014-10-11T10:44:51Z</time>
      </trkpt>
      <trkpt lat="59.155656" lon="18.177252">
        <ele>40.8</ele>
        <time>2014-10-11T10:44:52Z</time>
      </trkpt>
      <trkpt lat="59.155591" lon="18.177385">
        <ele>40.7</ele>
        <time>2014-10-11T10:44:53Z</time>
      </trkpt>
      <trkpt lat="59.155517" lon="18.177532">
        <ele>40.6</ele>
        <time>2014-10-11T10:44:54Z</time>
      </trkpt>
      <trkpt lat="59.155441" lon="18.177674">
        <ele>40.5</ele>
        <time>2014-10-11T10:44:55Z</time>
      </trkpt>
      <trkpt lat="59.155368" lon="18.177794">
        <ele>40.4</ele>
        <time>2014-10-11T10:44:56Z</time>
      </trkpt>
      <trkpt lat="59.155292" lon="18.177926">
        <ele>40.3</ele>
        <time>2014-10-11T10:44:57Z</time>
      </trkpt>
      <trkpt lat="59.155222" lon="18.178043">
        <ele>40</ele>
        <time>2014-10-11T10:44:58Z</time>
      </trkpt>
      <trkpt lat="59.155132" lon="18.178167">
        <ele>39.9</ele>
        <time>2014-10-11T10:44:59Z</time>
      </trkpt>
      <trkpt lat="59.15506" lon="18.178276">
        <ele>39.7</ele>
        <time>2014-10-11T10:45:00Z</time>
      </trkpt>
      <trkpt lat="59.154987" lon="18.17838">
        <ele>39.6</ele>
        <time>2014-10-11T10:45:01Z</time>
      </trkpt>
      <trkpt lat="59.154899" lon="18.178491">
        <ele>39.6</ele>
        <time>2014-10-11T10:45:02Z</time>
      </trkpt>
      <trkpt lat="59.154814" lon="18.178579">
        <ele>39.6</ele>
        <time>2014-10-11T10:45:03Z</time>
      </trkpt>
      <trkpt lat="59.154727" lon="18.178668">
        <ele>39.7</ele>
        <time>2014-10-11T10:45:04Z</time>
      </trkpt>
      <trkpt lat="59.154634" lon="18.178757">
        <ele>39.8</ele>
        <time>2014-10-11T10:45:05Z</time>
      </trkpt>
      <trkpt lat="59.154556" lon="18.178841">
        <ele>39.9</ele>
        <time>2014-10-11T10:45:06Z</time>
      </trkpt>
      <trkpt lat="59.154461" lon="18.178936">
        <ele>39.9</ele>
        <time>2014-10-11T10:45:07Z</time>
      </trkpt>
      <trkpt lat="59.154378" lon="18.179009">
        <ele>39.9</ele>
        <time>2014-10-11T10:45:08Z</time>
      </trkpt>
      <trkpt lat="59.154286" lon="18.17908">
        <ele>40</ele>
        <time>2014-10-11T10:45:09Z</time>
      </trkpt>
      <trkpt lat="59.154186" lon="18.179146">
        <ele>40</ele>
        <time>2014-10-11T10:45:10Z</time>
      </trkpt>
      <trkpt lat="59.154097" lon="18.179201">
        <ele>40</ele>
        <time>2014-10-11T10:45:11Z</time>
      </trkpt>
      <trkpt lat="59.153998" lon="18.179257">
        <ele>40.1</ele>
        <time>2014-10-11T10:45:12Z</time>
      </trkpt>
      <trkpt lat="59.1539" lon="18.179299">
        <ele>40.2</ele>
        <time>2014-10-11T10:45:13Z</time>
      </trkpt>
      <trkpt lat="59.153808" lon="18.17934">
        <ele>40.2</ele>
        <time>2014-10-11T10:45:14Z</time>
      </trkpt>
      <trkpt lat="59.153711" lon="18.179389">
        <ele>40.1</ele>
        <time>2014-10-11T10:45:15Z</time>
      </trkpt>
      <trkpt lat="59.153599" lon="18.179414">
        <ele>39.6</ele>
        <time>2014-10-11T10:45:16Z</time>
      </trkpt>
      <trkpt lat="59.153504" lon="18.179446">
        <ele>39.2</ele>
        <time>2014-10-11T10:45:17Z</time>
      </trkpt>
      <trkpt lat="59.153407" lon="18.17948">
        <ele>38.8</ele>
        <time>2014-10-11T10:45:18Z</time>
      </trkpt>
      <trkpt lat="59.153322" lon="18.179466">
        <ele>38.5</ele>
        <time>2014-10-11T10:45:19Z</time>
      </trkpt>
      <trkpt lat="59.153222" lon="18.179489">
        <ele>38.1</ele>
        <time>2014-10-11T10:45:20Z</time>
      </trkpt>
      <trkpt lat="59.153131" lon="18.179492">
        <ele>37.8</ele>
        <time>2014-10-11T10:45:21Z</time>
      </trkpt>
      <trkpt lat="59.153039" lon="18.179499">
        <ele>37.5</ele>
        <time>2014-10-11T10:45:22Z</time>
      </trkpt>
      <trkpt lat="59.152941" lon="18.179489">
        <ele>37.1</ele>
        <time>2014-10-11T10:45:23Z</time>
      </trkpt>
      <trkpt lat="59.152852" lon="18.179486">
        <ele>36.8</ele>
        <time>2014-10-11T10:45:24Z</time>
      </trkpt>
      <trkpt lat="59.152756" lon="18.179481">
        <ele>36.6</ele>
        <time>2014-10-11T10:45:25Z</time>
      </trkpt>
      <trkpt lat="59.152658" lon="18.179467">
        <ele>36.4</ele>
        <time>2014-10-11T10:45:26Z</time>
      </trkpt>
      <trkpt lat="59.152582" lon="18.179484">
        <ele>36.2</ele>
        <time>2014-10-11T10:45:27Z</time>
      </trkpt>
      <trkpt lat="59.152486" lon="18.179478">
        <ele>36</ele>
        <time>2014-10-11T10:45:28Z</time>
      </trkpt>
      <trkpt lat="59.152397" lon="18.179471">
        <ele>35.8</ele>
        <time>2014-10-11T10:45:29Z</time>
      </trkpt>
      <trkpt lat="59.152306" lon="18.179468">
        <ele>35.5</ele>
        <time>2014-10-11T10:45:30Z</time>
      </trkpt>
      <trkpt lat="59.152214" lon="18.179474">
        <ele>35.3</ele>
        <time>2014-10-11T10:45:31Z</time>
      </trkpt>
      <trkpt lat="59.15212" lon="18.179461">
        <ele>35.1</ele>
        <time>2014-10-11T10:45:32Z</time>
      </trkpt>
      <trkpt lat="59.152025" lon="18.179462">
        <ele>35.1</ele>
        <time>2014-10-11T10:45:33Z</time>
      </trkpt>
      <trkpt lat="59.151927" lon="18.179457">
        <ele>35.2</ele>
        <time>2014-10-11T10:45:34Z</time>
      </trkpt>
      <trkpt lat="59.151837" lon="18.179453">
        <ele>35.3</ele>
        <time>2014-10-11T10:45:35Z</time>
      </trkpt>
      <trkpt lat="59.151744" lon="18.179446">
        <ele>35.5</ele>
        <time>2014-10-11T10:45:36Z</time>
      </trkpt>
      <trkpt lat="59.151648" lon="18.179437">
        <ele>35.6</ele>
        <time>2014-10-11T10:45:37Z</time>
      </trkpt>
      <trkpt lat="59.151562" lon="18.179436">
        <ele>35.7</ele>
        <time>2014-10-11T10:45:38Z</time>
      </trkpt>
      <trkpt lat="59.15147" lon="18.179438">
        <ele>35.9</ele>
        <time>2014-10-11T10:45:39Z</time>
      </trkpt>
      <trkpt lat="59.151374" lon="18.179434">
        <ele>36</ele>
        <time>2014-10-11T10:45:40Z</time>
      </trkpt>
      <trkpt lat="59.151283" lon="18.179437">
        <ele>36.1</ele>
        <time>2014-10-11T10:45:41Z</time>
      </trkpt>
      <trkpt lat="59.151178" lon="18.179438">
        <ele>36.3</ele>
        <time>2014-10-11T10:45:42Z</time>
      </trkpt>
      <trkpt lat="59.151091" lon="18.179431">
        <ele>36.4</ele>
        <time>2014-10-11T10:45:43Z</time>
      </trkpt>
      <trkpt lat="59.150997" lon="18.17944">
        <ele>36.5</ele>
        <time>2014-10-11T10:45:44Z</time>
      </trkpt>
      <trkpt lat="59.150897" lon="18.179446">
        <ele>36.6</ele>
        <time>2014-10-11T10:45:45Z</time>
      </trkpt>
      <trkpt lat="59.150811" lon="18.179454">
        <ele>36.7</ele>
        <time>2014-10-11T10:45:46Z</time>
      </trkpt>
      <trkpt lat="59.150722" lon="18.179459">
        <ele>36.8</ele>
        <time>2014-10-11T10:45:47Z</time>
      </trkpt>
      <trkpt lat="59.150625" lon="18.179459">
        <ele>36.9</ele>
        <time>2014-10-11T10:45:48Z</time>
      </trkpt>
      <trkpt lat="59.150541" lon="18.179459">
        <ele>37</ele>
        <time>2014-10-11T10:45:49Z</time>
      </trkpt>
      <trkpt lat="59.150439" lon="18.179459">
        <ele>37.1</ele>
        <time>2014-10-11T10:45:50Z</time>
      </trkpt>
      <trkpt lat="59.150359" lon="18.179467">
        <ele>37.2</ele>
        <time>2014-10-11T10:45:51Z</time>
      </trkpt>
      <trkpt lat="59.150274" lon="18.179484">
        <ele>37.3</ele>
        <time>2014-10-11T10:45:52Z</time>
      </trkpt>
      <trkpt lat="59.150176" lon="18.179487">
        <ele>37.4</ele>
        <time>2014-10-11T10:45:53Z</time>
      </trkpt>
      <trkpt lat="59.150092" lon="18.179501">
        <ele>37.5</ele>
        <time>2014-10-11T10:45:54Z</time>
      </trkpt>
      <trkpt lat="59.15" lon="18.179505">
        <ele>37.6</ele>
        <time>2014-10-11T10:45:55Z</time>
      </trkpt>
      <trkpt lat="59.149907" lon="18.179522">
        <ele>37.7</ele>
        <time>2014-10-11T10:45:56Z</time>
      </trkpt>
      <trkpt lat="59.149822" lon="18.17954">
        <ele>37.8</ele>
        <time>2014-10-11T10:45:57Z</time>
      </trkpt>
      <trkpt lat="59.149724" lon="18.179584">
        <ele>37.8</ele>
        <time>2014-10-11T10:45:58Z</time>
      </trkpt>
      <trkpt lat="59.149635" lon="18.179613">
        <ele>37.9</ele>
        <time>2014-10-11T10:45:59Z</time>
      </trkpt>
      <trkpt lat="59.149559" lon="18.179662">
        <ele>37.8</ele>
        <time>2014-10-11T10:46:00Z</time>
      </trkpt>
      <trkpt lat="59.149454" lon="18.179689">
        <ele>37.7</ele>
        <time>2014-10-11T10:46:01Z</time>
      </trkpt>
      <trkpt lat="59.149367" lon="18.179724">
        <ele>37.6</ele>
        <time>2014-10-11T10:46:02Z</time>
      </trkpt>
      <trkpt lat="59.149274" lon="18.179758">
        <ele>37.5</ele>
        <time>2014-10-11T10:46:03Z</time>
      </trkpt>
      <trkpt lat="59.149178" lon="18.179788">
        <ele>37.4</ele>
        <time>2014-10-11T10:46:04Z</time>
      </trkpt>
      <trkpt lat="59.149098" lon="18.179823">
        <ele>37.3</ele>
        <time>2014-10-11T10:46:05Z</time>
      </trkpt>
      <trkpt lat="59.149006" lon="18.179862">
        <ele>37.1</ele>
        <time>2014-10-11T10:46:06Z</time>
      </trkpt>
      <trkpt lat="59.148932" lon="18.179896">
        <ele>37</ele>
        <time>2014-10-11T10:46:07Z</time>
      </trkpt>
      <trkpt lat="59.14885" lon="18.179925">
        <ele>36.8</ele>
        <time>2014-10-11T10:46:08Z</time>
      </trkpt>
      <trkpt lat="59.148755" lon="18.179971">
        <ele>36.6</ele>
        <time>2014-10-11T10:46:09Z</time>
      </trkpt>
      <trkpt lat="59.148677" lon="18.180002">
        <ele>36.5</ele>
        <time>2014-10-11T10:46:10Z</time>
      </trkpt>
      <trkpt lat="59.148585" lon="18.180037">
        <ele>36.5</ele>
        <time>2014-10-11T10:46:11Z</time>
      </trkpt>
      <trkpt lat="59.148494" lon="18.180069">
        <ele>36.4</ele>
        <time>2014-10-11T10:46:12Z</time>
      </trkpt>
      <trkpt lat="59.148411" lon="18.180096">
        <ele>36.3</ele>
        <time>2014-10-11T10:46:13Z</time>
      </trkpt>
      <trkpt lat="59.148315" lon="18.180132">
        <ele>36.2</ele>
        <time>2014-10-11T10:46:14Z</time>
      </trkpt>
      <trkpt lat="59.14824" lon="18.180176">
        <ele>36</ele>
        <time>2014-10-11T10:46:15Z</time>
      </trkpt>
      <trkpt lat="59.148153" lon="18.180212">
        <ele>35.9</ele>
        <time>2014-10-11T10:46:16Z</time>
      </trkpt>
      <trkpt lat="59.14806" lon="18.180233">
        <ele>35.8</ele>
        <time>2014-10-11T10:46:17Z</time>
      </trkpt>
      <trkpt lat="59.147987" lon="18.18028">
        <ele>35.6</ele>
        <time>2014-10-11T10:46:18Z</time>
      </trkpt>
      <trkpt lat="59.147911" lon="18.180331">
        <ele>35.4</ele>
        <time>2014-10-11T10:46:19Z</time>
      </trkpt>
      <trkpt lat="59.14782" lon="18.180351">
        <ele>35.6</ele>
        <time>2014-10-11T10:46:20Z</time>
      </trkpt>
      <trkpt lat="59.147743" lon="18.18038">
        <ele>35.6</ele>
        <time>2014-10-11T10:46:21Z</time>
      </trkpt>
      <trkpt lat="59.14766" lon="18.180426">
        <ele>35.6</ele>
        <time>2014-10-11T10:46:22Z</time>
      </trkpt>
      <trkpt lat="59.147585" lon="18.180429">
        <ele>35.8</ele>
        <time>2014-10-11T10:46:23Z</time>
      </trkpt>
      <trkpt lat="59.147518" lon="18.180464">
        <ele>36</ele>
        <time>2014-10-11T10:46:24Z</time>
      </trkpt>
      <trkpt lat="59.147436" lon="18.180508">
        <ele>36.3</ele>
        <time>2014-10-11T10:46:25Z</time>
      </trkpt>
      <trkpt lat="59.14737" lon="18.180537">
        <ele>36.5</ele>
        <time>2014-10-11T10:46:26Z</time>
      </trkpt>
      <trkpt lat="59.147301" lon="18.180571">
        <ele>36.6</ele>
        <time>2014-10-11T10:46:27Z</time>
      </trkpt>
      <trkpt lat="59.14723" lon="18.180595">
        <ele>36.8</ele>
        <time>2014-10-11T10:46:28Z</time>
      </trkpt>
      <trkpt lat="59.147163" lon="18.180624">
        <ele>36.9</ele>
        <time>2014-10-11T10:46:29Z</time>
      </trkpt>
      <trkpt lat="59.147094" lon="18.180665">
        <ele>37</ele>
        <time>2014-10-11T10:46:30Z</time>
      </trkpt>
      <trkpt lat="59.147032" lon="18.180703">
        <ele>37</ele>
        <time>2014-10-11T10:46:31Z</time>
      </trkpt>
      <trkpt lat="59.146969" lon="18.180749">
        <ele>37.1</ele>
        <time>2014-10-11T10:46:32Z</time>
      </trkpt>
      <trkpt lat="59.146902" lon="18.180786">
        <ele>37.1</ele>
        <time>2014-10-11T10:46:33Z</time>
      </trkpt>
      <trkpt lat="59.146851" lon="18.180845">
        <ele>37.1</ele>
        <time>2014-10-11T10:46:34Z</time>
      </trkpt>
      <trkpt lat="59.146784" lon="18.180896">
        <ele>37.2</ele>
        <time>2014-10-11T10:46:35Z</time>
      </trkpt>
      <trkpt lat="59.146716" lon="18.180931">
        <ele>37.2</ele>
        <time>2014-10-11T10:46:36Z</time>
      </trkpt>
      <trkpt lat="59.146655" lon="18.180969">
        <ele>37.2</ele>
        <time>2014-10-11T10:46:37Z</time>
      </trkpt>
      <trkpt lat="59.146592" lon="18.181031">
        <ele>37.2</ele>
        <time>2014-10-11T10:46:38Z</time>
      </trkpt>
      <trkpt lat="59.146541" lon="18.181068">
        <ele>37.1</ele>
        <time>2014-10-11T10:46:39Z</time>
      </trkpt>
      <trkpt lat="59.146485" lon="18.181108">
        <ele>37.1</ele>
        <time>2014-10-11T10:46:40Z</time>
      </trkpt>
      <trkpt lat="59.146416" lon="18.181168">
        <ele>37.1</ele>
        <time>2014-10-11T10:46:41Z</time>
      </trkpt>
      <trkpt lat="59.146361" lon="18.181216">
        <ele>37</ele>
        <time>2014-10-11T10:46:42Z</time>
      </trkpt>
      <trkpt lat="59.146301" lon="18.181281">
        <ele>37</ele>
        <time>2014-10-11T10:46:43Z</time>
      </trkpt>
      <trkpt lat="59.146237" lon="18.181344">
        <ele>36.9</ele>
        <time>2014-10-11T10:46:44Z</time>
      </trkpt>
      <trkpt lat="59.146168" lon="18.1814">
        <ele>36.9</ele>
        <time>2014-10-11T10:46:45Z</time>
      </trkpt>
      <trkpt lat="59.146093" lon="18.181463">
        <ele>36.8</ele>
        <time>2014-10-11T10:46:46Z</time>
      </trkpt>
      <trkpt lat="59.14602" lon="18.181519">
        <ele>36.7</ele>
        <time>2014-10-11T10:46:47Z</time>
      </trkpt>
      <trkpt lat="59.145946" lon="18.181581">
        <ele>36.5</ele>
        <time>2014-10-11T10:46:48Z</time>
      </trkpt>
      <trkpt lat="59.145863" lon="18.181649">
        <ele>36.3</ele>
        <time>2014-10-11T10:46:49Z</time>
      </trkpt>
      <trkpt lat="59.145792" lon="18.181711">
        <ele>36.1</ele>
        <time>2014-10-11T10:46:50Z</time>
      </trkpt>
      <trkpt lat="59.145705" lon="18.181786">
        <ele>35.7</ele>
        <time>2014-10-11T10:46:51Z</time>
      </trkpt>
      <trkpt lat="59.145619" lon="18.181857">
        <ele>35.4</ele>
        <time>2014-10-11T10:46:52Z</time>
      </trkpt>
      <trkpt lat="59.145547" lon="18.181915">
        <ele>35</ele>
        <time>2014-10-11T10:46:53Z</time>
      </trkpt>
      <trkpt lat="59.145452" lon="18.181985">
        <ele>34.5</ele>
        <time>2014-10-11T10:46:54Z</time>
      </trkpt>
      <trkpt lat="59.145373" lon="18.182042">
        <ele>34.1</ele>
        <time>2014-10-11T10:46:55Z</time>
      </trkpt>
      <trkpt lat="59.145292" lon="18.182118">
        <ele>33.9</ele>
        <time>2014-10-11T10:46:56Z</time>
      </trkpt>
      <trkpt lat="59.145196" lon="18.182173">
        <ele>33.7</ele>
        <time>2014-10-11T10:46:57Z</time>
      </trkpt>
      <trkpt lat="59.145111" lon="18.18221">
        <ele>33.6</ele>
        <time>2014-10-11T10:46:58Z</time>
      </trkpt>
      <trkpt lat="59.145019" lon="18.182255">
        <ele>33.5</ele>
        <time>2014-10-11T10:46:59Z</time>
      </trkpt>
      <trkpt lat="59.144926" lon="18.182291">
        <ele>33.4</ele>
        <time>2014-10-11T10:47:00Z</time>
      </trkpt>
      <trkpt lat="59.144834" lon="18.182333">
        <ele>33.3</ele>
        <time>2014-10-11T10:47:01Z</time>
      </trkpt>
      <trkpt lat="59.14474" lon="18.182383">
        <ele>33.2</ele>
        <time>2014-10-11T10:47:02Z</time>
      </trkpt>
      <trkpt lat="59.144652" lon="18.182427">
        <ele>33.1</ele>
        <time>2014-10-11T10:47:03Z</time>
      </trkpt>
      <trkpt lat="59.144563" lon="18.182484">
        <ele>33</ele>
        <time>2014-10-11T10:47:04Z</time>
      </trkpt>
      <trkpt lat="59.144449" lon="18.182502">
        <ele>33.1</ele>
        <time>2014-10-11T10:47:05Z</time>
      </trkpt>
      <trkpt lat="59.14436" lon="18.182535">
        <ele>33.1</ele>
        <time>2014-10-11T10:47:06Z</time>
      </trkpt>
      <trkpt lat="59.144265" lon="18.182573">
        <ele>33.2</ele>
        <time>2014-10-11T10:47:07Z</time>
      </trkpt>
      <trkpt lat="59.144166" lon="18.182621">
        <ele>33.3</ele>
        <time>2014-10-11T10:47:08Z</time>
      </trkpt>
      <trkpt lat="59.144079" lon="18.182654">
        <ele>33.4</ele>
        <time>2014-10-11T10:47:09Z</time>
      </trkpt>
      <trkpt lat="59.14398" lon="18.182705">
        <ele>33.5</ele>
        <time>2014-10-11T10:47:10Z</time>
      </trkpt>
      <trkpt lat="59.143894" lon="18.182745">
        <ele>33.7</ele>
        <time>2014-10-11T10:47:11Z</time>
      </trkpt>
      <trkpt lat="59.143795" lon="18.182796">
        <ele>33.8</ele>
        <time>2014-10-11T10:47:12Z</time>
      </trkpt>
      <trkpt lat="59.14369" lon="18.182843">
        <ele>33.9</ele>
        <time>2014-10-11T10:47:13Z</time>
      </trkpt>
      <trkpt lat="59.143602" lon="18.182881">
        <ele>34</ele>
        <time>2014-10-11T10:47:14Z</time>
      </trkpt>
      <trkpt lat="59.143507" lon="18.182924">
        <ele>34</ele>
        <time>2014-10-11T10:47:15Z</time>
      </trkpt>
      <trkpt lat="59.143412" lon="18.182963">
        <ele>34</ele>
        <time>2014-10-11T10:47:16Z</time>
      </trkpt>
      <trkpt lat="59.143326" lon="18.183004">
        <ele>34</ele>
        <time>2014-10-11T10:47:17Z</time>
      </trkpt>
      <trkpt lat="59.143236" lon="18.183043">
        <ele>34</ele>
        <time>2014-10-11T10:47:18Z</time>
      </trkpt>
      <trkpt lat="59.143162" lon="18.183076">
        <ele>33.9</ele>
        <time>2014-10-11T10:47:19Z</time>
      </trkpt>
      <trkpt lat="59.14308" lon="18.183127">
        <ele>33.8</ele>
        <time>2014-10-11T10:47:20Z</time>
      </trkpt>
      <trkpt lat="59.142996" lon="18.183173">
        <ele>33.8</ele>
        <time>2014-10-11T10:47:21Z</time>
      </trkpt>
      <trkpt lat="59.142911" lon="18.183219">
        <ele>33.6</ele>
        <time>2014-10-11T10:47:22Z</time>
      </trkpt>
      <trkpt lat="59.142829" lon="18.183261">
        <ele>33.3</ele>
        <time>2014-10-11T10:47:23Z</time>
      </trkpt>
      <trkpt lat="59.142749" lon="18.183342">
        <ele>32.9</ele>
        <time>2014-10-11T10:47:24Z</time>
      </trkpt>
      <trkpt lat="59.142677" lon="18.183375">
        <ele>32.5</ele>
        <time>2014-10-11T10:47:25Z</time>
      </trkpt>
      <trkpt lat="59.142594" lon="18.18344">
        <ele>32</ele>
        <time>2014-10-11T10:47:26Z</time>
      </trkpt>
      <trkpt lat="59.142518" lon="18.183506">
        <ele>31.5</ele>
        <time>2014-10-11T10:47:27Z</time>
      </trkpt>
      <trkpt lat="59.142442" lon="18.183576">
        <ele>30.8</ele>
        <time>2014-10-11T10:47:28Z</time>
      </trkpt>
      <trkpt lat="59.142361" lon="18.183667">
        <ele>30</ele>
        <time>2014-10-11T10:47:29Z</time>
      </trkpt>
      <trkpt lat="59.142286" lon="18.183725">
        <ele>29.3</ele>
        <time>2014-10-11T10:47:30Z</time>
      </trkpt>
      <trkpt lat="59.142211" lon="18.183789">
        <ele>29</ele>
        <time>2014-10-11T10:47:31Z</time>
      </trkpt>
      <trkpt lat="59.142137" lon="18.183853">
        <ele>28.8</ele>
        <time>2014-10-11T10:47:32Z</time>
      </trkpt>
      <trkpt lat="59.142059" lon="18.183916">
        <ele>28.7</ele>
        <time>2014-10-11T10:47:33Z</time>
      </trkpt>
      <trkpt lat="59.141983" lon="18.183993">
        <ele>28.9</ele>
        <time>2014-10-11T10:47:34Z</time>
      </trkpt>
      <trkpt lat="59.141911" lon="18.184055">
        <ele>28.9</ele>
        <time>2014-10-11T10:47:35Z</time>
      </trkpt>
      <trkpt lat="59.141828" lon="18.184138">
        <ele>28.8</ele>
        <time>2014-10-11T10:47:36Z</time>
      </trkpt>
      <trkpt lat="59.141749" lon="18.184222">
        <ele>28.7</ele>
        <time>2014-10-11T10:47:37Z</time>
      </trkpt>
      <trkpt lat="59.141665" lon="18.184306">
        <ele>28.5</ele>
        <time>2014-10-11T10:47:38Z</time>
      </trkpt>
      <trkpt lat="59.141588" lon="18.184392">
        <ele>28.2</ele>
        <time>2014-10-11T10:47:39Z</time>
      </trkpt>
      <trkpt lat="59.141506" lon="18.184484">
        <ele>27.8</ele>
        <time>2014-10-11T10:47:40Z</time>
      </trkpt>
      <trkpt lat="59.141435" lon="18.184559">
        <ele>27.3</ele>
        <time>2014-10-11T10:47:41Z</time>
      </trkpt>
      <trkpt lat="59.141351" lon="18.184651">
        <ele>26.6</ele>
        <time>2014-10-11T10:47:42Z</time>
      </trkpt>
      <trkpt lat="59.141274" lon="18.184747">
        <ele>25.8</ele>
        <time>2014-10-11T10:47:43Z</time>
      </trkpt>
      <trkpt lat="59.141195" lon="18.184838">
        <ele>25</ele>
        <time>2014-10-11T10:47:44Z</time>
      </trkpt>
      <trkpt lat="59.141116" lon="18.184923">
        <ele>24.2</ele>
        <time>2014-10-11T10:47:45Z</time>
      </trkpt>
      <trkpt lat="59.141043" lon="18.185012">
        <ele>23.5</ele>
        <time>2014-10-11T10:47:46Z</time>
      </trkpt>
      <trkpt lat="59.140967" lon="18.18509">
        <ele>22.7</ele>
        <time>2014-10-11T10:47:47Z</time>
      </trkpt>
      <trkpt lat="59.140893" lon="18.185159">
        <ele>21.9</ele>
        <time>2014-10-11T10:47:48Z</time>
      </trkpt>
      <trkpt lat="59.140809" lon="18.185237">
        <ele>21</ele>
        <time>2014-10-11T10:47:49Z</time>
      </trkpt>
      <trkpt lat="59.14071" lon="18.185343">
        <ele>19.8</ele>
        <time>2014-10-11T10:47:50Z</time>
      </trkpt>
      <trkpt lat="59.140629" lon="18.185404">
        <ele>18.8</ele>
        <time>2014-10-11T10:47:51Z</time>
      </trkpt>
      <trkpt lat="59.140542" lon="18.185478">
        <ele>18.1</ele>
        <time>2014-10-11T10:47:52Z</time>
      </trkpt>
      <trkpt lat="59.140454" lon="18.185548">
        <ele>17.3</ele>
        <time>2014-10-11T10:47:53Z</time>
      </trkpt>
      <trkpt lat="59.140375" lon="18.18561">
        <ele>16.9</ele>
        <time>2014-10-11T10:47:54Z</time>
      </trkpt>
      <trkpt lat="59.140295" lon="18.185676">
        <ele>16.7</ele>
        <time>2014-10-11T10:47:55Z</time>
      </trkpt>
      <trkpt lat="59.140217" lon="18.185735">
        <ele>16.5</ele>
        <time>2014-10-11T10:47:56Z</time>
      </trkpt>
      <trkpt lat="59.140138" lon="18.185794">
        <ele>16.3</ele>
        <time>2014-10-11T10:47:57Z</time>
      </trkpt>
      <trkpt lat="59.140054" lon="18.185853">
        <ele>16.1</ele>
        <time>2014-10-11T10:47:58Z</time>
      </trkpt>
      <trkpt lat="59.13997" lon="18.185915">
        <ele>15.9</ele>
        <time>2014-10-11T10:47:59Z</time>
      </trkpt>
      <trkpt lat="59.139886" lon="18.18595">
        <ele>15.7</ele>
        <time>2014-10-11T10:48:00Z</time>
      </trkpt>
      <trkpt lat="59.139806" lon="18.185991">
        <ele>15.5</ele>
        <time>2014-10-11T10:48:01Z</time>
      </trkpt>
      <trkpt lat="59.139723" lon="18.18604">
        <ele>15.3</ele>
        <time>2014-10-11T10:48:02Z</time>
      </trkpt>
      <trkpt lat="59.139645" lon="18.186081">
        <ele>15.1</ele>
        <time>2014-10-11T10:48:03Z</time>
      </trkpt>
      <trkpt lat="59.139569" lon="18.186118">
        <ele>15</ele>
        <time>2014-10-11T10:48:04Z</time>
      </trkpt>
      <trkpt lat="59.139491" lon="18.186168">
        <ele>15.3</ele>
        <time>2014-10-11T10:48:05Z</time>
      </trkpt>
      <trkpt lat="59.139407" lon="18.186206">
        <ele>15.6</ele>
        <time>2014-10-11T10:48:06Z</time>
      </trkpt>
      <trkpt lat="59.13933" lon="18.18626">
        <ele>15.9</ele>
        <time>2014-10-11T10:48:07Z</time>
      </trkpt>
      <trkpt lat="59.139245" lon="18.186293">
        <ele>16.3</ele>
        <time>2014-10-11T10:48:08Z</time>
      </trkpt>
      <trkpt lat="59.139167" lon="18.186345">
        <ele>16.7</ele>
        <time>2014-10-11T10:48:09Z</time>
      </trkpt>
      <trkpt lat="59.139095" lon="18.186382">
        <ele>17</ele>
        <time>2014-10-11T10:48:10Z</time>
      </trkpt>
      <trkpt lat="59.139022" lon="18.186425">
        <ele>17.4</ele>
        <time>2014-10-11T10:48:11Z</time>
      </trkpt>
      <trkpt lat="59.138954" lon="18.186461">
        <ele>17.7</ele>
        <time>2014-10-11T10:48:12Z</time>
      </trkpt>
      <trkpt lat="59.138893" lon="18.186485">
        <ele>18</ele>
        <time>2014-10-11T10:48:13Z</time>
      </trkpt>
      <trkpt lat="59.138835" lon="18.186532">
        <ele>18.3</ele>
        <time>2014-10-11T10:48:14Z</time>
      </trkpt>
      <trkpt lat="59.138775" lon="18.186553">
        <ele>18.6</ele>
        <time>2014-10-11T10:48:15Z</time>
      </trkpt>
      <trkpt lat="59.138718" lon="18.186572">
        <ele>19</ele>
        <time>2014-10-11T10:48:16Z</time>
      </trkpt>
      <trkpt lat="59.138671" lon="18.186615">
        <ele>19.3</ele>
        <time>2014-10-11T10:48:17Z</time>
      </trkpt>
      <trkpt lat="59.138619" lon="18.186651">
        <ele>19.7</ele>
        <time>2014-10-11T10:48:18Z</time>
      </trkpt>
      <trkpt lat="59.138569" lon="18.186686">
        <ele>20.1</ele>
        <time>2014-10-11T10:48:19Z</time>
      </trkpt>
      <trkpt lat="59.138523" lon="18.186718">
        <ele>20.5</ele>
        <time>2014-10-11T10:48:20Z</time>
      </trkpt>
      <trkpt lat="59.138473" lon="18.186746">
        <ele>20.9</ele>
        <time>2014-10-11T10:48:21Z</time>
      </trkpt>
      <trkpt lat="59.138423" lon="18.186769">
        <ele>21.2</ele>
        <time>2014-10-11T10:48:22Z</time>
      </trkpt>
      <trkpt lat="59.138371" lon="18.186802">
        <ele>21.6</ele>
        <time>2014-10-11T10:48:23Z</time>
      </trkpt>
      <trkpt lat="59.138334" lon="18.186827">
        <ele>21.9</ele>
        <time>2014-10-11T10:48:24Z</time>
      </trkpt>
      <trkpt lat="59.138289" lon="18.186861">
        <ele>22.2</ele>
        <time>2014-10-11T10:48:25Z</time>
      </trkpt>
      <trkpt lat="59.138248" lon="18.186894">
        <ele>22.6</ele>
        <time>2014-10-11T10:48:26Z</time>
      </trkpt>
      <trkpt lat="59.138205" lon="18.186909">
        <ele>22.9</ele>
        <time>2014-10-11T10:48:27Z</time>
      </trkpt>
      <trkpt lat="59.13816" lon="18.18692">
        <ele>23.1</ele>
        <time>2014-10-11T10:48:28Z</time>
      </trkpt>
      <trkpt lat="59.138114" lon="18.186951">
        <ele>23.5</ele>
        <time>2014-10-11T10:48:29Z</time>
      </trkpt>
      <trkpt lat="59.138071" lon="18.186988">
        <ele>23.8</ele>
        <time>2014-10-11T10:48:30Z</time>
      </trkpt>
      <trkpt lat="59.13803" lon="18.187007">
        <ele>24.1</ele>
        <time>2014-10-11T10:48:31Z</time>
      </trkpt>
      <trkpt lat="59.137979" lon="18.187025">
        <ele>24.5</ele>
        <time>2014-10-11T10:48:32Z</time>
      </trkpt>
      <trkpt lat="59.137931" lon="18.18704">
        <ele>24.8</ele>
        <time>2014-10-11T10:48:33Z</time>
      </trkpt>
      <trkpt lat="59.137883" lon="18.18705">
        <ele>25</ele>
        <time>2014-10-11T10:48:34Z</time>
      </trkpt>
      <trkpt lat="59.137843" lon="18.187082">
        <ele>25.3</ele>
        <time>2014-10-11T10:48:35Z</time>
      </trkpt>
      <trkpt lat="59.1378" lon="18.187115">
        <ele>25.5</ele>
        <time>2014-10-11T10:48:36Z</time>
      </trkpt>
      <trkpt lat="59.137759" lon="18.187147">
        <ele>25.8</ele>
        <time>2014-10-11T10:48:37Z</time>
      </trkpt>
      <trkpt lat="59.137712" lon="18.187171">
        <ele>26</ele>
        <time>2014-10-11T10:48:38Z</time>
      </trkpt>
      <trkpt lat="59.137667" lon="18.187199">
        <ele>26.2</ele>
        <time>2014-10-11T10:48:39Z</time>
      </trkpt>
      <trkpt lat="59.137626" lon="18.187226">
        <ele>26.4</ele>
        <time>2014-10-11T10:48:40Z</time>
      </trkpt>
      <trkpt lat="59.137581" lon="18.187254">
        <ele>26.7</ele>
        <time>2014-10-11T10:48:41Z</time>
      </trkpt>
      <trkpt lat="59.137538" lon="18.187276">
        <ele>26.8</ele>
        <time>2014-10-11T10:48:42Z</time>
      </trkpt>
      <trkpt lat="59.137498" lon="18.187296">
        <ele>27</ele>
        <time>2014-10-11T10:48:43Z</time>
      </trkpt>
      <trkpt lat="59.137454" lon="18.18733">
        <ele>27.2</ele>
        <time>2014-10-11T10:48:44Z</time>
      </trkpt>
      <trkpt lat="59.137416" lon="18.187347">
        <ele>27.4</ele>
        <time>2014-10-11T10:48:45Z</time>
      </trkpt>
      <trkpt lat="59.137374" lon="18.187366">
        <ele>27.5</ele>
        <time>2014-10-11T10:48:46Z</time>
      </trkpt>
      <trkpt lat="59.137329" lon="18.187408">
        <ele>27.7</ele>
        <time>2014-10-11T10:48:47Z</time>
      </trkpt>
      <trkpt lat="59.137283" lon="18.187433">
        <ele>27.9</ele>
        <time>2014-10-11T10:48:48Z</time>
      </trkpt>
      <trkpt lat="59.137236" lon="18.187459">
        <ele>28.1</ele>
        <time>2014-10-11T10:48:49Z</time>
      </trkpt>
      <trkpt lat="59.137192" lon="18.187483">
        <ele>28.2</ele>
        <time>2014-10-11T10:48:50Z</time>
      </trkpt>
      <trkpt lat="59.137154" lon="18.187522">
        <ele>28.4</ele>
        <time>2014-10-11T10:48:51Z</time>
      </trkpt>
      <trkpt lat="59.137112" lon="18.187553">
        <ele>28.5</ele>
        <time>2014-10-11T10:48:52Z</time>
      </trkpt>
      <trkpt lat="59.137066" lon="18.187583">
        <ele>28.6</ele>
        <time>2014-10-11T10:48:53Z</time>
      </trkpt>
      <trkpt lat="59.137012" lon="18.187598">
        <ele>28.7</ele>
        <time>2014-10-11T10:48:54Z</time>
      </trkpt>
      <trkpt lat="59.136966" lon="18.187628">
        <ele>28.7</ele>
        <time>2014-10-11T10:48:55Z</time>
      </trkpt>
      <trkpt lat="59.136924" lon="18.18766">
        <ele>28.8</ele>
        <time>2014-10-11T10:48:56Z</time>
      </trkpt>
      <trkpt lat="59.13687" lon="18.187686">
        <ele>28.8</ele>
        <time>2014-10-11T10:48:57Z</time>
      </trkpt>
      <trkpt lat="59.136824" lon="18.187713">
        <ele>28.8</ele>
        <time>2014-10-11T10:48:58Z</time>
      </trkpt>
      <trkpt lat="59.136778" lon="18.18774">
        <ele>28.9</ele>
        <time>2014-10-11T10:48:59Z</time>
      </trkpt>
      <trkpt lat="59.136725" lon="18.187754">
        <ele>28.9</ele>
        <time>2014-10-11T10:49:00Z</time>
      </trkpt>
      <trkpt lat="59.136681" lon="18.187781">
        <ele>28.9</ele>
        <time>2014-10-11T10:49:01Z</time>
      </trkpt>
      <trkpt lat="59.136636" lon="18.187797">
        <ele>28.9</ele>
        <time>2014-10-11T10:49:02Z</time>
      </trkpt>
      <trkpt lat="59.136592" lon="18.187812">
        <ele>28.9</ele>
        <time>2014-10-11T10:49:03Z</time>
      </trkpt>
      <trkpt lat="59.136548" lon="18.187842">
        <ele>29</ele>
        <time>2014-10-11T10:49:04Z</time>
      </trkpt>
      <trkpt lat="59.136499" lon="18.187872">
        <ele>29</ele>
        <time>2014-10-11T10:49:05Z</time>
      </trkpt>
      <trkpt lat="59.136449" lon="18.187887">
        <ele>29</ele>
        <time>2014-10-11T10:49:06Z</time>
      </trkpt>
      <trkpt lat="59.136402" lon="18.187911">
        <ele>29</ele>
        <time>2014-10-11T10:49:07Z</time>
      </trkpt>
      <trkpt lat="59.136352" lon="18.187955">
        <ele>29.1</ele>
        <time>2014-10-11T10:49:08Z</time>
      </trkpt>
      <trkpt lat="59.136293" lon="18.187991">
        <ele>29.1</ele>
        <time>2014-10-11T10:49:09Z</time>
      </trkpt>
      <trkpt lat="59.136245" lon="18.188025">
        <ele>29.1</ele>
        <time>2014-10-11T10:49:10Z</time>
      </trkpt>
      <trkpt lat="59.136195" lon="18.188056">
        <ele>29.3</ele>
        <time>2014-10-11T10:49:11Z</time>
      </trkpt>
      <trkpt lat="59.136142" lon="18.188099">
        <ele>29.4</ele>
        <time>2014-10-11T10:49:12Z</time>
      </trkpt>
      <trkpt lat="59.136083" lon="18.18812">
        <ele>29.4</ele>
        <time>2014-10-11T10:49:13Z</time>
      </trkpt>
      <trkpt lat="59.13603" lon="18.188138">
        <ele>29.5</ele>
        <time>2014-10-11T10:49:14Z</time>
      </trkpt>
      <trkpt lat="59.135971" lon="18.18817">
        <ele>29.6</ele>
        <time>2014-10-11T10:49:15Z</time>
      </trkpt>
      <trkpt lat="59.135903" lon="18.188212">
        <ele>29.6</ele>
        <time>2014-10-11T10:49:16Z</time>
      </trkpt>
      <trkpt lat="59.135846" lon="18.188251">
        <ele>29.6</ele>
        <time>2014-10-11T10:49:17Z</time>
      </trkpt>
      <trkpt lat="59.135786" lon="18.188284">
        <ele>29.6</ele>
        <time>2014-10-11T10:49:18Z</time>
      </trkpt>
      <trkpt lat="59.13572" lon="18.188317">
        <ele>29.5</ele>
        <time>2014-10-11T10:49:19Z</time>
      </trkpt>
      <trkpt lat="59.135652" lon="18.188364">
        <ele>29.4</ele>
        <time>2014-10-11T10:49:20Z</time>
      </trkpt>
      <trkpt lat="59.135582" lon="18.188385">
        <ele>29.4</ele>
        <time>2014-10-11T10:49:21Z</time>
      </trkpt>
      <trkpt lat="59.135523" lon="18.188416">
        <ele>29.3</ele>
        <time>2014-10-11T10:49:22Z</time>
      </trkpt>
      <trkpt lat="59.135448" lon="18.188479">
        <ele>29</ele>
        <time>2014-10-11T10:49:23Z</time>
      </trkpt>
      <trkpt lat="59.135372" lon="18.188504">
        <ele>28.7</ele>
        <time>2014-10-11T10:49:24Z</time>
      </trkpt>
      <trkpt lat="59.1353" lon="18.188549">
        <ele>28.1</ele>
        <time>2014-10-11T10:49:25Z</time>
      </trkpt>
      <trkpt lat="59.135231" lon="18.18859">
        <ele>27.6</ele>
        <time>2014-10-11T10:49:26Z</time>
      </trkpt>
      <trkpt lat="59.135155" lon="18.188644">
        <ele>27.1</ele>
        <time>2014-10-11T10:49:27Z</time>
      </trkpt>
      <trkpt lat="59.135079" lon="18.188678">
        <ele>26.6</ele>
        <time>2014-10-11T10:49:28Z</time>
      </trkpt>
      <trkpt lat="59.135006" lon="18.188719">
        <ele>26.1</ele>
        <time>2014-10-11T10:49:29Z</time>
      </trkpt>
      <trkpt lat="59.134934" lon="18.188761">
        <ele>25.7</ele>
        <time>2014-10-11T10:49:30Z</time>
      </trkpt>
      <trkpt lat="59.134859" lon="18.188805">
        <ele>25.6</ele>
        <time>2014-10-11T10:49:31Z</time>
      </trkpt>
      <trkpt lat="59.134786" lon="18.188859">
        <ele>25.5</ele>
        <time>2014-10-11T10:49:32Z</time>
      </trkpt>
      <trkpt lat="59.134705" lon="18.188898">
        <ele>25.4</ele>
        <time>2014-10-11T10:49:33Z</time>
      </trkpt>
      <trkpt lat="59.134634" lon="18.188922">
        <ele>25.2</ele>
        <time>2014-10-11T10:49:34Z</time>
      </trkpt>
      <trkpt lat="59.134562" lon="18.188978">
        <ele>25.4</ele>
        <time>2014-10-11T10:49:35Z</time>
      </trkpt>
      <trkpt lat="59.134487" lon="18.189023">
        <ele>25.6</ele>
        <time>2014-10-11T10:49:36Z</time>
      </trkpt>
      <trkpt lat="59.13441" lon="18.189061">
        <ele>25.7</ele>
        <time>2014-10-11T10:49:37Z</time>
      </trkpt>
      <trkpt lat="59.13433" lon="18.189104">
        <ele>25.9</ele>
        <time>2014-10-11T10:49:38Z</time>
      </trkpt>
      <trkpt lat="59.134251" lon="18.189142">
        <ele>26</ele>
        <time>2014-10-11T10:49:39Z</time>
      </trkpt>
      <trkpt lat="59.13417" lon="18.189189">
        <ele>26.1</ele>
        <time>2014-10-11T10:49:40Z</time>
      </trkpt>
      <trkpt lat="59.134088" lon="18.18923">
        <ele>26.2</ele>
        <time>2014-10-11T10:49:41Z</time>
      </trkpt>
      <trkpt lat="59.134007" lon="18.189268">
        <ele>26.2</ele>
        <time>2014-10-11T10:49:42Z</time>
      </trkpt>
      <trkpt lat="59.133928" lon="18.189309">
        <ele>26.3</ele>
        <time>2014-10-11T10:49:43Z</time>
      </trkpt>
      <trkpt lat="59.133847" lon="18.189362">
        <ele>26.4</ele>
        <time>2014-10-11T10:49:44Z</time>
      </trkpt>
      <trkpt lat="59.133774" lon="18.189412">
        <ele>26.4</ele>
        <time>2014-10-11T10:49:45Z</time>
      </trkpt>
      <trkpt lat="59.133697" lon="18.189462">
        <ele>26.5</ele>
        <time>2014-10-11T10:49:46Z</time>
      </trkpt>
      <trkpt lat="59.133618" lon="18.189513">
        <ele>26.5</ele>
        <time>2014-10-11T10:49:47Z</time>
      </trkpt>
      <trkpt lat="59.133535" lon="18.189564">
        <ele>26.4</ele>
        <time>2014-10-11T10:49:48Z</time>
      </trkpt>
      <trkpt lat="59.133459" lon="18.189608">
        <ele>26.3</ele>
        <time>2014-10-11T10:49:49Z</time>
      </trkpt>
      <trkpt lat="59.133379" lon="18.18965">
        <ele>26.2</ele>
        <time>2014-10-11T10:49:50Z</time>
      </trkpt>
      <trkpt lat="59.133299" lon="18.189702">
        <ele>26</ele>
        <time>2014-10-11T10:49:51Z</time>
      </trkpt>
      <trkpt lat="59.133215" lon="18.189746">
        <ele>25.8</ele>
        <time>2014-10-11T10:49:52Z</time>
      </trkpt>
      <trkpt lat="59.133132" lon="18.189801">
        <ele>25.5</ele>
        <time>2014-10-11T10:49:53Z</time>
      </trkpt>
      <trkpt lat="59.133053" lon="18.189847">
        <ele>25.2</ele>
        <time>2014-10-11T10:49:54Z</time>
      </trkpt>
      <trkpt lat="59.132967" lon="18.189907">
        <ele>24.8</ele>
        <time>2014-10-11T10:49:55Z</time>
      </trkpt>
      <trkpt lat="59.132885" lon="18.18996">
        <ele>24.4</ele>
        <time>2014-10-11T10:49:56Z</time>
      </trkpt>
      <trkpt lat="59.132802" lon="18.190013">
        <ele>23.8</ele>
        <time>2014-10-11T10:49:57Z</time>
      </trkpt>
      <trkpt lat="59.132714" lon="18.190061">
        <ele>23.2</ele>
        <time>2014-10-11T10:49:58Z</time>
      </trkpt>
      <trkpt lat="59.132628" lon="18.19013">
        <ele>22.5</ele>
        <time>2014-10-11T10:49:59Z</time>
      </trkpt>
      <trkpt lat="59.132555" lon="18.190188">
        <ele>21.9</ele>
        <time>2014-10-11T10:50:00Z</time>
      </trkpt>
      <trkpt lat="59.132476" lon="18.190272">
        <ele>21.2</ele>
        <time>2014-10-11T10:50:01Z</time>
      </trkpt>
      <trkpt lat="59.132399" lon="18.190338">
        <ele>20.5</ele>
        <time>2014-10-11T10:50:02Z</time>
      </trkpt>
      <trkpt lat="59.132316" lon="18.190406">
        <ele>19.7</ele>
        <time>2014-10-11T10:50:03Z</time>
      </trkpt>
      <trkpt lat="59.132246" lon="18.190509">
        <ele>19.6</ele>
        <time>2014-10-11T10:50:04Z</time>
      </trkpt>
      <trkpt lat="59.132165" lon="18.190597">
        <ele>19.3</ele>
        <time>2014-10-11T10:50:05Z</time>
      </trkpt>
      <trkpt lat="59.13209" lon="18.19068">
        <ele>19</ele>
        <time>2014-10-11T10:50:06Z</time>
      </trkpt>
      <trkpt lat="59.132012" lon="18.190771">
        <ele>18.9</ele>
        <time>2014-10-11T10:50:07Z</time>
      </trkpt>
      <trkpt lat="59.131933" lon="18.190866">
        <ele>18.8</ele>
        <time>2014-10-11T10:50:08Z</time>
      </trkpt>
      <trkpt lat="59.131857" lon="18.190964">
        <ele>18.6</ele>
        <time>2014-10-11T10:50:09Z</time>
      </trkpt>
      <trkpt lat="59.131788" lon="18.191043">
        <ele>18.4</ele>
        <time>2014-10-11T10:50:10Z</time>
      </trkpt>
      <trkpt lat="59.131718" lon="18.191132">
        <ele>18.1</ele>
        <time>2014-10-11T10:50:11Z</time>
      </trkpt>
      <trkpt lat="59.131651" lon="18.191216">
        <ele>17.8</ele>
        <time>2014-10-11T10:50:12Z</time>
      </trkpt>
      <trkpt lat="59.13158" lon="18.19131">
        <ele>17.5</ele>
        <time>2014-10-11T10:50:13Z</time>
      </trkpt>
      <trkpt lat="59.131512" lon="18.191422">
        <ele>17.3</ele>
        <time>2014-10-11T10:50:14Z</time>
      </trkpt>
      <trkpt lat="59.131434" lon="18.1915">
        <ele>16.8</ele>
        <time>2014-10-11T10:50:15Z</time>
      </trkpt>
      <trkpt lat="59.131362" lon="18.191598">
        <ele>16.4</ele>
        <time>2014-10-11T10:50:16Z</time>
      </trkpt>
      <trkpt lat="59.131289" lon="18.191682">
        <ele>15.9</ele>
        <time>2014-10-11T10:50:17Z</time>
      </trkpt>
      <trkpt lat="59.131217" lon="18.191765">
        <ele>15.6</ele>
        <time>2014-10-11T10:50:18Z</time>
      </trkpt>
      <trkpt lat="59.131147" lon="18.191858">
        <ele>15.5</ele>
        <time>2014-10-11T10:50:19Z</time>
      </trkpt>
      <trkpt lat="59.131077" lon="18.191948">
        <ele>15.5</ele>
        <time>2014-10-11T10:50:20Z</time>
      </trkpt>
      <trkpt lat="59.131016" lon="18.192024">
        <ele>15.4</ele>
        <time>2014-10-11T10:50:21Z</time>
      </trkpt>
      <trkpt lat="59.130939" lon="18.192116">
        <ele>15.3</ele>
        <time>2014-10-11T10:50:22Z</time>
      </trkpt>
      <trkpt lat="59.130863" lon="18.192196">
        <ele>15.1</ele>
        <time>2014-10-11T10:50:23Z</time>
      </trkpt>
      <trkpt lat="59.130794" lon="18.192299">
        <ele>15</ele>
        <time>2014-10-11T10:50:24Z</time>
      </trkpt>
      <trkpt lat="59.130721" lon="18.192394">
        <ele>14.9</ele>
        <time>2014-10-11T10:50:25Z</time>
      </trkpt>
      <trkpt lat="59.130651" lon="18.192485">
        <ele>14.7</ele>
        <time>2014-10-11T10:50:26Z</time>
      </trkpt>
      <trkpt lat="59.130584" lon="18.19256">
        <ele>14.5</ele>
        <time>2014-10-11T10:50:27Z</time>
      </trkpt>
      <trkpt lat="59.130527" lon="18.192649">
        <ele>14.4</ele>
        <time>2014-10-11T10:50:28Z</time>
      </trkpt>
      <trkpt lat="59.130452" lon="18.19275">
        <ele>14.1</ele>
        <time>2014-10-11T10:50:29Z</time>
      </trkpt>
      <trkpt lat="59.130378" lon="18.192854">
        <ele>14</ele>
        <time>2014-10-11T10:50:30Z</time>
      </trkpt>
      <trkpt lat="59.130305" lon="18.19296">
        <ele>13.9</ele>
        <time>2014-10-11T10:50:31Z</time>
      </trkpt>
      <trkpt lat="59.130228" lon="18.193071">
        <ele>13.8</ele>
        <time>2014-10-11T10:50:32Z</time>
      </trkpt>
      <trkpt lat="59.130159" lon="18.193166">
        <ele>13.8</ele>
        <time>2014-10-11T10:50:33Z</time>
      </trkpt>
      <trkpt lat="59.130083" lon="18.193265">
        <ele>13.8</ele>
        <time>2014-10-11T10:50:34Z</time>
      </trkpt>
      <trkpt lat="59.130002" lon="18.193353">
        <ele>13.8</ele>
        <time>2014-10-11T10:50:35Z</time>
      </trkpt>
      <trkpt lat="59.129918" lon="18.193445">
        <ele>13.8</ele>
        <time>2014-10-11T10:50:36Z</time>
      </trkpt>
      <trkpt lat="59.129854" lon="18.193518">
        <ele>13.8</ele>
        <time>2014-10-11T10:50:37Z</time>
      </trkpt>
      <trkpt lat="59.129776" lon="18.193622">
        <ele>13.9</ele>
        <time>2014-10-11T10:50:38Z</time>
      </trkpt>
      <trkpt lat="59.1297" lon="18.193716">
        <ele>14</ele>
        <time>2014-10-11T10:50:39Z</time>
      </trkpt>
      <trkpt lat="59.129617" lon="18.19383">
        <ele>14</ele>
        <time>2014-10-11T10:50:40Z</time>
      </trkpt>
      <trkpt lat="59.129534" lon="18.193939">
        <ele>14.5</ele>
        <time>2014-10-11T10:50:41Z</time>
      </trkpt>
      <trkpt lat="59.129461" lon="18.194035">
        <ele>15.3</ele>
        <time>2014-10-11T10:50:42Z</time>
      </trkpt>
      <trkpt lat="59.129387" lon="18.194138">
        <ele>16.1</ele>
        <time>2014-10-11T10:50:43Z</time>
      </trkpt>
      <trkpt lat="59.129315" lon="18.194224">
        <ele>16.9</ele>
        <time>2014-10-11T10:50:44Z</time>
      </trkpt>
      <trkpt lat="59.129247" lon="18.194308">
        <ele>17.6</ele>
        <time>2014-10-11T10:50:45Z</time>
      </trkpt>
      <trkpt lat="59.129187" lon="18.194393">
        <ele>18.3</ele>
        <time>2014-10-11T10:50:46Z</time>
      </trkpt>
      <trkpt lat="59.129126" lon="18.194487">
        <ele>18.9</ele>
        <time>2014-10-11T10:50:47Z</time>
      </trkpt>
      <trkpt lat="59.129065" lon="18.194564">
        <ele>19.6</ele>
        <time>2014-10-11T10:50:48Z</time>
      </trkpt>
      <trkpt lat="59.128999" lon="18.194636">
        <ele>20.3</ele>
        <time>2014-10-11T10:50:49Z</time>
      </trkpt>
      <trkpt lat="59.128939" lon="18.194721">
        <ele>21</ele>
        <time>2014-10-11T10:50:50Z</time>
      </trkpt>
      <trkpt lat="59.128878" lon="18.194794">
        <ele>21.7</ele>
        <time>2014-10-11T10:50:51Z</time>
      </trkpt>
      <trkpt lat="59.128808" lon="18.194897">
        <ele>22.4</ele>
        <time>2014-10-11T10:50:52Z</time>
      </trkpt>
      <trkpt lat="59.128745" lon="18.194978">
        <ele>23.1</ele>
        <time>2014-10-11T10:50:53Z</time>
      </trkpt>
      <trkpt lat="59.128688" lon="18.195059">
        <ele>24.1</ele>
        <time>2014-10-11T10:50:54Z</time>
      </trkpt>
      <trkpt lat="59.128629" lon="18.195154">
        <ele>25.2</ele>
        <time>2014-10-11T10:50:55Z</time>
      </trkpt>
      <trkpt lat="59.12857" lon="18.195255">
        <ele>26.3</ele>
        <time>2014-10-11T10:50:56Z</time>
      </trkpt>
      <trkpt lat="59.128518" lon="18.195356">
        <ele>27.2</ele>
        <time>2014-10-11T10:50:57Z</time>
      </trkpt>
      <trkpt lat="59.12847" lon="18.195454">
        <ele>28</ele>
        <time>2014-10-11T10:50:58Z</time>
      </trkpt>
      <trkpt lat="59.128423" lon="18.195569">
        <ele>28.9</ele>
        <time>2014-10-11T10:50:59Z</time>
      </trkpt>
      <trkpt lat="59.128379" lon="18.195668">
        <ele>29.8</ele>
        <time>2014-10-11T10:51:00Z</time>
      </trkpt>
      <trkpt lat="59.128332" lon="18.195778">
        <ele>30.7</ele>
        <time>2014-10-11T10:51:01Z</time>
      </trkpt>
      <trkpt lat="59.128308" lon="18.195895">
        <ele>31.3</ele>
        <time>2014-10-11T10:51:02Z</time>
      </trkpt>
      <trkpt lat="59.128274" lon="18.196006">
        <ele>32.1</ele>
        <time>2014-10-11T10:51:03Z</time>
      </trkpt>
      <trkpt lat="59.128236" lon="18.196135">
        <ele>33</ele>
        <time>2014-10-11T10:51:04Z</time>
      </trkpt>
      <trkpt lat="59.128199" lon="18.196282">
        <ele>34</ele>
        <time>2014-10-11T10:51:05Z</time>
      </trkpt>
      <trkpt lat="59.128171" lon="18.196403">
        <ele>34.8</ele>
        <time>2014-10-11T10:51:06Z</time>
      </trkpt>
      <trkpt lat="59.128133" lon="18.196527">
        <ele>36</ele>
        <time>2014-10-11T10:51:07Z</time>
      </trkpt>
      <trkpt lat="59.128096" lon="18.196669">
        <ele>37.2</ele>
        <time>2014-10-11T10:51:08Z</time>
      </trkpt>
      <trkpt lat="59.128064" lon="18.196782">
        <ele>38.3</ele>
        <time>2014-10-11T10:51:09Z</time>
      </trkpt>
      <trkpt lat="59.128034" lon="18.196942">
        <ele>39.5</ele>
        <time>2014-10-11T10:51:10Z</time>
      </trkpt>
      <trkpt lat="59.128005" lon="18.197077">
        <ele>40.6</ele>
        <time>2014-10-11T10:51:11Z</time>
      </trkpt>
      <trkpt lat="59.127972" lon="18.197212">
        <ele>40.6</ele>
        <time>2014-10-11T10:51:12Z</time>
      </trkpt>
      <trkpt lat="59.127938" lon="18.197359">
        <ele>40.5</ele>
        <time>2014-10-11T10:51:13Z</time>
      </trkpt>
      <trkpt lat="59.127907" lon="18.197493">
        <ele>40.1</ele>
        <time>2014-10-11T10:51:14Z</time>
      </trkpt>
      <trkpt lat="59.127871" lon="18.197636">
        <ele>39.4</ele>
        <time>2014-10-11T10:51:15Z</time>
      </trkpt>
      <trkpt lat="59.127838" lon="18.197777">
        <ele>38.7</ele>
        <time>2014-10-11T10:51:16Z</time>
      </trkpt>
      <trkpt lat="59.127796" lon="18.19792">
        <ele>38</ele>
        <time>2014-10-11T10:51:17Z</time>
      </trkpt>
      <trkpt lat="59.127758" lon="18.198071">
        <ele>37.3</ele>
        <time>2014-10-11T10:51:18Z</time>
      </trkpt>
      <trkpt lat="59.127724" lon="18.198189">
        <ele>36.7</ele>
        <time>2014-10-11T10:51:19Z</time>
      </trkpt>
      <trkpt lat="59.127693" lon="18.198328">
        <ele>36</ele>
        <time>2014-10-11T10:51:20Z</time>
      </trkpt>
      <trkpt lat="59.127662" lon="18.198482">
        <ele>35.3</ele>
        <time>2014-10-11T10:51:21Z</time>
      </trkpt>
      <trkpt lat="59.127627" lon="18.198613">
        <ele>34.7</ele>
        <time>2014-10-11T10:51:22Z</time>
      </trkpt>
      <trkpt lat="59.127596" lon="18.198762">
        <ele>34</ele>
        <time>2014-10-11T10:51:23Z</time>
      </trkpt>
      <trkpt lat="59.127566" lon="18.198892">
        <ele>33</ele>
        <time>2014-10-11T10:51:24Z</time>
      </trkpt>
      <trkpt lat="59.127534" lon="18.199032">
        <ele>32</ele>
        <time>2014-10-11T10:51:25Z</time>
      </trkpt>
      <trkpt lat="59.127504" lon="18.199161">
        <ele>31</ele>
        <time>2014-10-11T10:51:26Z</time>
      </trkpt>
      <trkpt lat="59.127458" lon="18.1993">
        <ele>30.1</ele>
        <time>2014-10-11T10:51:27Z</time>
      </trkpt>
      <trkpt lat="59.127427" lon="18.199429">
        <ele>29</ele>
        <time>2014-10-11T10:51:28Z</time>
      </trkpt>
      <trkpt lat="59.127392" lon="18.19955">
        <ele>28.1</ele>
        <time>2014-10-11T10:51:29Z</time>
      </trkpt>
      <trkpt lat="59.127359" lon="18.199687">
        <ele>27</ele>
        <time>2014-10-11T10:51:30Z</time>
      </trkpt>
      <trkpt lat="59.127331" lon="18.199821">
        <ele>25.8</ele>
        <time>2014-10-11T10:51:31Z</time>
      </trkpt>
      <trkpt lat="59.127297" lon="18.199957">
        <ele>24.7</ele>
        <time>2014-10-11T10:51:32Z</time>
      </trkpt>
      <trkpt lat="59.127265" lon="18.200101">
        <ele>23.4</ele>
        <time>2014-10-11T10:51:33Z</time>
      </trkpt>
      <trkpt lat="59.127237" lon="18.200246">
        <ele>22</ele>
        <time>2014-10-11T10:51:34Z</time>
      </trkpt>
      <trkpt lat="59.127207" lon="18.20038">
        <ele>20.8</ele>
        <time>2014-10-11T10:51:35Z</time>
      </trkpt>
      <trkpt lat="59.12718" lon="18.200528">
        <ele>20.3</ele>
        <time>2014-10-11T10:51:36Z</time>
      </trkpt>
      <trkpt lat="59.127152" lon="18.200672">
        <ele>20.1</ele>
        <time>2014-10-11T10:51:37Z</time>
      </trkpt>
      <trkpt lat="59.127124" lon="18.200786">
        <ele>20</ele>
        <time>2014-10-11T10:51:38Z</time>
      </trkpt>
      <trkpt lat="59.127082" lon="18.200908">
        <ele>19.8</ele>
        <time>2014-10-11T10:51:39Z</time>
      </trkpt>
      <trkpt lat="59.127051" lon="18.201026">
        <ele>19.8</ele>
        <time>2014-10-11T10:51:40Z</time>
      </trkpt>
      <trkpt lat="59.127021" lon="18.201168">
        <ele>19.7</ele>
        <time>2014-10-11T10:51:41Z</time>
      </trkpt>
      <trkpt lat="59.126996" lon="18.20131">
        <ele>19.6</ele>
        <time>2014-10-11T10:51:42Z</time>
      </trkpt>
      <trkpt lat="59.126967" lon="18.201444">
        <ele>19.6</ele>
        <time>2014-10-11T10:51:43Z</time>
      </trkpt>
      <trkpt lat="59.12694" lon="18.20158">
        <ele>19.6</ele>
        <time>2014-10-11T10:51:44Z</time>
      </trkpt>
      <trkpt lat="59.1269" lon="18.201723">
        <ele>19.8</ele>
        <time>2014-10-11T10:51:45Z</time>
      </trkpt>
      <trkpt lat="59.126876" lon="18.201856">
        <ele>19.8</ele>
        <time>2014-10-11T10:51:46Z</time>
      </trkpt>
      <trkpt lat="59.12685" lon="18.201994">
        <ele>19.9</ele>
        <time>2014-10-11T10:51:47Z</time>
      </trkpt>
      <trkpt lat="59.12682" lon="18.202142">
        <ele>20.2</ele>
        <time>2014-10-11T10:51:48Z</time>
      </trkpt>
      <trkpt lat="59.126786" lon="18.202277">
        <ele>20.7</ele>
        <time>2014-10-11T10:51:49Z</time>
      </trkpt>
      <trkpt lat="59.126758" lon="18.202404">
        <ele>21.1</ele>
        <time>2014-10-11T10:51:50Z</time>
      </trkpt>
      <trkpt lat="59.126732" lon="18.20254">
        <ele>21.4</ele>
        <time>2014-10-11T10:51:51Z</time>
      </trkpt>
      <trkpt lat="59.126707" lon="18.202672">
        <ele>21.8</ele>
        <time>2014-10-11T10:51:52Z</time>
      </trkpt>
      <trkpt lat="59.126682" lon="18.202805">
        <ele>22.2</ele>
        <time>2014-10-11T10:51:53Z</time>
      </trkpt>
      <trkpt lat="59.126658" lon="18.202934">
        <ele>22.6</ele>
        <time>2014-10-11T10:51:54Z</time>
      </trkpt>
      <trkpt lat="59.126642" lon="18.203034">
        <ele>23</ele>
        <time>2014-10-11T10:51:55Z</time>
      </trkpt>
      <trkpt lat="59.126622" lon="18.20317">
        <ele>23.4</ele>
        <time>2014-10-11T10:51:56Z</time>
      </trkpt>
      <trkpt lat="59.126606" lon="18.203308">
        <ele>23.8</ele>
        <time>2014-10-11T10:51:57Z</time>
      </trkpt>
      <trkpt lat="59.12665" lon="18.203483">
        <ele>23.4</ele>
        <time>2014-10-11T10:51:58Z</time>
      </trkpt>
      <trkpt lat="59.126629" lon="18.203596">
        <ele>23.8</ele>
        <time>2014-10-11T10:51:59Z</time>
      </trkpt>
      <trkpt lat="59.126602" lon="18.203731">
        <ele>24.3</ele>
        <time>2014-10-11T10:52:00Z</time>
      </trkpt>
      <trkpt lat="59.126586" lon="18.203879">
        <ele>24.7</ele>
        <time>2014-10-11T10:52:01Z</time>
      </trkpt>
      <trkpt lat="59.126574" lon="18.204021">
        <ele>24.9</ele>
        <time>2014-10-11T10:52:02Z</time>
      </trkpt>
      <trkpt lat="59.126548" lon="18.204175">
        <ele>25.4</ele>
        <time>2014-10-11T10:52:03Z</time>
      </trkpt>
      <trkpt lat="59.126531" lon="18.204331">
        <ele>25.8</ele>
        <time>2014-10-11T10:52:04Z</time>
      </trkpt>
      <trkpt lat="59.126517" lon="18.204467">
        <ele>26.1</ele>
        <time>2014-10-11T10:52:05Z</time>
      </trkpt>
      <trkpt lat="59.126498" lon="18.204636">
        <ele>26.5</ele>
        <time>2014-10-11T10:52:06Z</time>
      </trkpt>
      <trkpt lat="59.126485" lon="18.204773">
        <ele>26.9</ele>
        <time>2014-10-11T10:52:07Z</time>
      </trkpt>
      <trkpt lat="59.126482" lon="18.204913">
        <ele>27.2</ele>
        <time>2014-10-11T10:52:08Z</time>
      </trkpt>
      <trkpt lat="59.126476" lon="18.20505">
        <ele>27.6</ele>
        <time>2014-10-11T10:52:09Z</time>
      </trkpt>
      <trkpt lat="59.126465" lon="18.205204">
        <ele>28</ele>
        <time>2014-10-11T10:52:10Z</time>
      </trkpt>
      <trkpt lat="59.126461" lon="18.205358">
        <ele>28.4</ele>
        <time>2014-10-11T10:52:11Z</time>
      </trkpt>
      <trkpt lat="59.126454" lon="18.205519">
        <ele>28.6</ele>
        <time>2014-10-11T10:52:12Z</time>
      </trkpt>
      <trkpt lat="59.126447" lon="18.205658">
        <ele>28.8</ele>
        <time>2014-10-11T10:52:13Z</time>
      </trkpt>
      <trkpt lat="59.126444" lon="18.205805">
        <ele>29</ele>
        <time>2014-10-11T10:52:14Z</time>
      </trkpt>
      <trkpt lat="59.126444" lon="18.205955">
        <ele>29.1</ele>
        <time>2014-10-11T10:52:15Z</time>
      </trkpt>
      <trkpt lat="59.126442" lon="18.206117">
        <ele>29.2</ele>
        <time>2014-10-11T10:52:16Z</time>
      </trkpt>
      <trkpt lat="59.126436" lon="18.206274">
        <ele>29.4</ele>
        <time>2014-10-11T10:52:17Z</time>
      </trkpt>
      <trkpt lat="59.126432" lon="18.206434">
        <ele>29.6</ele>
        <time>2014-10-11T10:52:18Z</time>
      </trkpt>
      <trkpt lat="59.126427" lon="18.206599">
        <ele>29.8</ele>
        <time>2014-10-11T10:52:19Z</time>
      </trkpt>
      <trkpt lat="59.12642" lon="18.206775">
        <ele>30.1</ele>
        <time>2014-10-11T10:52:20Z</time>
      </trkpt>
      <trkpt lat="59.126402" lon="18.206944">
        <ele>30.6</ele>
        <time>2014-10-11T10:52:21Z</time>
      </trkpt>
      <trkpt lat="59.126387" lon="18.2071">
        <ele>31</ele>
        <time>2014-10-11T10:52:22Z</time>
      </trkpt>
      <trkpt lat="59.126368" lon="18.207264">
        <ele>30.9</ele>
        <time>2014-10-11T10:52:23Z</time>
      </trkpt>
      <trkpt lat="59.126359" lon="18.20743">
        <ele>30.6</ele>
        <time>2014-10-11T10:52:24Z</time>
      </trkpt>
      <trkpt lat="59.126343" lon="18.207591">
        <ele>30.4</ele>
        <time>2014-10-11T10:52:25Z</time>
      </trkpt>
      <trkpt lat="59.126327" lon="18.20773">
        <ele>30.2</ele>
        <time>2014-10-11T10:52:26Z</time>
      </trkpt>
      <trkpt lat="59.126311" lon="18.207898">
        <ele>30</ele>
        <time>2014-10-11T10:52:27Z</time>
      </trkpt>
      <trkpt lat="59.126292" lon="18.208079">
        <ele>29.5</ele>
        <time>2014-10-11T10:52:28Z</time>
      </trkpt>
      <trkpt lat="59.126275" lon="18.208231">
        <ele>29.1</ele>
        <time>2014-10-11T10:52:29Z</time>
      </trkpt>
      <trkpt lat="59.126254" lon="18.208415">
        <ele>28.6</ele>
        <time>2014-10-11T10:52:30Z</time>
      </trkpt>
      <trkpt lat="59.126235" lon="18.208577">
        <ele>28.1</ele>
        <time>2014-10-11T10:52:31Z</time>
      </trkpt>
      <trkpt lat="59.126214" lon="18.208753">
        <ele>27.6</ele>
        <time>2014-10-11T10:52:32Z</time>
      </trkpt>
      <trkpt lat="59.12619" lon="18.208914">
        <ele>27.3</ele>
        <time>2014-10-11T10:52:33Z</time>
      </trkpt>
      <trkpt lat="59.126166" lon="18.209065">
        <ele>27.1</ele>
        <time>2014-10-11T10:52:34Z</time>
      </trkpt>
      <trkpt lat="59.126141" lon="18.209232">
        <ele>26.7</ele>
        <time>2014-10-11T10:52:35Z</time>
      </trkpt>
      <trkpt lat="59.126122" lon="18.209401">
        <ele>26.3</ele>
        <time>2014-10-11T10:52:36Z</time>
      </trkpt>
      <trkpt lat="59.126084" lon="18.209572">
        <ele>26</ele>
        <time>2014-10-11T10:52:37Z</time>
      </trkpt>
      <trkpt lat="59.126059" lon="18.209739">
        <ele>25.4</ele>
        <time>2014-10-11T10:52:38Z</time>
      </trkpt>
      <trkpt lat="59.126056" lon="18.209871">
        <ele>24.7</ele>
        <time>2014-10-11T10:52:39Z</time>
      </trkpt>
      <trkpt lat="59.126035" lon="18.210031">
        <ele>24</ele>
        <time>2014-10-11T10:52:40Z</time>
      </trkpt>
      <trkpt lat="59.126017" lon="18.210185">
        <ele>23.3</ele>
        <time>2014-10-11T10:52:41Z</time>
      </trkpt>
      <trkpt lat="59.125999" lon="18.210333">
        <ele>22.6</ele>
        <time>2014-10-11T10:52:42Z</time>
      </trkpt>
      <trkpt lat="59.12597" lon="18.210489">
        <ele>22.4</ele>
        <time>2014-10-11T10:52:43Z</time>
      </trkpt>
      <trkpt lat="59.125936" lon="18.210654">
        <ele>22.6</ele>
        <time>2014-10-11T10:52:44Z</time>
      </trkpt>
      <trkpt lat="59.125904" lon="18.210792">
        <ele>22.8</ele>
        <time>2014-10-11T10:52:45Z</time>
      </trkpt>
      <trkpt lat="59.125865" lon="18.210938">
        <ele>22.8</ele>
        <time>2014-10-11T10:52:46Z</time>
      </trkpt>
      <trkpt lat="59.125834" lon="18.211077">
        <ele>22.7</ele>
        <time>2014-10-11T10:52:47Z</time>
      </trkpt>
      <trkpt lat="59.125796" lon="18.21122">
        <ele>22.5</ele>
        <time>2014-10-11T10:52:48Z</time>
      </trkpt>
      <trkpt lat="59.125756" lon="18.211376">
        <ele>22.1</ele>
        <time>2014-10-11T10:52:49Z</time>
      </trkpt>
      <trkpt lat="59.125716" lon="18.211502">
        <ele>21.6</ele>
        <time>2014-10-11T10:52:50Z</time>
      </trkpt>
      <trkpt lat="59.125668" lon="18.211638">
        <ele>20.9</ele>
        <time>2014-10-11T10:52:51Z</time>
      </trkpt>
      <trkpt lat="59.125628" lon="18.211761">
        <ele>20.1</ele>
        <time>2014-10-11T10:52:52Z</time>
      </trkpt>
      <trkpt lat="59.12558" lon="18.211881">
        <ele>19.1</ele>
        <time>2014-10-11T10:52:53Z</time>
      </trkpt>
      <trkpt lat="59.125535" lon="18.212016">
        <ele>17.9</ele>
        <time>2014-10-11T10:52:54Z</time>
      </trkpt>
      <trkpt lat="59.125486" lon="18.212144">
        <ele>17.1</ele>
        <time>2014-10-11T10:52:55Z</time>
      </trkpt>
      <trkpt lat="59.125435" lon="18.21227">
        <ele>16.7</ele>
        <time>2014-10-11T10:52:56Z</time>
      </trkpt>
      <trkpt lat="59.12539" lon="18.212405">
        <ele>16.9</ele>
        <time>2014-10-11T10:52:57Z</time>
      </trkpt>
      <trkpt lat="59.125347" lon="18.212515">
        <ele>17.4</ele>
        <time>2014-10-11T10:52:58Z</time>
      </trkpt>
      <trkpt lat="59.125299" lon="18.21264">
        <ele>17.8</ele>
        <time>2014-10-11T10:52:59Z</time>
      </trkpt>
      <trkpt lat="59.125257" lon="18.212779">
        <ele>18.1</ele>
        <time>2014-10-11T10:53:00Z</time>
      </trkpt>
      <trkpt lat="59.125217" lon="18.212892">
        <ele>18.2</ele>
        <time>2014-10-11T10:53:01Z</time>
      </trkpt>
      <trkpt lat="59.125168" lon="18.213013">
        <ele>18.4</ele>
        <time>2014-10-11T10:53:02Z</time>
      </trkpt>
      <trkpt lat="59.125121" lon="18.213142">
        <ele>18.4</ele>
        <time>2014-10-11T10:53:03Z</time>
      </trkpt>
      <trkpt lat="59.12508" lon="18.213279">
        <ele>18.3</ele>
        <time>2014-10-11T10:53:04Z</time>
      </trkpt>
      <trkpt lat="59.125028" lon="18.213424">
        <ele>18</ele>
        <time>2014-10-11T10:53:05Z</time>
      </trkpt>
      <trkpt lat="59.124981" lon="18.213559">
        <ele>17.6</ele>
        <time>2014-10-11T10:53:06Z</time>
      </trkpt>
      <trkpt lat="59.124935" lon="18.213697">
        <ele>17.1</ele>
        <time>2014-10-11T10:53:07Z</time>
      </trkpt>
      <trkpt lat="59.12489" lon="18.213843">
        <ele>16.6</ele>
        <time>2014-10-11T10:53:08Z</time>
      </trkpt>
      <trkpt lat="59.124844" lon="18.213986">
        <ele>16.3</ele>
        <time>2014-10-11T10:53:09Z</time>
      </trkpt>
      <trkpt lat="59.124799" lon="18.214133">
        <ele>15.8</ele>
        <time>2014-10-11T10:53:10Z</time>
      </trkpt>
      <trkpt lat="59.124755" lon="18.214286">
        <ele>15.3</ele>
        <time>2014-10-11T10:53:11Z</time>
      </trkpt>
      <trkpt lat="59.124712" lon="18.21444">
        <ele>14.8</ele>
        <time>2014-10-11T10:53:12Z</time>
      </trkpt>
      <trkpt lat="59.124649" lon="18.214622">
        <ele>13.8</ele>
        <time>2014-10-11T10:53:13Z</time>
      </trkpt>
      <trkpt lat="59.124616" lon="18.214761">
        <ele>13.3</ele>
        <time>2014-10-11T10:53:14Z</time>
      </trkpt>
      <trkpt lat="59.124589" lon="18.214922">
        <ele>12.7</ele>
        <time>2014-10-11T10:53:15Z</time>
      </trkpt>
      <trkpt lat="59.124556" lon="18.215086">
        <ele>12.4</ele>
        <time>2014-10-11T10:53:16Z</time>
      </trkpt>
      <trkpt lat="59.124523" lon="18.21522">
        <ele>12.3</ele>
        <time>2014-10-11T10:53:17Z</time>
      </trkpt>
      <trkpt lat="59.124486" lon="18.2154">
        <ele>12</ele>
        <time>2014-10-11T10:53:18Z</time>
      </trkpt>
      <trkpt lat="59.124455" lon="18.215568">
        <ele>12.5</ele>
        <time>2014-10-11T10:53:19Z</time>
      </trkpt>
      <trkpt lat="59.124424" lon="18.215741">
        <ele>12.9</ele>
        <time>2014-10-11T10:53:20Z</time>
      </trkpt>
      <trkpt lat="59.124381" lon="18.215921">
        <ele>13.4</ele>
        <time>2014-10-11T10:53:21Z</time>
      </trkpt>
      <trkpt lat="59.124349" lon="18.216072">
        <ele>13.7</ele>
        <time>2014-10-11T10:53:22Z</time>
      </trkpt>
      <trkpt lat="59.124308" lon="18.21625">
        <ele>14</ele>
        <time>2014-10-11T10:53:23Z</time>
      </trkpt>
      <trkpt lat="59.124273" lon="18.216423">
        <ele>14.2</ele>
        <time>2014-10-11T10:53:24Z</time>
      </trkpt>
      <trkpt lat="59.124253" lon="18.216586">
        <ele>14.4</ele>
        <time>2014-10-11T10:53:25Z</time>
      </trkpt>
      <trkpt lat="59.124225" lon="18.216747">
        <ele>14.5</ele>
        <time>2014-10-11T10:53:26Z</time>
      </trkpt>
      <trkpt lat="59.124192" lon="18.216925">
        <ele>14.5</ele>
        <time>2014-10-11T10:53:27Z</time>
      </trkpt>
      <trkpt lat="59.124159" lon="18.217086">
        <ele>14.4</ele>
        <time>2014-10-11T10:53:28Z</time>
      </trkpt>
      <trkpt lat="59.124121" lon="18.217261">
        <ele>14.5</ele>
        <time>2014-10-11T10:53:29Z</time>
      </trkpt>
      <trkpt lat="59.124088" lon="18.217414">
        <ele>14.6</ele>
        <time>2014-10-11T10:53:30Z</time>
      </trkpt>
      <trkpt lat="59.124047" lon="18.217588">
        <ele>14.5</ele>
        <time>2014-10-11T10:53:31Z</time>
      </trkpt>
      <trkpt lat="59.123993" lon="18.217765">
        <ele>14.3</ele>
        <time>2014-10-11T10:53:32Z</time>
      </trkpt>
      <trkpt lat="59.123952" lon="18.217922">
        <ele>14.2</ele>
        <time>2014-10-11T10:53:33Z</time>
      </trkpt>
      <trkpt lat="59.123924" lon="18.218069">
        <ele>14.1</ele>
        <time>2014-10-11T10:53:34Z</time>
      </trkpt>
      <trkpt lat="59.12389" lon="18.218222">
        <ele>14</ele>
        <time>2014-10-11T10:53:35Z</time>
      </trkpt>
      <trkpt lat="59.123878" lon="18.218347">
        <ele>14.1</ele>
        <time>2014-10-11T10:53:36Z</time>
      </trkpt>
      <trkpt lat="59.123842" lon="18.218514">
        <ele>13.9</ele>
        <time>2014-10-11T10:53:37Z</time>
      </trkpt>
      <trkpt lat="59.123815" lon="18.21865">
        <ele>13.7</ele>
        <time>2014-10-11T10:53:38Z</time>
      </trkpt>
      <trkpt lat="59.123781" lon="18.2188">
        <ele>13.8</ele>
        <time>2014-10-11T10:53:39Z</time>
      </trkpt>
      <trkpt lat="59.123753" lon="18.21892">
        <ele>14.3</ele>
        <time>2014-10-11T10:53:40Z</time>
      </trkpt>
      <trkpt lat="59.123731" lon="18.219045">
        <ele>15.1</ele>
        <time>2014-10-11T10:53:41Z</time>
      </trkpt>
      <trkpt lat="59.123694" lon="18.219182">
        <ele>15.9</ele>
        <time>2014-10-11T10:53:42Z</time>
      </trkpt>
      <trkpt lat="59.123665" lon="18.219297">
        <ele>16.6</ele>
        <time>2014-10-11T10:53:43Z</time>
      </trkpt>
      <trkpt lat="59.123633" lon="18.219421">
        <ele>17.4</ele>
        <time>2014-10-11T10:53:44Z</time>
      </trkpt>
      <trkpt lat="59.123609" lon="18.219537">
        <ele>18</ele>
        <time>2014-10-11T10:53:45Z</time>
      </trkpt>
      <trkpt lat="59.123583" lon="18.219644">
        <ele>18.6</ele>
        <time>2014-10-11T10:53:46Z</time>
      </trkpt>
      <trkpt lat="59.123559" lon="18.219755">
        <ele>19.2</ele>
        <time>2014-10-11T10:53:47Z</time>
      </trkpt>
      <trkpt lat="59.123539" lon="18.219864">
        <ele>19.8</ele>
        <time>2014-10-11T10:53:48Z</time>
      </trkpt>
      <trkpt lat="59.12352" lon="18.219973">
        <ele>20.3</ele>
        <time>2014-10-11T10:53:49Z</time>
      </trkpt>
      <trkpt lat="59.123489" lon="18.220087">
        <ele>20.8</ele>
        <time>2014-10-11T10:53:50Z</time>
      </trkpt>
      <trkpt lat="59.123469" lon="18.220201">
        <ele>21.3</ele>
        <time>2014-10-11T10:53:51Z</time>
      </trkpt>
      <trkpt lat="59.123446" lon="18.220326">
        <ele>21.9</ele>
        <time>2014-10-11T10:53:52Z</time>
      </trkpt>
      <trkpt lat="59.123412" lon="18.22045">
        <ele>22.2</ele>
        <time>2014-10-11T10:53:53Z</time>
      </trkpt>
      <trkpt lat="59.123377" lon="18.220556">
        <ele>22</ele>
        <time>2014-10-11T10:53:54Z</time>
      </trkpt>
      <trkpt lat="59.123349" lon="18.220667">
        <ele>21.9</ele>
        <time>2014-10-11T10:53:55Z</time>
      </trkpt>
      <trkpt lat="59.123314" lon="18.220794">
        <ele>21.8</ele>
        <time>2014-10-11T10:53:56Z</time>
      </trkpt>
      <trkpt lat="59.12328" lon="18.220918">
        <ele>21.7</ele>
        <time>2014-10-11T10:53:57Z</time>
      </trkpt>
      <trkpt lat="59.123251" lon="18.221031">
        <ele>21.7</ele>
        <time>2014-10-11T10:53:58Z</time>
      </trkpt>
      <trkpt lat="59.123222" lon="18.221142">
        <ele>21.7</ele>
        <time>2014-10-11T10:53:59Z</time>
      </trkpt>
      <trkpt lat="59.123193" lon="18.221245">
        <ele>21.6</ele>
        <time>2014-10-11T10:54:00Z</time>
      </trkpt>
      <trkpt lat="59.123159" lon="18.221386">
        <ele>21.7</ele>
        <time>2014-10-11T10:54:01Z</time>
      </trkpt>
      <trkpt lat="59.123136" lon="18.221486">
        <ele>21.8</ele>
        <time>2014-10-11T10:54:02Z</time>
      </trkpt>
      <trkpt lat="59.123117" lon="18.221614">
        <ele>22</ele>
        <time>2014-10-11T10:54:03Z</time>
      </trkpt>
      <trkpt lat="59.123087" lon="18.221761">
        <ele>22.1</ele>
        <time>2014-10-11T10:54:04Z</time>
      </trkpt>
      <trkpt lat="59.123042" lon="18.221894">
        <ele>22.2</ele>
        <time>2014-10-11T10:54:05Z</time>
      </trkpt>
      <trkpt lat="59.122996" lon="18.222046">
        <ele>22.3</ele>
        <time>2014-10-11T10:54:06Z</time>
      </trkpt>
      <trkpt lat="59.122933" lon="18.222226">
        <ele>21.4</ele>
        <time>2014-10-11T10:54:07Z</time>
      </trkpt>
      <trkpt lat="59.122905" lon="18.222352">
        <ele>20.6</ele>
        <time>2014-10-11T10:54:08Z</time>
      </trkpt>
      <trkpt lat="59.122855" lon="18.222527">
        <ele>19.4</ele>
        <time>2014-10-11T10:54:09Z</time>
      </trkpt>
      <trkpt lat="59.122798" lon="18.222692">
        <ele>18.3</ele>
        <time>2014-10-11T10:54:10Z</time>
      </trkpt>
      <trkpt lat="59.122754" lon="18.222862">
        <ele>17.2</ele>
        <time>2014-10-11T10:54:11Z</time>
      </trkpt>
      <trkpt lat="59.122703" lon="18.223035">
        <ele>16.2</ele>
        <time>2014-10-11T10:54:12Z</time>
      </trkpt>
      <trkpt lat="59.122657" lon="18.223181">
        <ele>15.4</ele>
        <time>2014-10-11T10:54:13Z</time>
      </trkpt>
      <trkpt lat="59.122602" lon="18.223368">
        <ele>14.4</ele>
        <time>2014-10-11T10:54:14Z</time>
      </trkpt>
      <trkpt lat="59.122557" lon="18.22354">
        <ele>13.5</ele>
        <time>2014-10-11T10:54:15Z</time>
      </trkpt>
      <trkpt lat="59.122503" lon="18.223709">
        <ele>12.7</ele>
        <time>2014-10-11T10:54:16Z</time>
      </trkpt>
      <trkpt lat="59.122452" lon="18.223884">
        <ele>12.1</ele>
        <time>2014-10-11T10:54:17Z</time>
      </trkpt>
      <trkpt lat="59.122408" lon="18.224045">
        <ele>11.7</ele>
        <time>2014-10-11T10:54:18Z</time>
      </trkpt>
      <trkpt lat="59.12236" lon="18.224218">
        <ele>11.2</ele>
        <time>2014-10-11T10:54:19Z</time>
      </trkpt>
      <trkpt lat="59.122306" lon="18.224405">
        <ele>10.8</ele>
        <time>2014-10-11T10:54:20Z</time>
      </trkpt>
      <trkpt lat="59.122263" lon="18.224552">
        <ele>10.5</ele>
        <time>2014-10-11T10:54:21Z</time>
      </trkpt>
      <trkpt lat="59.122213" lon="18.22471">
        <ele>10.1</ele>
        <time>2014-10-11T10:54:22Z</time>
      </trkpt>
      <trkpt lat="59.122165" lon="18.22487">
        <ele>9.8</ele>
        <time>2014-10-11T10:54:23Z</time>
      </trkpt>
      <trkpt lat="59.12212" lon="18.225033">
        <ele>9.5</ele>
        <time>2014-10-11T10:54:24Z</time>
      </trkpt>
      <trkpt lat="59.122073" lon="18.225199">
        <ele>9.2</ele>
        <time>2014-10-11T10:54:25Z</time>
      </trkpt>
      <trkpt lat="59.122031" lon="18.225333">
        <ele>9</ele>
        <time>2014-10-11T10:54:26Z</time>
      </trkpt>
      <trkpt lat="59.121988" lon="18.225486">
        <ele>8.8</ele>
        <time>2014-10-11T10:54:27Z</time>
      </trkpt>
      <trkpt lat="59.121947" lon="18.225637">
        <ele>8.7</ele>
        <time>2014-10-11T10:54:28Z</time>
      </trkpt>
      <trkpt lat="59.121907" lon="18.225794">
        <ele>8.7</ele>
        <time>2014-10-11T10:54:29Z</time>
      </trkpt>
      <trkpt lat="59.12186" lon="18.225945">
        <ele>8.6</ele>
        <time>2014-10-11T10:54:30Z</time>
      </trkpt>
      <trkpt lat="59.121811" lon="18.22609">
        <ele>8.6</ele>
        <time>2014-10-11T10:54:31Z</time>
      </trkpt>
      <trkpt lat="59.121767" lon="18.226234">
        <ele>8.6</ele>
        <time>2014-10-11T10:54:32Z</time>
      </trkpt>
      <trkpt lat="59.121719" lon="18.22639">
        <ele>8.7</ele>
        <time>2014-10-11T10:54:33Z</time>
      </trkpt>
      <trkpt lat="59.121676" lon="18.226519">
        <ele>8.8</ele>
        <time>2014-10-11T10:54:34Z</time>
      </trkpt>
      <trkpt lat="59.121635" lon="18.226657">
        <ele>9</ele>
        <time>2014-10-11T10:54:35Z</time>
      </trkpt>
      <trkpt lat="59.12159" lon="18.226802">
        <ele>9.1</ele>
        <time>2014-10-11T10:54:36Z</time>
      </trkpt>
      <trkpt lat="59.121548" lon="18.226936">
        <ele>9.2</ele>
        <time>2014-10-11T10:54:37Z</time>
      </trkpt>
      <trkpt lat="59.121511" lon="18.227073">
        <ele>9.3</ele>
        <time>2014-10-11T10:54:38Z</time>
      </trkpt>
      <trkpt lat="59.121474" lon="18.227204">
        <ele>9.4</ele>
        <time>2014-10-11T10:54:39Z</time>
      </trkpt>
      <trkpt lat="59.121433" lon="18.227342">
        <ele>9.5</ele>
        <time>2014-10-11T10:54:40Z</time>
      </trkpt>
      <trkpt lat="59.121394" lon="18.227484">
        <ele>9.6</ele>
        <time>2014-10-11T10:54:41Z</time>
      </trkpt>
      <trkpt lat="59.121355" lon="18.227629">
        <ele>9.7</ele>
        <time>2014-10-11T10:54:42Z</time>
      </trkpt>
      <trkpt lat="59.121311" lon="18.227773">
        <ele>9.8</ele>
        <time>2014-10-11T10:54:43Z</time>
      </trkpt>
      <trkpt lat="59.121274" lon="18.227908">
        <ele>10</ele>
        <time>2014-10-11T10:54:44Z</time>
      </trkpt>
      <trkpt lat="59.121233" lon="18.228046">
        <ele>10.1</ele>
        <time>2014-10-11T10:54:45Z</time>
      </trkpt>
      <trkpt lat="59.12119" lon="18.228186">
        <ele>10.2</ele>
        <time>2014-10-11T10:54:46Z</time>
      </trkpt>
      <trkpt lat="59.121152" lon="18.228309">
        <ele>10.3</ele>
        <time>2014-10-11T10:54:47Z</time>
      </trkpt>
      <trkpt lat="59.121104" lon="18.228443">
        <ele>10.5</ele>
        <time>2014-10-11T10:54:48Z</time>
      </trkpt>
      <trkpt lat="59.121058" lon="18.228586">
        <ele>10.7</ele>
        <time>2014-10-11T10:54:49Z</time>
      </trkpt>
      <trkpt lat="59.121018" lon="18.228723">
        <ele>10.9</ele>
        <time>2014-10-11T10:54:50Z</time>
      </trkpt>
      <trkpt lat="59.120973" lon="18.228871">
        <ele>11.1</ele>
        <time>2014-10-11T10:54:51Z</time>
      </trkpt>
      <trkpt lat="59.120931" lon="18.229006">
        <ele>11.3</ele>
        <time>2014-10-11T10:54:52Z</time>
      </trkpt>
      <trkpt lat="59.120902" lon="18.22913">
        <ele>11.5</ele>
        <time>2014-10-11T10:54:53Z</time>
      </trkpt>
      <trkpt lat="59.120858" lon="18.229269">
        <ele>11.6</ele>
        <time>2014-10-11T10:54:54Z</time>
      </trkpt>
      <trkpt lat="59.120821" lon="18.229413">
        <ele>11.8</ele>
        <time>2014-10-11T10:54:55Z</time>
      </trkpt>
      <trkpt lat="59.120784" lon="18.229557">
        <ele>12</ele>
        <time>2014-10-11T10:54:56Z</time>
      </trkpt>
      <trkpt lat="59.120747" lon="18.229699">
        <ele>12.2</ele>
        <time>2014-10-11T10:54:57Z</time>
      </trkpt>
      <trkpt lat="59.120709" lon="18.229831">
        <ele>12.5</ele>
        <time>2014-10-11T10:54:58Z</time>
      </trkpt>
      <trkpt lat="59.120683" lon="18.229991">
        <ele>12.8</ele>
        <time>2014-10-11T10:54:59Z</time>
      </trkpt>
      <trkpt lat="59.120664" lon="18.23013">
        <ele>13.1</ele>
        <time>2014-10-11T10:55:00Z</time>
      </trkpt>
      <trkpt lat="59.120638" lon="18.230282">
        <ele>13.5</ele>
        <time>2014-10-11T10:55:01Z</time>
      </trkpt>
      <trkpt lat="59.120627" lon="18.230438">
        <ele>13.7</ele>
        <time>2014-10-11T10:55:02Z</time>
      </trkpt>
      <trkpt lat="59.120609" lon="18.230593">
        <ele>13.4</ele>
        <time>2014-10-11T10:55:03Z</time>
      </trkpt>
      <trkpt lat="59.120585" lon="18.230751">
        <ele>13.1</ele>
        <time>2014-10-11T10:55:04Z</time>
      </trkpt>
      <trkpt lat="59.120578" lon="18.230905">
        <ele>12.7</ele>
        <time>2014-10-11T10:55:05Z</time>
      </trkpt>
      <trkpt lat="59.12057" lon="18.231062">
        <ele>12.4</ele>
        <time>2014-10-11T10:55:06Z</time>
      </trkpt>
      <trkpt lat="59.120552" lon="18.231223">
        <ele>12.1</ele>
        <time>2014-10-11T10:55:07Z</time>
      </trkpt>
      <trkpt lat="59.120524" lon="18.231398">
        <ele>11.7</ele>
        <time>2014-10-11T10:55:08Z</time>
      </trkpt>
      <trkpt lat="59.120503" lon="18.23156">
        <ele>11.3</ele>
        <time>2014-10-11T10:55:09Z</time>
      </trkpt>
      <trkpt lat="59.120492" lon="18.231729">
        <ele>10.9</ele>
        <time>2014-10-11T10:55:10Z</time>
      </trkpt>
      <trkpt lat="59.12048" lon="18.231906">
        <ele>10.5</ele>
        <time>2014-10-11T10:55:11Z</time>
      </trkpt>
      <trkpt lat="59.120463" lon="18.23209">
        <ele>10</ele>
        <time>2014-10-11T10:55:12Z</time>
      </trkpt>
      <trkpt lat="59.120446" lon="18.23228">
        <ele>9.8</ele>
        <time>2014-10-11T10:55:13Z</time>
      </trkpt>
      <trkpt lat="59.120424" lon="18.232459">
        <ele>9.6</ele>
        <time>2014-10-11T10:55:14Z</time>
      </trkpt>
      <trkpt lat="59.120398" lon="18.232651">
        <ele>9.3</ele>
        <time>2014-10-11T10:55:15Z</time>
      </trkpt>
      <trkpt lat="59.120383" lon="18.23284">
        <ele>9</ele>
        <time>2014-10-11T10:55:16Z</time>
      </trkpt>
      <trkpt lat="59.120366" lon="18.233041">
        <ele>8.5</ele>
        <time>2014-10-11T10:55:17Z</time>
      </trkpt>
      <trkpt lat="59.120345" lon="18.233225">
        <ele>8</ele>
        <time>2014-10-11T10:55:18Z</time>
      </trkpt>
      <trkpt lat="59.120329" lon="18.233403">
        <ele>7.6</ele>
        <time>2014-10-11T10:55:19Z</time>
      </trkpt>
      <trkpt lat="59.120315" lon="18.233583">
        <ele>7.1</ele>
        <time>2014-10-11T10:55:20Z</time>
      </trkpt>
      <trkpt lat="59.120298" lon="18.233762">
        <ele>6.7</ele>
        <time>2014-10-11T10:55:21Z</time>
      </trkpt>
      <trkpt lat="59.12029" lon="18.233909">
        <ele>6.7</ele>
        <time>2014-10-11T10:55:22Z</time>
      </trkpt>
      <trkpt lat="59.120274" lon="18.234076">
        <ele>6.7</ele>
        <time>2014-10-11T10:55:23Z</time>
      </trkpt>
      <trkpt lat="59.120251" lon="18.234258">
        <ele>6.6</ele>
        <time>2014-10-11T10:55:24Z</time>
      </trkpt>
      <trkpt lat="59.120238" lon="18.234428">
        <ele>6.6</ele>
        <time>2014-10-11T10:55:25Z</time>
      </trkpt>
      <trkpt lat="59.120229" lon="18.234589">
        <ele>6.6</ele>
        <time>2014-10-11T10:55:26Z</time>
      </trkpt>
      <trkpt lat="59.120216" lon="18.234749">
        <ele>6.6</ele>
        <time>2014-10-11T10:55:27Z</time>
      </trkpt>
      <trkpt lat="59.120199" lon="18.234922">
        <ele>6.6</ele>
        <time>2014-10-11T10:55:28Z</time>
      </trkpt>
      <trkpt lat="59.12017" lon="18.235101">
        <ele>6.6</ele>
        <time>2014-10-11T10:55:29Z</time>
      </trkpt>
      <trkpt lat="59.120156" lon="18.235267">
        <ele>6.6</ele>
        <time>2014-10-11T10:55:30Z</time>
      </trkpt>
      <trkpt lat="59.120136" lon="18.235438">
        <ele>6.7</ele>
        <time>2014-10-11T10:55:31Z</time>
      </trkpt>
      <trkpt lat="59.120114" lon="18.235594">
        <ele>6.8</ele>
        <time>2014-10-11T10:55:32Z</time>
      </trkpt>
      <trkpt lat="59.120094" lon="18.235764">
        <ele>6.9</ele>
        <time>2014-10-11T10:55:33Z</time>
      </trkpt>
      <trkpt lat="59.120082" lon="18.235915">
        <ele>7</ele>
        <time>2014-10-11T10:55:34Z</time>
      </trkpt>
      <trkpt lat="59.120068" lon="18.236071">
        <ele>7</ele>
        <time>2014-10-11T10:55:35Z</time>
      </trkpt>
      <trkpt lat="59.120049" lon="18.236243">
        <ele>7.1</ele>
        <time>2014-10-11T10:55:36Z</time>
      </trkpt>
      <trkpt lat="59.120039" lon="18.236402">
        <ele>7.2</ele>
        <time>2014-10-11T10:55:37Z</time>
      </trkpt>
      <trkpt lat="59.120024" lon="18.236577">
        <ele>7.3</ele>
        <time>2014-10-11T10:55:38Z</time>
      </trkpt>
      <trkpt lat="59.120007" lon="18.236743">
        <ele>7.3</ele>
        <time>2014-10-11T10:55:39Z</time>
      </trkpt>
      <trkpt lat="59.119992" lon="18.236922">
        <ele>7.4</ele>
        <time>2014-10-11T10:55:40Z</time>
      </trkpt>
      <trkpt lat="59.119976" lon="18.237081">
        <ele>7.4</ele>
        <time>2014-10-11T10:55:41Z</time>
      </trkpt>
      <trkpt lat="59.119957" lon="18.237246">
        <ele>7.3</ele>
        <time>2014-10-11T10:55:42Z</time>
      </trkpt>
      <trkpt lat="59.119935" lon="18.237406">
        <ele>7.2</ele>
        <time>2014-10-11T10:55:43Z</time>
      </trkpt>
      <trkpt lat="59.119919" lon="18.237566">
        <ele>7.1</ele>
        <time>2014-10-11T10:55:44Z</time>
      </trkpt>
      <trkpt lat="59.119909" lon="18.237749">
        <ele>7</ele>
        <time>2014-10-11T10:55:45Z</time>
      </trkpt>
      <trkpt lat="59.119897" lon="18.23793">
        <ele>6.9</ele>
        <time>2014-10-11T10:55:46Z</time>
      </trkpt>
      <trkpt lat="59.119893" lon="18.238096">
        <ele>6.7</ele>
        <time>2014-10-11T10:55:47Z</time>
      </trkpt>
      <trkpt lat="59.119883" lon="18.238256">
        <ele>6.6</ele>
        <time>2014-10-11T10:55:48Z</time>
      </trkpt>
      <trkpt lat="59.11988" lon="18.238441">
        <ele>6.4</ele>
        <time>2014-10-11T10:55:49Z</time>
      </trkpt>
      <trkpt lat="59.119883" lon="18.23861">
        <ele>6.3</ele>
        <time>2014-10-11T10:55:50Z</time>
      </trkpt>
      <trkpt lat="59.119884" lon="18.238773">
        <ele>6.2</ele>
        <time>2014-10-11T10:55:51Z</time>
      </trkpt>
      <trkpt lat="59.119888" lon="18.238948">
        <ele>6.3</ele>
        <time>2014-10-11T10:55:52Z</time>
      </trkpt>
      <trkpt lat="59.119902" lon="18.239122">
        <ele>6.4</ele>
        <time>2014-10-11T10:55:53Z</time>
      </trkpt>
      <trkpt lat="59.119921" lon="18.239259">
        <ele>6.6</ele>
        <time>2014-10-11T10:55:54Z</time>
      </trkpt>
      <trkpt lat="59.119942" lon="18.239421">
        <ele>6.9</ele>
        <time>2014-10-11T10:55:55Z</time>
      </trkpt>
      <trkpt lat="59.119963" lon="18.239592">
        <ele>7.1</ele>
        <time>2014-10-11T10:55:56Z</time>
      </trkpt>
      <trkpt lat="59.119967" lon="18.239716">
        <ele>7.3</ele>
        <time>2014-10-11T10:55:57Z</time>
      </trkpt>
      <trkpt lat="59.11999" lon="18.23986">
        <ele>7.7</ele>
        <time>2014-10-11T10:55:58Z</time>
      </trkpt>
      <trkpt lat="59.120016" lon="18.239994">
        <ele>8.2</ele>
        <time>2014-10-11T10:55:59Z</time>
      </trkpt>
      <trkpt lat="59.120043" lon="18.240142">
        <ele>8.6</ele>
        <time>2014-10-11T10:56:00Z</time>
      </trkpt>
      <trkpt lat="59.120068" lon="18.240265">
        <ele>9.1</ele>
        <time>2014-10-11T10:56:01Z</time>
      </trkpt>
      <trkpt lat="59.120077" lon="18.240398">
        <ele>9.3</ele>
        <time>2014-10-11T10:56:02Z</time>
      </trkpt>
      <trkpt lat="59.120097" lon="18.240544">
        <ele>9.7</ele>
        <time>2014-10-11T10:56:03Z</time>
      </trkpt>
      <trkpt lat="59.120116" lon="18.240664">
        <ele>10</ele>
        <time>2014-10-11T10:56:04Z</time>
      </trkpt>
      <trkpt lat="59.120161" lon="18.240842">
        <ele>10.7</ele>
        <time>2014-10-11T10:56:05Z</time>
      </trkpt>
      <trkpt lat="59.120194" lon="18.240974">
        <ele>11.3</ele>
        <time>2014-10-11T10:56:06Z</time>
      </trkpt>
      <trkpt lat="59.12023" lon="18.24111">
        <ele>11.8</ele>
        <time>2014-10-11T10:56:07Z</time>
      </trkpt>
      <trkpt lat="59.120274" lon="18.24124">
        <ele>12.4</ele>
        <time>2014-10-11T10:56:08Z</time>
      </trkpt>
      <trkpt lat="59.12031" lon="18.241379">
        <ele>13</ele>
        <time>2014-10-11T10:56:09Z</time>
      </trkpt>
      <trkpt lat="59.120349" lon="18.241487">
        <ele>13.6</ele>
        <time>2014-10-11T10:56:10Z</time>
      </trkpt>
      <trkpt lat="59.12037" lon="18.241631">
        <ele>14</ele>
        <time>2014-10-11T10:56:11Z</time>
      </trkpt>
      <trkpt lat="59.120402" lon="18.241779">
        <ele>14.5</ele>
        <time>2014-10-11T10:56:12Z</time>
      </trkpt>
      <trkpt lat="59.120433" lon="18.241908">
        <ele>14.8</ele>
        <time>2014-10-11T10:56:13Z</time>
      </trkpt>
      <trkpt lat="59.120464" lon="18.24206">
        <ele>15.1</ele>
        <time>2014-10-11T10:56:14Z</time>
      </trkpt>
      <trkpt lat="59.12049" lon="18.242196">
        <ele>14.8</ele>
        <time>2014-10-11T10:56:15Z</time>
      </trkpt>
      <trkpt lat="59.120526" lon="18.242355">
        <ele>14.4</ele>
        <time>2014-10-11T10:56:16Z</time>
      </trkpt>
      <trkpt lat="59.120554" lon="18.242529">
        <ele>13.9</ele>
        <time>2014-10-11T10:56:17Z</time>
      </trkpt>
      <trkpt lat="59.120586" lon="18.242669">
        <ele>13.6</ele>
        <time>2014-10-11T10:56:18Z</time>
      </trkpt>
      <trkpt lat="59.120625" lon="18.242839">
        <ele>13.2</ele>
        <time>2014-10-11T10:56:19Z</time>
      </trkpt>
      <trkpt lat="59.120647" lon="18.242967">
        <ele>13</ele>
        <time>2014-10-11T10:56:20Z</time>
      </trkpt>
      <trkpt lat="59.120675" lon="18.243112">
        <ele>12.7</ele>
        <time>2014-10-11T10:56:21Z</time>
      </trkpt>
      <trkpt lat="59.120703" lon="18.243248">
        <ele>12.5</ele>
        <time>2014-10-11T10:56:22Z</time>
      </trkpt>
      <trkpt lat="59.120721" lon="18.243375">
        <ele>12.2</ele>
        <time>2014-10-11T10:56:23Z</time>
      </trkpt>
      <trkpt lat="59.12074" lon="18.243519">
        <ele>11.9</ele>
        <time>2014-10-11T10:56:24Z</time>
      </trkpt>
      <trkpt lat="59.120769" lon="18.243642">
        <ele>11.8</ele>
        <time>2014-10-11T10:56:25Z</time>
      </trkpt>
      <trkpt lat="59.120787" lon="18.243783">
        <ele>11.7</ele>
        <time>2014-10-11T10:56:26Z</time>
      </trkpt>
      <trkpt lat="59.12081" lon="18.243918">
        <ele>11.9</ele>
        <time>2014-10-11T10:56:27Z</time>
      </trkpt>
      <trkpt lat="59.120825" lon="18.244067">
        <ele>12.1</ele>
        <time>2014-10-11T10:56:28Z</time>
      </trkpt>
      <trkpt lat="59.120837" lon="18.244218">
        <ele>12.3</ele>
        <time>2014-10-11T10:56:29Z</time>
      </trkpt>
      <trkpt lat="59.120843" lon="18.24438">
        <ele>12.4</ele>
        <time>2014-10-11T10:56:30Z</time>
      </trkpt>
      <trkpt lat="59.120862" lon="18.244542">
        <ele>12.6</ele>
        <time>2014-10-11T10:56:31Z</time>
      </trkpt>
      <trkpt lat="59.120873" lon="18.244701">
        <ele>12.8</ele>
        <time>2014-10-11T10:56:32Z</time>
      </trkpt>
      <trkpt lat="59.120877" lon="18.244855">
        <ele>12.9</ele>
        <time>2014-10-11T10:56:33Z</time>
      </trkpt>
      <trkpt lat="59.120892" lon="18.245005">
        <ele>13.1</ele>
        <time>2014-10-11T10:56:34Z</time>
      </trkpt>
      <trkpt lat="59.120902" lon="18.24516">
        <ele>13.2</ele>
        <time>2014-10-11T10:56:35Z</time>
      </trkpt>
      <trkpt lat="59.120905" lon="18.245331">
        <ele>13.3</ele>
        <time>2014-10-11T10:56:36Z</time>
      </trkpt>
      <trkpt lat="59.120907" lon="18.245495">
        <ele>13.4</ele>
        <time>2014-10-11T10:56:37Z</time>
      </trkpt>
      <trkpt lat="59.120907" lon="18.245663">
        <ele>13.5</ele>
        <time>2014-10-11T10:56:38Z</time>
      </trkpt>
      <trkpt lat="59.120905" lon="18.245804">
        <ele>13.5</ele>
        <time>2014-10-11T10:56:39Z</time>
      </trkpt>
      <trkpt lat="59.120896" lon="18.245936">
        <ele>13.6</ele>
        <time>2014-10-11T10:56:40Z</time>
      </trkpt>
      <trkpt lat="59.120884" lon="18.246094">
        <ele>13.6</ele>
        <time>2014-10-11T10:56:41Z</time>
      </trkpt>
      <trkpt lat="59.120874" lon="18.246235">
        <ele>13.6</ele>
        <time>2014-10-11T10:56:42Z</time>
      </trkpt>
      <trkpt lat="59.120873" lon="18.246378">
        <ele>13.9</ele>
        <time>2014-10-11T10:56:43Z</time>
      </trkpt>
      <trkpt lat="59.120841" lon="18.246539">
        <ele>14</ele>
        <time>2014-10-11T10:56:44Z</time>
      </trkpt>
      <trkpt lat="59.120816" lon="18.246674">
        <ele>14.2</ele>
        <time>2014-10-11T10:56:45Z</time>
      </trkpt>
      <trkpt lat="59.120773" lon="18.246847">
        <ele>14.4</ele>
        <time>2014-10-11T10:56:46Z</time>
      </trkpt>
      <trkpt lat="59.120738" lon="18.246996">
        <ele>14.6</ele>
        <time>2014-10-11T10:56:47Z</time>
      </trkpt>
      <trkpt lat="59.120691" lon="18.247158">
        <ele>14.5</ele>
        <time>2014-10-11T10:56:48Z</time>
      </trkpt>
      <trkpt lat="59.120653" lon="18.247324">
        <ele>14.1</ele>
        <time>2014-10-11T10:56:49Z</time>
      </trkpt>
      <trkpt lat="59.120614" lon="18.24747">
        <ele>13.7</ele>
        <time>2014-10-11T10:56:50Z</time>
      </trkpt>
      <trkpt lat="59.12058" lon="18.247636">
        <ele>13.2</ele>
        <time>2014-10-11T10:56:51Z</time>
      </trkpt>
      <trkpt lat="59.120538" lon="18.247798">
        <ele>12.7</ele>
        <time>2014-10-11T10:56:52Z</time>
      </trkpt>
      <trkpt lat="59.120501" lon="18.247963">
        <ele>12.1</ele>
        <time>2014-10-11T10:56:53Z</time>
      </trkpt>
      <trkpt lat="59.120458" lon="18.248144">
        <ele>11.4</ele>
        <time>2014-10-11T10:56:54Z</time>
      </trkpt>
      <trkpt lat="59.120419" lon="18.248294">
        <ele>10.7</ele>
        <time>2014-10-11T10:56:55Z</time>
      </trkpt>
      <trkpt lat="59.12038" lon="18.248445">
        <ele>10.1</ele>
        <time>2014-10-11T10:56:56Z</time>
      </trkpt>
      <trkpt lat="59.120341" lon="18.248629">
        <ele>9.4</ele>
        <time>2014-10-11T10:56:57Z</time>
      </trkpt>
      <trkpt lat="59.120307" lon="18.248779">
        <ele>9</ele>
        <time>2014-10-11T10:56:58Z</time>
      </trkpt>
      <trkpt lat="59.12027" lon="18.248943">
        <ele>9.2</ele>
        <time>2014-10-11T10:56:59Z</time>
      </trkpt>
      <trkpt lat="59.12023" lon="18.249111">
        <ele>9.3</ele>
        <time>2014-10-11T10:57:00Z</time>
      </trkpt>
      <trkpt lat="59.120194" lon="18.249262">
        <ele>9.5</ele>
        <time>2014-10-11T10:57:01Z</time>
      </trkpt>
      <trkpt lat="59.120159" lon="18.249426">
        <ele>9.6</ele>
        <time>2014-10-11T10:57:02Z</time>
      </trkpt>
      <trkpt lat="59.120127" lon="18.249588">
        <ele>9.7</ele>
        <time>2014-10-11T10:57:03Z</time>
      </trkpt>
      <trkpt lat="59.120095" lon="18.249745">
        <ele>9.8</ele>
        <time>2014-10-11T10:57:04Z</time>
      </trkpt>
      <trkpt lat="59.120061" lon="18.249903">
        <ele>9.8</ele>
        <time>2014-10-11T10:57:05Z</time>
      </trkpt>
      <trkpt lat="59.120022" lon="18.250041">
        <ele>9.8</ele>
        <time>2014-10-11T10:57:06Z</time>
      </trkpt>
      <trkpt lat="59.119981" lon="18.250188">
        <ele>9.8</ele>
        <time>2014-10-11T10:57:07Z</time>
      </trkpt>
      <trkpt lat="59.11994" lon="18.25032">
        <ele>9.7</ele>
        <time>2014-10-11T10:57:08Z</time>
      </trkpt>
      <trkpt lat="59.119896" lon="18.25044">
        <ele>9.6</ele>
        <time>2014-10-11T10:57:09Z</time>
      </trkpt>
      <trkpt lat="59.119845" lon="18.250564">
        <ele>9.9</ele>
        <time>2014-10-11T10:57:10Z</time>
      </trkpt>
      <trkpt lat="59.119798" lon="18.250671">
        <ele>10.1</ele>
        <time>2014-10-11T10:57:11Z</time>
      </trkpt>
      <trkpt lat="59.11974" lon="18.250792">
        <ele>10.3</ele>
        <time>2014-10-11T10:57:12Z</time>
      </trkpt>
      <trkpt lat="59.119678" lon="18.250891">
        <ele>10.3</ele>
        <time>2014-10-11T10:57:13Z</time>
      </trkpt>
      <trkpt lat="59.119627" lon="18.250962">
        <ele>10.2</ele>
        <time>2014-10-11T10:57:14Z</time>
      </trkpt>
      <trkpt lat="59.119574" lon="18.251047">
        <ele>10.2</ele>
        <time>2014-10-11T10:57:15Z</time>
      </trkpt>
      <trkpt lat="59.119523" lon="18.251131">
        <ele>10.1</ele>
        <time>2014-10-11T10:57:16Z</time>
      </trkpt>
      <trkpt lat="59.119472" lon="18.251213">
        <ele>9.9</ele>
        <time>2014-10-11T10:57:17Z</time>
      </trkpt>
      <trkpt lat="59.119414" lon="18.251326">
        <ele>9.8</ele>
        <time>2014-10-11T10:57:18Z</time>
      </trkpt>
      <trkpt lat="59.119358" lon="18.251439">
        <ele>9.7</ele>
        <time>2014-10-11T10:57:19Z</time>
      </trkpt>
      <trkpt lat="59.1193" lon="18.251556">
        <ele>9.5</ele>
        <time>2014-10-11T10:57:20Z</time>
      </trkpt>
      <trkpt lat="59.119244" lon="18.251691">
        <ele>9.3</ele>
        <time>2014-10-11T10:57:21Z</time>
      </trkpt>
      <trkpt lat="59.119206" lon="18.251817">
        <ele>9.3</ele>
        <time>2014-10-11T10:57:22Z</time>
      </trkpt>
      <trkpt lat="59.119163" lon="18.251949">
        <ele>9.1</ele>
        <time>2014-10-11T10:57:23Z</time>
      </trkpt>
      <trkpt lat="59.119116" lon="18.252099">
        <ele>9</ele>
        <time>2014-10-11T10:57:24Z</time>
      </trkpt>
      <trkpt lat="59.119076" lon="18.252228">
        <ele>9.1</ele>
        <time>2014-10-11T10:57:25Z</time>
      </trkpt>
      <trkpt lat="59.119032" lon="18.252365">
        <ele>9.3</ele>
        <time>2014-10-11T10:57:26Z</time>
      </trkpt>
      <trkpt lat="59.118985" lon="18.252499">
        <ele>9.5</ele>
        <time>2014-10-11T10:57:27Z</time>
      </trkpt>
      <trkpt lat="59.118939" lon="18.25264">
        <ele>9.8</ele>
        <time>2014-10-11T10:57:28Z</time>
      </trkpt>
      <trkpt lat="59.118875" lon="18.2528">
        <ele>10.1</ele>
        <time>2014-10-11T10:57:29Z</time>
      </trkpt>
      <trkpt lat="59.118841" lon="18.252926">
        <ele>10.6</ele>
        <time>2014-10-11T10:57:30Z</time>
      </trkpt>
      <trkpt lat="59.118809" lon="18.253053">
        <ele>11.3</ele>
        <time>2014-10-11T10:57:31Z</time>
      </trkpt>
      <trkpt lat="59.118767" lon="18.253192">
        <ele>12.1</ele>
        <time>2014-10-11T10:57:32Z</time>
      </trkpt>
      <trkpt lat="59.118719" lon="18.253309">
        <ele>13.1</ele>
        <time>2014-10-11T10:57:33Z</time>
      </trkpt>
      <trkpt lat="59.118669" lon="18.253435">
        <ele>14.4</ele>
        <time>2014-10-11T10:57:34Z</time>
      </trkpt>
      <trkpt lat="59.118625" lon="18.253568">
        <ele>15.7</ele>
        <time>2014-10-11T10:57:35Z</time>
      </trkpt>
      <trkpt lat="59.118594" lon="18.253667">
        <ele>16.7</ele>
        <time>2014-10-11T10:57:36Z</time>
      </trkpt>
      <trkpt lat="59.118524" lon="18.253817">
        <ele>18</ele>
        <time>2014-10-11T10:57:37Z</time>
      </trkpt>
      <trkpt lat="59.118483" lon="18.253922">
        <ele>18.5</ele>
        <time>2014-10-11T10:57:38Z</time>
      </trkpt>
      <trkpt lat="59.11843" lon="18.254027">
        <ele>19.1</ele>
        <time>2014-10-11T10:57:39Z</time>
      </trkpt>
      <trkpt lat="59.118391" lon="18.254127">
        <ele>19.5</ele>
        <time>2014-10-11T10:57:40Z</time>
      </trkpt>
      <trkpt lat="59.118351" lon="18.254222">
        <ele>19.9</ele>
        <time>2014-10-11T10:57:41Z</time>
      </trkpt>
      <trkpt lat="59.118312" lon="18.254321">
        <ele>20.3</ele>
        <time>2014-10-11T10:57:42Z</time>
      </trkpt>
      <trkpt lat="59.118278" lon="18.254404">
        <ele>20.6</ele>
        <time>2014-10-11T10:57:43Z</time>
      </trkpt>
      <trkpt lat="59.118222" lon="18.25449">
        <ele>21.1</ele>
        <time>2014-10-11T10:57:44Z</time>
      </trkpt>
      <trkpt lat="59.118173" lon="18.254582">
        <ele>21.5</ele>
        <time>2014-10-11T10:57:45Z</time>
      </trkpt>
      <trkpt lat="59.118142" lon="18.25467">
        <ele>21.7</ele>
        <time>2014-10-11T10:57:46Z</time>
      </trkpt>
      <trkpt lat="59.118101" lon="18.254752">
        <ele>21.9</ele>
        <time>2014-10-11T10:57:47Z</time>
      </trkpt>
      <trkpt lat="59.118057" lon="18.254829">
        <ele>22.1</ele>
        <time>2014-10-11T10:57:48Z</time>
      </trkpt>
      <trkpt lat="59.118017" lon="18.254891">
        <ele>22.2</ele>
        <time>2014-10-11T10:57:49Z</time>
      </trkpt>
      <trkpt lat="59.117974" lon="18.254972">
        <ele>22.3</ele>
        <time>2014-10-11T10:57:50Z</time>
      </trkpt>
      <trkpt lat="59.117934" lon="18.25505">
        <ele>22.4</ele>
        <time>2014-10-11T10:57:51Z</time>
      </trkpt>
      <trkpt lat="59.117894" lon="18.25513">
        <ele>22.3</ele>
        <time>2014-10-11T10:57:52Z</time>
      </trkpt>
      <trkpt lat="59.117848" lon="18.255215">
        <ele>22.1</ele>
        <time>2014-10-11T10:57:53Z</time>
      </trkpt>
      <trkpt lat="59.117807" lon="18.255286">
        <ele>21.9</ele>
        <time>2014-10-11T10:57:54Z</time>
      </trkpt>
      <trkpt lat="59.117753" lon="18.255358">
        <ele>21.7</ele>
        <time>2014-10-11T10:57:55Z</time>
      </trkpt>
      <trkpt lat="59.117697" lon="18.255431">
        <ele>21.5</ele>
        <time>2014-10-11T10:57:56Z</time>
      </trkpt>
      <trkpt lat="59.117656" lon="18.255515">
        <ele>21.5</ele>
        <time>2014-10-11T10:57:57Z</time>
      </trkpt>
      <trkpt lat="59.117604" lon="18.255603">
        <ele>21.4</ele>
        <time>2014-10-11T10:57:58Z</time>
      </trkpt>
      <trkpt lat="59.117562" lon="18.255669">
        <ele>21.3</ele>
        <time>2014-10-11T10:57:59Z</time>
      </trkpt>
      <trkpt lat="59.11752" lon="18.255747">
        <ele>21.3</ele>
        <time>2014-10-11T10:58:00Z</time>
      </trkpt>
      <trkpt lat="59.117477" lon="18.255819">
        <ele>21.2</ele>
        <time>2014-10-11T10:58:01Z</time>
      </trkpt>
      <trkpt lat="59.117433" lon="18.255885">
        <ele>21.1</ele>
        <time>2014-10-11T10:58:02Z</time>
      </trkpt>
      <trkpt lat="59.117394" lon="18.255954">
        <ele>21</ele>
        <time>2014-10-11T10:58:03Z</time>
      </trkpt>
      <trkpt lat="59.117352" lon="18.256033">
        <ele>20.9</ele>
        <time>2014-10-11T10:58:04Z</time>
      </trkpt>
      <trkpt lat="59.117316" lon="18.256095">
        <ele>20.8</ele>
        <time>2014-10-11T10:58:05Z</time>
      </trkpt>
      <trkpt lat="59.117273" lon="18.25617">
        <ele>20.7</ele>
        <time>2014-10-11T10:58:06Z</time>
      </trkpt>
      <trkpt lat="59.117236" lon="18.256244">
        <ele>20.5</ele>
        <time>2014-10-11T10:58:07Z</time>
      </trkpt>
      <trkpt lat="59.117203" lon="18.256319">
        <ele>20.4</ele>
        <time>2014-10-11T10:58:08Z</time>
      </trkpt>
      <trkpt lat="59.117163" lon="18.256396">
        <ele>20.3</ele>
        <time>2014-10-11T10:58:09Z</time>
      </trkpt>
      <trkpt lat="59.117133" lon="18.256474">
        <ele>20.2</ele>
        <time>2014-10-11T10:58:10Z</time>
      </trkpt>
      <trkpt lat="59.117101" lon="18.256557">
        <ele>20.1</ele>
        <time>2014-10-11T10:58:11Z</time>
      </trkpt>
      <trkpt lat="59.117075" lon="18.256644">
        <ele>20</ele>
        <time>2014-10-11T10:58:12Z</time>
      </trkpt>
      <trkpt lat="59.11704" lon="18.256742">
        <ele>19.9</ele>
        <time>2014-10-11T10:58:13Z</time>
      </trkpt>
      <trkpt lat="59.117007" lon="18.25685">
        <ele>19.9</ele>
        <time>2014-10-11T10:58:14Z</time>
      </trkpt>
      <trkpt lat="59.116974" lon="18.256976">
        <ele>19.9</ele>
        <time>2014-10-11T10:58:15Z</time>
      </trkpt>
      <trkpt lat="59.116948" lon="18.257102">
        <ele>20.1</ele>
        <time>2014-10-11T10:58:16Z</time>
      </trkpt>
      <trkpt lat="59.116913" lon="18.257238">
        <ele>20.6</ele>
        <time>2014-10-11T10:58:17Z</time>
      </trkpt>
      <trkpt lat="59.116887" lon="18.25735">
        <ele>21</ele>
        <time>2014-10-11T10:58:18Z</time>
      </trkpt>
      <trkpt lat="59.116853" lon="18.257488">
        <ele>21.6</ele>
        <time>2014-10-11T10:58:19Z</time>
      </trkpt>
      <trkpt lat="59.116829" lon="18.257629">
        <ele>22.2</ele>
        <time>2014-10-11T10:58:20Z</time>
      </trkpt>
      <trkpt lat="59.116802" lon="18.257754">
        <ele>22.7</ele>
        <time>2014-10-11T10:58:21Z</time>
      </trkpt>
      <trkpt lat="59.116798" lon="18.257863">
        <ele>23.1</ele>
        <time>2014-10-11T10:58:22Z</time>
      </trkpt>
      <trkpt lat="59.116766" lon="18.257995">
        <ele>23.8</ele>
        <time>2014-10-11T10:58:23Z</time>
      </trkpt>
      <trkpt lat="59.116729" lon="18.258129">
        <ele>24.4</ele>
        <time>2014-10-11T10:58:24Z</time>
      </trkpt>
      <trkpt lat="59.116707" lon="18.258252">
        <ele>25.1</ele>
        <time>2014-10-11T10:58:25Z</time>
      </trkpt>
      <trkpt lat="59.116683" lon="18.258362">
        <ele>25.6</ele>
        <time>2014-10-11T10:58:26Z</time>
      </trkpt>
      <trkpt lat="59.116632" lon="18.258495">
        <ele>26.3</ele>
        <time>2014-10-11T10:58:27Z</time>
      </trkpt>
      <trkpt lat="59.116591" lon="18.258635">
        <ele>27</ele>
        <time>2014-10-11T10:58:28Z</time>
      </trkpt>
      <trkpt lat="59.116543" lon="18.258764">
        <ele>27.7</ele>
        <time>2014-10-11T10:58:29Z</time>
      </trkpt>
      <trkpt lat="59.116505" lon="18.258901">
        <ele>27.7</ele>
        <time>2014-10-11T10:58:30Z</time>
      </trkpt>
      <trkpt lat="59.116482" lon="18.259018">
        <ele>27.8</ele>
        <time>2014-10-11T10:58:31Z</time>
      </trkpt>
      <trkpt lat="59.116447" lon="18.259154">
        <ele>27.9</ele>
        <time>2014-10-11T10:58:32Z</time>
      </trkpt>
      <trkpt lat="59.116424" lon="18.259279">
        <ele>27.9</ele>
        <time>2014-10-11T10:58:33Z</time>
      </trkpt>
      <trkpt lat="59.116409" lon="18.259375">
        <ele>28</ele>
        <time>2014-10-11T10:58:34Z</time>
      </trkpt>
      <trkpt lat="59.116388" lon="18.259511">
        <ele>28</ele>
        <time>2014-10-11T10:58:35Z</time>
      </trkpt>
      <trkpt lat="59.116331" lon="18.259639">
        <ele>28</ele>
        <time>2014-10-11T10:58:36Z</time>
      </trkpt>
      <trkpt lat="59.116304" lon="18.259751">
        <ele>28</ele>
        <time>2014-10-11T10:58:37Z</time>
      </trkpt>
      <trkpt lat="59.116275" lon="18.259848">
        <ele>28</ele>
        <time>2014-10-11T10:58:38Z</time>
      </trkpt>
      <trkpt lat="59.116248" lon="18.259959">
        <ele>28</ele>
        <time>2014-10-11T10:58:39Z</time>
      </trkpt>
      <trkpt lat="59.116223" lon="18.260069">
        <ele>27.9</ele>
        <time>2014-10-11T10:58:40Z</time>
      </trkpt>
      <trkpt lat="59.116196" lon="18.26017">
        <ele>27.9</ele>
        <time>2014-10-11T10:58:41Z</time>
      </trkpt>
      <trkpt lat="59.11617" lon="18.26028">
        <ele>27.8</ele>
        <time>2014-10-11T10:58:42Z</time>
      </trkpt>
      <trkpt lat="59.116142" lon="18.260383">
        <ele>27.7</ele>
        <time>2014-10-11T10:58:43Z</time>
      </trkpt>
      <trkpt lat="59.116116" lon="18.260493">
        <ele>27.7</ele>
        <time>2014-10-11T10:58:44Z</time>
      </trkpt>
      <trkpt lat="59.116073" lon="18.26063">
        <ele>27.6</ele>
        <time>2014-10-11T10:58:45Z</time>
      </trkpt>
      <trkpt lat="59.116041" lon="18.260746">
        <ele>27.5</ele>
        <time>2014-10-11T10:58:46Z</time>
      </trkpt>
      <trkpt lat="59.116013" lon="18.260841">
        <ele>27.4</ele>
        <time>2014-10-11T10:58:47Z</time>
      </trkpt>
      <trkpt lat="59.115981" lon="18.260956">
        <ele>27.4</ele>
        <time>2014-10-11T10:58:48Z</time>
      </trkpt>
      <trkpt lat="59.11595" lon="18.261072">
        <ele>27.3</ele>
        <time>2014-10-11T10:58:49Z</time>
      </trkpt>
      <trkpt lat="59.115913" lon="18.26118">
        <ele>27.2</ele>
        <time>2014-10-11T10:58:50Z</time>
      </trkpt>
      <trkpt lat="59.11587" lon="18.261301">
        <ele>27.1</ele>
        <time>2014-10-11T10:58:51Z</time>
      </trkpt>
      <trkpt lat="59.115835" lon="18.261397">
        <ele>27</ele>
        <time>2014-10-11T10:58:52Z</time>
      </trkpt>
      <trkpt lat="59.115793" lon="18.2615">
        <ele>26.9</ele>
        <time>2014-10-11T10:58:53Z</time>
      </trkpt>
      <trkpt lat="59.115768" lon="18.261612">
        <ele>26.8</ele>
        <time>2014-10-11T10:58:54Z</time>
      </trkpt>
      <trkpt lat="59.115722" lon="18.261724">
        <ele>26.7</ele>
        <time>2014-10-11T10:58:55Z</time>
      </trkpt>
      <trkpt lat="59.115669" lon="18.261846">
        <ele>26.6</ele>
        <time>2014-10-11T10:58:56Z</time>
      </trkpt>
      <trkpt lat="59.115618" lon="18.261939">
        <ele>26.5</ele>
        <time>2014-10-11T10:58:57Z</time>
      </trkpt>
      <trkpt lat="59.115584" lon="18.262008">
        <ele>26.4</ele>
        <time>2014-10-11T10:58:58Z</time>
      </trkpt>
      <trkpt lat="59.11555" lon="18.262104">
        <ele>26.3</ele>
        <time>2014-10-11T10:58:59Z</time>
      </trkpt>
      <trkpt lat="59.1155" lon="18.262213">
        <ele>25.9</ele>
        <time>2014-10-11T10:59:00Z</time>
      </trkpt>
      <trkpt lat="59.115459" lon="18.262319">
        <ele>25.6</ele>
        <time>2014-10-11T10:59:01Z</time>
      </trkpt>
      <trkpt lat="59.115404" lon="18.26242">
        <ele>25.1</ele>
        <time>2014-10-11T10:59:02Z</time>
      </trkpt>
      <trkpt lat="59.115363" lon="18.26253">
        <ele>24.4</ele>
        <time>2014-10-11T10:59:03Z</time>
      </trkpt>
      <trkpt lat="59.115304" lon="18.262649">
        <ele>23.5</ele>
        <time>2014-10-11T10:59:04Z</time>
      </trkpt>
      <trkpt lat="59.11525" lon="18.262759">
        <ele>22.7</ele>
        <time>2014-10-11T10:59:05Z</time>
      </trkpt>
      <trkpt lat="59.115203" lon="18.262864">
        <ele>22.1</ele>
        <time>2014-10-11T10:59:06Z</time>
      </trkpt>
      <trkpt lat="59.115153" lon="18.26299">
        <ele>21.3</ele>
        <time>2014-10-11T10:59:07Z</time>
      </trkpt>
      <trkpt lat="59.11509" lon="18.263144">
        <ele>20.4</ele>
        <time>2014-10-11T10:59:08Z</time>
      </trkpt>
      <trkpt lat="59.115043" lon="18.263277">
        <ele>19.7</ele>
        <time>2014-10-11T10:59:09Z</time>
      </trkpt>
      <trkpt lat="59.115002" lon="18.26342">
        <ele>19.1</ele>
        <time>2014-10-11T10:59:10Z</time>
      </trkpt>
      <trkpt lat="59.114958" lon="18.263589">
        <ele>18.4</ele>
        <time>2014-10-11T10:59:11Z</time>
      </trkpt>
      <trkpt lat="59.114927" lon="18.263764">
        <ele>17.9</ele>
        <time>2014-10-11T10:59:12Z</time>
      </trkpt>
      <trkpt lat="59.114898" lon="18.263954">
        <ele>17.6</ele>
        <time>2014-10-11T10:59:13Z</time>
      </trkpt>
      <trkpt lat="59.114883" lon="18.264128">
        <ele>17.5</ele>
        <time>2014-10-11T10:59:14Z</time>
      </trkpt>
      <trkpt lat="59.114882" lon="18.264312">
        <ele>17.5</ele>
        <time>2014-10-11T10:59:15Z</time>
      </trkpt>
      <trkpt lat="59.114875" lon="18.264498">
        <ele>17.5</ele>
        <time>2014-10-11T10:59:16Z</time>
      </trkpt>
      <trkpt lat="59.114853" lon="18.264709">
        <ele>17.4</ele>
        <time>2014-10-11T10:59:17Z</time>
      </trkpt>
      <trkpt lat="59.114857" lon="18.264882">
        <ele>17.5</ele>
        <time>2014-10-11T10:59:18Z</time>
      </trkpt>
      <trkpt lat="59.114863" lon="18.265066">
        <ele>17.7</ele>
        <time>2014-10-11T10:59:19Z</time>
      </trkpt>
      <trkpt lat="59.114867" lon="18.265224">
        <ele>17.9</ele>
        <time>2014-10-11T10:59:20Z</time>
      </trkpt>
      <trkpt lat="59.11486" lon="18.265434">
        <ele>18</ele>
        <time>2014-10-11T10:59:21Z</time>
      </trkpt>
      <trkpt lat="59.114868" lon="18.265615">
        <ele>17.9</ele>
        <time>2014-10-11T10:59:22Z</time>
      </trkpt>
      <trkpt lat="59.114867" lon="18.265812">
        <ele>17.7</ele>
        <time>2014-10-11T10:59:23Z</time>
      </trkpt>
      <trkpt lat="59.114878" lon="18.266037">
        <ele>17.6</ele>
        <time>2014-10-11T10:59:24Z</time>
      </trkpt>
      <trkpt lat="59.114888" lon="18.266221">
        <ele>17.5</ele>
        <time>2014-10-11T10:59:25Z</time>
      </trkpt>
      <trkpt lat="59.114897" lon="18.266424">
        <ele>17.2</ele>
        <time>2014-10-11T10:59:26Z</time>
      </trkpt>
      <trkpt lat="59.114903" lon="18.266635">
        <ele>16.9</ele>
        <time>2014-10-11T10:59:27Z</time>
      </trkpt>
      <trkpt lat="59.114911" lon="18.266844">
        <ele>16.6</ele>
        <time>2014-10-11T10:59:28Z</time>
      </trkpt>
      <trkpt lat="59.114923" lon="18.267062">
        <ele>16.3</ele>
        <time>2014-10-11T10:59:29Z</time>
      </trkpt>
      <trkpt lat="59.114931" lon="18.267259">
        <ele>16</ele>
        <time>2014-10-11T10:59:30Z</time>
      </trkpt>
      <trkpt lat="59.114939" lon="18.267466">
        <ele>15.6</ele>
        <time>2014-10-11T10:59:31Z</time>
      </trkpt>
      <trkpt lat="59.114941" lon="18.267672">
        <ele>15.3</ele>
        <time>2014-10-11T10:59:32Z</time>
      </trkpt>
      <trkpt lat="59.114948" lon="18.267873">
        <ele>15</ele>
        <time>2014-10-11T10:59:33Z</time>
      </trkpt>
      <trkpt lat="59.114973" lon="18.26806">
        <ele>14.5</ele>
        <time>2014-10-11T10:59:34Z</time>
      </trkpt>
      <trkpt lat="59.114973" lon="18.268243">
        <ele>14</ele>
        <time>2014-10-11T10:59:35Z</time>
      </trkpt>
      <trkpt lat="59.114977" lon="18.268434">
        <ele>13.4</ele>
        <time>2014-10-11T10:59:36Z</time>
      </trkpt>
      <trkpt lat="59.114983" lon="18.268628">
        <ele>12.8</ele>
        <time>2014-10-11T10:59:37Z</time>
      </trkpt>
      <trkpt lat="59.115" lon="18.268794">
        <ele>12.5</ele>
        <time>2014-10-11T10:59:38Z</time>
      </trkpt>
      <trkpt lat="59.115014" lon="18.268951">
        <ele>12.6</ele>
        <time>2014-10-11T10:59:39Z</time>
      </trkpt>
      <trkpt lat="59.115023" lon="18.269146">
        <ele>12.8</ele>
        <time>2014-10-11T10:59:40Z</time>
      </trkpt>
      <trkpt lat="59.115027" lon="18.269311">
        <ele>12.9</ele>
        <time>2014-10-11T10:59:41Z</time>
      </trkpt>
      <trkpt lat="59.115034" lon="18.269476">
        <ele>13</ele>
        <time>2014-10-11T10:59:42Z</time>
      </trkpt>
      <trkpt lat="59.115056" lon="18.269639">
        <ele>13.2</ele>
        <time>2014-10-11T10:59:43Z</time>
      </trkpt>
      <trkpt lat="59.115065" lon="18.269812">
        <ele>13.6</ele>
        <time>2014-10-11T10:59:44Z</time>
      </trkpt>
      <trkpt lat="59.115078" lon="18.269967">
        <ele>13.9</ele>
        <time>2014-10-11T10:59:45Z</time>
      </trkpt>
      <trkpt lat="59.11509" lon="18.270121">
        <ele>14.3</ele>
        <time>2014-10-11T10:59:46Z</time>
      </trkpt>
      <trkpt lat="59.115099" lon="18.270238">
        <ele>14.5</ele>
        <time>2014-10-11T10:59:47Z</time>
      </trkpt>
      <trkpt lat="59.115104" lon="18.270376">
        <ele>14.8</ele>
        <time>2014-10-11T10:59:48Z</time>
      </trkpt>
      <trkpt lat="59.115114" lon="18.270486">
        <ele>15</ele>
        <time>2014-10-11T10:59:49Z</time>
      </trkpt>
      <trkpt lat="59.115123" lon="18.270629">
        <ele>15.3</ele>
        <time>2014-10-11T10:59:50Z</time>
      </trkpt>
      <trkpt lat="59.11513" lon="18.270738">
        <ele>15.5</ele>
        <time>2014-10-11T10:59:51Z</time>
      </trkpt>
      <trkpt lat="59.115138" lon="18.27087">
        <ele>15.7</ele>
        <time>2014-10-11T10:59:52Z</time>
      </trkpt>
      <trkpt lat="59.115144" lon="18.270996">
        <ele>16</ele>
        <time>2014-10-11T10:59:53Z</time>
      </trkpt>
      <trkpt lat="59.115154" lon="18.271093">
        <ele>16.2</ele>
        <time>2014-10-11T10:59:54Z</time>
      </trkpt>
      <trkpt lat="59.115165" lon="18.271208">
        <ele>16.4</ele>
        <time>2014-10-11T10:59:55Z</time>
      </trkpt>
      <trkpt lat="59.115172" lon="18.271345">
        <ele>16.7</ele>
        <time>2014-10-11T10:59:56Z</time>
      </trkpt>
      <trkpt lat="59.115197" lon="18.271459">
        <ele>17.1</ele>
        <time>2014-10-11T10:59:57Z</time>
      </trkpt>
      <trkpt lat="59.115215" lon="18.27158">
        <ele>17.5</ele>
        <time>2014-10-11T10:59:58Z</time>
      </trkpt>
      <trkpt lat="59.115233" lon="18.271722">
        <ele>17.9</ele>
        <time>2014-10-11T10:59:59Z</time>
      </trkpt>
      <trkpt lat="59.115229" lon="18.271874">
        <ele>18.2</ele>
        <time>2014-10-11T11:00:00Z</time>
      </trkpt>
      <trkpt lat="59.115242" lon="18.27202">
        <ele>18.6</ele>
        <time>2014-10-11T11:00:01Z</time>
      </trkpt>
      <trkpt lat="59.115252" lon="18.27216">
        <ele>18.8</ele>
        <time>2014-10-11T11:00:02Z</time>
      </trkpt>
      <trkpt lat="59.115277" lon="18.272298">
        <ele>18.9</ele>
        <time>2014-10-11T11:00:03Z</time>
      </trkpt>
      <trkpt lat="59.115296" lon="18.272448">
        <ele>19</ele>
        <time>2014-10-11T11:00:04Z</time>
      </trkpt>
      <trkpt lat="59.115313" lon="18.272586">
        <ele>19.1</ele>
        <time>2014-10-11T11:00:05Z</time>
      </trkpt>
      <trkpt lat="59.115328" lon="18.272749">
        <ele>19.2</ele>
        <time>2014-10-11T11:00:06Z</time>
      </trkpt>
      <trkpt lat="59.115342" lon="18.272875">
        <ele>19.3</ele>
        <time>2014-10-11T11:00:07Z</time>
      </trkpt>
      <trkpt lat="59.115358" lon="18.273028">
        <ele>19.3</ele>
        <time>2014-10-11T11:00:08Z</time>
      </trkpt>
      <trkpt lat="59.115381" lon="18.273198">
        <ele>19.3</ele>
        <time>2014-10-11T11:00:09Z</time>
      </trkpt>
      <trkpt lat="59.115398" lon="18.273365">
        <ele>19.3</ele>
        <time>2014-10-11T11:00:10Z</time>
      </trkpt>
      <trkpt lat="59.115422" lon="18.273524">
        <ele>19.3</ele>
        <time>2014-10-11T11:00:11Z</time>
      </trkpt>
      <trkpt lat="59.115443" lon="18.273716">
        <ele>19.3</ele>
        <time>2014-10-11T11:00:12Z</time>
      </trkpt>
      <trkpt lat="59.115467" lon="18.273896">
        <ele>19.1</ele>
        <time>2014-10-11T11:00:13Z</time>
      </trkpt>
      <trkpt lat="59.11549" lon="18.274095">
        <ele>18.8</ele>
        <time>2014-10-11T11:00:14Z</time>
      </trkpt>
      <trkpt lat="59.115509" lon="18.274298">
        <ele>18.4</ele>
        <time>2014-10-11T11:00:15Z</time>
      </trkpt>
      <trkpt lat="59.115531" lon="18.274495">
        <ele>18.1</ele>
        <time>2014-10-11T11:00:16Z</time>
      </trkpt>
      <trkpt lat="59.115548" lon="18.274693">
        <ele>17.5</ele>
        <time>2014-10-11T11:00:17Z</time>
      </trkpt>
      <trkpt lat="59.115568" lon="18.274857">
        <ele>17</ele>
        <time>2014-10-11T11:00:18Z</time>
      </trkpt>
      <trkpt lat="59.1156" lon="18.275053">
        <ele>16.5</ele>
        <time>2014-10-11T11:00:19Z</time>
      </trkpt>
      <trkpt lat="59.115613" lon="18.275235">
        <ele>15.9</ele>
        <time>2014-10-11T11:00:20Z</time>
      </trkpt>
      <trkpt lat="59.115632" lon="18.275405">
        <ele>15.3</ele>
        <time>2014-10-11T11:00:21Z</time>
      </trkpt>
      <trkpt lat="59.115656" lon="18.275578">
        <ele>15.2</ele>
        <time>2014-10-11T11:00:22Z</time>
      </trkpt>
      <trkpt lat="59.115668" lon="18.275741">
        <ele>15</ele>
        <time>2014-10-11T11:00:23Z</time>
      </trkpt>
      <trkpt lat="59.115705" lon="18.275874">
        <ele>15</ele>
        <time>2014-10-11T11:00:24Z</time>
      </trkpt>
      <trkpt lat="59.115715" lon="18.276051">
        <ele>14.8</ele>
        <time>2014-10-11T11:00:25Z</time>
      </trkpt>
      <trkpt lat="59.115732" lon="18.276209">
        <ele>14.6</ele>
        <time>2014-10-11T11:00:26Z</time>
      </trkpt>
      <trkpt lat="59.115749" lon="18.276378">
        <ele>14.2</ele>
        <time>2014-10-11T11:00:27Z</time>
      </trkpt>
      <trkpt lat="59.115775" lon="18.276551">
        <ele>13.8</ele>
        <time>2014-10-11T11:00:28Z</time>
      </trkpt>
      <trkpt lat="59.115793" lon="18.276718">
        <ele>13.4</ele>
        <time>2014-10-11T11:00:29Z</time>
      </trkpt>
      <trkpt lat="59.115816" lon="18.276884">
        <ele>13</ele>
        <time>2014-10-11T11:00:30Z</time>
      </trkpt>
      <trkpt lat="59.115832" lon="18.277057">
        <ele>12.6</ele>
        <time>2014-10-11T11:00:31Z</time>
      </trkpt>
      <trkpt lat="59.115859" lon="18.277224">
        <ele>12.7</ele>
        <time>2014-10-11T11:00:32Z</time>
      </trkpt>
      <trkpt lat="59.115877" lon="18.277389">
        <ele>12.9</ele>
        <time>2014-10-11T11:00:33Z</time>
      </trkpt>
      <trkpt lat="59.115898" lon="18.277536">
        <ele>13</ele>
        <time>2014-10-11T11:00:34Z</time>
      </trkpt>
      <trkpt lat="59.115915" lon="18.277698">
        <ele>13.2</ele>
        <time>2014-10-11T11:00:35Z</time>
      </trkpt>
      <trkpt lat="59.115929" lon="18.277852">
        <ele>13.4</ele>
        <time>2014-10-11T11:00:36Z</time>
      </trkpt>
      <trkpt lat="59.115948" lon="18.277998">
        <ele>13.6</ele>
        <time>2014-10-11T11:00:37Z</time>
      </trkpt>
      <trkpt lat="59.115968" lon="18.27816">
        <ele>13.9</ele>
        <time>2014-10-11T11:00:38Z</time>
      </trkpt>
      <trkpt lat="59.115979" lon="18.278289">
        <ele>14.1</ele>
        <time>2014-10-11T11:00:39Z</time>
      </trkpt>
      <trkpt lat="59.115984" lon="18.27844">
        <ele>14.4</ele>
        <time>2014-10-11T11:00:40Z</time>
      </trkpt>
      <trkpt lat="59.115996" lon="18.2786">
        <ele>14.6</ele>
        <time>2014-10-11T11:00:41Z</time>
      </trkpt>
      <trkpt lat="59.116021" lon="18.278729">
        <ele>14.9</ele>
        <time>2014-10-11T11:00:42Z</time>
      </trkpt>
      <trkpt lat="59.11604" lon="18.278876">
        <ele>14.9</ele>
        <time>2014-10-11T11:00:43Z</time>
      </trkpt>
      <trkpt lat="59.116028" lon="18.279042">
        <ele>14.7</ele>
        <time>2014-10-11T11:00:44Z</time>
      </trkpt>
      <trkpt lat="59.116034" lon="18.279194">
        <ele>14.6</ele>
        <time>2014-10-11T11:00:45Z</time>
      </trkpt>
      <trkpt lat="59.116043" lon="18.279368">
        <ele>14.4</ele>
        <time>2014-10-11T11:00:46Z</time>
      </trkpt>
      <trkpt lat="59.11604" lon="18.279537">
        <ele>14.3</ele>
        <time>2014-10-11T11:00:47Z</time>
      </trkpt>
      <trkpt lat="59.116053" lon="18.279721">
        <ele>14</ele>
        <time>2014-10-11T11:00:48Z</time>
      </trkpt>
      <trkpt lat="59.116063" lon="18.279919">
        <ele>13.7</ele>
        <time>2014-10-11T11:00:49Z</time>
      </trkpt>
      <trkpt lat="59.116067" lon="18.280088">
        <ele>13.4</ele>
        <time>2014-10-11T11:00:50Z</time>
      </trkpt>
      <trkpt lat="59.11608" lon="18.280267">
        <ele>13.1</ele>
        <time>2014-10-11T11:00:51Z</time>
      </trkpt>
      <trkpt lat="59.116097" lon="18.28045">
        <ele>12.8</ele>
        <time>2014-10-11T11:00:52Z</time>
      </trkpt>
      <trkpt lat="59.11611" lon="18.280624">
        <ele>12.6</ele>
        <time>2014-10-11T11:00:53Z</time>
      </trkpt>
      <trkpt lat="59.116114" lon="18.280809">
        <ele>12.4</ele>
        <time>2014-10-11T11:00:54Z</time>
      </trkpt>
      <trkpt lat="59.116143" lon="18.280977">
        <ele>12.3</ele>
        <time>2014-10-11T11:00:55Z</time>
      </trkpt>
      <trkpt lat="59.11616" lon="18.281157">
        <ele>12.1</ele>
        <time>2014-10-11T11:00:56Z</time>
      </trkpt>
      <trkpt lat="59.116175" lon="18.281354">
        <ele>11.8</ele>
        <time>2014-10-11T11:00:57Z</time>
      </trkpt>
      <trkpt lat="59.1162" lon="18.281514">
        <ele>11.4</ele>
        <time>2014-10-11T11:00:58Z</time>
      </trkpt>
      <trkpt lat="59.116225" lon="18.281686">
        <ele>11</ele>
        <time>2014-10-11T11:00:59Z</time>
      </trkpt>
      <trkpt lat="59.11625" lon="18.28187">
        <ele>10.5</ele>
        <time>2014-10-11T11:01:00Z</time>
      </trkpt>
      <trkpt lat="59.116286" lon="18.282026">
        <ele>10.7</ele>
        <time>2014-10-11T11:01:01Z</time>
      </trkpt>
      <trkpt lat="59.116315" lon="18.2822">
        <ele>11</ele>
        <time>2014-10-11T11:01:02Z</time>
      </trkpt>
      <trkpt lat="59.116346" lon="18.282378">
        <ele>11.6</ele>
        <time>2014-10-11T11:01:03Z</time>
      </trkpt>
      <trkpt lat="59.116378" lon="18.282549">
        <ele>12.1</ele>
        <time>2014-10-11T11:01:04Z</time>
      </trkpt>
      <trkpt lat="59.116415" lon="18.282737">
        <ele>12.7</ele>
        <time>2014-10-11T11:01:05Z</time>
      </trkpt>
      <trkpt lat="59.116455" lon="18.282876">
        <ele>13.2</ele>
        <time>2014-10-11T11:01:06Z</time>
      </trkpt>
      <trkpt lat="59.116492" lon="18.283045">
        <ele>13.6</ele>
        <time>2014-10-11T11:01:07Z</time>
      </trkpt>
      <trkpt lat="59.116534" lon="18.283202">
        <ele>13.9</ele>
        <time>2014-10-11T11:01:08Z</time>
      </trkpt>
      <trkpt lat="59.116569" lon="18.28337">
        <ele>14.2</ele>
        <time>2014-10-11T11:01:09Z</time>
      </trkpt>
      <trkpt lat="59.116612" lon="18.283535">
        <ele>14.4</ele>
        <time>2014-10-11T11:01:10Z</time>
      </trkpt>
      <trkpt lat="59.116659" lon="18.283691">
        <ele>14.5</ele>
        <time>2014-10-11T11:01:11Z</time>
      </trkpt>
      <trkpt lat="59.116692" lon="18.283848">
        <ele>14.6</ele>
        <time>2014-10-11T11:01:12Z</time>
      </trkpt>
      <trkpt lat="59.116742" lon="18.284004">
        <ele>14.9</ele>
        <time>2014-10-11T11:01:13Z</time>
      </trkpt>
      <trkpt lat="59.116767" lon="18.284148">
        <ele>15</ele>
        <time>2014-10-11T11:01:14Z</time>
      </trkpt>
      <trkpt lat="59.116801" lon="18.284301">
        <ele>15.1</ele>
        <time>2014-10-11T11:01:15Z</time>
      </trkpt>
      <trkpt lat="59.116833" lon="18.284482">
        <ele>15.1</ele>
        <time>2014-10-11T11:01:16Z</time>
      </trkpt>
      <trkpt lat="59.11687" lon="18.284621">
        <ele>15.2</ele>
        <time>2014-10-11T11:01:17Z</time>
      </trkpt>
      <trkpt lat="59.116897" lon="18.284768">
        <ele>15</ele>
        <time>2014-10-11T11:01:18Z</time>
      </trkpt>
      <trkpt lat="59.116934" lon="18.284899">
        <ele>14.9</ele>
        <time>2014-10-11T11:01:19Z</time>
      </trkpt>
      <trkpt lat="59.116974" lon="18.285039">
        <ele>14.7</ele>
        <time>2014-10-11T11:01:20Z</time>
      </trkpt>
      <trkpt lat="59.117018" lon="18.285181">
        <ele>14.5</ele>
        <time>2014-10-11T11:01:21Z</time>
      </trkpt>
      <trkpt lat="59.117054" lon="18.285305">
        <ele>14.3</ele>
        <time>2014-10-11T11:01:22Z</time>
      </trkpt>
      <trkpt lat="59.117088" lon="18.285407">
        <ele>14.1</ele>
        <time>2014-10-11T11:01:23Z</time>
      </trkpt>
      <trkpt lat="59.117126" lon="18.285537">
        <ele>14.4</ele>
        <time>2014-10-11T11:01:24Z</time>
      </trkpt>
      <trkpt lat="59.11716" lon="18.285659">
        <ele>14.6</ele>
        <time>2014-10-11T11:01:25Z</time>
      </trkpt>
      <trkpt lat="59.117188" lon="18.285765">
        <ele>14.9</ele>
        <time>2014-10-11T11:01:26Z</time>
      </trkpt>
      <trkpt lat="59.117213" lon="18.285867">
        <ele>15.1</ele>
        <time>2014-10-11T11:01:27Z</time>
      </trkpt>
      <trkpt lat="59.117252" lon="18.285974">
        <ele>15.4</ele>
        <time>2014-10-11T11:01:28Z</time>
      </trkpt>
      <trkpt lat="59.117277" lon="18.286088">
        <ele>15.6</ele>
        <time>2014-10-11T11:01:29Z</time>
      </trkpt>
      <trkpt lat="59.117306" lon="18.286182">
        <ele>15.9</ele>
        <time>2014-10-11T11:01:30Z</time>
      </trkpt>
      <trkpt lat="59.117323" lon="18.286283">
        <ele>16</ele>
        <time>2014-10-11T11:01:31Z</time>
      </trkpt>
      <trkpt lat="59.117351" lon="18.286383">
        <ele>16.2</ele>
        <time>2014-10-11T11:01:32Z</time>
      </trkpt>
      <trkpt lat="59.117363" lon="18.286479">
        <ele>16.3</ele>
        <time>2014-10-11T11:01:33Z</time>
      </trkpt>
      <trkpt lat="59.117392" lon="18.28657">
        <ele>16.6</ele>
        <time>2014-10-11T11:01:34Z</time>
      </trkpt>
      <trkpt lat="59.117425" lon="18.286663">
        <ele>16.9</ele>
        <time>2014-10-11T11:01:35Z</time>
      </trkpt>
      <trkpt lat="59.117458" lon="18.286751">
        <ele>17.1</ele>
        <time>2014-10-11T11:01:36Z</time>
      </trkpt>
      <trkpt lat="59.117484" lon="18.286848">
        <ele>17.4</ele>
        <time>2014-10-11T11:01:37Z</time>
      </trkpt>
      <trkpt lat="59.117517" lon="18.286924">
        <ele>17.6</ele>
        <time>2014-10-11T11:01:38Z</time>
      </trkpt>
      <trkpt lat="59.117549" lon="18.287006">
        <ele>17.9</ele>
        <time>2014-10-11T11:01:39Z</time>
      </trkpt>
      <trkpt lat="59.117577" lon="18.287086">
        <ele>18.1</ele>
        <time>2014-10-11T11:01:40Z</time>
      </trkpt>
      <trkpt lat="59.11761" lon="18.287174">
        <ele>18.4</ele>
        <time>2014-10-11T11:01:41Z</time>
      </trkpt>
      <trkpt lat="59.117647" lon="18.287263">
        <ele>18.7</ele>
        <time>2014-10-11T11:01:42Z</time>
      </trkpt>
      <trkpt lat="59.117679" lon="18.287336">
        <ele>18.9</ele>
        <time>2014-10-11T11:01:43Z</time>
      </trkpt>
      <trkpt lat="59.117722" lon="18.28741">
        <ele>19.3</ele>
        <time>2014-10-11T11:01:44Z</time>
      </trkpt>
      <trkpt lat="59.117772" lon="18.287504">
        <ele>19.7</ele>
        <time>2014-10-11T11:01:45Z</time>
      </trkpt>
      <trkpt lat="59.117807" lon="18.287586">
        <ele>20</ele>
        <time>2014-10-11T11:01:46Z</time>
      </trkpt>
      <trkpt lat="59.117845" lon="18.287672">
        <ele>20.3</ele>
        <time>2014-10-11T11:01:47Z</time>
      </trkpt>
      <trkpt lat="59.11789" lon="18.287762">
        <ele>20.7</ele>
        <time>2014-10-11T11:01:48Z</time>
      </trkpt>
      <trkpt lat="59.117936" lon="18.287842">
        <ele>21</ele>
        <time>2014-10-11T11:01:49Z</time>
      </trkpt>
      <trkpt lat="59.117983" lon="18.287928">
        <ele>21.2</ele>
        <time>2014-10-11T11:01:50Z</time>
      </trkpt>
      <trkpt lat="59.118022" lon="18.288014">
        <ele>21.3</ele>
        <time>2014-10-11T11:01:51Z</time>
      </trkpt>
      <trkpt lat="59.118071" lon="18.288087">
        <ele>21.4</ele>
        <time>2014-10-11T11:01:52Z</time>
      </trkpt>
      <trkpt lat="59.118119" lon="18.288178">
        <ele>21.6</ele>
        <time>2014-10-11T11:01:53Z</time>
      </trkpt>
      <trkpt lat="59.118162" lon="18.288257">
        <ele>21.7</ele>
        <time>2014-10-11T11:01:54Z</time>
      </trkpt>
      <trkpt lat="59.118209" lon="18.288312">
        <ele>21.9</ele>
        <time>2014-10-11T11:01:55Z</time>
      </trkpt>
      <trkpt lat="59.118261" lon="18.288386">
        <ele>22.1</ele>
        <time>2014-10-11T11:01:56Z</time>
      </trkpt>
      <trkpt lat="59.118312" lon="18.288463">
        <ele>22.3</ele>
        <time>2014-10-11T11:01:57Z</time>
      </trkpt>
      <trkpt lat="59.118366" lon="18.288544">
        <ele>22.5</ele>
        <time>2014-10-11T11:01:58Z</time>
      </trkpt>
      <trkpt lat="59.118417" lon="18.288616">
        <ele>22.7</ele>
        <time>2014-10-11T11:01:59Z</time>
      </trkpt>
      <trkpt lat="59.118459" lon="18.288705">
        <ele>22.9</ele>
        <time>2014-10-11T11:02:00Z</time>
      </trkpt>
      <trkpt lat="59.118511" lon="18.288785">
        <ele>23.1</ele>
        <time>2014-10-11T11:02:01Z</time>
      </trkpt>
      <trkpt lat="59.118559" lon="18.288852">
        <ele>23.3</ele>
        <time>2014-10-11T11:02:02Z</time>
      </trkpt>
      <trkpt lat="59.118613" lon="18.288929">
        <ele>23.5</ele>
        <time>2014-10-11T11:02:03Z</time>
      </trkpt>
      <trkpt lat="59.11868" lon="18.28903">
        <ele>23.7</ele>
        <time>2014-10-11T11:02:04Z</time>
      </trkpt>
      <trkpt lat="59.11874" lon="18.289125">
        <ele>24</ele>
        <time>2014-10-11T11:02:05Z</time>
      </trkpt>
      <trkpt lat="59.118804" lon="18.289216">
        <ele>23.9</ele>
        <time>2014-10-11T11:02:06Z</time>
      </trkpt>
      <trkpt lat="59.118869" lon="18.289311">
        <ele>23.8</ele>
        <time>2014-10-11T11:02:07Z</time>
      </trkpt>
      <trkpt lat="59.118928" lon="18.289406">
        <ele>23.7</ele>
        <time>2014-10-11T11:02:08Z</time>
      </trkpt>
      <trkpt lat="59.118993" lon="18.289502">
        <ele>23.7</ele>
        <time>2014-10-11T11:02:09Z</time>
      </trkpt>
      <trkpt lat="59.119048" lon="18.289603">
        <ele>23.7</ele>
        <time>2014-10-11T11:02:10Z</time>
      </trkpt>
      <trkpt lat="59.119119" lon="18.289681">
        <ele>23.7</ele>
        <time>2014-10-11T11:02:11Z</time>
      </trkpt>
      <trkpt lat="59.119177" lon="18.289809">
        <ele>23.8</ele>
        <time>2014-10-11T11:02:12Z</time>
      </trkpt>
      <trkpt lat="59.119236" lon="18.289892">
        <ele>23.8</ele>
        <time>2014-10-11T11:02:13Z</time>
      </trkpt>
      <trkpt lat="59.119309" lon="18.289985">
        <ele>23.8</ele>
        <time>2014-10-11T11:02:14Z</time>
      </trkpt>
      <trkpt lat="59.119355" lon="18.290082">
        <ele>23.9</ele>
        <time>2014-10-11T11:02:15Z</time>
      </trkpt>
      <trkpt lat="59.119415" lon="18.290179">
        <ele>23.9</ele>
        <time>2014-10-11T11:02:16Z</time>
      </trkpt>
      <trkpt lat="59.119478" lon="18.290277">
        <ele>24</ele>
        <time>2014-10-11T11:02:17Z</time>
      </trkpt>
      <trkpt lat="59.119535" lon="18.290371">
        <ele>24</ele>
        <time>2014-10-11T11:02:18Z</time>
      </trkpt>
      <trkpt lat="59.11959" lon="18.290471">
        <ele>23.9</ele>
        <time>2014-10-11T11:02:19Z</time>
      </trkpt>
      <trkpt lat="59.11965" lon="18.29058">
        <ele>23.8</ele>
        <time>2014-10-11T11:02:20Z</time>
      </trkpt>
      <trkpt lat="59.11969" lon="18.290701">
        <ele>23.7</ele>
        <time>2014-10-11T11:02:21Z</time>
      </trkpt>
      <trkpt lat="59.119743" lon="18.290812">
        <ele>23.6</ele>
        <time>2014-10-11T11:02:22Z</time>
      </trkpt>
      <trkpt lat="59.119801" lon="18.29094">
        <ele>23.5</ele>
        <time>2014-10-11T11:02:23Z</time>
      </trkpt>
      <trkpt lat="59.119858" lon="18.291092">
        <ele>23.5</ele>
        <time>2014-10-11T11:02:24Z</time>
      </trkpt>
      <trkpt lat="59.119908" lon="18.291252">
        <ele>23.4</ele>
        <time>2014-10-11T11:02:25Z</time>
      </trkpt>
      <trkpt lat="59.119957" lon="18.291393">
        <ele>23.4</ele>
        <time>2014-10-11T11:02:26Z</time>
      </trkpt>
      <trkpt lat="59.119999" lon="18.291544">
        <ele>23.3</ele>
        <time>2014-10-11T11:02:27Z</time>
      </trkpt>
      <trkpt lat="59.120038" lon="18.291699">
        <ele>23.3</ele>
        <time>2014-10-11T11:02:28Z</time>
      </trkpt>
      <trkpt lat="59.120073" lon="18.291856">
        <ele>23.3</ele>
        <time>2014-10-11T11:02:29Z</time>
      </trkpt>
      <trkpt lat="59.120101" lon="18.292032">
        <ele>23.3</ele>
        <time>2014-10-11T11:02:30Z</time>
      </trkpt>
      <trkpt lat="59.12014" lon="18.292182">
        <ele>23</ele>
        <time>2014-10-11T11:02:31Z</time>
      </trkpt>
      <trkpt lat="59.120181" lon="18.292351">
        <ele>22.5</ele>
        <time>2014-10-11T11:02:32Z</time>
      </trkpt>
      <trkpt lat="59.120216" lon="18.292568">
        <ele>21.8</ele>
        <time>2014-10-11T11:02:33Z</time>
      </trkpt>
      <trkpt lat="59.120242" lon="18.292762">
        <ele>21.1</ele>
        <time>2014-10-11T11:02:34Z</time>
      </trkpt>
      <trkpt lat="59.120276" lon="18.292951">
        <ele>20.5</ele>
        <time>2014-10-11T11:02:35Z</time>
      </trkpt>
      <trkpt lat="59.120313" lon="18.293156">
        <ele>19.6</ele>
        <time>2014-10-11T11:02:36Z</time>
      </trkpt>
      <trkpt lat="59.120345" lon="18.293327">
        <ele>18.9</ele>
        <time>2014-10-11T11:02:37Z</time>
      </trkpt>
      <trkpt lat="59.12038" lon="18.293509">
        <ele>18.1</ele>
        <time>2014-10-11T11:02:38Z</time>
      </trkpt>
      <trkpt lat="59.120414" lon="18.293692">
        <ele>17.3</ele>
        <time>2014-10-11T11:02:39Z</time>
      </trkpt>
      <trkpt lat="59.120444" lon="18.293864">
        <ele>16.6</ele>
        <time>2014-10-11T11:02:40Z</time>
      </trkpt>
      <trkpt lat="59.12048" lon="18.294051">
        <ele>16</ele>
        <time>2014-10-11T11:02:41Z</time>
      </trkpt>
      <trkpt lat="59.120511" lon="18.294218">
        <ele>15.4</ele>
        <time>2014-10-11T11:02:42Z</time>
      </trkpt>
      <trkpt lat="59.120543" lon="18.294389">
        <ele>14.9</ele>
        <time>2014-10-11T11:02:43Z</time>
      </trkpt>
      <trkpt lat="59.12057" lon="18.294563">
        <ele>14.4</ele>
        <time>2014-10-11T11:02:44Z</time>
      </trkpt>
      <trkpt lat="59.120591" lon="18.294741">
        <ele>13.7</ele>
        <time>2014-10-11T11:02:45Z</time>
      </trkpt>
      <trkpt lat="59.120623" lon="18.29493">
        <ele>13</ele>
        <time>2014-10-11T11:02:46Z</time>
      </trkpt>
      <trkpt lat="59.120653" lon="18.295092">
        <ele>12.5</ele>
        <time>2014-10-11T11:02:47Z</time>
      </trkpt>
      <trkpt lat="59.120684" lon="18.29527">
        <ele>11.9</ele>
        <time>2014-10-11T11:02:48Z</time>
      </trkpt>
      <trkpt lat="59.120717" lon="18.295456">
        <ele>11.4</ele>
        <time>2014-10-11T11:02:49Z</time>
      </trkpt>
      <trkpt lat="59.120743" lon="18.295629">
        <ele>11.3</ele>
        <time>2014-10-11T11:02:50Z</time>
      </trkpt>
      <trkpt lat="59.120775" lon="18.295802">
        <ele>11.3</ele>
        <time>2014-10-11T11:02:51Z</time>
      </trkpt>
      <trkpt lat="59.12081" lon="18.296006">
        <ele>11.2</ele>
        <time>2014-10-11T11:02:52Z</time>
      </trkpt>
      <trkpt lat="59.120835" lon="18.296175">
        <ele>11.1</ele>
        <time>2014-10-11T11:02:53Z</time>
      </trkpt>
      <trkpt lat="59.120868" lon="18.296361">
        <ele>10.9</ele>
        <time>2014-10-11T11:02:54Z</time>
      </trkpt>
      <trkpt lat="59.120894" lon="18.296543">
        <ele>10.6</ele>
        <time>2014-10-11T11:02:55Z</time>
      </trkpt>
      <trkpt lat="59.120925" lon="18.296726">
        <ele>10.3</ele>
        <time>2014-10-11T11:02:56Z</time>
      </trkpt>
      <trkpt lat="59.12096" lon="18.296928">
        <ele>10</ele>
        <time>2014-10-11T11:02:57Z</time>
      </trkpt>
      <trkpt lat="59.120989" lon="18.297102">
        <ele>9.7</ele>
        <time>2014-10-11T11:02:58Z</time>
      </trkpt>
      <trkpt lat="59.121022" lon="18.29729">
        <ele>9.7</ele>
        <time>2014-10-11T11:02:59Z</time>
      </trkpt>
      <trkpt lat="59.121057" lon="18.297469">
        <ele>9.6</ele>
        <time>2014-10-11T11:03:00Z</time>
      </trkpt>
      <trkpt lat="59.121087" lon="18.297655">
        <ele>9.5</ele>
        <time>2014-10-11T11:03:01Z</time>
      </trkpt>
      <trkpt lat="59.121118" lon="18.297848">
        <ele>9.4</ele>
        <time>2014-10-11T11:03:02Z</time>
      </trkpt>
      <trkpt lat="59.121145" lon="18.29803">
        <ele>9.2</ele>
        <time>2014-10-11T11:03:03Z</time>
      </trkpt>
      <trkpt lat="59.121179" lon="18.298211">
        <ele>9</ele>
        <time>2014-10-11T11:03:04Z</time>
      </trkpt>
      <trkpt lat="59.121215" lon="18.298408">
        <ele>8.7</ele>
        <time>2014-10-11T11:03:05Z</time>
      </trkpt>
      <trkpt lat="59.121246" lon="18.298583">
        <ele>8.4</ele>
        <time>2014-10-11T11:03:06Z</time>
      </trkpt>
      <trkpt lat="59.121279" lon="18.298775">
        <ele>8.1</ele>
        <time>2014-10-11T11:03:07Z</time>
      </trkpt>
      <trkpt lat="59.121311" lon="18.298971">
        <ele>7.8</ele>
        <time>2014-10-11T11:03:08Z</time>
      </trkpt>
      <trkpt lat="59.121344" lon="18.299141">
        <ele>7.5</ele>
        <time>2014-10-11T11:03:09Z</time>
      </trkpt>
      <trkpt lat="59.121376" lon="18.299329">
        <ele>7.2</ele>
        <time>2014-10-11T11:03:10Z</time>
      </trkpt>
      <trkpt lat="59.12141" lon="18.299506">
        <ele>7</ele>
        <time>2014-10-11T11:03:11Z</time>
      </trkpt>
      <trkpt lat="59.12144" lon="18.299692">
        <ele>6.6</ele>
        <time>2014-10-11T11:03:12Z</time>
      </trkpt>
      <trkpt lat="59.121473" lon="18.299883">
        <ele>6.3</ele>
        <time>2014-10-11T11:03:13Z</time>
      </trkpt>
      <trkpt lat="59.121506" lon="18.30005">
        <ele>5.9</ele>
        <time>2014-10-11T11:03:14Z</time>
      </trkpt>
      <trkpt lat="59.121535" lon="18.300227">
        <ele>5.6</ele>
        <time>2014-10-11T11:03:15Z</time>
      </trkpt>
      <trkpt lat="59.121565" lon="18.300412">
        <ele>5.1</ele>
        <time>2014-10-11T11:03:16Z</time>
      </trkpt>
      <trkpt lat="59.121595" lon="18.300587">
        <ele>5.3</ele>
        <time>2014-10-11T11:03:17Z</time>
      </trkpt>
      <trkpt lat="59.121622" lon="18.30077">
        <ele>5.5</ele>
        <time>2014-10-11T11:03:18Z</time>
      </trkpt>
      <trkpt lat="59.121653" lon="18.30093">
        <ele>5.7</ele>
        <time>2014-10-11T11:03:19Z</time>
      </trkpt>
      <trkpt lat="59.121683" lon="18.301105">
        <ele>6</ele>
        <time>2014-10-11T11:03:20Z</time>
      </trkpt>
      <trkpt lat="59.121712" lon="18.301277">
        <ele>6.2</ele>
        <time>2014-10-11T11:03:21Z</time>
      </trkpt>
      <trkpt lat="59.12174" lon="18.301444">
        <ele>6.5</ele>
        <time>2014-10-11T11:03:22Z</time>
      </trkpt>
      <trkpt lat="59.121771" lon="18.301592">
        <ele>6.8</ele>
        <time>2014-10-11T11:03:23Z</time>
      </trkpt>
      <trkpt lat="59.121805" lon="18.301746">
        <ele>7.1</ele>
        <time>2014-10-11T11:03:24Z</time>
      </trkpt>
      <trkpt lat="59.121827" lon="18.301883">
        <ele>7.3</ele>
        <time>2014-10-11T11:03:25Z</time>
      </trkpt>
      <trkpt lat="59.121851" lon="18.302008">
        <ele>7.5</ele>
        <time>2014-10-11T11:03:26Z</time>
      </trkpt>
      <trkpt lat="59.121874" lon="18.302138">
        <ele>7.7</ele>
        <time>2014-10-11T11:03:27Z</time>
      </trkpt>
      <trkpt lat="59.121902" lon="18.302283">
        <ele>7.9</ele>
        <time>2014-10-11T11:03:28Z</time>
      </trkpt>
      <trkpt lat="59.121928" lon="18.302422">
        <ele>8.1</ele>
        <time>2014-10-11T11:03:29Z</time>
      </trkpt>
      <trkpt lat="59.12194" lon="18.302566">
        <ele>8.1</ele>
        <time>2014-10-11T11:03:30Z</time>
      </trkpt>
      <trkpt lat="59.121971" lon="18.302703">
        <ele>8.3</ele>
        <time>2014-10-11T11:03:31Z</time>
      </trkpt>
      <trkpt lat="59.121993" lon="18.302809">
        <ele>8.5</ele>
        <time>2014-10-11T11:03:32Z</time>
      </trkpt>
      <trkpt lat="59.122016" lon="18.302928">
        <ele>8.6</ele>
        <time>2014-10-11T11:03:33Z</time>
      </trkpt>
      <trkpt lat="59.122035" lon="18.303068">
        <ele>8.9</ele>
        <time>2014-10-11T11:03:34Z</time>
      </trkpt>
      <trkpt lat="59.122061" lon="18.303189">
        <ele>9.2</ele>
        <time>2014-10-11T11:03:35Z</time>
      </trkpt>
      <trkpt lat="59.122113" lon="18.303318">
        <ele>9.9</ele>
        <time>2014-10-11T11:03:36Z</time>
      </trkpt>
      <trkpt lat="59.122143" lon="18.303459">
        <ele>10.5</ele>
        <time>2014-10-11T11:03:37Z</time>
      </trkpt>
      <trkpt lat="59.122159" lon="18.303594">
        <ele>10.9</ele>
        <time>2014-10-11T11:03:38Z</time>
      </trkpt>
      <trkpt lat="59.122181" lon="18.303733">
        <ele>11.4</ele>
        <time>2014-10-11T11:03:39Z</time>
      </trkpt>
      <trkpt lat="59.122202" lon="18.303881">
        <ele>11.7</ele>
        <time>2014-10-11T11:03:40Z</time>
      </trkpt>
      <trkpt lat="59.12223" lon="18.304012">
        <ele>12</ele>
        <time>2014-10-11T11:03:41Z</time>
      </trkpt>
      <trkpt lat="59.122256" lon="18.304165">
        <ele>12.3</ele>
        <time>2014-10-11T11:03:42Z</time>
      </trkpt>
      <trkpt lat="59.122284" lon="18.304321">
        <ele>12.6</ele>
        <time>2014-10-11T11:03:43Z</time>
      </trkpt>
      <trkpt lat="59.122309" lon="18.304472">
        <ele>12.8</ele>
        <time>2014-10-11T11:03:44Z</time>
      </trkpt>
      <trkpt lat="59.122336" lon="18.304617">
        <ele>13</ele>
        <time>2014-10-11T11:03:45Z</time>
      </trkpt>
      <trkpt lat="59.122369" lon="18.304754">
        <ele>13.2</ele>
        <time>2014-10-11T11:03:46Z</time>
      </trkpt>
      <trkpt lat="59.122388" lon="18.304908">
        <ele>13.2</ele>
        <time>2014-10-11T11:03:47Z</time>
      </trkpt>
      <trkpt lat="59.122429" lon="18.305023">
        <ele>13.5</ele>
        <time>2014-10-11T11:03:48Z</time>
      </trkpt>
      <trkpt lat="59.122475" lon="18.305177">
        <ele>13.7</ele>
        <time>2014-10-11T11:03:49Z</time>
      </trkpt>
      <trkpt lat="59.122502" lon="18.305313">
        <ele>13.7</ele>
        <time>2014-10-11T11:03:50Z</time>
      </trkpt>
      <trkpt lat="59.122538" lon="18.305425">
        <ele>13.8</ele>
        <time>2014-10-11T11:03:51Z</time>
      </trkpt>
      <trkpt lat="59.122566" lon="18.305542">
        <ele>13.9</ele>
        <time>2014-10-11T11:03:52Z</time>
      </trkpt>
      <trkpt lat="59.122611" lon="18.305673">
        <ele>14</ele>
        <time>2014-10-11T11:03:53Z</time>
      </trkpt>
      <trkpt lat="59.122639" lon="18.305763">
        <ele>14.1</ele>
        <time>2014-10-11T11:03:54Z</time>
      </trkpt>
      <trkpt lat="59.12267" lon="18.305882">
        <ele>14.1</ele>
        <time>2014-10-11T11:03:55Z</time>
      </trkpt>
      <trkpt lat="59.122704" lon="18.305987">
        <ele>14.2</ele>
        <time>2014-10-11T11:03:56Z</time>
      </trkpt>
      <trkpt lat="59.12273" lon="18.306083">
        <ele>14.2</ele>
        <time>2014-10-11T11:03:57Z</time>
      </trkpt>
      <trkpt lat="59.12276" lon="18.306159">
        <ele>14.2</ele>
        <time>2014-10-11T11:03:58Z</time>
      </trkpt>
      <trkpt lat="59.122791" lon="18.306257">
        <ele>14.2</ele>
        <time>2014-10-11T11:03:59Z</time>
      </trkpt>
      <trkpt lat="59.122818" lon="18.306349">
        <ele>14.1</ele>
        <time>2014-10-11T11:04:00Z</time>
      </trkpt>
      <trkpt lat="59.122848" lon="18.306462">
        <ele>13.9</ele>
        <time>2014-10-11T11:04:01Z</time>
      </trkpt>
      <trkpt lat="59.122879" lon="18.306555">
        <ele>13.7</ele>
        <time>2014-10-11T11:04:02Z</time>
      </trkpt>
      <trkpt lat="59.122912" lon="18.30664">
        <ele>13.6</ele>
        <time>2014-10-11T11:04:03Z</time>
      </trkpt>
      <trkpt lat="59.122947" lon="18.306731">
        <ele>13.8</ele>
        <time>2014-10-11T11:04:04Z</time>
      </trkpt>
      <trkpt lat="59.122988" lon="18.306828">
        <ele>14.2</ele>
        <time>2014-10-11T11:04:05Z</time>
      </trkpt>
      <trkpt lat="59.123023" lon="18.306933">
        <ele>14.5</ele>
        <time>2014-10-11T11:04:06Z</time>
      </trkpt>
      <trkpt lat="59.123053" lon="18.307018">
        <ele>14.7</ele>
        <time>2014-10-11T11:04:07Z</time>
      </trkpt>
      <trkpt lat="59.123085" lon="18.307106">
        <ele>15</ele>
        <time>2014-10-11T11:04:08Z</time>
      </trkpt>
      <trkpt lat="59.123122" lon="18.307185">
        <ele>15.5</ele>
        <time>2014-10-11T11:04:09Z</time>
      </trkpt>
      <trkpt lat="59.123154" lon="18.307267">
        <ele>15.9</ele>
        <time>2014-10-11T11:04:10Z</time>
      </trkpt>
      <trkpt lat="59.123182" lon="18.307348">
        <ele>16.3</ele>
        <time>2014-10-11T11:04:11Z</time>
      </trkpt>
      <trkpt lat="59.123218" lon="18.307417">
        <ele>16.7</ele>
        <time>2014-10-11T11:04:12Z</time>
      </trkpt>
      <trkpt lat="59.123249" lon="18.307485">
        <ele>17.1</ele>
        <time>2014-10-11T11:04:13Z</time>
      </trkpt>
      <trkpt lat="59.123284" lon="18.307565">
        <ele>17.5</ele>
        <time>2014-10-11T11:04:14Z</time>
      </trkpt>
      <trkpt lat="59.12332" lon="18.30764">
        <ele>17.9</ele>
        <time>2014-10-11T11:04:15Z</time>
      </trkpt>
      <trkpt lat="59.123354" lon="18.307705">
        <ele>18.3</ele>
        <time>2014-10-11T11:04:16Z</time>
      </trkpt>
      <trkpt lat="59.123395" lon="18.307783">
        <ele>18.8</ele>
        <time>2014-10-11T11:04:17Z</time>
      </trkpt>
      <trkpt lat="59.123428" lon="18.30784">
        <ele>19.2</ele>
        <time>2014-10-11T11:04:18Z</time>
      </trkpt>
      <trkpt lat="59.123472" lon="18.307909">
        <ele>19.7</ele>
        <time>2014-10-11T11:04:19Z</time>
      </trkpt>
      <trkpt lat="59.12351" lon="18.307989">
        <ele>20</ele>
        <time>2014-10-11T11:04:20Z</time>
      </trkpt>
      <trkpt lat="59.123543" lon="18.30805">
        <ele>20.2</ele>
        <time>2014-10-11T11:04:21Z</time>
      </trkpt>
      <trkpt lat="59.123585" lon="18.30814">
        <ele>20.5</ele>
        <time>2014-10-11T11:04:22Z</time>
      </trkpt>
      <trkpt lat="59.123623" lon="18.308215">
        <ele>20.7</ele>
        <time>2014-10-11T11:04:23Z</time>
      </trkpt>
      <trkpt lat="59.123661" lon="18.308283">
        <ele>20.9</ele>
        <time>2014-10-11T11:04:24Z</time>
      </trkpt>
      <trkpt lat="59.123695" lon="18.308352">
        <ele>21.1</ele>
        <time>2014-10-11T11:04:25Z</time>
      </trkpt>
      <trkpt lat="59.12373" lon="18.308417">
        <ele>21.3</ele>
        <time>2014-10-11T11:04:26Z</time>
      </trkpt>
      <trkpt lat="59.123775" lon="18.308468">
        <ele>21.8</ele>
        <time>2014-10-11T11:04:27Z</time>
      </trkpt>
      <trkpt lat="59.123819" lon="18.308553">
        <ele>22.1</ele>
        <time>2014-10-11T11:04:28Z</time>
      </trkpt>
      <trkpt lat="59.12385" lon="18.30863">
        <ele>22.3</ele>
        <time>2014-10-11T11:04:29Z</time>
      </trkpt>
      <trkpt lat="59.123889" lon="18.308705">
        <ele>22.6</ele>
        <time>2014-10-11T11:04:30Z</time>
      </trkpt>
      <trkpt lat="59.123932" lon="18.308782">
        <ele>23.1</ele>
        <time>2014-10-11T11:04:31Z</time>
      </trkpt>
      <trkpt lat="59.123965" lon="18.308862">
        <ele>23.7</ele>
        <time>2014-10-11T11:04:32Z</time>
      </trkpt>
      <trkpt lat="59.124007" lon="18.308946">
        <ele>24.5</ele>
        <time>2014-10-11T11:04:33Z</time>
      </trkpt>
      <trkpt lat="59.124047" lon="18.309005">
        <ele>25.2</ele>
        <time>2014-10-11T11:04:34Z</time>
      </trkpt>
      <trkpt lat="59.124089" lon="18.309074">
        <ele>25.8</ele>
        <time>2014-10-11T11:04:35Z</time>
      </trkpt>
      <trkpt lat="59.12413" lon="18.309152">
        <ele>26.5</ele>
        <time>2014-10-11T11:04:36Z</time>
      </trkpt>
      <trkpt lat="59.124171" lon="18.309218">
        <ele>27.1</ele>
        <time>2014-10-11T11:04:37Z</time>
      </trkpt>
      <trkpt lat="59.124212" lon="18.309283">
        <ele>27.6</ele>
        <time>2014-10-11T11:04:38Z</time>
      </trkpt>
      <trkpt lat="59.124249" lon="18.309357">
        <ele>28.1</ele>
        <time>2014-10-11T11:04:39Z</time>
      </trkpt>
      <trkpt lat="59.12428" lon="18.309436">
        <ele>28.5</ele>
        <time>2014-10-11T11:04:40Z</time>
      </trkpt>
      <trkpt lat="59.12431" lon="18.309531">
        <ele>28.8</ele>
        <time>2014-10-11T11:04:41Z</time>
      </trkpt>
      <trkpt lat="59.124343" lon="18.309591">
        <ele>29.1</ele>
        <time>2014-10-11T11:04:42Z</time>
      </trkpt>
      <trkpt lat="59.124373" lon="18.309663">
        <ele>29.4</ele>
        <time>2014-10-11T11:04:43Z</time>
      </trkpt>
      <trkpt lat="59.124406" lon="18.309738">
        <ele>29.7</ele>
        <time>2014-10-11T11:04:44Z</time>
      </trkpt>
      <trkpt lat="59.124436" lon="18.309812">
        <ele>29.9</ele>
        <time>2014-10-11T11:04:45Z</time>
      </trkpt>
      <trkpt lat="59.124454" lon="18.309884">
        <ele>30</ele>
        <time>2014-10-11T11:04:46Z</time>
      </trkpt>
      <trkpt lat="59.124476" lon="18.30997">
        <ele>30</ele>
        <time>2014-10-11T11:04:47Z</time>
      </trkpt>
      <trkpt lat="59.124508" lon="18.310063">
        <ele>30.2</ele>
        <time>2014-10-11T11:04:48Z</time>
      </trkpt>
      <trkpt lat="59.124527" lon="18.310156">
        <ele>30.1</ele>
        <time>2014-10-11T11:04:49Z</time>
      </trkpt>
      <trkpt lat="59.124536" lon="18.310245">
        <ele>30</ele>
        <time>2014-10-11T11:04:50Z</time>
      </trkpt>
      <trkpt lat="59.124566" lon="18.310334">
        <ele>30.1</ele>
        <time>2014-10-11T11:04:51Z</time>
      </trkpt>
      <trkpt lat="59.124599" lon="18.310437">
        <ele>30.1</ele>
        <time>2014-10-11T11:04:52Z</time>
      </trkpt>
      <trkpt lat="59.124617" lon="18.31053">
        <ele>30.2</ele>
        <time>2014-10-11T11:04:53Z</time>
      </trkpt>
      <trkpt lat="59.124648" lon="18.310633">
        <ele>30.4</ele>
        <time>2014-10-11T11:04:54Z</time>
      </trkpt>
      <trkpt lat="59.124668" lon="18.310725">
        <ele>30.5</ele>
        <time>2014-10-11T11:04:55Z</time>
      </trkpt>
      <trkpt lat="59.124696" lon="18.310839">
        <ele>30.7</ele>
        <time>2014-10-11T11:04:56Z</time>
      </trkpt>
      <trkpt lat="59.124713" lon="18.310943">
        <ele>30.7</ele>
        <time>2014-10-11T11:04:57Z</time>
      </trkpt>
      <trkpt lat="59.124728" lon="18.311045">
        <ele>30.8</ele>
        <time>2014-10-11T11:04:58Z</time>
      </trkpt>
      <trkpt lat="59.12475" lon="18.311149">
        <ele>30.8</ele>
        <time>2014-10-11T11:04:59Z</time>
      </trkpt>
      <trkpt lat="59.124763" lon="18.311245">
        <ele>30.9</ele>
        <time>2014-10-11T11:05:00Z</time>
      </trkpt>
      <trkpt lat="59.124777" lon="18.311346">
        <ele>31</ele>
        <time>2014-10-11T11:05:01Z</time>
      </trkpt>
      <trkpt lat="59.124797" lon="18.311453">
        <ele>31.1</ele>
        <time>2014-10-11T11:05:02Z</time>
      </trkpt>
      <trkpt lat="59.124804" lon="18.311554">
        <ele>31.1</ele>
        <time>2014-10-11T11:05:03Z</time>
      </trkpt>
      <trkpt lat="59.124818" lon="18.311672">
        <ele>31.2</ele>
        <time>2014-10-11T11:05:04Z</time>
      </trkpt>
      <trkpt lat="59.124834" lon="18.31178">
        <ele>31.3</ele>
        <time>2014-10-11T11:05:05Z</time>
      </trkpt>
      <trkpt lat="59.124844" lon="18.311889">
        <ele>31.3</ele>
        <time>2014-10-11T11:05:06Z</time>
      </trkpt>
      <trkpt lat="59.124862" lon="18.312011">
        <ele>31.3</ele>
        <time>2014-10-11T11:05:07Z</time>
      </trkpt>
      <trkpt lat="59.124881" lon="18.312134">
        <ele>31.2</ele>
        <time>2014-10-11T11:05:08Z</time>
      </trkpt>
      <trkpt lat="59.124887" lon="18.312267">
        <ele>30.9</ele>
        <time>2014-10-11T11:05:09Z</time>
      </trkpt>
      <trkpt lat="59.124889" lon="18.312419">
        <ele>30.6</ele>
        <time>2014-10-11T11:05:10Z</time>
      </trkpt>
      <trkpt lat="59.124896" lon="18.312558">
        <ele>30.2</ele>
        <time>2014-10-11T11:05:11Z</time>
      </trkpt>
      <trkpt lat="59.124917" lon="18.312714">
        <ele>29.9</ele>
        <time>2014-10-11T11:05:12Z</time>
      </trkpt>
      <trkpt lat="59.124929" lon="18.312868">
        <ele>29.5</ele>
        <time>2014-10-11T11:05:13Z</time>
      </trkpt>
      <trkpt lat="59.124943" lon="18.313006">
        <ele>29.2</ele>
        <time>2014-10-11T11:05:14Z</time>
      </trkpt>
      <trkpt lat="59.124967" lon="18.313172">
        <ele>28.7</ele>
        <time>2014-10-11T11:05:15Z</time>
      </trkpt>
      <trkpt lat="59.124993" lon="18.313352">
        <ele>28.2</ele>
        <time>2014-10-11T11:05:16Z</time>
      </trkpt>
      <trkpt lat="59.12501" lon="18.313514">
        <ele>27.7</ele>
        <time>2014-10-11T11:05:17Z</time>
      </trkpt>
      <trkpt lat="59.125026" lon="18.313702">
        <ele>27.2</ele>
        <time>2014-10-11T11:05:18Z</time>
      </trkpt>
      <trkpt lat="59.125048" lon="18.313882">
        <ele>26.3</ele>
        <time>2014-10-11T11:05:19Z</time>
      </trkpt>
      <trkpt lat="59.125059" lon="18.314066">
        <ele>25.1</ele>
        <time>2014-10-11T11:05:20Z</time>
      </trkpt>
      <trkpt lat="59.125077" lon="18.314265">
        <ele>23.8</ele>
        <time>2014-10-11T11:05:21Z</time>
      </trkpt>
      <trkpt lat="59.125086" lon="18.314454">
        <ele>22.6</ele>
        <time>2014-10-11T11:05:22Z</time>
      </trkpt>
      <trkpt lat="59.125103" lon="18.314638">
        <ele>21.5</ele>
        <time>2014-10-11T11:05:23Z</time>
      </trkpt>
      <trkpt lat="59.125117" lon="18.314841">
        <ele>20</ele>
        <time>2014-10-11T11:05:24Z</time>
      </trkpt>
      <trkpt lat="59.125134" lon="18.315042">
        <ele>18.5</ele>
        <time>2014-10-11T11:05:25Z</time>
      </trkpt>
      <trkpt lat="59.125154" lon="18.315248">
        <ele>17</ele>
        <time>2014-10-11T11:05:26Z</time>
      </trkpt>
      <trkpt lat="59.125167" lon="18.315438">
        <ele>15.8</ele>
        <time>2014-10-11T11:05:27Z</time>
      </trkpt>
      <trkpt lat="59.125183" lon="18.315649">
        <ele>15.7</ele>
        <time>2014-10-11T11:05:28Z</time>
      </trkpt>
      <trkpt lat="59.125198" lon="18.315866">
        <ele>15.7</ele>
        <time>2014-10-11T11:05:29Z</time>
      </trkpt>
      <trkpt lat="59.125211" lon="18.316056">
        <ele>15.6</ele>
        <time>2014-10-11T11:05:30Z</time>
      </trkpt>
      <trkpt lat="59.125222" lon="18.316266">
        <ele>15.6</ele>
        <time>2014-10-11T11:05:31Z</time>
      </trkpt>
      <trkpt lat="59.125239" lon="18.31648">
        <ele>15.6</ele>
        <time>2014-10-11T11:05:32Z</time>
      </trkpt>
      <trkpt lat="59.125258" lon="18.316662">
        <ele>15.7</ele>
        <time>2014-10-11T11:05:33Z</time>
      </trkpt>
      <trkpt lat="59.125276" lon="18.316861">
        <ele>15.7</ele>
        <time>2014-10-11T11:05:34Z</time>
      </trkpt>
      <trkpt lat="59.125298" lon="18.317063">
        <ele>15.9</ele>
        <time>2014-10-11T11:05:35Z</time>
      </trkpt>
      <trkpt lat="59.125295" lon="18.317264">
        <ele>15.3</ele>
        <time>2014-10-11T11:05:36Z</time>
      </trkpt>
      <trkpt lat="59.125329" lon="18.3175">
        <ele>14.8</ele>
        <time>2014-10-11T11:05:37Z</time>
      </trkpt>
      <trkpt lat="59.125368" lon="18.317699">
        <ele>14.4</ele>
        <time>2014-10-11T11:05:38Z</time>
      </trkpt>
      <trkpt lat="59.125378" lon="18.317906">
        <ele>13.8</ele>
        <time>2014-10-11T11:05:39Z</time>
      </trkpt>
      <trkpt lat="59.125402" lon="18.318108">
        <ele>13.2</ele>
        <time>2014-10-11T11:05:40Z</time>
      </trkpt>
      <trkpt lat="59.125428" lon="18.318314">
        <ele>12.7</ele>
        <time>2014-10-11T11:05:41Z</time>
      </trkpt>
      <trkpt lat="59.125437" lon="18.318524">
        <ele>12</ele>
        <time>2014-10-11T11:05:42Z</time>
      </trkpt>
      <trkpt lat="59.125444" lon="18.318714">
        <ele>11.4</ele>
        <time>2014-10-11T11:05:43Z</time>
      </trkpt>
      <trkpt lat="59.125462" lon="18.31891">
        <ele>11.1</ele>
        <time>2014-10-11T11:05:44Z</time>
      </trkpt>
      <trkpt lat="59.125481" lon="18.319133">
        <ele>10.7</ele>
        <time>2014-10-11T11:05:45Z</time>
      </trkpt>
      <trkpt lat="59.125498" lon="18.31933">
        <ele>10.5</ele>
        <time>2014-10-11T11:05:46Z</time>
      </trkpt>
      <trkpt lat="59.125511" lon="18.319518">
        <ele>10.2</ele>
        <time>2014-10-11T11:05:47Z</time>
      </trkpt>
      <trkpt lat="59.125526" lon="18.319745">
        <ele>9.8</ele>
        <time>2014-10-11T11:05:48Z</time>
      </trkpt>
      <trkpt lat="59.125543" lon="18.319938">
        <ele>9.6</ele>
        <time>2014-10-11T11:05:49Z</time>
      </trkpt>
      <trkpt lat="59.125557" lon="18.320143">
        <ele>9.3</ele>
        <time>2014-10-11T11:05:50Z</time>
      </trkpt>
      <trkpt lat="59.125571" lon="18.320346">
        <ele>9</ele>
        <time>2014-10-11T11:05:51Z</time>
      </trkpt>
      <trkpt lat="59.125589" lon="18.320545">
        <ele>8.9</ele>
        <time>2014-10-11T11:05:52Z</time>
      </trkpt>
      <trkpt lat="59.125605" lon="18.320742">
        <ele>8.9</ele>
        <time>2014-10-11T11:05:53Z</time>
      </trkpt>
      <trkpt lat="59.12562" lon="18.320925">
        <ele>8.8</ele>
        <time>2014-10-11T11:05:54Z</time>
      </trkpt>
      <trkpt lat="59.125641" lon="18.321109">
        <ele>8.9</ele>
        <time>2014-10-11T11:05:55Z</time>
      </trkpt>
      <trkpt lat="59.125653" lon="18.32129">
        <ele>8.8</ele>
        <time>2014-10-11T11:05:56Z</time>
      </trkpt>
      <trkpt lat="59.125676" lon="18.321479">
        <ele>8.8</ele>
        <time>2014-10-11T11:05:57Z</time>
      </trkpt>
      <trkpt lat="59.12569" lon="18.321682">
        <ele>8.8</ele>
        <time>2014-10-11T11:05:58Z</time>
      </trkpt>
      <trkpt lat="59.125702" lon="18.321854">
        <ele>8.7</ele>
        <time>2014-10-11T11:05:59Z</time>
      </trkpt>
      <trkpt lat="59.125726" lon="18.322047">
        <ele>8.8</ele>
        <time>2014-10-11T11:06:00Z</time>
      </trkpt>
      <trkpt lat="59.125745" lon="18.322237">
        <ele>8.9</ele>
        <time>2014-10-11T11:06:01Z</time>
      </trkpt>
      <trkpt lat="59.125758" lon="18.322404">
        <ele>9.1</ele>
        <time>2014-10-11T11:06:02Z</time>
      </trkpt>
      <trkpt lat="59.125779" lon="18.322581">
        <ele>9.3</ele>
        <time>2014-10-11T11:06:03Z</time>
      </trkpt>
      <trkpt lat="59.1258" lon="18.322776">
        <ele>9.6</ele>
        <time>2014-10-11T11:06:04Z</time>
      </trkpt>
      <trkpt lat="59.125818" lon="18.322936">
        <ele>9.8</ele>
        <time>2014-10-11T11:06:05Z</time>
      </trkpt>
      <trkpt lat="59.125842" lon="18.323115">
        <ele>10.1</ele>
        <time>2014-10-11T11:06:06Z</time>
      </trkpt>
      <trkpt lat="59.125863" lon="18.323276">
        <ele>10.3</ele>
        <time>2014-10-11T11:06:07Z</time>
      </trkpt>
      <trkpt lat="59.125884" lon="18.323442">
        <ele>10.5</ele>
        <time>2014-10-11T11:06:08Z</time>
      </trkpt>
      <trkpt lat="59.125909" lon="18.323614">
        <ele>10.8</ele>
        <time>2014-10-11T11:06:09Z</time>
      </trkpt>
      <trkpt lat="59.125935" lon="18.32377">
        <ele>11</ele>
        <time>2014-10-11T11:06:10Z</time>
      </trkpt>
      <trkpt lat="59.125957" lon="18.323931">
        <ele>11.2</ele>
        <time>2014-10-11T11:06:11Z</time>
      </trkpt>
      <trkpt lat="59.125981" lon="18.324089">
        <ele>11.4</ele>
        <time>2014-10-11T11:06:12Z</time>
      </trkpt>
      <trkpt lat="59.126009" lon="18.324247">
        <ele>11.6</ele>
        <time>2014-10-11T11:06:13Z</time>
      </trkpt>
      <trkpt lat="59.126019" lon="18.324424">
        <ele>11.6</ele>
        <time>2014-10-11T11:06:14Z</time>
      </trkpt>
      <trkpt lat="59.126041" lon="18.324583">
        <ele>11.7</ele>
        <time>2014-10-11T11:06:15Z</time>
      </trkpt>
      <trkpt lat="59.126071" lon="18.324746">
        <ele>11.7</ele>
        <time>2014-10-11T11:06:16Z</time>
      </trkpt>
      <trkpt lat="59.126103" lon="18.324916">
        <ele>11.7</ele>
        <time>2014-10-11T11:06:17Z</time>
      </trkpt>
      <trkpt lat="59.126125" lon="18.325068">
        <ele>11.5</ele>
        <time>2014-10-11T11:06:18Z</time>
      </trkpt>
      <trkpt lat="59.126161" lon="18.325223">
        <ele>11.3</ele>
        <time>2014-10-11T11:06:19Z</time>
      </trkpt>
      <trkpt lat="59.12619" lon="18.325388">
        <ele>11.1</ele>
        <time>2014-10-11T11:06:20Z</time>
      </trkpt>
      <trkpt lat="59.12622" lon="18.325527">
        <ele>10.7</ele>
        <time>2014-10-11T11:06:21Z</time>
      </trkpt>
      <trkpt lat="59.126254" lon="18.325692">
        <ele>10.4</ele>
        <time>2014-10-11T11:06:22Z</time>
      </trkpt>
      <trkpt lat="59.126285" lon="18.32584">
        <ele>10.4</ele>
        <time>2014-10-11T11:06:23Z</time>
      </trkpt>
      <trkpt lat="59.126324" lon="18.325996">
        <ele>10.4</ele>
        <time>2014-10-11T11:06:24Z</time>
      </trkpt>
      <trkpt lat="59.126361" lon="18.326153">
        <ele>10.4</ele>
        <time>2014-10-11T11:06:25Z</time>
      </trkpt>
      <trkpt lat="59.12639" lon="18.326283">
        <ele>10.4</ele>
        <time>2014-10-11T11:06:26Z</time>
      </trkpt>
      <trkpt lat="59.126424" lon="18.32643">
        <ele>10.4</ele>
        <time>2014-10-11T11:06:27Z</time>
      </trkpt>
      <trkpt lat="59.126458" lon="18.326569">
        <ele>10.4</ele>
        <time>2014-10-11T11:06:28Z</time>
      </trkpt>
      <trkpt lat="59.126489" lon="18.326703">
        <ele>10.3</ele>
        <time>2014-10-11T11:06:29Z</time>
      </trkpt>
      <trkpt lat="59.126523" lon="18.326846">
        <ele>10.3</ele>
        <time>2014-10-11T11:06:30Z</time>
      </trkpt>
      <trkpt lat="59.12655" lon="18.326969">
        <ele>10.2</ele>
        <time>2014-10-11T11:06:31Z</time>
      </trkpt>
      <trkpt lat="59.126579" lon="18.327096">
        <ele>10.2</ele>
        <time>2014-10-11T11:06:32Z</time>
      </trkpt>
      <trkpt lat="59.126609" lon="18.327206">
        <ele>10.4</ele>
        <time>2014-10-11T11:06:33Z</time>
      </trkpt>
      <trkpt lat="59.126633" lon="18.327323">
        <ele>10.7</ele>
        <time>2014-10-11T11:06:34Z</time>
      </trkpt>
      <trkpt lat="59.126656" lon="18.327421">
        <ele>10.9</ele>
        <time>2014-10-11T11:06:35Z</time>
      </trkpt>
      <trkpt lat="59.12668" lon="18.32753">
        <ele>11.1</ele>
        <time>2014-10-11T11:06:36Z</time>
      </trkpt>
      <trkpt lat="59.126685" lon="18.327611">
        <ele>11.2</ele>
        <time>2014-10-11T11:06:37Z</time>
      </trkpt>
      <trkpt lat="59.126704" lon="18.327707">
        <ele>11.4</ele>
        <time>2014-10-11T11:06:38Z</time>
      </trkpt>
      <trkpt lat="59.126713" lon="18.327783">
        <ele>11.4</ele>
        <time>2014-10-11T11:06:39Z</time>
      </trkpt>
      <trkpt lat="59.12674" lon="18.32788">
        <ele>11.7</ele>
        <time>2014-10-11T11:06:40Z</time>
      </trkpt>
      <trkpt lat="59.126756" lon="18.327963">
        <ele>11.9</ele>
        <time>2014-10-11T11:06:41Z</time>
      </trkpt>
      <trkpt lat="59.126782" lon="18.328032">
        <ele>12.2</ele>
        <time>2014-10-11T11:06:42Z</time>
      </trkpt>
      <trkpt lat="59.126812" lon="18.328139">
        <ele>12.6</ele>
        <time>2014-10-11T11:06:43Z</time>
      </trkpt>
      <trkpt lat="59.126837" lon="18.328218">
        <ele>12.9</ele>
        <time>2014-10-11T11:06:44Z</time>
      </trkpt>
      <trkpt lat="59.126859" lon="18.328304">
        <ele>13.2</ele>
        <time>2014-10-11T11:06:45Z</time>
      </trkpt>
      <trkpt lat="59.126882" lon="18.32839">
        <ele>13.5</ele>
        <time>2014-10-11T11:06:46Z</time>
      </trkpt>
      <trkpt lat="59.126902" lon="18.328468">
        <ele>13.8</ele>
        <time>2014-10-11T11:06:47Z</time>
      </trkpt>
      <trkpt lat="59.126913" lon="18.328552">
        <ele>14</ele>
        <time>2014-10-11T11:06:48Z</time>
      </trkpt>
      <trkpt lat="59.126933" lon="18.32863">
        <ele>14.3</ele>
        <time>2014-10-11T11:06:49Z</time>
      </trkpt>
      <trkpt lat="59.126964" lon="18.328753">
        <ele>14.7</ele>
        <time>2014-10-11T11:06:51Z</time>
      </trkpt>
      <trkpt lat="59.126987" lon="18.328828">
        <ele>15</ele>
        <time>2014-10-11T11:06:52Z</time>
      </trkpt>
      <trkpt lat="59.127007" lon="18.328902">
        <ele>15.2</ele>
        <time>2014-10-11T11:06:53Z</time>
      </trkpt>
      <trkpt lat="59.127022" lon="18.329003">
        <ele>15.3</ele>
        <time>2014-10-11T11:06:54Z</time>
      </trkpt>
      <trkpt lat="59.127038" lon="18.329074">
        <ele>15.5</ele>
        <time>2014-10-11T11:06:55Z</time>
      </trkpt>
      <trkpt lat="59.127067" lon="18.329169">
        <ele>15.8</ele>
        <time>2014-10-11T11:06:56Z</time>
      </trkpt>
      <trkpt lat="59.127086" lon="18.329248">
        <ele>16</ele>
        <time>2014-10-11T11:06:57Z</time>
      </trkpt>
      <trkpt lat="59.1271" lon="18.329326">
        <ele>16.3</ele>
        <time>2014-10-11T11:06:58Z</time>
      </trkpt>
      <trkpt lat="59.127119" lon="18.329405">
        <ele>16.6</ele>
        <time>2014-10-11T11:06:59Z</time>
      </trkpt>
      <trkpt lat="59.127134" lon="18.329464">
        <ele>16.9</ele>
        <time>2014-10-11T11:07:00Z</time>
      </trkpt>
      <trkpt lat="59.127152" lon="18.329551">
        <ele>17.2</ele>
        <time>2014-10-11T11:07:01Z</time>
      </trkpt>
      <trkpt lat="59.127182" lon="18.329637">
        <ele>17.6</ele>
        <time>2014-10-11T11:07:02Z</time>
      </trkpt>
      <trkpt lat="59.127199" lon="18.32971">
        <ele>17.8</ele>
        <time>2014-10-11T11:07:03Z</time>
      </trkpt>
      <trkpt lat="59.127216" lon="18.32978">
        <ele>18</ele>
        <time>2014-10-11T11:07:04Z</time>
      </trkpt>
      <trkpt lat="59.127226" lon="18.329863">
        <ele>18.1</ele>
        <time>2014-10-11T11:07:05Z</time>
      </trkpt>
      <trkpt lat="59.127244" lon="18.329959">
        <ele>18.2</ele>
        <time>2014-10-11T11:07:06Z</time>
      </trkpt>
      <trkpt lat="59.127268" lon="18.330037">
        <ele>18.6</ele>
        <time>2014-10-11T11:07:07Z</time>
      </trkpt>
      <trkpt lat="59.127287" lon="18.33011">
        <ele>18.8</ele>
        <time>2014-10-11T11:07:08Z</time>
      </trkpt>
      <trkpt lat="59.1273" lon="18.330197">
        <ele>18.9</ele>
        <time>2014-10-11T11:07:09Z</time>
      </trkpt>
      <trkpt lat="59.127316" lon="18.330284">
        <ele>19.1</ele>
        <time>2014-10-11T11:07:10Z</time>
      </trkpt>
      <trkpt lat="59.127332" lon="18.330365">
        <ele>19.2</ele>
        <time>2014-10-11T11:07:11Z</time>
      </trkpt>
      <trkpt lat="59.127362" lon="18.330475">
        <ele>19.6</ele>
        <time>2014-10-11T11:07:12Z</time>
      </trkpt>
      <trkpt lat="59.127378" lon="18.33056">
        <ele>19.8</ele>
        <time>2014-10-11T11:07:13Z</time>
      </trkpt>
      <trkpt lat="59.127401" lon="18.330651">
        <ele>20.1</ele>
        <time>2014-10-11T11:07:14Z</time>
      </trkpt>
      <trkpt lat="59.127423" lon="18.330754">
        <ele>20.4</ele>
        <time>2014-10-11T11:07:15Z</time>
      </trkpt>
      <trkpt lat="59.12745" lon="18.330852">
        <ele>20.7</ele>
        <time>2014-10-11T11:07:16Z</time>
      </trkpt>
      <trkpt lat="59.127475" lon="18.330956">
        <ele>21</ele>
        <time>2014-10-11T11:07:17Z</time>
      </trkpt>
      <trkpt lat="59.127501" lon="18.331069">
        <ele>21.2</ele>
        <time>2014-10-11T11:07:18Z</time>
      </trkpt>
      <trkpt lat="59.12752" lon="18.331165">
        <ele>21.4</ele>
        <time>2014-10-11T11:07:19Z</time>
      </trkpt>
      <trkpt lat="59.127557" lon="18.331288">
        <ele>21.7</ele>
        <time>2014-10-11T11:07:20Z</time>
      </trkpt>
      <trkpt lat="59.127582" lon="18.3314">
        <ele>21.9</ele>
        <time>2014-10-11T11:07:21Z</time>
      </trkpt>
      <trkpt lat="59.127607" lon="18.331512">
        <ele>21.9</ele>
        <time>2014-10-11T11:07:22Z</time>
      </trkpt>
      <trkpt lat="59.127629" lon="18.331651">
        <ele>21.9</ele>
        <time>2014-10-11T11:07:23Z</time>
      </trkpt>
      <trkpt lat="59.127664" lon="18.331798">
        <ele>22</ele>
        <time>2014-10-11T11:07:24Z</time>
      </trkpt>
      <trkpt lat="59.1277" lon="18.33195">
        <ele>22</ele>
        <time>2014-10-11T11:07:25Z</time>
      </trkpt>
      <trkpt lat="59.12774" lon="18.33209">
        <ele>22.1</ele>
        <time>2014-10-11T11:07:26Z</time>
      </trkpt>
      <trkpt lat="59.12778" lon="18.332215">
        <ele>22.2</ele>
        <time>2014-10-11T11:07:27Z</time>
      </trkpt>
      <trkpt lat="59.127823" lon="18.33233">
        <ele>22.4</ele>
        <time>2014-10-11T11:07:28Z</time>
      </trkpt>
      <trkpt lat="59.127843" lon="18.332463">
        <ele>22.3</ele>
        <time>2014-10-11T11:07:29Z</time>
      </trkpt>
      <trkpt lat="59.127875" lon="18.332584">
        <ele>22.4</ele>
        <time>2014-10-11T11:07:30Z</time>
      </trkpt>
      <trkpt lat="59.127892" lon="18.332727">
        <ele>22.2</ele>
        <time>2014-10-11T11:07:31Z</time>
      </trkpt>
      <trkpt lat="59.127915" lon="18.332871">
        <ele>22.1</ele>
        <time>2014-10-11T11:07:32Z</time>
      </trkpt>
      <trkpt lat="59.127954" lon="18.333015">
        <ele>22.2</ele>
        <time>2014-10-11T11:07:33Z</time>
      </trkpt>
      <trkpt lat="59.127985" lon="18.333159">
        <ele>22.2</ele>
        <time>2014-10-11T11:07:34Z</time>
      </trkpt>
      <trkpt lat="59.128018" lon="18.333294">
        <ele>22.2</ele>
        <time>2014-10-11T11:07:35Z</time>
      </trkpt>
      <trkpt lat="59.128052" lon="18.333434">
        <ele>22.2</ele>
        <time>2014-10-11T11:07:36Z</time>
      </trkpt>
      <trkpt lat="59.128088" lon="18.333586">
        <ele>22.1</ele>
        <time>2014-10-11T11:07:37Z</time>
      </trkpt>
      <trkpt lat="59.128119" lon="18.333736">
        <ele>22</ele>
        <time>2014-10-11T11:07:38Z</time>
      </trkpt>
      <trkpt lat="59.128152" lon="18.333898">
        <ele>21.8</ele>
        <time>2014-10-11T11:07:39Z</time>
      </trkpt>
      <trkpt lat="59.128185" lon="18.334023">
        <ele>21.7</ele>
        <time>2014-10-11T11:07:40Z</time>
      </trkpt>
      <trkpt lat="59.128215" lon="18.334153">
        <ele>21.6</ele>
        <time>2014-10-11T11:07:41Z</time>
      </trkpt>
      <trkpt lat="59.128251" lon="18.334302">
        <ele>21.5</ele>
        <time>2014-10-11T11:07:42Z</time>
      </trkpt>
      <trkpt lat="59.128279" lon="18.334427">
        <ele>21.4</ele>
        <time>2014-10-11T11:07:43Z</time>
      </trkpt>
      <trkpt lat="59.128311" lon="18.334567">
        <ele>21.3</ele>
        <time>2014-10-11T11:07:44Z</time>
      </trkpt>
      <trkpt lat="59.128342" lon="18.334704">
        <ele>21.2</ele>
        <time>2014-10-11T11:07:45Z</time>
      </trkpt>
      <trkpt lat="59.128372" lon="18.334826">
        <ele>21</ele>
        <time>2014-10-11T11:07:46Z</time>
      </trkpt>
      <trkpt lat="59.128412" lon="18.334979">
        <ele>20.9</ele>
        <time>2014-10-11T11:07:47Z</time>
      </trkpt>
      <trkpt lat="59.12844" lon="18.335105">
        <ele>20.8</ele>
        <time>2014-10-11T11:07:48Z</time>
      </trkpt>
      <trkpt lat="59.128467" lon="18.335243">
        <ele>20.6</ele>
        <time>2014-10-11T11:07:49Z</time>
      </trkpt>
      <trkpt lat="59.128503" lon="18.335396">
        <ele>20.4</ele>
        <time>2014-10-11T11:07:50Z</time>
      </trkpt>
      <trkpt lat="59.128529" lon="18.335524">
        <ele>20.3</ele>
        <time>2014-10-11T11:07:51Z</time>
      </trkpt>
      <trkpt lat="59.128572" lon="18.335663">
        <ele>20.4</ele>
        <time>2014-10-11T11:07:52Z</time>
      </trkpt>
      <trkpt lat="59.12861" lon="18.33582">
        <ele>20.4</ele>
        <time>2014-10-11T11:07:53Z</time>
      </trkpt>
      <trkpt lat="59.128636" lon="18.335957">
        <ele>20.4</ele>
        <time>2014-10-11T11:07:54Z</time>
      </trkpt>
      <trkpt lat="59.128674" lon="18.336112">
        <ele>20.4</ele>
        <time>2014-10-11T11:07:55Z</time>
      </trkpt>
      <trkpt lat="59.128716" lon="18.33626">
        <ele>20.6</ele>
        <time>2014-10-11T11:07:56Z</time>
      </trkpt>
      <trkpt lat="59.128758" lon="18.3364">
        <ele>20.6</ele>
        <time>2014-10-11T11:07:57Z</time>
      </trkpt>
      <trkpt lat="59.128788" lon="18.336535">
        <ele>20.6</ele>
        <time>2014-10-11T11:07:58Z</time>
      </trkpt>
      <trkpt lat="59.128824" lon="18.336685">
        <ele>20.6</ele>
        <time>2014-10-11T11:07:59Z</time>
      </trkpt>
      <trkpt lat="59.128855" lon="18.336818">
        <ele>20.7</ele>
        <time>2014-10-11T11:08:00Z</time>
      </trkpt>
      <trkpt lat="59.128879" lon="18.336926">
        <ele>20.7</ele>
        <time>2014-10-11T11:08:01Z</time>
      </trkpt>
      <trkpt lat="59.128907" lon="18.337073">
        <ele>20.7</ele>
        <time>2014-10-11T11:08:02Z</time>
      </trkpt>
      <trkpt lat="59.128947" lon="18.337223">
        <ele>21.2</ele>
        <time>2014-10-11T11:08:03Z</time>
      </trkpt>
      <trkpt lat="59.128988" lon="18.337338">
        <ele>21.8</ele>
        <time>2014-10-11T11:08:04Z</time>
      </trkpt>
      <trkpt lat="59.12902" lon="18.337495">
        <ele>22.2</ele>
        <time>2014-10-11T11:08:05Z</time>
      </trkpt>
      <trkpt lat="59.129053" lon="18.337643">
        <ele>22.6</ele>
        <time>2014-10-11T11:08:06Z</time>
      </trkpt>
      <trkpt lat="59.12909" lon="18.337767">
        <ele>23</ele>
        <time>2014-10-11T11:08:07Z</time>
      </trkpt>
      <trkpt lat="59.129125" lon="18.337904">
        <ele>23.4</ele>
        <time>2014-10-11T11:08:08Z</time>
      </trkpt>
      <trkpt lat="59.129147" lon="18.338066">
        <ele>23.5</ele>
        <time>2014-10-11T11:08:09Z</time>
      </trkpt>
      <trkpt lat="59.129184" lon="18.338205">
        <ele>23.7</ele>
        <time>2014-10-11T11:08:10Z</time>
      </trkpt>
      <trkpt lat="59.129216" lon="18.338357">
        <ele>23.8</ele>
        <time>2014-10-11T11:08:11Z</time>
      </trkpt>
      <trkpt lat="59.129242" lon="18.338487">
        <ele>23.9</ele>
        <time>2014-10-11T11:08:12Z</time>
      </trkpt>
      <trkpt lat="59.129275" lon="18.338611">
        <ele>24</ele>
        <time>2014-10-11T11:08:13Z</time>
      </trkpt>
      <trkpt lat="59.129312" lon="18.338763">
        <ele>24</ele>
        <time>2014-10-11T11:08:14Z</time>
      </trkpt>
      <trkpt lat="59.129333" lon="18.33887">
        <ele>23.8</ele>
        <time>2014-10-11T11:08:15Z</time>
      </trkpt>
      <trkpt lat="59.12937" lon="18.339009">
        <ele>23.5</ele>
        <time>2014-10-11T11:08:16Z</time>
      </trkpt>
      <trkpt lat="59.129401" lon="18.339152">
        <ele>23.2</ele>
        <time>2014-10-11T11:08:17Z</time>
      </trkpt>
      <trkpt lat="59.129428" lon="18.339275">
        <ele>22.9</ele>
        <time>2014-10-11T11:08:18Z</time>
      </trkpt>
      <trkpt lat="59.129466" lon="18.339417">
        <ele>22.6</ele>
        <time>2014-10-11T11:08:19Z</time>
      </trkpt>
      <trkpt lat="59.129498" lon="18.33954">
        <ele>22.4</ele>
        <time>2014-10-11T11:08:20Z</time>
      </trkpt>
      <trkpt lat="59.129524" lon="18.33966">
        <ele>22</ele>
        <time>2014-10-11T11:08:21Z</time>
      </trkpt>
      <trkpt lat="59.129559" lon="18.339806">
        <ele>21.4</ele>
        <time>2014-10-11T11:08:22Z</time>
      </trkpt>
      <trkpt lat="59.129586" lon="18.339932">
        <ele>20.9</ele>
        <time>2014-10-11T11:08:23Z</time>
      </trkpt>
      <trkpt lat="59.129623" lon="18.340064">
        <ele>20.5</ele>
        <time>2014-10-11T11:08:24Z</time>
      </trkpt>
      <trkpt lat="59.129657" lon="18.340218">
        <ele>19.9</ele>
        <time>2014-10-11T11:08:25Z</time>
      </trkpt>
      <trkpt lat="59.129687" lon="18.340345">
        <ele>19.4</ele>
        <time>2014-10-11T11:08:26Z</time>
      </trkpt>
      <trkpt lat="59.129728" lon="18.34049">
        <ele>19</ele>
        <time>2014-10-11T11:08:27Z</time>
      </trkpt>
      <trkpt lat="59.129765" lon="18.340631">
        <ele>18.7</ele>
        <time>2014-10-11T11:08:28Z</time>
      </trkpt>
      <trkpt lat="59.1298" lon="18.340763">
        <ele>18.4</ele>
        <time>2014-10-11T11:08:29Z</time>
      </trkpt>
      <trkpt lat="59.129837" lon="18.340922">
        <ele>18</ele>
        <time>2014-10-11T11:08:30Z</time>
      </trkpt>
      <trkpt lat="59.129861" lon="18.341051">
        <ele>17.6</ele>
        <time>2014-10-11T11:08:31Z</time>
      </trkpt>
      <trkpt lat="59.129894" lon="18.341192">
        <ele>17.3</ele>
        <time>2014-10-11T11:08:32Z</time>
      </trkpt>
      <trkpt lat="59.129928" lon="18.341346">
        <ele>16.8</ele>
        <time>2014-10-11T11:08:33Z</time>
      </trkpt>
      <trkpt lat="59.129961" lon="18.34148">
        <ele>16.5</ele>
        <time>2014-10-11T11:08:34Z</time>
      </trkpt>
      <trkpt lat="59.130002" lon="18.341623">
        <ele>16.2</ele>
        <time>2014-10-11T11:08:35Z</time>
      </trkpt>
      <trkpt lat="59.130035" lon="18.341755">
        <ele>15.9</ele>
        <time>2014-10-11T11:08:36Z</time>
      </trkpt>
      <trkpt lat="59.130068" lon="18.341892">
        <ele>15.6</ele>
        <time>2014-10-11T11:08:37Z</time>
      </trkpt>
      <trkpt lat="59.130107" lon="18.342054">
        <ele>15.2</ele>
        <time>2014-10-11T11:08:38Z</time>
      </trkpt>
      <trkpt lat="59.130138" lon="18.342188">
        <ele>15</ele>
        <time>2014-10-11T11:08:39Z</time>
      </trkpt>
      <trkpt lat="59.130172" lon="18.342339">
        <ele>14.8</ele>
        <time>2014-10-11T11:08:40Z</time>
      </trkpt>
      <trkpt lat="59.130204" lon="18.342485">
        <ele>14.6</ele>
        <time>2014-10-11T11:08:41Z</time>
      </trkpt>
      <trkpt lat="59.130233" lon="18.342638">
        <ele>14.4</ele>
        <time>2014-10-11T11:08:42Z</time>
      </trkpt>
      <trkpt lat="59.13027" lon="18.342794">
        <ele>14.2</ele>
        <time>2014-10-11T11:08:43Z</time>
      </trkpt>
      <trkpt lat="59.130306" lon="18.342935">
        <ele>14</ele>
        <time>2014-10-11T11:08:44Z</time>
      </trkpt>
      <trkpt lat="59.130345" lon="18.343084">
        <ele>13.6</ele>
        <time>2014-10-11T11:08:45Z</time>
      </trkpt>
      <trkpt lat="59.130385" lon="18.343237">
        <ele>13.2</ele>
        <time>2014-10-11T11:08:46Z</time>
      </trkpt>
      <trkpt lat="59.130423" lon="18.343391">
        <ele>12.8</ele>
        <time>2014-10-11T11:08:47Z</time>
      </trkpt>
      <trkpt lat="59.130462" lon="18.343543">
        <ele>12.6</ele>
        <time>2014-10-11T11:08:48Z</time>
      </trkpt>
      <trkpt lat="59.130499" lon="18.343713">
        <ele>12.4</ele>
        <time>2014-10-11T11:08:49Z</time>
      </trkpt>
      <trkpt lat="59.130543" lon="18.343866">
        <ele>12.4</ele>
        <time>2014-10-11T11:08:50Z</time>
      </trkpt>
      <trkpt lat="59.130581" lon="18.344023">
        <ele>12.3</ele>
        <time>2014-10-11T11:08:51Z</time>
      </trkpt>
      <trkpt lat="59.130619" lon="18.34417">
        <ele>12.3</ele>
        <time>2014-10-11T11:08:52Z</time>
      </trkpt>
      <trkpt lat="59.130657" lon="18.344331">
        <ele>12.2</ele>
        <time>2014-10-11T11:08:53Z</time>
      </trkpt>
      <trkpt lat="59.130701" lon="18.344499">
        <ele>12.1</ele>
        <time>2014-10-11T11:08:54Z</time>
      </trkpt>
      <trkpt lat="59.13073" lon="18.344642">
        <ele>11.9</ele>
        <time>2014-10-11T11:08:55Z</time>
      </trkpt>
      <trkpt lat="59.130769" lon="18.344796">
        <ele>11.8</ele>
        <time>2014-10-11T11:08:56Z</time>
      </trkpt>
      <trkpt lat="59.130808" lon="18.344964">
        <ele>11.6</ele>
        <time>2014-10-11T11:08:57Z</time>
      </trkpt>
      <trkpt lat="59.130839" lon="18.345097">
        <ele>11.4</ele>
        <time>2014-10-11T11:08:58Z</time>
      </trkpt>
      <trkpt lat="59.130878" lon="18.345261">
        <ele>11.2</ele>
        <time>2014-10-11T11:08:59Z</time>
      </trkpt>
      <trkpt lat="59.130917" lon="18.345405">
        <ele>11.1</ele>
        <time>2014-10-11T11:09:00Z</time>
      </trkpt>
      <trkpt lat="59.130952" lon="18.345541">
        <ele>11.2</ele>
        <time>2014-10-11T11:09:01Z</time>
      </trkpt>
      <trkpt lat="59.130991" lon="18.345689">
        <ele>11.3</ele>
        <time>2014-10-11T11:09:02Z</time>
      </trkpt>
      <trkpt lat="59.131021" lon="18.34583">
        <ele>11.4</ele>
        <time>2014-10-11T11:09:03Z</time>
      </trkpt>
      <trkpt lat="59.131059" lon="18.345995">
        <ele>11.5</ele>
        <time>2014-10-11T11:09:04Z</time>
      </trkpt>
      <trkpt lat="59.131102" lon="18.34616">
        <ele>11.6</ele>
        <time>2014-10-11T11:09:05Z</time>
      </trkpt>
      <trkpt lat="59.131139" lon="18.346307">
        <ele>11.6</ele>
        <time>2014-10-11T11:09:06Z</time>
      </trkpt>
      <trkpt lat="59.131179" lon="18.346462">
        <ele>11.5</ele>
        <time>2014-10-11T11:09:07Z</time>
      </trkpt>
      <trkpt lat="59.131208" lon="18.346597">
        <ele>11.3</ele>
        <time>2014-10-11T11:09:08Z</time>
      </trkpt>
      <trkpt lat="59.131246" lon="18.346737">
        <ele>11.2</ele>
        <time>2014-10-11T11:09:09Z</time>
      </trkpt>
      <trkpt lat="59.131283" lon="18.346883">
        <ele>11.1</ele>
        <time>2014-10-11T11:09:10Z</time>
      </trkpt>
      <trkpt lat="59.131323" lon="18.347007">
        <ele>11.2</ele>
        <time>2014-10-11T11:09:11Z</time>
      </trkpt>
      <trkpt lat="59.131366" lon="18.347154">
        <ele>11.2</ele>
        <time>2014-10-11T11:09:12Z</time>
      </trkpt>
      <trkpt lat="59.131403" lon="18.347313">
        <ele>11.2</ele>
        <time>2014-10-11T11:09:13Z</time>
      </trkpt>
      <trkpt lat="59.131438" lon="18.347447">
        <ele>11.3</ele>
        <time>2014-10-11T11:09:14Z</time>
      </trkpt>
      <trkpt lat="59.13148" lon="18.3476">
        <ele>11.3</ele>
        <time>2014-10-11T11:09:15Z</time>
      </trkpt>
      <trkpt lat="59.131511" lon="18.347741">
        <ele>11.3</ele>
        <time>2014-10-11T11:09:16Z</time>
      </trkpt>
      <trkpt lat="59.131552" lon="18.347879">
        <ele>11.4</ele>
        <time>2014-10-11T11:09:17Z</time>
      </trkpt>
      <trkpt lat="59.131585" lon="18.348033">
        <ele>11.1</ele>
        <time>2014-10-11T11:09:18Z</time>
      </trkpt>
      <trkpt lat="59.131619" lon="18.348152">
        <ele>11</ele>
        <time>2014-10-11T11:09:19Z</time>
      </trkpt>
      <trkpt lat="59.131655" lon="18.348295">
        <ele>10.8</ele>
        <time>2014-10-11T11:09:20Z</time>
      </trkpt>
      <trkpt lat="59.131694" lon="18.348453">
        <ele>10.5</ele>
        <time>2014-10-11T11:09:21Z</time>
      </trkpt>
      <trkpt lat="59.131725" lon="18.348586">
        <ele>10.3</ele>
        <time>2014-10-11T11:09:22Z</time>
      </trkpt>
      <trkpt lat="59.131764" lon="18.34873">
        <ele>10</ele>
        <time>2014-10-11T11:09:23Z</time>
      </trkpt>
      <trkpt lat="59.131799" lon="18.348858">
        <ele>10.2</ele>
        <time>2014-10-11T11:09:24Z</time>
      </trkpt>
      <trkpt lat="59.131834" lon="18.348989">
        <ele>10.4</ele>
        <time>2014-10-11T11:09:25Z</time>
      </trkpt>
      <trkpt lat="59.131868" lon="18.349142">
        <ele>10.6</ele>
        <time>2014-10-11T11:09:26Z</time>
      </trkpt>
      <trkpt lat="59.1319" lon="18.349281">
        <ele>10.7</ele>
        <time>2014-10-11T11:09:27Z</time>
      </trkpt>
      <trkpt lat="59.131939" lon="18.349419">
        <ele>11</ele>
        <time>2014-10-11T11:09:28Z</time>
      </trkpt>
      <trkpt lat="59.131976" lon="18.349556">
        <ele>11.1</ele>
        <time>2014-10-11T11:09:29Z</time>
      </trkpt>
      <trkpt lat="59.132009" lon="18.34968">
        <ele>11.2</ele>
        <time>2014-10-11T11:09:30Z</time>
      </trkpt>
      <trkpt lat="59.132045" lon="18.349835">
        <ele>11.1</ele>
        <time>2014-10-11T11:09:31Z</time>
      </trkpt>
      <trkpt lat="59.132081" lon="18.349963">
        <ele>11.1</ele>
        <time>2014-10-11T11:09:32Z</time>
      </trkpt>
      <trkpt lat="59.13211" lon="18.350101">
        <ele>11</ele>
        <time>2014-10-11T11:09:33Z</time>
      </trkpt>
      <trkpt lat="59.132148" lon="18.350257">
        <ele>10.9</ele>
        <time>2014-10-11T11:09:34Z</time>
      </trkpt>
      <trkpt lat="59.132183" lon="18.350403">
        <ele>10.8</ele>
        <time>2014-10-11T11:09:35Z</time>
      </trkpt>
      <trkpt lat="59.132223" lon="18.350542">
        <ele>10.7</ele>
        <time>2014-10-11T11:09:36Z</time>
      </trkpt>
      <trkpt lat="59.132266" lon="18.3507">
        <ele>10.5</ele>
        <time>2014-10-11T11:09:37Z</time>
      </trkpt>
      <trkpt lat="59.132296" lon="18.350844">
        <ele>10.2</ele>
        <time>2014-10-11T11:09:38Z</time>
      </trkpt>
      <trkpt lat="59.132333" lon="18.351001">
        <ele>10</ele>
        <time>2014-10-11T11:09:39Z</time>
      </trkpt>
      <trkpt lat="59.132367" lon="18.351142">
        <ele>9.7</ele>
        <time>2014-10-11T11:09:40Z</time>
      </trkpt>
      <trkpt lat="59.132401" lon="18.351299">
        <ele>9.3</ele>
        <time>2014-10-11T11:09:41Z</time>
      </trkpt>
      <trkpt lat="59.132439" lon="18.351436">
        <ele>8.9</ele>
        <time>2014-10-11T11:09:42Z</time>
      </trkpt>
      <trkpt lat="59.13247" lon="18.35158">
        <ele>8.5</ele>
        <time>2014-10-11T11:09:43Z</time>
      </trkpt>
      <trkpt lat="59.132503" lon="18.351729">
        <ele>8</ele>
        <time>2014-10-11T11:09:44Z</time>
      </trkpt>
      <trkpt lat="59.132536" lon="18.351887">
        <ele>7.5</ele>
        <time>2014-10-11T11:09:45Z</time>
      </trkpt>
      <trkpt lat="59.132572" lon="18.35201">
        <ele>7.1</ele>
        <time>2014-10-11T11:09:46Z</time>
      </trkpt>
      <trkpt lat="59.132613" lon="18.352169">
        <ele>6.8</ele>
        <time>2014-10-11T11:09:47Z</time>
      </trkpt>
      <trkpt lat="59.132648" lon="18.352323">
        <ele>6.6</ele>
        <time>2014-10-11T11:09:48Z</time>
      </trkpt>
      <trkpt lat="59.132684" lon="18.352446">
        <ele>6.5</ele>
        <time>2014-10-11T11:09:49Z</time>
      </trkpt>
      <trkpt lat="59.132725" lon="18.352611">
        <ele>6.3</ele>
        <time>2014-10-11T11:09:50Z</time>
      </trkpt>
      <trkpt lat="59.13276" lon="18.35275">
        <ele>6.1</ele>
        <time>2014-10-11T11:09:51Z</time>
      </trkpt>
      <trkpt lat="59.132792" lon="18.352898">
        <ele>5.9</ele>
        <time>2014-10-11T11:09:52Z</time>
      </trkpt>
      <trkpt lat="59.132831" lon="18.353046">
        <ele>5.6</ele>
        <time>2014-10-11T11:09:53Z</time>
      </trkpt>
      <trkpt lat="59.132868" lon="18.353171">
        <ele>5.3</ele>
        <time>2014-10-11T11:09:54Z</time>
      </trkpt>
      <trkpt lat="59.132905" lon="18.353324">
        <ele>5</ele>
        <time>2014-10-11T11:09:55Z</time>
      </trkpt>
      <trkpt lat="59.132943" lon="18.353464">
        <ele>4.8</ele>
        <time>2014-10-11T11:09:56Z</time>
      </trkpt>
      <trkpt lat="59.132982" lon="18.353613">
        <ele>4.6</ele>
        <time>2014-10-11T11:09:57Z</time>
      </trkpt>
      <trkpt lat="59.133021" lon="18.353765">
        <ele>4.4</ele>
        <time>2014-10-11T11:09:58Z</time>
      </trkpt>
      <trkpt lat="59.133059" lon="18.353914">
        <ele>4.5</ele>
        <time>2014-10-11T11:09:59Z</time>
      </trkpt>
      <trkpt lat="59.133094" lon="18.354058">
        <ele>4.6</ele>
        <time>2014-10-11T11:10:00Z</time>
      </trkpt>
      <trkpt lat="59.133136" lon="18.354202">
        <ele>4.8</ele>
        <time>2014-10-11T11:10:01Z</time>
      </trkpt>
      <trkpt lat="59.133167" lon="18.354335">
        <ele>4.9</ele>
        <time>2014-10-11T11:10:02Z</time>
      </trkpt>
      <trkpt lat="59.133204" lon="18.354482">
        <ele>5</ele>
        <time>2014-10-11T11:10:03Z</time>
      </trkpt>
      <trkpt lat="59.133236" lon="18.354628">
        <ele>5.2</ele>
        <time>2014-10-11T11:10:04Z</time>
      </trkpt>
      <trkpt lat="59.133268" lon="18.354773">
        <ele>5.4</ele>
        <time>2014-10-11T11:10:05Z</time>
      </trkpt>
      <trkpt lat="59.133302" lon="18.3549">
        <ele>5.6</ele>
        <time>2014-10-11T11:10:06Z</time>
      </trkpt>
      <trkpt lat="59.133341" lon="18.355038">
        <ele>5.8</ele>
        <time>2014-10-11T11:10:07Z</time>
      </trkpt>
      <trkpt lat="59.13338" lon="18.35519">
        <ele>6.1</ele>
        <time>2014-10-11T11:10:08Z</time>
      </trkpt>
      <trkpt lat="59.133416" lon="18.355339">
        <ele>6.3</ele>
        <time>2014-10-11T11:10:09Z</time>
      </trkpt>
      <trkpt lat="59.133456" lon="18.35547">
        <ele>6.6</ele>
        <time>2014-10-11T11:10:10Z</time>
      </trkpt>
      <trkpt lat="59.133493" lon="18.355605">
        <ele>6.8</ele>
        <time>2014-10-11T11:10:11Z</time>
      </trkpt>
      <trkpt lat="59.13353" lon="18.355728">
        <ele>7</ele>
        <time>2014-10-11T11:10:12Z</time>
      </trkpt>
      <trkpt lat="59.133562" lon="18.355882">
        <ele>7.2</ele>
        <time>2014-10-11T11:10:13Z</time>
      </trkpt>
      <trkpt lat="59.133598" lon="18.35603">
        <ele>7.4</ele>
        <time>2014-10-11T11:10:14Z</time>
      </trkpt>
      <trkpt lat="59.13364" lon="18.356167">
        <ele>7.6</ele>
        <time>2014-10-11T11:10:15Z</time>
      </trkpt>
      <trkpt lat="59.133672" lon="18.356297">
        <ele>7.7</ele>
        <time>2014-10-11T11:10:16Z</time>
      </trkpt>
      <trkpt lat="59.133701" lon="18.356423">
        <ele>7.8</ele>
        <time>2014-10-11T11:10:17Z</time>
      </trkpt>
      <trkpt lat="59.133737" lon="18.356545">
        <ele>8</ele>
        <time>2014-10-11T11:10:18Z</time>
      </trkpt>
      <trkpt lat="59.133764" lon="18.3567">
        <ele>8.1</ele>
        <time>2014-10-11T11:10:19Z</time>
      </trkpt>
      <trkpt lat="59.133786" lon="18.356848">
        <ele>8.1</ele>
        <time>2014-10-11T11:10:20Z</time>
      </trkpt>
      <trkpt lat="59.133816" lon="18.35698">
        <ele>8.2</ele>
        <time>2014-10-11T11:10:21Z</time>
      </trkpt>
      <trkpt lat="59.133844" lon="18.35711">
        <ele>8.2</ele>
        <time>2014-10-11T11:10:22Z</time>
      </trkpt>
      <trkpt lat="59.133873" lon="18.357249">
        <ele>8.3</ele>
        <time>2014-10-11T11:10:23Z</time>
      </trkpt>
      <trkpt lat="59.133901" lon="18.357393">
        <ele>8.4</ele>
        <time>2014-10-11T11:10:24Z</time>
      </trkpt>
      <trkpt lat="59.13394" lon="18.35753">
        <ele>8.5</ele>
        <time>2014-10-11T11:10:25Z</time>
      </trkpt>
      <trkpt lat="59.133976" lon="18.35766">
        <ele>8.5</ele>
        <time>2014-10-11T11:10:26Z</time>
      </trkpt>
      <trkpt lat="59.134015" lon="18.357786">
        <ele>8.6</ele>
        <time>2014-10-11T11:10:27Z</time>
      </trkpt>
      <trkpt lat="59.134053" lon="18.357939">
        <ele>8.7</ele>
        <time>2014-10-11T11:10:28Z</time>
      </trkpt>
      <trkpt lat="59.134088" lon="18.358075">
        <ele>8.8</ele>
        <time>2014-10-11T11:10:29Z</time>
      </trkpt>
      <trkpt lat="59.134125" lon="18.358212">
        <ele>8.9</ele>
        <time>2014-10-11T11:10:30Z</time>
      </trkpt>
      <trkpt lat="59.134151" lon="18.358362">
        <ele>9</ele>
        <time>2014-10-11T11:10:31Z</time>
      </trkpt>
      <trkpt lat="59.13419" lon="18.358508">
        <ele>9.1</ele>
        <time>2014-10-11T11:10:32Z</time>
      </trkpt>
      <trkpt lat="59.134221" lon="18.358626">
        <ele>9.1</ele>
        <time>2014-10-11T11:10:33Z</time>
      </trkpt>
      <trkpt lat="59.134254" lon="18.358752">
        <ele>9.2</ele>
        <time>2014-10-11T11:10:34Z</time>
      </trkpt>
      <trkpt lat="59.134293" lon="18.358882">
        <ele>9.3</ele>
        <time>2014-10-11T11:10:35Z</time>
      </trkpt>
      <trkpt lat="59.134322" lon="18.359022">
        <ele>9.4</ele>
        <time>2014-10-11T11:10:36Z</time>
      </trkpt>
      <trkpt lat="59.134345" lon="18.359165">
        <ele>9.4</ele>
        <time>2014-10-11T11:10:37Z</time>
      </trkpt>
      <trkpt lat="59.134378" lon="18.359306">
        <ele>9.5</ele>
        <time>2014-10-11T11:10:38Z</time>
      </trkpt>
      <trkpt lat="59.134414" lon="18.359445">
        <ele>9.6</ele>
        <time>2014-10-11T11:10:39Z</time>
      </trkpt>
      <trkpt lat="59.134449" lon="18.359583">
        <ele>9.7</ele>
        <time>2014-10-11T11:10:40Z</time>
      </trkpt>
      <trkpt lat="59.134473" lon="18.359703">
        <ele>9.9</ele>
        <time>2014-10-11T11:10:41Z</time>
      </trkpt>
      <trkpt lat="59.134497" lon="18.359823">
        <ele>10.1</ele>
        <time>2014-10-11T11:10:42Z</time>
      </trkpt>
      <trkpt lat="59.13453" lon="18.359962">
        <ele>10.3</ele>
        <time>2014-10-11T11:10:43Z</time>
      </trkpt>
      <trkpt lat="59.134558" lon="18.360078">
        <ele>10.5</ele>
        <time>2014-10-11T11:10:44Z</time>
      </trkpt>
      <trkpt lat="59.134592" lon="18.360234">
        <ele>10.8</ele>
        <time>2014-10-11T11:10:45Z</time>
      </trkpt>
      <trkpt lat="59.134622" lon="18.360377">
        <ele>11.1</ele>
        <time>2014-10-11T11:10:46Z</time>
      </trkpt>
      <trkpt lat="59.134651" lon="18.360522">
        <ele>11.2</ele>
        <time>2014-10-11T11:10:47Z</time>
      </trkpt>
      <trkpt lat="59.134676" lon="18.360667">
        <ele>11.1</ele>
        <time>2014-10-11T11:10:48Z</time>
      </trkpt>
      <trkpt lat="59.134711" lon="18.360828">
        <ele>11</ele>
        <time>2014-10-11T11:10:49Z</time>
      </trkpt>
      <trkpt lat="59.134733" lon="18.360959">
        <ele>11</ele>
        <time>2014-10-11T11:10:50Z</time>
      </trkpt>
      <trkpt lat="59.134755" lon="18.361101">
        <ele>10.8</ele>
        <time>2014-10-11T11:10:51Z</time>
      </trkpt>
      <trkpt lat="59.134777" lon="18.361252">
        <ele>10.7</ele>
        <time>2014-10-11T11:10:52Z</time>
      </trkpt>
      <trkpt lat="59.134803" lon="18.361389">
        <ele>10.5</ele>
        <time>2014-10-11T11:10:53Z</time>
      </trkpt>
      <trkpt lat="59.134819" lon="18.361526">
        <ele>10.2</ele>
        <time>2014-10-11T11:10:54Z</time>
      </trkpt>
      <trkpt lat="59.134845" lon="18.361679">
        <ele>9.9</ele>
        <time>2014-10-11T11:10:55Z</time>
      </trkpt>
      <trkpt lat="59.134861" lon="18.361811">
        <ele>9.7</ele>
        <time>2014-10-11T11:10:56Z</time>
      </trkpt>
      <trkpt lat="59.134893" lon="18.361956">
        <ele>9.4</ele>
        <time>2014-10-11T11:10:57Z</time>
      </trkpt>
      <trkpt lat="59.134922" lon="18.362101">
        <ele>9.2</ele>
        <time>2014-10-11T11:10:58Z</time>
      </trkpt>
      <trkpt lat="59.134942" lon="18.362248">
        <ele>9.3</ele>
        <time>2014-10-11T11:10:59Z</time>
      </trkpt>
      <trkpt lat="59.134962" lon="18.362408">
        <ele>9.4</ele>
        <time>2014-10-11T11:11:00Z</time>
      </trkpt>
      <trkpt lat="59.134986" lon="18.36255">
        <ele>9.4</ele>
        <time>2014-10-11T11:11:01Z</time>
      </trkpt>
      <trkpt lat="59.134994" lon="18.362676">
        <ele>9.5</ele>
        <time>2014-10-11T11:11:02Z</time>
      </trkpt>
      <trkpt lat="59.135009" lon="18.362819">
        <ele>9.5</ele>
        <time>2014-10-11T11:11:03Z</time>
      </trkpt>
      <trkpt lat="59.135033" lon="18.362953">
        <ele>9.6</ele>
        <time>2014-10-11T11:11:04Z</time>
      </trkpt>
      <trkpt lat="59.135057" lon="18.363098">
        <ele>9.5</ele>
        <time>2014-10-11T11:11:05Z</time>
      </trkpt>
      <trkpt lat="59.13508" lon="18.363253">
        <ele>9.4</ele>
        <time>2014-10-11T11:11:06Z</time>
      </trkpt>
      <trkpt lat="59.13511" lon="18.363395">
        <ele>9.3</ele>
        <time>2014-10-11T11:11:07Z</time>
      </trkpt>
      <trkpt lat="59.13513" lon="18.363544">
        <ele>9.2</ele>
        <time>2014-10-11T11:11:08Z</time>
      </trkpt>
      <trkpt lat="59.135149" lon="18.363679">
        <ele>9.1</ele>
        <time>2014-10-11T11:11:09Z</time>
      </trkpt>
      <trkpt lat="59.135169" lon="18.363817">
        <ele>9.2</ele>
        <time>2014-10-11T11:11:10Z</time>
      </trkpt>
      <trkpt lat="59.13519" lon="18.363951">
        <ele>9.4</ele>
        <time>2014-10-11T11:11:11Z</time>
      </trkpt>
      <trkpt lat="59.135215" lon="18.364093">
        <ele>9.7</ele>
        <time>2014-10-11T11:11:12Z</time>
      </trkpt>
      <trkpt lat="59.135243" lon="18.364225">
        <ele>9.9</ele>
        <time>2014-10-11T11:11:13Z</time>
      </trkpt>
      <trkpt lat="59.135262" lon="18.364359">
        <ele>10.2</ele>
        <time>2014-10-11T11:11:14Z</time>
      </trkpt>
      <trkpt lat="59.135286" lon="18.364499">
        <ele>10.4</ele>
        <time>2014-10-11T11:11:15Z</time>
      </trkpt>
      <trkpt lat="59.13531" lon="18.364647">
        <ele>10.7</ele>
        <time>2014-10-11T11:11:16Z</time>
      </trkpt>
      <trkpt lat="59.135333" lon="18.36481">
        <ele>11</ele>
        <time>2014-10-11T11:11:17Z</time>
      </trkpt>
      <trkpt lat="59.135357" lon="18.364959">
        <ele>11.2</ele>
        <time>2014-10-11T11:11:18Z</time>
      </trkpt>
      <trkpt lat="59.135376" lon="18.365093">
        <ele>11.5</ele>
        <time>2014-10-11T11:11:19Z</time>
      </trkpt>
      <trkpt lat="59.135397" lon="18.365227">
        <ele>11.7</ele>
        <time>2014-10-11T11:11:20Z</time>
      </trkpt>
      <trkpt lat="59.135413" lon="18.365352">
        <ele>11.9</ele>
        <time>2014-10-11T11:11:21Z</time>
      </trkpt>
      <trkpt lat="59.135435" lon="18.365486">
        <ele>12.1</ele>
        <time>2014-10-11T11:11:22Z</time>
      </trkpt>
      <trkpt lat="59.135454" lon="18.365623">
        <ele>12.3</ele>
        <time>2014-10-11T11:11:23Z</time>
      </trkpt>
      <trkpt lat="59.135461" lon="18.365744">
        <ele>12.3</ele>
        <time>2014-10-11T11:11:24Z</time>
      </trkpt>
      <trkpt lat="59.135465" lon="18.365858">
        <ele>12.3</ele>
        <time>2014-10-11T11:11:25Z</time>
      </trkpt>
      <trkpt lat="59.135483" lon="18.365978">
        <ele>12.4</ele>
        <time>2014-10-11T11:11:26Z</time>
      </trkpt>
      <trkpt lat="59.135497" lon="18.366097">
        <ele>12.5</ele>
        <time>2014-10-11T11:11:27Z</time>
      </trkpt>
      <trkpt lat="59.135509" lon="18.366222">
        <ele>12.6</ele>
        <time>2014-10-11T11:11:28Z</time>
      </trkpt>
      <trkpt lat="59.135547" lon="18.366343">
        <ele>12.7</ele>
        <time>2014-10-11T11:11:29Z</time>
      </trkpt>
      <trkpt lat="59.135581" lon="18.36648">
        <ele>12.7</ele>
        <time>2014-10-11T11:11:30Z</time>
      </trkpt>
      <trkpt lat="59.1356" lon="18.366626">
        <ele>12.6</ele>
        <time>2014-10-11T11:11:31Z</time>
      </trkpt>
      <trkpt lat="59.135616" lon="18.36677">
        <ele>12.6</ele>
        <time>2014-10-11T11:11:32Z</time>
      </trkpt>
      <trkpt lat="59.135645" lon="18.366897">
        <ele>12.6</ele>
        <time>2014-10-11T11:11:33Z</time>
      </trkpt>
      <trkpt lat="59.135655" lon="18.367047">
        <ele>12.5</ele>
        <time>2014-10-11T11:11:34Z</time>
      </trkpt>
      <trkpt lat="59.135681" lon="18.367176">
        <ele>12.6</ele>
        <time>2014-10-11T11:11:35Z</time>
      </trkpt>
      <trkpt lat="59.135692" lon="18.367328">
        <ele>12.7</ele>
        <time>2014-10-11T11:11:36Z</time>
      </trkpt>
      <trkpt lat="59.135718" lon="18.36747">
        <ele>12.8</ele>
        <time>2014-10-11T11:11:37Z</time>
      </trkpt>
      <trkpt lat="59.135745" lon="18.367611">
        <ele>13</ele>
        <time>2014-10-11T11:11:38Z</time>
      </trkpt>
      <trkpt lat="59.135759" lon="18.367749">
        <ele>13.1</ele>
        <time>2014-10-11T11:11:39Z</time>
      </trkpt>
      <trkpt lat="59.135779" lon="18.367893">
        <ele>13.2</ele>
        <time>2014-10-11T11:11:40Z</time>
      </trkpt>
      <trkpt lat="59.135801" lon="18.368029">
        <ele>13.3</ele>
        <time>2014-10-11T11:11:41Z</time>
      </trkpt>
      <trkpt lat="59.135818" lon="18.368185">
        <ele>13.4</ele>
        <time>2014-10-11T11:11:42Z</time>
      </trkpt>
      <trkpt lat="59.135838" lon="18.368321">
        <ele>13.5</ele>
        <time>2014-10-11T11:11:43Z</time>
      </trkpt>
      <trkpt lat="59.13586" lon="18.368463">
        <ele>13.7</ele>
        <time>2014-10-11T11:11:44Z</time>
      </trkpt>
      <trkpt lat="59.135874" lon="18.36862">
        <ele>13.7</ele>
        <time>2014-10-11T11:11:45Z</time>
      </trkpt>
      <trkpt lat="59.135899" lon="18.368727">
        <ele>13.9</ele>
        <time>2014-10-11T11:11:46Z</time>
      </trkpt>
      <trkpt lat="59.135923" lon="18.368849">
        <ele>14.2</ele>
        <time>2014-10-11T11:11:47Z</time>
      </trkpt>
      <trkpt lat="59.135939" lon="18.368986">
        <ele>14.6</ele>
        <time>2014-10-11T11:11:48Z</time>
      </trkpt>
      <trkpt lat="59.135958" lon="18.369115">
        <ele>15</ele>
        <time>2014-10-11T11:11:49Z</time>
      </trkpt>
      <trkpt lat="59.135983" lon="18.36923">
        <ele>15.4</ele>
        <time>2014-10-11T11:11:50Z</time>
      </trkpt>
      <trkpt lat="59.135983" lon="18.369356">
        <ele>15.6</ele>
        <time>2014-10-11T11:11:51Z</time>
      </trkpt>
      <trkpt lat="59.136004" lon="18.369486">
        <ele>16</ele>
        <time>2014-10-11T11:11:52Z</time>
      </trkpt>
      <trkpt lat="59.136023" lon="18.369636">
        <ele>16.5</ele>
        <time>2014-10-11T11:11:53Z</time>
      </trkpt>
      <trkpt lat="59.136044" lon="18.36976">
        <ele>16.9</ele>
        <time>2014-10-11T11:11:54Z</time>
      </trkpt>
      <trkpt lat="59.136071" lon="18.369874">
        <ele>17.3</ele>
        <time>2014-10-11T11:11:55Z</time>
      </trkpt>
      <trkpt lat="59.136106" lon="18.369991">
        <ele>17.9</ele>
        <time>2014-10-11T11:11:56Z</time>
      </trkpt>
      <trkpt lat="59.136137" lon="18.370114">
        <ele>18.4</ele>
        <time>2014-10-11T11:11:57Z</time>
      </trkpt>
      <trkpt lat="59.13617" lon="18.370243">
        <ele>18.9</ele>
        <time>2014-10-11T11:11:58Z</time>
      </trkpt>
      <trkpt lat="59.136205" lon="18.370347">
        <ele>19.5</ele>
        <time>2014-10-11T11:11:59Z</time>
      </trkpt>
      <trkpt lat="59.136237" lon="18.370475">
        <ele>19.9</ele>
        <time>2014-10-11T11:12:00Z</time>
      </trkpt>
      <trkpt lat="59.136276" lon="18.370619">
        <ele>20</ele>
        <time>2014-10-11T11:12:01Z</time>
      </trkpt>
      <trkpt lat="59.136311" lon="18.370741">
        <ele>20</ele>
        <time>2014-10-11T11:12:02Z</time>
      </trkpt>
      <trkpt lat="59.136355" lon="18.370874">
        <ele>19.9</ele>
        <time>2014-10-11T11:12:03Z</time>
      </trkpt>
      <trkpt lat="59.136396" lon="18.370989">
        <ele>19.7</ele>
        <time>2014-10-11T11:12:04Z</time>
      </trkpt>
      <trkpt lat="59.136446" lon="18.371116">
        <ele>19.5</ele>
        <time>2014-10-11T11:12:05Z</time>
      </trkpt>
      <trkpt lat="59.136501" lon="18.37126">
        <ele>19.1</ele>
        <time>2014-10-11T11:12:06Z</time>
      </trkpt>
      <trkpt lat="59.136549" lon="18.371384">
        <ele>18.5</ele>
        <time>2014-10-11T11:12:07Z</time>
      </trkpt>
      <trkpt lat="59.136599" lon="18.371512">
        <ele>17.9</ele>
        <time>2014-10-11T11:12:08Z</time>
      </trkpt>
      <trkpt lat="59.13665" lon="18.371647">
        <ele>17.2</ele>
        <time>2014-10-11T11:12:09Z</time>
      </trkpt>
      <trkpt lat="59.136699" lon="18.37176">
        <ele>16.5</ele>
        <time>2014-10-11T11:12:10Z</time>
      </trkpt>
      <trkpt lat="59.136754" lon="18.371889">
        <ele>15.6</ele>
        <time>2014-10-11T11:12:11Z</time>
      </trkpt>
      <trkpt lat="59.13681" lon="18.372008">
        <ele>14.6</ele>
        <time>2014-10-11T11:12:12Z</time>
      </trkpt>
      <trkpt lat="59.136862" lon="18.37213">
        <ele>13.8</ele>
        <time>2014-10-11T11:12:13Z</time>
      </trkpt>
      <trkpt lat="59.136921" lon="18.372273">
        <ele>13</ele>
        <time>2014-10-11T11:12:14Z</time>
      </trkpt>
      <trkpt lat="59.136977" lon="18.372398">
        <ele>12.4</ele>
        <time>2014-10-11T11:12:15Z</time>
      </trkpt>
      <trkpt lat="59.137033" lon="18.372532">
        <ele>11.8</ele>
        <time>2014-10-11T11:12:16Z</time>
      </trkpt>
      <trkpt lat="59.137088" lon="18.372675">
        <ele>11.3</ele>
        <time>2014-10-11T11:12:17Z</time>
      </trkpt>
      <trkpt lat="59.137146" lon="18.372819">
        <ele>10.9</ele>
        <time>2014-10-11T11:12:18Z</time>
      </trkpt>
      <trkpt lat="59.137203" lon="18.372941">
        <ele>10.5</ele>
        <time>2014-10-11T11:12:19Z</time>
      </trkpt>
      <trkpt lat="59.137261" lon="18.373079">
        <ele>10.1</ele>
        <time>2014-10-11T11:12:20Z</time>
      </trkpt>
      <trkpt lat="59.137319" lon="18.3732">
        <ele>9.8</ele>
        <time>2014-10-11T11:12:21Z</time>
      </trkpt>
      <trkpt lat="59.137376" lon="18.37334">
        <ele>9.5</ele>
        <time>2014-10-11T11:12:22Z</time>
      </trkpt>
      <trkpt lat="59.137423" lon="18.373474">
        <ele>9.3</ele>
        <time>2014-10-11T11:12:23Z</time>
      </trkpt>
      <trkpt lat="59.137479" lon="18.373624">
        <ele>9.1</ele>
        <time>2014-10-11T11:12:24Z</time>
      </trkpt>
      <trkpt lat="59.13753" lon="18.373766">
        <ele>9</ele>
        <time>2014-10-11T11:12:25Z</time>
      </trkpt>
      <trkpt lat="59.13758" lon="18.373925">
        <ele>9.3</ele>
        <time>2014-10-11T11:12:26Z</time>
      </trkpt>
      <trkpt lat="59.137632" lon="18.37407">
        <ele>9.6</ele>
        <time>2014-10-11T11:12:27Z</time>
      </trkpt>
      <trkpt lat="59.137683" lon="18.374229">
        <ele>10</ele>
        <time>2014-10-11T11:12:28Z</time>
      </trkpt>
      <trkpt lat="59.137723" lon="18.374378">
        <ele>10.3</ele>
        <time>2014-10-11T11:12:29Z</time>
      </trkpt>
      <trkpt lat="59.137764" lon="18.374527">
        <ele>10.7</ele>
        <time>2014-10-11T11:12:30Z</time>
      </trkpt>
      <trkpt lat="59.137811" lon="18.374678">
        <ele>11.2</ele>
        <time>2014-10-11T11:12:31Z</time>
      </trkpt>
      <trkpt lat="59.137851" lon="18.374817">
        <ele>11.7</ele>
        <time>2014-10-11T11:12:32Z</time>
      </trkpt>
      <trkpt lat="59.13789" lon="18.374968">
        <ele>12.3</ele>
        <time>2014-10-11T11:12:33Z</time>
      </trkpt>
      <trkpt lat="59.137925" lon="18.37511">
        <ele>12.9</ele>
        <time>2014-10-11T11:12:34Z</time>
      </trkpt>
      <trkpt lat="59.137962" lon="18.375253">
        <ele>13.3</ele>
        <time>2014-10-11T11:12:35Z</time>
      </trkpt>
      <trkpt lat="59.137996" lon="18.375394">
        <ele>13.6</ele>
        <time>2014-10-11T11:12:36Z</time>
      </trkpt>
      <trkpt lat="59.138022" lon="18.375533">
        <ele>14.1</ele>
        <time>2014-10-11T11:12:37Z</time>
      </trkpt>
      <trkpt lat="59.138047" lon="18.37566">
        <ele>14.6</ele>
        <time>2014-10-11T11:12:38Z</time>
      </trkpt>
      <trkpt lat="59.138072" lon="18.375796">
        <ele>15.1</ele>
        <time>2014-10-11T11:12:39Z</time>
      </trkpt>
      <trkpt lat="59.138096" lon="18.37593">
        <ele>15.6</ele>
        <time>2014-10-11T11:12:40Z</time>
      </trkpt>
      <trkpt lat="59.138114" lon="18.376073">
        <ele>16.1</ele>
        <time>2014-10-11T11:12:41Z</time>
      </trkpt>
      <trkpt lat="59.138132" lon="18.376193">
        <ele>16.5</ele>
        <time>2014-10-11T11:12:42Z</time>
      </trkpt>
      <trkpt lat="59.138145" lon="18.37632">
        <ele>16.9</ele>
        <time>2014-10-11T11:12:43Z</time>
      </trkpt>
      <trkpt lat="59.138167" lon="18.376447">
        <ele>17.4</ele>
        <time>2014-10-11T11:12:44Z</time>
      </trkpt>
      <trkpt lat="59.138177" lon="18.376576">
        <ele>17.9</ele>
        <time>2014-10-11T11:12:45Z</time>
      </trkpt>
      <trkpt lat="59.138194" lon="18.376688">
        <ele>18.3</ele>
        <time>2014-10-11T11:12:46Z</time>
      </trkpt>
      <trkpt lat="59.138201" lon="18.376792">
        <ele>18.7</ele>
        <time>2014-10-11T11:12:47Z</time>
      </trkpt>
      <trkpt lat="59.138212" lon="18.376903">
        <ele>19.1</ele>
        <time>2014-10-11T11:12:48Z</time>
      </trkpt>
      <trkpt lat="59.138221" lon="18.37703">
        <ele>19.6</ele>
        <time>2014-10-11T11:12:49Z</time>
      </trkpt>
      <trkpt lat="59.138232" lon="18.377152">
        <ele>19.8</ele>
        <time>2014-10-11T11:12:50Z</time>
      </trkpt>
      <trkpt lat="59.138248" lon="18.377264">
        <ele>19.9</ele>
        <time>2014-10-11T11:12:51Z</time>
      </trkpt>
      <trkpt lat="59.138259" lon="18.377377">
        <ele>20</ele>
        <time>2014-10-11T11:12:52Z</time>
      </trkpt>
      <trkpt lat="59.138268" lon="18.377472">
        <ele>20.1</ele>
        <time>2014-10-11T11:12:53Z</time>
      </trkpt>
      <trkpt lat="59.138274" lon="18.37758">
        <ele>20.2</ele>
        <time>2014-10-11T11:12:54Z</time>
      </trkpt>
      <trkpt lat="59.138287" lon="18.377676">
        <ele>20.3</ele>
        <time>2014-10-11T11:12:55Z</time>
      </trkpt>
      <trkpt lat="59.138295" lon="18.377781">
        <ele>20.4</ele>
        <time>2014-10-11T11:12:56Z</time>
      </trkpt>
      <trkpt lat="59.138304" lon="18.377883">
        <ele>20.5</ele>
        <time>2014-10-11T11:12:57Z</time>
      </trkpt>
      <trkpt lat="59.138307" lon="18.377973">
        <ele>20.7</ele>
        <time>2014-10-11T11:12:58Z</time>
      </trkpt>
      <trkpt lat="59.138326" lon="18.378069">
        <ele>20.8</ele>
        <time>2014-10-11T11:12:59Z</time>
      </trkpt>
      <trkpt lat="59.138334" lon="18.378165">
        <ele>20.9</ele>
        <time>2014-10-11T11:13:00Z</time>
      </trkpt>
      <trkpt lat="59.138331" lon="18.378273">
        <ele>21.1</ele>
        <time>2014-10-11T11:13:01Z</time>
      </trkpt>
      <trkpt lat="59.138328" lon="18.378347">
        <ele>21.3</ele>
        <time>2014-10-11T11:13:02Z</time>
      </trkpt>
      <trkpt lat="59.138335" lon="18.378449">
        <ele>21.5</ele>
        <time>2014-10-11T11:13:03Z</time>
      </trkpt>
      <trkpt lat="59.138362" lon="18.378586">
        <ele>21.7</ele>
        <time>2014-10-11T11:13:04Z</time>
      </trkpt>
      <trkpt lat="59.138368" lon="18.378687">
        <ele>21.9</ele>
        <time>2014-10-11T11:13:05Z</time>
      </trkpt>
      <trkpt lat="59.13836" lon="18.378769">
        <ele>22</ele>
        <time>2014-10-11T11:13:06Z</time>
      </trkpt>
      <trkpt lat="59.138358" lon="18.378857">
        <ele>22.2</ele>
        <time>2014-10-11T11:13:07Z</time>
      </trkpt>
      <trkpt lat="59.138376" lon="18.378988">
        <ele>22.4</ele>
        <time>2014-10-11T11:13:08Z</time>
      </trkpt>
      <trkpt lat="59.138386" lon="18.379095">
        <ele>22.6</ele>
        <time>2014-10-11T11:13:09Z</time>
      </trkpt>
      <trkpt lat="59.138381" lon="18.379185">
        <ele>22.8</ele>
        <time>2014-10-11T11:13:10Z</time>
      </trkpt>
      <trkpt lat="59.13839" lon="18.379277">
        <ele>23</ele>
        <time>2014-10-11T11:13:11Z</time>
      </trkpt>
      <trkpt lat="59.13839" lon="18.379371">
        <ele>23.2</ele>
        <time>2014-10-11T11:13:12Z</time>
      </trkpt>
      <trkpt lat="59.138399" lon="18.379474">
        <ele>23.4</ele>
        <time>2014-10-11T11:13:13Z</time>
      </trkpt>
      <trkpt lat="59.138398" lon="18.379563">
        <ele>23.5</ele>
        <time>2014-10-11T11:13:14Z</time>
      </trkpt>
      <trkpt lat="59.138408" lon="18.379671">
        <ele>23.8</ele>
        <time>2014-10-11T11:13:15Z</time>
      </trkpt>
      <trkpt lat="59.138405" lon="18.379778">
        <ele>24.1</ele>
        <time>2014-10-11T11:13:16Z</time>
      </trkpt>
      <trkpt lat="59.138407" lon="18.379876">
        <ele>24.4</ele>
        <time>2014-10-11T11:13:17Z</time>
      </trkpt>
      <trkpt lat="59.138404" lon="18.379989">
        <ele>24.6</ele>
        <time>2014-10-11T11:13:18Z</time>
      </trkpt>
      <trkpt lat="59.138406" lon="18.380088">
        <ele>24.9</ele>
        <time>2014-10-11T11:13:19Z</time>
      </trkpt>
      <trkpt lat="59.138422" lon="18.38022">
        <ele>25.3</ele>
        <time>2014-10-11T11:13:20Z</time>
      </trkpt>
      <trkpt lat="59.138426" lon="18.380338">
        <ele>25.6</ele>
        <time>2014-10-11T11:13:21Z</time>
      </trkpt>
      <trkpt lat="59.138435" lon="18.38044">
        <ele>25.9</ele>
        <time>2014-10-11T11:13:22Z</time>
      </trkpt>
      <trkpt lat="59.138447" lon="18.380544">
        <ele>26.1</ele>
        <time>2014-10-11T11:13:23Z</time>
      </trkpt>
      <trkpt lat="59.138462" lon="18.380656">
        <ele>26.3</ele>
        <time>2014-10-11T11:13:24Z</time>
      </trkpt>
      <trkpt lat="59.138466" lon="18.380762">
        <ele>26.5</ele>
        <time>2014-10-11T11:13:25Z</time>
      </trkpt>
      <trkpt lat="59.138465" lon="18.380873">
        <ele>26.7</ele>
        <time>2014-10-11T11:13:26Z</time>
      </trkpt>
      <trkpt lat="59.138487" lon="18.380982">
        <ele>27</ele>
        <time>2014-10-11T11:13:27Z</time>
      </trkpt>
      <trkpt lat="59.138499" lon="18.381096">
        <ele>27.2</ele>
        <time>2014-10-11T11:13:28Z</time>
      </trkpt>
      <trkpt lat="59.138501" lon="18.381197">
        <ele>27.4</ele>
        <time>2014-10-11T11:13:29Z</time>
      </trkpt>
      <trkpt lat="59.138543" lon="18.381302">
        <ele>27.9</ele>
        <time>2014-10-11T11:13:30Z</time>
      </trkpt>
      <trkpt lat="59.138572" lon="18.38144">
        <ele>28.5</ele>
        <time>2014-10-11T11:13:31Z</time>
      </trkpt>
      <trkpt lat="59.13857" lon="18.381561">
        <ele>28.8</ele>
        <time>2014-10-11T11:13:32Z</time>
      </trkpt>
      <trkpt lat="59.138581" lon="18.381671">
        <ele>29.2</ele>
        <time>2014-10-11T11:13:33Z</time>
      </trkpt>
      <trkpt lat="59.138608" lon="18.381774">
        <ele>29.7</ele>
        <time>2014-10-11T11:13:34Z</time>
      </trkpt>
      <trkpt lat="59.13865" lon="18.38188">
        <ele>30.4</ele>
        <time>2014-10-11T11:13:35Z</time>
      </trkpt>
      <trkpt lat="59.138679" lon="18.382019">
        <ele>31.1</ele>
        <time>2014-10-11T11:13:36Z</time>
      </trkpt>
      <trkpt lat="59.138705" lon="18.382156">
        <ele>31.5</ele>
        <time>2014-10-11T11:13:37Z</time>
      </trkpt>
      <trkpt lat="59.138738" lon="18.382297">
        <ele>31.6</ele>
        <time>2014-10-11T11:13:38Z</time>
      </trkpt>
      <trkpt lat="59.138763" lon="18.382427">
        <ele>31.6</ele>
        <time>2014-10-11T11:13:39Z</time>
      </trkpt>
      <trkpt lat="59.138799" lon="18.382587">
        <ele>31.3</ele>
        <time>2014-10-11T11:13:40Z</time>
      </trkpt>
      <trkpt lat="59.138838" lon="18.382729">
        <ele>31.1</ele>
        <time>2014-10-11T11:13:41Z</time>
      </trkpt>
      <trkpt lat="59.138888" lon="18.382907">
        <ele>30.8</ele>
        <time>2014-10-11T11:13:42Z</time>
      </trkpt>
      <trkpt lat="59.138918" lon="18.383054">
        <ele>30.6</ele>
        <time>2014-10-11T11:13:43Z</time>
      </trkpt>
      <trkpt lat="59.138969" lon="18.383203">
        <ele>30.3</ele>
        <time>2014-10-11T11:13:44Z</time>
      </trkpt>
      <trkpt lat="59.139" lon="18.383372">
        <ele>30.1</ele>
        <time>2014-10-11T11:13:45Z</time>
      </trkpt>
      <trkpt lat="59.139041" lon="18.383511">
        <ele>30</ele>
        <time>2014-10-11T11:13:46Z</time>
      </trkpt>
      <trkpt lat="59.139087" lon="18.383687">
        <ele>29.9</ele>
        <time>2014-10-11T11:13:47Z</time>
      </trkpt>
      <trkpt lat="59.139122" lon="18.383815">
        <ele>29.6</ele>
        <time>2014-10-11T11:13:48Z</time>
      </trkpt>
      <trkpt lat="59.13916" lon="18.383976">
        <ele>29.2</ele>
        <time>2014-10-11T11:13:49Z</time>
      </trkpt>
      <trkpt lat="59.139193" lon="18.384157">
        <ele>28.7</ele>
        <time>2014-10-11T11:13:50Z</time>
      </trkpt>
      <trkpt lat="59.139228" lon="18.384311">
        <ele>28.3</ele>
        <time>2014-10-11T11:13:51Z</time>
      </trkpt>
      <trkpt lat="59.139269" lon="18.384465">
        <ele>28.1</ele>
        <time>2014-10-11T11:13:52Z</time>
      </trkpt>
      <trkpt lat="59.139306" lon="18.384642">
        <ele>27.8</ele>
        <time>2014-10-11T11:13:53Z</time>
      </trkpt>
      <trkpt lat="59.139342" lon="18.38476">
        <ele>27.7</ele>
        <time>2014-10-11T11:13:54Z</time>
      </trkpt>
      <trkpt lat="59.139386" lon="18.38491">
        <ele>27.5</ele>
        <time>2014-10-11T11:13:55Z</time>
      </trkpt>
      <trkpt lat="59.139411" lon="18.385063">
        <ele>27.3</ele>
        <time>2014-10-11T11:13:56Z</time>
      </trkpt>
      <trkpt lat="59.139442" lon="18.38522">
        <ele>27.1</ele>
        <time>2014-10-11T11:13:57Z</time>
      </trkpt>
      <trkpt lat="59.139502" lon="18.385409">
        <ele>27.1</ele>
        <time>2014-10-11T11:13:58Z</time>
      </trkpt>
      <trkpt lat="59.139526" lon="18.385556">
        <ele>27</ele>
        <time>2014-10-11T11:13:59Z</time>
      </trkpt>
      <trkpt lat="59.139549" lon="18.385721">
        <ele>26.9</ele>
        <time>2014-10-11T11:14:00Z</time>
      </trkpt>
      <trkpt lat="59.139578" lon="18.385879">
        <ele>26.8</ele>
        <time>2014-10-11T11:14:01Z</time>
      </trkpt>
      <trkpt lat="59.13962" lon="18.386034">
        <ele>26.6</ele>
        <time>2014-10-11T11:14:02Z</time>
      </trkpt>
      <trkpt lat="59.139656" lon="18.386236">
        <ele>26.2</ele>
        <time>2014-10-11T11:14:03Z</time>
      </trkpt>
      <trkpt lat="59.139688" lon="18.386423">
        <ele>25.8</ele>
        <time>2014-10-11T11:14:04Z</time>
      </trkpt>
      <trkpt lat="59.139709" lon="18.386573">
        <ele>25.5</ele>
        <time>2014-10-11T11:14:05Z</time>
      </trkpt>
      <trkpt lat="59.139738" lon="18.386742">
        <ele>25.1</ele>
        <time>2014-10-11T11:14:06Z</time>
      </trkpt>
      <trkpt lat="59.139751" lon="18.386899">
        <ele>24.7</ele>
        <time>2014-10-11T11:14:07Z</time>
      </trkpt>
      <trkpt lat="59.139779" lon="18.387072">
        <ele>24.3</ele>
        <time>2014-10-11T11:14:08Z</time>
      </trkpt>
      <trkpt lat="59.139808" lon="18.387257">
        <ele>23.5</ele>
        <time>2014-10-11T11:14:09Z</time>
      </trkpt>
      <trkpt lat="59.139833" lon="18.38741">
        <ele>22.8</ele>
        <time>2014-10-11T11:14:10Z</time>
      </trkpt>
      <trkpt lat="59.139856" lon="18.387587">
        <ele>22.1</ele>
        <time>2014-10-11T11:14:11Z</time>
      </trkpt>
      <trkpt lat="59.139875" lon="18.387733">
        <ele>21.5</ele>
        <time>2014-10-11T11:14:12Z</time>
      </trkpt>
      <trkpt lat="59.139897" lon="18.3879">
        <ele>20.8</ele>
        <time>2014-10-11T11:14:13Z</time>
      </trkpt>
      <trkpt lat="59.139922" lon="18.388081">
        <ele>20</ele>
        <time>2014-10-11T11:14:14Z</time>
      </trkpt>
      <trkpt lat="59.13994" lon="18.388232">
        <ele>19.3</ele>
        <time>2014-10-11T11:14:15Z</time>
      </trkpt>
      <trkpt lat="59.139962" lon="18.388388">
        <ele>18.6</ele>
        <time>2014-10-11T11:14:16Z</time>
      </trkpt>
      <trkpt lat="59.13999" lon="18.388562">
        <ele>17.9</ele>
        <time>2014-10-11T11:14:17Z</time>
      </trkpt>
      <trkpt lat="59.140013" lon="18.388718">
        <ele>17.2</ele>
        <time>2014-10-11T11:14:18Z</time>
      </trkpt>
      <trkpt lat="59.140037" lon="18.388889">
        <ele>17</ele>
        <time>2014-10-11T11:14:19Z</time>
      </trkpt>
      <trkpt lat="59.140061" lon="18.389057">
        <ele>17</ele>
        <time>2014-10-11T11:14:20Z</time>
      </trkpt>
      <trkpt lat="59.140068" lon="18.389196">
        <ele>16.9</ele>
        <time>2014-10-11T11:14:21Z</time>
      </trkpt>
      <trkpt lat="59.140093" lon="18.389363">
        <ele>16.9</ele>
        <time>2014-10-11T11:14:22Z</time>
      </trkpt>
      <trkpt lat="59.140105" lon="18.389494">
        <ele>16.9</ele>
        <time>2014-10-11T11:14:23Z</time>
      </trkpt>
      <trkpt lat="59.140138" lon="18.389678">
        <ele>16.8</ele>
        <time>2014-10-11T11:14:24Z</time>
      </trkpt>
      <trkpt lat="59.140166" lon="18.389859">
        <ele>16.7</ele>
        <time>2014-10-11T11:14:25Z</time>
      </trkpt>
      <trkpt lat="59.140186" lon="18.39002">
        <ele>16.5</ele>
        <time>2014-10-11T11:14:26Z</time>
      </trkpt>
      <trkpt lat="59.140215" lon="18.390203">
        <ele>16.4</ele>
        <time>2014-10-11T11:14:27Z</time>
      </trkpt>
      <trkpt lat="59.140241" lon="18.390359">
        <ele>16.2</ele>
        <time>2014-10-11T11:14:28Z</time>
      </trkpt>
      <trkpt lat="59.140272" lon="18.390532">
        <ele>15.9</ele>
        <time>2014-10-11T11:14:29Z</time>
      </trkpt>
      <trkpt lat="59.140299" lon="18.390705">
        <ele>15.5</ele>
        <time>2014-10-11T11:14:30Z</time>
      </trkpt>
      <trkpt lat="59.14033" lon="18.390853">
        <ele>15.3</ele>
        <time>2014-10-11T11:14:31Z</time>
      </trkpt>
      <trkpt lat="59.140345" lon="18.391013">
        <ele>15</ele>
        <time>2014-10-11T11:14:32Z</time>
      </trkpt>
      <trkpt lat="59.140371" lon="18.391189">
        <ele>14.7</ele>
        <time>2014-10-11T11:14:33Z</time>
      </trkpt>
      <trkpt lat="59.140395" lon="18.391354">
        <ele>6.4</ele>
        <time>2014-10-11T11:14:34Z</time>
      </trkpt>
      <trkpt lat="59.14042" lon="18.391531">
        <ele>14.3</ele>
        <time>2014-10-11T11:14:35Z</time>
      </trkpt>
      <trkpt lat="59.14045" lon="18.391676">
        <ele>14</ele>
        <time>2014-10-11T11:14:36Z</time>
      </trkpt>
      <trkpt lat="59.140467" lon="18.391834">
        <ele>13.7</ele>
        <time>2014-10-11T11:14:37Z</time>
      </trkpt>
      <trkpt lat="59.14049" lon="18.392014">
        <ele>13.3</ele>
        <time>2014-10-11T11:14:38Z</time>
      </trkpt>
      <trkpt lat="59.140518" lon="18.392176">
        <ele>13.2</ele>
        <time>2014-10-11T11:14:39Z</time>
      </trkpt>
      <trkpt lat="59.140544" lon="18.392329">
        <ele>13.3</ele>
        <time>2014-10-11T11:14:40Z</time>
      </trkpt>
      <trkpt lat="59.140573" lon="18.392492">
        <ele>13.4</ele>
        <time>2014-10-11T11:14:41Z</time>
      </trkpt>
      <trkpt lat="59.140588" lon="18.392634">
        <ele>13.4</ele>
        <time>2014-10-11T11:14:42Z</time>
      </trkpt>
      <trkpt lat="59.140614" lon="18.392814">
        <ele>13.5</ele>
        <time>2014-10-11T11:14:43Z</time>
      </trkpt>
      <trkpt lat="59.140634" lon="18.39294">
        <ele>13.5</ele>
        <time>2014-10-11T11:14:44Z</time>
      </trkpt>
      <trkpt lat="59.140661" lon="18.393092">
        <ele>13.5</ele>
        <time>2014-10-11T11:14:45Z</time>
      </trkpt>
      <trkpt lat="59.140697" lon="18.393287">
        <ele>13.5</ele>
        <time>2014-10-11T11:14:46Z</time>
      </trkpt>
      <trkpt lat="59.140732" lon="18.393476">
        <ele>13.6</ele>
        <time>2014-10-11T11:14:47Z</time>
      </trkpt>
      <trkpt lat="59.140755" lon="18.393638">
        <ele>13.6</ele>
        <time>2014-10-11T11:14:48Z</time>
      </trkpt>
      <trkpt lat="59.140788" lon="18.393831">
        <ele>13.8</ele>
        <time>2014-10-11T11:14:49Z</time>
      </trkpt>
      <trkpt lat="59.140808" lon="18.393998">
        <ele>13.9</ele>
        <time>2014-10-11T11:14:50Z</time>
      </trkpt>
      <trkpt lat="59.140834" lon="18.394191">
        <ele>14</ele>
        <time>2014-10-11T11:14:51Z</time>
      </trkpt>
      <trkpt lat="59.140862" lon="18.394369">
        <ele>14.1</ele>
        <time>2014-10-11T11:14:52Z</time>
      </trkpt>
      <trkpt lat="59.140879" lon="18.394516">
        <ele>14.2</ele>
        <time>2014-10-11T11:14:53Z</time>
      </trkpt>
      <trkpt lat="59.140905" lon="18.394693">
        <ele>14.3</ele>
        <time>2014-10-11T11:14:54Z</time>
      </trkpt>
      <trkpt lat="59.140929" lon="18.394828">
        <ele>14.5</ele>
        <time>2014-10-11T11:14:55Z</time>
      </trkpt>
      <trkpt lat="59.140936" lon="18.394985">
        <ele>14.5</ele>
        <time>2014-10-11T11:14:56Z</time>
      </trkpt>
      <trkpt lat="59.140951" lon="18.395131">
        <ele>14.6</ele>
        <time>2014-10-11T11:14:57Z</time>
      </trkpt>
      <trkpt lat="59.140955" lon="18.395293">
        <ele>14.6</ele>
        <time>2014-10-11T11:14:58Z</time>
      </trkpt>
      <trkpt lat="59.140991" lon="18.395481">
        <ele>14.7</ele>
        <time>2014-10-11T11:14:59Z</time>
      </trkpt>
      <trkpt lat="59.140986" lon="18.395652">
        <ele>14.5</ele>
        <time>2014-10-11T11:15:00Z</time>
      </trkpt>
      <trkpt lat="59.140999" lon="18.395819">
        <ele>14.5</ele>
        <time>2014-10-11T11:15:01Z</time>
      </trkpt>
      <trkpt lat="59.141068" lon="18.395985">
        <ele>14.6</ele>
        <time>2014-10-11T11:15:02Z</time>
      </trkpt>
      <trkpt lat="59.141101" lon="18.396166">
        <ele>14.5</ele>
        <time>2014-10-11T11:15:03Z</time>
      </trkpt>
      <trkpt lat="59.141134" lon="18.396329">
        <ele>14.5</ele>
        <time>2014-10-11T11:15:04Z</time>
      </trkpt>
      <trkpt lat="59.141167" lon="18.396494">
        <ele>14.4</ele>
        <time>2014-10-11T11:15:05Z</time>
      </trkpt>
      <trkpt lat="59.141196" lon="18.396639">
        <ele>14.4</ele>
        <time>2014-10-11T11:15:06Z</time>
      </trkpt>
      <trkpt lat="59.141211" lon="18.396794">
        <ele>14.2</ele>
        <time>2014-10-11T11:15:07Z</time>
      </trkpt>
      <trkpt lat="59.141225" lon="18.396934">
        <ele>14.1</ele>
        <time>2014-10-11T11:15:08Z</time>
      </trkpt>
      <trkpt lat="59.141237" lon="18.397076">
        <ele>14</ele>
        <time>2014-10-11T11:15:09Z</time>
      </trkpt>
      <trkpt lat="59.141255" lon="18.397229">
        <ele>14</ele>
        <time>2014-10-11T11:15:10Z</time>
      </trkpt>
      <trkpt lat="59.141274" lon="18.397359">
        <ele>14</ele>
        <time>2014-10-11T11:15:11Z</time>
      </trkpt>
      <trkpt lat="59.141296" lon="18.397495">
        <ele>14.1</ele>
        <time>2014-10-11T11:15:12Z</time>
      </trkpt>
      <trkpt lat="59.14132" lon="18.397641">
        <ele>14.1</ele>
        <time>2014-10-11T11:15:13Z</time>
      </trkpt>
      <trkpt lat="59.141342" lon="18.397789">
        <ele>14.1</ele>
        <time>2014-10-11T11:15:14Z</time>
      </trkpt>
      <trkpt lat="59.141362" lon="18.397914">
        <ele>14.1</ele>
        <time>2014-10-11T11:15:15Z</time>
      </trkpt>
      <trkpt lat="59.141376" lon="18.398064">
        <ele>14</ele>
        <time>2014-10-11T11:15:16Z</time>
      </trkpt>
      <trkpt lat="59.141416" lon="18.398183">
        <ele>13.9</ele>
        <time>2014-10-11T11:15:17Z</time>
      </trkpt>
      <trkpt lat="59.14144" lon="18.398344">
        <ele>13.7</ele>
        <time>2014-10-11T11:15:18Z</time>
      </trkpt>
      <trkpt lat="59.141468" lon="18.398474">
        <ele>13.6</ele>
        <time>2014-10-11T11:15:19Z</time>
      </trkpt>
      <trkpt lat="59.141496" lon="18.398644">
        <ele>13.4</ele>
        <time>2014-10-11T11:15:20Z</time>
      </trkpt>
      <trkpt lat="59.141514" lon="18.39876">
        <ele>13.3</ele>
        <time>2014-10-11T11:15:21Z</time>
      </trkpt>
      <trkpt lat="59.14153" lon="18.398902">
        <ele>13.2</ele>
        <time>2014-10-11T11:15:22Z</time>
      </trkpt>
      <trkpt lat="59.141561" lon="18.399032">
        <ele>13.2</ele>
        <time>2014-10-11T11:15:23Z</time>
      </trkpt>
      <trkpt lat="59.14157" lon="18.399208">
        <ele>13</ele>
        <time>2014-10-11T11:15:24Z</time>
      </trkpt>
      <trkpt lat="59.141607" lon="18.399334">
        <ele>13</ele>
        <time>2014-10-11T11:15:25Z</time>
      </trkpt>
      <trkpt lat="59.141654" lon="18.399482">
        <ele>13</ele>
        <time>2014-10-11T11:15:26Z</time>
      </trkpt>
      <trkpt lat="59.141692" lon="18.399599">
        <ele>13</ele>
        <time>2014-10-11T11:15:27Z</time>
      </trkpt>
      <trkpt lat="59.141731" lon="18.399748">
        <ele>13</ele>
        <time>2014-10-11T11:15:28Z</time>
      </trkpt>
      <trkpt lat="59.141764" lon="18.399857">
        <ele>12.9</ele>
        <time>2014-10-11T11:15:29Z</time>
      </trkpt>
      <trkpt lat="59.141808" lon="18.399998">
        <ele>12.8</ele>
        <time>2014-10-11T11:15:30Z</time>
      </trkpt>
      <trkpt lat="59.141842" lon="18.400161">
        <ele>12.7</ele>
        <time>2014-10-11T11:15:31Z</time>
      </trkpt>
      <trkpt lat="59.141891" lon="18.400291">
        <ele>12.7</ele>
        <time>2014-10-11T11:15:32Z</time>
      </trkpt>
      <trkpt lat="59.141924" lon="18.400423">
        <ele>12.6</ele>
        <time>2014-10-11T11:15:33Z</time>
      </trkpt>
      <trkpt lat="59.141986" lon="18.40058">
        <ele>12.4</ele>
        <time>2014-10-11T11:15:34Z</time>
      </trkpt>
      <trkpt lat="59.142018" lon="18.400693">
        <ele>12.2</ele>
        <time>2014-10-11T11:15:35Z</time>
      </trkpt>
      <trkpt lat="59.142063" lon="18.40082">
        <ele>12</ele>
        <time>2014-10-11T11:15:36Z</time>
      </trkpt>
      <trkpt lat="59.142101" lon="18.400939">
        <ele>11.9</ele>
        <time>2014-10-11T11:15:37Z</time>
      </trkpt>
      <trkpt lat="59.142142" lon="18.401064">
        <ele>11.9</ele>
        <time>2014-10-11T11:15:38Z</time>
      </trkpt>
      <trkpt lat="59.142189" lon="18.401191">
        <ele>12</ele>
        <time>2014-10-11T11:15:39Z</time>
      </trkpt>
      <trkpt lat="59.142206" lon="18.401338">
        <ele>11.8</ele>
        <time>2014-10-11T11:15:40Z</time>
      </trkpt>
      <trkpt lat="59.142239" lon="18.401464">
        <ele>11.7</ele>
        <time>2014-10-11T11:15:41Z</time>
      </trkpt>
      <trkpt lat="59.142283" lon="18.401578">
        <ele>11.8</ele>
        <time>2014-10-11T11:15:42Z</time>
      </trkpt>
      <trkpt lat="59.142326" lon="18.401697">
        <ele>11.8</ele>
        <time>2014-10-11T11:15:43Z</time>
      </trkpt>
      <trkpt lat="59.142369" lon="18.401837">
        <ele>11.7</ele>
        <time>2014-10-11T11:15:44Z</time>
      </trkpt>
      <trkpt lat="59.142405" lon="18.40195">
        <ele>11.7</ele>
        <time>2014-10-11T11:15:45Z</time>
      </trkpt>
      <trkpt lat="59.14245" lon="18.402067">
        <ele>11.7</ele>
        <time>2014-10-11T11:15:46Z</time>
      </trkpt>
      <trkpt lat="59.142476" lon="18.402193">
        <ele>11.6</ele>
        <time>2014-10-11T11:15:47Z</time>
      </trkpt>
      <trkpt lat="59.142523" lon="18.402305">
        <ele>11.8</ele>
        <time>2014-10-11T11:15:48Z</time>
      </trkpt>
      <trkpt lat="59.142563" lon="18.40243">
        <ele>11.8</ele>
        <time>2014-10-11T11:15:49Z</time>
      </trkpt>
      <trkpt lat="59.142603" lon="18.402566">
        <ele>11.8</ele>
        <time>2014-10-11T11:15:50Z</time>
      </trkpt>
      <trkpt lat="59.142645" lon="18.402702">
        <ele>11.8</ele>
        <time>2014-10-11T11:15:51Z</time>
      </trkpt>
      <trkpt lat="59.142691" lon="18.40283">
        <ele>11.8</ele>
        <time>2014-10-11T11:15:52Z</time>
      </trkpt>
      <trkpt lat="59.142741" lon="18.402957">
        <ele>11.8</ele>
        <time>2014-10-11T11:15:53Z</time>
      </trkpt>
      <trkpt lat="59.142774" lon="18.403086">
        <ele>11.6</ele>
        <time>2014-10-11T11:15:54Z</time>
      </trkpt>
      <trkpt lat="59.142814" lon="18.403222">
        <ele>11.3</ele>
        <time>2014-10-11T11:15:55Z</time>
      </trkpt>
      <trkpt lat="59.142848" lon="18.403353">
        <ele>11.1</ele>
        <time>2014-10-11T11:15:56Z</time>
      </trkpt>
      <trkpt lat="59.142889" lon="18.403456">
        <ele>10.9</ele>
        <time>2014-10-11T11:15:57Z</time>
      </trkpt>
      <trkpt lat="59.14293" lon="18.403582">
        <ele>10.7</ele>
        <time>2014-10-11T11:15:58Z</time>
      </trkpt>
      <trkpt lat="59.142973" lon="18.403717">
        <ele>10.7</ele>
        <time>2014-10-11T11:15:59Z</time>
      </trkpt>
      <trkpt lat="59.143012" lon="18.403849">
        <ele>10.8</ele>
        <time>2014-10-11T11:16:00Z</time>
      </trkpt>
      <trkpt lat="59.143065" lon="18.403992">
        <ele>11.1</ele>
        <time>2014-10-11T11:16:01Z</time>
      </trkpt>
      <trkpt lat="59.143095" lon="18.404122">
        <ele>11.2</ele>
        <time>2014-10-11T11:16:02Z</time>
      </trkpt>
      <trkpt lat="59.143139" lon="18.404255">
        <ele>11.4</ele>
        <time>2014-10-11T11:16:03Z</time>
      </trkpt>
      <trkpt lat="59.143183" lon="18.404386">
        <ele>11.5</ele>
        <time>2014-10-11T11:16:04Z</time>
      </trkpt>
      <trkpt lat="59.14322" lon="18.404526">
        <ele>11.6</ele>
        <time>2014-10-11T11:16:05Z</time>
      </trkpt>
      <trkpt lat="59.143264" lon="18.404658">
        <ele>11.7</ele>
        <time>2014-10-11T11:16:06Z</time>
      </trkpt>
      <trkpt lat="59.143304" lon="18.40477">
        <ele>11.8</ele>
        <time>2014-10-11T11:16:07Z</time>
      </trkpt>
      <trkpt lat="59.143353" lon="18.404906">
        <ele>11.9</ele>
        <time>2014-10-11T11:16:08Z</time>
      </trkpt>
      <trkpt lat="59.143405" lon="18.405054">
        <ele>12</ele>
        <time>2014-10-11T11:16:09Z</time>
      </trkpt>
      <trkpt lat="59.143445" lon="18.405177">
        <ele>12</ele>
        <time>2014-10-11T11:16:10Z</time>
      </trkpt>
      <trkpt lat="59.143475" lon="18.405284">
        <ele>12</ele>
        <time>2014-10-11T11:16:11Z</time>
      </trkpt>
      <trkpt lat="59.143526" lon="18.405428">
        <ele>12.1</ele>
        <time>2014-10-11T11:16:12Z</time>
      </trkpt>
      <trkpt lat="59.143559" lon="18.40556">
        <ele>12.3</ele>
        <time>2014-10-11T11:16:13Z</time>
      </trkpt>
      <trkpt lat="59.143602" lon="18.405706">
        <ele>12.5</ele>
        <time>2014-10-11T11:16:14Z</time>
      </trkpt>
      <trkpt lat="59.143645" lon="18.40584">
        <ele>12.7</ele>
        <time>2014-10-11T11:16:15Z</time>
      </trkpt>
      <trkpt lat="59.143687" lon="18.405955">
        <ele>12.9</ele>
        <time>2014-10-11T11:16:16Z</time>
      </trkpt>
      <trkpt lat="59.143733" lon="18.4061">
        <ele>13.1</ele>
        <time>2014-10-11T11:16:17Z</time>
      </trkpt>
      <trkpt lat="59.143771" lon="18.406232">
        <ele>13.2</ele>
        <time>2014-10-11T11:16:18Z</time>
      </trkpt>
      <trkpt lat="59.143808" lon="18.406362">
        <ele>13.2</ele>
        <time>2014-10-11T11:16:19Z</time>
      </trkpt>
      <trkpt lat="59.143848" lon="18.406481">
        <ele>13.2</ele>
        <time>2014-10-11T11:16:20Z</time>
      </trkpt>
      <trkpt lat="59.143893" lon="18.406606">
        <ele>13.3</ele>
        <time>2014-10-11T11:16:21Z</time>
      </trkpt>
      <trkpt lat="59.143935" lon="18.406736">
        <ele>13.3</ele>
        <time>2014-10-11T11:16:22Z</time>
      </trkpt>
      <trkpt lat="59.143971" lon="18.406871">
        <ele>13.2</ele>
        <time>2014-10-11T11:16:23Z</time>
      </trkpt>
      <trkpt lat="59.144012" lon="18.406994">
        <ele>13.1</ele>
        <time>2014-10-11T11:16:24Z</time>
      </trkpt>
      <trkpt lat="59.14406" lon="18.40712">
        <ele>13.2</ele>
        <time>2014-10-11T11:16:25Z</time>
      </trkpt>
      <trkpt lat="59.144105" lon="18.407257">
        <ele>13.2</ele>
        <time>2014-10-11T11:16:26Z</time>
      </trkpt>
      <trkpt lat="59.144149" lon="18.407369">
        <ele>13.2</ele>
        <time>2014-10-11T11:16:27Z</time>
      </trkpt>
      <trkpt lat="59.144193" lon="18.407514">
        <ele>13.1</ele>
        <time>2014-10-11T11:16:28Z</time>
      </trkpt>
      <trkpt lat="59.14423" lon="18.40765">
        <ele>13</ele>
        <time>2014-10-11T11:16:29Z</time>
      </trkpt>
      <trkpt lat="59.144267" lon="18.407797">
        <ele>12.8</ele>
        <time>2014-10-11T11:16:30Z</time>
      </trkpt>
      <trkpt lat="59.144311" lon="18.407933">
        <ele>12.6</ele>
        <time>2014-10-11T11:16:31Z</time>
      </trkpt>
      <trkpt lat="59.144359" lon="18.40806">
        <ele>12.5</ele>
        <time>2014-10-11T11:16:32Z</time>
      </trkpt>
      <trkpt lat="59.144406" lon="18.408204">
        <ele>12.2</ele>
        <time>2014-10-11T11:16:33Z</time>
      </trkpt>
      <trkpt lat="59.144451" lon="18.408318">
        <ele>12</ele>
        <time>2014-10-11T11:16:34Z</time>
      </trkpt>
      <trkpt lat="59.144486" lon="18.40845">
        <ele>11.7</ele>
        <time>2014-10-11T11:16:35Z</time>
      </trkpt>
      <trkpt lat="59.144535" lon="18.408588">
        <ele>11.4</ele>
        <time>2014-10-11T11:16:36Z</time>
      </trkpt>
      <trkpt lat="59.144576" lon="18.408716">
        <ele>11.1</ele>
        <time>2014-10-11T11:16:37Z</time>
      </trkpt>
      <trkpt lat="59.144627" lon="18.408845">
        <ele>11</ele>
        <time>2014-10-11T11:16:38Z</time>
      </trkpt>
      <trkpt lat="59.144656" lon="18.408976">
        <ele>11</ele>
        <time>2014-10-11T11:16:39Z</time>
      </trkpt>
      <trkpt lat="59.144695" lon="18.409077">
        <ele>11</ele>
        <time>2014-10-11T11:16:40Z</time>
      </trkpt>
      <trkpt lat="59.144737" lon="18.409205">
        <ele>10.9</ele>
        <time>2014-10-11T11:16:41Z</time>
      </trkpt>
      <trkpt lat="59.144778" lon="18.409343">
        <ele>10.8</ele>
        <time>2014-10-11T11:16:42Z</time>
      </trkpt>
      <trkpt lat="59.144825" lon="18.409481">
        <ele>10.7</ele>
        <time>2014-10-11T11:16:43Z</time>
      </trkpt>
      <trkpt lat="59.144869" lon="18.40964">
        <ele>10.5</ele>
        <time>2014-10-11T11:16:44Z</time>
      </trkpt>
      <trkpt lat="59.144911" lon="18.409774">
        <ele>10.3</ele>
        <time>2014-10-11T11:16:45Z</time>
      </trkpt>
      <trkpt lat="59.144957" lon="18.409893">
        <ele>10.2</ele>
        <time>2014-10-11T11:16:46Z</time>
      </trkpt>
      <trkpt lat="59.144997" lon="18.410026">
        <ele>9.9</ele>
        <time>2014-10-11T11:16:47Z</time>
      </trkpt>
      <trkpt lat="59.145048" lon="18.410188">
        <ele>9.7</ele>
        <time>2014-10-11T11:16:48Z</time>
      </trkpt>
      <trkpt lat="59.145089" lon="18.410347">
        <ele>9.4</ele>
        <time>2014-10-11T11:16:49Z</time>
      </trkpt>
      <trkpt lat="59.145124" lon="18.410479">
        <ele>9.3</ele>
        <time>2014-10-11T11:16:50Z</time>
      </trkpt>
      <trkpt lat="59.145157" lon="18.410609">
        <ele>9.4</ele>
        <time>2014-10-11T11:16:51Z</time>
      </trkpt>
      <trkpt lat="59.145191" lon="18.41074">
        <ele>9.6</ele>
        <time>2014-10-11T11:16:52Z</time>
      </trkpt>
      <trkpt lat="59.145224" lon="18.410897">
        <ele>9.7</ele>
        <time>2014-10-11T11:16:53Z</time>
      </trkpt>
      <trkpt lat="59.145254" lon="18.411042">
        <ele>9.8</ele>
        <time>2014-10-11T11:16:54Z</time>
      </trkpt>
      <trkpt lat="59.145277" lon="18.411182">
        <ele>9.8</ele>
        <time>2014-10-11T11:16:55Z</time>
      </trkpt>
      <trkpt lat="59.145299" lon="18.411329">
        <ele>9.8</ele>
        <time>2014-10-11T11:16:56Z</time>
      </trkpt>
      <trkpt lat="59.145323" lon="18.411471">
        <ele>9.7</ele>
        <time>2014-10-11T11:16:57Z</time>
      </trkpt>
      <trkpt lat="59.145337" lon="18.411601">
        <ele>9.6</ele>
        <time>2014-10-11T11:16:58Z</time>
      </trkpt>
      <trkpt lat="59.145346" lon="18.411739">
        <ele>9.4</ele>
        <time>2014-10-11T11:16:59Z</time>
      </trkpt>
      <trkpt lat="59.145342" lon="18.411902">
        <ele>9.3</ele>
        <time>2014-10-11T11:17:00Z</time>
      </trkpt>
      <trkpt lat="59.145346" lon="18.41205">
        <ele>9.1</ele>
        <time>2014-10-11T11:17:01Z</time>
      </trkpt>
      <trkpt lat="59.145336" lon="18.412221">
        <ele>9.1</ele>
        <time>2014-10-11T11:17:02Z</time>
      </trkpt>
      <trkpt lat="59.145332" lon="18.412382">
        <ele>9.1</ele>
        <time>2014-10-11T11:17:03Z</time>
      </trkpt>
      <trkpt lat="59.145323" lon="18.412548">
        <ele>9.1</ele>
        <time>2014-10-11T11:17:04Z</time>
      </trkpt>
      <trkpt lat="59.14531" lon="18.412703">
        <ele>9.1</ele>
        <time>2014-10-11T11:17:05Z</time>
      </trkpt>
      <trkpt lat="59.145284" lon="18.412857">
        <ele>9.2</ele>
        <time>2014-10-11T11:17:06Z</time>
      </trkpt>
      <trkpt lat="59.14525" lon="18.413019">
        <ele>9.1</ele>
        <time>2014-10-11T11:17:07Z</time>
      </trkpt>
      <trkpt lat="59.145214" lon="18.413189">
        <ele>9</ele>
        <time>2014-10-11T11:17:08Z</time>
      </trkpt>
      <trkpt lat="59.145171" lon="18.41335">
        <ele>8.9</ele>
        <time>2014-10-11T11:17:09Z</time>
      </trkpt>
      <trkpt lat="59.145127" lon="18.413485">
        <ele>8.9</ele>
        <time>2014-10-11T11:17:10Z</time>
      </trkpt>
      <trkpt lat="59.145086" lon="18.413618">
        <ele>8.9</ele>
        <time>2014-10-11T11:17:11Z</time>
      </trkpt>
      <trkpt lat="59.145036" lon="18.413752">
        <ele>8.9</ele>
        <time>2014-10-11T11:17:12Z</time>
      </trkpt>
      <trkpt lat="59.144985" lon="18.413888">
        <ele>9.1</ele>
        <time>2014-10-11T11:17:13Z</time>
      </trkpt>
      <trkpt lat="59.144936" lon="18.414004">
        <ele>9.3</ele>
        <time>2014-10-11T11:17:14Z</time>
      </trkpt>
      <trkpt lat="59.14489" lon="18.414112">
        <ele>9.5</ele>
        <time>2014-10-11T11:17:15Z</time>
      </trkpt>
      <trkpt lat="59.144824" lon="18.414229">
        <ele>9.8</ele>
        <time>2014-10-11T11:17:16Z</time>
      </trkpt>
      <trkpt lat="59.144774" lon="18.414335">
        <ele>10.1</ele>
        <time>2014-10-11T11:17:17Z</time>
      </trkpt>
      <trkpt lat="59.144723" lon="18.414413">
        <ele>10.3</ele>
        <time>2014-10-11T11:17:18Z</time>
      </trkpt>
      <trkpt lat="59.144671" lon="18.414497">
        <ele>10.6</ele>
        <time>2014-10-11T11:17:19Z</time>
      </trkpt>
      <trkpt lat="59.144622" lon="18.414583">
        <ele>10.9</ele>
        <time>2014-10-11T11:17:20Z</time>
      </trkpt>
      <trkpt lat="59.144564" lon="18.414656">
        <ele>11.1</ele>
        <time>2014-10-11T11:17:21Z</time>
      </trkpt>
      <trkpt lat="59.144515" lon="18.414735">
        <ele>11.3</ele>
        <time>2014-10-11T11:17:22Z</time>
      </trkpt>
      <trkpt lat="59.144471" lon="18.414809">
        <ele>11.4</ele>
        <time>2014-10-11T11:17:23Z</time>
      </trkpt>
      <trkpt lat="59.144406" lon="18.414908">
        <ele>11.6</ele>
        <time>2014-10-11T11:17:24Z</time>
      </trkpt>
      <trkpt lat="59.144357" lon="18.414977">
        <ele>11.7</ele>
        <time>2014-10-11T11:17:25Z</time>
      </trkpt>
      <trkpt lat="59.144314" lon="18.415057">
        <ele>11.9</ele>
        <time>2014-10-11T11:17:26Z</time>
      </trkpt>
      <trkpt lat="59.144277" lon="18.415109">
        <ele>12</ele>
        <time>2014-10-11T11:17:27Z</time>
      </trkpt>
      <trkpt lat="59.144236" lon="18.415179">
        <ele>12.1</ele>
        <time>2014-10-11T11:17:28Z</time>
      </trkpt>
      <trkpt lat="59.144193" lon="18.415252">
        <ele>12.3</ele>
        <time>2014-10-11T11:17:29Z</time>
      </trkpt>
      <trkpt lat="59.144152" lon="18.415322">
        <ele>12.4</ele>
        <time>2014-10-11T11:17:30Z</time>
      </trkpt>
      <trkpt lat="59.144108" lon="18.415383">
        <ele>12.5</ele>
        <time>2014-10-11T11:17:31Z</time>
      </trkpt>
      <trkpt lat="59.144065" lon="18.41545">
        <ele>12.6</ele>
        <time>2014-10-11T11:17:32Z</time>
      </trkpt>
      <trkpt lat="59.144016" lon="18.415516">
        <ele>12.8</ele>
        <time>2014-10-11T11:17:33Z</time>
      </trkpt>
      <trkpt lat="59.143969" lon="18.415584">
        <ele>12.9</ele>
        <time>2014-10-11T11:17:34Z</time>
      </trkpt>
      <trkpt lat="59.143907" lon="18.415642">
        <ele>13</ele>
        <time>2014-10-11T11:17:35Z</time>
      </trkpt>
      <trkpt lat="59.143849" lon="18.4157">
        <ele>13.2</ele>
        <time>2014-10-11T11:17:36Z</time>
      </trkpt>
      <trkpt lat="59.143808" lon="18.415749">
        <ele>13.3</ele>
        <time>2014-10-11T11:17:37Z</time>
      </trkpt>
      <trkpt lat="59.143749" lon="18.415801">
        <ele>13.5</ele>
        <time>2014-10-11T11:17:38Z</time>
      </trkpt>
      <trkpt lat="59.1437" lon="18.41585">
        <ele>13.6</ele>
        <time>2014-10-11T11:17:39Z</time>
      </trkpt>
      <trkpt lat="59.143648" lon="18.415894">
        <ele>13.7</ele>
        <time>2014-10-11T11:17:40Z</time>
      </trkpt>
      <trkpt lat="59.143591" lon="18.415931">
        <ele>13.9</ele>
        <time>2014-10-11T11:17:41Z</time>
      </trkpt>
      <trkpt lat="59.143531" lon="18.415975">
        <ele>14</ele>
        <time>2014-10-11T11:17:42Z</time>
      </trkpt>
      <trkpt lat="59.143477" lon="18.415987">
        <ele>14.1</ele>
        <time>2014-10-11T11:17:43Z</time>
      </trkpt>
      <trkpt lat="59.143417" lon="18.416003">
        <ele>14.2</ele>
        <time>2014-10-11T11:17:44Z</time>
      </trkpt>
      <trkpt lat="59.143368" lon="18.416009">
        <ele>14.3</ele>
        <time>2014-10-11T11:17:45Z</time>
      </trkpt>
      <trkpt lat="59.143307" lon="18.416007">
        <ele>14.4</ele>
        <time>2014-10-11T11:17:46Z</time>
      </trkpt>
      <trkpt lat="59.143253" lon="18.416007">
        <ele>14.5</ele>
        <time>2014-10-11T11:17:47Z</time>
      </trkpt>
      <trkpt lat="59.1432" lon="18.416007">
        <ele>14.6</ele>
        <time>2014-10-11T11:17:48Z</time>
      </trkpt>
      <trkpt lat="59.143151" lon="18.415997">
        <ele>14.6</ele>
        <time>2014-10-11T11:17:49Z</time>
      </trkpt>
      <trkpt lat="59.143106" lon="18.416002">
        <ele>14.7</ele>
        <time>2014-10-11T11:17:50Z</time>
      </trkpt>
      <trkpt lat="59.143064" lon="18.416002">
        <ele>14.8</ele>
        <time>2014-10-11T11:17:51Z</time>
      </trkpt>
      <trkpt lat="59.143011" lon="18.415992">
        <ele>14.9</ele>
        <time>2014-10-11T11:17:52Z</time>
      </trkpt>
      <trkpt lat="59.142963" lon="18.415985">
        <ele>14.9</ele>
        <time>2014-10-11T11:17:53Z</time>
      </trkpt>
      <trkpt lat="59.142916" lon="18.41598">
        <ele>15</ele>
        <time>2014-10-11T11:17:54Z</time>
      </trkpt>
      <trkpt lat="59.142868" lon="18.415969">
        <ele>15</ele>
        <time>2014-10-11T11:17:55Z</time>
      </trkpt>
      <trkpt lat="59.142827" lon="18.415981">
        <ele>15</ele>
        <time>2014-10-11T11:17:56Z</time>
      </trkpt>
      <trkpt lat="59.142783" lon="18.415998">
        <ele>15</ele>
        <time>2014-10-11T11:17:57Z</time>
      </trkpt>
      <trkpt lat="59.142736" lon="18.416001">
        <ele>15.1</ele>
        <time>2014-10-11T11:17:58Z</time>
      </trkpt>
      <trkpt lat="59.142685" lon="18.416022">
        <ele>15.1</ele>
        <time>2014-10-11T11:17:59Z</time>
      </trkpt>
      <trkpt lat="59.142639" lon="18.416033">
        <ele>15.1</ele>
        <time>2014-10-11T11:18:00Z</time>
      </trkpt>
      <trkpt lat="59.142603" lon="18.41603">
        <ele>15.1</ele>
        <time>2014-10-11T11:18:01Z</time>
      </trkpt>
      <trkpt lat="59.14254" lon="18.41603">
        <ele>15.1</ele>
        <time>2014-10-11T11:18:02Z</time>
      </trkpt>
      <trkpt lat="59.142482" lon="18.416011">
        <ele>15.1</ele>
        <time>2014-10-11T11:18:03Z</time>
      </trkpt>
      <trkpt lat="59.142431" lon="18.416011">
        <ele>15.2</ele>
        <time>2014-10-11T11:18:04Z</time>
      </trkpt>
      <trkpt lat="59.142395" lon="18.416015">
        <ele>15.2</ele>
        <time>2014-10-11T11:18:05Z</time>
      </trkpt>
      <trkpt lat="59.14235" lon="18.416008">
        <ele>15.2</ele>
        <time>2014-10-11T11:18:06Z</time>
      </trkpt>
      <trkpt lat="59.142307" lon="18.415995">
        <ele>15.2</ele>
        <time>2014-10-11T11:18:07Z</time>
      </trkpt>
      <trkpt lat="59.142252" lon="18.416009">
        <ele>15.2</ele>
        <time>2014-10-11T11:18:08Z</time>
      </trkpt>
      <trkpt lat="59.142201" lon="18.416006">
        <ele>15.3</ele>
        <time>2014-10-11T11:18:09Z</time>
      </trkpt>
      <trkpt lat="59.142147" lon="18.416013">
        <ele>15.3</ele>
        <time>2014-10-11T11:18:10Z</time>
      </trkpt>
      <trkpt lat="59.142094" lon="18.41599">
        <ele>15.3</ele>
        <time>2014-10-11T11:18:11Z</time>
      </trkpt>
      <trkpt lat="59.142041" lon="18.41599">
        <ele>15.5</ele>
        <time>2014-10-11T11:18:12Z</time>
      </trkpt>
      <trkpt lat="59.141996" lon="18.415991">
        <ele>15.6</ele>
        <time>2014-10-11T11:18:13Z</time>
      </trkpt>
      <trkpt lat="59.141947" lon="18.415987">
        <ele>15.8</ele>
        <time>2014-10-11T11:18:14Z</time>
      </trkpt>
      <trkpt lat="59.141899" lon="18.415981">
        <ele>16</ele>
        <time>2014-10-11T11:18:15Z</time>
      </trkpt>
      <trkpt lat="59.141839" lon="18.415992">
        <ele>16.2</ele>
        <time>2014-10-11T11:18:16Z</time>
      </trkpt>
      <trkpt lat="59.141787" lon="18.415988">
        <ele>16.4</ele>
        <time>2014-10-11T11:18:17Z</time>
      </trkpt>
      <trkpt lat="59.14173" lon="18.415969">
        <ele>16.6</ele>
        <time>2014-10-11T11:18:18Z</time>
      </trkpt>
      <trkpt lat="59.141688" lon="18.415967">
        <ele>16.8</ele>
        <time>2014-10-11T11:18:19Z</time>
      </trkpt>
      <trkpt lat="59.141629" lon="18.415953">
        <ele>17</ele>
        <time>2014-10-11T11:18:20Z</time>
      </trkpt>
      <trkpt lat="59.141578" lon="18.415944">
        <ele>17.2</ele>
        <time>2014-10-11T11:18:21Z</time>
      </trkpt>
      <trkpt lat="59.141529" lon="18.415917">
        <ele>17.4</ele>
        <time>2014-10-11T11:18:22Z</time>
      </trkpt>
      <trkpt lat="59.141474" lon="18.415914">
        <ele>17.6</ele>
        <time>2014-10-11T11:18:23Z</time>
      </trkpt>
      <trkpt lat="59.141409" lon="18.415896">
        <ele>17.9</ele>
        <time>2014-10-11T11:18:24Z</time>
      </trkpt>
      <trkpt lat="59.141362" lon="18.415883">
        <ele>18</ele>
        <time>2014-10-11T11:18:25Z</time>
      </trkpt>
      <trkpt lat="59.141299" lon="18.415858">
        <ele>18.3</ele>
        <time>2014-10-11T11:18:26Z</time>
      </trkpt>
      <trkpt lat="59.141236" lon="18.415835">
        <ele>18.5</ele>
        <time>2014-10-11T11:18:27Z</time>
      </trkpt>
      <trkpt lat="59.141189" lon="18.415842">
        <ele>18.5</ele>
        <time>2014-10-11T11:18:28Z</time>
      </trkpt>
      <trkpt lat="59.141132" lon="18.415837">
        <ele>18.6</ele>
        <time>2014-10-11T11:18:29Z</time>
      </trkpt>
      <trkpt lat="59.141061" lon="18.415811">
        <ele>18.6</ele>
        <time>2014-10-11T11:18:30Z</time>
      </trkpt>
      <trkpt lat="59.140988" lon="18.4158">
        <ele>18.7</ele>
        <time>2014-10-11T11:18:31Z</time>
      </trkpt>
      <trkpt lat="59.140926" lon="18.415785">
        <ele>18.8</ele>
        <time>2014-10-11T11:18:32Z</time>
      </trkpt>
      <trkpt lat="59.140861" lon="18.415761">
        <ele>18.9</ele>
        <time>2014-10-11T11:18:33Z</time>
      </trkpt>
      <trkpt lat="59.140795" lon="18.415736">
        <ele>19</ele>
        <time>2014-10-11T11:18:34Z</time>
      </trkpt>
      <trkpt lat="59.140732" lon="18.415723">
        <ele>19</ele>
        <time>2014-10-11T11:18:35Z</time>
      </trkpt>
      <trkpt lat="59.140661" lon="18.415724">
        <ele>19.1</ele>
        <time>2014-10-11T11:18:36Z</time>
      </trkpt>
      <trkpt lat="59.140588" lon="18.415702">
        <ele>19.2</ele>
        <time>2014-10-11T11:18:37Z</time>
      </trkpt>
      <trkpt lat="59.140516" lon="18.415678">
        <ele>19.3</ele>
        <time>2014-10-11T11:18:38Z</time>
      </trkpt>
      <trkpt lat="59.140447" lon="18.415662">
        <ele>19.4</ele>
        <time>2014-10-11T11:18:39Z</time>
      </trkpt>
      <trkpt lat="59.140378" lon="18.415654">
        <ele>19.1</ele>
        <time>2014-10-11T11:18:40Z</time>
      </trkpt>
      <trkpt lat="59.14031" lon="18.415643">
        <ele>18.6</ele>
        <time>2014-10-11T11:18:41Z</time>
      </trkpt>
      <trkpt lat="59.140239" lon="18.415597">
        <ele>18.1</ele>
        <time>2014-10-11T11:18:42Z</time>
      </trkpt>
      <trkpt lat="59.140167" lon="18.415579">
        <ele>17.6</ele>
        <time>2014-10-11T11:18:43Z</time>
      </trkpt>
      <trkpt lat="59.140103" lon="18.415546">
        <ele>17.1</ele>
        <time>2014-10-11T11:18:44Z</time>
      </trkpt>
      <trkpt lat="59.140035" lon="18.415516">
        <ele>16.6</ele>
        <time>2014-10-11T11:18:45Z</time>
      </trkpt>
      <trkpt lat="59.139963" lon="18.415459">
        <ele>16.1</ele>
        <time>2014-10-11T11:18:46Z</time>
      </trkpt>
      <trkpt lat="59.139895" lon="18.415417">
        <ele>15.6</ele>
        <time>2014-10-11T11:18:47Z</time>
      </trkpt>
      <trkpt lat="59.139823" lon="18.415373">
        <ele>15</ele>
        <time>2014-10-11T11:18:48Z</time>
      </trkpt>
      <trkpt lat="59.139759" lon="18.415358">
        <ele>14.5</ele>
        <time>2014-10-11T11:18:49Z</time>
      </trkpt>
      <trkpt lat="59.13969" lon="18.415307">
        <ele>14</ele>
        <time>2014-10-11T11:18:50Z</time>
      </trkpt>
      <trkpt lat="59.139608" lon="18.415274">
        <ele>13.4</ele>
        <time>2014-10-11T11:18:51Z</time>
      </trkpt>
      <trkpt lat="59.13953" lon="18.415217">
        <ele>13.1</ele>
        <time>2014-10-11T11:18:52Z</time>
      </trkpt>
      <trkpt lat="59.139455" lon="18.415175">
        <ele>12.9</ele>
        <time>2014-10-11T11:18:53Z</time>
      </trkpt>
      <trkpt lat="59.139384" lon="18.415128">
        <ele>12.7</ele>
        <time>2014-10-11T11:18:54Z</time>
      </trkpt>
      <trkpt lat="59.139319" lon="18.415092">
        <ele>12.6</ele>
        <time>2014-10-11T11:18:55Z</time>
      </trkpt>
      <trkpt lat="59.139236" lon="18.415056">
        <ele>12.4</ele>
        <time>2014-10-11T11:18:56Z</time>
      </trkpt>
      <trkpt lat="59.139153" lon="18.415019">
        <ele>12.2</ele>
        <time>2014-10-11T11:18:57Z</time>
      </trkpt>
      <trkpt lat="59.139056" lon="18.414967">
        <ele>12</ele>
        <time>2014-10-11T11:18:58Z</time>
      </trkpt>
      <trkpt lat="59.138973" lon="18.414935">
        <ele>11.8</ele>
        <time>2014-10-11T11:18:59Z</time>
      </trkpt>
      <trkpt lat="59.138895" lon="18.414896">
        <ele>11.7</ele>
        <time>2014-10-11T11:19:00Z</time>
      </trkpt>
      <trkpt lat="59.138792" lon="18.414861">
        <ele>11.5</ele>
        <time>2014-10-11T11:19:01Z</time>
      </trkpt>
      <trkpt lat="59.138702" lon="18.414822">
        <ele>11.3</ele>
        <time>2014-10-11T11:19:02Z</time>
      </trkpt>
      <trkpt lat="59.138623" lon="18.414791">
        <ele>11.1</ele>
        <time>2014-10-11T11:19:03Z</time>
      </trkpt>
      <trkpt lat="59.138527" lon="18.414735">
        <ele>10.9</ele>
        <time>2014-10-11T11:19:04Z</time>
      </trkpt>
      <trkpt lat="59.138441" lon="18.414698">
        <ele>10.7</ele>
        <time>2014-10-11T11:19:05Z</time>
      </trkpt>
      <trkpt lat="59.138375" lon="18.414687">
        <ele>10.5</ele>
        <time>2014-10-11T11:19:06Z</time>
      </trkpt>
      <trkpt lat="59.138291" lon="18.414712">
        <ele>10.2</ele>
        <time>2014-10-11T11:19:07Z</time>
      </trkpt>
      <trkpt lat="59.138218" lon="18.414746">
        <ele>9.9</ele>
        <time>2014-10-11T11:19:08Z</time>
      </trkpt>
      <trkpt lat="59.138141" lon="18.414771">
        <ele>9.7</ele>
        <time>2014-10-11T11:19:09Z</time>
      </trkpt>
      <trkpt lat="59.138058" lon="18.4148">
        <ele>9.4</ele>
        <time>2014-10-11T11:19:10Z</time>
      </trkpt>
      <trkpt lat="59.137982" lon="18.414848">
        <ele>9.2</ele>
        <time>2014-10-11T11:19:11Z</time>
      </trkpt>
      <trkpt lat="59.137905" lon="18.414885">
        <ele>9.1</ele>
        <time>2014-10-11T11:19:12Z</time>
      </trkpt>
      <trkpt lat="59.137842" lon="18.414913">
        <ele>9.9</ele>
        <time>2014-10-11T11:19:13Z</time>
      </trkpt>
      <trkpt lat="59.137775" lon="18.414941">
        <ele>10.7</ele>
        <time>2014-10-11T11:19:14Z</time>
      </trkpt>
      <trkpt lat="59.137706" lon="18.414981">
        <ele>11.6</ele>
        <time>2014-10-11T11:19:15Z</time>
      </trkpt>
      <trkpt lat="59.137641" lon="18.415012">
        <ele>12.5</ele>
        <time>2014-10-11T11:19:16Z</time>
      </trkpt>
      <trkpt lat="59.137587" lon="18.415048">
        <ele>13.3</ele>
        <time>2014-10-11T11:19:17Z</time>
      </trkpt>
      <trkpt lat="59.137539" lon="18.415114">
        <ele>14.1</ele>
        <time>2014-10-11T11:19:18Z</time>
      </trkpt>
      <trkpt lat="59.137495" lon="18.415193">
        <ele>14.9</ele>
        <time>2014-10-11T11:19:19Z</time>
      </trkpt>
      <trkpt lat="59.137451" lon="18.415275">
        <ele>15.8</ele>
        <time>2014-10-11T11:19:20Z</time>
      </trkpt>
      <trkpt lat="59.137427" lon="18.415384">
        <ele>16.5</ele>
        <time>2014-10-11T11:19:21Z</time>
      </trkpt>
      <trkpt lat="59.13742" lon="18.415519">
        <ele>17.1</ele>
        <time>2014-10-11T11:19:22Z</time>
      </trkpt>
      <trkpt lat="59.137429" lon="18.415658">
        <ele>17.4</ele>
        <time>2014-10-11T11:19:23Z</time>
      </trkpt>
      <trkpt lat="59.13745" lon="18.415813">
        <ele>17.5</ele>
        <time>2014-10-11T11:19:24Z</time>
      </trkpt>
      <trkpt lat="59.137461" lon="18.415956">
        <ele>17.8</ele>
        <time>2014-10-11T11:19:25Z</time>
      </trkpt>
      <trkpt lat="59.137485" lon="18.416101">
        <ele>17.8</ele>
        <time>2014-10-11T11:19:26Z</time>
      </trkpt>
      <trkpt lat="59.137506" lon="18.416252">
        <ele>17.9</ele>
        <time>2014-10-11T11:19:27Z</time>
      </trkpt>
      <trkpt lat="59.137536" lon="18.416392">
        <ele>17.8</ele>
        <time>2014-10-11T11:19:28Z</time>
      </trkpt>
      <trkpt lat="59.137564" lon="18.41654">
        <ele>17.8</ele>
        <time>2014-10-11T11:19:29Z</time>
      </trkpt>
      <trkpt lat="59.137589" lon="18.416676">
        <ele>17.7</ele>
        <time>2014-10-11T11:19:30Z</time>
      </trkpt>
      <trkpt lat="59.137614" lon="18.416843">
        <ele>17.8</ele>
        <time>2014-10-11T11:19:31Z</time>
      </trkpt>
      <trkpt lat="59.137636" lon="18.416998">
        <ele>17.8</ele>
        <time>2014-10-11T11:19:32Z</time>
      </trkpt>
      <trkpt lat="59.137654" lon="18.417148">
        <ele>17.8</ele>
        <time>2014-10-11T11:19:33Z</time>
      </trkpt>
      <trkpt lat="59.137674" lon="18.417311">
        <ele>17.6</ele>
        <time>2014-10-11T11:19:34Z</time>
      </trkpt>
      <trkpt lat="59.137689" lon="18.417459">
        <ele>17.5</ele>
        <time>2014-10-11T11:19:35Z</time>
      </trkpt>
      <trkpt lat="59.137714" lon="18.417614">
        <ele>17.3</ele>
        <time>2014-10-11T11:19:36Z</time>
      </trkpt>
      <trkpt lat="59.137743" lon="18.417776">
        <ele>17.1</ele>
        <time>2014-10-11T11:19:37Z</time>
      </trkpt>
      <trkpt lat="59.137763" lon="18.417929">
        <ele>17</ele>
        <time>2014-10-11T11:19:38Z</time>
      </trkpt>
      <trkpt lat="59.137781" lon="18.418076">
        <ele>17</ele>
        <time>2014-10-11T11:19:39Z</time>
      </trkpt>
      <trkpt lat="59.137789" lon="18.418225">
        <ele>17.2</ele>
        <time>2014-10-11T11:19:40Z</time>
      </trkpt>
      <trkpt lat="59.137796" lon="18.418363">
        <ele>17.4</ele>
        <time>2014-10-11T11:19:41Z</time>
      </trkpt>
      <trkpt lat="59.137802" lon="18.418514">
        <ele>17.6</ele>
        <time>2014-10-11T11:19:42Z</time>
      </trkpt>
      <trkpt lat="59.13781" lon="18.418642">
        <ele>17.7</ele>
        <time>2014-10-11T11:19:43Z</time>
      </trkpt>
      <trkpt lat="59.137815" lon="18.418773">
        <ele>17.9</ele>
        <time>2014-10-11T11:19:44Z</time>
      </trkpt>
      <trkpt lat="59.137821" lon="18.418909">
        <ele>18.3</ele>
        <time>2014-10-11T11:19:45Z</time>
      </trkpt>
      <trkpt lat="59.137823" lon="18.419021">
        <ele>18.6</ele>
        <time>2014-10-11T11:19:46Z</time>
      </trkpt>
      <trkpt lat="59.137828" lon="18.419135">
        <ele>18.9</ele>
        <time>2014-10-11T11:19:47Z</time>
      </trkpt>
      <trkpt lat="59.137841" lon="18.419248">
        <ele>19.2</ele>
        <time>2014-10-11T11:19:48Z</time>
      </trkpt>
      <trkpt lat="59.137854" lon="18.419345">
        <ele>19.4</ele>
        <time>2014-10-11T11:19:49Z</time>
      </trkpt>
      <trkpt lat="59.137866" lon="18.419433">
        <ele>19.6</ele>
        <time>2014-10-11T11:19:50Z</time>
      </trkpt>
      <trkpt lat="59.137876" lon="18.419513">
        <ele>19.9</ele>
        <time>2014-10-11T11:19:51Z</time>
      </trkpt>
      <trkpt lat="59.137875" lon="18.419588">
        <ele>20.1</ele>
        <time>2014-10-11T11:19:52Z</time>
      </trkpt>
      <trkpt lat="59.137883" lon="18.419684">
        <ele>20.4</ele>
        <time>2014-10-11T11:19:53Z</time>
      </trkpt>
      <trkpt lat="59.13789" lon="18.419754">
        <ele>20.6</ele>
        <time>2014-10-11T11:19:54Z</time>
      </trkpt>
      <trkpt lat="59.137901" lon="18.419838">
        <ele>20.9</ele>
        <time>2014-10-11T11:19:55Z</time>
      </trkpt>
      <trkpt lat="59.137921" lon="18.419924">
        <ele>4</ele>
        <time>2014-10-11T11:19:56Z</time>
      </trkpt>
      <trkpt lat="59.137934" lon="18.419994">
        <ele>4</ele>
        <time>2014-10-11T11:19:57Z</time>
      </trkpt>
      <trkpt lat="59.137957" lon="18.420057">
        <ele>3.9</ele>
        <time>2014-10-11T11:19:58Z</time>
      </trkpt>
      <trkpt lat="59.137967" lon="18.420113">
        <ele>3.8</ele>
        <time>2014-10-11T11:19:59Z</time>
      </trkpt>
      <trkpt lat="59.137989" lon="18.420174">
        <ele>3.8</ele>
        <time>2014-10-11T11:20:00Z</time>
      </trkpt>
      <trkpt lat="59.138012" lon="18.420241">
        <ele>3.9</ele>
        <time>2014-10-11T11:20:01Z</time>
      </trkpt>
      <trkpt lat="59.13803" lon="18.4203">
        <ele>3.9</ele>
        <time>2014-10-11T11:20:02Z</time>
      </trkpt>
      <trkpt lat="59.138052" lon="18.420364">
        <ele>3.9</ele>
        <time>2014-10-11T11:20:03Z</time>
      </trkpt>
      <trkpt lat="59.138074" lon="18.42043">
        <ele>3.9</ele>
        <time>2014-10-11T11:20:04Z</time>
      </trkpt>
      <trkpt lat="59.138094" lon="18.420493">
        <ele>3.8</ele>
        <time>2014-10-11T11:20:05Z</time>
      </trkpt>
      <trkpt lat="59.138116" lon="18.420552">
        <ele>3.8</ele>
        <time>2014-10-11T11:20:06Z</time>
      </trkpt>
      <trkpt lat="59.138139" lon="18.42061">
        <ele>3.8</ele>
        <time>2014-10-11T11:20:07Z</time>
      </trkpt>
      <trkpt lat="59.138161" lon="18.420671">
        <ele>3.9</ele>
        <time>2014-10-11T11:20:08Z</time>
      </trkpt>
      <trkpt lat="59.138181" lon="18.420735">
        <ele>4</ele>
        <time>2014-10-11T11:20:09Z</time>
      </trkpt>
      <trkpt lat="59.138201" lon="18.420794">
        <ele>4.2</ele>
        <time>2014-10-11T11:20:10Z</time>
      </trkpt>
      <trkpt lat="59.138208" lon="18.420901">
        <ele>4.3</ele>
        <time>2014-10-11T11:20:11Z</time>
      </trkpt>
      <trkpt lat="59.138227" lon="18.420978">
        <ele>4.8</ele>
        <time>2014-10-11T11:20:12Z</time>
      </trkpt>
      <trkpt lat="59.13825" lon="18.42105">
        <ele>6.5</ele>
        <time>2014-10-11T11:20:13Z</time>
      </trkpt>
      <trkpt lat="59.138273" lon="18.421119">
        <ele>7.8</ele>
        <time>2014-10-11T11:20:14Z</time>
      </trkpt>
      <trkpt lat="59.138295" lon="18.421187">
        <ele>8.9</ele>
        <time>2014-10-11T11:20:15Z</time>
      </trkpt>
      <trkpt lat="59.13832" lon="18.421257">
        <ele>18.8</ele>
        <time>2014-10-11T11:20:16Z</time>
      </trkpt>
      <trkpt lat="59.138345" lon="18.421328">
        <ele>19</ele>
        <time>2014-10-11T11:20:17Z</time>
      </trkpt>
      <trkpt lat="59.138367" lon="18.42139">
        <ele>19.3</ele>
        <time>2014-10-11T11:20:18Z</time>
      </trkpt>
      <trkpt lat="59.138389" lon="18.421457">
        <ele>19.7</ele>
        <time>2014-10-11T11:20:19Z</time>
      </trkpt>
      <trkpt lat="59.138411" lon="18.421524">
        <ele>20.1</ele>
        <time>2014-10-11T11:20:20Z</time>
      </trkpt>
      <trkpt lat="59.13843" lon="18.421594">
        <ele>20.6</ele>
        <time>2014-10-11T11:20:21Z</time>
      </trkpt>
      <trkpt lat="59.138445" lon="18.421666">
        <ele>21.2</ele>
        <time>2014-10-11T11:20:22Z</time>
      </trkpt>
      <trkpt lat="59.138462" lon="18.421739">
        <ele>21.9</ele>
        <time>2014-10-11T11:20:23Z</time>
      </trkpt>
      <trkpt lat="59.138477" lon="18.421813">
        <ele>22.6</ele>
        <time>2014-10-11T11:20:24Z</time>
      </trkpt>
      <trkpt lat="59.138494" lon="18.421894">
        <ele>23.4</ele>
        <time>2014-10-11T11:20:25Z</time>
      </trkpt>
      <trkpt lat="59.138507" lon="18.421968">
        <ele>24.2</ele>
        <time>2014-10-11T11:20:26Z</time>
      </trkpt>
      <trkpt lat="59.138524" lon="18.42208">
        <ele>25.5</ele>
        <time>2014-10-11T11:20:27Z</time>
      </trkpt>
      <trkpt lat="59.138539" lon="18.422164">
        <ele>25.6</ele>
        <time>2014-10-11T11:20:28Z</time>
      </trkpt>
      <trkpt lat="59.138542" lon="18.422244">
        <ele>25.6</ele>
        <time>2014-10-11T11:20:29Z</time>
      </trkpt>
      <trkpt lat="59.138548" lon="18.422332">
        <ele>25.6</ele>
        <time>2014-10-11T11:20:30Z</time>
      </trkpt>
      <trkpt lat="59.138559" lon="18.422434">
        <ele>25.7</ele>
        <time>2014-10-11T11:20:31Z</time>
      </trkpt>
      <trkpt lat="59.138566" lon="18.422532">
        <ele>25.7</ele>
        <time>2014-10-11T11:20:32Z</time>
      </trkpt>
      <trkpt lat="59.138575" lon="18.422639">
        <ele>25.8</ele>
        <time>2014-10-11T11:20:33Z</time>
      </trkpt>
      <trkpt lat="59.138583" lon="18.422741">
        <ele>25.9</ele>
        <time>2014-10-11T11:20:34Z</time>
      </trkpt>
      <trkpt lat="59.138586" lon="18.422829">
        <ele>25.9</ele>
        <time>2014-10-11T11:20:35Z</time>
      </trkpt>
      <trkpt lat="59.13859" lon="18.422941">
        <ele>26</ele>
        <time>2014-10-11T11:20:36Z</time>
      </trkpt>
      <trkpt lat="59.138582" lon="18.423047">
        <ele>26.2</ele>
        <time>2014-10-11T11:20:37Z</time>
      </trkpt>
      <trkpt lat="59.138583" lon="18.423168">
        <ele>26.4</ele>
        <time>2014-10-11T11:20:38Z</time>
      </trkpt>
      <trkpt lat="59.138594" lon="18.423279">
        <ele>26.6</ele>
        <time>2014-10-11T11:20:39Z</time>
      </trkpt>
      <trkpt lat="59.138596" lon="18.423389">
        <ele>26.8</ele>
        <time>2014-10-11T11:20:40Z</time>
      </trkpt>
      <trkpt lat="59.138599" lon="18.42351">
        <ele>27</ele>
        <time>2014-10-11T11:20:41Z</time>
      </trkpt>
      <trkpt lat="59.138603" lon="18.423624">
        <ele>27.2</ele>
        <time>2014-10-11T11:20:42Z</time>
      </trkpt>
      <trkpt lat="59.138606" lon="18.423761">
        <ele>27.4</ele>
        <time>2014-10-11T11:20:43Z</time>
      </trkpt>
      <trkpt lat="59.138614" lon="18.42391">
        <ele>26.9</ele>
        <time>2014-10-11T11:20:44Z</time>
      </trkpt>
      <trkpt lat="59.138614" lon="18.424028">
        <ele>26.5</ele>
        <time>2014-10-11T11:20:45Z</time>
      </trkpt>
      <trkpt lat="59.138633" lon="18.424172">
        <ele>26.1</ele>
        <time>2014-10-11T11:20:46Z</time>
      </trkpt>
      <trkpt lat="59.138634" lon="18.424318">
        <ele>25.5</ele>
        <time>2014-10-11T11:20:47Z</time>
      </trkpt>
      <trkpt lat="59.138655" lon="18.424457">
        <ele>25.1</ele>
        <time>2014-10-11T11:20:48Z</time>
      </trkpt>
      <trkpt lat="59.138681" lon="18.424599">
        <ele>24.7</ele>
        <time>2014-10-11T11:20:49Z</time>
      </trkpt>
      <trkpt lat="59.138709" lon="18.424731">
        <ele>24.2</ele>
        <time>2014-10-11T11:20:50Z</time>
      </trkpt>
      <trkpt lat="59.138746" lon="18.424879">
        <ele>23.6</ele>
        <time>2014-10-11T11:20:51Z</time>
      </trkpt>
      <trkpt lat="59.138792" lon="18.425014">
        <ele>6.8</ele>
        <time>2014-10-11T11:20:52Z</time>
      </trkpt>
      <trkpt lat="59.138842" lon="18.425131">
        <ele>6.7</ele>
        <time>2014-10-11T11:20:53Z</time>
      </trkpt>
      <trkpt lat="59.138899" lon="18.425233">
        <ele>6.5</ele>
        <time>2014-10-11T11:20:54Z</time>
      </trkpt>
      <trkpt lat="59.138963" lon="18.425341">
        <ele>6.2</ele>
        <time>2014-10-11T11:20:55Z</time>
      </trkpt>
      <trkpt lat="59.139027" lon="18.425455">
        <ele>19.9</ele>
        <time>2014-10-11T11:20:56Z</time>
      </trkpt>
      <trkpt lat="59.13909" lon="18.425571">
        <ele>19.4</ele>
        <time>2014-10-11T11:20:57Z</time>
      </trkpt>
      <trkpt lat="59.139155" lon="18.425674">
        <ele>19.1</ele>
        <time>2014-10-11T11:20:58Z</time>
      </trkpt>
      <trkpt lat="59.139222" lon="18.425768">
        <ele>18.8</ele>
        <time>2014-10-11T11:20:59Z</time>
      </trkpt>
      <trkpt lat="59.139293" lon="18.425867">
        <ele>18.5</ele>
        <time>2014-10-11T11:21:00Z</time>
      </trkpt>
      <trkpt lat="59.139363" lon="18.425959">
        <ele>18.3</ele>
        <time>2014-10-11T11:21:01Z</time>
      </trkpt>
      <trkpt lat="59.139435" lon="18.426056">
        <ele>18.1</ele>
        <time>2014-10-11T11:21:02Z</time>
      </trkpt>
      <trkpt lat="59.139521" lon="18.426133">
        <ele>18</ele>
        <time>2014-10-11T11:21:03Z</time>
      </trkpt>
      <trkpt lat="59.139595" lon="18.426232">
        <ele>8.4</ele>
        <time>2014-10-11T11:21:04Z</time>
      </trkpt>
      <trkpt lat="59.139692" lon="18.426333">
        <ele>17</ele>
        <time>2014-10-11T11:21:05Z</time>
      </trkpt>
      <trkpt lat="59.13978" lon="18.426429">
        <ele>16.5</ele>
        <time>2014-10-11T11:21:06Z</time>
      </trkpt>
      <trkpt lat="59.139879" lon="18.426522">
        <ele>16.2</ele>
        <time>2014-10-11T11:21:07Z</time>
      </trkpt>
      <trkpt lat="59.13997" lon="18.426625">
        <ele>16.2</ele>
        <time>2014-10-11T11:21:08Z</time>
      </trkpt>
      <trkpt lat="59.140053" lon="18.426745">
        <ele>16.5</ele>
        <time>2014-10-11T11:21:09Z</time>
      </trkpt>
      <trkpt lat="59.140127" lon="18.426878">
        <ele>17.3</ele>
        <time>2014-10-11T11:21:10Z</time>
      </trkpt>
      <trkpt lat="59.140184" lon="18.427016">
        <ele>18.4</ele>
        <time>2014-10-11T11:21:11Z</time>
      </trkpt>
      <trkpt lat="59.140238" lon="18.427166">
        <ele>19</ele>
        <time>2014-10-11T11:21:12Z</time>
      </trkpt>
      <trkpt lat="59.140264" lon="18.427312">
        <ele>19.1</ele>
        <time>2014-10-11T11:21:13Z</time>
      </trkpt>
      <trkpt lat="59.140296" lon="18.427477">
        <ele>19.3</ele>
        <time>2014-10-11T11:21:14Z</time>
      </trkpt>
      <trkpt lat="59.140299" lon="18.427635">
        <ele>19.4</ele>
        <time>2014-10-11T11:21:15Z</time>
      </trkpt>
      <trkpt lat="59.140314" lon="18.427818">
        <ele>19.6</ele>
        <time>2014-10-11T11:21:16Z</time>
      </trkpt>
      <trkpt lat="59.140327" lon="18.427978">
        <ele>19.7</ele>
        <time>2014-10-11T11:21:17Z</time>
      </trkpt>
      <trkpt lat="59.140338" lon="18.428134">
        <ele>19.9</ele>
        <time>2014-10-11T11:21:18Z</time>
      </trkpt>
      <trkpt lat="59.140349" lon="18.428294">
        <ele>20.1</ele>
        <time>2014-10-11T11:21:19Z</time>
      </trkpt>
      <trkpt lat="59.140375" lon="18.428451">
        <ele>20.4</ele>
        <time>2014-10-11T11:21:20Z</time>
      </trkpt>
      <trkpt lat="59.1404" lon="18.42864">
        <ele>20.8</ele>
        <time>2014-10-11T11:21:21Z</time>
      </trkpt>
      <trkpt lat="59.14042" lon="18.428816">
        <ele>20.8</ele>
        <time>2014-10-11T11:21:22Z</time>
      </trkpt>
      <trkpt lat="59.140453" lon="18.428985">
        <ele>20.2</ele>
        <time>2014-10-11T11:21:23Z</time>
      </trkpt>
      <trkpt lat="59.140475" lon="18.429138">
        <ele>19.6</ele>
        <time>2014-10-11T11:21:24Z</time>
      </trkpt>
      <trkpt lat="59.140491" lon="18.429324">
        <ele>18.9</ele>
        <time>2014-10-11T11:21:25Z</time>
      </trkpt>
      <trkpt lat="59.140506" lon="18.429497">
        <ele>18.3</ele>
        <time>2014-10-11T11:21:26Z</time>
      </trkpt>
      <trkpt lat="59.140539" lon="18.429672">
        <ele>17.6</ele>
        <time>2014-10-11T11:21:27Z</time>
      </trkpt>
      <trkpt lat="59.140569" lon="18.429858">
        <ele>16.7</ele>
        <time>2014-10-11T11:21:28Z</time>
      </trkpt>
      <trkpt lat="59.140628" lon="18.430024">
        <ele>15.9</ele>
        <time>2014-10-11T11:21:29Z</time>
      </trkpt>
      <trkpt lat="59.140678" lon="18.430174">
        <ele>15.2</ele>
        <time>2014-10-11T11:21:30Z</time>
      </trkpt>
      <trkpt lat="59.140747" lon="18.430296">
        <ele>14.6</ele>
        <time>2014-10-11T11:21:31Z</time>
      </trkpt>
      <trkpt lat="59.14083" lon="18.430385">
        <ele>14.2</ele>
        <time>2014-10-11T11:21:32Z</time>
      </trkpt>
      <trkpt lat="59.140915" lon="18.430438">
        <ele>13.9</ele>
        <time>2014-10-11T11:21:33Z</time>
      </trkpt>
      <trkpt lat="59.141005" lon="18.430485">
        <ele>13.8</ele>
        <time>2014-10-11T11:21:34Z</time>
      </trkpt>
      <trkpt lat="59.141092" lon="18.430516">
        <ele>13.7</ele>
        <time>2014-10-11T11:21:35Z</time>
      </trkpt>
      <trkpt lat="59.141175" lon="18.430546">
        <ele>13.7</ele>
        <time>2014-10-11T11:21:36Z</time>
      </trkpt>
      <trkpt lat="59.141247" lon="18.430596">
        <ele>13.6</ele>
        <time>2014-10-11T11:21:37Z</time>
      </trkpt>
      <trkpt lat="59.141319" lon="18.430637">
        <ele>14</ele>
        <time>2014-10-11T11:21:38Z</time>
      </trkpt>
      <trkpt lat="59.14138" lon="18.430714">
        <ele>14.3</ele>
        <time>2014-10-11T11:21:39Z</time>
      </trkpt>
      <trkpt lat="59.141443" lon="18.430771">
        <ele>14.6</ele>
        <time>2014-10-11T11:21:40Z</time>
      </trkpt>
      <trkpt lat="59.141501" lon="18.430842">
        <ele>14.9</ele>
        <time>2014-10-11T11:21:41Z</time>
      </trkpt>
      <trkpt lat="59.141549" lon="18.430887">
        <ele>15.2</ele>
        <time>2014-10-11T11:21:42Z</time>
      </trkpt>
      <trkpt lat="59.141605" lon="18.430941">
        <ele>15.6</ele>
        <time>2014-10-11T11:21:43Z</time>
      </trkpt>
      <trkpt lat="59.141652" lon="18.43101">
        <ele>15.8</ele>
        <time>2014-10-11T11:21:44Z</time>
      </trkpt>
      <trkpt lat="59.141702" lon="18.43108">
        <ele>16.1</ele>
        <time>2014-10-11T11:21:45Z</time>
      </trkpt>
      <trkpt lat="59.141742" lon="18.431125">
        <ele>16.3</ele>
        <time>2014-10-11T11:21:46Z</time>
      </trkpt>
      <trkpt lat="59.141794" lon="18.431197">
        <ele>16.7</ele>
        <time>2014-10-11T11:21:47Z</time>
      </trkpt>
      <trkpt lat="59.141844" lon="18.431256">
        <ele>17</ele>
        <time>2014-10-11T11:21:48Z</time>
      </trkpt>
      <trkpt lat="59.141888" lon="18.431317">
        <ele>17.2</ele>
        <time>2014-10-11T11:21:49Z</time>
      </trkpt>
      <trkpt lat="59.141931" lon="18.431402">
        <ele>17.5</ele>
        <time>2014-10-11T11:21:50Z</time>
      </trkpt>
      <trkpt lat="59.14198" lon="18.431497">
        <ele>17.8</ele>
        <time>2014-10-11T11:21:51Z</time>
      </trkpt>
      <trkpt lat="59.142016" lon="18.431587">
        <ele>18</ele>
        <time>2014-10-11T11:21:52Z</time>
      </trkpt>
      <trkpt lat="59.142038" lon="18.431701">
        <ele>18</ele>
        <time>2014-10-11T11:21:53Z</time>
      </trkpt>
      <trkpt lat="59.142078" lon="18.431814">
        <ele>18.3</ele>
        <time>2014-10-11T11:21:54Z</time>
      </trkpt>
      <trkpt lat="59.142098" lon="18.431915">
        <ele>18.3</ele>
        <time>2014-10-11T11:21:55Z</time>
      </trkpt>
      <trkpt lat="59.14211" lon="18.432004">
        <ele>18.4</ele>
        <time>2014-10-11T11:21:56Z</time>
      </trkpt>
      <trkpt lat="59.142134" lon="18.432125">
        <ele>18.3</ele>
        <time>2014-10-11T11:21:57Z</time>
      </trkpt>
      <trkpt lat="59.142167" lon="18.432215">
        <ele>18.3</ele>
        <time>2014-10-11T11:21:58Z</time>
      </trkpt>
      <trkpt lat="59.14219" lon="18.432317">
        <ele>18.2</ele>
        <time>2014-10-11T11:21:59Z</time>
      </trkpt>
      <trkpt lat="59.142222" lon="18.432466">
        <ele>18</ele>
        <time>2014-10-11T11:22:00Z</time>
      </trkpt>
      <trkpt lat="59.142239" lon="18.432589">
        <ele>17.8</ele>
        <time>2014-10-11T11:22:01Z</time>
      </trkpt>
      <trkpt lat="59.142271" lon="18.432736">
        <ele>17.6</ele>
        <time>2014-10-11T11:22:02Z</time>
      </trkpt>
      <trkpt lat="59.142306" lon="18.432858">
        <ele>17.6</ele>
        <time>2014-10-11T11:22:03Z</time>
      </trkpt>
      <trkpt lat="59.142363" lon="18.432996">
        <ele>17.7</ele>
        <time>2014-10-11T11:22:04Z</time>
      </trkpt>
      <trkpt lat="59.142398" lon="18.433068">
        <ele>17.9</ele>
        <time>2014-10-11T11:22:05Z</time>
      </trkpt>
      <trkpt lat="59.142439" lon="18.433163">
        <ele>18</ele>
        <time>2014-10-11T11:22:06Z</time>
      </trkpt>
      <trkpt lat="59.142504" lon="18.433224">
        <ele>18.4</ele>
        <time>2014-10-11T11:22:07Z</time>
      </trkpt>
      <trkpt lat="59.142557" lon="18.433299">
        <ele>18.7</ele>
        <time>2014-10-11T11:22:08Z</time>
      </trkpt>
      <trkpt lat="59.142611" lon="18.433363">
        <ele>19.1</ele>
        <time>2014-10-11T11:22:09Z</time>
      </trkpt>
      <trkpt lat="59.142665" lon="18.433409">
        <ele>19.5</ele>
        <time>2014-10-11T11:22:10Z</time>
      </trkpt>
      <trkpt lat="59.142733" lon="18.433433">
        <ele>20.2</ele>
        <time>2014-10-11T11:22:11Z</time>
      </trkpt>
      <trkpt lat="59.142814" lon="18.43347">
        <ele>20.9</ele>
        <time>2014-10-11T11:22:12Z</time>
      </trkpt>
      <trkpt lat="59.142888" lon="18.433496">
        <ele>21.6</ele>
        <time>2014-10-11T11:22:13Z</time>
      </trkpt>
      <trkpt lat="59.142945" lon="18.433504">
        <ele>22.1</ele>
        <time>2014-10-11T11:22:14Z</time>
      </trkpt>
      <trkpt lat="59.142997" lon="18.433525">
        <ele>22.3</ele>
        <time>2014-10-11T11:22:15Z</time>
      </trkpt>
      <trkpt lat="59.143065" lon="18.433544">
        <ele>22.7</ele>
        <time>2014-10-11T11:22:16Z</time>
      </trkpt>
      <trkpt lat="59.143121" lon="18.433582">
        <ele>22.9</ele>
        <time>2014-10-11T11:22:17Z</time>
      </trkpt>
      <trkpt lat="59.143172" lon="18.433635">
        <ele>23</ele>
        <time>2014-10-11T11:22:18Z</time>
      </trkpt>
      <trkpt lat="59.14322" lon="18.43367">
        <ele>23.2</ele>
        <time>2014-10-11T11:22:19Z</time>
      </trkpt>
      <trkpt lat="59.143269" lon="18.433714">
        <ele>23.3</ele>
        <time>2014-10-11T11:22:20Z</time>
      </trkpt>
      <trkpt lat="59.143315" lon="18.43376">
        <ele>23.4</ele>
        <time>2014-10-11T11:22:21Z</time>
      </trkpt>
      <trkpt lat="59.143359" lon="18.433816">
        <ele>23.5</ele>
        <time>2014-10-11T11:22:22Z</time>
      </trkpt>
      <trkpt lat="59.143435" lon="18.433881">
        <ele>23.8</ele>
        <time>2014-10-11T11:22:23Z</time>
      </trkpt>
      <trkpt lat="59.143484" lon="18.433937">
        <ele>24</ele>
        <time>2014-10-11T11:22:24Z</time>
      </trkpt>
      <trkpt lat="59.143565" lon="18.434005">
        <ele>24.3</ele>
        <time>2014-10-11T11:22:25Z</time>
      </trkpt>
      <trkpt lat="59.143633" lon="18.434065">
        <ele>24.5</ele>
        <time>2014-10-11T11:22:26Z</time>
      </trkpt>
      <trkpt lat="59.14369" lon="18.434151">
        <ele>24.7</ele>
        <time>2014-10-11T11:22:27Z</time>
      </trkpt>
      <trkpt lat="59.143755" lon="18.434233">
        <ele>24.8</ele>
        <time>2014-10-11T11:22:28Z</time>
      </trkpt>
      <trkpt lat="59.143836" lon="18.434339">
        <ele>24.5</ele>
        <time>2014-10-11T11:22:29Z</time>
      </trkpt>
      <trkpt lat="59.143912" lon="18.434409">
        <ele>24.3</ele>
        <time>2014-10-11T11:22:30Z</time>
      </trkpt>
      <trkpt lat="59.143991" lon="18.434478">
        <ele>24</ele>
        <time>2014-10-11T11:22:31Z</time>
      </trkpt>
      <trkpt lat="59.144079" lon="18.434533">
        <ele>23.8</ele>
        <time>2014-10-11T11:22:32Z</time>
      </trkpt>
      <trkpt lat="59.144148" lon="18.434589">
        <ele>23.5</ele>
        <time>2014-10-11T11:22:33Z</time>
      </trkpt>
      <trkpt lat="59.14422" lon="18.434622">
        <ele>23.3</ele>
        <time>2014-10-11T11:22:34Z</time>
      </trkpt>
      <trkpt lat="59.144298" lon="18.434663">
        <ele>23</ele>
        <time>2014-10-11T11:22:35Z</time>
      </trkpt>
      <trkpt lat="59.144384" lon="18.434689">
        <ele>22.7</ele>
        <time>2014-10-11T11:22:36Z</time>
      </trkpt>
      <trkpt lat="59.14446" lon="18.434723">
        <ele>22.4</ele>
        <time>2014-10-11T11:22:37Z</time>
      </trkpt>
      <trkpt lat="59.144517" lon="18.434738">
        <ele>22.2</ele>
        <time>2014-10-11T11:22:38Z</time>
      </trkpt>
      <trkpt lat="59.144584" lon="18.434756">
        <ele>22</ele>
        <time>2014-10-11T11:22:39Z</time>
      </trkpt>
      <trkpt lat="59.144655" lon="18.434791">
        <ele>21.8</ele>
        <time>2014-10-11T11:22:40Z</time>
      </trkpt>
      <trkpt lat="59.144738" lon="18.434835">
        <ele>21.6</ele>
        <time>2014-10-11T11:22:41Z</time>
      </trkpt>
      <trkpt lat="59.144807" lon="18.434895">
        <ele>21.3</ele>
        <time>2014-10-11T11:22:42Z</time>
      </trkpt>
      <trkpt lat="59.14487" lon="18.434977">
        <ele>21</ele>
        <time>2014-10-11T11:22:43Z</time>
      </trkpt>
      <trkpt lat="59.144938" lon="18.435074">
        <ele>20.6</ele>
        <time>2014-10-11T11:22:44Z</time>
      </trkpt>
      <trkpt lat="59.145005" lon="18.435212">
        <ele>20</ele>
        <time>2014-10-11T11:22:45Z</time>
      </trkpt>
      <trkpt lat="59.145057" lon="18.435339">
        <ele>19.5</ele>
        <time>2014-10-11T11:22:46Z</time>
      </trkpt>
      <trkpt lat="59.145498" lon="18.435928">
        <ele>19.7</ele>
        <time>2014-10-11T11:22:53Z</time>
      </trkpt>
      <trkpt lat="59.145547" lon="18.435907">
        <ele>19.9</ele>
        <time>2014-10-11T11:22:54Z</time>
      </trkpt>
      <trkpt lat="59.145643" lon="18.435868">
        <ele>20.3</ele>
        <time>2014-10-11T11:22:55Z</time>
      </trkpt>
      <trkpt lat="59.145727" lon="18.435817">
        <ele>20.6</ele>
        <time>2014-10-11T11:22:56Z</time>
      </trkpt>
      <trkpt lat="59.145816" lon="18.435741">
        <ele>20.9</ele>
        <time>2014-10-11T11:22:57Z</time>
      </trkpt>
      <trkpt lat="59.145884" lon="18.435667">
        <ele>21.2</ele>
        <time>2014-10-11T11:22:58Z</time>
      </trkpt>
      <trkpt lat="59.145938" lon="18.435564">
        <ele>21.3</ele>
        <time>2014-10-11T11:22:59Z</time>
      </trkpt>
      <trkpt lat="59.146" lon="18.435497">
        <ele>21.4</ele>
        <time>2014-10-11T11:23:00Z</time>
      </trkpt>
      <trkpt lat="59.146071" lon="18.435423">
        <ele>21.6</ele>
        <time>2014-10-11T11:23:01Z</time>
      </trkpt>
      <trkpt lat="59.146153" lon="18.435347">
        <ele>22.1</ele>
        <time>2014-10-11T11:23:02Z</time>
      </trkpt>
      <trkpt lat="59.146209" lon="18.435273">
        <ele>22.6</ele>
        <time>2014-10-11T11:23:03Z</time>
      </trkpt>
      <trkpt lat="59.146275" lon="18.435196">
        <ele>23.2</ele>
        <time>2014-10-11T11:23:04Z</time>
      </trkpt>
      <trkpt lat="59.146346" lon="18.435114">
        <ele>23.9</ele>
        <time>2014-10-11T11:23:05Z</time>
      </trkpt>
      <trkpt lat="59.14641" lon="18.435048">
        <ele>24.5</ele>
        <time>2014-10-11T11:23:06Z</time>
      </trkpt>
      <trkpt lat="59.146478" lon="18.434961">
        <ele>25.1</ele>
        <time>2014-10-11T11:23:07Z</time>
      </trkpt>
      <trkpt lat="59.146542" lon="18.434898">
        <ele>25.6</ele>
        <time>2014-10-11T11:23:08Z</time>
      </trkpt>
      <trkpt lat="59.146606" lon="18.434839">
        <ele>26</ele>
        <time>2014-10-11T11:23:09Z</time>
      </trkpt>
      <trkpt lat="59.146674" lon="18.434781">
        <ele>26.4</ele>
        <time>2014-10-11T11:23:10Z</time>
      </trkpt>
      <trkpt lat="59.146734" lon="18.434748">
        <ele>26.7</ele>
        <time>2014-10-11T11:23:11Z</time>
      </trkpt>
      <trkpt lat="59.146807" lon="18.434707">
        <ele>27</ele>
        <time>2014-10-11T11:23:12Z</time>
      </trkpt>
      <trkpt lat="59.146884" lon="18.434676">
        <ele>27.3</ele>
        <time>2014-10-11T11:23:13Z</time>
      </trkpt>
      <trkpt lat="59.146954" lon="18.434654">
        <ele>27.6</ele>
        <time>2014-10-11T11:23:14Z</time>
      </trkpt>
      <trkpt lat="59.147035" lon="18.434618">
        <ele>27.8</ele>
        <time>2014-10-11T11:23:15Z</time>
      </trkpt>
      <trkpt lat="59.147107" lon="18.434586">
        <ele>28</ele>
        <time>2014-10-11T11:23:16Z</time>
      </trkpt>
      <trkpt lat="59.147189" lon="18.434544">
        <ele>27.9</ele>
        <time>2014-10-11T11:23:17Z</time>
      </trkpt>
      <trkpt lat="59.147275" lon="18.434499">
        <ele>27.8</ele>
        <time>2014-10-11T11:23:18Z</time>
      </trkpt>
      <trkpt lat="59.147353" lon="18.434457">
        <ele>27.7</ele>
        <time>2014-10-11T11:23:19Z</time>
      </trkpt>
      <trkpt lat="59.147441" lon="18.434402">
        <ele>27.6</ele>
        <time>2014-10-11T11:23:20Z</time>
      </trkpt>
      <trkpt lat="59.147529" lon="18.434338">
        <ele>27.4</ele>
        <time>2014-10-11T11:23:21Z</time>
      </trkpt>
      <trkpt lat="59.147595" lon="18.434285">
        <ele>27.3</ele>
        <time>2014-10-11T11:23:22Z</time>
      </trkpt>
      <trkpt lat="59.147667" lon="18.434217">
        <ele>27.1</ele>
        <time>2014-10-11T11:23:23Z</time>
      </trkpt>
      <trkpt lat="59.147742" lon="18.434162">
        <ele>26.9</ele>
        <time>2014-10-11T11:23:24Z</time>
      </trkpt>
      <trkpt lat="59.14782" lon="18.43412">
        <ele>26.7</ele>
        <time>2014-10-11T11:23:25Z</time>
      </trkpt>
      <trkpt lat="59.147894" lon="18.434053">
        <ele>26.4</ele>
        <time>2014-10-11T11:23:26Z</time>
      </trkpt>
      <trkpt lat="59.147963" lon="18.433977">
        <ele>26</ele>
        <time>2014-10-11T11:23:27Z</time>
      </trkpt>
      <trkpt lat="59.148048" lon="18.433907">
        <ele>25.5</ele>
        <time>2014-10-11T11:23:28Z</time>
      </trkpt>
      <trkpt lat="59.148131" lon="18.43384">
        <ele>24.9</ele>
        <time>2014-10-11T11:23:29Z</time>
      </trkpt>
      <trkpt lat="59.148212" lon="18.433779">
        <ele>24.3</ele>
        <time>2014-10-11T11:23:30Z</time>
      </trkpt>
      <trkpt lat="59.148298" lon="18.433713">
        <ele>23.9</ele>
        <time>2014-10-11T11:23:31Z</time>
      </trkpt>
      <trkpt lat="59.148386" lon="18.433668">
        <ele>23.6</ele>
        <time>2014-10-11T11:23:32Z</time>
      </trkpt>
      <trkpt lat="59.148476" lon="18.433597">
        <ele>23.3</ele>
        <time>2014-10-11T11:23:33Z</time>
      </trkpt>
      <trkpt lat="59.148536" lon="18.433509">
        <ele>23.3</ele>
        <time>2014-10-11T11:23:34Z</time>
      </trkpt>
      <trkpt lat="59.148615" lon="18.433439">
        <ele>23.1</ele>
        <time>2014-10-11T11:23:35Z</time>
      </trkpt>
      <trkpt lat="59.148699" lon="18.433369">
        <ele>22.7</ele>
        <time>2014-10-11T11:23:36Z</time>
      </trkpt>
      <trkpt lat="59.148784" lon="18.433297">
        <ele>22.5</ele>
        <time>2014-10-11T11:23:37Z</time>
      </trkpt>
      <trkpt lat="59.148856" lon="18.433226">
        <ele>22.5</ele>
        <time>2014-10-11T11:23:38Z</time>
      </trkpt>
      <trkpt lat="59.148939" lon="18.433167">
        <ele>22.3</ele>
        <time>2014-10-11T11:23:39Z</time>
      </trkpt>
      <trkpt lat="59.149021" lon="18.433103">
        <ele>22.1</ele>
        <time>2014-10-11T11:23:40Z</time>
      </trkpt>
      <trkpt lat="59.149113" lon="18.433053">
        <ele>21.7</ele>
        <time>2014-10-11T11:23:41Z</time>
      </trkpt>
      <trkpt lat="59.149203" lon="18.432993">
        <ele>21.3</ele>
        <time>2014-10-11T11:23:42Z</time>
      </trkpt>
      <trkpt lat="59.149288" lon="18.432954">
        <ele>20.8</ele>
        <time>2014-10-11T11:23:43Z</time>
      </trkpt>
      <trkpt lat="59.149377" lon="18.432936">
        <ele>20.3</ele>
        <time>2014-10-11T11:23:44Z</time>
      </trkpt>
      <trkpt lat="59.149451" lon="18.432931">
        <ele>19.8</ele>
        <time>2014-10-11T11:23:45Z</time>
      </trkpt>
      <trkpt lat="59.149518" lon="18.43294">
        <ele>19.4</ele>
        <time>2014-10-11T11:23:46Z</time>
      </trkpt>
      <trkpt lat="59.149577" lon="18.432967">
        <ele>19.2</ele>
        <time>2014-10-11T11:23:47Z</time>
      </trkpt>
      <trkpt lat="59.149628" lon="18.432976">
        <ele>19.1</ele>
        <time>2014-10-11T11:23:48Z</time>
      </trkpt>
      <trkpt lat="59.149675" lon="18.433005">
        <ele>19.2</ele>
        <time>2014-10-11T11:23:49Z</time>
      </trkpt>
      <trkpt lat="59.14972" lon="18.433023">
        <ele>19.2</ele>
        <time>2014-10-11T11:23:50Z</time>
      </trkpt>
      <trkpt lat="59.14976" lon="18.433044">
        <ele>19.3</ele>
        <time>2014-10-11T11:23:51Z</time>
      </trkpt>
      <trkpt lat="59.14979" lon="18.433057">
        <ele>19.3</ele>
        <time>2014-10-11T11:23:52Z</time>
      </trkpt>
      <trkpt lat="59.149827" lon="18.433072">
        <ele>19.4</ele>
        <time>2014-10-11T11:23:53Z</time>
      </trkpt>
      <trkpt lat="59.14986" lon="18.43311">
        <ele>19.5</ele>
        <time>2014-10-11T11:23:54Z</time>
      </trkpt>
      <trkpt lat="59.149913" lon="18.433143">
        <ele>19.7</ele>
        <time>2014-10-11T11:23:55Z</time>
      </trkpt>
      <trkpt lat="59.149952" lon="18.433156">
        <ele>19.8</ele>
        <time>2014-10-11T11:23:56Z</time>
      </trkpt>
      <trkpt lat="59.149993" lon="18.433187">
        <ele>20</ele>
        <time>2014-10-11T11:23:57Z</time>
      </trkpt>
      <trkpt lat="59.150054" lon="18.433223">
        <ele>20.2</ele>
        <time>2014-10-11T11:23:58Z</time>
      </trkpt>
      <trkpt lat="59.150101" lon="18.433252">
        <ele>20.4</ele>
        <time>2014-10-11T11:23:59Z</time>
      </trkpt>
      <trkpt lat="59.150163" lon="18.433269">
        <ele>20.6</ele>
        <time>2014-10-11T11:24:00Z</time>
      </trkpt>
      <trkpt lat="59.150238" lon="18.433259">
        <ele>20.6</ele>
        <time>2014-10-11T11:24:01Z</time>
      </trkpt>
      <trkpt lat="59.150303" lon="18.433252">
        <ele>20.7</ele>
        <time>2014-10-11T11:24:02Z</time>
      </trkpt>
      <trkpt lat="59.150394" lon="18.433215">
        <ele>20.5</ele>
        <time>2014-10-11T11:24:03Z</time>
      </trkpt>
      <trkpt lat="59.150475" lon="18.433202">
        <ele>6.1</ele>
        <time>2014-10-11T11:24:04Z</time>
      </trkpt>
      <trkpt lat="59.150592" lon="18.433238">
        <ele>6.4</ele>
        <time>2014-10-11T11:24:05Z</time>
      </trkpt>
      <trkpt lat="59.150701" lon="18.433278">
        <ele>6.6</ele>
        <time>2014-10-11T11:24:06Z</time>
      </trkpt>
      <trkpt lat="59.150803" lon="18.433309">
        <ele>7.3</ele>
        <time>2014-10-11T11:24:07Z</time>
      </trkpt>
      <trkpt lat="59.150947" lon="18.433369">
        <ele>7.9</ele>
        <time>2014-10-11T11:24:08Z</time>
      </trkpt>
      <trkpt lat="59.151047" lon="18.433407">
        <ele>6.8</ele>
        <time>2014-10-11T11:24:09Z</time>
      </trkpt>
      <trkpt lat="59.151134" lon="18.433441">
        <ele>5.3</ele>
        <time>2014-10-11T11:24:10Z</time>
      </trkpt>
      <trkpt lat="59.151244" lon="18.433491">
        <ele>3.3</ele>
        <time>2014-10-11T11:24:11Z</time>
      </trkpt>
      <trkpt lat="59.151334" lon="18.433575">
        <ele>4.6</ele>
        <time>2014-10-11T11:24:12Z</time>
      </trkpt>
      <trkpt lat="59.151417" lon="18.433657">
        <ele>5.2</ele>
        <time>2014-10-11T11:24:13Z</time>
      </trkpt>
      <trkpt lat="59.1515" lon="18.433746">
        <ele>5.1</ele>
        <time>2014-10-11T11:24:14Z</time>
      </trkpt>
      <trkpt lat="59.15158" lon="18.433843">
        <ele>15.9</ele>
        <time>2014-10-11T11:24:15Z</time>
      </trkpt>
      <trkpt lat="59.151635" lon="18.433975">
        <ele>16.4</ele>
        <time>2014-10-11T11:24:16Z</time>
      </trkpt>
      <trkpt lat="59.151688" lon="18.434085">
        <ele>16.7</ele>
        <time>2014-10-11T11:24:17Z</time>
      </trkpt>
      <trkpt lat="59.151731" lon="18.434214">
        <ele>17.4</ele>
        <time>2014-10-11T11:24:18Z</time>
      </trkpt>
      <trkpt lat="59.151781" lon="18.434367">
        <ele>18.1</ele>
        <time>2014-10-11T11:24:19Z</time>
      </trkpt>
      <trkpt lat="59.151835" lon="18.434497">
        <ele>18.5</ele>
        <time>2014-10-11T11:24:20Z</time>
      </trkpt>
      <trkpt lat="59.151891" lon="18.43464">
        <ele>19.1</ele>
        <time>2014-10-11T11:24:21Z</time>
      </trkpt>
      <trkpt lat="59.151947" lon="18.434745">
        <ele>19.4</ele>
        <time>2014-10-11T11:24:22Z</time>
      </trkpt>
      <trkpt lat="59.152016" lon="18.43487">
        <ele>19.7</ele>
        <time>2014-10-11T11:24:23Z</time>
      </trkpt>
      <trkpt lat="59.15209" lon="18.434992">
        <ele>19.8</ele>
        <time>2014-10-11T11:24:24Z</time>
      </trkpt>
      <trkpt lat="59.152169" lon="18.435107">
        <ele>19.6</ele>
        <time>2014-10-11T11:24:25Z</time>
      </trkpt>
      <trkpt lat="59.152237" lon="18.435174">
        <ele>19</ele>
        <time>2014-10-11T11:24:26Z</time>
      </trkpt>
      <trkpt lat="59.152311" lon="18.435261">
        <ele>18.4</ele>
        <time>2014-10-11T11:24:27Z</time>
      </trkpt>
      <trkpt lat="59.152395" lon="18.435357">
        <ele>17.6</ele>
        <time>2014-10-11T11:24:28Z</time>
      </trkpt>
      <trkpt lat="59.152484" lon="18.435416">
        <ele>16.3</ele>
        <time>2014-10-11T11:24:29Z</time>
      </trkpt>
      <trkpt lat="59.15258" lon="18.435477">
        <ele>15.3</ele>
        <time>2014-10-11T11:24:30Z</time>
      </trkpt>
      <trkpt lat="59.152674" lon="18.435527">
        <ele>14.2</ele>
        <time>2014-10-11T11:24:31Z</time>
      </trkpt>
      <trkpt lat="59.152764" lon="18.435572">
        <ele>13.2</ele>
        <time>2014-10-11T11:24:32Z</time>
      </trkpt>
      <trkpt lat="59.152851" lon="18.435592">
        <ele>11.9</ele>
        <time>2014-10-11T11:24:33Z</time>
      </trkpt>
      <trkpt lat="59.152938" lon="18.435613">
        <ele>11</ele>
        <time>2014-10-11T11:24:34Z</time>
      </trkpt>
      <trkpt lat="59.153032" lon="18.435639">
        <ele>11</ele>
        <time>2014-10-11T11:24:35Z</time>
      </trkpt>
      <trkpt lat="59.153114" lon="18.435668">
        <ele>11.2</ele>
        <time>2014-10-11T11:24:36Z</time>
      </trkpt>
      <trkpt lat="59.153185" lon="18.43569">
        <ele>11.2</ele>
        <time>2014-10-11T11:24:37Z</time>
      </trkpt>
      <trkpt lat="59.153255" lon="18.435719">
        <ele>11.3</ele>
        <time>2014-10-11T11:24:38Z</time>
      </trkpt>
      <trkpt lat="59.15332" lon="18.435757">
        <ele>11.6</ele>
        <time>2014-10-11T11:24:39Z</time>
      </trkpt>
      <trkpt lat="59.153371" lon="18.435792">
        <ele>11.8</ele>
        <time>2014-10-11T11:24:40Z</time>
      </trkpt>
      <trkpt lat="59.153405" lon="18.435804">
        <ele>11.8</ele>
        <time>2014-10-11T11:24:41Z</time>
      </trkpt>
      <trkpt lat="59.15344" lon="18.435831">
        <ele>12</ele>
        <time>2014-10-11T11:24:42Z</time>
      </trkpt>
      <trkpt lat="59.153503" lon="18.435844">
        <ele>11.8</ele>
        <time>2014-10-11T11:24:43Z</time>
      </trkpt>
      <trkpt lat="59.153546" lon="18.435893">
        <ele>12.2</ele>
        <time>2014-10-11T11:24:44Z</time>
      </trkpt>
      <trkpt lat="59.153581" lon="18.435921">
        <ele>12.3</ele>
        <time>2014-10-11T11:24:45Z</time>
      </trkpt>
      <trkpt lat="59.153612" lon="18.435945">
        <ele>12.5</ele>
        <time>2014-10-11T11:24:46Z</time>
      </trkpt>
      <trkpt lat="59.153672" lon="18.435988">
        <ele>12.6</ele>
        <time>2014-10-11T11:24:48Z</time>
      </trkpt>
      <trkpt lat="59.153718" lon="18.436039">
        <ele>12.9</ele>
        <time>2014-10-11T11:24:49Z</time>
      </trkpt>
      <trkpt lat="59.153741" lon="18.436073">
        <ele>13.1</ele>
        <time>2014-10-11T11:24:50Z</time>
      </trkpt>
      <trkpt lat="59.153764" lon="18.436123">
        <ele>13.6</ele>
        <time>2014-10-11T11:24:51Z</time>
      </trkpt>
      <trkpt lat="59.153785" lon="18.43621">
        <ele>14.6</ele>
        <time>2014-10-11T11:24:53Z</time>
      </trkpt>
      <trkpt lat="59.1538" lon="18.436254">
        <ele>15</ele>
        <time>2014-10-11T11:24:54Z</time>
      </trkpt>
      <trkpt lat="59.153808" lon="18.436309">
        <ele>15.6</ele>
        <time>2014-10-11T11:24:55Z</time>
      </trkpt>
      <trkpt lat="59.153825" lon="18.436369">
        <ele>16.3</ele>
        <time>2014-10-11T11:24:56Z</time>
      </trkpt>
      <trkpt lat="59.153842" lon="18.436426">
        <ele>16.9</ele>
        <time>2014-10-11T11:24:57Z</time>
      </trkpt>
      <trkpt lat="59.153859" lon="18.436487">
        <ele>17.5</ele>
        <time>2014-10-11T11:24:58Z</time>
      </trkpt>
      <trkpt lat="59.153876" lon="18.436554">
        <ele>18.2</ele>
        <time>2014-10-11T11:24:59Z</time>
      </trkpt>
      <trkpt lat="59.153892" lon="18.436624">
        <ele>18.9</ele>
        <time>2014-10-11T11:25:00Z</time>
      </trkpt>
      <trkpt lat="59.153907" lon="18.436691">
        <ele>19.6</ele>
        <time>2014-10-11T11:25:01Z</time>
      </trkpt>
      <trkpt lat="59.153923" lon="18.43677">
        <ele>20.4</ele>
        <time>2014-10-11T11:25:02Z</time>
      </trkpt>
      <trkpt lat="59.153959" lon="18.436924">
        <ele>21.9</ele>
        <time>2014-10-11T11:25:03Z</time>
      </trkpt>
      <trkpt lat="59.153976" lon="18.437012">
        <ele>22.7</ele>
        <time>2014-10-11T11:25:04Z</time>
      </trkpt>
      <trkpt lat="59.153977" lon="18.437108">
        <ele>23.6</ele>
        <time>2014-10-11T11:25:05Z</time>
      </trkpt>
      <trkpt lat="59.154" lon="18.437204">
        <ele>24.1</ele>
        <time>2014-10-11T11:25:06Z</time>
      </trkpt>
      <trkpt lat="59.154024" lon="18.437294">
        <ele>24.6</ele>
        <time>2014-10-11T11:25:07Z</time>
      </trkpt>
      <trkpt lat="59.154042" lon="18.437431">
        <ele>25.4</ele>
        <time>2014-10-11T11:25:08Z</time>
      </trkpt>
      <trkpt lat="59.154075" lon="18.437512">
        <ele>25.7</ele>
        <time>2014-10-11T11:25:09Z</time>
      </trkpt>
      <trkpt lat="59.154103" lon="18.437603">
        <ele>26.1</ele>
        <time>2014-10-11T11:25:10Z</time>
      </trkpt>
      <trkpt lat="59.154152" lon="18.437697">
        <ele>26.4</ele>
        <time>2014-10-11T11:25:11Z</time>
      </trkpt>
      <trkpt lat="59.154213" lon="18.437787">
        <ele>26.5</ele>
        <time>2014-10-11T11:25:12Z</time>
      </trkpt>
      <trkpt lat="59.154292" lon="18.437867">
        <ele>26.5</ele>
        <time>2014-10-11T11:25:13Z</time>
      </trkpt>
      <trkpt lat="59.154374" lon="18.43794">
        <ele>26.4</ele>
        <time>2014-10-11T11:25:14Z</time>
      </trkpt>
      <trkpt lat="59.154456" lon="18.437987">
        <ele>26.1</ele>
        <time>2014-10-11T11:25:15Z</time>
      </trkpt>
      <trkpt lat="59.154557" lon="18.438022">
        <ele>25.6</ele>
        <time>2014-10-11T11:25:16Z</time>
      </trkpt>
      <trkpt lat="59.154642" lon="18.438047">
        <ele>24.6</ele>
        <time>2014-10-11T11:25:17Z</time>
      </trkpt>
      <trkpt lat="59.154748" lon="18.438073">
        <ele>23.2</ele>
        <time>2014-10-11T11:25:18Z</time>
      </trkpt>
      <trkpt lat="59.154863" lon="18.4381">
        <ele>21.6</ele>
        <time>2014-10-11T11:25:19Z</time>
      </trkpt>
      <trkpt lat="59.154972" lon="18.438131">
        <ele>20.2</ele>
        <time>2014-10-11T11:25:20Z</time>
      </trkpt>
      <trkpt lat="59.155093" lon="18.438178">
        <ele>18.6</ele>
        <time>2014-10-11T11:25:21Z</time>
      </trkpt>
      <trkpt lat="59.155211" lon="18.438202">
        <ele>17</ele>
        <time>2014-10-11T11:25:22Z</time>
      </trkpt>
      <trkpt lat="59.1553" lon="18.438194">
        <ele>15.7</ele>
        <time>2014-10-11T11:25:23Z</time>
      </trkpt>
      <trkpt lat="59.1554" lon="18.438227">
        <ele>14.4</ele>
        <time>2014-10-11T11:25:24Z</time>
      </trkpt>
      <trkpt lat="59.155498" lon="18.438254">
        <ele>8.8</ele>
        <time>2014-10-11T11:25:25Z</time>
      </trkpt>
      <trkpt lat="59.155591" lon="18.438288">
        <ele>9.7</ele>
        <time>2014-10-11T11:25:26Z</time>
      </trkpt>
      <trkpt lat="59.155674" lon="18.438304">
        <ele>10.4</ele>
        <time>2014-10-11T11:25:27Z</time>
      </trkpt>
      <trkpt lat="59.155742" lon="18.438292">
        <ele>10.4</ele>
        <time>2014-10-11T11:25:28Z</time>
      </trkpt>
      <trkpt lat="59.155849" lon="18.438326">
        <ele>10.7</ele>
        <time>2014-10-11T11:25:29Z</time>
      </trkpt>
      <trkpt lat="59.155934" lon="18.438343">
        <ele>10.6</ele>
        <time>2014-10-11T11:25:30Z</time>
      </trkpt>
      <trkpt lat="59.156024" lon="18.438367">
        <ele>10.3</ele>
        <time>2014-10-11T11:25:31Z</time>
      </trkpt>
      <trkpt lat="59.156106" lon="18.438377">
        <ele>9.9</ele>
        <time>2014-10-11T11:25:32Z</time>
      </trkpt>
      <trkpt lat="59.156185" lon="18.438398">
        <ele>9.4</ele>
        <time>2014-10-11T11:25:33Z</time>
      </trkpt>
      <trkpt lat="59.156269" lon="18.438417">
        <ele>8.8</ele>
        <time>2014-10-11T11:25:34Z</time>
      </trkpt>
      <trkpt lat="59.156354" lon="18.438454">
        <ele>8</ele>
        <time>2014-10-11T11:25:35Z</time>
      </trkpt>
      <trkpt lat="59.156431" lon="18.438496">
        <ele>6.9</ele>
        <time>2014-10-11T11:25:36Z</time>
      </trkpt>
      <trkpt lat="59.156509" lon="18.438541">
        <ele>6.1</ele>
        <time>2014-10-11T11:25:37Z</time>
      </trkpt>
      <trkpt lat="59.15659" lon="18.438603">
        <ele>6.4</ele>
        <time>2014-10-11T11:25:38Z</time>
      </trkpt>
      <trkpt lat="59.156672" lon="18.438669">
        <ele>6</ele>
        <time>2014-10-11T11:25:39Z</time>
      </trkpt>
      <trkpt lat="59.156736" lon="18.438774">
        <ele>4.5</ele>
        <time>2014-10-11T11:25:40Z</time>
      </trkpt>
      <trkpt lat="59.156798" lon="18.438867">
        <ele>4</ele>
        <time>2014-10-11T11:25:41Z</time>
      </trkpt>
      <trkpt lat="59.156864" lon="18.438945">
        <ele>4.4</ele>
        <time>2014-10-11T11:25:42Z</time>
      </trkpt>
      <trkpt lat="59.156928" lon="18.439023">
        <ele>4.1</ele>
        <time>2014-10-11T11:25:43Z</time>
      </trkpt>
      <trkpt lat="59.156987" lon="18.439098">
        <ele>4.1</ele>
        <time>2014-10-11T11:25:44Z</time>
      </trkpt>
      <trkpt lat="59.157056" lon="18.439163">
        <ele>4</ele>
        <time>2014-10-11T11:25:45Z</time>
      </trkpt>
      <trkpt lat="59.157115" lon="18.439225">
        <ele>4.2</ele>
        <time>2014-10-11T11:25:46Z</time>
      </trkpt>
      <trkpt lat="59.157181" lon="18.439266">
        <ele>4.3</ele>
        <time>2014-10-11T11:25:47Z</time>
      </trkpt>
      <trkpt lat="59.157248" lon="18.439325">
        <ele>4</ele>
        <time>2014-10-11T11:25:48Z</time>
      </trkpt>
      <trkpt lat="59.157313" lon="18.439395">
        <ele>4.1</ele>
        <time>2014-10-11T11:25:49Z</time>
      </trkpt>
      <trkpt lat="59.157376" lon="18.439462">
        <ele>4</ele>
        <time>2014-10-11T11:25:50Z</time>
      </trkpt>
      <trkpt lat="59.157447" lon="18.439516">
        <ele>4</ele>
        <time>2014-10-11T11:25:51Z</time>
      </trkpt>
      <trkpt lat="59.157516" lon="18.439591">
        <ele>12.6</ele>
        <time>2014-10-11T11:25:52Z</time>
      </trkpt>
      <trkpt lat="59.157592" lon="18.439668">
        <ele>13.4</ele>
        <time>2014-10-11T11:25:53Z</time>
      </trkpt>
      <trkpt lat="59.157662" lon="18.439714">
        <ele>13.8</ele>
        <time>2014-10-11T11:25:54Z</time>
      </trkpt>
      <trkpt lat="59.157741" lon="18.439776">
        <ele>14.3</ele>
        <time>2014-10-11T11:25:55Z</time>
      </trkpt>
      <trkpt lat="59.157819" lon="18.439828">
        <ele>14.6</ele>
        <time>2014-10-11T11:25:56Z</time>
      </trkpt>
      <trkpt lat="59.157894" lon="18.439878">
        <ele>14.8</ele>
        <time>2014-10-11T11:25:57Z</time>
      </trkpt>
      <trkpt lat="59.157979" lon="18.439936">
        <ele>15</ele>
        <time>2014-10-11T11:25:58Z</time>
      </trkpt>
      <trkpt lat="59.158052" lon="18.439984">
        <ele>15.1</ele>
        <time>2014-10-11T11:25:59Z</time>
      </trkpt>
      <trkpt lat="59.158154" lon="18.440034">
        <ele>15.1</ele>
        <time>2014-10-11T11:26:00Z</time>
      </trkpt>
      <trkpt lat="59.158246" lon="18.440084">
        <ele>15</ele>
        <time>2014-10-11T11:26:01Z</time>
      </trkpt>
      <trkpt lat="59.15833" lon="18.440115">
        <ele>14.8</ele>
        <time>2014-10-11T11:26:02Z</time>
      </trkpt>
      <trkpt lat="59.158405" lon="18.440152">
        <ele>14.6</ele>
        <time>2014-10-11T11:26:03Z</time>
      </trkpt>
      <trkpt lat="59.158484" lon="18.440191">
        <ele>14.3</ele>
        <time>2014-10-11T11:26:04Z</time>
      </trkpt>
      <trkpt lat="59.158568" lon="18.440221">
        <ele>14</ele>
        <time>2014-10-11T11:26:05Z</time>
      </trkpt>
      <trkpt lat="59.158642" lon="18.440254">
        <ele>13.7</ele>
        <time>2014-10-11T11:26:06Z</time>
      </trkpt>
      <trkpt lat="59.158719" lon="18.440289">
        <ele>13.3</ele>
        <time>2014-10-11T11:26:07Z</time>
      </trkpt>
      <trkpt lat="59.158792" lon="18.440326">
        <ele>13.4</ele>
        <time>2014-10-11T11:26:08Z</time>
      </trkpt>
      <trkpt lat="59.158867" lon="18.440384">
        <ele>13.9</ele>
        <time>2014-10-11T11:26:09Z</time>
      </trkpt>
      <trkpt lat="59.158925" lon="18.440426">
        <ele>14.3</ele>
        <time>2014-10-11T11:26:10Z</time>
      </trkpt>
      <trkpt lat="59.158977" lon="18.440462">
        <ele>14.8</ele>
        <time>2014-10-11T11:26:11Z</time>
      </trkpt>
      <trkpt lat="59.15903" lon="18.440527">
        <ele>15.3</ele>
        <time>2014-10-11T11:26:12Z</time>
      </trkpt>
      <trkpt lat="59.159068" lon="18.440603">
        <ele>15.8</ele>
        <time>2014-10-11T11:26:13Z</time>
      </trkpt>
      <trkpt lat="59.159109" lon="18.440658">
        <ele>16.1</ele>
        <time>2014-10-11T11:26:14Z</time>
      </trkpt>
      <trkpt lat="59.159148" lon="18.440718">
        <ele>16.4</ele>
        <time>2014-10-11T11:26:15Z</time>
      </trkpt>
      <trkpt lat="59.159191" lon="18.440793">
        <ele>16.8</ele>
        <time>2014-10-11T11:26:16Z</time>
      </trkpt>
      <trkpt lat="59.159234" lon="18.440874">
        <ele>17.1</ele>
        <time>2014-10-11T11:26:17Z</time>
      </trkpt>
      <trkpt lat="59.159276" lon="18.440947">
        <ele>17.3</ele>
        <time>2014-10-11T11:26:18Z</time>
      </trkpt>
      <trkpt lat="59.159321" lon="18.441044">
        <ele>17.5</ele>
        <time>2014-10-11T11:26:19Z</time>
      </trkpt>
      <trkpt lat="59.159376" lon="18.441134">
        <ele>17.7</ele>
        <time>2014-10-11T11:26:20Z</time>
      </trkpt>
      <trkpt lat="59.159441" lon="18.441225">
        <ele>17.8</ele>
        <time>2014-10-11T11:26:21Z</time>
      </trkpt>
      <trkpt lat="59.15948" lon="18.441308">
        <ele>17.9</ele>
        <time>2014-10-11T11:26:22Z</time>
      </trkpt>
      <trkpt lat="59.159519" lon="18.44141">
        <ele>17.8</ele>
        <time>2014-10-11T11:26:23Z</time>
      </trkpt>
      <trkpt lat="59.159563" lon="18.441489">
        <ele>17.7</ele>
        <time>2014-10-11T11:26:24Z</time>
      </trkpt>
      <trkpt lat="59.159604" lon="18.441592">
        <ele>17.8</ele>
        <time>2014-10-11T11:26:25Z</time>
      </trkpt>
      <trkpt lat="59.159645" lon="18.441685">
        <ele>18.1</ele>
        <time>2014-10-11T11:26:26Z</time>
      </trkpt>
      <trkpt lat="59.159682" lon="18.441785">
        <ele>18.3</ele>
        <time>2014-10-11T11:26:27Z</time>
      </trkpt>
      <trkpt lat="59.159712" lon="18.441888">
        <ele>18.4</ele>
        <time>2014-10-11T11:26:28Z</time>
      </trkpt>
      <trkpt lat="59.159742" lon="18.441992">
        <ele>18.5</ele>
        <time>2014-10-11T11:26:29Z</time>
      </trkpt>
      <trkpt lat="59.159772" lon="18.442112">
        <ele>18.6</ele>
        <time>2014-10-11T11:26:30Z</time>
      </trkpt>
      <trkpt lat="59.159794" lon="18.442223">
        <ele>18.9</ele>
        <time>2014-10-11T11:26:31Z</time>
      </trkpt>
      <trkpt lat="59.15981" lon="18.442339">
        <ele>19</ele>
        <time>2014-10-11T11:26:32Z</time>
      </trkpt>
      <trkpt lat="59.159819" lon="18.442461">
        <ele>19.2</ele>
        <time>2014-10-11T11:26:33Z</time>
      </trkpt>
      <trkpt lat="59.159832" lon="18.442571">
        <ele>19.3</ele>
        <time>2014-10-11T11:26:34Z</time>
      </trkpt>
      <trkpt lat="59.159842" lon="18.442675">
        <ele>19.4</ele>
        <time>2014-10-11T11:26:35Z</time>
      </trkpt>
      <trkpt lat="59.159856" lon="18.442799">
        <ele>19.6</ele>
        <time>2014-10-11T11:26:36Z</time>
      </trkpt>
      <trkpt lat="59.159866" lon="18.442907">
        <ele>19.7</ele>
        <time>2014-10-11T11:26:37Z</time>
      </trkpt>
      <trkpt lat="59.159881" lon="18.443041">
        <ele>19.9</ele>
        <time>2014-10-11T11:26:38Z</time>
      </trkpt>
      <trkpt lat="59.159891" lon="18.443153">
        <ele>20.1</ele>
        <time>2014-10-11T11:26:39Z</time>
      </trkpt>
      <trkpt lat="59.159905" lon="18.443261">
        <ele>20.3</ele>
        <time>2014-10-11T11:26:40Z</time>
      </trkpt>
      <trkpt lat="59.159922" lon="18.443402">
        <ele>20.5</ele>
        <time>2014-10-11T11:26:41Z</time>
      </trkpt>
      <trkpt lat="59.159924" lon="18.443515">
        <ele>20.6</ele>
        <time>2014-10-11T11:26:42Z</time>
      </trkpt>
      <trkpt lat="59.159919" lon="18.443632">
        <ele>20.7</ele>
        <time>2014-10-11T11:26:43Z</time>
      </trkpt>
      <trkpt lat="59.15993" lon="18.443733">
        <ele>20.8</ele>
        <time>2014-10-11T11:26:44Z</time>
      </trkpt>
      <trkpt lat="59.159946" lon="18.443836">
        <ele>20.8</ele>
        <time>2014-10-11T11:26:45Z</time>
      </trkpt>
      <trkpt lat="59.159978" lon="18.443933">
        <ele>20.8</ele>
        <time>2014-10-11T11:26:46Z</time>
      </trkpt>
      <trkpt lat="59.16001" lon="18.444056">
        <ele>20.8</ele>
        <time>2014-10-11T11:26:47Z</time>
      </trkpt>
      <trkpt lat="59.160041" lon="18.444194">
        <ele>20.8</ele>
        <time>2014-10-11T11:26:48Z</time>
      </trkpt>
      <trkpt lat="59.160068" lon="18.444333">
        <ele>20.8</ele>
        <time>2014-10-11T11:26:49Z</time>
      </trkpt>
      <trkpt lat="59.160093" lon="18.444462">
        <ele>20.7</ele>
        <time>2014-10-11T11:26:50Z</time>
      </trkpt>
      <trkpt lat="59.160124" lon="18.444594">
        <ele>20.6</ele>
        <time>2014-10-11T11:26:51Z</time>
      </trkpt>
      <trkpt lat="59.160165" lon="18.444728">
        <ele>20.5</ele>
        <time>2014-10-11T11:26:52Z</time>
      </trkpt>
      <trkpt lat="59.16019" lon="18.444866">
        <ele>20.3</ele>
        <time>2014-10-11T11:26:53Z</time>
      </trkpt>
      <trkpt lat="59.160225" lon="18.445034">
        <ele>20.1</ele>
        <time>2014-10-11T11:26:54Z</time>
      </trkpt>
      <trkpt lat="59.160253" lon="18.445192">
        <ele>19.8</ele>
        <time>2014-10-11T11:26:55Z</time>
      </trkpt>
      <trkpt lat="59.160288" lon="18.445334">
        <ele>19.5</ele>
        <time>2014-10-11T11:26:56Z</time>
      </trkpt>
      <trkpt lat="59.160308" lon="18.445538">
        <ele>19</ele>
        <time>2014-10-11T11:26:57Z</time>
      </trkpt>
      <trkpt lat="59.160323" lon="18.445718">
        <ele>18.6</ele>
        <time>2014-10-11T11:26:58Z</time>
      </trkpt>
      <trkpt lat="59.160329" lon="18.445917">
        <ele>18.1</ele>
        <time>2014-10-11T11:26:59Z</time>
      </trkpt>
      <trkpt lat="59.160337" lon="18.446112">
        <ele>17.7</ele>
        <time>2014-10-11T11:27:00Z</time>
      </trkpt>
      <trkpt lat="59.16034" lon="18.446316">
        <ele>17.2</ele>
        <time>2014-10-11T11:27:01Z</time>
      </trkpt>
      <trkpt lat="59.160354" lon="18.446519">
        <ele>16.4</ele>
        <time>2014-10-11T11:27:02Z</time>
      </trkpt>
      <trkpt lat="59.160358" lon="18.446707">
        <ele>15.8</ele>
        <time>2014-10-11T11:27:03Z</time>
      </trkpt>
      <trkpt lat="59.160375" lon="18.446898">
        <ele>15</ele>
        <time>2014-10-11T11:27:04Z</time>
      </trkpt>
      <trkpt lat="59.160417" lon="18.447077">
        <ele>14</ele>
        <time>2014-10-11T11:27:05Z</time>
      </trkpt>
      <trkpt lat="59.160451" lon="18.447237">
        <ele>13.2</ele>
        <time>2014-10-11T11:27:06Z</time>
      </trkpt>
      <trkpt lat="59.16049" lon="18.447399">
        <ele>12.5</ele>
        <time>2014-10-11T11:27:07Z</time>
      </trkpt>
      <trkpt lat="59.160539" lon="18.447546">
        <ele>12.1</ele>
        <time>2014-10-11T11:27:08Z</time>
      </trkpt>
      <trkpt lat="59.160569" lon="18.447687">
        <ele>11.6</ele>
        <time>2014-10-11T11:27:09Z</time>
      </trkpt>
      <trkpt lat="59.160617" lon="18.447829">
        <ele>11.5</ele>
        <time>2014-10-11T11:27:10Z</time>
      </trkpt>
      <trkpt lat="59.16065" lon="18.44794">
        <ele>12.6</ele>
        <time>2014-10-11T11:27:11Z</time>
      </trkpt>
      <trkpt lat="59.16068" lon="18.448042">
        <ele>12.1</ele>
        <time>2014-10-11T11:27:12Z</time>
      </trkpt>
      <trkpt lat="59.160709" lon="18.448139">
        <ele>11.9</ele>
        <time>2014-10-11T11:27:13Z</time>
      </trkpt>
      <trkpt lat="59.160747" lon="18.448234">
        <ele>12.9</ele>
        <time>2014-10-11T11:27:14Z</time>
      </trkpt>
      <trkpt lat="59.160781" lon="18.448346">
        <ele>14.9</ele>
        <time>2014-10-11T11:27:15Z</time>
      </trkpt>
      <trkpt lat="59.160797" lon="18.448447">
        <ele>16.2</ele>
        <time>2014-10-11T11:27:16Z</time>
      </trkpt>
      <trkpt lat="59.16084" lon="18.448578">
        <ele>17.9</ele>
        <time>2014-10-11T11:27:17Z</time>
      </trkpt>
      <trkpt lat="59.160882" lon="18.448683">
        <ele>19.3</ele>
        <time>2014-10-11T11:27:18Z</time>
      </trkpt>
      <trkpt lat="59.160933" lon="18.448763">
        <ele>21.2</ele>
        <time>2014-10-11T11:27:19Z</time>
      </trkpt>
      <trkpt lat="59.160962" lon="18.448856">
        <ele>21.5</ele>
        <time>2014-10-11T11:27:20Z</time>
      </trkpt>
      <trkpt lat="59.160994" lon="18.448954">
        <ele>20.7</ele>
        <time>2014-10-11T11:27:21Z</time>
      </trkpt>
      <trkpt lat="59.16102" lon="18.449029">
        <ele>19.6</ele>
        <time>2014-10-11T11:27:22Z</time>
      </trkpt>
      <trkpt lat="59.16106" lon="18.449078">
        <ele>19</ele>
        <time>2014-10-11T11:27:23Z</time>
      </trkpt>
      <trkpt lat="59.161104" lon="18.449151">
        <ele>18.2</ele>
        <time>2014-10-11T11:27:24Z</time>
      </trkpt>
      <trkpt lat="59.161151" lon="18.449205">
        <ele>17.4</ele>
        <time>2014-10-11T11:27:25Z</time>
      </trkpt>
      <trkpt lat="59.161196" lon="18.449261">
        <ele>16.7</ele>
        <time>2014-10-11T11:27:26Z</time>
      </trkpt>
      <trkpt lat="59.16124" lon="18.449319">
        <ele>16.1</ele>
        <time>2014-10-11T11:27:27Z</time>
      </trkpt>
      <trkpt lat="59.161303" lon="18.449366">
        <ele>19.3</ele>
        <time>2014-10-11T11:27:28Z</time>
      </trkpt>
      <trkpt lat="59.161363" lon="18.449399">
        <ele>20.1</ele>
        <time>2014-10-11T11:27:29Z</time>
      </trkpt>
      <trkpt lat="59.16142" lon="18.449404">
        <ele>20.9</ele>
        <time>2014-10-11T11:27:30Z</time>
      </trkpt>
      <trkpt lat="59.161476" lon="18.449402">
        <ele>21.7</ele>
        <time>2014-10-11T11:27:31Z</time>
      </trkpt>
      <trkpt lat="59.161526" lon="18.449393">
        <ele>22.4</ele>
        <time>2014-10-11T11:27:32Z</time>
      </trkpt>
      <trkpt lat="59.161592" lon="18.449368">
        <ele>23.4</ele>
        <time>2014-10-11T11:27:33Z</time>
      </trkpt>
      <trkpt lat="59.161635" lon="18.449309">
        <ele>24.2</ele>
        <time>2014-10-11T11:27:34Z</time>
      </trkpt>
      <trkpt lat="59.16167" lon="18.449256">
        <ele>24.8</ele>
        <time>2014-10-11T11:27:35Z</time>
      </trkpt>
      <trkpt lat="59.161719" lon="18.449196">
        <ele>25.7</ele>
        <time>2014-10-11T11:27:36Z</time>
      </trkpt>
      <trkpt lat="59.161767" lon="18.449131">
        <ele>26.5</ele>
        <time>2014-10-11T11:27:37Z</time>
      </trkpt>
      <trkpt lat="59.161813" lon="18.44908">
        <ele>27.3</ele>
        <time>2014-10-11T11:27:38Z</time>
      </trkpt>
      <trkpt lat="59.161862" lon="18.44902">
        <ele>28.2</ele>
        <time>2014-10-11T11:27:39Z</time>
      </trkpt>
      <trkpt lat="59.161923" lon="18.448971">
        <ele>29.2</ele>
        <time>2014-10-11T11:27:40Z</time>
      </trkpt>
      <trkpt lat="59.161977" lon="18.448936">
        <ele>30</ele>
        <time>2014-10-11T11:27:41Z</time>
      </trkpt>
      <trkpt lat="59.162044" lon="18.448907">
        <ele>31.1</ele>
        <time>2014-10-11T11:27:42Z</time>
      </trkpt>
      <trkpt lat="59.162098" lon="18.448912">
        <ele>31.6</ele>
        <time>2014-10-11T11:27:43Z</time>
      </trkpt>
      <trkpt lat="59.16216" lon="18.448931">
        <ele>31.3</ele>
        <time>2014-10-11T11:27:44Z</time>
      </trkpt>
      <trkpt lat="59.162236" lon="18.448956">
        <ele>31</ele>
        <time>2014-10-11T11:27:45Z</time>
      </trkpt>
      <trkpt lat="59.162295" lon="18.448985">
        <ele>30.8</ele>
        <time>2014-10-11T11:27:46Z</time>
      </trkpt>
      <trkpt lat="59.162356" lon="18.449015">
        <ele>30.6</ele>
        <time>2014-10-11T11:27:47Z</time>
      </trkpt>
      <trkpt lat="59.162423" lon="18.449036">
        <ele>30.4</ele>
        <time>2014-10-11T11:27:48Z</time>
      </trkpt>
      <trkpt lat="59.162521" lon="18.449063">
        <ele>30.1</ele>
        <time>2014-10-11T11:27:49Z</time>
      </trkpt>
      <trkpt lat="59.162654" lon="18.449131">
        <ele>29.9</ele>
        <time>2014-10-11T11:27:50Z</time>
      </trkpt>
      <trkpt lat="59.162734" lon="18.449151">
        <ele>29.8</ele>
        <time>2014-10-11T11:27:51Z</time>
      </trkpt>
      <trkpt lat="59.162825" lon="18.449154">
        <ele>29.6</ele>
        <time>2014-10-11T11:27:52Z</time>
      </trkpt>
      <trkpt lat="59.162906" lon="18.449155">
        <ele>29.5</ele>
        <time>2014-10-11T11:27:53Z</time>
      </trkpt>
      <trkpt lat="59.162983" lon="18.449125">
        <ele>28.7</ele>
        <time>2014-10-11T11:27:54Z</time>
      </trkpt>
      <trkpt lat="59.163067" lon="18.449054">
        <ele>27.5</ele>
        <time>2014-10-11T11:27:55Z</time>
      </trkpt>
      <trkpt lat="59.16316" lon="18.448985">
        <ele>26.2</ele>
        <time>2014-10-11T11:27:56Z</time>
      </trkpt>
      <trkpt lat="59.163255" lon="18.448915">
        <ele>24.8</ele>
        <time>2014-10-11T11:27:57Z</time>
      </trkpt>
      <trkpt lat="59.163354" lon="18.448831">
        <ele>23.2</ele>
        <time>2014-10-11T11:27:58Z</time>
      </trkpt>
      <trkpt lat="59.163443" lon="18.44873">
        <ele>21.7</ele>
        <time>2014-10-11T11:27:59Z</time>
      </trkpt>
      <trkpt lat="59.163543" lon="18.44863">
        <ele>20.7</ele>
        <time>2014-10-11T11:28:00Z</time>
      </trkpt>
      <trkpt lat="59.16366" lon="18.44852">
        <ele>19.4</ele>
        <time>2014-10-11T11:28:01Z</time>
      </trkpt>
      <trkpt lat="59.16376" lon="18.448433">
        <ele>18.4</ele>
        <time>2014-10-11T11:28:02Z</time>
      </trkpt>
      <trkpt lat="59.163865" lon="18.448353">
        <ele>19.2</ele>
        <time>2014-10-11T11:28:03Z</time>
      </trkpt>
      <trkpt lat="59.163966" lon="18.448332">
        <ele>19.9</ele>
        <time>2014-10-11T11:28:04Z</time>
      </trkpt>
      <trkpt lat="59.164064" lon="18.448367">
        <ele>20.5</ele>
        <time>2014-10-11T11:28:05Z</time>
      </trkpt>
      <trkpt lat="59.164159" lon="18.448448">
        <ele>20.9</ele>
        <time>2014-10-11T11:28:06Z</time>
      </trkpt>
      <trkpt lat="59.164228" lon="18.448552">
        <ele>20.9</ele>
        <time>2014-10-11T11:28:07Z</time>
      </trkpt>
      <trkpt lat="59.1643" lon="18.448685">
        <ele>20.9</ele>
        <time>2014-10-11T11:28:08Z</time>
      </trkpt>
      <trkpt lat="59.164366" lon="18.448834">
        <ele>21</ele>
        <time>2014-10-11T11:28:09Z</time>
      </trkpt>
      <trkpt lat="59.164416" lon="18.448984">
        <ele>21.3</ele>
        <time>2014-10-11T11:28:10Z</time>
      </trkpt>
      <trkpt lat="59.164465" lon="18.449153">
        <ele>21.4</ele>
        <time>2014-10-11T11:28:11Z</time>
      </trkpt>
      <trkpt lat="59.164512" lon="18.44934">
        <ele>21.4</ele>
        <time>2014-10-11T11:28:12Z</time>
      </trkpt>
      <trkpt lat="59.164547" lon="18.449507">
        <ele>21.2</ele>
        <time>2014-10-11T11:28:13Z</time>
      </trkpt>
      <trkpt lat="59.164597" lon="18.449688">
        <ele>20.9</ele>
        <time>2014-10-11T11:28:14Z</time>
      </trkpt>
      <trkpt lat="59.164646" lon="18.449842">
        <ele>20.8</ele>
        <time>2014-10-11T11:28:15Z</time>
      </trkpt>
      <trkpt lat="59.164695" lon="18.450002">
        <ele>20.6</ele>
        <time>2014-10-11T11:28:16Z</time>
      </trkpt>
      <trkpt lat="59.164752" lon="18.45019">
        <ele>20.2</ele>
        <time>2014-10-11T11:28:17Z</time>
      </trkpt>
      <trkpt lat="59.164807" lon="18.450342">
        <ele>19.9</ele>
        <time>2014-10-11T11:28:18Z</time>
      </trkpt>
      <trkpt lat="59.164873" lon="18.450477">
        <ele>19.6</ele>
        <time>2014-10-11T11:28:19Z</time>
      </trkpt>
      <trkpt lat="59.164934" lon="18.450619">
        <ele>19.3</ele>
        <time>2014-10-11T11:28:20Z</time>
      </trkpt>
      <trkpt lat="59.16499" lon="18.450758">
        <ele>18.9</ele>
        <time>2014-10-11T11:28:21Z</time>
      </trkpt>
      <trkpt lat="59.165038" lon="18.450917">
        <ele>18.4</ele>
        <time>2014-10-11T11:28:22Z</time>
      </trkpt>
      <trkpt lat="59.165091" lon="18.451054">
        <ele>17.8</ele>
        <time>2014-10-11T11:28:23Z</time>
      </trkpt>
      <trkpt lat="59.165143" lon="18.451217">
        <ele>17.1</ele>
        <time>2014-10-11T11:28:24Z</time>
      </trkpt>
      <trkpt lat="59.165199" lon="18.451381">
        <ele>16.2</ele>
        <time>2014-10-11T11:28:25Z</time>
      </trkpt>
      <trkpt lat="59.165242" lon="18.451536">
        <ele>15.3</ele>
        <time>2014-10-11T11:28:26Z</time>
      </trkpt>
      <trkpt lat="59.165291" lon="18.451693">
        <ele>14.3</ele>
        <time>2014-10-11T11:28:27Z</time>
      </trkpt>
      <trkpt lat="59.165346" lon="18.451849">
        <ele>13</ele>
        <time>2014-10-11T11:28:28Z</time>
      </trkpt>
      <trkpt lat="59.165395" lon="18.451972">
        <ele>11.8</ele>
        <time>2014-10-11T11:28:29Z</time>
      </trkpt>
      <trkpt lat="59.165443" lon="18.452132">
        <ele>11.1</ele>
        <time>2014-10-11T11:28:30Z</time>
      </trkpt>
      <trkpt lat="59.165502" lon="18.452258">
        <ele>11.4</ele>
        <time>2014-10-11T11:28:31Z</time>
      </trkpt>
      <trkpt lat="59.16557" lon="18.452353">
        <ele>11.6</ele>
        <time>2014-10-11T11:28:32Z</time>
      </trkpt>
      <trkpt lat="59.16566" lon="18.452385">
        <ele>12</ele>
        <time>2014-10-11T11:28:33Z</time>
      </trkpt>
      <trkpt lat="59.165742" lon="18.452358">
        <ele>12.3</ele>
        <time>2014-10-11T11:28:34Z</time>
      </trkpt>
      <trkpt lat="59.165827" lon="18.452301">
        <ele>12.7</ele>
        <time>2014-10-11T11:28:35Z</time>
      </trkpt>
      <trkpt lat="59.165896" lon="18.452185">
        <ele>13.2</ele>
        <time>2014-10-11T11:28:36Z</time>
      </trkpt>
      <trkpt lat="59.165968" lon="18.452104">
        <ele>13.6</ele>
        <time>2014-10-11T11:28:37Z</time>
      </trkpt>
      <trkpt lat="59.166035" lon="18.452023">
        <ele>14.2</ele>
        <time>2014-10-11T11:28:38Z</time>
      </trkpt>
      <trkpt lat="59.166082" lon="18.451958">
        <ele>14.7</ele>
        <time>2014-10-11T11:28:39Z</time>
      </trkpt>
      <trkpt lat="59.166131" lon="18.451896">
        <ele>15.1</ele>
        <time>2014-10-11T11:28:40Z</time>
      </trkpt>
      <trkpt lat="59.166183" lon="18.451843">
        <ele>15.6</ele>
        <time>2014-10-11T11:28:41Z</time>
      </trkpt>
      <trkpt lat="59.166223" lon="18.451832">
        <ele>15.8</ele>
        <time>2014-10-11T11:28:42Z</time>
      </trkpt>
      <trkpt lat="59.166271" lon="18.451833">
        <ele>16.1</ele>
        <time>2014-10-11T11:28:44Z</time>
      </trkpt>
      <trkpt lat="59.166243" lon="18.451823">
        <ele>15.9</ele>
        <time>2014-10-11T11:28:46Z</time>
      </trkpt>
      <trkpt lat="59.166195" lon="18.45186">
        <ele>15.6</ele>
        <time>2014-10-11T11:28:49Z</time>
      </trkpt>
      <trkpt lat="59.166148" lon="18.451898">
        <ele>15.2</ele>
        <time>2014-10-11T11:31:24Z</time>
      </trkpt>
      <trkpt lat="59.1661" lon="18.451936">
        <ele>14.8</ele>
        <time>2014-10-11T11:31:25Z</time>
      </trkpt>
      <trkpt lat="59.166036" lon="18.452006">
        <ele>14.3</ele>
        <time>2014-10-11T11:31:26Z</time>
      </trkpt>
      <trkpt lat="59.16598" lon="18.452076">
        <ele>13.7</ele>
        <time>2014-10-11T11:31:27Z</time>
      </trkpt>
      <trkpt lat="59.165922" lon="18.452144">
        <ele>13.3</ele>
        <time>2014-10-11T11:31:28Z</time>
      </trkpt>
      <trkpt lat="59.165858" lon="18.4522">
        <ele>13</ele>
        <time>2014-10-11T11:31:29Z</time>
      </trkpt>
      <trkpt lat="59.165804" lon="18.452244">
        <ele>12.7</ele>
        <time>2014-10-11T11:31:30Z</time>
      </trkpt>
      <trkpt lat="59.165747" lon="18.452283">
        <ele>12.4</ele>
        <time>2014-10-11T11:31:31Z</time>
      </trkpt>
      <trkpt lat="59.165708" lon="18.452299">
        <ele>12.2</ele>
        <time>2014-10-11T11:31:32Z</time>
      </trkpt>
      <trkpt lat="59.165663" lon="18.452292">
        <ele>12</ele>
        <time>2014-10-11T11:31:33Z</time>
      </trkpt>
      <trkpt lat="59.165645" lon="18.452339">
        <ele>11.9</ele>
        <time>2014-10-11T11:31:34Z</time>
      </trkpt>
      <trkpt lat="59.165614" lon="18.452257">
        <ele>11.8</ele>
        <time>2014-10-11T11:31:35Z</time>
      </trkpt>
      <trkpt lat="59.165567" lon="18.452223">
        <ele>11.7</ele>
        <time>2014-10-11T11:31:36Z</time>
      </trkpt>
      <trkpt lat="59.165518" lon="18.452196">
        <ele>11.5</ele>
        <time>2014-10-11T11:31:37Z</time>
      </trkpt>
      <trkpt lat="59.16548" lon="18.452144">
        <ele>11.3</ele>
        <time>2014-10-11T11:31:41Z</time>
      </trkpt>
      <trkpt lat="59.165454" lon="18.452112">
        <ele>11.2</ele>
        <time>2014-10-11T11:31:44Z</time>
      </trkpt>
      <trkpt lat="59.165481" lon="18.452098">
        <ele>11.3</ele>
        <time>2014-10-11T11:31:52Z</time>
      </trkpt>
      <trkpt lat="59.165427" lon="18.451951">
        <ele>11.7</ele>
        <time>2014-10-11T11:34:52Z</time>
      </trkpt>
      <trkpt lat="59.165392" lon="18.451873">
        <ele>12.3</ele>
        <time>2014-10-11T11:34:54Z</time>
      </trkpt>
      <trkpt lat="59.165372" lon="18.451821">
        <ele>12.8</ele>
        <time>2014-10-11T11:34:55Z</time>
      </trkpt>
      <trkpt lat="59.165355" lon="18.451775">
        <ele>13.2</ele>
        <time>2014-10-11T11:34:56Z</time>
      </trkpt>
      <trkpt lat="59.165326" lon="18.451697">
        <ele>13.9</ele>
        <time>2014-10-11T11:34:57Z</time>
      </trkpt>
      <trkpt lat="59.165306" lon="18.451633">
        <ele>14.3</ele>
        <time>2014-10-11T11:34:58Z</time>
      </trkpt>
      <trkpt lat="59.165285" lon="18.45156">
        <ele>14.8</ele>
        <time>2014-10-11T11:34:59Z</time>
      </trkpt>
      <trkpt lat="59.165262" lon="18.451486">
        <ele>15.3</ele>
        <time>2014-10-11T11:35:00Z</time>
      </trkpt>
      <trkpt lat="59.165245" lon="18.451423">
        <ele>15.7</ele>
        <time>2014-10-11T11:35:01Z</time>
      </trkpt>
      <trkpt lat="59.165186" lon="18.45126">
        <ele>16.6</ele>
        <time>2014-10-11T11:35:02Z</time>
      </trkpt>
      <trkpt lat="59.165167" lon="18.451192">
        <ele>17</ele>
        <time>2014-10-11T11:35:03Z</time>
      </trkpt>
      <trkpt lat="59.165124" lon="18.451094">
        <ele>17.5</ele>
        <time>2014-10-11T11:35:04Z</time>
      </trkpt>
      <trkpt lat="59.165095" lon="18.451015">
        <ele>17.9</ele>
        <time>2014-10-11T11:35:05Z</time>
      </trkpt>
      <trkpt lat="59.165065" lon="18.450944">
        <ele>18.2</ele>
        <time>2014-10-11T11:35:06Z</time>
      </trkpt>
      <trkpt lat="59.165038" lon="18.450875">
        <ele>18.5</ele>
        <time>2014-10-11T11:35:07Z</time>
      </trkpt>
      <trkpt lat="59.165016" lon="18.450782">
        <ele>18.8</ele>
        <time>2014-10-11T11:35:08Z</time>
      </trkpt>
      <trkpt lat="59.164987" lon="18.450708">
        <ele>19</ele>
        <time>2014-10-11T11:35:09Z</time>
      </trkpt>
      <trkpt lat="59.164962" lon="18.450625">
        <ele>19.2</ele>
        <time>2014-10-11T11:35:10Z</time>
      </trkpt>
      <trkpt lat="59.164935" lon="18.450547">
        <ele>19.4</ele>
        <time>2014-10-11T11:35:11Z</time>
      </trkpt>
      <trkpt lat="59.164897" lon="18.450451">
        <ele>19.6</ele>
        <time>2014-10-11T11:35:12Z</time>
      </trkpt>
      <trkpt lat="59.164856" lon="18.450351">
        <ele>19.8</ele>
        <time>2014-10-11T11:35:13Z</time>
      </trkpt>
      <trkpt lat="59.164814" lon="18.450257">
        <ele>20.1</ele>
        <time>2014-10-11T11:35:14Z</time>
      </trkpt>
      <trkpt lat="59.164792" lon="18.450172">
        <ele>20.3</ele>
        <time>2014-10-11T11:35:15Z</time>
      </trkpt>
      <trkpt lat="59.164756" lon="18.450068">
        <ele>20.5</ele>
        <time>2014-10-11T11:35:16Z</time>
      </trkpt>
      <trkpt lat="59.164718" lon="18.449965">
        <ele>20.6</ele>
        <time>2014-10-11T11:35:17Z</time>
      </trkpt>
      <trkpt lat="59.164678" lon="18.449847">
        <ele>20.8</ele>
        <time>2014-10-11T11:35:18Z</time>
      </trkpt>
      <trkpt lat="59.164648" lon="18.449757">
        <ele>20.9</ele>
        <time>2014-10-11T11:35:19Z</time>
      </trkpt>
      <trkpt lat="59.164616" lon="18.44966">
        <ele>21</ele>
        <time>2014-10-11T11:35:20Z</time>
      </trkpt>
      <trkpt lat="59.164587" lon="18.44956">
        <ele>21</ele>
        <time>2014-10-11T11:35:21Z</time>
      </trkpt>
      <trkpt lat="59.164558" lon="18.449456">
        <ele>21.2</ele>
        <time>2014-10-11T11:35:22Z</time>
      </trkpt>
      <trkpt lat="59.164528" lon="18.44935">
        <ele>21.3</ele>
        <time>2014-10-11T11:35:23Z</time>
      </trkpt>
      <trkpt lat="59.164505" lon="18.449242">
        <ele>21.4</ele>
        <time>2014-10-11T11:35:24Z</time>
      </trkpt>
      <trkpt lat="59.164481" lon="18.449161">
        <ele>21.4</ele>
        <time>2014-10-11T11:35:25Z</time>
      </trkpt>
      <trkpt lat="59.164448" lon="18.44905">
        <ele>21.4</ele>
        <time>2014-10-11T11:35:26Z</time>
      </trkpt>
      <trkpt lat="59.164424" lon="18.448962">
        <ele>21.3</ele>
        <time>2014-10-11T11:35:27Z</time>
      </trkpt>
      <trkpt lat="59.16439" lon="18.44885">
        <ele>21.1</ele>
        <time>2014-10-11T11:35:28Z</time>
      </trkpt>
      <trkpt lat="59.164357" lon="18.448753">
        <ele>20.9</ele>
        <time>2014-10-11T11:35:29Z</time>
      </trkpt>
      <trkpt lat="59.164326" lon="18.448664">
        <ele>21.1</ele>
        <time>2014-10-11T11:35:30Z</time>
      </trkpt>
      <trkpt lat="59.164287" lon="18.448571">
        <ele>21.2</ele>
        <time>2014-10-11T11:35:31Z</time>
      </trkpt>
      <trkpt lat="59.164247" lon="18.448495">
        <ele>21.2</ele>
        <time>2014-10-11T11:35:32Z</time>
      </trkpt>
      <trkpt lat="59.164193" lon="18.448415">
        <ele>21.2</ele>
        <time>2014-10-11T11:35:33Z</time>
      </trkpt>
      <trkpt lat="59.164135" lon="18.448339">
        <ele>21</ele>
        <time>2014-10-11T11:35:34Z</time>
      </trkpt>
      <trkpt lat="59.164086" lon="18.448299">
        <ele>20.8</ele>
        <time>2014-10-11T11:35:35Z</time>
      </trkpt>
      <trkpt lat="59.16402" lon="18.448277">
        <ele>20.4</ele>
        <time>2014-10-11T11:35:36Z</time>
      </trkpt>
      <trkpt lat="59.163932" lon="18.448266">
        <ele>19.8</ele>
        <time>2014-10-11T11:35:37Z</time>
      </trkpt>
      <trkpt lat="59.163866" lon="18.448301">
        <ele>19.3</ele>
        <time>2014-10-11T11:35:38Z</time>
      </trkpt>
      <trkpt lat="59.163793" lon="18.448358">
        <ele>18.7</ele>
        <time>2014-10-11T11:35:39Z</time>
      </trkpt>
      <trkpt lat="59.163728" lon="18.448414">
        <ele>18.7</ele>
        <time>2014-10-11T11:35:40Z</time>
      </trkpt>
      <trkpt lat="59.163663" lon="18.448475">
        <ele>19.4</ele>
        <time>2014-10-11T11:35:41Z</time>
      </trkpt>
      <trkpt lat="59.163594" lon="18.448531">
        <ele>20.2</ele>
        <time>2014-10-11T11:35:42Z</time>
      </trkpt>
      <trkpt lat="59.163538" lon="18.448579">
        <ele>20.8</ele>
        <time>2014-10-11T11:35:43Z</time>
      </trkpt>
      <trkpt lat="59.16348" lon="18.448626">
        <ele>21.4</ele>
        <time>2014-10-11T11:35:44Z</time>
      </trkpt>
      <trkpt lat="59.163421" lon="18.448673">
        <ele>22.1</ele>
        <time>2014-10-11T11:35:45Z</time>
      </trkpt>
      <trkpt lat="59.163375" lon="18.448714">
        <ele>22.6</ele>
        <time>2014-10-11T11:35:46Z</time>
      </trkpt>
      <trkpt lat="59.163332" lon="18.448751">
        <ele>23</ele>
        <time>2014-10-11T11:35:47Z</time>
      </trkpt>
      <trkpt lat="59.163287" lon="18.448788">
        <ele>23.8</ele>
        <time>2014-10-11T11:35:48Z</time>
      </trkpt>
      <trkpt lat="59.163248" lon="18.448826">
        <ele>24.4</ele>
        <time>2014-10-11T11:35:49Z</time>
      </trkpt>
      <trkpt lat="59.16321" lon="18.448862">
        <ele>25</ele>
        <time>2014-10-11T11:35:50Z</time>
      </trkpt>
      <trkpt lat="59.163179" lon="18.448896">
        <ele>25.5</ele>
        <time>2014-10-11T11:35:51Z</time>
      </trkpt>
      <trkpt lat="59.163143" lon="18.44893">
        <ele>26.1</ele>
        <time>2014-10-11T11:35:52Z</time>
      </trkpt>
      <trkpt lat="59.163106" lon="18.448966">
        <ele>26.7</ele>
        <time>2014-10-11T11:35:53Z</time>
      </trkpt>
      <trkpt lat="59.163068" lon="18.448982">
        <ele>27.2</ele>
        <time>2014-10-11T11:35:54Z</time>
      </trkpt>
      <trkpt lat="59.163025" lon="18.449007">
        <ele>27.7</ele>
        <time>2014-10-11T11:35:55Z</time>
      </trkpt>
      <trkpt lat="59.162991" lon="18.449047">
        <ele>28.3</ele>
        <time>2014-10-11T11:35:56Z</time>
      </trkpt>
      <trkpt lat="59.162953" lon="18.449066">
        <ele>28.8</ele>
        <time>2014-10-11T11:35:57Z</time>
      </trkpt>
      <trkpt lat="59.162908" lon="18.449077">
        <ele>29.2</ele>
        <time>2014-10-11T11:35:58Z</time>
      </trkpt>
      <trkpt lat="59.16287" lon="18.44908">
        <ele>29.3</ele>
        <time>2014-10-11T11:35:59Z</time>
      </trkpt>
      <trkpt lat="59.162834" lon="18.449079">
        <ele>29.4</ele>
        <time>2014-10-11T11:36:00Z</time>
      </trkpt>
      <trkpt lat="59.162794" lon="18.449078">
        <ele>29.5</ele>
        <time>2014-10-11T11:36:01Z</time>
      </trkpt>
      <trkpt lat="59.162757" lon="18.44907">
        <ele>29.6</ele>
        <time>2014-10-11T11:36:02Z</time>
      </trkpt>
      <trkpt lat="59.162717" lon="18.449054">
        <ele>29.6</ele>
        <time>2014-10-11T11:36:03Z</time>
      </trkpt>
      <trkpt lat="59.162669" lon="18.449047">
        <ele>29.7</ele>
        <time>2014-10-11T11:36:04Z</time>
      </trkpt>
      <trkpt lat="59.162622" lon="18.449024">
        <ele>29.8</ele>
        <time>2014-10-11T11:36:05Z</time>
      </trkpt>
      <trkpt lat="59.162574" lon="18.448999">
        <ele>29.9</ele>
        <time>2014-10-11T11:36:06Z</time>
      </trkpt>
      <trkpt lat="59.16253" lon="18.448984">
        <ele>30</ele>
        <time>2014-10-11T11:36:07Z</time>
      </trkpt>
      <trkpt lat="59.162494" lon="18.448971">
        <ele>30.2</ele>
        <time>2014-10-11T11:36:08Z</time>
      </trkpt>
      <trkpt lat="59.162457" lon="18.44896">
        <ele>30.3</ele>
        <time>2014-10-11T11:36:09Z</time>
      </trkpt>
      <trkpt lat="59.162422" lon="18.448944">
        <ele>30.4</ele>
        <time>2014-10-11T11:36:10Z</time>
      </trkpt>
      <trkpt lat="59.162382" lon="18.448923">
        <ele>30.5</ele>
        <time>2014-10-11T11:36:11Z</time>
      </trkpt>
      <trkpt lat="59.162329" lon="18.448922">
        <ele>30.7</ele>
        <time>2014-10-11T11:36:13Z</time>
      </trkpt>
      <trkpt lat="59.162296" lon="18.448905">
        <ele>30.8</ele>
        <time>2014-10-11T11:36:14Z</time>
      </trkpt>
      <trkpt lat="59.162267" lon="18.448888">
        <ele>31</ele>
        <time>2014-10-11T11:36:15Z</time>
      </trkpt>
      <trkpt lat="59.162232" lon="18.448862">
        <ele>31.1</ele>
        <time>2014-10-11T11:36:16Z</time>
      </trkpt>
      <trkpt lat="59.162201" lon="18.44885">
        <ele>31.3</ele>
        <time>2014-10-11T11:36:17Z</time>
      </trkpt>
      <trkpt lat="59.162168" lon="18.44886">
        <ele>31.4</ele>
        <time>2014-10-11T11:36:18Z</time>
      </trkpt>
      <trkpt lat="59.162127" lon="18.448862">
        <ele>31.6</ele>
        <time>2014-10-11T11:36:19Z</time>
      </trkpt>
      <trkpt lat="59.162086" lon="18.448873">
        <ele>31.7</ele>
        <time>2014-10-11T11:36:20Z</time>
      </trkpt>
      <trkpt lat="59.162008" lon="18.448886">
        <ele>30.6</ele>
        <time>2014-10-11T11:36:21Z</time>
      </trkpt>
      <trkpt lat="59.161949" lon="18.448924">
        <ele>29.6</ele>
        <time>2014-10-11T11:36:22Z</time>
      </trkpt>
      <trkpt lat="59.161899" lon="18.448964">
        <ele>28.8</ele>
        <time>2014-10-11T11:36:23Z</time>
      </trkpt>
      <trkpt lat="59.161865" lon="18.449002">
        <ele>28.3</ele>
        <time>2014-10-11T11:36:24Z</time>
      </trkpt>
      <trkpt lat="59.161822" lon="18.449057">
        <ele>27.5</ele>
        <time>2014-10-11T11:36:25Z</time>
      </trkpt>
      <trkpt lat="59.161797" lon="18.449114">
        <ele>27</ele>
        <time>2014-10-11T11:36:26Z</time>
      </trkpt>
      <trkpt lat="59.161766" lon="18.449195">
        <ele>26.4</ele>
        <time>2014-10-11T11:36:27Z</time>
      </trkpt>
      <trkpt lat="59.161728" lon="18.449258">
        <ele>25.7</ele>
        <time>2014-10-11T11:36:28Z</time>
      </trkpt>
      <trkpt lat="59.161678" lon="18.449295">
        <ele>24.9</ele>
        <time>2014-10-11T11:36:29Z</time>
      </trkpt>
      <trkpt lat="59.161605" lon="18.449351">
        <ele>23.7</ele>
        <time>2014-10-11T11:36:30Z</time>
      </trkpt>
      <trkpt lat="59.161531" lon="18.449377">
        <ele>22.5</ele>
        <time>2014-10-11T11:36:31Z</time>
      </trkpt>
      <trkpt lat="59.161431" lon="18.449355">
        <ele>21.2</ele>
        <time>2014-10-11T11:36:32Z</time>
      </trkpt>
      <trkpt lat="59.161346" lon="18.449327">
        <ele>20</ele>
        <time>2014-10-11T11:36:33Z</time>
      </trkpt>
      <trkpt lat="59.161267" lon="18.449244">
        <ele>19.1</ele>
        <time>2014-10-11T11:36:34Z</time>
      </trkpt>
      <trkpt lat="59.161215" lon="18.449163">
        <ele>17.3</ele>
        <time>2014-10-11T11:36:35Z</time>
      </trkpt>
      <trkpt lat="59.161171" lon="18.449091">
        <ele>18.1</ele>
        <time>2014-10-11T11:36:36Z</time>
      </trkpt>
      <trkpt lat="59.161117" lon="18.448968">
        <ele>19.7</ele>
        <time>2014-10-11T11:36:37Z</time>
      </trkpt>
      <trkpt lat="59.161019" lon="18.448786">
        <ele>22.4</ele>
        <time>2014-10-11T11:36:38Z</time>
      </trkpt>
      <trkpt lat="59.160959" lon="18.448642">
        <ele>22.8</ele>
        <time>2014-10-11T11:36:39Z</time>
      </trkpt>
      <trkpt lat="59.160934" lon="18.448492">
        <ele>22.3</ele>
        <time>2014-10-11T11:36:40Z</time>
      </trkpt>
      <trkpt lat="59.160832" lon="18.44828">
        <ele>16.2</ele>
        <time>2014-10-11T11:36:41Z</time>
      </trkpt>
      <trkpt lat="59.160755" lon="18.44812">
        <ele>13.5</ele>
        <time>2014-10-11T11:36:42Z</time>
      </trkpt>
      <trkpt lat="59.160726" lon="18.447987">
        <ele>13.5</ele>
        <time>2014-10-11T11:36:43Z</time>
      </trkpt>
      <trkpt lat="59.16068" lon="18.447797">
        <ele>12.8</ele>
        <time>2014-10-11T11:36:44Z</time>
      </trkpt>
      <trkpt lat="59.160652" lon="18.447608">
        <ele>13.6</ele>
        <time>2014-10-11T11:36:45Z</time>
      </trkpt>
      <trkpt lat="59.160595" lon="18.447426">
        <ele>13.9</ele>
        <time>2014-10-11T11:36:46Z</time>
      </trkpt>
      <trkpt lat="59.160546" lon="18.447236">
        <ele>14.6</ele>
        <time>2014-10-11T11:36:47Z</time>
      </trkpt>
      <trkpt lat="59.160476" lon="18.446986">
        <ele>15.1</ele>
        <time>2014-10-11T11:36:48Z</time>
      </trkpt>
      <trkpt lat="59.16044" lon="18.446797">
        <ele>15.3</ele>
        <time>2014-10-11T11:36:49Z</time>
      </trkpt>
      <trkpt lat="59.160404" lon="18.446598">
        <ele>15.8</ele>
        <time>2014-10-11T11:36:50Z</time>
      </trkpt>
      <trkpt lat="59.16038" lon="18.446405">
        <ele>16.7</ele>
        <time>2014-10-11T11:36:51Z</time>
      </trkpt>
      <trkpt lat="59.160377" lon="18.446242">
        <ele>17.2</ele>
        <time>2014-10-11T11:36:52Z</time>
      </trkpt>
      <trkpt lat="59.160373" lon="18.44609">
        <ele>17.6</ele>
        <time>2014-10-11T11:36:53Z</time>
      </trkpt>
      <trkpt lat="59.160365" lon="18.445939">
        <ele>17.9</ele>
        <time>2014-10-11T11:36:54Z</time>
      </trkpt>
      <trkpt lat="59.160354" lon="18.445803">
        <ele>18.3</ele>
        <time>2014-10-11T11:36:55Z</time>
      </trkpt>
      <trkpt lat="59.160351" lon="18.445654">
        <ele>18.6</ele>
        <time>2014-10-11T11:36:56Z</time>
      </trkpt>
      <trkpt lat="59.160349" lon="18.445506">
        <ele>19</ele>
        <time>2014-10-11T11:36:57Z</time>
      </trkpt>
      <trkpt lat="59.160333" lon="18.445384">
        <ele>19.3</ele>
        <time>2014-10-11T11:36:58Z</time>
      </trkpt>
      <trkpt lat="59.16032" lon="18.445283">
        <ele>19.5</ele>
        <time>2014-10-11T11:36:59Z</time>
      </trkpt>
      <trkpt lat="59.160304" lon="18.445168">
        <ele>19.7</ele>
        <time>2014-10-11T11:37:00Z</time>
      </trkpt>
      <trkpt lat="59.160291" lon="18.44507">
        <ele>19.9</ele>
        <time>2014-10-11T11:37:01Z</time>
      </trkpt>
      <trkpt lat="59.160257" lon="18.444957">
        <ele>20.2</ele>
        <time>2014-10-11T11:37:02Z</time>
      </trkpt>
      <trkpt lat="59.160239" lon="18.444864">
        <ele>20.3</ele>
        <time>2014-10-11T11:37:03Z</time>
      </trkpt>
      <trkpt lat="59.160206" lon="18.444761">
        <ele>20.5</ele>
        <time>2014-10-11T11:37:04Z</time>
      </trkpt>
      <trkpt lat="59.160171" lon="18.444645">
        <ele>20.6</ele>
        <time>2014-10-11T11:37:05Z</time>
      </trkpt>
      <trkpt lat="59.160151" lon="18.444554">
        <ele>20.7</ele>
        <time>2014-10-11T11:37:06Z</time>
      </trkpt>
      <trkpt lat="59.160137" lon="18.444481">
        <ele>20.7</ele>
        <time>2014-10-11T11:37:07Z</time>
      </trkpt>
      <trkpt lat="59.160113" lon="18.444381">
        <ele>20.8</ele>
        <time>2014-10-11T11:37:08Z</time>
      </trkpt>
      <trkpt lat="59.160097" lon="18.444288">
        <ele>20.8</ele>
        <time>2014-10-11T11:37:09Z</time>
      </trkpt>
      <trkpt lat="59.160085" lon="18.44416">
        <ele>20.9</ele>
        <time>2014-10-11T11:37:10Z</time>
      </trkpt>
      <trkpt lat="59.160054" lon="18.444042">
        <ele>20.9</ele>
        <time>2014-10-11T11:37:11Z</time>
      </trkpt>
      <trkpt lat="59.16003" lon="18.443927">
        <ele>21</ele>
        <time>2014-10-11T11:37:12Z</time>
      </trkpt>
      <trkpt lat="59.159998" lon="18.443828">
        <ele>20.9</ele>
        <time>2014-10-11T11:37:13Z</time>
      </trkpt>
      <trkpt lat="59.159989" lon="18.443733">
        <ele>21</ele>
        <time>2014-10-11T11:37:14Z</time>
      </trkpt>
      <trkpt lat="59.159977" lon="18.44361">
        <ele>20.8</ele>
        <time>2014-10-11T11:37:15Z</time>
      </trkpt>
      <trkpt lat="59.159962" lon="18.443489">
        <ele>20.7</ele>
        <time>2014-10-11T11:37:16Z</time>
      </trkpt>
      <trkpt lat="59.159941" lon="18.44336">
        <ele>20.5</ele>
        <time>2014-10-11T11:37:17Z</time>
      </trkpt>
      <trkpt lat="59.159934" lon="18.443222">
        <ele>20.4</ele>
        <time>2014-10-11T11:37:18Z</time>
      </trkpt>
      <trkpt lat="59.159921" lon="18.443097">
        <ele>20.2</ele>
        <time>2014-10-11T11:37:19Z</time>
      </trkpt>
      <trkpt lat="59.159908" lon="18.442974">
        <ele>20</ele>
        <time>2014-10-11T11:37:20Z</time>
      </trkpt>
      <trkpt lat="59.159901" lon="18.442838">
        <ele>19.9</ele>
        <time>2014-10-11T11:37:21Z</time>
      </trkpt>
      <trkpt lat="59.159877" lon="18.442686">
        <ele>19.7</ele>
        <time>2014-10-11T11:37:22Z</time>
      </trkpt>
      <trkpt lat="59.159863" lon="18.442538">
        <ele>19.5</ele>
        <time>2014-10-11T11:37:23Z</time>
      </trkpt>
      <trkpt lat="59.159849" lon="18.442408">
        <ele>19.4</ele>
        <time>2014-10-11T11:37:24Z</time>
      </trkpt>
      <trkpt lat="59.159829" lon="18.442253">
        <ele>19.1</ele>
        <time>2014-10-11T11:37:25Z</time>
      </trkpt>
      <trkpt lat="59.159811" lon="18.442113">
        <ele>18.9</ele>
        <time>2014-10-11T11:37:26Z</time>
      </trkpt>
      <trkpt lat="59.159783" lon="18.441981">
        <ele>18.9</ele>
        <time>2014-10-11T11:37:27Z</time>
      </trkpt>
      <trkpt lat="59.159759" lon="18.441871">
        <ele>18.8</ele>
        <time>2014-10-11T11:37:28Z</time>
      </trkpt>
      <trkpt lat="59.159717" lon="18.441737">
        <ele>18.7</ele>
        <time>2014-10-11T11:37:29Z</time>
      </trkpt>
      <trkpt lat="59.159675" lon="18.441635">
        <ele>18.4</ele>
        <time>2014-10-11T11:37:30Z</time>
      </trkpt>
      <trkpt lat="59.159619" lon="18.441505">
        <ele>18.1</ele>
        <time>2014-10-11T11:37:31Z</time>
      </trkpt>
      <trkpt lat="59.159571" lon="18.441392">
        <ele>17.8</ele>
        <time>2014-10-11T11:37:32Z</time>
      </trkpt>
      <trkpt lat="59.159532" lon="18.441286">
        <ele>17.9</ele>
        <time>2014-10-11T11:37:33Z</time>
      </trkpt>
      <trkpt lat="59.15948" lon="18.441165">
        <ele>17.9</ele>
        <time>2014-10-11T11:37:34Z</time>
      </trkpt>
      <trkpt lat="59.159435" lon="18.441055">
        <ele>17.8</ele>
        <time>2014-10-11T11:37:35Z</time>
      </trkpt>
      <trkpt lat="59.15943" lon="18.440998">
        <ele>17.8</ele>
        <time>2014-10-11T11:37:36Z</time>
      </trkpt>
      <trkpt lat="59.159383" lon="18.440884">
        <ele>17.7</ele>
        <time>2014-10-11T11:37:37Z</time>
      </trkpt>
      <trkpt lat="59.159305" lon="18.44075">
        <ele>17.3</ele>
        <time>2014-10-11T11:37:38Z</time>
      </trkpt>
      <trkpt lat="59.159257" lon="18.440655">
        <ele>16.9</ele>
        <time>2014-10-11T11:37:39Z</time>
      </trkpt>
      <trkpt lat="59.159177" lon="18.440557">
        <ele>16.3</ele>
        <time>2014-10-11T11:37:40Z</time>
      </trkpt>
      <trkpt lat="59.159116" lon="18.440483">
        <ele>15.8</ele>
        <time>2014-10-11T11:37:41Z</time>
      </trkpt>
      <trkpt lat="59.159047" lon="18.440425">
        <ele>15.2</ele>
        <time>2014-10-11T11:37:42Z</time>
      </trkpt>
      <trkpt lat="59.158971" lon="18.440363">
        <ele>14.7</ele>
        <time>2014-10-11T11:37:43Z</time>
      </trkpt>
      <trkpt lat="59.15888" lon="18.440313">
        <ele>14.1</ele>
        <time>2014-10-11T11:37:44Z</time>
      </trkpt>
      <trkpt lat="59.158784" lon="18.440262">
        <ele>13.5</ele>
        <time>2014-10-11T11:37:45Z</time>
      </trkpt>
      <trkpt lat="59.158695" lon="18.440211">
        <ele>13.5</ele>
        <time>2014-10-11T11:37:46Z</time>
      </trkpt>
      <trkpt lat="59.158556" lon="18.440123">
        <ele>14</ele>
        <time>2014-10-11T11:37:47Z</time>
      </trkpt>
      <trkpt lat="59.158462" lon="18.44008">
        <ele>14.3</ele>
        <time>2014-10-11T11:37:48Z</time>
      </trkpt>
      <trkpt lat="59.158324" lon="18.440041">
        <ele>14.6</ele>
        <time>2014-10-11T11:37:49Z</time>
      </trkpt>
      <trkpt lat="59.158224" lon="18.439983">
        <ele>14.7</ele>
        <time>2014-10-11T11:37:50Z</time>
      </trkpt>
      <trkpt lat="59.158146" lon="18.439936">
        <ele>14.7</ele>
        <time>2014-10-11T11:37:51Z</time>
      </trkpt>
      <trkpt lat="59.158061" lon="18.43988">
        <ele>14.6</ele>
        <time>2014-10-11T11:37:52Z</time>
      </trkpt>
      <trkpt lat="59.157974" lon="18.43983">
        <ele>14.4</ele>
        <time>2014-10-11T11:37:53Z</time>
      </trkpt>
      <trkpt lat="59.157903" lon="18.439783">
        <ele>14.2</ele>
        <time>2014-10-11T11:37:54Z</time>
      </trkpt>
      <trkpt lat="59.157841" lon="18.439725">
        <ele>13.9</ele>
        <time>2014-10-11T11:37:55Z</time>
      </trkpt>
      <trkpt lat="59.157778" lon="18.439673">
        <ele>13.5</ele>
        <time>2014-10-11T11:37:56Z</time>
      </trkpt>
      <trkpt lat="59.157717" lon="18.439617">
        <ele>13</ele>
        <time>2014-10-11T11:37:57Z</time>
      </trkpt>
      <trkpt lat="59.157658" lon="18.43957">
        <ele>4.1</ele>
        <time>2014-10-11T11:37:58Z</time>
      </trkpt>
      <trkpt lat="59.157595" lon="18.439543">
        <ele>4</ele>
        <time>2014-10-11T11:37:59Z</time>
      </trkpt>
      <trkpt lat="59.157528" lon="18.439486">
        <ele>4</ele>
        <time>2014-10-11T11:38:00Z</time>
      </trkpt>
      <trkpt lat="59.157458" lon="18.439434">
        <ele>4</ele>
        <time>2014-10-11T11:38:01Z</time>
      </trkpt>
      <trkpt lat="59.1574" lon="18.439378">
        <ele>4</ele>
        <time>2014-10-11T11:38:02Z</time>
      </trkpt>
      <trkpt lat="59.157334" lon="18.439318">
        <ele>4</ele>
        <time>2014-10-11T11:38:03Z</time>
      </trkpt>
      <trkpt lat="59.157267" lon="18.439297">
        <ele>4.1</ele>
        <time>2014-10-11T11:38:04Z</time>
      </trkpt>
      <trkpt lat="59.15721" lon="18.439243">
        <ele>4.6</ele>
        <time>2014-10-11T11:38:05Z</time>
      </trkpt>
      <trkpt lat="59.157151" lon="18.439194">
        <ele>4.6</ele>
        <time>2014-10-11T11:38:06Z</time>
      </trkpt>
      <trkpt lat="59.157099" lon="18.43914">
        <ele>4.2</ele>
        <time>2014-10-11T11:38:07Z</time>
      </trkpt>
      <trkpt lat="59.157039" lon="18.439083">
        <ele>4</ele>
        <time>2014-10-11T11:38:08Z</time>
      </trkpt>
      <trkpt lat="59.156988" lon="18.439014">
        <ele>4.2</ele>
        <time>2014-10-11T11:38:09Z</time>
      </trkpt>
      <trkpt lat="59.156933" lon="18.438929">
        <ele>5.1</ele>
        <time>2014-10-11T11:38:10Z</time>
      </trkpt>
      <trkpt lat="59.156876" lon="18.438846">
        <ele>5.2</ele>
        <time>2014-10-11T11:38:11Z</time>
      </trkpt>
      <trkpt lat="59.156796" lon="18.438784">
        <ele>4.1</ele>
        <time>2014-10-11T11:38:12Z</time>
      </trkpt>
      <trkpt lat="59.156742" lon="18.438702">
        <ele>5.4</ele>
        <time>2014-10-11T11:38:13Z</time>
      </trkpt>
      <trkpt lat="59.156682" lon="18.438637">
        <ele>6.5</ele>
        <time>2014-10-11T11:38:14Z</time>
      </trkpt>
      <trkpt lat="59.156607" lon="18.438571">
        <ele>6.7</ele>
        <time>2014-10-11T11:38:15Z</time>
      </trkpt>
      <trkpt lat="59.156532" lon="18.438492">
        <ele>6.1</ele>
        <time>2014-10-11T11:38:16Z</time>
      </trkpt>
      <trkpt lat="59.156463" lon="18.438434">
        <ele>7</ele>
        <time>2014-10-11T11:38:17Z</time>
      </trkpt>
      <trkpt lat="59.1564" lon="18.438418">
        <ele>7.7</ele>
        <time>2014-10-11T11:38:18Z</time>
      </trkpt>
      <trkpt lat="59.15633" lon="18.438402">
        <ele>8.4</ele>
        <time>2014-10-11T11:38:19Z</time>
      </trkpt>
      <trkpt lat="59.156263" lon="18.438366">
        <ele>8.9</ele>
        <time>2014-10-11T11:38:20Z</time>
      </trkpt>
      <trkpt lat="59.156195" lon="18.438348">
        <ele>9.3</ele>
        <time>2014-10-11T11:38:21Z</time>
      </trkpt>
      <trkpt lat="59.15611" lon="18.43833">
        <ele>9.7</ele>
        <time>2014-10-11T11:38:22Z</time>
      </trkpt>
      <trkpt lat="59.156041" lon="18.438309">
        <ele>10.1</ele>
        <time>2014-10-11T11:38:23Z</time>
      </trkpt>
      <trkpt lat="59.155976" lon="18.438285">
        <ele>10.3</ele>
        <time>2014-10-11T11:38:24Z</time>
      </trkpt>
      <trkpt lat="59.15591" lon="18.438283">
        <ele>10.3</ele>
        <time>2014-10-11T11:38:25Z</time>
      </trkpt>
      <trkpt lat="59.155843" lon="18.438273">
        <ele>10.2</ele>
        <time>2014-10-11T11:38:26Z</time>
      </trkpt>
      <trkpt lat="59.155775" lon="18.438243">
        <ele>9.8</ele>
        <time>2014-10-11T11:38:27Z</time>
      </trkpt>
      <trkpt lat="59.155714" lon="18.438226">
        <ele>9.5</ele>
        <time>2014-10-11T11:38:28Z</time>
      </trkpt>
      <trkpt lat="59.15565" lon="18.438223">
        <ele>9.2</ele>
        <time>2014-10-11T11:38:29Z</time>
      </trkpt>
      <trkpt lat="59.155575" lon="18.4382">
        <ele>8.6</ele>
        <time>2014-10-11T11:38:30Z</time>
      </trkpt>
      <trkpt lat="59.1555" lon="18.438173">
        <ele>8.3</ele>
        <time>2014-10-11T11:38:31Z</time>
      </trkpt>
      <trkpt lat="59.155432" lon="18.438163">
        <ele>8.1</ele>
        <time>2014-10-11T11:38:32Z</time>
      </trkpt>
      <trkpt lat="59.155363" lon="18.438139">
        <ele>14.6</ele>
        <time>2014-10-11T11:38:33Z</time>
      </trkpt>
      <trkpt lat="59.155287" lon="18.438127">
        <ele>15.6</ele>
        <time>2014-10-11T11:38:34Z</time>
      </trkpt>
      <trkpt lat="59.155203" lon="18.438107">
        <ele>16.8</ele>
        <time>2014-10-11T11:38:35Z</time>
      </trkpt>
      <trkpt lat="59.155125" lon="18.438092">
        <ele>17.8</ele>
        <time>2014-10-11T11:38:36Z</time>
      </trkpt>
      <trkpt lat="59.155051" lon="18.438073">
        <ele>18.8</ele>
        <time>2014-10-11T11:38:37Z</time>
      </trkpt>
      <trkpt lat="59.154976" lon="18.438047">
        <ele>19.8</ele>
        <time>2014-10-11T11:38:38Z</time>
      </trkpt>
      <trkpt lat="59.15492" lon="18.438039">
        <ele>20.6</ele>
        <time>2014-10-11T11:38:39Z</time>
      </trkpt>
      <trkpt lat="59.154868" lon="18.438032">
        <ele>21.3</ele>
        <time>2014-10-11T11:38:40Z</time>
      </trkpt>
      <trkpt lat="59.154818" lon="18.438022">
        <ele>22</ele>
        <time>2014-10-11T11:38:41Z</time>
      </trkpt>
      <trkpt lat="59.154777" lon="18.438012">
        <ele>22.6</ele>
        <time>2014-10-11T11:38:42Z</time>
      </trkpt>
      <trkpt lat="59.154731" lon="18.438011">
        <ele>23.2</ele>
        <time>2014-10-11T11:38:43Z</time>
      </trkpt>
      <trkpt lat="59.154665" lon="18.437976">
        <ele>24</ele>
        <time>2014-10-11T11:38:44Z</time>
      </trkpt>
      <trkpt lat="59.15462" lon="18.437957">
        <ele>24.6</ele>
        <time>2014-10-11T11:38:45Z</time>
      </trkpt>
      <trkpt lat="59.15458" lon="18.437951">
        <ele>25.1</ele>
        <time>2014-10-11T11:38:46Z</time>
      </trkpt>
      <trkpt lat="59.154528" lon="18.437942">
        <ele>25.4</ele>
        <time>2014-10-11T11:38:48Z</time>
      </trkpt>
      <trkpt lat="59.154485" lon="18.437919">
        <ele>25.6</ele>
        <time>2014-10-11T11:38:49Z</time>
      </trkpt>
      <trkpt lat="59.154448" lon="18.43789">
        <ele>25.7</ele>
        <time>2014-10-11T11:38:50Z</time>
      </trkpt>
      <trkpt lat="59.154414" lon="18.437858">
        <ele>25.8</ele>
        <time>2014-10-11T11:38:51Z</time>
      </trkpt>
      <trkpt lat="59.154379" lon="18.437817">
        <ele>25.8</ele>
        <time>2014-10-11T11:38:52Z</time>
      </trkpt>
      <trkpt lat="59.154351" lon="18.437792">
        <ele>25.8</ele>
        <time>2014-10-11T11:38:53Z</time>
      </trkpt>
      <trkpt lat="59.154321" lon="18.43777">
        <ele>25.9</ele>
        <time>2014-10-11T11:38:54Z</time>
      </trkpt>
      <trkpt lat="59.154296" lon="18.437734">
        <ele>25.8</ele>
        <time>2014-10-11T11:38:55Z</time>
      </trkpt>
      <trkpt lat="59.15427" lon="18.437692">
        <ele>25.8</ele>
        <time>2014-10-11T11:38:56Z</time>
      </trkpt>
      <trkpt lat="59.154243" lon="18.437641">
        <ele>25.6</ele>
        <time>2014-10-11T11:38:57Z</time>
      </trkpt>
      <trkpt lat="59.154222" lon="18.437593">
        <ele>25.5</ele>
        <time>2014-10-11T11:38:58Z</time>
      </trkpt>
      <trkpt lat="59.154204" lon="18.437538">
        <ele>25.3</ele>
        <time>2014-10-11T11:38:59Z</time>
      </trkpt>
      <trkpt lat="59.154186" lon="18.437482">
        <ele>25.1</ele>
        <time>2014-10-11T11:39:00Z</time>
      </trkpt>
      <trkpt lat="59.154168" lon="18.437423">
        <ele>24.8</ele>
        <time>2014-10-11T11:39:01Z</time>
      </trkpt>
      <trkpt lat="59.15415" lon="18.437357">
        <ele>24.5</ele>
        <time>2014-10-11T11:39:02Z</time>
      </trkpt>
      <trkpt lat="59.154134" lon="18.437296">
        <ele>24.3</ele>
        <time>2014-10-11T11:39:03Z</time>
      </trkpt>
      <trkpt lat="59.154117" lon="18.437231">
        <ele>23.9</ele>
        <time>2014-10-11T11:39:04Z</time>
      </trkpt>
      <trkpt lat="59.154098" lon="18.437155">
        <ele>23.6</ele>
        <time>2014-10-11T11:39:05Z</time>
      </trkpt>
      <trkpt lat="59.154082" lon="18.437089">
        <ele>23.2</ele>
        <time>2014-10-11T11:39:06Z</time>
      </trkpt>
      <trkpt lat="59.154064" lon="18.437014">
        <ele>22.6</ele>
        <time>2014-10-11T11:39:07Z</time>
      </trkpt>
      <trkpt lat="59.154045" lon="18.436933">
        <ele>21.8</ele>
        <time>2014-10-11T11:39:08Z</time>
      </trkpt>
      <trkpt lat="59.154025" lon="18.43684">
        <ele>20.9</ele>
        <time>2014-10-11T11:39:09Z</time>
      </trkpt>
      <trkpt lat="59.154004" lon="18.436752">
        <ele>20.1</ele>
        <time>2014-10-11T11:39:10Z</time>
      </trkpt>
      <trkpt lat="59.153984" lon="18.436664">
        <ele>19.2</ele>
        <time>2014-10-11T11:39:11Z</time>
      </trkpt>
      <trkpt lat="59.153964" lon="18.436571">
        <ele>18.3</ele>
        <time>2014-10-11T11:39:12Z</time>
      </trkpt>
      <trkpt lat="59.153935" lon="18.436466">
        <ele>17.2</ele>
        <time>2014-10-11T11:39:13Z</time>
      </trkpt>
      <trkpt lat="59.153916" lon="18.436375">
        <ele>16.3</ele>
        <time>2014-10-11T11:39:14Z</time>
      </trkpt>
      <trkpt lat="59.153892" lon="18.43628">
        <ele>15.3</ele>
        <time>2014-10-11T11:39:15Z</time>
      </trkpt>
      <trkpt lat="59.15386" lon="18.436167">
        <ele>14.1</ele>
        <time>2014-10-11T11:39:16Z</time>
      </trkpt>
      <trkpt lat="59.153811" lon="18.436073">
        <ele>13.1</ele>
        <time>2014-10-11T11:39:17Z</time>
      </trkpt>
      <trkpt lat="59.153734" lon="18.43598">
        <ele>12.2</ele>
        <time>2014-10-11T11:39:18Z</time>
      </trkpt>
      <trkpt lat="59.153661" lon="18.435905">
        <ele>11.7</ele>
        <time>2014-10-11T11:39:19Z</time>
      </trkpt>
      <trkpt lat="59.153569" lon="18.435851">
        <ele>11.6</ele>
        <time>2014-10-11T11:39:20Z</time>
      </trkpt>
      <trkpt lat="59.153465" lon="18.435789">
        <ele>11.3</ele>
        <time>2014-10-11T11:39:21Z</time>
      </trkpt>
      <trkpt lat="59.153365" lon="18.435765">
        <ele>11.5</ele>
        <time>2014-10-11T11:39:22Z</time>
      </trkpt>
      <trkpt lat="59.153261" lon="18.435726">
        <ele>11.4</ele>
        <time>2014-10-11T11:39:23Z</time>
      </trkpt>
      <trkpt lat="59.153149" lon="18.435695">
        <ele>11.4</ele>
        <time>2014-10-11T11:39:24Z</time>
      </trkpt>
      <trkpt lat="59.153052" lon="18.435677">
        <ele>11.5</ele>
        <time>2014-10-11T11:39:25Z</time>
      </trkpt>
      <trkpt lat="59.152946" lon="18.435635">
        <ele>11.3</ele>
        <time>2014-10-11T11:39:26Z</time>
      </trkpt>
      <trkpt lat="59.152853" lon="18.435588">
        <ele>11.8</ele>
        <time>2014-10-11T11:39:27Z</time>
      </trkpt>
      <trkpt lat="59.152751" lon="18.435544">
        <ele>13</ele>
        <time>2014-10-11T11:39:28Z</time>
      </trkpt>
      <trkpt lat="59.152654" lon="18.435483">
        <ele>14</ele>
        <time>2014-10-11T11:39:29Z</time>
      </trkpt>
      <trkpt lat="59.152579" lon="18.435441">
        <ele>14.8</ele>
        <time>2014-10-11T11:39:30Z</time>
      </trkpt>
      <trkpt lat="59.1525" lon="18.435413">
        <ele>16</ele>
        <time>2014-10-11T11:39:31Z</time>
      </trkpt>
      <trkpt lat="59.152427" lon="18.435345">
        <ele>16.9</ele>
        <time>2014-10-11T11:39:32Z</time>
      </trkpt>
      <trkpt lat="59.152358" lon="18.435282">
        <ele>17.8</ele>
        <time>2014-10-11T11:39:33Z</time>
      </trkpt>
      <trkpt lat="59.152287" lon="18.435207">
        <ele>18.4</ele>
        <time>2014-10-11T11:39:34Z</time>
      </trkpt>
      <trkpt lat="59.152232" lon="18.435135">
        <ele>18.8</ele>
        <time>2014-10-11T11:39:35Z</time>
      </trkpt>
      <trkpt lat="59.152172" lon="18.435046">
        <ele>19</ele>
        <time>2014-10-11T11:39:36Z</time>
      </trkpt>
      <trkpt lat="59.152115" lon="18.434938">
        <ele>18.9</ele>
        <time>2014-10-11T11:39:37Z</time>
      </trkpt>
      <trkpt lat="59.152066" lon="18.434842">
        <ele>18.7</ele>
        <time>2014-10-11T11:39:38Z</time>
      </trkpt>
      <trkpt lat="59.152023" lon="18.43475">
        <ele>18.4</ele>
        <time>2014-10-11T11:39:39Z</time>
      </trkpt>
      <trkpt lat="59.151971" lon="18.434634">
        <ele>18</ele>
        <time>2014-10-11T11:39:40Z</time>
      </trkpt>
      <trkpt lat="59.151931" lon="18.434531">
        <ele>17.6</ele>
        <time>2014-10-11T11:39:41Z</time>
      </trkpt>
      <trkpt lat="59.151885" lon="18.434411">
        <ele>17.1</ele>
        <time>2014-10-11T11:39:42Z</time>
      </trkpt>
      <trkpt lat="59.151849" lon="18.434307">
        <ele>16.7</ele>
        <time>2014-10-11T11:39:43Z</time>
      </trkpt>
      <trkpt lat="59.151812" lon="18.434196">
        <ele>16.2</ele>
        <time>2014-10-11T11:39:44Z</time>
      </trkpt>
      <trkpt lat="59.151771" lon="18.43408">
        <ele>15.7</ele>
        <time>2014-10-11T11:39:45Z</time>
      </trkpt>
      <trkpt lat="59.151728" lon="18.433978">
        <ele>15.3</ele>
        <time>2014-10-11T11:39:46Z</time>
      </trkpt>
      <trkpt lat="59.151682" lon="18.433871">
        <ele>14.9</ele>
        <time>2014-10-11T11:39:47Z</time>
      </trkpt>
      <trkpt lat="59.151638" lon="18.433774">
        <ele>14.6</ele>
        <time>2014-10-11T11:39:48Z</time>
      </trkpt>
      <trkpt lat="59.151581" lon="18.433688">
        <ele>5.5</ele>
        <time>2014-10-11T11:39:49Z</time>
      </trkpt>
      <trkpt lat="59.151525" lon="18.433623">
        <ele>5.4</ele>
        <time>2014-10-11T11:39:50Z</time>
      </trkpt>
      <trkpt lat="59.151461" lon="18.433559">
        <ele>5.3</ele>
        <time>2014-10-11T11:39:51Z</time>
      </trkpt>
      <trkpt lat="59.151397" lon="18.433502">
        <ele>4.7</ele>
        <time>2014-10-11T11:39:52Z</time>
      </trkpt>
      <trkpt lat="59.151334" lon="18.433471">
        <ele>3.9</ele>
        <time>2014-10-11T11:39:53Z</time>
      </trkpt>
      <trkpt lat="59.151275" lon="18.433446">
        <ele>3.5</ele>
        <time>2014-10-11T11:39:54Z</time>
      </trkpt>
      <trkpt lat="59.151212" lon="18.433411">
        <ele>4.3</ele>
        <time>2014-10-11T11:39:55Z</time>
      </trkpt>
      <trkpt lat="59.151162" lon="18.43339">
        <ele>5.2</ele>
        <time>2014-10-11T11:39:56Z</time>
      </trkpt>
      <trkpt lat="59.151119" lon="18.433373">
        <ele>5.9</ele>
        <time>2014-10-11T11:39:57Z</time>
      </trkpt>
      <trkpt lat="59.151069" lon="18.433351">
        <ele>6.7</ele>
        <time>2014-10-11T11:39:58Z</time>
      </trkpt>
      <trkpt lat="59.151021" lon="18.433331">
        <ele>7.4</ele>
        <time>2014-10-11T11:39:59Z</time>
      </trkpt>
      <trkpt lat="59.150995" lon="18.433322">
        <ele>7.7</ele>
        <time>2014-10-11T11:40:00Z</time>
      </trkpt>
      <trkpt lat="59.150948" lon="18.433314">
        <ele>7.9</ele>
        <time>2014-10-11T11:40:01Z</time>
      </trkpt>
      <trkpt lat="59.15091" lon="18.433309">
        <ele>7.7</ele>
        <time>2014-10-11T11:40:02Z</time>
      </trkpt>
      <trkpt lat="59.150868" lon="18.433289">
        <ele>7.5</ele>
        <time>2014-10-11T11:40:03Z</time>
      </trkpt>
      <trkpt lat="59.150829" lon="18.433289">
        <ele>7.3</ele>
        <time>2014-10-11T11:40:04Z</time>
      </trkpt>
      <trkpt lat="59.150794" lon="18.433267">
        <ele>7.1</ele>
        <time>2014-10-11T11:40:05Z</time>
      </trkpt>
      <trkpt lat="59.150763" lon="18.433259">
        <ele>6.8</ele>
        <time>2014-10-11T11:40:06Z</time>
      </trkpt>
      <trkpt lat="59.150734" lon="18.433246">
        <ele>6.6</ele>
        <time>2014-10-11T11:40:07Z</time>
      </trkpt>
      <trkpt lat="59.150707" lon="18.433231">
        <ele>6.3</ele>
        <time>2014-10-11T11:40:08Z</time>
      </trkpt>
      <trkpt lat="59.150656" lon="18.433246">
        <ele>6.4</ele>
        <time>2014-10-11T11:40:10Z</time>
      </trkpt>
      <trkpt lat="59.150629" lon="18.433252">
        <ele>6.5</ele>
        <time>2014-10-11T11:40:11Z</time>
      </trkpt>
      <trkpt lat="59.150582" lon="18.433262">
        <ele>6.7</ele>
        <time>2014-10-11T11:40:13Z</time>
      </trkpt>
      <trkpt lat="59.150565" lon="18.433304">
        <ele>7.2</ele>
        <time>2014-10-11T11:40:22Z</time>
      </trkpt>
      <trkpt lat="59.150566" lon="18.433249">
        <ele>6.6</ele>
        <time>2014-10-11T11:41:19Z</time>
      </trkpt>
      <trkpt lat="59.15055" lon="18.433195">
        <ele>6</ele>
        <time>2014-10-11T11:41:22Z</time>
      </trkpt>
      <trkpt lat="59.150458" lon="18.433218">
        <ele>6.3</ele>
        <time>2014-10-11T11:41:46Z</time>
      </trkpt>
      <trkpt lat="59.150428" lon="18.433235">
        <ele>6.6</ele>
        <time>2014-10-11T11:41:47Z</time>
      </trkpt>
      <trkpt lat="59.150396" lon="18.433249">
        <ele>20.8</ele>
        <time>2014-10-11T11:41:48Z</time>
      </trkpt>
      <trkpt lat="59.150364" lon="18.433259">
        <ele>20.8</ele>
        <time>2014-10-11T11:41:49Z</time>
      </trkpt>
      <trkpt lat="59.150322" lon="18.433262">
        <ele>20.8</ele>
        <time>2014-10-11T11:41:50Z</time>
      </trkpt>
      <trkpt lat="59.150285" lon="18.433261">
        <ele>20.7</ele>
        <time>2014-10-11T11:41:51Z</time>
      </trkpt>
      <trkpt lat="59.150246" lon="18.433256">
        <ele>20.6</ele>
        <time>2014-10-11T11:41:52Z</time>
      </trkpt>
      <trkpt lat="59.150206" lon="18.433238">
        <ele>20.5</ele>
        <time>2014-10-11T11:41:53Z</time>
      </trkpt>
      <trkpt lat="59.150167" lon="18.433218">
        <ele>20.3</ele>
        <time>2014-10-11T11:41:54Z</time>
      </trkpt>
      <trkpt lat="59.150129" lon="18.433196">
        <ele>20.1</ele>
        <time>2014-10-11T11:41:55Z</time>
      </trkpt>
      <trkpt lat="59.150092" lon="18.433173">
        <ele>19.9</ele>
        <time>2014-10-11T11:41:56Z</time>
      </trkpt>
      <trkpt lat="59.150055" lon="18.433149">
        <ele>19.8</ele>
        <time>2014-10-11T11:41:57Z</time>
      </trkpt>
      <trkpt lat="59.150017" lon="18.433127">
        <ele>19.6</ele>
        <time>2014-10-11T11:41:58Z</time>
      </trkpt>
      <trkpt lat="59.149958" lon="18.433059">
        <ele>19.3</ele>
        <time>2014-10-11T11:41:59Z</time>
      </trkpt>
      <trkpt lat="59.149906" lon="18.433024">
        <ele>19.1</ele>
        <time>2014-10-11T11:42:00Z</time>
      </trkpt>
      <trkpt lat="59.149856" lon="18.432988">
        <ele>19</ele>
        <time>2014-10-11T11:42:01Z</time>
      </trkpt>
      <trkpt lat="59.149807" lon="18.432968">
        <ele>18.9</ele>
        <time>2014-10-11T11:42:02Z</time>
      </trkpt>
      <trkpt lat="59.149753" lon="18.432943">
        <ele>18.9</ele>
        <time>2014-10-11T11:42:03Z</time>
      </trkpt>
      <trkpt lat="59.149703" lon="18.432927">
        <ele>18.9</ele>
        <time>2014-10-11T11:42:04Z</time>
      </trkpt>
      <trkpt lat="59.149615" lon="18.4329">
        <ele>18.9</ele>
        <time>2014-10-11T11:42:05Z</time>
      </trkpt>
      <trkpt lat="59.14955" lon="18.432887">
        <ele>19.2</ele>
        <time>2014-10-11T11:42:06Z</time>
      </trkpt>
      <trkpt lat="59.149501" lon="18.432885">
        <ele>19.5</ele>
        <time>2014-10-11T11:42:07Z</time>
      </trkpt>
      <trkpt lat="59.149386" lon="18.432893">
        <ele>20.2</ele>
        <time>2014-10-11T11:42:08Z</time>
      </trkpt>
      <trkpt lat="59.149318" lon="18.432936">
        <ele>20.6</ele>
        <time>2014-10-11T11:42:09Z</time>
      </trkpt>
      <trkpt lat="59.149237" lon="18.432976">
        <ele>21.1</ele>
        <time>2014-10-11T11:42:10Z</time>
      </trkpt>
      <trkpt lat="59.149135" lon="18.433024">
        <ele>21.6</ele>
        <time>2014-10-11T11:42:11Z</time>
      </trkpt>
      <trkpt lat="59.149059" lon="18.433097">
        <ele>21.9</ele>
        <time>2014-10-11T11:42:12Z</time>
      </trkpt>
      <trkpt lat="59.148977" lon="18.433172">
        <ele>22.1</ele>
        <time>2014-10-11T11:42:13Z</time>
      </trkpt>
      <trkpt lat="59.1489" lon="18.433237">
        <ele>22.3</ele>
        <time>2014-10-11T11:42:14Z</time>
      </trkpt>
      <trkpt lat="59.148828" lon="18.433298">
        <ele>22.4</ele>
        <time>2014-10-11T11:42:15Z</time>
      </trkpt>
      <trkpt lat="59.148757" lon="18.433384">
        <ele>22.3</ele>
        <time>2014-10-11T11:42:16Z</time>
      </trkpt>
      <trkpt lat="59.148681" lon="18.433455">
        <ele>22.5</ele>
        <time>2014-10-11T11:42:17Z</time>
      </trkpt>
      <trkpt lat="59.14861" lon="18.433506">
        <ele>22.8</ele>
        <time>2014-10-11T11:42:18Z</time>
      </trkpt>
      <trkpt lat="59.148526" lon="18.43357">
        <ele>23.1</ele>
        <time>2014-10-11T11:42:19Z</time>
      </trkpt>
      <trkpt lat="59.148456" lon="18.433634">
        <ele>23.3</ele>
        <time>2014-10-11T11:42:20Z</time>
      </trkpt>
      <trkpt lat="59.14839" lon="18.433691">
        <ele>23.4</ele>
        <time>2014-10-11T11:42:21Z</time>
      </trkpt>
      <trkpt lat="59.148315" lon="18.433757">
        <ele>23.6</ele>
        <time>2014-10-11T11:42:22Z</time>
      </trkpt>
      <trkpt lat="59.148251" lon="18.433809">
        <ele>24.1</ele>
        <time>2014-10-11T11:42:23Z</time>
      </trkpt>
      <trkpt lat="59.148185" lon="18.433861">
        <ele>24.6</ele>
        <time>2014-10-11T11:42:24Z</time>
      </trkpt>
      <trkpt lat="59.148116" lon="18.433928">
        <ele>25.1</ele>
        <time>2014-10-11T11:42:25Z</time>
      </trkpt>
      <trkpt lat="59.148047" lon="18.433969">
        <ele>25.6</ele>
        <time>2014-10-11T11:42:26Z</time>
      </trkpt>
      <trkpt lat="59.147981" lon="18.434026">
        <ele>26</ele>
        <time>2014-10-11T11:42:27Z</time>
      </trkpt>
      <trkpt lat="59.147917" lon="18.434058">
        <ele>26.4</ele>
        <time>2014-10-11T11:42:28Z</time>
      </trkpt>
      <trkpt lat="59.147844" lon="18.434089">
        <ele>26.6</ele>
        <time>2014-10-11T11:42:29Z</time>
      </trkpt>
      <trkpt lat="59.147775" lon="18.434128">
        <ele>26.8</ele>
        <time>2014-10-11T11:42:30Z</time>
      </trkpt>
      <trkpt lat="59.14772" lon="18.434171">
        <ele>27</ele>
        <time>2014-10-11T11:42:31Z</time>
      </trkpt>
      <trkpt lat="59.147669" lon="18.434223">
        <ele>27.1</ele>
        <time>2014-10-11T11:42:32Z</time>
      </trkpt>
      <trkpt lat="59.147588" lon="18.434258">
        <ele>27.3</ele>
        <time>2014-10-11T11:42:33Z</time>
      </trkpt>
      <trkpt lat="59.147537" lon="18.434298">
        <ele>27.4</ele>
        <time>2014-10-11T11:42:34Z</time>
      </trkpt>
      <trkpt lat="59.147459" lon="18.434335">
        <ele>27.6</ele>
        <time>2014-10-11T11:42:35Z</time>
      </trkpt>
      <trkpt lat="59.147389" lon="18.434382">
        <ele>27.7</ele>
        <time>2014-10-11T11:42:36Z</time>
      </trkpt>
      <trkpt lat="59.147316" lon="18.434396">
        <ele>27.8</ele>
        <time>2014-10-11T11:42:37Z</time>
      </trkpt>
      <trkpt lat="59.14726" lon="18.434428">
        <ele>27.9</ele>
        <time>2014-10-11T11:42:38Z</time>
      </trkpt>
      <trkpt lat="59.1472" lon="18.434455">
        <ele>28</ele>
        <time>2014-10-11T11:42:39Z</time>
      </trkpt>
      <trkpt lat="59.147133" lon="18.434494">
        <ele>28</ele>
        <time>2014-10-11T11:42:40Z</time>
      </trkpt>
      <trkpt lat="59.147084" lon="18.434516">
        <ele>28.1</ele>
        <time>2014-10-11T11:42:41Z</time>
      </trkpt>
      <trkpt lat="59.147026" lon="18.434541">
        <ele>27.9</ele>
        <time>2014-10-11T11:42:42Z</time>
      </trkpt>
      <trkpt lat="59.146954" lon="18.434571">
        <ele>27.7</ele>
        <time>2014-10-11T11:42:43Z</time>
      </trkpt>
      <trkpt lat="59.146883" lon="18.434572">
        <ele>27.5</ele>
        <time>2014-10-11T11:42:44Z</time>
      </trkpt>
      <trkpt lat="59.146817" lon="18.434599">
        <ele>27.3</ele>
        <time>2014-10-11T11:42:45Z</time>
      </trkpt>
      <trkpt lat="59.146757" lon="18.434624">
        <ele>27.1</ele>
        <time>2014-10-11T11:42:46Z</time>
      </trkpt>
      <trkpt lat="59.146426" lon="18.43502">
        <ele>24.7</ele>
        <time>2014-10-11T11:42:53Z</time>
      </trkpt>
      <trkpt lat="59.146355" lon="18.435114">
        <ele>23.9</ele>
        <time>2014-10-11T11:42:54Z</time>
      </trkpt>
      <trkpt lat="59.146299" lon="18.435182">
        <ele>23.4</ele>
        <time>2014-10-11T11:42:55Z</time>
      </trkpt>
      <trkpt lat="59.146224" lon="18.435255">
        <ele>22.7</ele>
        <time>2014-10-11T11:42:56Z</time>
      </trkpt>
      <trkpt lat="59.146174" lon="18.435341">
        <ele>22.2</ele>
        <time>2014-10-11T11:42:57Z</time>
      </trkpt>
      <trkpt lat="59.146108" lon="18.435413">
        <ele>21.7</ele>
        <time>2014-10-11T11:42:58Z</time>
      </trkpt>
      <trkpt lat="59.146038" lon="18.4355">
        <ele>21.5</ele>
        <time>2014-10-11T11:42:59Z</time>
      </trkpt>
      <trkpt lat="59.145963" lon="18.435539">
        <ele>21.4</ele>
        <time>2014-10-11T11:43:00Z</time>
      </trkpt>
      <trkpt lat="59.145886" lon="18.435593">
        <ele>21.2</ele>
        <time>2014-10-11T11:43:01Z</time>
      </trkpt>
      <trkpt lat="59.145811" lon="18.435658">
        <ele>20.9</ele>
        <time>2014-10-11T11:43:02Z</time>
      </trkpt>
      <trkpt lat="59.145743" lon="18.435703">
        <ele>20.7</ele>
        <time>2014-10-11T11:43:03Z</time>
      </trkpt>
      <trkpt lat="59.145668" lon="18.43577">
        <ele>20.4</ele>
        <time>2014-10-11T11:43:04Z</time>
      </trkpt>
      <trkpt lat="59.145599" lon="18.435834">
        <ele>20.2</ele>
        <time>2014-10-11T11:43:05Z</time>
      </trkpt>
      <trkpt lat="59.145524" lon="18.435854">
        <ele>19.9</ele>
        <time>2014-10-11T11:43:06Z</time>
      </trkpt>
      <trkpt lat="59.145429" lon="18.435849">
        <ele>19.5</ele>
        <time>2014-10-11T11:43:07Z</time>
      </trkpt>
      <trkpt lat="59.145353" lon="18.435835">
        <ele>19.2</ele>
        <time>2014-10-11T11:43:08Z</time>
      </trkpt>
      <trkpt lat="59.145278" lon="18.435655">
        <ele>19.2</ele>
        <time>2014-10-11T11:43:09Z</time>
      </trkpt>
      <trkpt lat="59.145207" lon="18.435546">
        <ele>19.2</ele>
        <time>2014-10-11T11:43:10Z</time>
      </trkpt>
      <trkpt lat="59.14516" lon="18.435414">
        <ele>19.4</ele>
        <time>2014-10-11T11:43:11Z</time>
      </trkpt>
      <trkpt lat="59.145141" lon="18.4353">
        <ele>19.9</ele>
        <time>2014-10-11T11:43:12Z</time>
      </trkpt>
      <trkpt lat="59.145091" lon="18.435174">
        <ele>20.3</ele>
        <time>2014-10-11T11:43:13Z</time>
      </trkpt>
      <trkpt lat="59.145039" lon="18.435061">
        <ele>20.8</ele>
        <time>2014-10-11T11:43:14Z</time>
      </trkpt>
      <trkpt lat="59.144982" lon="18.434954">
        <ele>21.2</ele>
        <time>2014-10-11T11:43:15Z</time>
      </trkpt>
      <trkpt lat="59.144927" lon="18.434859">
        <ele>21.6</ele>
        <time>2014-10-11T11:43:16Z</time>
      </trkpt>
      <trkpt lat="59.144859" lon="18.434777">
        <ele>22</ele>
        <time>2014-10-11T11:43:17Z</time>
      </trkpt>
      <trkpt lat="59.144793" lon="18.434697">
        <ele>22.4</ele>
        <time>2014-10-11T11:43:18Z</time>
      </trkpt>
      <trkpt lat="59.144747" lon="18.434675">
        <ele>22.5</ele>
        <time>2014-10-11T11:43:19Z</time>
      </trkpt>
      <trkpt lat="59.144682" lon="18.434626">
        <ele>22.8</ele>
        <time>2014-10-11T11:43:20Z</time>
      </trkpt>
      <trkpt lat="59.144618" lon="18.434661">
        <ele>22.5</ele>
        <time>2014-10-11T11:43:21Z</time>
      </trkpt>
      <trkpt lat="59.144563" lon="18.434644">
        <ele>22.7</ele>
        <time>2014-10-11T11:43:22Z</time>
      </trkpt>
      <trkpt lat="59.144504" lon="18.434626">
        <ele>22.9</ele>
        <time>2014-10-11T11:43:23Z</time>
      </trkpt>
      <trkpt lat="59.144461" lon="18.434684">
        <ele>22.6</ele>
        <time>2014-10-11T11:43:24Z</time>
      </trkpt>
      <trkpt lat="59.144352" lon="18.434644">
        <ele>23</ele>
        <time>2014-10-11T11:43:25Z</time>
      </trkpt>
      <trkpt lat="59.144252" lon="18.434597">
        <ele>23.3</ele>
        <time>2014-10-11T11:43:26Z</time>
      </trkpt>
      <trkpt lat="59.144177" lon="18.434562">
        <ele>23.6</ele>
        <time>2014-10-11T11:43:27Z</time>
      </trkpt>
      <trkpt lat="59.144108" lon="18.434487">
        <ele>23.9</ele>
        <time>2014-10-11T11:43:28Z</time>
      </trkpt>
      <trkpt lat="59.144039" lon="18.434426">
        <ele>24.2</ele>
        <time>2014-10-11T11:43:29Z</time>
      </trkpt>
      <trkpt lat="59.143981" lon="18.434377">
        <ele>24.4</ele>
        <time>2014-10-11T11:43:30Z</time>
      </trkpt>
      <trkpt lat="59.143934" lon="18.434318">
        <ele>24.6</ele>
        <time>2014-10-11T11:43:31Z</time>
      </trkpt>
      <trkpt lat="59.143882" lon="18.434278">
        <ele>24.7</ele>
        <time>2014-10-11T11:43:32Z</time>
      </trkpt>
      <trkpt lat="59.143839" lon="18.434201">
        <ele>24.9</ele>
        <time>2014-10-11T11:43:33Z</time>
      </trkpt>
      <trkpt lat="59.14379" lon="18.434128">
        <ele>25.1</ele>
        <time>2014-10-11T11:43:34Z</time>
      </trkpt>
      <trkpt lat="59.143753" lon="18.434072">
        <ele>25.2</ele>
        <time>2014-10-11T11:43:35Z</time>
      </trkpt>
      <trkpt lat="59.143709" lon="18.434014">
        <ele>25.1</ele>
        <time>2014-10-11T11:43:36Z</time>
      </trkpt>
      <trkpt lat="59.143652" lon="18.433966">
        <ele>24.9</ele>
        <time>2014-10-11T11:43:37Z</time>
      </trkpt>
      <trkpt lat="59.143611" lon="18.433933">
        <ele>24.7</ele>
        <time>2014-10-11T11:43:38Z</time>
      </trkpt>
      <trkpt lat="59.14356" lon="18.433881">
        <ele>24.5</ele>
        <time>2014-10-11T11:43:39Z</time>
      </trkpt>
      <trkpt lat="59.143508" lon="18.433841">
        <ele>24.3</ele>
        <time>2014-10-11T11:43:40Z</time>
      </trkpt>
      <trkpt lat="59.143464" lon="18.433806">
        <ele>24.1</ele>
        <time>2014-10-11T11:43:41Z</time>
      </trkpt>
      <trkpt lat="59.143429" lon="18.433761">
        <ele>24</ele>
        <time>2014-10-11T11:43:42Z</time>
      </trkpt>
      <trkpt lat="59.143397" lon="18.433724">
        <ele>24</ele>
        <time>2014-10-11T11:43:43Z</time>
      </trkpt>
      <trkpt lat="59.143366" lon="18.433679">
        <ele>24</ele>
        <time>2014-10-11T11:43:44Z</time>
      </trkpt>
      <trkpt lat="59.143306" lon="18.433632">
        <ele>23.9</ele>
        <time>2014-10-11T11:43:45Z</time>
      </trkpt>
      <trkpt lat="59.143278" lon="18.433598">
        <ele>23.9</ele>
        <time>2014-10-11T11:43:46Z</time>
      </trkpt>
      <trkpt lat="59.143219" lon="18.433539">
        <ele>23.8</ele>
        <time>2014-10-11T11:43:47Z</time>
      </trkpt>
      <trkpt lat="59.143164" lon="18.433502">
        <ele>23.6</ele>
        <time>2014-10-11T11:43:48Z</time>
      </trkpt>
      <trkpt lat="59.14311" lon="18.43347">
        <ele>23.3</ele>
        <time>2014-10-11T11:43:49Z</time>
      </trkpt>
      <trkpt lat="59.143035" lon="18.433432">
        <ele>23</ele>
        <time>2014-10-11T11:43:50Z</time>
      </trkpt>
      <trkpt lat="59.142976" lon="18.433398">
        <ele>22.7</ele>
        <time>2014-10-11T11:43:51Z</time>
      </trkpt>
      <trkpt lat="59.142928" lon="18.433382">
        <ele>22.4</ele>
        <time>2014-10-11T11:43:52Z</time>
      </trkpt>
      <trkpt lat="59.14287" lon="18.433376">
        <ele>21.8</ele>
        <time>2014-10-11T11:43:53Z</time>
      </trkpt>
      <trkpt lat="59.14281" lon="18.433357">
        <ele>21.3</ele>
        <time>2014-10-11T11:43:54Z</time>
      </trkpt>
      <trkpt lat="59.142699" lon="18.433314">
        <ele>20.2</ele>
        <time>2014-10-11T11:43:55Z</time>
      </trkpt>
      <trkpt lat="59.142607" lon="18.433246">
        <ele>19.5</ele>
        <time>2014-10-11T11:43:56Z</time>
      </trkpt>
      <trkpt lat="59.142548" lon="18.433178">
        <ele>19.1</ele>
        <time>2014-10-11T11:43:57Z</time>
      </trkpt>
      <trkpt lat="59.142483" lon="18.433085">
        <ele>18.7</ele>
        <time>2014-10-11T11:43:58Z</time>
      </trkpt>
      <trkpt lat="59.14243" lon="18.432983">
        <ele>18.5</ele>
        <time>2014-10-11T11:43:59Z</time>
      </trkpt>
      <trkpt lat="59.142373" lon="18.432872">
        <ele>18.3</ele>
        <time>2014-10-11T11:44:00Z</time>
      </trkpt>
      <trkpt lat="59.1423" lon="18.432724">
        <ele>18</ele>
        <time>2014-10-11T11:44:01Z</time>
      </trkpt>
      <trkpt lat="59.142256" lon="18.432591">
        <ele>18</ele>
        <time>2014-10-11T11:44:02Z</time>
      </trkpt>
      <trkpt lat="59.14223" lon="18.432421">
        <ele>18.3</ele>
        <time>2014-10-11T11:44:03Z</time>
      </trkpt>
      <trkpt lat="59.142205" lon="18.43233">
        <ele>18.3</ele>
        <time>2014-10-11T11:44:04Z</time>
      </trkpt>
      <trkpt lat="59.142177" lon="18.432192">
        <ele>18.5</ele>
        <time>2014-10-11T11:44:05Z</time>
      </trkpt>
      <trkpt lat="59.142146" lon="18.43206">
        <ele>18.6</ele>
        <time>2014-10-11T11:44:06Z</time>
      </trkpt>
      <trkpt lat="59.14212" lon="18.431941">
        <ele>18.5</ele>
        <time>2014-10-11T11:44:07Z</time>
      </trkpt>
      <trkpt lat="59.142089" lon="18.431799">
        <ele>18.4</ele>
        <time>2014-10-11T11:44:08Z</time>
      </trkpt>
      <trkpt lat="59.14205" lon="18.431662">
        <ele>18.2</ele>
        <time>2014-10-11T11:44:09Z</time>
      </trkpt>
      <trkpt lat="59.142012" lon="18.431548">
        <ele>18</ele>
        <time>2014-10-11T11:44:10Z</time>
      </trkpt>
      <trkpt lat="59.14197" lon="18.431444">
        <ele>17.8</ele>
        <time>2014-10-11T11:44:11Z</time>
      </trkpt>
      <trkpt lat="59.141916" lon="18.43132">
        <ele>17.5</ele>
        <time>2014-10-11T11:44:12Z</time>
      </trkpt>
      <trkpt lat="59.141868" lon="18.431244">
        <ele>17.2</ele>
        <time>2014-10-11T11:44:13Z</time>
      </trkpt>
      <trkpt lat="59.141812" lon="18.431161">
        <ele>16.9</ele>
        <time>2014-10-11T11:44:14Z</time>
      </trkpt>
      <trkpt lat="59.141742" lon="18.431072">
        <ele>16.4</ele>
        <time>2014-10-11T11:44:15Z</time>
      </trkpt>
      <trkpt lat="59.141674" lon="18.430963">
        <ele>16.1</ele>
        <time>2014-10-11T11:44:16Z</time>
      </trkpt>
      <trkpt lat="59.141602" lon="18.43087">
        <ele>15.7</ele>
        <time>2014-10-11T11:44:17Z</time>
      </trkpt>
      <trkpt lat="59.141526" lon="18.430768">
        <ele>15.3</ele>
        <time>2014-10-11T11:44:18Z</time>
      </trkpt>
      <trkpt lat="59.141452" lon="18.430672">
        <ele>14.9</ele>
        <time>2014-10-11T11:44:19Z</time>
      </trkpt>
      <trkpt lat="59.141365" lon="18.430602">
        <ele>14.4</ele>
        <time>2014-10-11T11:44:20Z</time>
      </trkpt>
      <trkpt lat="59.14128" lon="18.430531">
        <ele>13.9</ele>
        <time>2014-10-11T11:44:21Z</time>
      </trkpt>
      <trkpt lat="59.141151" lon="18.430486">
        <ele>13.8</ele>
        <time>2014-10-11T11:44:22Z</time>
      </trkpt>
      <trkpt lat="59.141058" lon="18.430461">
        <ele>13.9</ele>
        <time>2014-10-11T11:44:23Z</time>
      </trkpt>
      <trkpt lat="59.140966" lon="18.430439">
        <ele>13.9</ele>
        <time>2014-10-11T11:44:24Z</time>
      </trkpt>
      <trkpt lat="59.140872" lon="18.43039">
        <ele>14.1</ele>
        <time>2014-10-11T11:44:25Z</time>
      </trkpt>
      <trkpt lat="59.140784" lon="18.430307">
        <ele>14.5</ele>
        <time>2014-10-11T11:44:26Z</time>
      </trkpt>
      <trkpt lat="59.140707" lon="18.430196">
        <ele>15.1</ele>
        <time>2014-10-11T11:44:27Z</time>
      </trkpt>
      <trkpt lat="59.140651" lon="18.430057">
        <ele>15.7</ele>
        <time>2014-10-11T11:44:28Z</time>
      </trkpt>
      <trkpt lat="59.140613" lon="18.429912">
        <ele>16.4</ele>
        <time>2014-10-11T11:44:29Z</time>
      </trkpt>
      <trkpt lat="59.140581" lon="18.429774">
        <ele>17.1</ele>
        <time>2014-10-11T11:44:30Z</time>
      </trkpt>
      <trkpt lat="59.140566" lon="18.42964">
        <ele>17.7</ele>
        <time>2014-10-11T11:44:31Z</time>
      </trkpt>
      <trkpt lat="59.140547" lon="18.429516">
        <ele>18.2</ele>
        <time>2014-10-11T11:44:32Z</time>
      </trkpt>
      <trkpt lat="59.14052" lon="18.42938">
        <ele>18.7</ele>
        <time>2014-10-11T11:44:33Z</time>
      </trkpt>
      <trkpt lat="59.140514" lon="18.429291">
        <ele>19.1</ele>
        <time>2014-10-11T11:44:34Z</time>
      </trkpt>
      <trkpt lat="59.140511" lon="18.429187">
        <ele>19.4</ele>
        <time>2014-10-11T11:44:35Z</time>
      </trkpt>
      <trkpt lat="59.140495" lon="18.429078">
        <ele>19.8</ele>
        <time>2014-10-11T11:44:36Z</time>
      </trkpt>
      <trkpt lat="59.140478" lon="18.428968">
        <ele>20.2</ele>
        <time>2014-10-11T11:44:37Z</time>
      </trkpt>
      <trkpt lat="59.140466" lon="18.42886">
        <ele>20.6</ele>
        <time>2014-10-11T11:44:38Z</time>
      </trkpt>
      <trkpt lat="59.14047" lon="18.428767">
        <ele>20.9</ele>
        <time>2014-10-11T11:44:39Z</time>
      </trkpt>
      <trkpt lat="59.140463" lon="18.428668">
        <ele>20.9</ele>
        <time>2014-10-11T11:44:40Z</time>
      </trkpt>
      <trkpt lat="59.140468" lon="18.428586">
        <ele>20.8</ele>
        <time>2014-10-11T11:44:41Z</time>
      </trkpt>
      <trkpt lat="59.140462" lon="18.428495">
        <ele>20.7</ele>
        <time>2014-10-11T11:44:42Z</time>
      </trkpt>
      <trkpt lat="59.140444" lon="18.42839">
        <ele>20.6</ele>
        <time>2014-10-11T11:44:43Z</time>
      </trkpt>
      <trkpt lat="59.140428" lon="18.428294">
        <ele>20.5</ele>
        <time>2014-10-11T11:44:44Z</time>
      </trkpt>
      <trkpt lat="59.140418" lon="18.428217">
        <ele>20.4</ele>
        <time>2014-10-11T11:44:45Z</time>
      </trkpt>
      <trkpt lat="59.14041" lon="18.428085">
        <ele>20.2</ele>
        <time>2014-10-11T11:44:47Z</time>
      </trkpt>
      <trkpt lat="59.140399" lon="18.427997">
        <ele>20</ele>
        <time>2014-10-11T11:44:48Z</time>
      </trkpt>
      <trkpt lat="59.140392" lon="18.427908">
        <ele>19.9</ele>
        <time>2014-10-11T11:44:49Z</time>
      </trkpt>
      <trkpt lat="59.140388" lon="18.427842">
        <ele>19.8</ele>
        <time>2014-10-11T11:44:50Z</time>
      </trkpt>
      <trkpt lat="59.140376" lon="18.427741">
        <ele>19.7</ele>
        <time>2014-10-11T11:44:51Z</time>
      </trkpt>
      <trkpt lat="59.140373" lon="18.427653">
        <ele>19.6</ele>
        <time>2014-10-11T11:44:52Z</time>
      </trkpt>
      <trkpt lat="59.140357" lon="18.42756">
        <ele>19.4</ele>
        <time>2014-10-11T11:44:53Z</time>
      </trkpt>
      <trkpt lat="59.14034" lon="18.427453">
        <ele>19.3</ele>
        <time>2014-10-11T11:44:54Z</time>
      </trkpt>
      <trkpt lat="59.14033" lon="18.427352">
        <ele>19.2</ele>
        <time>2014-10-11T11:44:55Z</time>
      </trkpt>
      <trkpt lat="59.140318" lon="18.427247">
        <ele>19.1</ele>
        <time>2014-10-11T11:44:56Z</time>
      </trkpt>
      <trkpt lat="59.140274" lon="18.427126">
        <ele>19</ele>
        <time>2014-10-11T11:44:57Z</time>
      </trkpt>
      <trkpt lat="59.140246" lon="18.427023">
        <ele>18.4</ele>
        <time>2014-10-11T11:44:58Z</time>
      </trkpt>
      <trkpt lat="59.140191" lon="18.426916">
        <ele>17.5</ele>
        <time>2014-10-11T11:44:59Z</time>
      </trkpt>
      <trkpt lat="59.140134" lon="18.426816">
        <ele>16.8</ele>
        <time>2014-10-11T11:45:00Z</time>
      </trkpt>
      <trkpt lat="59.140087" lon="18.426743">
        <ele>16.4</ele>
        <time>2014-10-11T11:45:01Z</time>
      </trkpt>
      <trkpt lat="59.14002" lon="18.426664">
        <ele>16.1</ele>
        <time>2014-10-11T11:45:02Z</time>
      </trkpt>
      <trkpt lat="59.139944" lon="18.426591">
        <ele>16.1</ele>
        <time>2014-10-11T11:45:03Z</time>
      </trkpt>
      <trkpt lat="59.139874" lon="18.426523">
        <ele>16.2</ele>
        <time>2014-10-11T11:45:04Z</time>
      </trkpt>
      <trkpt lat="59.139827" lon="18.42646">
        <ele>16.3</ele>
        <time>2014-10-11T11:45:05Z</time>
      </trkpt>
      <trkpt lat="59.139775" lon="18.426394">
        <ele>16.5</ele>
        <time>2014-10-11T11:45:06Z</time>
      </trkpt>
      <trkpt lat="59.139711" lon="18.426317">
        <ele>16.8</ele>
        <time>2014-10-11T11:45:07Z</time>
      </trkpt>
      <trkpt lat="59.139667" lon="18.426261">
        <ele>17.1</ele>
        <time>2014-10-11T11:45:08Z</time>
      </trkpt>
      <trkpt lat="59.139615" lon="18.426198">
        <ele>7.5</ele>
        <time>2014-10-11T11:45:09Z</time>
      </trkpt>
      <trkpt lat="59.139566" lon="18.426156">
        <ele>18</ele>
        <time>2014-10-11T11:45:10Z</time>
      </trkpt>
      <trkpt lat="59.13952" lon="18.426106">
        <ele>18</ele>
        <time>2014-10-11T11:45:11Z</time>
      </trkpt>
      <trkpt lat="59.139478" lon="18.426057">
        <ele>18.1</ele>
        <time>2014-10-11T11:45:12Z</time>
      </trkpt>
      <trkpt lat="59.139442" lon="18.425989">
        <ele>18.2</ele>
        <time>2014-10-11T11:45:13Z</time>
      </trkpt>
      <trkpt lat="59.139396" lon="18.425928">
        <ele>18.3</ele>
        <time>2014-10-11T11:45:14Z</time>
      </trkpt>
      <trkpt lat="59.139355" lon="18.42587">
        <ele>18.4</ele>
        <time>2014-10-11T11:45:15Z</time>
      </trkpt>
      <trkpt lat="59.13931" lon="18.425803">
        <ele>18.5</ele>
        <time>2014-10-11T11:45:16Z</time>
      </trkpt>
      <trkpt lat="59.139285" lon="18.425758">
        <ele>18.6</ele>
        <time>2014-10-11T11:45:17Z</time>
      </trkpt>
      <trkpt lat="59.139248" lon="18.425697">
        <ele>18.8</ele>
        <time>2014-10-11T11:45:18Z</time>
      </trkpt>
      <trkpt lat="59.139206" lon="18.425639">
        <ele>19</ele>
        <time>2014-10-11T11:45:19Z</time>
      </trkpt>
      <trkpt lat="59.139166" lon="18.425571">
        <ele>19.2</ele>
        <time>2014-10-11T11:45:20Z</time>
      </trkpt>
      <trkpt lat="59.139131" lon="18.425512">
        <ele>19.4</ele>
        <time>2014-10-11T11:45:21Z</time>
      </trkpt>
      <trkpt lat="59.139103" lon="18.42545">
        <ele>19.7</ele>
        <time>2014-10-11T11:45:22Z</time>
      </trkpt>
      <trkpt lat="59.139066" lon="18.425384">
        <ele>6</ele>
        <time>2014-10-11T11:45:23Z</time>
      </trkpt>
      <trkpt lat="59.139025" lon="18.425312">
        <ele>6</ele>
        <time>2014-10-11T11:45:24Z</time>
      </trkpt>
      <trkpt lat="59.138984" lon="18.425235">
        <ele>6.2</ele>
        <time>2014-10-11T11:45:25Z</time>
      </trkpt>
      <trkpt lat="59.138942" lon="18.42516">
        <ele>6.3</ele>
        <time>2014-10-11T11:45:26Z</time>
      </trkpt>
      <trkpt lat="59.138912" lon="18.425087">
        <ele>6.4</ele>
        <time>2014-10-11T11:45:27Z</time>
      </trkpt>
      <trkpt lat="59.138877" lon="18.425017">
        <ele>6.5</ele>
        <time>2014-10-11T11:45:28Z</time>
      </trkpt>
      <trkpt lat="59.138855" lon="18.424936">
        <ele>6.6</ele>
        <time>2014-10-11T11:45:29Z</time>
      </trkpt>
      <trkpt lat="59.138828" lon="18.424846">
        <ele>6.6</ele>
        <time>2014-10-11T11:45:30Z</time>
      </trkpt>
      <trkpt lat="59.138805" lon="18.424768">
        <ele>6.2</ele>
        <time>2014-10-11T11:45:31Z</time>
      </trkpt>
      <trkpt lat="59.138787" lon="18.424666">
        <ele>5.6</ele>
        <time>2014-10-11T11:45:32Z</time>
      </trkpt>
      <trkpt lat="59.138764" lon="18.424545">
        <ele>5.1</ele>
        <time>2014-10-11T11:45:33Z</time>
      </trkpt>
      <trkpt lat="59.138753" lon="18.424439">
        <ele>5.5</ele>
        <time>2014-10-11T11:45:34Z</time>
      </trkpt>
      <trkpt lat="59.138745" lon="18.424344">
        <ele>25.8</ele>
        <time>2014-10-11T11:45:35Z</time>
      </trkpt>
      <trkpt lat="59.138734" lon="18.424251">
        <ele>26.1</ele>
        <time>2014-10-11T11:45:36Z</time>
      </trkpt>
      <trkpt lat="59.13872" lon="18.424145">
        <ele>26.5</ele>
        <time>2014-10-11T11:45:37Z</time>
      </trkpt>
      <trkpt lat="59.138711" lon="18.424034">
        <ele>26.8</ele>
        <time>2014-10-11T11:45:38Z</time>
      </trkpt>
      <trkpt lat="59.138708" lon="18.423909">
        <ele>27.3</ele>
        <time>2014-10-11T11:45:39Z</time>
      </trkpt>
      <trkpt lat="59.138705" lon="18.423795">
        <ele>27.7</ele>
        <time>2014-10-11T11:45:40Z</time>
      </trkpt>
      <trkpt lat="59.13871" lon="18.423691">
        <ele>27.7</ele>
        <time>2014-10-11T11:45:41Z</time>
      </trkpt>
      <trkpt lat="59.138704" lon="18.423566">
        <ele>27.4</ele>
        <time>2014-10-11T11:45:42Z</time>
      </trkpt>
      <trkpt lat="59.138701" lon="18.423465">
        <ele>27.2</ele>
        <time>2014-10-11T11:45:43Z</time>
      </trkpt>
      <trkpt lat="59.138698" lon="18.423345">
        <ele>26.9</ele>
        <time>2014-10-11T11:45:44Z</time>
      </trkpt>
      <trkpt lat="59.138702" lon="18.423226">
        <ele>26.7</ele>
        <time>2014-10-11T11:45:45Z</time>
      </trkpt>
      <trkpt lat="59.138704" lon="18.423125">
        <ele>26.5</ele>
        <time>2014-10-11T11:45:46Z</time>
      </trkpt>
      <trkpt lat="59.138704" lon="18.422987">
        <ele>26.2</ele>
        <time>2014-10-11T11:45:47Z</time>
      </trkpt>
      <trkpt lat="59.138708" lon="18.422883">
        <ele>26</ele>
        <time>2014-10-11T11:45:48Z</time>
      </trkpt>
      <trkpt lat="59.138709" lon="18.422777">
        <ele>25.8</ele>
        <time>2014-10-11T11:45:49Z</time>
      </trkpt>
      <trkpt lat="59.138702" lon="18.422661">
        <ele>25.7</ele>
        <time>2014-10-11T11:45:50Z</time>
      </trkpt>
      <trkpt lat="59.138698" lon="18.422544">
        <ele>25.6</ele>
        <time>2014-10-11T11:45:51Z</time>
      </trkpt>
      <trkpt lat="59.138672" lon="18.42239">
        <ele>25.5</ele>
        <time>2014-10-11T11:45:52Z</time>
      </trkpt>
      <trkpt lat="59.138653" lon="18.422287">
        <ele>25.4</ele>
        <time>2014-10-11T11:45:53Z</time>
      </trkpt>
      <trkpt lat="59.138633" lon="18.42217">
        <ele>25.4</ele>
        <time>2014-10-11T11:45:54Z</time>
      </trkpt>
      <trkpt lat="59.138617" lon="18.422053">
        <ele>24.9</ele>
        <time>2014-10-11T11:45:55Z</time>
      </trkpt>
      <trkpt lat="59.138598" lon="18.421934">
        <ele>23.4</ele>
        <time>2014-10-11T11:45:56Z</time>
      </trkpt>
      <trkpt lat="59.138585" lon="18.421806">
        <ele>21.8</ele>
        <time>2014-10-11T11:45:57Z</time>
      </trkpt>
      <trkpt lat="59.138557" lon="18.421703">
        <ele>20.7</ele>
        <time>2014-10-11T11:45:58Z</time>
      </trkpt>
      <trkpt lat="59.13853" lon="18.421594">
        <ele>19.6</ele>
        <time>2014-10-11T11:45:59Z</time>
      </trkpt>
      <trkpt lat="59.138504" lon="18.421474">
        <ele>18.5</ele>
        <time>2014-10-11T11:46:00Z</time>
      </trkpt>
      <trkpt lat="59.138473" lon="18.421347">
        <ele>17.4</ele>
        <time>2014-10-11T11:46:01Z</time>
      </trkpt>
      <trkpt lat="59.138436" lon="18.421222">
        <ele>9.1</ele>
        <time>2014-10-11T11:46:02Z</time>
      </trkpt>
      <trkpt lat="59.1384" lon="18.42109">
        <ele>8.8</ele>
        <time>2014-10-11T11:46:03Z</time>
      </trkpt>
      <trkpt lat="59.138357" lon="18.420952">
        <ele>7.6</ele>
        <time>2014-10-11T11:46:04Z</time>
      </trkpt>
      <trkpt lat="59.138318" lon="18.420831">
        <ele>7.3</ele>
        <time>2014-10-11T11:46:05Z</time>
      </trkpt>
      <trkpt lat="59.138273" lon="18.420709">
        <ele>6.5</ele>
        <time>2014-10-11T11:46:06Z</time>
      </trkpt>
      <trkpt lat="59.13823" lon="18.42058">
        <ele>4.7</ele>
        <time>2014-10-11T11:46:07Z</time>
      </trkpt>
      <trkpt lat="59.138173" lon="18.420418">
        <ele>3.2</ele>
        <time>2014-10-11T11:46:08Z</time>
      </trkpt>
      <trkpt lat="59.138116" lon="18.42026">
        <ele>3.4</ele>
        <time>2014-10-11T11:46:09Z</time>
      </trkpt>
      <trkpt lat="59.138071" lon="18.420098">
        <ele>3.5</ele>
        <time>2014-10-11T11:46:10Z</time>
      </trkpt>
      <trkpt lat="59.13803" lon="18.41993">
        <ele>3.9</ele>
        <time>2014-10-11T11:46:11Z</time>
      </trkpt>
      <trkpt lat="59.137992" lon="18.419776">
        <ele>4</ele>
        <time>2014-10-11T11:46:12Z</time>
      </trkpt>
      <trkpt lat="59.137969" lon="18.419588">
        <ele>4</ele>
        <time>2014-10-11T11:46:13Z</time>
      </trkpt>
      <trkpt lat="59.137945" lon="18.419398">
        <ele>4.1</ele>
        <time>2014-10-11T11:46:14Z</time>
      </trkpt>
      <trkpt lat="59.137924" lon="18.419167">
        <ele>4</ele>
        <time>2014-10-11T11:46:15Z</time>
      </trkpt>
      <trkpt lat="59.137909" lon="18.418944">
        <ele>17.8</ele>
        <time>2014-10-11T11:46:16Z</time>
      </trkpt>
      <trkpt lat="59.137889" lon="18.418731">
        <ele>17.2</ele>
        <time>2014-10-11T11:46:17Z</time>
      </trkpt>
      <trkpt lat="59.137878" lon="18.418518">
        <ele>16.8</ele>
        <time>2014-10-11T11:46:18Z</time>
      </trkpt>
      <trkpt lat="59.13786" lon="18.41831">
        <ele>16.6</ele>
        <time>2014-10-11T11:46:19Z</time>
      </trkpt>
      <trkpt lat="59.137843" lon="18.418107">
        <ele>16.3</ele>
        <time>2014-10-11T11:46:20Z</time>
      </trkpt>
      <trkpt lat="59.137828" lon="18.417945">
        <ele>16.2</ele>
        <time>2014-10-11T11:46:21Z</time>
      </trkpt>
      <trkpt lat="59.137814" lon="18.417777">
        <ele>16.1</ele>
        <time>2014-10-11T11:46:22Z</time>
      </trkpt>
      <trkpt lat="59.137801" lon="18.417608">
        <ele>16</ele>
        <time>2014-10-11T11:46:23Z</time>
      </trkpt>
      <trkpt lat="59.13778" lon="18.417462">
        <ele>16.1</ele>
        <time>2014-10-11T11:46:24Z</time>
      </trkpt>
      <trkpt lat="59.137757" lon="18.417303">
        <ele>16.2</ele>
        <time>2014-10-11T11:46:25Z</time>
      </trkpt>
      <trkpt lat="59.137735" lon="18.417149">
        <ele>16.4</ele>
        <time>2014-10-11T11:46:26Z</time>
      </trkpt>
      <trkpt lat="59.137713" lon="18.416992">
        <ele>16.4</ele>
        <time>2014-10-11T11:46:27Z</time>
      </trkpt>
      <trkpt lat="59.137691" lon="18.416839">
        <ele>16.4</ele>
        <time>2014-10-11T11:46:28Z</time>
      </trkpt>
      <trkpt lat="59.137672" lon="18.416697">
        <ele>16.3</ele>
        <time>2014-10-11T11:46:29Z</time>
      </trkpt>
      <trkpt lat="59.137652" lon="18.416565">
        <ele>16.3</ele>
        <time>2014-10-11T11:46:30Z</time>
      </trkpt>
      <trkpt lat="59.137633" lon="18.416417">
        <ele>16.2</ele>
        <time>2014-10-11T11:46:31Z</time>
      </trkpt>
      <trkpt lat="59.137615" lon="18.416291">
        <ele>16.2</ele>
        <time>2014-10-11T11:46:32Z</time>
      </trkpt>
      <trkpt lat="59.137593" lon="18.416184">
        <ele>16.2</ele>
        <time>2014-10-11T11:46:33Z</time>
      </trkpt>
      <trkpt lat="59.137578" lon="18.41605">
        <ele>16.1</ele>
        <time>2014-10-11T11:46:34Z</time>
      </trkpt>
      <trkpt lat="59.137557" lon="18.415919">
        <ele>16.1</ele>
        <time>2014-10-11T11:46:35Z</time>
      </trkpt>
      <trkpt lat="59.137543" lon="18.415776">
        <ele>15.9</ele>
        <time>2014-10-11T11:46:36Z</time>
      </trkpt>
      <trkpt lat="59.137517" lon="18.415652">
        <ele>15.9</ele>
        <time>2014-10-11T11:46:37Z</time>
      </trkpt>
      <trkpt lat="59.1375" lon="18.41555">
        <ele>15.9</ele>
        <time>2014-10-11T11:46:38Z</time>
      </trkpt>
      <trkpt lat="59.137487" lon="18.415411">
        <ele>15.7</ele>
        <time>2014-10-11T11:46:39Z</time>
      </trkpt>
      <trkpt lat="59.137477" lon="18.415273">
        <ele>15.4</ele>
        <time>2014-10-11T11:46:40Z</time>
      </trkpt>
      <trkpt lat="59.137457" lon="18.415145">
        <ele>15.3</ele>
        <time>2014-10-11T11:46:41Z</time>
      </trkpt>
      <trkpt lat="59.137447" lon="18.41502">
        <ele>15</ele>
        <time>2014-10-11T11:46:42Z</time>
      </trkpt>
      <trkpt lat="59.137432" lon="18.414905">
        <ele>14.8</ele>
        <time>2014-10-11T11:46:43Z</time>
      </trkpt>
      <trkpt lat="59.137413" lon="18.414773">
        <ele>14.5</ele>
        <time>2014-10-11T11:46:44Z</time>
      </trkpt>
      <trkpt lat="59.137397" lon="18.414651">
        <ele>14.2</ele>
        <time>2014-10-11T11:46:45Z</time>
      </trkpt>
      <trkpt lat="59.137378" lon="18.414519">
        <ele>14</ele>
        <time>2014-10-11T11:46:46Z</time>
      </trkpt>
      <trkpt lat="59.137349" lon="18.414392">
        <ele>13.8</ele>
        <time>2014-10-11T11:46:47Z</time>
      </trkpt>
      <trkpt lat="59.137314" lon="18.414276">
        <ele>13.7</ele>
        <time>2014-10-11T11:46:48Z</time>
      </trkpt>
      <trkpt lat="59.137269" lon="18.414154">
        <ele>13.6</ele>
        <time>2014-10-11T11:46:49Z</time>
      </trkpt>
      <trkpt lat="59.137233" lon="18.41405">
        <ele>13.5</ele>
        <time>2014-10-11T11:46:50Z</time>
      </trkpt>
      <trkpt lat="59.137192" lon="18.413945">
        <ele>13.3</ele>
        <time>2014-10-11T11:46:51Z</time>
      </trkpt>
      <trkpt lat="59.137151" lon="18.413841">
        <ele>13.1</ele>
        <time>2014-10-11T11:46:52Z</time>
      </trkpt>
      <trkpt lat="59.137104" lon="18.413813">
        <ele>13.2</ele>
        <time>2014-10-11T11:46:53Z</time>
      </trkpt>
      <trkpt lat="59.137069" lon="18.413726">
        <ele>13.2</ele>
        <time>2014-10-11T11:46:54Z</time>
      </trkpt>
      <trkpt lat="59.13704" lon="18.413664">
        <ele>13.6</ele>
        <time>2014-10-11T11:46:55Z</time>
      </trkpt>
      <trkpt lat="59.137" lon="18.413588">
        <ele>14.2</ele>
        <time>2014-10-11T11:46:56Z</time>
      </trkpt>
      <trkpt lat="59.136966" lon="18.413518">
        <ele>14.6</ele>
        <time>2014-10-11T11:46:57Z</time>
      </trkpt>
      <trkpt lat="59.136937" lon="18.413463">
        <ele>15</ele>
        <time>2014-10-11T11:46:58Z</time>
      </trkpt>
      <trkpt lat="59.136904" lon="18.413394">
        <ele>15.5</ele>
        <time>2014-10-11T11:46:59Z</time>
      </trkpt>
      <trkpt lat="59.136876" lon="18.413332">
        <ele>15.9</ele>
        <time>2014-10-11T11:47:00Z</time>
      </trkpt>
      <trkpt lat="59.136845" lon="18.413279">
        <ele>16.3</ele>
        <time>2014-10-11T11:47:01Z</time>
      </trkpt>
      <trkpt lat="59.136811" lon="18.413224">
        <ele>16.7</ele>
        <time>2014-10-11T11:47:02Z</time>
      </trkpt>
      <trkpt lat="59.136778" lon="18.413157">
        <ele>17.1</ele>
        <time>2014-10-11T11:47:03Z</time>
      </trkpt>
      <trkpt lat="59.136745" lon="18.41309">
        <ele>17.5</ele>
        <time>2014-10-11T11:47:04Z</time>
      </trkpt>
      <trkpt lat="59.136707" lon="18.413031">
        <ele>17.9</ele>
        <time>2014-10-11T11:47:05Z</time>
      </trkpt>
      <trkpt lat="59.136673" lon="18.412972">
        <ele>18.3</ele>
        <time>2014-10-11T11:47:06Z</time>
      </trkpt>
      <trkpt lat="59.136635" lon="18.41292">
        <ele>18.8</ele>
        <time>2014-10-11T11:47:07Z</time>
      </trkpt>
      <trkpt lat="59.136596" lon="18.412851">
        <ele>19.2</ele>
        <time>2014-10-11T11:47:08Z</time>
      </trkpt>
      <trkpt lat="59.136564" lon="18.412801">
        <ele>19.5</ele>
        <time>2014-10-11T11:47:09Z</time>
      </trkpt>
      <trkpt lat="59.136533" lon="18.41274">
        <ele>19.8</ele>
        <time>2014-10-11T11:47:10Z</time>
      </trkpt>
      <trkpt lat="59.136499" lon="18.412688">
        <ele>20.2</ele>
        <time>2014-10-11T11:47:11Z</time>
      </trkpt>
      <trkpt lat="59.136464" lon="18.412634">
        <ele>20.5</ele>
        <time>2014-10-11T11:47:12Z</time>
      </trkpt>
      <trkpt lat="59.136427" lon="18.412591">
        <ele>20.9</ele>
        <time>2014-10-11T11:47:13Z</time>
      </trkpt>
      <trkpt lat="59.136399" lon="18.412549">
        <ele>21.2</ele>
        <time>2014-10-11T11:47:14Z</time>
      </trkpt>
      <trkpt lat="59.136367" lon="18.412493">
        <ele>21.5</ele>
        <time>2014-10-11T11:47:15Z</time>
      </trkpt>
      <trkpt lat="59.13634" lon="18.412444">
        <ele>21.8</ele>
        <time>2014-10-11T11:47:16Z</time>
      </trkpt>
      <trkpt lat="59.136305" lon="18.412397">
        <ele>22.2</ele>
        <time>2014-10-11T11:47:17Z</time>
      </trkpt>
      <trkpt lat="59.136269" lon="18.412358">
        <ele>22.5</ele>
        <time>2014-10-11T11:47:18Z</time>
      </trkpt>
      <trkpt lat="59.136237" lon="18.41232">
        <ele>22.7</ele>
        <time>2014-10-11T11:47:19Z</time>
      </trkpt>
      <trkpt lat="59.136204" lon="18.412259">
        <ele>22.9</ele>
        <time>2014-10-11T11:47:20Z</time>
      </trkpt>
      <trkpt lat="59.136172" lon="18.412201">
        <ele>23</ele>
        <time>2014-10-11T11:47:21Z</time>
      </trkpt>
      <trkpt lat="59.136138" lon="18.412145">
        <ele>23.1</ele>
        <time>2014-10-11T11:47:22Z</time>
      </trkpt>
      <trkpt lat="59.136104" lon="18.41209">
        <ele>23.2</ele>
        <time>2014-10-11T11:47:23Z</time>
      </trkpt>
      <trkpt lat="59.136067" lon="18.412036">
        <ele>23.4</ele>
        <time>2014-10-11T11:47:24Z</time>
      </trkpt>
      <trkpt lat="59.136033" lon="18.411992">
        <ele>23.6</ele>
        <time>2014-10-11T11:47:25Z</time>
      </trkpt>
      <trkpt lat="59.136001" lon="18.411947">
        <ele>23.9</ele>
        <time>2014-10-11T11:47:26Z</time>
      </trkpt>
      <trkpt lat="59.13597" lon="18.411901">
        <ele>24.1</ele>
        <time>2014-10-11T11:47:27Z</time>
      </trkpt>
      <trkpt lat="59.135939" lon="18.41185">
        <ele>24.3</ele>
        <time>2014-10-11T11:47:28Z</time>
      </trkpt>
      <trkpt lat="59.135909" lon="18.411797">
        <ele>24.5</ele>
        <time>2014-10-11T11:47:29Z</time>
      </trkpt>
      <trkpt lat="59.135882" lon="18.411749">
        <ele>24.7</ele>
        <time>2014-10-11T11:47:30Z</time>
      </trkpt>
      <trkpt lat="59.135852" lon="18.411703">
        <ele>24.9</ele>
        <time>2014-10-11T11:47:31Z</time>
      </trkpt>
      <trkpt lat="59.135822" lon="18.411655">
        <ele>25</ele>
        <time>2014-10-11T11:47:32Z</time>
      </trkpt>
      <trkpt lat="59.135795" lon="18.411612">
        <ele>25.2</ele>
        <time>2014-10-11T11:47:33Z</time>
      </trkpt>
      <trkpt lat="59.135764" lon="18.411564">
        <ele>25.3</ele>
        <time>2014-10-11T11:47:34Z</time>
      </trkpt>
      <trkpt lat="59.135737" lon="18.411519">
        <ele>25.5</ele>
        <time>2014-10-11T11:47:35Z</time>
      </trkpt>
      <trkpt lat="59.135704" lon="18.41147">
        <ele>25.6</ele>
        <time>2014-10-11T11:47:36Z</time>
      </trkpt>
      <trkpt lat="59.135679" lon="18.411428">
        <ele>25.8</ele>
        <time>2014-10-11T11:47:37Z</time>
      </trkpt>
      <trkpt lat="59.135649" lon="18.411381">
        <ele>25.9</ele>
        <time>2014-10-11T11:47:38Z</time>
      </trkpt>
      <trkpt lat="59.135637" lon="18.411333">
        <ele>26</ele>
        <time>2014-10-11T11:47:39Z</time>
      </trkpt>
      <trkpt lat="59.135615" lon="18.411273">
        <ele>26.2</ele>
        <time>2014-10-11T11:47:40Z</time>
      </trkpt>
      <trkpt lat="59.135596" lon="18.411219">
        <ele>26.3</ele>
        <time>2014-10-11T11:47:41Z</time>
      </trkpt>
      <trkpt lat="59.135576" lon="18.411162">
        <ele>26.4</ele>
        <time>2014-10-11T11:47:42Z</time>
      </trkpt>
      <trkpt lat="59.135555" lon="18.411104">
        <ele>26.4</ele>
        <time>2014-10-11T11:47:43Z</time>
      </trkpt>
      <trkpt lat="59.135535" lon="18.411049">
        <ele>26.5</ele>
        <time>2014-10-11T11:47:44Z</time>
      </trkpt>
      <trkpt lat="59.135512" lon="18.410987">
        <ele>26.5</ele>
        <time>2014-10-11T11:47:45Z</time>
      </trkpt>
      <trkpt lat="59.135493" lon="18.410934">
        <ele>26.6</ele>
        <time>2014-10-11T11:47:46Z</time>
      </trkpt>
      <trkpt lat="59.135352" lon="18.410535">
        <ele>26.7</ele>
        <time>2014-10-11T11:47:53Z</time>
      </trkpt>
      <trkpt lat="59.135326" lon="18.410471">
        <ele>26.7</ele>
        <time>2014-10-11T11:47:54Z</time>
      </trkpt>
      <trkpt lat="59.135303" lon="18.410415">
        <ele>26.7</ele>
        <time>2014-10-11T11:47:55Z</time>
      </trkpt>
      <trkpt lat="59.135271" lon="18.410318">
        <ele>26.8</ele>
        <time>2014-10-11T11:47:57Z</time>
      </trkpt>
      <trkpt lat="59.135255" lon="18.410273">
        <ele>26.8</ele>
        <time>2014-10-11T11:47:58Z</time>
      </trkpt>
      <trkpt lat="59.135232" lon="18.410218">
        <ele>26.8</ele>
        <time>2014-10-11T11:47:59Z</time>
      </trkpt>
      <trkpt lat="59.13521" lon="18.41016">
        <ele>26.8</ele>
        <time>2014-10-11T11:48:00Z</time>
      </trkpt>
      <trkpt lat="59.135162" lon="18.41006">
        <ele>26.8</ele>
        <time>2014-10-11T11:48:01Z</time>
      </trkpt>
      <trkpt lat="59.135125" lon="18.409985">
        <ele>26.8</ele>
        <time>2014-10-11T11:48:02Z</time>
      </trkpt>
      <trkpt lat="59.135106" lon="18.409903">
        <ele>26.9</ele>
        <time>2014-10-11T11:48:03Z</time>
      </trkpt>
      <trkpt lat="59.135078" lon="18.409824">
        <ele>26.9</ele>
        <time>2014-10-11T11:48:04Z</time>
      </trkpt>
      <trkpt lat="59.135046" lon="18.409751">
        <ele>26.9</ele>
        <time>2014-10-11T11:48:05Z</time>
      </trkpt>
      <trkpt lat="59.135" lon="18.409671">
        <ele>26.9</ele>
        <time>2014-10-11T11:48:06Z</time>
      </trkpt>
      <trkpt lat="59.134959" lon="18.409597">
        <ele>26.9</ele>
        <time>2014-10-11T11:48:07Z</time>
      </trkpt>
      <trkpt lat="59.134912" lon="18.409522">
        <ele>26.8</ele>
        <time>2014-10-11T11:48:08Z</time>
      </trkpt>
      <trkpt lat="59.134865" lon="18.409466">
        <ele>26.7</ele>
        <time>2014-10-11T11:48:09Z</time>
      </trkpt>
      <trkpt lat="59.134822" lon="18.409419">
        <ele>26.6</ele>
        <time>2014-10-11T11:48:10Z</time>
      </trkpt>
      <trkpt lat="59.134779" lon="18.409389">
        <ele>26.5</ele>
        <time>2014-10-11T11:48:11Z</time>
      </trkpt>
      <trkpt lat="59.134721" lon="18.409348">
        <ele>26.4</ele>
        <time>2014-10-11T11:48:12Z</time>
      </trkpt>
      <trkpt lat="59.134659" lon="18.409318">
        <ele>26.2</ele>
        <time>2014-10-11T11:48:13Z</time>
      </trkpt>
      <trkpt lat="59.134591" lon="18.409316">
        <ele>26</ele>
        <time>2014-10-11T11:48:14Z</time>
      </trkpt>
      <trkpt lat="59.13453" lon="18.409289">
        <ele>25.9</ele>
        <time>2014-10-11T11:48:15Z</time>
      </trkpt>
      <trkpt lat="59.134466" lon="18.409262">
        <ele>25.8</ele>
        <time>2014-10-11T11:48:16Z</time>
      </trkpt>
      <trkpt lat="59.134402" lon="18.409243">
        <ele>25.7</ele>
        <time>2014-10-11T11:48:17Z</time>
      </trkpt>
      <trkpt lat="59.134337" lon="18.409218">
        <ele>25.5</ele>
        <time>2014-10-11T11:48:18Z</time>
      </trkpt>
      <trkpt lat="59.134273" lon="18.409162">
        <ele>25.4</ele>
        <time>2014-10-11T11:48:19Z</time>
      </trkpt>
      <trkpt lat="59.134229" lon="18.409111">
        <ele>25.4</ele>
        <time>2014-10-11T11:48:20Z</time>
      </trkpt>
      <trkpt lat="59.134177" lon="18.409046">
        <ele>25.3</ele>
        <time>2014-10-11T11:48:21Z</time>
      </trkpt>
      <trkpt lat="59.134122" lon="18.409001">
        <ele>25.3</ele>
        <time>2014-10-11T11:48:22Z</time>
      </trkpt>
      <trkpt lat="59.134081" lon="18.408947">
        <ele>25.3</ele>
        <time>2014-10-11T11:48:23Z</time>
      </trkpt>
      <trkpt lat="59.134042" lon="18.408905">
        <ele>25.2</ele>
        <time>2014-10-11T11:48:24Z</time>
      </trkpt>
      <trkpt lat="59.133999" lon="18.408853">
        <ele>25.2</ele>
        <time>2014-10-11T11:48:25Z</time>
      </trkpt>
      <trkpt lat="59.13397" lon="18.40883">
        <ele>25.2</ele>
        <time>2014-10-11T11:48:26Z</time>
      </trkpt>
      <trkpt lat="59.133934" lon="18.408804">
        <ele>25.2</ele>
        <time>2014-10-11T11:48:27Z</time>
      </trkpt>
      <trkpt lat="59.133893" lon="18.40875">
        <ele>25.2</ele>
        <time>2014-10-11T11:48:28Z</time>
      </trkpt>
      <trkpt lat="59.133859" lon="18.408711">
        <ele>25.2</ele>
        <time>2014-10-11T11:48:29Z</time>
      </trkpt>
      <trkpt lat="59.133821" lon="18.408662">
        <ele>25.2</ele>
        <time>2014-10-11T11:48:30Z</time>
      </trkpt>
      <trkpt lat="59.133785" lon="18.408605">
        <ele>25.2</ele>
        <time>2014-10-11T11:48:31Z</time>
      </trkpt>
      <trkpt lat="59.133736" lon="18.408564">
        <ele>25.2</ele>
        <time>2014-10-11T11:48:32Z</time>
      </trkpt>
      <trkpt lat="59.133688" lon="18.408525">
        <ele>25.2</ele>
        <time>2014-10-11T11:48:33Z</time>
      </trkpt>
      <trkpt lat="59.133636" lon="18.408494">
        <ele>25.2</ele>
        <time>2014-10-11T11:48:34Z</time>
      </trkpt>
      <trkpt lat="59.133588" lon="18.408466">
        <ele>25.2</ele>
        <time>2014-10-11T11:48:35Z</time>
      </trkpt>
      <trkpt lat="59.133558" lon="18.408422">
        <ele>25.3</ele>
        <time>2014-10-11T11:48:36Z</time>
      </trkpt>
      <trkpt lat="59.133505" lon="18.408378">
        <ele>25.3</ele>
        <time>2014-10-11T11:48:37Z</time>
      </trkpt>
      <trkpt lat="59.133464" lon="18.408331">
        <ele>25.3</ele>
        <time>2014-10-11T11:48:38Z</time>
      </trkpt>
      <trkpt lat="59.133417" lon="18.408293">
        <ele>25.4</ele>
        <time>2014-10-11T11:48:39Z</time>
      </trkpt>
      <trkpt lat="59.133369" lon="18.408253">
        <ele>25.4</ele>
        <time>2014-10-11T11:48:40Z</time>
      </trkpt>
      <trkpt lat="59.133298" lon="18.408242">
        <ele>25.4</ele>
        <time>2014-10-11T11:48:41Z</time>
      </trkpt>
      <trkpt lat="59.133247" lon="18.40821">
        <ele>25.4</ele>
        <time>2014-10-11T11:48:42Z</time>
      </trkpt>
      <trkpt lat="59.13319" lon="18.408183">
        <ele>25.5</ele>
        <time>2014-10-11T11:48:43Z</time>
      </trkpt>
      <trkpt lat="59.133124" lon="18.40815">
        <ele>25.5</ele>
        <time>2014-10-11T11:48:44Z</time>
      </trkpt>
      <trkpt lat="59.133067" lon="18.408109">
        <ele>25.6</ele>
        <time>2014-10-11T11:48:45Z</time>
      </trkpt>
      <trkpt lat="59.133006" lon="18.408066">
        <ele>25.7</ele>
        <time>2014-10-11T11:48:46Z</time>
      </trkpt>
      <trkpt lat="59.132954" lon="18.408036">
        <ele>25.7</ele>
        <time>2014-10-11T11:48:47Z</time>
      </trkpt>
      <trkpt lat="59.132888" lon="18.407988">
        <ele>25.7</ele>
        <time>2014-10-11T11:48:48Z</time>
      </trkpt>
      <trkpt lat="59.132825" lon="18.40793">
        <ele>25.4</ele>
        <time>2014-10-11T11:48:49Z</time>
      </trkpt>
      <trkpt lat="59.132774" lon="18.407874">
        <ele>25.2</ele>
        <time>2014-10-11T11:48:50Z</time>
      </trkpt>
      <trkpt lat="59.132721" lon="18.407816">
        <ele>24.9</ele>
        <time>2014-10-11T11:48:51Z</time>
      </trkpt>
      <trkpt lat="59.132693" lon="18.40779">
        <ele>24.8</ele>
        <time>2014-10-11T11:48:52Z</time>
      </trkpt>
      <trkpt lat="59.132648" lon="18.40772">
        <ele>24.5</ele>
        <time>2014-10-11T11:48:53Z</time>
      </trkpt>
      <trkpt lat="59.1326" lon="18.407659">
        <ele>24.3</ele>
        <time>2014-10-11T11:48:54Z</time>
      </trkpt>
      <trkpt lat="59.132569" lon="18.407582">
        <ele>24.1</ele>
        <time>2014-10-11T11:48:55Z</time>
      </trkpt>
      <trkpt lat="59.132521" lon="18.407502">
        <ele>23.9</ele>
        <time>2014-10-11T11:48:56Z</time>
      </trkpt>
      <trkpt lat="59.13249" lon="18.407457">
        <ele>23.7</ele>
        <time>2014-10-11T11:48:57Z</time>
      </trkpt>
      <trkpt lat="59.132453" lon="18.407406">
        <ele>23.5</ele>
        <time>2014-10-11T11:48:58Z</time>
      </trkpt>
      <trkpt lat="59.132404" lon="18.407345">
        <ele>23.2</ele>
        <time>2014-10-11T11:48:59Z</time>
      </trkpt>
      <trkpt lat="59.132366" lon="18.407326">
        <ele>22.9</ele>
        <time>2014-10-11T11:49:00Z</time>
      </trkpt>
      <trkpt lat="59.132321" lon="18.40731">
        <ele>22.6</ele>
        <time>2014-10-11T11:49:01Z</time>
      </trkpt>
      <trkpt lat="59.132287" lon="18.407297">
        <ele>22.4</ele>
        <time>2014-10-11T11:49:02Z</time>
      </trkpt>
      <trkpt lat="59.132234" lon="18.407277">
        <ele>22</ele>
        <time>2014-10-11T11:49:03Z</time>
      </trkpt>
      <trkpt lat="59.132188" lon="18.40726">
        <ele>21.7</ele>
        <time>2014-10-11T11:49:04Z</time>
      </trkpt>
      <trkpt lat="59.132123" lon="18.407256">
        <ele>21.3</ele>
        <time>2014-10-11T11:49:05Z</time>
      </trkpt>
      <trkpt lat="59.13207" lon="18.407241">
        <ele>20.9</ele>
        <time>2014-10-11T11:49:06Z</time>
      </trkpt>
      <trkpt lat="59.131997" lon="18.407172">
        <ele>20.1</ele>
        <time>2014-10-11T11:49:07Z</time>
      </trkpt>
      <trkpt lat="59.131929" lon="18.40711">
        <ele>19.5</ele>
        <time>2014-10-11T11:49:08Z</time>
      </trkpt>
      <trkpt lat="59.131863" lon="18.407037">
        <ele>19.1</ele>
        <time>2014-10-11T11:49:09Z</time>
      </trkpt>
      <trkpt lat="59.131811" lon="18.406945">
        <ele>19.1</ele>
        <time>2014-10-11T11:49:10Z</time>
      </trkpt>
      <trkpt lat="59.131759" lon="18.406843">
        <ele>19.2</ele>
        <time>2014-10-11T11:49:11Z</time>
      </trkpt>
      <trkpt lat="59.131705" lon="18.406726">
        <ele>19.3</ele>
        <time>2014-10-11T11:49:12Z</time>
      </trkpt>
      <trkpt lat="59.131647" lon="18.406597">
        <ele>19.5</ele>
        <time>2014-10-11T11:49:13Z</time>
      </trkpt>
      <trkpt lat="59.131598" lon="18.406494">
        <ele>19.6</ele>
        <time>2014-10-11T11:49:14Z</time>
      </trkpt>
      <trkpt lat="59.131528" lon="18.406419">
        <ele>19.4</ele>
        <time>2014-10-11T11:49:15Z</time>
      </trkpt>
      <trkpt lat="59.131457" lon="18.406357">
        <ele>19.1</ele>
        <time>2014-10-11T11:49:16Z</time>
      </trkpt>
      <trkpt lat="59.131381" lon="18.406329">
        <ele>18.6</ele>
        <time>2014-10-11T11:49:17Z</time>
      </trkpt>
      <trkpt lat="59.131291" lon="18.406293">
        <ele>18.1</ele>
        <time>2014-10-11T11:49:18Z</time>
      </trkpt>
      <trkpt lat="59.131211" lon="18.406264">
        <ele>17.5</ele>
        <time>2014-10-11T11:49:19Z</time>
      </trkpt>
      <trkpt lat="59.131129" lon="18.406238">
        <ele>16.8</ele>
        <time>2014-10-11T11:49:20Z</time>
      </trkpt>
      <trkpt lat="59.131056" lon="18.406123">
        <ele>16.6</ele>
        <time>2014-10-11T11:49:21Z</time>
      </trkpt>
      <trkpt lat="59.130974" lon="18.406">
        <ele>16.2</ele>
        <time>2014-10-11T11:49:22Z</time>
      </trkpt>
      <trkpt lat="59.130907" lon="18.405883">
        <ele>16</ele>
        <time>2014-10-11T11:49:23Z</time>
      </trkpt>
      <trkpt lat="59.130855" lon="18.405758">
        <ele>15.8</ele>
        <time>2014-10-11T11:49:24Z</time>
      </trkpt>
      <trkpt lat="59.130776" lon="18.405643">
        <ele>15.3</ele>
        <time>2014-10-11T11:49:25Z</time>
      </trkpt>
      <trkpt lat="59.130705" lon="18.405575">
        <ele>14.6</ele>
        <time>2014-10-11T11:49:26Z</time>
      </trkpt>
      <trkpt lat="59.130614" lon="18.405532">
        <ele>13.5</ele>
        <time>2014-10-11T11:49:27Z</time>
      </trkpt>
      <trkpt lat="59.130535" lon="18.405526">
        <ele>12.4</ele>
        <time>2014-10-11T11:49:28Z</time>
      </trkpt>
      <trkpt lat="59.130463" lon="18.405556">
        <ele>11.3</ele>
        <time>2014-10-11T11:49:29Z</time>
      </trkpt>
      <trkpt lat="59.130398" lon="18.405537">
        <ele>10.6</ele>
        <time>2014-10-11T11:49:30Z</time>
      </trkpt>
      <trkpt lat="59.130328" lon="18.405518">
        <ele>10</ele>
        <time>2014-10-11T11:49:31Z</time>
      </trkpt>
      <trkpt lat="59.130283" lon="18.405471">
        <ele>9.8</ele>
        <time>2014-10-11T11:49:32Z</time>
      </trkpt>
      <trkpt lat="59.130212" lon="18.4054">
        <ele>9.3</ele>
        <time>2014-10-11T11:49:33Z</time>
      </trkpt>
      <trkpt lat="59.130176" lon="18.405324">
        <ele>9.2</ele>
        <time>2014-10-11T11:49:34Z</time>
      </trkpt>
      <trkpt lat="59.130153" lon="18.405255">
        <ele>9.2</ele>
        <time>2014-10-11T11:49:35Z</time>
      </trkpt>
      <trkpt lat="59.130112" lon="18.405179">
        <ele>9.1</ele>
        <time>2014-10-11T11:49:36Z</time>
      </trkpt>
      <trkpt lat="59.130084" lon="18.40512">
        <ele>9</ele>
        <time>2014-10-11T11:49:37Z</time>
      </trkpt>
      <trkpt lat="59.130068" lon="18.405069">
        <ele>9</ele>
        <time>2014-10-11T11:49:38Z</time>
      </trkpt>
      <trkpt lat="59.130027" lon="18.405007">
        <ele>8.7</ele>
        <time>2014-10-11T11:49:39Z</time>
      </trkpt>
      <trkpt lat="59.129992" lon="18.404954">
        <ele>8.5</ele>
        <time>2014-10-11T11:49:40Z</time>
      </trkpt>
      <trkpt lat="59.129937" lon="18.404899">
        <ele>8.1</ele>
        <time>2014-10-11T11:49:42Z</time>
      </trkpt>
      <trkpt lat="59.129905" lon="18.404861">
        <ele>7.9</ele>
        <time>2014-10-11T11:49:43Z</time>
      </trkpt>
      <trkpt lat="59.129841" lon="18.404841">
        <ele>7.3</ele>
        <time>2014-10-11T11:49:45Z</time>
      </trkpt>
      <trkpt lat="59.129794" lon="18.404841">
        <ele>6.8</ele>
        <time>2014-10-11T11:49:46Z</time>
      </trkpt>
      <trkpt lat="59.129748" lon="18.404859">
        <ele>6.3</ele>
        <time>2014-10-11T11:49:47Z</time>
      </trkpt>
      <trkpt lat="59.129698" lon="18.404908">
        <ele>5.7</ele>
        <time>2014-10-11T11:49:48Z</time>
      </trkpt>
      <trkpt lat="59.129658" lon="18.404955">
        <ele>5.3</ele>
        <time>2014-10-11T11:49:49Z</time>
      </trkpt>
      <trkpt lat="59.129651" lon="18.405026">
        <ele>5.1</ele>
        <time>2014-10-11T11:49:50Z</time>
      </trkpt>
      <trkpt lat="59.129656" lon="18.405094">
        <ele>5.1</ele>
        <time>2014-10-11T11:49:51Z</time>
      </trkpt>
      <trkpt lat="59.129664" lon="18.405152">
        <ele>5.1</ele>
        <time>2014-10-11T11:49:52Z</time>
      </trkpt>
      <trkpt lat="59.129661" lon="18.405246">
        <ele>4.9</ele>
        <time>2014-10-11T11:49:54Z</time>
      </trkpt>
      <trkpt lat="59.129657" lon="18.405348">
        <ele>4.7</ele>
        <time>2014-10-11T11:49:56Z</time>
      </trkpt>
      <trkpt lat="59.129655" lon="18.405431">
        <ele>4.6</ele>
        <time>2014-10-11T11:49:58Z</time>
      </trkpt>
      <trkpt lat="59.129616" lon="18.405445">
        <ele>4.3</ele>
        <time>2014-10-11T11:50:00Z</time>
      </trkpt>
      <trkpt lat="59.129586" lon="18.405389">
        <ele>4.1</ele>
        <time>2014-10-11T11:50:02Z</time>
      </trkpt>
      <trkpt lat="59.129609" lon="18.40536">
        <ele>4.3</ele>
        <time>2014-10-11T11:50:09Z</time>
      </trkpt>
      <trkpt lat="59.129691" lon="18.405246">
        <ele>5.2</ele>
        <time>2014-10-11T11:50:55Z</time>
      </trkpt>
      <trkpt lat="59.129723" lon="18.405228">
        <ele>5.5</ele>
        <time>2014-10-11T11:50:56Z</time>
      </trkpt>
      <trkpt lat="59.129759" lon="18.405227">
        <ele>5.8</ele>
        <time>2014-10-11T11:50:57Z</time>
      </trkpt>
      <trkpt lat="59.129793" lon="18.405244">
        <ele>6.1</ele>
        <time>2014-10-11T11:50:58Z</time>
      </trkpt>
      <trkpt lat="59.129828" lon="18.405266">
        <ele>6.3</ele>
        <time>2014-10-11T11:50:59Z</time>
      </trkpt>
      <trkpt lat="59.129861" lon="18.40529">
        <ele>6.6</ele>
        <time>2014-10-11T11:51:00Z</time>
      </trkpt>
      <trkpt lat="59.129897" lon="18.405314">
        <ele>6.9</ele>
        <time>2014-10-11T11:51:01Z</time>
      </trkpt>
      <trkpt lat="59.12993" lon="18.405333">
        <ele>7.1</ele>
        <time>2014-10-11T11:51:02Z</time>
      </trkpt>
      <trkpt lat="59.129962" lon="18.405356">
        <ele>7.3</ele>
        <time>2014-10-11T11:51:03Z</time>
      </trkpt>
      <trkpt lat="59.129992" lon="18.405382">
        <ele>7.5</ele>
        <time>2014-10-11T11:51:04Z</time>
      </trkpt>
      <trkpt lat="59.130022" lon="18.405407">
        <ele>7.7</ele>
        <time>2014-10-11T11:51:05Z</time>
      </trkpt>
      <trkpt lat="59.130052" lon="18.405432">
        <ele>7.9</ele>
        <time>2014-10-11T11:51:06Z</time>
      </trkpt>
      <trkpt lat="59.130085" lon="18.405453">
        <ele>8.2</ele>
        <time>2014-10-11T11:51:07Z</time>
      </trkpt>
      <trkpt lat="59.130117" lon="18.405471">
        <ele>8.4</ele>
        <time>2014-10-11T11:51:08Z</time>
      </trkpt>
      <trkpt lat="59.130145" lon="18.405491">
        <ele>8.6</ele>
        <time>2014-10-11T11:51:09Z</time>
      </trkpt>
      <trkpt lat="59.130177" lon="18.405512">
        <ele>8.8</ele>
        <time>2014-10-11T11:51:10Z</time>
      </trkpt>
      <trkpt lat="59.130207" lon="18.405534">
        <ele>9</ele>
        <time>2014-10-11T11:51:11Z</time>
      </trkpt>
      <trkpt lat="59.130235" lon="18.405552">
        <ele>9.2</ele>
        <time>2014-10-11T11:51:12Z</time>
      </trkpt>
      <trkpt lat="59.130265" lon="18.40557">
        <ele>9.4</ele>
        <time>2014-10-11T11:51:13Z</time>
      </trkpt>
      <trkpt lat="59.130296" lon="18.405584">
        <ele>9.6</ele>
        <time>2014-10-11T11:51:14Z</time>
      </trkpt>
      <trkpt lat="59.130328" lon="18.405597">
        <ele>9.9</ele>
        <time>2014-10-11T11:51:15Z</time>
      </trkpt>
      <trkpt lat="59.13036" lon="18.405609">
        <ele>10.1</ele>
        <time>2014-10-11T11:51:16Z</time>
      </trkpt>
      <trkpt lat="59.130392" lon="18.405623">
        <ele>10.3</ele>
        <time>2014-10-11T11:51:17Z</time>
      </trkpt>
      <trkpt lat="59.130421" lon="18.405641">
        <ele>10.5</ele>
        <time>2014-10-11T11:51:18Z</time>
      </trkpt>
      <trkpt lat="59.130516" lon="18.405628">
        <ele>11.8</ele>
        <time>2014-10-11T11:51:48Z</time>
      </trkpt>
      <trkpt lat="59.130536" lon="18.405621">
        <ele>12.1</ele>
        <time>2014-10-11T11:51:49Z</time>
      </trkpt>
      <trkpt lat="59.130582" lon="18.405614">
        <ele>12.8</ele>
        <time>2014-10-11T11:51:50Z</time>
      </trkpt>
      <trkpt lat="59.130616" lon="18.405607">
        <ele>13.2</ele>
        <time>2014-10-11T11:51:51Z</time>
      </trkpt>
      <trkpt lat="59.130675" lon="18.405652">
        <ele>13.9</ele>
        <time>2014-10-11T11:51:52Z</time>
      </trkpt>
      <trkpt lat="59.130713" lon="18.405681">
        <ele>14.3</ele>
        <time>2014-10-11T11:51:53Z</time>
      </trkpt>
      <trkpt lat="59.130786" lon="18.40581">
        <ele>14.7</ele>
        <time>2014-10-11T11:51:54Z</time>
      </trkpt>
      <trkpt lat="59.130814" lon="18.405878">
        <ele>14.8</ele>
        <time>2014-10-11T11:51:55Z</time>
      </trkpt>
      <trkpt lat="59.130854" lon="18.40594">
        <ele>15.1</ele>
        <time>2014-10-11T11:51:56Z</time>
      </trkpt>
      <trkpt lat="59.130896" lon="18.406003">
        <ele>15.3</ele>
        <time>2014-10-11T11:51:57Z</time>
      </trkpt>
      <trkpt lat="59.130946" lon="18.406086">
        <ele>15.5</ele>
        <time>2014-10-11T11:51:58Z</time>
      </trkpt>
      <trkpt lat="59.130991" lon="18.406132">
        <ele>15.8</ele>
        <time>2014-10-11T11:51:59Z</time>
      </trkpt>
      <trkpt lat="59.131039" lon="18.406179">
        <ele>16.1</ele>
        <time>2014-10-11T11:52:00Z</time>
      </trkpt>
      <trkpt lat="59.131087" lon="18.406235">
        <ele>16.3</ele>
        <time>2014-10-11T11:52:01Z</time>
      </trkpt>
      <trkpt lat="59.131135" lon="18.406259">
        <ele>16.7</ele>
        <time>2014-10-11T11:52:02Z</time>
      </trkpt>
      <trkpt lat="59.13118" lon="18.40629">
        <ele>17</ele>
        <time>2014-10-11T11:52:03Z</time>
      </trkpt>
      <trkpt lat="59.131227" lon="18.406315">
        <ele>17.4</ele>
        <time>2014-10-11T11:52:04Z</time>
      </trkpt>
      <trkpt lat="59.131272" lon="18.406329">
        <ele>17.7</ele>
        <time>2014-10-11T11:52:05Z</time>
      </trkpt>
      <trkpt lat="59.131318" lon="18.406351">
        <ele>18</ele>
        <time>2014-10-11T11:52:06Z</time>
      </trkpt>
      <trkpt lat="59.131362" lon="18.406373">
        <ele>18.2</ele>
        <time>2014-10-11T11:52:07Z</time>
      </trkpt>
      <trkpt lat="59.131404" lon="18.406398">
        <ele>18.4</ele>
        <time>2014-10-11T11:52:08Z</time>
      </trkpt>
      <trkpt lat="59.131445" lon="18.40642">
        <ele>18.7</ele>
        <time>2014-10-11T11:52:09Z</time>
      </trkpt>
      <trkpt lat="59.131481" lon="18.40646">
        <ele>18.8</ele>
        <time>2014-10-11T11:52:10Z</time>
      </trkpt>
      <trkpt lat="59.13152" lon="18.406515">
        <ele>18.8</ele>
        <time>2014-10-11T11:52:11Z</time>
      </trkpt>
      <trkpt lat="59.131557" lon="18.406565">
        <ele>18.8</ele>
        <time>2014-10-11T11:52:12Z</time>
      </trkpt>
      <trkpt lat="59.131581" lon="18.406613">
        <ele>18.8</ele>
        <time>2014-10-11T11:52:13Z</time>
      </trkpt>
      <trkpt lat="59.131616" lon="18.406658">
        <ele>18.8</ele>
        <time>2014-10-11T11:52:14Z</time>
      </trkpt>
      <trkpt lat="59.131643" lon="18.406709">
        <ele>18.8</ele>
        <time>2014-10-11T11:52:15Z</time>
      </trkpt>
      <trkpt lat="59.131671" lon="18.406775">
        <ele>18.7</ele>
        <time>2014-10-11T11:52:16Z</time>
      </trkpt>
      <trkpt lat="59.131705" lon="18.406839">
        <ele>18.7</ele>
        <time>2014-10-11T11:52:17Z</time>
      </trkpt>
      <trkpt lat="59.131735" lon="18.406906">
        <ele>18.6</ele>
        <time>2014-10-11T11:52:18Z</time>
      </trkpt>
      <trkpt lat="59.13177" lon="18.406972">
        <ele>18.6</ele>
        <time>2014-10-11T11:52:19Z</time>
      </trkpt>
      <trkpt lat="59.131802" lon="18.407024">
        <ele>18.6</ele>
        <time>2014-10-11T11:52:20Z</time>
      </trkpt>
      <trkpt lat="59.131836" lon="18.407083">
        <ele>18.6</ele>
        <time>2014-10-11T11:52:21Z</time>
      </trkpt>
      <trkpt lat="59.131868" lon="18.407117">
        <ele>18.9</ele>
        <time>2014-10-11T11:52:22Z</time>
      </trkpt>
      <trkpt lat="59.131911" lon="18.407159">
        <ele>19.3</ele>
        <time>2014-10-11T11:52:23Z</time>
      </trkpt>
      <trkpt lat="59.131955" lon="18.40718">
        <ele>19.7</ele>
        <time>2014-10-11T11:52:24Z</time>
      </trkpt>
      <trkpt lat="59.131997" lon="18.407206">
        <ele>20.1</ele>
        <time>2014-10-11T11:52:25Z</time>
      </trkpt>
      <trkpt lat="59.132042" lon="18.407228">
        <ele>20.6</ele>
        <time>2014-10-11T11:52:26Z</time>
      </trkpt>
      <trkpt lat="59.132087" lon="18.407238">
        <ele>21</ele>
        <time>2014-10-11T11:52:27Z</time>
      </trkpt>
      <trkpt lat="59.132131" lon="18.407262">
        <ele>21.3</ele>
        <time>2014-10-11T11:52:28Z</time>
      </trkpt>
      <trkpt lat="59.13217" lon="18.407278">
        <ele>21.6</ele>
        <time>2014-10-11T11:52:29Z</time>
      </trkpt>
      <trkpt lat="59.132212" lon="18.407294">
        <ele>21.9</ele>
        <time>2014-10-11T11:52:30Z</time>
      </trkpt>
      <trkpt lat="59.132246" lon="18.407321">
        <ele>22.1</ele>
        <time>2014-10-11T11:52:31Z</time>
      </trkpt>
      <trkpt lat="59.132286" lon="18.407369">
        <ele>22.4</ele>
        <time>2014-10-11T11:52:32Z</time>
      </trkpt>
      <trkpt lat="59.132322" lon="18.407397">
        <ele>22.6</ele>
        <time>2014-10-11T11:52:33Z</time>
      </trkpt>
      <trkpt lat="59.132366" lon="18.407437">
        <ele>22.9</ele>
        <time>2014-10-11T11:52:34Z</time>
      </trkpt>
      <trkpt lat="59.132394" lon="18.407457">
        <ele>23.1</ele>
        <time>2014-10-11T11:52:35Z</time>
      </trkpt>
      <trkpt lat="59.132432" lon="18.407492">
        <ele>23.3</ele>
        <time>2014-10-11T11:52:36Z</time>
      </trkpt>
      <trkpt lat="59.132497" lon="18.407567">
        <ele>23.7</ele>
        <time>2014-10-11T11:52:37Z</time>
      </trkpt>
      <trkpt lat="59.132536" lon="18.40762">
        <ele>23.9</ele>
        <time>2014-10-11T11:52:38Z</time>
      </trkpt>
      <trkpt lat="59.132557" lon="18.407678">
        <ele>24</ele>
        <time>2014-10-11T11:52:39Z</time>
      </trkpt>
      <trkpt lat="59.132594" lon="18.407739">
        <ele>24.2</ele>
        <time>2014-10-11T11:52:40Z</time>
      </trkpt>
      <trkpt lat="59.132636" lon="18.40781">
        <ele>24.4</ele>
        <time>2014-10-11T11:52:41Z</time>
      </trkpt>
      <trkpt lat="59.132677" lon="18.40787">
        <ele>24.6</ele>
        <time>2014-10-11T11:52:42Z</time>
      </trkpt>
      <trkpt lat="59.132708" lon="18.407886">
        <ele>24.8</ele>
        <time>2014-10-11T11:52:43Z</time>
      </trkpt>
      <trkpt lat="59.132759" lon="18.407942">
        <ele>25</ele>
        <time>2014-10-11T11:52:44Z</time>
      </trkpt>
      <trkpt lat="59.132791" lon="18.408005">
        <ele>25</ele>
        <time>2014-10-11T11:52:45Z</time>
      </trkpt>
      <trkpt lat="59.132837" lon="18.408058">
        <ele>25.2</ele>
        <time>2014-10-11T11:52:46Z</time>
      </trkpt>
      <trkpt lat="59.132881" lon="18.408076">
        <ele>25.4</ele>
        <time>2014-10-11T11:52:47Z</time>
      </trkpt>
      <trkpt lat="59.133051" lon="18.408175">
        <ele>25.4</ele>
        <time>2014-10-11T11:52:51Z</time>
      </trkpt>
      <trkpt lat="59.133085" lon="18.40819">
        <ele>25.4</ele>
        <time>2014-10-11T11:52:52Z</time>
      </trkpt>
      <trkpt lat="59.133131" lon="18.408215">
        <ele>25.4</ele>
        <time>2014-10-11T11:52:53Z</time>
      </trkpt>
      <trkpt lat="59.133176" lon="18.408216">
        <ele>25.4</ele>
        <time>2014-10-11T11:52:54Z</time>
      </trkpt>
      <trkpt lat="59.13321" lon="18.408242">
        <ele>25.4</ele>
        <time>2014-10-11T11:52:55Z</time>
      </trkpt>
      <trkpt lat="59.133254" lon="18.408284">
        <ele>25.3</ele>
        <time>2014-10-11T11:52:56Z</time>
      </trkpt>
      <trkpt lat="59.133313" lon="18.408342">
        <ele>25.2</ele>
        <time>2014-10-11T11:52:57Z</time>
      </trkpt>
      <trkpt lat="59.133353" lon="18.408381">
        <ele>25.2</ele>
        <time>2014-10-11T11:52:58Z</time>
      </trkpt>
      <trkpt lat="59.133392" lon="18.408412">
        <ele>25.2</ele>
        <time>2014-10-11T11:52:59Z</time>
      </trkpt>
      <trkpt lat="59.133432" lon="18.408448">
        <ele>25.1</ele>
        <time>2014-10-11T11:53:00Z</time>
      </trkpt>
      <trkpt lat="59.133474" lon="18.408491">
        <ele>25.1</ele>
        <time>2014-10-11T11:53:01Z</time>
      </trkpt>
      <trkpt lat="59.133518" lon="18.408536">
        <ele>25</ele>
        <time>2014-10-11T11:53:02Z</time>
      </trkpt>
      <trkpt lat="59.13357" lon="18.408584">
        <ele>25</ele>
        <time>2014-10-11T11:53:04Z</time>
      </trkpt>
      <trkpt lat="59.133599" lon="18.408596">
        <ele>25</ele>
        <time>2014-10-11T11:53:05Z</time>
      </trkpt>
      <trkpt lat="59.133623" lon="18.408621">
        <ele>25</ele>
        <time>2014-10-11T11:53:07Z</time>
      </trkpt>
      <trkpt lat="59.133669" lon="18.408628">
        <ele>25.1</ele>
        <time>2014-10-11T11:53:09Z</time>
      </trkpt>
      <trkpt lat="59.133714" lon="18.408681">
        <ele>25</ele>
        <time>2014-10-11T11:53:11Z</time>
      </trkpt>
      <trkpt lat="59.133738" lon="18.408716">
        <ele>25</ele>
        <time>2014-10-11T11:53:12Z</time>
      </trkpt>
      <trkpt lat="59.133763" lon="18.408747">
        <ele>25</ele>
        <time>2014-10-11T11:53:13Z</time>
      </trkpt>
      <trkpt lat="59.133789" lon="18.408777">
        <ele>25</ele>
        <time>2014-10-11T11:53:14Z</time>
      </trkpt>
      <trkpt lat="59.133816" lon="18.408805">
        <ele>25</ele>
        <time>2014-10-11T11:53:15Z</time>
      </trkpt>
      <trkpt lat="59.133848" lon="18.408838">
        <ele>25</ele>
        <time>2014-10-11T11:53:16Z</time>
      </trkpt>
      <trkpt lat="59.133879" lon="18.408866">
        <ele>25</ele>
        <time>2014-10-11T11:53:17Z</time>
      </trkpt>
      <trkpt lat="59.133913" lon="18.4089">
        <ele>25.1</ele>
        <time>2014-10-11T11:53:18Z</time>
      </trkpt>
      <trkpt lat="59.133948" lon="18.408935">
        <ele>25.1</ele>
        <time>2014-10-11T11:53:19Z</time>
      </trkpt>
      <trkpt lat="59.133978" lon="18.408971">
        <ele>25.1</ele>
        <time>2014-10-11T11:53:20Z</time>
      </trkpt>
      <trkpt lat="59.134055" lon="18.409065">
        <ele>25.1</ele>
        <time>2014-10-11T11:53:21Z</time>
      </trkpt>
      <trkpt lat="59.134101" lon="18.409127">
        <ele>25.2</ele>
        <time>2014-10-11T11:53:22Z</time>
      </trkpt>
      <trkpt lat="59.13416" lon="18.409175">
        <ele>25.2</ele>
        <time>2014-10-11T11:53:23Z</time>
      </trkpt>
      <trkpt lat="59.134216" lon="18.409213">
        <ele>25.3</ele>
        <time>2014-10-11T11:53:24Z</time>
      </trkpt>
      <trkpt lat="59.134274" lon="18.40925">
        <ele>25.4</ele>
        <time>2014-10-11T11:53:25Z</time>
      </trkpt>
      <trkpt lat="59.13433" lon="18.409281">
        <ele>25.5</ele>
        <time>2014-10-11T11:53:26Z</time>
      </trkpt>
      <trkpt lat="59.134378" lon="18.409308">
        <ele>25.6</ele>
        <time>2014-10-11T11:53:27Z</time>
      </trkpt>
      <trkpt lat="59.13443" lon="18.40933">
        <ele>25.7</ele>
        <time>2014-10-11T11:53:29Z</time>
      </trkpt>
      <trkpt lat="59.134463" lon="18.409333">
        <ele>25.8</ele>
        <time>2014-10-11T11:53:30Z</time>
      </trkpt>
      <trkpt lat="59.134512" lon="18.409369">
        <ele>25.9</ele>
        <time>2014-10-11T11:53:32Z</time>
      </trkpt>
      <trkpt lat="59.134544" lon="18.409391">
        <ele>25.9</ele>
        <time>2014-10-11T11:53:34Z</time>
      </trkpt>
      <trkpt lat="59.134571" lon="18.409411">
        <ele>26</ele>
        <time>2014-10-11T11:53:37Z</time>
      </trkpt>
      <trkpt lat="59.134632" lon="18.409434">
        <ele>26.1</ele>
        <time>2014-10-11T11:53:40Z</time>
      </trkpt>
      <trkpt lat="59.134675" lon="18.409446">
        <ele>26.2</ele>
        <time>2014-10-11T11:53:41Z</time>
      </trkpt>
      <trkpt lat="59.134724" lon="18.409462">
        <ele>26.4</ele>
        <time>2014-10-11T11:53:42Z</time>
      </trkpt>
      <trkpt lat="59.134768" lon="18.409485">
        <ele>26.5</ele>
        <time>2014-10-11T11:53:43Z</time>
      </trkpt>
      <trkpt lat="59.134814" lon="18.409524">
        <ele>26.6</ele>
        <time>2014-10-11T11:53:44Z</time>
      </trkpt>
      <trkpt lat="59.134874" lon="18.40961">
        <ele>26.7</ele>
        <time>2014-10-11T11:53:45Z</time>
      </trkpt>
      <trkpt lat="59.134919" lon="18.409667">
        <ele>26.7</ele>
        <time>2014-10-11T11:53:46Z</time>
      </trkpt>
      <trkpt lat="59.134965" lon="18.409742">
        <ele>26.7</ele>
        <time>2014-10-11T11:53:47Z</time>
      </trkpt>
      <trkpt lat="59.135013" lon="18.409821">
        <ele>26.7</ele>
        <time>2014-10-11T11:53:48Z</time>
      </trkpt>
      <trkpt lat="59.135047" lon="18.409904">
        <ele>26.7</ele>
        <time>2014-10-11T11:53:49Z</time>
      </trkpt>
      <trkpt lat="59.135088" lon="18.410006">
        <ele>26.7</ele>
        <time>2014-10-11T11:53:50Z</time>
      </trkpt>
      <trkpt lat="59.135122" lon="18.410084">
        <ele>26.7</ele>
        <time>2014-10-11T11:53:51Z</time>
      </trkpt>
      <trkpt lat="59.135156" lon="18.410173">
        <ele>26.7</ele>
        <time>2014-10-11T11:53:52Z</time>
      </trkpt>
      <trkpt lat="59.135191" lon="18.410261">
        <ele>26.6</ele>
        <time>2014-10-11T11:53:53Z</time>
      </trkpt>
      <trkpt lat="59.135229" lon="18.410348">
        <ele>26.6</ele>
        <time>2014-10-11T11:53:54Z</time>
      </trkpt>
      <trkpt lat="59.135266" lon="18.410447">
        <ele>26.6</ele>
        <time>2014-10-11T11:53:55Z</time>
      </trkpt>
      <trkpt lat="59.135299" lon="18.410539">
        <ele>26.6</ele>
        <time>2014-10-11T11:53:56Z</time>
      </trkpt>
      <trkpt lat="59.135335" lon="18.410656">
        <ele>26.5</ele>
        <time>2014-10-11T11:53:57Z</time>
      </trkpt>
      <trkpt lat="59.135375" lon="18.410755">
        <ele>26.5</ele>
        <time>2014-10-11T11:53:58Z</time>
      </trkpt>
      <trkpt lat="59.135413" lon="18.410848">
        <ele>26.5</ele>
        <time>2014-10-11T11:53:59Z</time>
      </trkpt>
      <trkpt lat="59.135455" lon="18.410962">
        <ele>26.4</ele>
        <time>2014-10-11T11:54:00Z</time>
      </trkpt>
      <trkpt lat="59.135504" lon="18.411081">
        <ele>26.4</ele>
        <time>2014-10-11T11:54:01Z</time>
      </trkpt>
      <trkpt lat="59.135549" lon="18.411206">
        <ele>26.2</ele>
        <time>2014-10-11T11:54:02Z</time>
      </trkpt>
      <trkpt lat="59.135597" lon="18.411349">
        <ele>25.9</ele>
        <time>2014-10-11T11:54:03Z</time>
      </trkpt>
      <trkpt lat="59.135654" lon="18.411473">
        <ele>25.6</ele>
        <time>2014-10-11T11:54:04Z</time>
      </trkpt>
      <trkpt lat="59.135709" lon="18.411571">
        <ele>25.3</ele>
        <time>2014-10-11T11:54:05Z</time>
      </trkpt>
      <trkpt lat="59.135784" lon="18.411697">
        <ele>24.9</ele>
        <time>2014-10-11T11:54:06Z</time>
      </trkpt>
      <trkpt lat="59.135863" lon="18.4118">
        <ele>24.5</ele>
        <time>2014-10-11T11:54:07Z</time>
      </trkpt>
      <trkpt lat="59.13594" lon="18.411939">
        <ele>23.9</ele>
        <time>2014-10-11T11:54:08Z</time>
      </trkpt>
      <trkpt lat="59.136027" lon="18.412067">
        <ele>23.3</ele>
        <time>2014-10-11T11:54:09Z</time>
      </trkpt>
      <trkpt lat="59.136097" lon="18.412168">
        <ele>23.1</ele>
        <time>2014-10-11T11:54:10Z</time>
      </trkpt>
      <trkpt lat="59.136176" lon="18.412283">
        <ele>22.9</ele>
        <time>2014-10-11T11:54:11Z</time>
      </trkpt>
      <trkpt lat="59.136253" lon="18.412413">
        <ele>22.6</ele>
        <time>2014-10-11T11:54:12Z</time>
      </trkpt>
      <trkpt lat="59.136315" lon="18.412512">
        <ele>21.9</ele>
        <time>2014-10-11T11:54:13Z</time>
      </trkpt>
      <trkpt lat="59.136376" lon="18.412604">
        <ele>21.3</ele>
        <time>2014-10-11T11:54:14Z</time>
      </trkpt>
      <trkpt lat="59.136438" lon="18.412685">
        <ele>20.7</ele>
        <time>2014-10-11T11:54:15Z</time>
      </trkpt>
      <trkpt lat="59.136505" lon="18.412782">
        <ele>20</ele>
        <time>2014-10-11T11:54:16Z</time>
      </trkpt>
      <trkpt lat="59.136571" lon="18.412905">
        <ele>19.3</ele>
        <time>2014-10-11T11:54:17Z</time>
      </trkpt>
      <trkpt lat="59.136634" lon="18.413004">
        <ele>18.6</ele>
        <time>2014-10-11T11:54:18Z</time>
      </trkpt>
      <trkpt lat="59.136696" lon="18.413109">
        <ele>17.9</ele>
        <time>2014-10-11T11:54:19Z</time>
      </trkpt>
      <trkpt lat="59.136762" lon="18.413215">
        <ele>17.1</ele>
        <time>2014-10-11T11:54:20Z</time>
      </trkpt>
      <trkpt lat="59.136821" lon="18.413325">
        <ele>16.4</ele>
        <time>2014-10-11T11:54:21Z</time>
      </trkpt>
      <trkpt lat="59.136882" lon="18.413432">
        <ele>15.6</ele>
        <time>2014-10-11T11:54:22Z</time>
      </trkpt>
      <trkpt lat="59.136945" lon="18.413566">
        <ele>14.7</ele>
        <time>2014-10-11T11:54:23Z</time>
      </trkpt>
      <trkpt lat="59.137005" lon="18.413691">
        <ele>13.9</ele>
        <time>2014-10-11T11:54:24Z</time>
      </trkpt>
      <trkpt lat="59.137062" lon="18.413823">
        <ele>13.6</ele>
        <time>2014-10-11T11:54:25Z</time>
      </trkpt>
      <trkpt lat="59.137119" lon="18.413934">
        <ele>13.7</ele>
        <time>2014-10-11T11:54:26Z</time>
      </trkpt>
      <trkpt lat="59.137169" lon="18.414075">
        <ele>14</ele>
        <time>2014-10-11T11:54:27Z</time>
      </trkpt>
      <trkpt lat="59.137213" lon="18.414206">
        <ele>14.2</ele>
        <time>2014-10-11T11:54:28Z</time>
      </trkpt>
      <trkpt lat="59.137249" lon="18.41433">
        <ele>14.4</ele>
        <time>2014-10-11T11:54:29Z</time>
      </trkpt>
      <trkpt lat="59.137283" lon="18.414461">
        <ele>14.6</ele>
        <time>2014-10-11T11:54:30Z</time>
      </trkpt>
      <trkpt lat="59.13731" lon="18.414617">
        <ele>15</ele>
        <time>2014-10-11T11:54:31Z</time>
      </trkpt>
      <trkpt lat="59.137332" lon="18.414749">
        <ele>15.3</ele>
        <time>2014-10-11T11:54:32Z</time>
      </trkpt>
      <trkpt lat="59.137349" lon="18.414896">
        <ele>15.7</ele>
        <time>2014-10-11T11:54:33Z</time>
      </trkpt>
      <trkpt lat="59.137366" lon="18.415016">
        <ele>16</ele>
        <time>2014-10-11T11:54:34Z</time>
      </trkpt>
      <trkpt lat="59.1374" lon="18.415116">
        <ele>15.9</ele>
        <time>2014-10-11T11:54:35Z</time>
      </trkpt>
      <trkpt lat="59.13744" lon="18.415215">
        <ele>15.7</ele>
        <time>2014-10-11T11:54:36Z</time>
      </trkpt>
      <trkpt lat="59.137507" lon="18.415223">
        <ele>14.8</ele>
        <time>2014-10-11T11:54:37Z</time>
      </trkpt>
      <trkpt lat="59.137567" lon="18.415208">
        <ele>13.9</ele>
        <time>2014-10-11T11:54:38Z</time>
      </trkpt>
      <trkpt lat="59.137614" lon="18.415171">
        <ele>13.2</ele>
        <time>2014-10-11T11:54:39Z</time>
      </trkpt>
      <trkpt lat="59.137664" lon="18.415137">
        <ele>12.4</ele>
        <time>2014-10-11T11:54:40Z</time>
      </trkpt>
      <trkpt lat="59.137722" lon="18.415101">
        <ele>11.6</ele>
        <time>2014-10-11T11:54:41Z</time>
      </trkpt>
      <trkpt lat="59.137783" lon="18.415058">
        <ele>10.7</ele>
        <time>2014-10-11T11:54:42Z</time>
      </trkpt>
      <trkpt lat="59.137846" lon="18.415012">
        <ele>9.9</ele>
        <time>2014-10-11T11:54:43Z</time>
      </trkpt>
      <trkpt lat="59.137923" lon="18.414987">
        <ele>9</ele>
        <time>2014-10-11T11:54:44Z</time>
      </trkpt>
      <trkpt lat="59.137988" lon="18.414946">
        <ele>9.2</ele>
        <time>2014-10-11T11:54:45Z</time>
      </trkpt>
      <trkpt lat="59.138054" lon="18.414914">
        <ele>9.4</ele>
        <time>2014-10-11T11:54:46Z</time>
      </trkpt>
      <trkpt lat="59.138125" lon="18.414891">
        <ele>9.6</ele>
        <time>2014-10-11T11:54:47Z</time>
      </trkpt>
      <trkpt lat="59.138205" lon="18.414859">
        <ele>9.8</ele>
        <time>2014-10-11T11:54:48Z</time>
      </trkpt>
      <trkpt lat="59.138274" lon="18.414848">
        <ele>10</ele>
        <time>2014-10-11T11:54:49Z</time>
      </trkpt>
      <trkpt lat="59.138347" lon="18.414848">
        <ele>10.2</ele>
        <time>2014-10-11T11:54:50Z</time>
      </trkpt>
      <trkpt lat="59.138426" lon="18.414871">
        <ele>10.4</ele>
        <time>2014-10-11T11:54:51Z</time>
      </trkpt>
      <trkpt lat="59.138511" lon="18.414876">
        <ele>10.6</ele>
        <time>2014-10-11T11:54:52Z</time>
      </trkpt>
      <trkpt lat="59.13858" lon="18.414912">
        <ele>10.8</ele>
        <time>2014-10-11T11:54:53Z</time>
      </trkpt>
      <trkpt lat="59.138646" lon="18.414932">
        <ele>10.9</ele>
        <time>2014-10-11T11:54:54Z</time>
      </trkpt>
      <trkpt lat="59.138719" lon="18.414969">
        <ele>11</ele>
        <time>2014-10-11T11:54:55Z</time>
      </trkpt>
      <trkpt lat="59.138792" lon="18.415017">
        <ele>11.1</ele>
        <time>2014-10-11T11:54:56Z</time>
      </trkpt>
      <trkpt lat="59.138863" lon="18.415055">
        <ele>11.2</ele>
        <time>2014-10-11T11:54:57Z</time>
      </trkpt>
      <trkpt lat="59.138926" lon="18.415089">
        <ele>11.3</ele>
        <time>2014-10-11T11:54:58Z</time>
      </trkpt>
      <trkpt lat="59.138997" lon="18.415128">
        <ele>11.5</ele>
        <time>2014-10-11T11:54:59Z</time>
      </trkpt>
      <trkpt lat="59.139066" lon="18.415158">
        <ele>11.6</ele>
        <time>2014-10-11T11:55:00Z</time>
      </trkpt>
      <trkpt lat="59.139144" lon="18.415201">
        <ele>11.8</ele>
        <time>2014-10-11T11:55:01Z</time>
      </trkpt>
      <trkpt lat="59.139208" lon="18.415253">
        <ele>11.9</ele>
        <time>2014-10-11T11:55:02Z</time>
      </trkpt>
      <trkpt lat="59.139264" lon="18.415279">
        <ele>12.1</ele>
        <time>2014-10-11T11:55:03Z</time>
      </trkpt>
      <trkpt lat="59.139329" lon="18.415307">
        <ele>12.3</ele>
        <time>2014-10-11T11:55:04Z</time>
      </trkpt>
      <trkpt lat="59.139387" lon="18.415346">
        <ele>12.4</ele>
        <time>2014-10-11T11:55:05Z</time>
      </trkpt>
      <trkpt lat="59.139441" lon="18.415368">
        <ele>12.6</ele>
        <time>2014-10-11T11:55:06Z</time>
      </trkpt>
      <trkpt lat="59.139505" lon="18.415394">
        <ele>12.7</ele>
        <time>2014-10-11T11:55:07Z</time>
      </trkpt>
      <trkpt lat="59.139566" lon="18.415418">
        <ele>12.9</ele>
        <time>2014-10-11T11:55:08Z</time>
      </trkpt>
      <trkpt lat="59.139615" lon="18.415428">
        <ele>13.3</ele>
        <time>2014-10-11T11:55:09Z</time>
      </trkpt>
      <trkpt lat="59.139667" lon="18.415449">
        <ele>13.7</ele>
        <time>2014-10-11T11:55:10Z</time>
      </trkpt>
      <trkpt lat="59.13972" lon="18.415468">
        <ele>14.1</ele>
        <time>2014-10-11T11:55:11Z</time>
      </trkpt>
      <trkpt lat="59.13977" lon="18.415525">
        <ele>14.4</ele>
        <time>2014-10-11T11:55:12Z</time>
      </trkpt>
      <trkpt lat="59.139825" lon="18.41556">
        <ele>14.8</ele>
        <time>2014-10-11T11:55:13Z</time>
      </trkpt>
      <trkpt lat="59.139872" lon="18.415592">
        <ele>15.1</ele>
        <time>2014-10-11T11:55:14Z</time>
      </trkpt>
      <trkpt lat="59.139927" lon="18.415603">
        <ele>15.6</ele>
        <time>2014-10-11T11:55:15Z</time>
      </trkpt>
      <trkpt lat="59.139979" lon="18.415641">
        <ele>15.9</ele>
        <time>2014-10-11T11:55:16Z</time>
      </trkpt>
      <trkpt lat="59.140026" lon="18.415669">
        <ele>16.3</ele>
        <time>2014-10-11T11:55:17Z</time>
      </trkpt>
      <trkpt lat="59.140066" lon="18.415708">
        <ele>16.5</ele>
        <time>2014-10-11T11:55:18Z</time>
      </trkpt>
      <trkpt lat="59.140118" lon="18.415737">
        <ele>16.9</ele>
        <time>2014-10-11T11:55:19Z</time>
      </trkpt>
      <trkpt lat="59.140173" lon="18.415768">
        <ele>17.2</ele>
        <time>2014-10-11T11:55:20Z</time>
      </trkpt>
      <trkpt lat="59.140246" lon="18.415784">
        <ele>17.8</ele>
        <time>2014-10-11T11:55:21Z</time>
      </trkpt>
      <trkpt lat="59.140322" lon="18.415796">
        <ele>18.3</ele>
        <time>2014-10-11T11:55:22Z</time>
      </trkpt>
      <trkpt lat="59.140397" lon="18.415823">
        <ele>18.9</ele>
        <time>2014-10-11T11:55:23Z</time>
      </trkpt>
      <trkpt lat="59.140459" lon="18.41584">
        <ele>19</ele>
        <time>2014-10-11T11:55:24Z</time>
      </trkpt>
      <trkpt lat="59.140524" lon="18.41585">
        <ele>18.9</ele>
        <time>2014-10-11T11:55:25Z</time>
      </trkpt>
      <trkpt lat="59.140587" lon="18.415877">
        <ele>18.8</ele>
        <time>2014-10-11T11:55:26Z</time>
      </trkpt>
      <trkpt lat="59.140651" lon="18.415894">
        <ele>18.7</ele>
        <time>2014-10-11T11:55:27Z</time>
      </trkpt>
      <trkpt lat="59.140704" lon="18.415904">
        <ele>18.7</ele>
        <time>2014-10-11T11:55:28Z</time>
      </trkpt>
      <trkpt lat="59.14075" lon="18.415915">
        <ele>18.6</ele>
        <time>2014-10-11T11:55:29Z</time>
      </trkpt>
      <trkpt lat="59.140801" lon="18.415921">
        <ele>18.6</ele>
        <time>2014-10-11T11:55:30Z</time>
      </trkpt>
      <trkpt lat="59.140847" lon="18.415925">
        <ele>18.6</ele>
        <time>2014-10-11T11:55:31Z</time>
      </trkpt>
      <trkpt lat="59.14089" lon="18.415929">
        <ele>18.6</ele>
        <time>2014-10-11T11:55:32Z</time>
      </trkpt>
      <trkpt lat="59.140963" lon="18.415939">
        <ele>18.5</ele>
        <time>2014-10-11T11:55:33Z</time>
      </trkpt>
      <trkpt lat="59.141005" lon="18.415949">
        <ele>18.5</ele>
        <time>2014-10-11T11:55:34Z</time>
      </trkpt>
      <trkpt lat="59.141076" lon="18.415982">
        <ele>18.4</ele>
        <time>2014-10-11T11:55:35Z</time>
      </trkpt>
      <trkpt lat="59.141139" lon="18.415996">
        <ele>18.3</ele>
        <time>2014-10-11T11:55:36Z</time>
      </trkpt>
      <trkpt lat="59.1412" lon="18.416009">
        <ele>18.3</ele>
        <time>2014-10-11T11:55:37Z</time>
      </trkpt>
      <trkpt lat="59.141254" lon="18.416024">
        <ele>18.3</ele>
        <time>2014-10-11T11:55:38Z</time>
      </trkpt>
      <trkpt lat="59.141287" lon="18.416045">
        <ele>18.1</ele>
        <time>2014-10-11T11:55:39Z</time>
      </trkpt>
      <trkpt lat="59.141345" lon="18.416076">
        <ele>17.9</ele>
        <time>2014-10-11T11:55:40Z</time>
      </trkpt>
      <trkpt lat="59.141394" lon="18.416099">
        <ele>17.7</ele>
        <time>2014-10-11T11:55:41Z</time>
      </trkpt>
      <trkpt lat="59.14146" lon="18.416096">
        <ele>17.4</ele>
        <time>2014-10-11T11:55:42Z</time>
      </trkpt>
      <trkpt lat="59.141514" lon="18.416093">
        <ele>17.2</ele>
        <time>2014-10-11T11:55:43Z</time>
      </trkpt>
      <trkpt lat="59.141576" lon="18.416107">
        <ele>17</ele>
        <time>2014-10-11T11:55:44Z</time>
      </trkpt>
      <trkpt lat="59.141643" lon="18.416124">
        <ele>16.7</ele>
        <time>2014-10-11T11:55:45Z</time>
      </trkpt>
      <trkpt lat="59.141715" lon="18.416167">
        <ele>16.4</ele>
        <time>2014-10-11T11:55:46Z</time>
      </trkpt>
      <trkpt lat="59.141777" lon="18.41617">
        <ele>16.2</ele>
        <time>2014-10-11T11:55:47Z</time>
      </trkpt>
      <trkpt lat="59.141828" lon="18.416178">
        <ele>16</ele>
        <time>2014-10-11T11:55:48Z</time>
      </trkpt>
      <trkpt lat="59.141883" lon="18.416172">
        <ele>15.8</ele>
        <time>2014-10-11T11:55:49Z</time>
      </trkpt>
      <trkpt lat="59.141924" lon="18.41616">
        <ele>15.7</ele>
        <time>2014-10-11T11:55:50Z</time>
      </trkpt>
      <trkpt lat="59.142001" lon="18.416174">
        <ele>15.4</ele>
        <time>2014-10-11T11:55:51Z</time>
      </trkpt>
      <trkpt lat="59.142071" lon="18.416168">
        <ele>15.1</ele>
        <time>2014-10-11T11:55:52Z</time>
      </trkpt>
      <trkpt lat="59.142155" lon="18.416147">
        <ele>15.1</ele>
        <time>2014-10-11T11:55:53Z</time>
      </trkpt>
      <trkpt lat="59.14222" lon="18.416146">
        <ele>15.1</ele>
        <time>2014-10-11T11:55:54Z</time>
      </trkpt>
      <trkpt lat="59.142313" lon="18.416149">
        <ele>15.1</ele>
        <time>2014-10-11T11:55:55Z</time>
      </trkpt>
      <trkpt lat="59.142379" lon="18.416131">
        <ele>15.1</ele>
        <time>2014-10-11T11:55:56Z</time>
      </trkpt>
      <trkpt lat="59.14245" lon="18.416131">
        <ele>15.1</ele>
        <time>2014-10-11T11:55:57Z</time>
      </trkpt>
      <trkpt lat="59.142515" lon="18.416127">
        <ele>15.1</ele>
        <time>2014-10-11T11:55:58Z</time>
      </trkpt>
      <trkpt lat="59.142588" lon="18.416122">
        <ele>15.1</ele>
        <time>2014-10-11T11:55:59Z</time>
      </trkpt>
      <trkpt lat="59.142694" lon="18.41613">
        <ele>15</ele>
        <time>2014-10-11T11:56:00Z</time>
      </trkpt>
      <trkpt lat="59.142772" lon="18.416134">
        <ele>15</ele>
        <time>2014-10-11T11:56:01Z</time>
      </trkpt>
      <trkpt lat="59.142815" lon="18.416098">
        <ele>15</ele>
        <time>2014-10-11T11:56:02Z</time>
      </trkpt>
      <trkpt lat="59.142886" lon="18.416089">
        <ele>15</ele>
        <time>2014-10-11T11:56:03Z</time>
      </trkpt>
      <trkpt lat="59.142992" lon="18.416104">
        <ele>14.9</ele>
        <time>2014-10-11T11:56:04Z</time>
      </trkpt>
      <trkpt lat="59.143095" lon="18.41611">
        <ele>14.8</ele>
        <time>2014-10-11T11:56:05Z</time>
      </trkpt>
      <trkpt lat="59.143222" lon="18.416125">
        <ele>14.6</ele>
        <time>2014-10-11T11:56:06Z</time>
      </trkpt>
      <trkpt lat="59.143328" lon="18.416097">
        <ele>14.4</ele>
        <time>2014-10-11T11:56:07Z</time>
      </trkpt>
      <trkpt lat="59.143427" lon="18.416057">
        <ele>14.2</ele>
        <time>2014-10-11T11:56:08Z</time>
      </trkpt>
      <trkpt lat="59.143509" lon="18.415998">
        <ele>14.1</ele>
        <time>2014-10-11T11:56:09Z</time>
      </trkpt>
      <trkpt lat="59.143605" lon="18.415979">
        <ele>13.9</ele>
        <time>2014-10-11T11:56:10Z</time>
      </trkpt>
      <trkpt lat="59.143696" lon="18.415938">
        <ele>13.7</ele>
        <time>2014-10-11T11:56:11Z</time>
      </trkpt>
      <trkpt lat="59.143775" lon="18.415884">
        <ele>13.5</ele>
        <time>2014-10-11T11:56:12Z</time>
      </trkpt>
      <trkpt lat="59.143853" lon="18.415809">
        <ele>13.3</ele>
        <time>2014-10-11T11:56:13Z</time>
      </trkpt>
      <trkpt lat="59.143923" lon="18.415723">
        <ele>13.1</ele>
        <time>2014-10-11T11:56:14Z</time>
      </trkpt>
      <trkpt lat="59.143995" lon="18.41563">
        <ele>12.9</ele>
        <time>2014-10-11T11:56:15Z</time>
      </trkpt>
      <trkpt lat="59.144063" lon="18.415552">
        <ele>12.7</ele>
        <time>2014-10-11T11:56:16Z</time>
      </trkpt>
      <trkpt lat="59.144132" lon="18.415446">
        <ele>12.6</ele>
        <time>2014-10-11T11:56:17Z</time>
      </trkpt>
      <trkpt lat="59.144194" lon="18.415348">
        <ele>12.4</ele>
        <time>2014-10-11T11:56:18Z</time>
      </trkpt>
      <trkpt lat="59.144257" lon="18.415255">
        <ele>12.2</ele>
        <time>2014-10-11T11:56:19Z</time>
      </trkpt>
      <trkpt lat="59.144329" lon="18.415158">
        <ele>12</ele>
        <time>2014-10-11T11:56:20Z</time>
      </trkpt>
      <trkpt lat="59.144399" lon="18.415038">
        <ele>11.8</ele>
        <time>2014-10-11T11:56:21Z</time>
      </trkpt>
      <trkpt lat="59.144458" lon="18.414912">
        <ele>11.5</ele>
        <time>2014-10-11T11:56:22Z</time>
      </trkpt>
      <trkpt lat="59.144524" lon="18.414792">
        <ele>11.3</ele>
        <time>2014-10-11T11:56:23Z</time>
      </trkpt>
      <trkpt lat="59.144604" lon="18.414656">
        <ele>11</ele>
        <time>2014-10-11T11:56:24Z</time>
      </trkpt>
      <trkpt lat="59.144682" lon="18.414519">
        <ele>10.6</ele>
        <time>2014-10-11T11:56:25Z</time>
      </trkpt>
      <trkpt lat="59.144754" lon="18.414391">
        <ele>10.2</ele>
        <time>2014-10-11T11:56:26Z</time>
      </trkpt>
      <trkpt lat="59.144819" lon="18.414254">
        <ele>9.9</ele>
        <time>2014-10-11T11:56:27Z</time>
      </trkpt>
      <trkpt lat="59.144891" lon="18.414115">
        <ele>9.5</ele>
        <time>2014-10-11T11:56:28Z</time>
      </trkpt>
      <trkpt lat="59.144961" lon="18.413982">
        <ele>9.2</ele>
        <time>2014-10-11T11:56:29Z</time>
      </trkpt>
      <trkpt lat="59.145017" lon="18.41384">
        <ele>9</ele>
        <time>2014-10-11T11:56:30Z</time>
      </trkpt>
      <trkpt lat="59.145064" lon="18.413688">
        <ele>8.9</ele>
        <time>2014-10-11T11:56:31Z</time>
      </trkpt>
      <trkpt lat="59.145121" lon="18.413551">
        <ele>8.9</ele>
        <time>2014-10-11T11:56:32Z</time>
      </trkpt>
      <trkpt lat="59.145173" lon="18.413389">
        <ele>8.9</ele>
        <time>2014-10-11T11:56:33Z</time>
      </trkpt>
      <trkpt lat="59.145219" lon="18.413236">
        <ele>8.9</ele>
        <time>2014-10-11T11:56:34Z</time>
      </trkpt>
      <trkpt lat="59.145258" lon="18.413069">
        <ele>9</ele>
        <time>2014-10-11T11:56:35Z</time>
      </trkpt>
      <trkpt lat="59.145294" lon="18.41291">
        <ele>9.1</ele>
        <time>2014-10-11T11:56:36Z</time>
      </trkpt>
      <trkpt lat="59.145327" lon="18.412733">
        <ele>9.1</ele>
        <time>2014-10-11T11:56:37Z</time>
      </trkpt>
      <trkpt lat="59.145353" lon="18.41257">
        <ele>9.1</ele>
        <time>2014-10-11T11:56:38Z</time>
      </trkpt>
      <trkpt lat="59.145375" lon="18.412407">
        <ele>9</ele>
        <time>2014-10-11T11:56:39Z</time>
      </trkpt>
      <trkpt lat="59.145384" lon="18.412221">
        <ele>9</ele>
        <time>2014-10-11T11:56:40Z</time>
      </trkpt>
      <trkpt lat="59.14539" lon="18.41204">
        <ele>9.1</ele>
        <time>2014-10-11T11:56:41Z</time>
      </trkpt>
      <trkpt lat="59.145391" lon="18.411879">
        <ele>9.3</ele>
        <time>2014-10-11T11:56:42Z</time>
      </trkpt>
      <trkpt lat="59.145384" lon="18.4117">
        <ele>9.5</ele>
        <time>2014-10-11T11:56:43Z</time>
      </trkpt>
      <trkpt lat="59.145377" lon="18.411532">
        <ele>9.6</ele>
        <time>2014-10-11T11:56:44Z</time>
      </trkpt>
      <trkpt lat="59.145342" lon="18.411395">
        <ele>9.8</ele>
        <time>2014-10-11T11:56:45Z</time>
      </trkpt>
      <trkpt lat="59.145317" lon="18.411245">
        <ele>9.9</ele>
        <time>2014-10-11T11:56:46Z</time>
      </trkpt>
      <trkpt lat="59.145292" lon="18.411089">
        <ele>9.8</ele>
        <time>2014-10-11T11:56:47Z</time>
      </trkpt>
      <trkpt lat="59.14526" lon="18.410921">
        <ele>9.7</ele>
        <time>2014-10-11T11:56:48Z</time>
      </trkpt>
      <trkpt lat="59.14523" lon="18.410765">
        <ele>9.6</ele>
        <time>2014-10-11T11:56:49Z</time>
      </trkpt>
      <trkpt lat="59.145202" lon="18.410619">
        <ele>9.5</ele>
        <time>2014-10-11T11:56:50Z</time>
      </trkpt>
      <trkpt lat="59.145171" lon="18.410485">
        <ele>9.4</ele>
        <time>2014-10-11T11:56:51Z</time>
      </trkpt>
      <trkpt lat="59.145128" lon="18.410323">
        <ele>9.5</ele>
        <time>2014-10-11T11:56:52Z</time>
      </trkpt>
      <trkpt lat="59.145088" lon="18.410212">
        <ele>9.7</ele>
        <time>2014-10-11T11:56:53Z</time>
      </trkpt>
      <trkpt lat="59.145049" lon="18.410072">
        <ele>9.9</ele>
        <time>2014-10-11T11:56:54Z</time>
      </trkpt>
      <trkpt lat="59.145006" lon="18.409932">
        <ele>10.2</ele>
        <time>2014-10-11T11:56:55Z</time>
      </trkpt>
      <trkpt lat="59.144961" lon="18.409784">
        <ele>10.4</ele>
        <time>2014-10-11T11:56:56Z</time>
      </trkpt>
      <trkpt lat="59.14492" lon="18.409648">
        <ele>10.7</ele>
        <time>2014-10-11T11:56:57Z</time>
      </trkpt>
      <trkpt lat="59.144887" lon="18.409528">
        <ele>10.8</ele>
        <time>2014-10-11T11:56:58Z</time>
      </trkpt>
      <trkpt lat="59.144847" lon="18.40939">
        <ele>10.9</ele>
        <time>2014-10-11T11:56:59Z</time>
      </trkpt>
      <trkpt lat="59.144787" lon="18.409232">
        <ele>11</ele>
        <time>2014-10-11T11:57:00Z</time>
      </trkpt>
      <trkpt lat="59.144753" lon="18.409116">
        <ele>11.1</ele>
        <time>2014-10-11T11:57:01Z</time>
      </trkpt>
      <trkpt lat="59.144721" lon="18.408999">
        <ele>11.1</ele>
        <time>2014-10-11T11:57:02Z</time>
      </trkpt>
      <trkpt lat="59.144687" lon="18.408873">
        <ele>11.2</ele>
        <time>2014-10-11T11:57:03Z</time>
      </trkpt>
      <trkpt lat="59.14466" lon="18.408747">
        <ele>11.3</ele>
        <time>2014-10-11T11:57:04Z</time>
      </trkpt>
      <trkpt lat="59.144625" lon="18.408644">
        <ele>11.5</ele>
        <time>2014-10-11T11:57:05Z</time>
      </trkpt>
      <trkpt lat="59.144598" lon="18.408539">
        <ele>11.8</ele>
        <time>2014-10-11T11:57:06Z</time>
      </trkpt>
      <trkpt lat="59.144564" lon="18.408425">
        <ele>12.1</ele>
        <time>2014-10-11T11:57:07Z</time>
      </trkpt>
      <trkpt lat="59.144532" lon="18.408318">
        <ele>12.3</ele>
        <time>2014-10-11T11:57:08Z</time>
      </trkpt>
      <trkpt lat="59.144496" lon="18.408194">
        <ele>12.6</ele>
        <time>2014-10-11T11:57:09Z</time>
      </trkpt>
      <trkpt lat="59.14446" lon="18.408103">
        <ele>12.8</ele>
        <time>2014-10-11T11:57:10Z</time>
      </trkpt>
      <trkpt lat="59.144424" lon="18.407982">
        <ele>13</ele>
        <time>2014-10-11T11:57:11Z</time>
      </trkpt>
      <trkpt lat="59.144384" lon="18.407861">
        <ele>13.2</ele>
        <time>2014-10-11T11:57:12Z</time>
      </trkpt>
      <trkpt lat="59.144334" lon="18.407728">
        <ele>13.3</ele>
        <time>2014-10-11T11:57:13Z</time>
      </trkpt>
      <trkpt lat="59.144291" lon="18.407612">
        <ele>13.4</ele>
        <time>2014-10-11T11:57:14Z</time>
      </trkpt>
      <trkpt lat="59.14425" lon="18.407493">
        <ele>13.5</ele>
        <time>2014-10-11T11:57:15Z</time>
      </trkpt>
      <trkpt lat="59.144208" lon="18.407373">
        <ele>13.6</ele>
        <time>2014-10-11T11:57:16Z</time>
      </trkpt>
      <trkpt lat="59.144178" lon="18.407262">
        <ele>13.6</ele>
        <time>2014-10-11T11:57:17Z</time>
      </trkpt>
      <trkpt lat="59.144156" lon="18.407159">
        <ele>13.7</ele>
        <time>2014-10-11T11:57:18Z</time>
      </trkpt>
      <trkpt lat="59.144123" lon="18.407042">
        <ele>13.8</ele>
        <time>2014-10-11T11:57:19Z</time>
      </trkpt>
      <trkpt lat="59.144088" lon="18.406927">
        <ele>13.9</ele>
        <time>2014-10-11T11:57:20Z</time>
      </trkpt>
      <trkpt lat="59.144047" lon="18.406827">
        <ele>13.9</ele>
        <time>2014-10-11T11:57:21Z</time>
      </trkpt>
      <trkpt lat="59.14402" lon="18.406736">
        <ele>13.9</ele>
        <time>2014-10-11T11:57:22Z</time>
      </trkpt>
      <trkpt lat="59.143977" lon="18.40662">
        <ele>13.9</ele>
        <time>2014-10-11T11:57:23Z</time>
      </trkpt>
      <trkpt lat="59.143946" lon="18.406522">
        <ele>13.9</ele>
        <time>2014-10-11T11:57:24Z</time>
      </trkpt>
      <trkpt lat="59.14391" lon="18.406409">
        <ele>13.9</ele>
        <time>2014-10-11T11:57:25Z</time>
      </trkpt>
      <trkpt lat="59.143876" lon="18.40628">
        <ele>14</ele>
        <time>2014-10-11T11:57:26Z</time>
      </trkpt>
      <trkpt lat="59.143848" lon="18.406179">
        <ele>13.9</ele>
        <time>2014-10-11T11:57:27Z</time>
      </trkpt>
      <trkpt lat="59.143816" lon="18.406058">
        <ele>13.8</ele>
        <time>2014-10-11T11:57:28Z</time>
      </trkpt>
      <trkpt lat="59.143761" lon="18.405925">
        <ele>13.5</ele>
        <time>2014-10-11T11:57:29Z</time>
      </trkpt>
      <trkpt lat="59.143703" lon="18.405817">
        <ele>13.2</ele>
        <time>2014-10-11T11:57:30Z</time>
      </trkpt>
      <trkpt lat="59.143693" lon="18.405759">
        <ele>13.1</ele>
        <time>2014-10-11T11:57:31Z</time>
      </trkpt>
      <trkpt lat="59.143647" lon="18.405629">
        <ele>12.9</ele>
        <time>2014-10-11T11:57:32Z</time>
      </trkpt>
      <trkpt lat="59.143607" lon="18.405508">
        <ele>12.7</ele>
        <time>2014-10-11T11:57:33Z</time>
      </trkpt>
      <trkpt lat="59.143564" lon="18.405383">
        <ele>12.5</ele>
        <time>2014-10-11T11:57:34Z</time>
      </trkpt>
      <trkpt lat="59.14353" lon="18.40527">
        <ele>12.5</ele>
        <time>2014-10-11T11:57:35Z</time>
      </trkpt>
      <trkpt lat="59.143495" lon="18.405158">
        <ele>12.5</ele>
        <time>2014-10-11T11:57:36Z</time>
      </trkpt>
      <trkpt lat="59.143459" lon="18.405062">
        <ele>12.4</ele>
        <time>2014-10-11T11:57:37Z</time>
      </trkpt>
      <trkpt lat="59.143435" lon="18.404964">
        <ele>12.4</ele>
        <time>2014-10-11T11:57:38Z</time>
      </trkpt>
      <trkpt lat="59.143378" lon="18.404828">
        <ele>12.3</ele>
        <time>2014-10-11T11:57:39Z</time>
      </trkpt>
      <trkpt lat="59.143332" lon="18.404727">
        <ele>12.1</ele>
        <time>2014-10-11T11:57:40Z</time>
      </trkpt>
      <trkpt lat="59.143289" lon="18.40459">
        <ele>12.1</ele>
        <time>2014-10-11T11:57:41Z</time>
      </trkpt>
      <trkpt lat="59.143244" lon="18.404469">
        <ele>11.9</ele>
        <time>2014-10-11T11:57:42Z</time>
      </trkpt>
      <trkpt lat="59.143212" lon="18.404353">
        <ele>11.9</ele>
        <time>2014-10-11T11:57:43Z</time>
      </trkpt>
      <trkpt lat="59.143174" lon="18.404239">
        <ele>11.7</ele>
        <time>2014-10-11T11:57:44Z</time>
      </trkpt>
      <trkpt lat="59.143151" lon="18.404107">
        <ele>11.7</ele>
        <time>2014-10-11T11:57:45Z</time>
      </trkpt>
      <trkpt lat="59.143114" lon="18.403994">
        <ele>11.5</ele>
        <time>2014-10-11T11:57:46Z</time>
      </trkpt>
      <trkpt lat="59.143065" lon="18.403864">
        <ele>11.3</ele>
        <time>2014-10-11T11:57:47Z</time>
      </trkpt>
      <trkpt lat="59.142946" lon="18.40339">
        <ele>11.6</ele>
        <time>2014-10-11T11:57:51Z</time>
      </trkpt>
      <trkpt lat="59.142908" lon="18.403293">
        <ele>11.6</ele>
        <time>2014-10-11T11:57:52Z</time>
      </trkpt>
      <trkpt lat="59.142869" lon="18.403201">
        <ele>11.7</ele>
        <time>2014-10-11T11:57:53Z</time>
      </trkpt>
      <trkpt lat="59.142834" lon="18.403097">
        <ele>11.9</ele>
        <time>2014-10-11T11:57:54Z</time>
      </trkpt>
      <trkpt lat="59.142795" lon="18.402973">
        <ele>12.1</ele>
        <time>2014-10-11T11:57:55Z</time>
      </trkpt>
      <trkpt lat="59.142772" lon="18.402889">
        <ele>12.2</ele>
        <time>2014-10-11T11:57:56Z</time>
      </trkpt>
      <trkpt lat="59.142719" lon="18.402759">
        <ele>12.1</ele>
        <time>2014-10-11T11:57:57Z</time>
      </trkpt>
      <trkpt lat="59.142682" lon="18.402653">
        <ele>12.1</ele>
        <time>2014-10-11T11:57:58Z</time>
      </trkpt>
      <trkpt lat="59.142645" lon="18.40255">
        <ele>12.1</ele>
        <time>2014-10-11T11:57:59Z</time>
      </trkpt>
      <trkpt lat="59.142623" lon="18.402433">
        <ele>12.2</ele>
        <time>2014-10-11T11:58:00Z</time>
      </trkpt>
      <trkpt lat="59.142589" lon="18.40233">
        <ele>12.2</ele>
        <time>2014-10-11T11:58:01Z</time>
      </trkpt>
      <trkpt lat="59.142572" lon="18.402227">
        <ele>12.2</ele>
        <time>2014-10-11T11:58:02Z</time>
      </trkpt>
      <trkpt lat="59.142542" lon="18.402092">
        <ele>12.3</ele>
        <time>2014-10-11T11:58:03Z</time>
      </trkpt>
      <trkpt lat="59.142527" lon="18.401988">
        <ele>12.5</ele>
        <time>2014-10-11T11:58:04Z</time>
      </trkpt>
      <trkpt lat="59.142493" lon="18.401882">
        <ele>12.6</ele>
        <time>2014-10-11T11:58:05Z</time>
      </trkpt>
      <trkpt lat="59.142448" lon="18.401765">
        <ele>12.6</ele>
        <time>2014-10-11T11:58:06Z</time>
      </trkpt>
      <trkpt lat="59.142421" lon="18.401673">
        <ele>12.6</ele>
        <time>2014-10-11T11:58:07Z</time>
      </trkpt>
      <trkpt lat="59.142382" lon="18.40154">
        <ele>12.7</ele>
        <time>2014-10-11T11:58:08Z</time>
      </trkpt>
      <trkpt lat="59.142346" lon="18.40143">
        <ele>12.7</ele>
        <time>2014-10-11T11:58:09Z</time>
      </trkpt>
      <trkpt lat="59.142322" lon="18.401346">
        <ele>12.7</ele>
        <time>2014-10-11T11:58:10Z</time>
      </trkpt>
      <trkpt lat="59.142252" lon="18.401213">
        <ele>12.5</ele>
        <time>2014-10-11T11:58:11Z</time>
      </trkpt>
      <trkpt lat="59.142213" lon="18.401072">
        <ele>12.5</ele>
        <time>2014-10-11T11:58:12Z</time>
      </trkpt>
      <trkpt lat="59.142174" lon="18.400947">
        <ele>12.5</ele>
        <time>2014-10-11T11:58:13Z</time>
      </trkpt>
      <trkpt lat="59.142137" lon="18.400847">
        <ele>12.4</ele>
        <time>2014-10-11T11:58:14Z</time>
      </trkpt>
      <trkpt lat="59.142098" lon="18.400728">
        <ele>12.4</ele>
        <time>2014-10-11T11:58:15Z</time>
      </trkpt>
      <trkpt lat="59.142062" lon="18.400598">
        <ele>12.5</ele>
        <time>2014-10-11T11:58:16Z</time>
      </trkpt>
      <trkpt lat="59.142028" lon="18.400482">
        <ele>12.7</ele>
        <time>2014-10-11T11:58:17Z</time>
      </trkpt>
      <trkpt lat="59.142007" lon="18.400379">
        <ele>12.9</ele>
        <time>2014-10-11T11:58:18Z</time>
      </trkpt>
      <trkpt lat="59.141972" lon="18.40027">
        <ele>12.9</ele>
        <time>2014-10-11T11:58:19Z</time>
      </trkpt>
      <trkpt lat="59.14194" lon="18.400118">
        <ele>13</ele>
        <time>2014-10-11T11:58:20Z</time>
      </trkpt>
      <trkpt lat="59.141928" lon="18.400036">
        <ele>13.1</ele>
        <time>2014-10-11T11:58:21Z</time>
      </trkpt>
      <trkpt lat="59.141887" lon="18.399893">
        <ele>13.2</ele>
        <time>2014-10-11T11:58:22Z</time>
      </trkpt>
      <trkpt lat="59.141862" lon="18.399778">
        <ele>13.2</ele>
        <time>2014-10-11T11:58:23Z</time>
      </trkpt>
      <trkpt lat="59.141826" lon="18.399606">
        <ele>13.4</ele>
        <time>2014-10-11T11:58:24Z</time>
      </trkpt>
      <trkpt lat="59.14179" lon="18.399466">
        <ele>13.3</ele>
        <time>2014-10-11T11:58:25Z</time>
      </trkpt>
      <trkpt lat="59.14175" lon="18.399329">
        <ele>13.3</ele>
        <time>2014-10-11T11:58:26Z</time>
      </trkpt>
      <trkpt lat="59.14172" lon="18.39919">
        <ele>13.3</ele>
        <time>2014-10-11T11:58:27Z</time>
      </trkpt>
      <trkpt lat="59.141714" lon="18.399087">
        <ele>13.4</ele>
        <time>2014-10-11T11:58:28Z</time>
      </trkpt>
      <trkpt lat="59.141686" lon="18.398963">
        <ele>13.4</ele>
        <time>2014-10-11T11:58:29Z</time>
      </trkpt>
      <trkpt lat="59.141651" lon="18.398836">
        <ele>13.4</ele>
        <time>2014-10-11T11:58:30Z</time>
      </trkpt>
      <trkpt lat="59.141606" lon="18.398693">
        <ele>13.5</ele>
        <time>2014-10-11T11:58:31Z</time>
      </trkpt>
      <trkpt lat="59.141573" lon="18.398555">
        <ele>13.6</ele>
        <time>2014-10-11T11:58:32Z</time>
      </trkpt>
      <trkpt lat="59.141536" lon="18.398417">
        <ele>13.7</ele>
        <time>2014-10-11T11:58:33Z</time>
      </trkpt>
      <trkpt lat="59.141498" lon="18.398291">
        <ele>13.8</ele>
        <time>2014-10-11T11:58:34Z</time>
      </trkpt>
      <trkpt lat="59.141478" lon="18.398137">
        <ele>14</ele>
        <time>2014-10-11T11:58:35Z</time>
      </trkpt>
      <trkpt lat="59.141456" lon="18.398002">
        <ele>14.1</ele>
        <time>2014-10-11T11:58:36Z</time>
      </trkpt>
      <trkpt lat="59.141439" lon="18.397868">
        <ele>14.2</ele>
        <time>2014-10-11T11:58:37Z</time>
      </trkpt>
      <trkpt lat="59.141421" lon="18.397741">
        <ele>14.2</ele>
        <time>2014-10-11T11:58:38Z</time>
      </trkpt>
      <trkpt lat="59.141405" lon="18.397618">
        <ele>14.3</ele>
        <time>2014-10-11T11:58:39Z</time>
      </trkpt>
      <trkpt lat="59.141354" lon="18.397436">
        <ele>14.2</ele>
        <time>2014-10-11T11:58:40Z</time>
      </trkpt>
      <trkpt lat="59.141327" lon="18.397272">
        <ele>14.2</ele>
        <time>2014-10-11T11:58:41Z</time>
      </trkpt>
      <trkpt lat="59.141306" lon="18.397137">
        <ele>14.1</ele>
        <time>2014-10-11T11:58:42Z</time>
      </trkpt>
      <trkpt lat="59.141314" lon="18.397022">
        <ele>14.2</ele>
        <time>2014-10-11T11:58:43Z</time>
      </trkpt>
      <trkpt lat="59.141302" lon="18.3969">
        <ele>14.3</ele>
        <time>2014-10-11T11:58:44Z</time>
      </trkpt>
      <trkpt lat="59.141271" lon="18.396758">
        <ele>14.4</ele>
        <time>2014-10-11T11:58:45Z</time>
      </trkpt>
      <trkpt lat="59.141254" lon="18.396636">
        <ele>14.5</ele>
        <time>2014-10-11T11:58:46Z</time>
      </trkpt>
      <trkpt lat="59.141231" lon="18.396486">
        <ele>14.7</ele>
        <time>2014-10-11T11:58:47Z</time>
      </trkpt>
      <trkpt lat="59.14121" lon="18.39635">
        <ele>14.7</ele>
        <time>2014-10-11T11:58:48Z</time>
      </trkpt>
      <trkpt lat="59.141187" lon="18.396229">
        <ele>14.8</ele>
        <time>2014-10-11T11:58:49Z</time>
      </trkpt>
      <trkpt lat="59.141176" lon="18.396114">
        <ele>14.9</ele>
        <time>2014-10-11T11:58:50Z</time>
      </trkpt>
      <trkpt lat="59.141162" lon="18.395984">
        <ele>15</ele>
        <time>2014-10-11T11:58:51Z</time>
      </trkpt>
      <trkpt lat="59.141145" lon="18.395842">
        <ele>15</ele>
        <time>2014-10-11T11:58:52Z</time>
      </trkpt>
      <trkpt lat="59.141117" lon="18.395704">
        <ele>15.1</ele>
        <time>2014-10-11T11:58:53Z</time>
      </trkpt>
      <trkpt lat="59.141089" lon="18.395562">
        <ele>15.1</ele>
        <time>2014-10-11T11:58:54Z</time>
      </trkpt>
      <trkpt lat="59.141089" lon="18.395451">
        <ele>15.2</ele>
        <time>2014-10-11T11:58:55Z</time>
      </trkpt>
      <trkpt lat="59.141068" lon="18.395307">
        <ele>15.1</ele>
        <time>2014-10-11T11:58:56Z</time>
      </trkpt>
      <trkpt lat="59.141064" lon="18.395218">
        <ele>15.1</ele>
        <time>2014-10-11T11:58:57Z</time>
      </trkpt>
      <trkpt lat="59.141028" lon="18.395068">
        <ele>14.9</ele>
        <time>2014-10-11T11:58:58Z</time>
      </trkpt>
      <trkpt lat="59.141007" lon="18.394926">
        <ele>14.8</ele>
        <time>2014-10-11T11:58:59Z</time>
      </trkpt>
      <trkpt lat="59.140983" lon="18.39482">
        <ele>14.7</ele>
        <time>2014-10-11T11:59:00Z</time>
      </trkpt>
      <trkpt lat="59.140961" lon="18.394719">
        <ele>14.6</ele>
        <time>2014-10-11T11:59:01Z</time>
      </trkpt>
      <trkpt lat="59.140939" lon="18.394603">
        <ele>14.5</ele>
        <time>2014-10-11T11:59:02Z</time>
      </trkpt>
      <trkpt lat="59.140924" lon="18.394518">
        <ele>14.4</ele>
        <time>2014-10-11T11:59:03Z</time>
      </trkpt>
      <trkpt lat="59.140913" lon="18.394404">
        <ele>14.4</ele>
        <time>2014-10-11T11:59:04Z</time>
      </trkpt>
      <trkpt lat="59.140898" lon="18.394265">
        <ele>14.3</ele>
        <time>2014-10-11T11:59:05Z</time>
      </trkpt>
      <trkpt lat="59.140883" lon="18.39413">
        <ele>14.2</ele>
        <time>2014-10-11T11:59:06Z</time>
      </trkpt>
      <trkpt lat="59.140864" lon="18.394012">
        <ele>14.1</ele>
        <time>2014-10-11T11:59:07Z</time>
      </trkpt>
      <trkpt lat="59.140849" lon="18.393893">
        <ele>14.1</ele>
        <time>2014-10-11T11:59:08Z</time>
      </trkpt>
      <trkpt lat="59.140835" lon="18.393767">
        <ele>14</ele>
        <time>2014-10-11T11:59:09Z</time>
      </trkpt>
      <trkpt lat="59.140822" lon="18.393651">
        <ele>13.9</ele>
        <time>2014-10-11T11:59:10Z</time>
      </trkpt>
      <trkpt lat="59.140807" lon="18.393555">
        <ele>13.9</ele>
        <time>2014-10-11T11:59:11Z</time>
      </trkpt>
      <trkpt lat="59.140803" lon="18.393446">
        <ele>13.9</ele>
        <time>2014-10-11T11:59:12Z</time>
      </trkpt>
      <trkpt lat="59.140787" lon="18.393335">
        <ele>13.8</ele>
        <time>2014-10-11T11:59:13Z</time>
      </trkpt>
      <trkpt lat="59.140779" lon="18.393227">
        <ele>13.8</ele>
        <time>2014-10-11T11:59:14Z</time>
      </trkpt>
      <trkpt lat="59.140777" lon="18.393138">
        <ele>13.8</ele>
        <time>2014-10-11T11:59:15Z</time>
      </trkpt>
      <trkpt lat="59.140756" lon="18.393005">
        <ele>13.8</ele>
        <time>2014-10-11T11:59:16Z</time>
      </trkpt>
      <trkpt lat="59.140744" lon="18.392918">
        <ele>13.8</ele>
        <time>2014-10-11T11:59:17Z</time>
      </trkpt>
      <trkpt lat="59.140722" lon="18.392804">
        <ele>13.7</ele>
        <time>2014-10-11T11:59:18Z</time>
      </trkpt>
      <trkpt lat="59.140703" lon="18.392697">
        <ele>13.7</ele>
        <time>2014-10-11T11:59:19Z</time>
      </trkpt>
      <trkpt lat="59.140689" lon="18.392548">
        <ele>13.7</ele>
        <time>2014-10-11T11:59:20Z</time>
      </trkpt>
      <trkpt lat="59.140655" lon="18.392429">
        <ele>13.6</ele>
        <time>2014-10-11T11:59:21Z</time>
      </trkpt>
      <trkpt lat="59.140628" lon="18.392301">
        <ele>13.5</ele>
        <time>2014-10-11T11:59:22Z</time>
      </trkpt>
      <trkpt lat="59.140599" lon="18.392161">
        <ele>13.4</ele>
        <time>2014-10-11T11:59:23Z</time>
      </trkpt>
      <trkpt lat="59.140586" lon="18.392049">
        <ele>13.5</ele>
        <time>2014-10-11T11:59:24Z</time>
      </trkpt>
      <trkpt lat="59.140579" lon="18.391931">
        <ele>13.7</ele>
        <time>2014-10-11T11:59:25Z</time>
      </trkpt>
      <trkpt lat="59.140569" lon="18.391834">
        <ele>13.9</ele>
        <time>2014-10-11T11:59:26Z</time>
      </trkpt>
      <trkpt lat="59.140552" lon="18.391711">
        <ele>14.1</ele>
        <time>2014-10-11T11:59:27Z</time>
      </trkpt>
      <trkpt lat="59.140537" lon="18.391601">
        <ele>14.4</ele>
        <time>2014-10-11T11:59:28Z</time>
      </trkpt>
      <trkpt lat="59.140523" lon="18.391502">
        <ele>14.6</ele>
        <time>2014-10-11T11:59:29Z</time>
      </trkpt>
      <trkpt lat="59.14051" lon="18.3914">
        <ele>14.8</ele>
        <time>2014-10-11T11:59:30Z</time>
      </trkpt>
      <trkpt lat="59.140493" lon="18.391273">
        <ele>15</ele>
        <time>2014-10-11T11:59:31Z</time>
      </trkpt>
      <trkpt lat="59.14047" lon="18.391155">
        <ele>15.3</ele>
        <time>2014-10-11T11:59:32Z</time>
      </trkpt>
      <trkpt lat="59.140452" lon="18.391034">
        <ele>15.5</ele>
        <time>2014-10-11T11:59:33Z</time>
      </trkpt>
      <trkpt lat="59.140433" lon="18.390922">
        <ele>15.8</ele>
        <time>2014-10-11T11:59:34Z</time>
      </trkpt>
      <trkpt lat="59.140416" lon="18.390809">
        <ele>16.1</ele>
        <time>2014-10-11T11:59:35Z</time>
      </trkpt>
      <trkpt lat="59.140409" lon="18.390704">
        <ele>16.3</ele>
        <time>2014-10-11T11:59:36Z</time>
      </trkpt>
      <trkpt lat="59.140392" lon="18.390594">
        <ele>16.4</ele>
        <time>2014-10-11T11:59:37Z</time>
      </trkpt>
      <trkpt lat="59.140367" lon="18.390473">
        <ele>16.6</ele>
        <time>2014-10-11T11:59:38Z</time>
      </trkpt>
      <trkpt lat="59.140345" lon="18.390347">
        <ele>16.7</ele>
        <time>2014-10-11T11:59:39Z</time>
      </trkpt>
      <trkpt lat="59.14033" lon="18.390233">
        <ele>16.8</ele>
        <time>2014-10-11T11:59:40Z</time>
      </trkpt>
      <trkpt lat="59.140321" lon="18.39013">
        <ele>16.9</ele>
        <time>2014-10-11T11:59:41Z</time>
      </trkpt>
      <trkpt lat="59.140306" lon="18.390007">
        <ele>17</ele>
        <time>2014-10-11T11:59:42Z</time>
      </trkpt>
      <trkpt lat="59.140286" lon="18.389885">
        <ele>17.1</ele>
        <time>2014-10-11T11:59:43Z</time>
      </trkpt>
      <trkpt lat="59.140267" lon="18.389776">
        <ele>17.2</ele>
        <time>2014-10-11T11:59:44Z</time>
      </trkpt>
      <trkpt lat="59.140245" lon="18.38967">
        <ele>17.3</ele>
        <time>2014-10-11T11:59:45Z</time>
      </trkpt>
      <trkpt lat="59.140229" lon="18.38956">
        <ele>17.3</ele>
        <time>2014-10-11T11:59:46Z</time>
      </trkpt>
      <trkpt lat="59.140208" lon="18.38945">
        <ele>17.3</ele>
        <time>2014-10-11T11:59:47Z</time>
      </trkpt>
      <trkpt lat="59.140195" lon="18.389341">
        <ele>17.3</ele>
        <time>2014-10-11T11:59:48Z</time>
      </trkpt>
      <trkpt lat="59.140178" lon="18.389236">
        <ele>17.3</ele>
        <time>2014-10-11T11:59:49Z</time>
      </trkpt>
      <trkpt lat="59.140168" lon="18.389132">
        <ele>17.3</ele>
        <time>2014-10-11T11:59:50Z</time>
      </trkpt>
      <trkpt lat="59.140163" lon="18.389033">
        <ele>17.3</ele>
        <time>2014-10-11T11:59:51Z</time>
      </trkpt>
      <trkpt lat="59.140152" lon="18.388926">
        <ele>17.3</ele>
        <time>2014-10-11T11:59:52Z</time>
      </trkpt>
      <trkpt lat="59.140131" lon="18.388769">
        <ele>17.3</ele>
        <time>2014-10-11T11:59:53Z</time>
      </trkpt>
      <trkpt lat="59.140093" lon="18.388653">
        <ele>17.7</ele>
        <time>2014-10-11T11:59:54Z</time>
      </trkpt>
      <trkpt lat="59.140063" lon="18.388518">
        <ele>18.3</ele>
        <time>2014-10-11T11:59:55Z</time>
      </trkpt>
      <trkpt lat="59.140035" lon="18.388392">
        <ele>18.8</ele>
        <time>2014-10-11T11:59:56Z</time>
      </trkpt>
      <trkpt lat="59.140014" lon="18.388282">
        <ele>19.3</ele>
        <time>2014-10-11T11:59:57Z</time>
      </trkpt>
      <trkpt lat="59.140009" lon="18.388193">
        <ele>19.7</ele>
        <time>2014-10-11T11:59:58Z</time>
      </trkpt>
      <trkpt lat="59.139993" lon="18.388086">
        <ele>20.2</ele>
        <time>2014-10-11T11:59:59Z</time>
      </trkpt>
      <trkpt lat="59.139989" lon="18.388003">
        <ele>20.6</ele>
        <time>2014-10-11T12:00:00Z</time>
      </trkpt>
      <trkpt lat="59.139973" lon="18.387891">
        <ele>21</ele>
        <time>2014-10-11T12:00:01Z</time>
      </trkpt>
      <trkpt lat="59.139962" lon="18.387795">
        <ele>21.4</ele>
        <time>2014-10-11T12:00:02Z</time>
      </trkpt>
      <trkpt lat="59.139952" lon="18.387705">
        <ele>21.8</ele>
        <time>2014-10-11T12:00:03Z</time>
      </trkpt>
      <trkpt lat="59.139935" lon="18.387608">
        <ele>22.2</ele>
        <time>2014-10-11T12:00:04Z</time>
      </trkpt>
      <trkpt lat="59.139941" lon="18.387505">
        <ele>22.6</ele>
        <time>2014-10-11T12:00:05Z</time>
      </trkpt>
      <trkpt lat="59.139928" lon="18.387402">
        <ele>23</ele>
        <time>2014-10-11T12:00:06Z</time>
      </trkpt>
      <trkpt lat="59.139911" lon="18.387299">
        <ele>23.5</ele>
        <time>2014-10-11T12:00:07Z</time>
      </trkpt>
      <trkpt lat="59.1399" lon="18.387197">
        <ele>23.9</ele>
        <time>2014-10-11T12:00:08Z</time>
      </trkpt>
      <trkpt lat="59.139872" lon="18.387084">
        <ele>24.3</ele>
        <time>2014-10-11T12:00:09Z</time>
      </trkpt>
      <trkpt lat="59.139855" lon="18.386985">
        <ele>24.6</ele>
        <time>2014-10-11T12:00:10Z</time>
      </trkpt>
      <trkpt lat="59.139838" lon="18.386893">
        <ele>24.8</ele>
        <time>2014-10-11T12:00:11Z</time>
      </trkpt>
      <trkpt lat="59.13982" lon="18.386797">
        <ele>25.1</ele>
        <time>2014-10-11T12:00:12Z</time>
      </trkpt>
      <trkpt lat="59.139804" lon="18.386698">
        <ele>25.3</ele>
        <time>2014-10-11T12:00:13Z</time>
      </trkpt>
      <trkpt lat="59.139785" lon="18.386596">
        <ele>25.6</ele>
        <time>2014-10-11T12:00:14Z</time>
      </trkpt>
      <trkpt lat="59.139767" lon="18.386493">
        <ele>25.8</ele>
        <time>2014-10-11T12:00:15Z</time>
      </trkpt>
      <trkpt lat="59.13975" lon="18.386374">
        <ele>26.1</ele>
        <time>2014-10-11T12:00:16Z</time>
      </trkpt>
      <trkpt lat="59.139737" lon="18.386258">
        <ele>26.3</ele>
        <time>2014-10-11T12:00:17Z</time>
      </trkpt>
      <trkpt lat="59.139722" lon="18.386156">
        <ele>26.6</ele>
        <time>2014-10-11T12:00:18Z</time>
      </trkpt>
      <trkpt lat="59.139709" lon="18.38604">
        <ele>26.8</ele>
        <time>2014-10-11T12:00:19Z</time>
      </trkpt>
      <trkpt lat="59.139692" lon="18.385949">
        <ele>27</ele>
        <time>2014-10-11T12:00:20Z</time>
      </trkpt>
      <trkpt lat="59.139668" lon="18.385842">
        <ele>27.2</ele>
        <time>2014-10-11T12:00:21Z</time>
      </trkpt>
      <trkpt lat="59.139658" lon="18.385747">
        <ele>27.4</ele>
        <time>2014-10-11T12:00:22Z</time>
      </trkpt>
      <trkpt lat="59.139644" lon="18.385657">
        <ele>27.6</ele>
        <time>2014-10-11T12:00:23Z</time>
      </trkpt>
      <trkpt lat="59.139633" lon="18.385592">
        <ele>27.7</ele>
        <time>2014-10-11T12:00:24Z</time>
      </trkpt>
      <trkpt lat="59.139616" lon="18.385501">
        <ele>27.9</ele>
        <time>2014-10-11T12:00:25Z</time>
      </trkpt>
      <trkpt lat="59.139591" lon="18.385411">
        <ele>28</ele>
        <time>2014-10-11T12:00:26Z</time>
      </trkpt>
      <trkpt lat="59.139582" lon="18.385321">
        <ele>28.2</ele>
        <time>2014-10-11T12:00:27Z</time>
      </trkpt>
      <trkpt lat="59.139564" lon="18.385234">
        <ele>28.2</ele>
        <time>2014-10-11T12:00:28Z</time>
      </trkpt>
      <trkpt lat="59.139554" lon="18.385123">
        <ele>28.4</ele>
        <time>2014-10-11T12:00:29Z</time>
      </trkpt>
      <trkpt lat="59.139535" lon="18.38503">
        <ele>28.5</ele>
        <time>2014-10-11T12:00:30Z</time>
      </trkpt>
      <trkpt lat="59.139509" lon="18.384913">
        <ele>28.6</ele>
        <time>2014-10-11T12:00:31Z</time>
      </trkpt>
      <trkpt lat="59.139488" lon="18.384799">
        <ele>28.7</ele>
        <time>2014-10-11T12:00:32Z</time>
      </trkpt>
      <trkpt lat="59.139452" lon="18.384728">
        <ele>28.6</ele>
        <time>2014-10-11T12:00:33Z</time>
      </trkpt>
      <trkpt lat="59.139434" lon="18.384654">
        <ele>28.7</ele>
        <time>2014-10-11T12:00:34Z</time>
      </trkpt>
      <trkpt lat="59.13941" lon="18.384543">
        <ele>28.8</ele>
        <time>2014-10-11T12:00:35Z</time>
      </trkpt>
      <trkpt lat="59.139393" lon="18.384451">
        <ele>28.9</ele>
        <time>2014-10-11T12:00:36Z</time>
      </trkpt>
      <trkpt lat="59.139371" lon="18.384342">
        <ele>29.1</ele>
        <time>2014-10-11T12:00:37Z</time>
      </trkpt>
      <trkpt lat="59.139348" lon="18.384255">
        <ele>29.1</ele>
        <time>2014-10-11T12:00:38Z</time>
      </trkpt>
      <trkpt lat="59.139329" lon="18.384169">
        <ele>29.3</ele>
        <time>2014-10-11T12:00:39Z</time>
      </trkpt>
      <trkpt lat="59.139312" lon="18.384076">
        <ele>29.4</ele>
        <time>2014-10-11T12:00:40Z</time>
      </trkpt>
      <trkpt lat="59.139271" lon="18.383987">
        <ele>29.5</ele>
        <time>2014-10-11T12:00:41Z</time>
      </trkpt>
      <trkpt lat="59.139258" lon="18.383899">
        <ele>29.8</ele>
        <time>2014-10-11T12:00:42Z</time>
      </trkpt>
      <trkpt lat="59.139248" lon="18.383799">
        <ele>30</ele>
        <time>2014-10-11T12:00:43Z</time>
      </trkpt>
      <trkpt lat="59.139221" lon="18.383695">
        <ele>30.2</ele>
        <time>2014-10-11T12:00:44Z</time>
      </trkpt>
      <trkpt lat="59.139184" lon="18.383598">
        <ele>30.1</ele>
        <time>2014-10-11T12:00:45Z</time>
      </trkpt>
      <trkpt lat="59.139177" lon="18.383521">
        <ele>30.2</ele>
        <time>2014-10-11T12:00:46Z</time>
      </trkpt>
      <trkpt lat="59.139155" lon="18.383403">
        <ele>30.2</ele>
        <time>2014-10-11T12:00:47Z</time>
      </trkpt>
      <trkpt lat="59.139137" lon="18.383296">
        <ele>30.3</ele>
        <time>2014-10-11T12:00:48Z</time>
      </trkpt>
      <trkpt lat="59.139118" lon="18.383202">
        <ele>30.3</ele>
        <time>2014-10-11T12:00:49Z</time>
      </trkpt>
      <trkpt lat="59.139081" lon="18.383102">
        <ele>30.4</ele>
        <time>2014-10-11T12:00:50Z</time>
      </trkpt>
      <trkpt lat="59.139065" lon="18.383026">
        <ele>30.5</ele>
        <time>2014-10-11T12:00:51Z</time>
      </trkpt>
      <trkpt lat="59.139045" lon="18.38295">
        <ele>30.6</ele>
        <time>2014-10-11T12:00:52Z</time>
      </trkpt>
      <trkpt lat="59.139029" lon="18.382868">
        <ele>30.7</ele>
        <time>2014-10-11T12:00:53Z</time>
      </trkpt>
      <trkpt lat="59.138987" lon="18.382735">
        <ele>30.9</ele>
        <time>2014-10-11T12:00:54Z</time>
      </trkpt>
      <trkpt lat="59.138964" lon="18.382643">
        <ele>31</ele>
        <time>2014-10-11T12:00:55Z</time>
      </trkpt>
      <trkpt lat="59.138964" lon="18.382527">
        <ele>31.1</ele>
        <time>2014-10-11T12:00:56Z</time>
      </trkpt>
      <trkpt lat="59.138924" lon="18.382403">
        <ele>31.3</ele>
        <time>2014-10-11T12:00:57Z</time>
      </trkpt>
      <trkpt lat="59.138894" lon="18.382282">
        <ele>31.5</ele>
        <time>2014-10-11T12:00:58Z</time>
      </trkpt>
      <trkpt lat="59.138876" lon="18.382166">
        <ele>31.6</ele>
        <time>2014-10-11T12:00:59Z</time>
      </trkpt>
      <trkpt lat="59.138848" lon="18.382047">
        <ele>31.6</ele>
        <time>2014-10-11T12:01:00Z</time>
      </trkpt>
      <trkpt lat="59.138824" lon="18.381934">
        <ele>31.3</ele>
        <time>2014-10-11T12:01:01Z</time>
      </trkpt>
      <trkpt lat="59.138813" lon="18.381828">
        <ele>31</ele>
        <time>2014-10-11T12:01:02Z</time>
      </trkpt>
      <trkpt lat="59.138795" lon="18.381728">
        <ele>30.6</ele>
        <time>2014-10-11T12:01:03Z</time>
      </trkpt>
      <trkpt lat="59.138772" lon="18.381599">
        <ele>30.2</ele>
        <time>2014-10-11T12:01:04Z</time>
      </trkpt>
      <trkpt lat="59.138736" lon="18.381479">
        <ele>29.7</ele>
        <time>2014-10-11T12:01:05Z</time>
      </trkpt>
      <trkpt lat="59.13869" lon="18.381352">
        <ele>29</ele>
        <time>2014-10-11T12:01:06Z</time>
      </trkpt>
      <trkpt lat="59.138662" lon="18.381245">
        <ele>28.5</ele>
        <time>2014-10-11T12:01:07Z</time>
      </trkpt>
      <trkpt lat="59.138642" lon="18.381106">
        <ele>28.1</ele>
        <time>2014-10-11T12:01:08Z</time>
      </trkpt>
      <trkpt lat="59.138619" lon="18.380995">
        <ele>27.7</ele>
        <time>2014-10-11T12:01:09Z</time>
      </trkpt>
      <trkpt lat="59.138609" lon="18.380881">
        <ele>27.4</ele>
        <time>2014-10-11T12:01:10Z</time>
      </trkpt>
      <trkpt lat="59.138611" lon="18.380778">
        <ele>27.2</ele>
        <time>2014-10-11T12:01:11Z</time>
      </trkpt>
      <trkpt lat="59.138609" lon="18.380669">
        <ele>27</ele>
        <time>2014-10-11T12:01:12Z</time>
      </trkpt>
      <trkpt lat="59.138598" lon="18.380548">
        <ele>26.7</ele>
        <time>2014-10-11T12:01:13Z</time>
      </trkpt>
      <trkpt lat="59.138581" lon="18.380441">
        <ele>26.4</ele>
        <time>2014-10-11T12:01:14Z</time>
      </trkpt>
      <trkpt lat="59.138559" lon="18.380329">
        <ele>26</ele>
        <time>2014-10-11T12:01:15Z</time>
      </trkpt>
      <trkpt lat="59.138559" lon="18.38022">
        <ele>25.7</ele>
        <time>2014-10-11T12:01:16Z</time>
      </trkpt>
      <trkpt lat="59.138547" lon="18.380122">
        <ele>25.4</ele>
        <time>2014-10-11T12:01:17Z</time>
      </trkpt>
      <trkpt lat="59.138534" lon="18.37998">
        <ele>24.9</ele>
        <time>2014-10-11T12:01:18Z</time>
      </trkpt>
      <trkpt lat="59.13853" lon="18.379875">
        <ele>24.6</ele>
        <time>2014-10-11T12:01:19Z</time>
      </trkpt>
      <trkpt lat="59.13853" lon="18.379761">
        <ele>24.3</ele>
        <time>2014-10-11T12:01:20Z</time>
      </trkpt>
      <trkpt lat="59.138516" lon="18.379632">
        <ele>23.9</ele>
        <time>2014-10-11T12:01:21Z</time>
      </trkpt>
      <trkpt lat="59.138513" lon="18.379522">
        <ele>23.6</ele>
        <time>2014-10-11T12:01:22Z</time>
      </trkpt>
      <trkpt lat="59.138503" lon="18.379391">
        <ele>23.3</ele>
        <time>2014-10-11T12:01:23Z</time>
      </trkpt>
      <trkpt lat="59.138489" lon="18.379275">
        <ele>23.1</ele>
        <time>2014-10-11T12:01:24Z</time>
      </trkpt>
      <trkpt lat="59.138481" lon="18.379133">
        <ele>22.8</ele>
        <time>2014-10-11T12:01:25Z</time>
      </trkpt>
      <trkpt lat="59.138478" lon="18.378999">
        <ele>22.5</ele>
        <time>2014-10-11T12:01:26Z</time>
      </trkpt>
      <trkpt lat="59.138465" lon="18.378873">
        <ele>22.2</ele>
        <time>2014-10-11T12:01:27Z</time>
      </trkpt>
      <trkpt lat="59.138459" lon="18.378728">
        <ele>21.9</ele>
        <time>2014-10-11T12:01:28Z</time>
      </trkpt>
      <trkpt lat="59.138451" lon="18.378569">
        <ele>21.6</ele>
        <time>2014-10-11T12:01:29Z</time>
      </trkpt>
      <trkpt lat="59.138441" lon="18.378439">
        <ele>21.3</ele>
        <time>2014-10-11T12:01:30Z</time>
      </trkpt>
      <trkpt lat="59.138433" lon="18.378306">
        <ele>21</ele>
        <time>2014-10-11T12:01:31Z</time>
      </trkpt>
      <trkpt lat="59.13842" lon="18.378144">
        <ele>20.7</ele>
        <time>2014-10-11T12:01:32Z</time>
      </trkpt>
      <trkpt lat="59.138422" lon="18.378002">
        <ele>20.4</ele>
        <time>2014-10-11T12:01:33Z</time>
      </trkpt>
      <trkpt lat="59.138415" lon="18.377856">
        <ele>20.1</ele>
        <time>2014-10-11T12:01:34Z</time>
      </trkpt>
      <trkpt lat="59.138407" lon="18.377688">
        <ele>19.8</ele>
        <time>2014-10-11T12:01:35Z</time>
      </trkpt>
      <trkpt lat="59.138391" lon="18.377534">
        <ele>19.5</ele>
        <time>2014-10-11T12:01:36Z</time>
      </trkpt>
      <trkpt lat="59.138378" lon="18.37735">
        <ele>19.2</ele>
        <time>2014-10-11T12:01:37Z</time>
      </trkpt>
      <trkpt lat="59.138361" lon="18.377198">
        <ele>19</ele>
        <time>2014-10-11T12:01:38Z</time>
      </trkpt>
      <trkpt lat="59.13834" lon="18.377018">
        <ele>18.7</ele>
        <time>2014-10-11T12:01:39Z</time>
      </trkpt>
      <trkpt lat="59.138323" lon="18.376846">
        <ele>18.1</ele>
        <time>2014-10-11T12:01:40Z</time>
      </trkpt>
      <trkpt lat="59.138297" lon="18.376669">
        <ele>17.5</ele>
        <time>2014-10-11T12:01:41Z</time>
      </trkpt>
      <trkpt lat="59.138272" lon="18.376508">
        <ele>17</ele>
        <time>2014-10-11T12:01:42Z</time>
      </trkpt>
      <trkpt lat="59.138247" lon="18.376337">
        <ele>16.4</ele>
        <time>2014-10-11T12:01:43Z</time>
      </trkpt>
      <trkpt lat="59.138217" lon="18.376164">
        <ele>15.9</ele>
        <time>2014-10-11T12:01:44Z</time>
      </trkpt>
      <trkpt lat="59.138184" lon="18.375998">
        <ele>15.4</ele>
        <time>2014-10-11T12:01:45Z</time>
      </trkpt>
      <trkpt lat="59.138151" lon="18.375845">
        <ele>14.9</ele>
        <time>2014-10-11T12:01:46Z</time>
      </trkpt>
      <trkpt lat="59.138117" lon="18.375676">
        <ele>14.4</ele>
        <time>2014-10-11T12:01:47Z</time>
      </trkpt>
      <trkpt lat="59.138079" lon="18.375508">
        <ele>13.8</ele>
        <time>2014-10-11T12:01:48Z</time>
      </trkpt>
      <trkpt lat="59.138044" lon="18.375386">
        <ele>13.4</ele>
        <time>2014-10-11T12:01:49Z</time>
      </trkpt>
      <trkpt lat="59.138014" lon="18.375233">
        <ele>13</ele>
        <time>2014-10-11T12:01:50Z</time>
      </trkpt>
      <trkpt lat="59.137974" lon="18.375069">
        <ele>12.6</ele>
        <time>2014-10-11T12:01:51Z</time>
      </trkpt>
      <trkpt lat="59.137943" lon="18.374917">
        <ele>12.1</ele>
        <time>2014-10-11T12:01:52Z</time>
      </trkpt>
      <trkpt lat="59.1379" lon="18.374759">
        <ele>11.6</ele>
        <time>2014-10-11T12:01:53Z</time>
      </trkpt>
      <trkpt lat="59.137855" lon="18.374607">
        <ele>11</ele>
        <time>2014-10-11T12:01:54Z</time>
      </trkpt>
      <trkpt lat="59.137815" lon="18.374446">
        <ele>10.6</ele>
        <time>2014-10-11T12:01:55Z</time>
      </trkpt>
      <trkpt lat="59.137771" lon="18.374301">
        <ele>10.2</ele>
        <time>2014-10-11T12:01:56Z</time>
      </trkpt>
      <trkpt lat="59.137731" lon="18.374171">
        <ele>9.9</ele>
        <time>2014-10-11T12:01:57Z</time>
      </trkpt>
      <trkpt lat="59.137689" lon="18.374047">
        <ele>9.6</ele>
        <time>2014-10-11T12:01:58Z</time>
      </trkpt>
      <trkpt lat="59.137649" lon="18.373911">
        <ele>9.3</ele>
        <time>2014-10-11T12:01:59Z</time>
      </trkpt>
      <trkpt lat="59.137604" lon="18.373771">
        <ele>9</ele>
        <time>2014-10-11T12:02:00Z</time>
      </trkpt>
      <trkpt lat="59.137556" lon="18.373655">
        <ele>9</ele>
        <time>2014-10-11T12:02:01Z</time>
      </trkpt>
      <trkpt lat="59.13751" lon="18.373553">
        <ele>9.1</ele>
        <time>2014-10-11T12:02:02Z</time>
      </trkpt>
      <trkpt lat="59.137472" lon="18.373452">
        <ele>9.2</ele>
        <time>2014-10-11T12:02:03Z</time>
      </trkpt>
      <trkpt lat="59.137429" lon="18.373345">
        <ele>9.4</ele>
        <time>2014-10-11T12:02:04Z</time>
      </trkpt>
      <trkpt lat="59.137388" lon="18.373238">
        <ele>9.6</ele>
        <time>2014-10-11T12:02:05Z</time>
      </trkpt>
      <trkpt lat="59.137343" lon="18.373132">
        <ele>9.8</ele>
        <time>2014-10-11T12:02:06Z</time>
      </trkpt>
      <trkpt lat="59.1373" lon="18.373017">
        <ele>10.1</ele>
        <time>2014-10-11T12:02:07Z</time>
      </trkpt>
      <trkpt lat="59.137256" lon="18.372892">
        <ele>10.4</ele>
        <time>2014-10-11T12:02:08Z</time>
      </trkpt>
      <trkpt lat="59.1372" lon="18.37278">
        <ele>10.7</ele>
        <time>2014-10-11T12:02:09Z</time>
      </trkpt>
      <trkpt lat="59.137156" lon="18.372676">
        <ele>11</ele>
        <time>2014-10-11T12:02:10Z</time>
      </trkpt>
      <trkpt lat="59.137111" lon="18.372561">
        <ele>11.3</ele>
        <time>2014-10-11T12:02:11Z</time>
      </trkpt>
      <trkpt lat="59.137074" lon="18.37246">
        <ele>11.6</ele>
        <time>2014-10-11T12:02:12Z</time>
      </trkpt>
      <trkpt lat="59.137032" lon="18.37237">
        <ele>12</ele>
        <time>2014-10-11T12:02:13Z</time>
      </trkpt>
      <trkpt lat="59.136991" lon="18.372276">
        <ele>12.5</ele>
        <time>2014-10-11T12:02:14Z</time>
      </trkpt>
      <trkpt lat="59.136952" lon="18.372192">
        <ele>12.9</ele>
        <time>2014-10-11T12:02:15Z</time>
      </trkpt>
      <trkpt lat="59.136917" lon="18.372102">
        <ele>13.4</ele>
        <time>2014-10-11T12:02:16Z</time>
      </trkpt>
      <trkpt lat="59.136878" lon="18.372">
        <ele>14.1</ele>
        <time>2014-10-11T12:02:17Z</time>
      </trkpt>
      <trkpt lat="59.136848" lon="18.371916">
        <ele>14.8</ele>
        <time>2014-10-11T12:02:18Z</time>
      </trkpt>
      <trkpt lat="59.136817" lon="18.37183">
        <ele>15.4</ele>
        <time>2014-10-11T12:02:19Z</time>
      </trkpt>
      <trkpt lat="59.13678" lon="18.371746">
        <ele>16</ele>
        <time>2014-10-11T12:02:20Z</time>
      </trkpt>
      <trkpt lat="59.136742" lon="18.371655">
        <ele>16.6</ele>
        <time>2014-10-11T12:02:21Z</time>
      </trkpt>
      <trkpt lat="59.136707" lon="18.371568">
        <ele>17.1</ele>
        <time>2014-10-11T12:02:22Z</time>
      </trkpt>
      <trkpt lat="59.136665" lon="18.371473">
        <ele>17.7</ele>
        <time>2014-10-11T12:02:23Z</time>
      </trkpt>
      <trkpt lat="59.136621" lon="18.371391">
        <ele>18.2</ele>
        <time>2014-10-11T12:02:24Z</time>
      </trkpt>
      <trkpt lat="59.136586" lon="18.3713">
        <ele>18.6</ele>
        <time>2014-10-11T12:02:25Z</time>
      </trkpt>
      <trkpt lat="59.13655" lon="18.371197">
        <ele>19</ele>
        <time>2014-10-11T12:02:26Z</time>
      </trkpt>
      <trkpt lat="59.13651" lon="18.3711">
        <ele>19.3</ele>
        <time>2014-10-11T12:02:27Z</time>
      </trkpt>
      <trkpt lat="59.136475" lon="18.371001">
        <ele>19.6</ele>
        <time>2014-10-11T12:02:28Z</time>
      </trkpt>
      <trkpt lat="59.136433" lon="18.370885">
        <ele>19.8</ele>
        <time>2014-10-11T12:02:29Z</time>
      </trkpt>
      <trkpt lat="59.136397" lon="18.370789">
        <ele>20</ele>
        <time>2014-10-11T12:02:30Z</time>
      </trkpt>
      <trkpt lat="59.136376" lon="18.370703">
        <ele>20</ele>
        <time>2014-10-11T12:02:31Z</time>
      </trkpt>
      <trkpt lat="59.136346" lon="18.370611">
        <ele>20.1</ele>
        <time>2014-10-11T12:02:32Z</time>
      </trkpt>
      <trkpt lat="59.136315" lon="18.370512">
        <ele>20.1</ele>
        <time>2014-10-11T12:02:33Z</time>
      </trkpt>
      <trkpt lat="59.136285" lon="18.370411">
        <ele>20.1</ele>
        <time>2014-10-11T12:02:34Z</time>
      </trkpt>
      <trkpt lat="59.136245" lon="18.370305">
        <ele>19.7</ele>
        <time>2014-10-11T12:02:35Z</time>
      </trkpt>
      <trkpt lat="59.136209" lon="18.37019">
        <ele>19.1</ele>
        <time>2014-10-11T12:02:36Z</time>
      </trkpt>
      <trkpt lat="59.136185" lon="18.370087">
        <ele>18.7</ele>
        <time>2014-10-11T12:02:37Z</time>
      </trkpt>
      <trkpt lat="59.136149" lon="18.36997">
        <ele>18.1</ele>
        <time>2014-10-11T12:02:38Z</time>
      </trkpt>
      <trkpt lat="59.136124" lon="18.369878">
        <ele>17.7</ele>
        <time>2014-10-11T12:02:39Z</time>
      </trkpt>
      <trkpt lat="59.136102" lon="18.36977">
        <ele>17.3</ele>
        <time>2014-10-11T12:02:40Z</time>
      </trkpt>
      <trkpt lat="59.136083" lon="18.369671">
        <ele>17</ele>
        <time>2014-10-11T12:02:41Z</time>
      </trkpt>
      <trkpt lat="59.136048" lon="18.369544">
        <ele>16.5</ele>
        <time>2014-10-11T12:02:42Z</time>
      </trkpt>
      <trkpt lat="59.136018" lon="18.369426">
        <ele>16</ele>
        <time>2014-10-11T12:02:43Z</time>
      </trkpt>
      <trkpt lat="59.13599" lon="18.369315">
        <ele>15.6</ele>
        <time>2014-10-11T12:02:44Z</time>
      </trkpt>
      <trkpt lat="59.135984" lon="18.369221">
        <ele>15.4</ele>
        <time>2014-10-11T12:02:45Z</time>
      </trkpt>
      <trkpt lat="59.135979" lon="18.369083">
        <ele>15</ele>
        <time>2014-10-11T12:02:46Z</time>
      </trkpt>
      <trkpt lat="59.13596" lon="18.36896">
        <ele>14.7</ele>
        <time>2014-10-11T12:02:47Z</time>
      </trkpt>
      <trkpt lat="59.135865" lon="18.368109">
        <ele>13.7</ele>
        <time>2014-10-11T12:02:54Z</time>
      </trkpt>
      <trkpt lat="59.135853" lon="18.368037">
        <ele>13.6</ele>
        <time>2014-10-11T12:02:55Z</time>
      </trkpt>
      <trkpt lat="59.135847" lon="18.367912">
        <ele>13.6</ele>
        <time>2014-10-11T12:02:56Z</time>
      </trkpt>
      <trkpt lat="59.135824" lon="18.367775">
        <ele>13.4</ele>
        <time>2014-10-11T12:02:57Z</time>
      </trkpt>
      <trkpt lat="59.135803" lon="18.367658">
        <ele>13.3</ele>
        <time>2014-10-11T12:02:58Z</time>
      </trkpt>
      <trkpt lat="59.135788" lon="18.36752">
        <ele>13.2</ele>
        <time>2014-10-11T12:02:59Z</time>
      </trkpt>
      <trkpt lat="59.135772" lon="18.36737">
        <ele>13.1</ele>
        <time>2014-10-11T12:03:00Z</time>
      </trkpt>
      <trkpt lat="59.135753" lon="18.367228">
        <ele>13</ele>
        <time>2014-10-11T12:03:01Z</time>
      </trkpt>
      <trkpt lat="59.135739" lon="18.367088">
        <ele>12.9</ele>
        <time>2014-10-11T12:03:02Z</time>
      </trkpt>
      <trkpt lat="59.135713" lon="18.366974">
        <ele>12.9</ele>
        <time>2014-10-11T12:03:03Z</time>
      </trkpt>
      <trkpt lat="59.135689" lon="18.366832">
        <ele>12.9</ele>
        <time>2014-10-11T12:03:04Z</time>
      </trkpt>
      <trkpt lat="59.135662" lon="18.36668">
        <ele>13</ele>
        <time>2014-10-11T12:03:05Z</time>
      </trkpt>
      <trkpt lat="59.135649" lon="18.366545">
        <ele>13</ele>
        <time>2014-10-11T12:03:06Z</time>
      </trkpt>
      <trkpt lat="59.135631" lon="18.366404">
        <ele>13.1</ele>
        <time>2014-10-11T12:03:07Z</time>
      </trkpt>
      <trkpt lat="59.135604" lon="18.366242">
        <ele>13.1</ele>
        <time>2014-10-11T12:03:08Z</time>
      </trkpt>
      <trkpt lat="59.135576" lon="18.366116">
        <ele>13</ele>
        <time>2014-10-11T12:03:09Z</time>
      </trkpt>
      <trkpt lat="59.13555" lon="18.365964">
        <ele>12.9</ele>
        <time>2014-10-11T12:03:10Z</time>
      </trkpt>
      <trkpt lat="59.135515" lon="18.36581">
        <ele>12.7</ele>
        <time>2014-10-11T12:03:11Z</time>
      </trkpt>
      <trkpt lat="59.135503" lon="18.365686">
        <ele>12.6</ele>
        <time>2014-10-11T12:03:12Z</time>
      </trkpt>
      <trkpt lat="59.135473" lon="18.365557">
        <ele>12.4</ele>
        <time>2014-10-11T12:03:13Z</time>
      </trkpt>
      <trkpt lat="59.135448" lon="18.365422">
        <ele>12.2</ele>
        <time>2014-10-11T12:03:14Z</time>
      </trkpt>
      <trkpt lat="59.135423" lon="18.365271">
        <ele>11.9</ele>
        <time>2014-10-11T12:03:15Z</time>
      </trkpt>
      <trkpt lat="59.135413" lon="18.365189">
        <ele>11.7</ele>
        <time>2014-10-11T12:03:16Z</time>
      </trkpt>
      <trkpt lat="59.135397" lon="18.365042">
        <ele>11.5</ele>
        <time>2014-10-11T12:03:17Z</time>
      </trkpt>
      <trkpt lat="59.135371" lon="18.364901">
        <ele>11.2</ele>
        <time>2014-10-11T12:03:18Z</time>
      </trkpt>
      <trkpt lat="59.135363" lon="18.36475">
        <ele>11</ele>
        <time>2014-10-11T12:03:19Z</time>
      </trkpt>
      <trkpt lat="59.135335" lon="18.364611">
        <ele>10.7</ele>
        <time>2014-10-11T12:03:20Z</time>
      </trkpt>
      <trkpt lat="59.135314" lon="18.364469">
        <ele>10.5</ele>
        <time>2014-10-11T12:03:21Z</time>
      </trkpt>
      <trkpt lat="59.135299" lon="18.364332">
        <ele>10.3</ele>
        <time>2014-10-11T12:03:22Z</time>
      </trkpt>
      <trkpt lat="59.135276" lon="18.364156">
        <ele>10</ele>
        <time>2014-10-11T12:03:23Z</time>
      </trkpt>
      <trkpt lat="59.135257" lon="18.364018">
        <ele>9.7</ele>
        <time>2014-10-11T12:03:24Z</time>
      </trkpt>
      <trkpt lat="59.135232" lon="18.363898">
        <ele>9.5</ele>
        <time>2014-10-11T12:03:25Z</time>
      </trkpt>
      <trkpt lat="59.135212" lon="18.363779">
        <ele>9.3</ele>
        <time>2014-10-11T12:03:26Z</time>
      </trkpt>
      <trkpt lat="59.135192" lon="18.363651">
        <ele>9.3</ele>
        <time>2014-10-11T12:03:27Z</time>
      </trkpt>
      <trkpt lat="59.135178" lon="18.363503">
        <ele>9.4</ele>
        <time>2014-10-11T12:03:28Z</time>
      </trkpt>
      <trkpt lat="59.135161" lon="18.363362">
        <ele>9.5</ele>
        <time>2014-10-11T12:03:29Z</time>
      </trkpt>
      <trkpt lat="59.135149" lon="18.36324">
        <ele>9.6</ele>
        <time>2014-10-11T12:03:30Z</time>
      </trkpt>
      <trkpt lat="59.135128" lon="18.363102">
        <ele>9.7</ele>
        <time>2014-10-11T12:03:31Z</time>
      </trkpt>
      <trkpt lat="59.135099" lon="18.362969">
        <ele>9.8</ele>
        <time>2014-10-11T12:03:32Z</time>
      </trkpt>
      <trkpt lat="59.135074" lon="18.362829">
        <ele>9.8</ele>
        <time>2014-10-11T12:03:33Z</time>
      </trkpt>
      <trkpt lat="59.13506" lon="18.362688">
        <ele>9.7</ele>
        <time>2014-10-11T12:03:34Z</time>
      </trkpt>
      <trkpt lat="59.13503" lon="18.362544">
        <ele>9.6</ele>
        <time>2014-10-11T12:03:35Z</time>
      </trkpt>
      <trkpt lat="59.135008" lon="18.362413">
        <ele>9.5</ele>
        <time>2014-10-11T12:03:36Z</time>
      </trkpt>
      <trkpt lat="59.134989" lon="18.362296">
        <ele>9.5</ele>
        <time>2014-10-11T12:03:37Z</time>
      </trkpt>
      <trkpt lat="59.134969" lon="18.362155">
        <ele>9.4</ele>
        <time>2014-10-11T12:03:38Z</time>
      </trkpt>
      <trkpt lat="59.134941" lon="18.36203">
        <ele>9.4</ele>
        <time>2014-10-11T12:03:39Z</time>
      </trkpt>
      <trkpt lat="59.134912" lon="18.361903">
        <ele>9.6</ele>
        <time>2014-10-11T12:03:40Z</time>
      </trkpt>
      <trkpt lat="59.134891" lon="18.361775">
        <ele>9.8</ele>
        <time>2014-10-11T12:03:41Z</time>
      </trkpt>
      <trkpt lat="59.134873" lon="18.361644">
        <ele>10.1</ele>
        <time>2014-10-11T12:03:42Z</time>
      </trkpt>
      <trkpt lat="59.13486" lon="18.361514">
        <ele>10.4</ele>
        <time>2014-10-11T12:03:43Z</time>
      </trkpt>
      <trkpt lat="59.134844" lon="18.361394">
        <ele>10.6</ele>
        <time>2014-10-11T12:03:44Z</time>
      </trkpt>
      <trkpt lat="59.134824" lon="18.361281">
        <ele>10.8</ele>
        <time>2014-10-11T12:03:45Z</time>
      </trkpt>
      <trkpt lat="59.134805" lon="18.361156">
        <ele>10.9</ele>
        <time>2014-10-11T12:03:46Z</time>
      </trkpt>
      <trkpt lat="59.134783" lon="18.361044">
        <ele>11</ele>
        <time>2014-10-11T12:03:47Z</time>
      </trkpt>
      <trkpt lat="59.134758" lon="18.360917">
        <ele>11.1</ele>
        <time>2014-10-11T12:03:48Z</time>
      </trkpt>
      <trkpt lat="59.134737" lon="18.360784">
        <ele>11.2</ele>
        <time>2014-10-11T12:03:49Z</time>
      </trkpt>
      <trkpt lat="59.134716" lon="18.360658">
        <ele>11.3</ele>
        <time>2014-10-11T12:03:50Z</time>
      </trkpt>
      <trkpt lat="59.134692" lon="18.360531">
        <ele>11.4</ele>
        <time>2014-10-11T12:03:51Z</time>
      </trkpt>
      <trkpt lat="59.13467" lon="18.36042">
        <ele>11.4</ele>
        <time>2014-10-11T12:03:52Z</time>
      </trkpt>
      <trkpt lat="59.13465" lon="18.360291">
        <ele>11.2</ele>
        <time>2014-10-11T12:03:53Z</time>
      </trkpt>
      <trkpt lat="59.134625" lon="18.360161">
        <ele>10.9</ele>
        <time>2014-10-11T12:03:54Z</time>
      </trkpt>
      <trkpt lat="59.134609" lon="18.360041">
        <ele>10.7</ele>
        <time>2014-10-11T12:03:55Z</time>
      </trkpt>
      <trkpt lat="59.134571" lon="18.359874">
        <ele>10.3</ele>
        <time>2014-10-11T12:03:56Z</time>
      </trkpt>
      <trkpt lat="59.134537" lon="18.359751">
        <ele>10.1</ele>
        <time>2014-10-11T12:03:57Z</time>
      </trkpt>
      <trkpt lat="59.134513" lon="18.359643">
        <ele>9.9</ele>
        <time>2014-10-11T12:03:58Z</time>
      </trkpt>
      <trkpt lat="59.134491" lon="18.359537">
        <ele>9.8</ele>
        <time>2014-10-11T12:03:59Z</time>
      </trkpt>
      <trkpt lat="59.134453" lon="18.3594">
        <ele>9.7</ele>
        <time>2014-10-11T12:04:00Z</time>
      </trkpt>
      <trkpt lat="59.134434" lon="18.359286">
        <ele>9.6</ele>
        <time>2014-10-11T12:04:01Z</time>
      </trkpt>
      <trkpt lat="59.13441" lon="18.359156">
        <ele>9.6</ele>
        <time>2014-10-11T12:04:02Z</time>
      </trkpt>
      <trkpt lat="59.134379" lon="18.359023">
        <ele>9.5</ele>
        <time>2014-10-11T12:04:03Z</time>
      </trkpt>
      <trkpt lat="59.134352" lon="18.358888">
        <ele>9.4</ele>
        <time>2014-10-11T12:04:04Z</time>
      </trkpt>
      <trkpt lat="59.134327" lon="18.358768">
        <ele>9.4</ele>
        <time>2014-10-11T12:04:05Z</time>
      </trkpt>
      <trkpt lat="59.134308" lon="18.358646">
        <ele>9.3</ele>
        <time>2014-10-11T12:04:06Z</time>
      </trkpt>
      <trkpt lat="59.134274" lon="18.358525">
        <ele>9.3</ele>
        <time>2014-10-11T12:04:07Z</time>
      </trkpt>
      <trkpt lat="59.134244" lon="18.358404">
        <ele>9.2</ele>
        <time>2014-10-11T12:04:08Z</time>
      </trkpt>
      <trkpt lat="59.13421" lon="18.358273">
        <ele>9.1</ele>
        <time>2014-10-11T12:04:09Z</time>
      </trkpt>
      <trkpt lat="59.13418" lon="18.358142">
        <ele>9</ele>
        <time>2014-10-11T12:04:10Z</time>
      </trkpt>
      <trkpt lat="59.134146" lon="18.35803">
        <ele>9</ele>
        <time>2014-10-11T12:04:11Z</time>
      </trkpt>
      <trkpt lat="59.134114" lon="18.357923">
        <ele>8.9</ele>
        <time>2014-10-11T12:04:12Z</time>
      </trkpt>
      <trkpt lat="59.134083" lon="18.357808">
        <ele>8.8</ele>
        <time>2014-10-11T12:04:13Z</time>
      </trkpt>
      <trkpt lat="59.134052" lon="18.357702">
        <ele>8.7</ele>
        <time>2014-10-11T12:04:14Z</time>
      </trkpt>
      <trkpt lat="59.134023" lon="18.357577">
        <ele>8.7</ele>
        <time>2014-10-11T12:04:15Z</time>
      </trkpt>
      <trkpt lat="59.133992" lon="18.357458">
        <ele>8.6</ele>
        <time>2014-10-11T12:04:16Z</time>
      </trkpt>
      <trkpt lat="59.133959" lon="18.357335">
        <ele>8.5</ele>
        <time>2014-10-11T12:04:17Z</time>
      </trkpt>
      <trkpt lat="59.133914" lon="18.357237">
        <ele>8.4</ele>
        <time>2014-10-11T12:04:18Z</time>
      </trkpt>
      <trkpt lat="59.133885" lon="18.357117">
        <ele>8.3</ele>
        <time>2014-10-11T12:04:19Z</time>
      </trkpt>
      <trkpt lat="59.133856" lon="18.356988">
        <ele>8.3</ele>
        <time>2014-10-11T12:04:20Z</time>
      </trkpt>
      <trkpt lat="59.133817" lon="18.356863">
        <ele>8.2</ele>
        <time>2014-10-11T12:04:21Z</time>
      </trkpt>
      <trkpt lat="59.13379" lon="18.356742">
        <ele>8.2</ele>
        <time>2014-10-11T12:04:22Z</time>
      </trkpt>
      <trkpt lat="59.133758" lon="18.356623">
        <ele>8</ele>
        <time>2014-10-11T12:04:23Z</time>
      </trkpt>
      <trkpt lat="59.133733" lon="18.356504">
        <ele>7.9</ele>
        <time>2014-10-11T12:04:24Z</time>
      </trkpt>
      <trkpt lat="59.133697" lon="18.356387">
        <ele>7.8</ele>
        <time>2014-10-11T12:04:25Z</time>
      </trkpt>
      <trkpt lat="59.133672" lon="18.35627">
        <ele>7.7</ele>
        <time>2014-10-11T12:04:26Z</time>
      </trkpt>
      <trkpt lat="59.133647" lon="18.356158">
        <ele>7.6</ele>
        <time>2014-10-11T12:04:27Z</time>
      </trkpt>
      <trkpt lat="59.13362" lon="18.356035">
        <ele>7.5</ele>
        <time>2014-10-11T12:04:28Z</time>
      </trkpt>
      <trkpt lat="59.133593" lon="18.355908">
        <ele>7.4</ele>
        <time>2014-10-11T12:04:29Z</time>
      </trkpt>
      <trkpt lat="59.13356" lon="18.355788">
        <ele>7.2</ele>
        <time>2014-10-11T12:04:30Z</time>
      </trkpt>
      <trkpt lat="59.133534" lon="18.355681">
        <ele>7</ele>
        <time>2014-10-11T12:04:31Z</time>
      </trkpt>
      <trkpt lat="59.133501" lon="18.35557">
        <ele>6.9</ele>
        <time>2014-10-11T12:04:32Z</time>
      </trkpt>
      <trkpt lat="59.133468" lon="18.355445">
        <ele>6.7</ele>
        <time>2014-10-11T12:04:33Z</time>
      </trkpt>
      <trkpt lat="59.133438" lon="18.35532">
        <ele>6.4</ele>
        <time>2014-10-11T12:04:34Z</time>
      </trkpt>
      <trkpt lat="59.133412" lon="18.355189">
        <ele>6.2</ele>
        <time>2014-10-11T12:04:35Z</time>
      </trkpt>
      <trkpt lat="59.133381" lon="18.355061">
        <ele>6</ele>
        <time>2014-10-11T12:04:36Z</time>
      </trkpt>
      <trkpt lat="59.133344" lon="18.354945">
        <ele>5.8</ele>
        <time>2014-10-11T12:04:37Z</time>
      </trkpt>
      <trkpt lat="59.133316" lon="18.354823">
        <ele>5.6</ele>
        <time>2014-10-11T12:04:38Z</time>
      </trkpt>
      <trkpt lat="59.133287" lon="18.354691">
        <ele>5.4</ele>
        <time>2014-10-11T12:04:39Z</time>
      </trkpt>
      <trkpt lat="59.133243" lon="18.354553">
        <ele>5.2</ele>
        <time>2014-10-11T12:04:40Z</time>
      </trkpt>
      <trkpt lat="59.133205" lon="18.354436">
        <ele>5</ele>
        <time>2014-10-11T12:04:41Z</time>
      </trkpt>
      <trkpt lat="59.133158" lon="18.354312">
        <ele>4.9</ele>
        <time>2014-10-11T12:04:42Z</time>
      </trkpt>
      <trkpt lat="59.13313" lon="18.354182">
        <ele>4.8</ele>
        <time>2014-10-11T12:04:43Z</time>
      </trkpt>
      <trkpt lat="59.133088" lon="18.354059">
        <ele>4.6</ele>
        <time>2014-10-11T12:04:44Z</time>
      </trkpt>
      <trkpt lat="59.133065" lon="18.353952">
        <ele>4.5</ele>
        <time>2014-10-11T12:04:45Z</time>
      </trkpt>
      <trkpt lat="59.133038" lon="18.353823">
        <ele>4.4</ele>
        <time>2014-10-11T12:04:46Z</time>
      </trkpt>
      <trkpt lat="59.13301" lon="18.353695">
        <ele>4.5</ele>
        <time>2014-10-11T12:04:47Z</time>
      </trkpt>
      <trkpt lat="59.132977" lon="18.353565">
        <ele>4.6</ele>
        <time>2014-10-11T12:04:48Z</time>
      </trkpt>
      <trkpt lat="59.132947" lon="18.353457">
        <ele>4.8</ele>
        <time>2014-10-11T12:04:49Z</time>
      </trkpt>
      <trkpt lat="59.132921" lon="18.353325">
        <ele>5</ele>
        <time>2014-10-11T12:04:50Z</time>
      </trkpt>
      <trkpt lat="59.132896" lon="18.353198">
        <ele>5.3</ele>
        <time>2014-10-11T12:04:51Z</time>
      </trkpt>
      <trkpt lat="59.132868" lon="18.353083">
        <ele>5.6</ele>
        <time>2014-10-11T12:04:52Z</time>
      </trkpt>
      <trkpt lat="59.132835" lon="18.352947">
        <ele>5.8</ele>
        <time>2014-10-11T12:04:53Z</time>
      </trkpt>
      <trkpt lat="59.132806" lon="18.352819">
        <ele>6.1</ele>
        <time>2014-10-11T12:04:54Z</time>
      </trkpt>
      <trkpt lat="59.132776" lon="18.352704">
        <ele>6.3</ele>
        <time>2014-10-11T12:04:55Z</time>
      </trkpt>
      <trkpt lat="59.132749" lon="18.352583">
        <ele>6.4</ele>
        <time>2014-10-11T12:04:56Z</time>
      </trkpt>
      <trkpt lat="59.132716" lon="18.35244">
        <ele>6.6</ele>
        <time>2014-10-11T12:04:57Z</time>
      </trkpt>
      <trkpt lat="59.132688" lon="18.352322">
        <ele>6.8</ele>
        <time>2014-10-11T12:04:58Z</time>
      </trkpt>
      <trkpt lat="59.132657" lon="18.352197">
        <ele>6.9</ele>
        <time>2014-10-11T12:04:59Z</time>
      </trkpt>
      <trkpt lat="59.132635" lon="18.352095">
        <ele>7</ele>
        <time>2014-10-11T12:05:00Z</time>
      </trkpt>
      <trkpt lat="59.132608" lon="18.351978">
        <ele>7.3</ele>
        <time>2014-10-11T12:05:01Z</time>
      </trkpt>
      <trkpt lat="59.132582" lon="18.351873">
        <ele>7.7</ele>
        <time>2014-10-11T12:05:02Z</time>
      </trkpt>
      <trkpt lat="59.132558" lon="18.351752">
        <ele>8.1</ele>
        <time>2014-10-11T12:05:03Z</time>
      </trkpt>
      <trkpt lat="59.132533" lon="18.351631">
        <ele>8.5</ele>
        <time>2014-10-11T12:05:04Z</time>
      </trkpt>
      <trkpt lat="59.1325" lon="18.351513">
        <ele>8.9</ele>
        <time>2014-10-11T12:05:05Z</time>
      </trkpt>
      <trkpt lat="59.132467" lon="18.351399">
        <ele>9.2</ele>
        <time>2014-10-11T12:05:06Z</time>
      </trkpt>
      <trkpt lat="59.132436" lon="18.351274">
        <ele>9.6</ele>
        <time>2014-10-11T12:05:07Z</time>
      </trkpt>
      <trkpt lat="59.132406" lon="18.351159">
        <ele>9.9</ele>
        <time>2014-10-11T12:05:08Z</time>
      </trkpt>
      <trkpt lat="59.132376" lon="18.351041">
        <ele>10.1</ele>
        <time>2014-10-11T12:05:09Z</time>
      </trkpt>
      <trkpt lat="59.132349" lon="18.350921">
        <ele>10.3</ele>
        <time>2014-10-11T12:05:10Z</time>
      </trkpt>
      <trkpt lat="59.132319" lon="18.350809">
        <ele>10.5</ele>
        <time>2014-10-11T12:05:11Z</time>
      </trkpt>
      <trkpt lat="59.132295" lon="18.350686">
        <ele>10.7</ele>
        <time>2014-10-11T12:05:12Z</time>
      </trkpt>
      <trkpt lat="59.132269" lon="18.350571">
        <ele>10.9</ele>
        <time>2014-10-11T12:05:13Z</time>
      </trkpt>
      <trkpt lat="59.132247" lon="18.350472">
        <ele>11</ele>
        <time>2014-10-11T12:05:14Z</time>
      </trkpt>
      <trkpt lat="59.132232" lon="18.350368">
        <ele>11.2</ele>
        <time>2014-10-11T12:05:15Z</time>
      </trkpt>
      <trkpt lat="59.132193" lon="18.350235">
        <ele>11.3</ele>
        <time>2014-10-11T12:05:16Z</time>
      </trkpt>
      <trkpt lat="59.132169" lon="18.35012">
        <ele>11.4</ele>
        <time>2014-10-11T12:05:17Z</time>
      </trkpt>
      <trkpt lat="59.132143" lon="18.35001">
        <ele>11.5</ele>
        <time>2014-10-11T12:05:18Z</time>
      </trkpt>
      <trkpt lat="59.132115" lon="18.349894">
        <ele>11.6</ele>
        <time>2014-10-11T12:05:19Z</time>
      </trkpt>
      <trkpt lat="59.132097" lon="18.349777">
        <ele>11.7</ele>
        <time>2014-10-11T12:05:20Z</time>
      </trkpt>
      <trkpt lat="59.132077" lon="18.349669">
        <ele>11.7</ele>
        <time>2014-10-11T12:05:21Z</time>
      </trkpt>
      <trkpt lat="59.132038" lon="18.349564">
        <ele>11.6</ele>
        <time>2014-10-11T12:05:22Z</time>
      </trkpt>
      <trkpt lat="59.132004" lon="18.349448">
        <ele>11.5</ele>
        <time>2014-10-11T12:05:23Z</time>
      </trkpt>
      <trkpt lat="59.131971" lon="18.349315">
        <ele>11.3</ele>
        <time>2014-10-11T12:05:24Z</time>
      </trkpt>
      <trkpt lat="59.131937" lon="18.349208">
        <ele>11.1</ele>
        <time>2014-10-11T12:05:25Z</time>
      </trkpt>
      <trkpt lat="59.131907" lon="18.349091">
        <ele>11</ele>
        <time>2014-10-11T12:05:26Z</time>
      </trkpt>
      <trkpt lat="59.131884" lon="18.348982">
        <ele>10.9</ele>
        <time>2014-10-11T12:05:27Z</time>
      </trkpt>
      <trkpt lat="59.131857" lon="18.348879">
        <ele>10.7</ele>
        <time>2014-10-11T12:05:28Z</time>
      </trkpt>
      <trkpt lat="59.131842" lon="18.348776">
        <ele>10.7</ele>
        <time>2014-10-11T12:05:29Z</time>
      </trkpt>
      <trkpt lat="59.131815" lon="18.348667">
        <ele>10.8</ele>
        <time>2014-10-11T12:05:30Z</time>
      </trkpt>
      <trkpt lat="59.131782" lon="18.348539">
        <ele>11</ele>
        <time>2014-10-11T12:05:31Z</time>
      </trkpt>
      <trkpt lat="59.13176" lon="18.348406">
        <ele>11.4</ele>
        <time>2014-10-11T12:05:32Z</time>
      </trkpt>
      <trkpt lat="59.13173" lon="18.348295">
        <ele>11.6</ele>
        <time>2014-10-11T12:05:33Z</time>
      </trkpt>
      <trkpt lat="59.131712" lon="18.348197">
        <ele>11.8</ele>
        <time>2014-10-11T12:05:34Z</time>
      </trkpt>
      <trkpt lat="59.131686" lon="18.348077">
        <ele>12</ele>
        <time>2014-10-11T12:05:35Z</time>
      </trkpt>
      <trkpt lat="59.131654" lon="18.347969">
        <ele>12.1</ele>
        <time>2014-10-11T12:05:36Z</time>
      </trkpt>
      <trkpt lat="59.131617" lon="18.34787">
        <ele>12.1</ele>
        <time>2014-10-11T12:05:37Z</time>
      </trkpt>
      <trkpt lat="59.131592" lon="18.347751">
        <ele>12.2</ele>
        <time>2014-10-11T12:05:38Z</time>
      </trkpt>
      <trkpt lat="59.131573" lon="18.347632">
        <ele>12.3</ele>
        <time>2014-10-11T12:05:39Z</time>
      </trkpt>
      <trkpt lat="59.131541" lon="18.347505">
        <ele>12.3</ele>
        <time>2014-10-11T12:05:40Z</time>
      </trkpt>
      <trkpt lat="59.131517" lon="18.347393">
        <ele>12.3</ele>
        <time>2014-10-11T12:05:41Z</time>
      </trkpt>
      <trkpt lat="59.131485" lon="18.347262">
        <ele>12.3</ele>
        <time>2014-10-11T12:05:42Z</time>
      </trkpt>
      <trkpt lat="59.131457" lon="18.347144">
        <ele>12.3</ele>
        <time>2014-10-11T12:05:43Z</time>
      </trkpt>
      <trkpt lat="59.131426" lon="18.347043">
        <ele>12.3</ele>
        <time>2014-10-11T12:05:44Z</time>
      </trkpt>
      <trkpt lat="59.131399" lon="18.346924">
        <ele>12.4</ele>
        <time>2014-10-11T12:05:45Z</time>
      </trkpt>
      <trkpt lat="59.131366" lon="18.346809">
        <ele>12.4</ele>
        <time>2014-10-11T12:05:46Z</time>
      </trkpt>
      <trkpt lat="59.131343" lon="18.346703">
        <ele>12.5</ele>
        <time>2014-10-11T12:05:47Z</time>
      </trkpt>
      <trkpt lat="59.131319" lon="18.346586">
        <ele>12.6</ele>
        <time>2014-10-11T12:05:48Z</time>
      </trkpt>
      <trkpt lat="59.131302" lon="18.346473">
        <ele>12.8</ele>
        <time>2014-10-11T12:05:49Z</time>
      </trkpt>
      <trkpt lat="59.131279" lon="18.346361">
        <ele>12.9</ele>
        <time>2014-10-11T12:05:50Z</time>
      </trkpt>
      <trkpt lat="59.131238" lon="18.346251">
        <ele>12.9</ele>
        <time>2014-10-11T12:05:51Z</time>
      </trkpt>
      <trkpt lat="59.13121" lon="18.346133">
        <ele>12.8</ele>
        <time>2014-10-11T12:05:52Z</time>
      </trkpt>
      <trkpt lat="59.131173" lon="18.346011">
        <ele>12.7</ele>
        <time>2014-10-11T12:05:53Z</time>
      </trkpt>
      <trkpt lat="59.131149" lon="18.345885">
        <ele>12.7</ele>
        <time>2014-10-11T12:05:54Z</time>
      </trkpt>
      <trkpt lat="59.13112" lon="18.345774">
        <ele>12.6</ele>
        <time>2014-10-11T12:05:55Z</time>
      </trkpt>
      <trkpt lat="59.131099" lon="18.345677">
        <ele>12.6</ele>
        <time>2014-10-11T12:05:56Z</time>
      </trkpt>
      <trkpt lat="59.131063" lon="18.345544">
        <ele>12.5</ele>
        <time>2014-10-11T12:05:57Z</time>
      </trkpt>
      <trkpt lat="59.131026" lon="18.345442">
        <ele>12.3</ele>
        <time>2014-10-11T12:05:58Z</time>
      </trkpt>
      <trkpt lat="59.130997" lon="18.345337">
        <ele>12.3</ele>
        <time>2014-10-11T12:05:59Z</time>
      </trkpt>
      <trkpt lat="59.130974" lon="18.345221">
        <ele>12.5</ele>
        <time>2014-10-11T12:06:00Z</time>
      </trkpt>
      <trkpt lat="59.130948" lon="18.345107">
        <ele>12.7</ele>
        <time>2014-10-11T12:06:01Z</time>
      </trkpt>
      <trkpt lat="59.130934" lon="18.345051">
        <ele>12.8</ele>
        <time>2014-10-11T12:06:02Z</time>
      </trkpt>
      <trkpt lat="59.13091" lon="18.344954">
        <ele>12.9</ele>
        <time>2014-10-11T12:06:03Z</time>
      </trkpt>
      <trkpt lat="59.13088" lon="18.344853">
        <ele>13</ele>
        <time>2014-10-11T12:06:04Z</time>
      </trkpt>
      <trkpt lat="59.130862" lon="18.344758">
        <ele>13.1</ele>
        <time>2014-10-11T12:06:05Z</time>
      </trkpt>
      <trkpt lat="59.130844" lon="18.344657">
        <ele>13.3</ele>
        <time>2014-10-11T12:06:06Z</time>
      </trkpt>
      <trkpt lat="59.130828" lon="18.34457">
        <ele>13.5</ele>
        <time>2014-10-11T12:06:07Z</time>
      </trkpt>
      <trkpt lat="59.130799" lon="18.344466">
        <ele>13.5</ele>
        <time>2014-10-11T12:06:08Z</time>
      </trkpt>
      <trkpt lat="59.130779" lon="18.34436">
        <ele>13.7</ele>
        <time>2014-10-11T12:06:09Z</time>
      </trkpt>
      <trkpt lat="59.130758" lon="18.344268">
        <ele>13.8</ele>
        <time>2014-10-11T12:06:10Z</time>
      </trkpt>
      <trkpt lat="59.130727" lon="18.34416">
        <ele>13.8</ele>
        <time>2014-10-11T12:06:11Z</time>
      </trkpt>
      <trkpt lat="59.130696" lon="18.344068">
        <ele>13.7</ele>
        <time>2014-10-11T12:06:12Z</time>
      </trkpt>
      <trkpt lat="59.130678" lon="18.343968">
        <ele>13.9</ele>
        <time>2014-10-11T12:06:13Z</time>
      </trkpt>
      <trkpt lat="59.130654" lon="18.343872">
        <ele>13.9</ele>
        <time>2014-10-11T12:06:14Z</time>
      </trkpt>
      <trkpt lat="59.130626" lon="18.343776">
        <ele>13.9</ele>
        <time>2014-10-11T12:06:15Z</time>
      </trkpt>
      <trkpt lat="59.130603" lon="18.343687">
        <ele>14</ele>
        <time>2014-10-11T12:06:16Z</time>
      </trkpt>
      <trkpt lat="59.13057" lon="18.343577">
        <ele>14</ele>
        <time>2014-10-11T12:06:17Z</time>
      </trkpt>
      <trkpt lat="59.130545" lon="18.343481">
        <ele>14.1</ele>
        <time>2014-10-11T12:06:18Z</time>
      </trkpt>
      <trkpt lat="59.130523" lon="18.343377">
        <ele>14.3</ele>
        <time>2014-10-11T12:06:19Z</time>
      </trkpt>
      <trkpt lat="59.130504" lon="18.343308">
        <ele>14.3</ele>
        <time>2014-10-11T12:06:20Z</time>
      </trkpt>
      <trkpt lat="59.130487" lon="18.343226">
        <ele>14.5</ele>
        <time>2014-10-11T12:06:21Z</time>
      </trkpt>
      <trkpt lat="59.130455" lon="18.343125">
        <ele>14.5</ele>
        <time>2014-10-11T12:06:22Z</time>
      </trkpt>
      <trkpt lat="59.130424" lon="18.343038">
        <ele>14.5</ele>
        <time>2014-10-11T12:06:23Z</time>
      </trkpt>
      <trkpt lat="59.130401" lon="18.342961">
        <ele>14.7</ele>
        <time>2014-10-11T12:06:24Z</time>
      </trkpt>
      <trkpt lat="59.130387" lon="18.342885">
        <ele>14.9</ele>
        <time>2014-10-11T12:06:25Z</time>
      </trkpt>
      <trkpt lat="59.130362" lon="18.34279">
        <ele>15</ele>
        <time>2014-10-11T12:06:26Z</time>
      </trkpt>
      <trkpt lat="59.130343" lon="18.34269">
        <ele>15.2</ele>
        <time>2014-10-11T12:06:27Z</time>
      </trkpt>
      <trkpt lat="59.130319" lon="18.342607">
        <ele>15.3</ele>
        <time>2014-10-11T12:06:28Z</time>
      </trkpt>
      <trkpt lat="59.130294" lon="18.342512">
        <ele>15.4</ele>
        <time>2014-10-11T12:06:29Z</time>
      </trkpt>
      <trkpt lat="59.130279" lon="18.342428">
        <ele>15.5</ele>
        <time>2014-10-11T12:06:30Z</time>
      </trkpt>
      <trkpt lat="59.130259" lon="18.342332">
        <ele>15.6</ele>
        <time>2014-10-11T12:06:31Z</time>
      </trkpt>
      <trkpt lat="59.13024" lon="18.342239">
        <ele>15.8</ele>
        <time>2014-10-11T12:06:32Z</time>
      </trkpt>
      <trkpt lat="59.130225" lon="18.342151">
        <ele>15.9</ele>
        <time>2014-10-11T12:06:33Z</time>
      </trkpt>
      <trkpt lat="59.130195" lon="18.34206">
        <ele>16</ele>
        <time>2014-10-11T12:06:34Z</time>
      </trkpt>
      <trkpt lat="59.130175" lon="18.341964">
        <ele>16.3</ele>
        <time>2014-10-11T12:06:35Z</time>
      </trkpt>
      <trkpt lat="59.130153" lon="18.341869">
        <ele>16.5</ele>
        <time>2014-10-11T12:06:36Z</time>
      </trkpt>
      <trkpt lat="59.130123" lon="18.34178">
        <ele>16.6</ele>
        <time>2014-10-11T12:06:37Z</time>
      </trkpt>
      <trkpt lat="59.130086" lon="18.341694">
        <ele>16.7</ele>
        <time>2014-10-11T12:06:38Z</time>
      </trkpt>
      <trkpt lat="59.130064" lon="18.341593">
        <ele>17</ele>
        <time>2014-10-11T12:06:39Z</time>
      </trkpt>
      <trkpt lat="59.130038" lon="18.341482">
        <ele>17.3</ele>
        <time>2014-10-11T12:06:40Z</time>
      </trkpt>
      <trkpt lat="59.130008" lon="18.34138">
        <ele>17.5</ele>
        <time>2014-10-11T12:06:41Z</time>
      </trkpt>
      <trkpt lat="59.129982" lon="18.341285">
        <ele>17.7</ele>
        <time>2014-10-11T12:06:42Z</time>
      </trkpt>
      <trkpt lat="59.129957" lon="18.341192">
        <ele>17.9</ele>
        <time>2014-10-11T12:06:43Z</time>
      </trkpt>
      <trkpt lat="59.129918" lon="18.341086">
        <ele>18</ele>
        <time>2014-10-11T12:06:44Z</time>
      </trkpt>
      <trkpt lat="59.129903" lon="18.340985">
        <ele>18.3</ele>
        <time>2014-10-11T12:06:45Z</time>
      </trkpt>
      <trkpt lat="59.129869" lon="18.340883">
        <ele>18.5</ele>
        <time>2014-10-11T12:06:46Z</time>
      </trkpt>
      <trkpt lat="59.129848" lon="18.340781">
        <ele>18.8</ele>
        <time>2014-10-11T12:06:47Z</time>
      </trkpt>
      <trkpt lat="59.12982" lon="18.340678">
        <ele>19</ele>
        <time>2014-10-11T12:06:48Z</time>
      </trkpt>
      <trkpt lat="59.129804" lon="18.340565">
        <ele>19.4</ele>
        <time>2014-10-11T12:06:49Z</time>
      </trkpt>
      <trkpt lat="59.129789" lon="18.340477">
        <ele>19.7</ele>
        <time>2014-10-11T12:06:50Z</time>
      </trkpt>
      <trkpt lat="59.129765" lon="18.340369">
        <ele>20</ele>
        <time>2014-10-11T12:06:51Z</time>
      </trkpt>
      <trkpt lat="59.129742" lon="18.340274">
        <ele>20.3</ele>
        <time>2014-10-11T12:06:52Z</time>
      </trkpt>
      <trkpt lat="59.129724" lon="18.340169">
        <ele>20.8</ele>
        <time>2014-10-11T12:06:53Z</time>
      </trkpt>
      <trkpt lat="59.129709" lon="18.340064">
        <ele>21.3</ele>
        <time>2014-10-11T12:06:54Z</time>
      </trkpt>
      <trkpt lat="59.129685" lon="18.339961">
        <ele>21.6</ele>
        <time>2014-10-11T12:06:55Z</time>
      </trkpt>
      <trkpt lat="59.129668" lon="18.339861">
        <ele>22.1</ele>
        <time>2014-10-11T12:06:56Z</time>
      </trkpt>
      <trkpt lat="59.129655" lon="18.339765">
        <ele>22.5</ele>
        <time>2014-10-11T12:06:57Z</time>
      </trkpt>
      <trkpt lat="59.129638" lon="18.339672">
        <ele>22.9</ele>
        <time>2014-10-11T12:06:58Z</time>
      </trkpt>
      <trkpt lat="59.129618" lon="18.339564">
        <ele>23.4</ele>
        <time>2014-10-11T12:06:59Z</time>
      </trkpt>
      <trkpt lat="59.129563" lon="18.339454">
        <ele>23.4</ele>
        <time>2014-10-11T12:07:00Z</time>
      </trkpt>
      <trkpt lat="59.129524" lon="18.339325">
        <ele>23.6</ele>
        <time>2014-10-11T12:07:01Z</time>
      </trkpt>
      <trkpt lat="59.129486" lon="18.339201">
        <ele>23.8</ele>
        <time>2014-10-11T12:07:02Z</time>
      </trkpt>
      <trkpt lat="59.129455" lon="18.339084">
        <ele>24.1</ele>
        <time>2014-10-11T12:07:03Z</time>
      </trkpt>
      <trkpt lat="59.129422" lon="18.338962">
        <ele>24.3</ele>
        <time>2014-10-11T12:07:04Z</time>
      </trkpt>
      <trkpt lat="59.129423" lon="18.338882">
        <ele>24.7</ele>
        <time>2014-10-11T12:07:05Z</time>
      </trkpt>
      <trkpt lat="59.129393" lon="18.338759">
        <ele>24.9</ele>
        <time>2014-10-11T12:07:06Z</time>
      </trkpt>
      <trkpt lat="59.129361" lon="18.338613">
        <ele>25</ele>
        <time>2014-10-11T12:07:07Z</time>
      </trkpt>
      <trkpt lat="59.129327" lon="18.338489">
        <ele>24.9</ele>
        <time>2014-10-11T12:07:08Z</time>
      </trkpt>
      <trkpt lat="59.129322" lon="18.338405">
        <ele>25</ele>
        <time>2014-10-11T12:07:09Z</time>
      </trkpt>
      <trkpt lat="59.129303" lon="18.338291">
        <ele>25.1</ele>
        <time>2014-10-11T12:07:10Z</time>
      </trkpt>
      <trkpt lat="59.129265" lon="18.338181">
        <ele>24.8</ele>
        <time>2014-10-11T12:07:11Z</time>
      </trkpt>
      <trkpt lat="59.129233" lon="18.338066">
        <ele>24.6</ele>
        <time>2014-10-11T12:07:12Z</time>
      </trkpt>
      <trkpt lat="59.129205" lon="18.337933">
        <ele>24.5</ele>
        <time>2014-10-11T12:07:13Z</time>
      </trkpt>
      <trkpt lat="59.12917" lon="18.337806">
        <ele>24.2</ele>
        <time>2014-10-11T12:07:14Z</time>
      </trkpt>
      <trkpt lat="59.129156" lon="18.337694">
        <ele>24.1</ele>
        <time>2014-10-11T12:07:15Z</time>
      </trkpt>
      <trkpt lat="59.129136" lon="18.337584">
        <ele>23.9</ele>
        <time>2014-10-11T12:07:16Z</time>
      </trkpt>
      <trkpt lat="59.129118" lon="18.337462">
        <ele>23.8</ele>
        <time>2014-10-11T12:07:17Z</time>
      </trkpt>
      <trkpt lat="59.129102" lon="18.33737">
        <ele>23.6</ele>
        <time>2014-10-11T12:07:18Z</time>
      </trkpt>
      <trkpt lat="59.129078" lon="18.337258">
        <ele>23.3</ele>
        <time>2014-10-11T12:07:19Z</time>
      </trkpt>
      <trkpt lat="59.129045" lon="18.337132">
        <ele>22.9</ele>
        <time>2014-10-11T12:07:20Z</time>
      </trkpt>
      <trkpt lat="59.129006" lon="18.33701">
        <ele>22.5</ele>
        <time>2014-10-11T12:07:21Z</time>
      </trkpt>
      <trkpt lat="59.128988" lon="18.336901">
        <ele>22.6</ele>
        <time>2014-10-11T12:07:22Z</time>
      </trkpt>
      <trkpt lat="59.128963" lon="18.33679">
        <ele>22.5</ele>
        <time>2014-10-11T12:07:23Z</time>
      </trkpt>
      <trkpt lat="59.128929" lon="18.336647">
        <ele>22.5</ele>
        <time>2014-10-11T12:07:24Z</time>
      </trkpt>
      <trkpt lat="59.128915" lon="18.336525">
        <ele>22.6</ele>
        <time>2014-10-11T12:07:25Z</time>
      </trkpt>
      <trkpt lat="59.128882" lon="18.336405">
        <ele>22.5</ele>
        <time>2014-10-11T12:07:26Z</time>
      </trkpt>
      <trkpt lat="59.128859" lon="18.336293">
        <ele>22.6</ele>
        <time>2014-10-11T12:07:27Z</time>
      </trkpt>
      <trkpt lat="59.128858" lon="18.336217">
        <ele>22.8</ele>
        <time>2014-10-11T12:07:28Z</time>
      </trkpt>
      <trkpt lat="59.128841" lon="18.336113">
        <ele>22.7</ele>
        <time>2014-10-11T12:07:29Z</time>
      </trkpt>
      <trkpt lat="59.128792" lon="18.335971">
        <ele>22.3</ele>
        <time>2014-10-11T12:07:30Z</time>
      </trkpt>
      <trkpt lat="59.128754" lon="18.335832">
        <ele>22.1</ele>
        <time>2014-10-11T12:07:31Z</time>
      </trkpt>
      <trkpt lat="59.128722" lon="18.335712">
        <ele>22</ele>
        <time>2014-10-11T12:07:32Z</time>
      </trkpt>
      <trkpt lat="59.128701" lon="18.335585">
        <ele>22.1</ele>
        <time>2014-10-11T12:07:33Z</time>
      </trkpt>
      <trkpt lat="59.128669" lon="18.335456">
        <ele>22</ele>
        <time>2014-10-11T12:07:34Z</time>
      </trkpt>
      <trkpt lat="59.128642" lon="18.335345">
        <ele>22.1</ele>
        <time>2014-10-11T12:07:35Z</time>
      </trkpt>
      <trkpt lat="59.128647" lon="18.335256">
        <ele>22.5</ele>
        <time>2014-10-11T12:07:36Z</time>
      </trkpt>
      <trkpt lat="59.12862" lon="18.335139">
        <ele>22.6</ele>
        <time>2014-10-11T12:07:37Z</time>
      </trkpt>
      <trkpt lat="59.128599" lon="18.33504">
        <ele>22.7</ele>
        <time>2014-10-11T12:07:38Z</time>
      </trkpt>
      <trkpt lat="59.128575" lon="18.334929">
        <ele>22.9</ele>
        <time>2014-10-11T12:07:39Z</time>
      </trkpt>
      <trkpt lat="59.128541" lon="18.334807">
        <ele>22.9</ele>
        <time>2014-10-11T12:07:40Z</time>
      </trkpt>
      <trkpt lat="59.128505" lon="18.334687">
        <ele>23</ele>
        <time>2014-10-11T12:07:41Z</time>
      </trkpt>
      <trkpt lat="59.128471" lon="18.334552">
        <ele>23.1</ele>
        <time>2014-10-11T12:07:42Z</time>
      </trkpt>
      <trkpt lat="59.128443" lon="18.334441">
        <ele>23.1</ele>
        <time>2014-10-11T12:07:43Z</time>
      </trkpt>
      <trkpt lat="59.128402" lon="18.334303">
        <ele>23.1</ele>
        <time>2014-10-11T12:07:44Z</time>
      </trkpt>
      <trkpt lat="59.128375" lon="18.334192">
        <ele>23.1</ele>
        <time>2014-10-11T12:07:45Z</time>
      </trkpt>
      <trkpt lat="59.128352" lon="18.334084">
        <ele>23.2</ele>
        <time>2014-10-11T12:07:46Z</time>
      </trkpt>
      <trkpt lat="59.128319" lon="18.333957">
        <ele>23.2</ele>
        <time>2014-10-11T12:07:47Z</time>
      </trkpt>
      <trkpt lat="59.128192" lon="18.333487">
        <ele>23.5</ele>
        <time>2014-10-11T12:07:51Z</time>
      </trkpt>
      <trkpt lat="59.128202" lon="18.333381">
        <ele>23.9</ele>
        <time>2014-10-11T12:07:52Z</time>
      </trkpt>
      <trkpt lat="59.12818" lon="18.333269">
        <ele>24</ele>
        <time>2014-10-11T12:07:53Z</time>
      </trkpt>
      <trkpt lat="59.128145" lon="18.33316">
        <ele>24</ele>
        <time>2014-10-11T12:07:54Z</time>
      </trkpt>
      <trkpt lat="59.128098" lon="18.333088">
        <ele>23.7</ele>
        <time>2014-10-11T12:07:55Z</time>
      </trkpt>
      <trkpt lat="59.128068" lon="18.332979">
        <ele>23.6</ele>
        <time>2014-10-11T12:07:56Z</time>
      </trkpt>
      <trkpt lat="59.128036" lon="18.332849">
        <ele>23.6</ele>
        <time>2014-10-11T12:07:57Z</time>
      </trkpt>
      <trkpt lat="59.12801" lon="18.33274">
        <ele>23.6</ele>
        <time>2014-10-11T12:07:58Z</time>
      </trkpt>
      <trkpt lat="59.127988" lon="18.332626">
        <ele>23.6</ele>
        <time>2014-10-11T12:07:59Z</time>
      </trkpt>
      <trkpt lat="59.127961" lon="18.332513">
        <ele>23.5</ele>
        <time>2014-10-11T12:08:00Z</time>
      </trkpt>
      <trkpt lat="59.127947" lon="18.332392">
        <ele>23.6</ele>
        <time>2014-10-11T12:08:01Z</time>
      </trkpt>
      <trkpt lat="59.127899" lon="18.332264">
        <ele>23.4</ele>
        <time>2014-10-11T12:08:02Z</time>
      </trkpt>
      <trkpt lat="59.127868" lon="18.33215">
        <ele>23.3</ele>
        <time>2014-10-11T12:08:03Z</time>
      </trkpt>
      <trkpt lat="59.127835" lon="18.332007">
        <ele>23.4</ele>
        <time>2014-10-11T12:08:04Z</time>
      </trkpt>
      <trkpt lat="59.127813" lon="18.331881">
        <ele>23.5</ele>
        <time>2014-10-11T12:08:05Z</time>
      </trkpt>
      <trkpt lat="59.127794" lon="18.331772">
        <ele>23.6</ele>
        <time>2014-10-11T12:08:06Z</time>
      </trkpt>
      <trkpt lat="59.127757" lon="18.331671">
        <ele>23.5</ele>
        <time>2014-10-11T12:08:07Z</time>
      </trkpt>
      <trkpt lat="59.127727" lon="18.331548">
        <ele>23.4</ele>
        <time>2014-10-11T12:08:08Z</time>
      </trkpt>
      <trkpt lat="59.127701" lon="18.331429">
        <ele>23.4</ele>
        <time>2014-10-11T12:08:09Z</time>
      </trkpt>
      <trkpt lat="59.127657" lon="18.331294">
        <ele>23.2</ele>
        <time>2014-10-11T12:08:10Z</time>
      </trkpt>
      <trkpt lat="59.127629" lon="18.331175">
        <ele>23</ele>
        <time>2014-10-11T12:08:11Z</time>
      </trkpt>
      <trkpt lat="59.127599" lon="18.331055">
        <ele>22.7</ele>
        <time>2014-10-11T12:08:12Z</time>
      </trkpt>
      <trkpt lat="59.127563" lon="18.330931">
        <ele>22.3</ele>
        <time>2014-10-11T12:08:13Z</time>
      </trkpt>
      <trkpt lat="59.12753" lon="18.330801">
        <ele>22</ele>
        <time>2014-10-11T12:08:14Z</time>
      </trkpt>
      <trkpt lat="59.127511" lon="18.330695">
        <ele>21.8</ele>
        <time>2014-10-11T12:08:15Z</time>
      </trkpt>
      <trkpt lat="59.127481" lon="18.330563">
        <ele>21.5</ele>
        <time>2014-10-11T12:08:16Z</time>
      </trkpt>
      <trkpt lat="59.127453" lon="18.330438">
        <ele>21.2</ele>
        <time>2014-10-11T12:08:17Z</time>
      </trkpt>
      <trkpt lat="59.127419" lon="18.330347">
        <ele>20.7</ele>
        <time>2014-10-11T12:08:18Z</time>
      </trkpt>
      <trkpt lat="59.127377" lon="18.330219">
        <ele>20.2</ele>
        <time>2014-10-11T12:08:19Z</time>
      </trkpt>
      <trkpt lat="59.127354" lon="18.330112">
        <ele>19.9</ele>
        <time>2014-10-11T12:08:20Z</time>
      </trkpt>
      <trkpt lat="59.127322" lon="18.329992">
        <ele>19.5</ele>
        <time>2014-10-11T12:08:21Z</time>
      </trkpt>
      <trkpt lat="59.1273" lon="18.329875">
        <ele>19.3</ele>
        <time>2014-10-11T12:08:22Z</time>
      </trkpt>
      <trkpt lat="59.127273" lon="18.329765">
        <ele>19</ele>
        <time>2014-10-11T12:08:23Z</time>
      </trkpt>
      <trkpt lat="59.127231" lon="18.329633">
        <ele>18.4</ele>
        <time>2014-10-11T12:08:24Z</time>
      </trkpt>
      <trkpt lat="59.127205" lon="18.329486">
        <ele>18</ele>
        <time>2014-10-11T12:08:25Z</time>
      </trkpt>
      <trkpt lat="59.127182" lon="18.329347">
        <ele>17.7</ele>
        <time>2014-10-11T12:08:26Z</time>
      </trkpt>
      <trkpt lat="59.127154" lon="18.329206">
        <ele>17.2</ele>
        <time>2014-10-11T12:08:27Z</time>
      </trkpt>
      <trkpt lat="59.127104" lon="18.329043">
        <ele>16.3</ele>
        <time>2014-10-11T12:08:28Z</time>
      </trkpt>
      <trkpt lat="59.12707" lon="18.328921">
        <ele>15.9</ele>
        <time>2014-10-11T12:08:29Z</time>
      </trkpt>
      <trkpt lat="59.127034" lon="18.328763">
        <ele>15.5</ele>
        <time>2014-10-11T12:08:30Z</time>
      </trkpt>
      <trkpt lat="59.127006" lon="18.328646">
        <ele>15.1</ele>
        <time>2014-10-11T12:08:31Z</time>
      </trkpt>
      <trkpt lat="59.12696" lon="18.328491">
        <ele>14.4</ele>
        <time>2014-10-11T12:08:32Z</time>
      </trkpt>
      <trkpt lat="59.126926" lon="18.328343">
        <ele>13.9</ele>
        <time>2014-10-11T12:08:33Z</time>
      </trkpt>
      <trkpt lat="59.126896" lon="18.328193">
        <ele>13.5</ele>
        <time>2014-10-11T12:08:34Z</time>
      </trkpt>
      <trkpt lat="59.12686" lon="18.328027">
        <ele>13</ele>
        <time>2014-10-11T12:08:35Z</time>
      </trkpt>
      <trkpt lat="59.126825" lon="18.327873">
        <ele>12.5</ele>
        <time>2014-10-11T12:08:36Z</time>
      </trkpt>
      <trkpt lat="59.126772" lon="18.327658">
        <ele>12</ele>
        <time>2014-10-11T12:08:37Z</time>
      </trkpt>
      <trkpt lat="59.126728" lon="18.327476">
        <ele>11.6</ele>
        <time>2014-10-11T12:08:38Z</time>
      </trkpt>
      <trkpt lat="59.12668" lon="18.327288">
        <ele>11.1</ele>
        <time>2014-10-11T12:08:39Z</time>
      </trkpt>
      <trkpt lat="59.126635" lon="18.327088">
        <ele>10.7</ele>
        <time>2014-10-11T12:08:40Z</time>
      </trkpt>
      <trkpt lat="59.126613" lon="18.326937">
        <ele>10.9</ele>
        <time>2014-10-11T12:08:41Z</time>
      </trkpt>
      <trkpt lat="59.126582" lon="18.326757">
        <ele>11.1</ele>
        <time>2014-10-11T12:08:42Z</time>
      </trkpt>
      <trkpt lat="59.126538" lon="18.326567">
        <ele>11.2</ele>
        <time>2014-10-11T12:08:43Z</time>
      </trkpt>
      <trkpt lat="59.126499" lon="18.326383">
        <ele>11.3</ele>
        <time>2014-10-11T12:08:44Z</time>
      </trkpt>
      <trkpt lat="59.126463" lon="18.326213">
        <ele>11.4</ele>
        <time>2014-10-11T12:08:45Z</time>
      </trkpt>
      <trkpt lat="59.126423" lon="18.32605">
        <ele>11.4</ele>
        <time>2014-10-11T12:08:46Z</time>
      </trkpt>
      <trkpt lat="59.126381" lon="18.325888">
        <ele>11.4</ele>
        <time>2014-10-11T12:08:47Z</time>
      </trkpt>
      <trkpt lat="59.126343" lon="18.325724">
        <ele>11.3</ele>
        <time>2014-10-11T12:08:48Z</time>
      </trkpt>
      <trkpt lat="59.126303" lon="18.32555">
        <ele>11.3</ele>
        <time>2014-10-11T12:08:49Z</time>
      </trkpt>
      <trkpt lat="59.126282" lon="18.325412">
        <ele>11.4</ele>
        <time>2014-10-11T12:08:50Z</time>
      </trkpt>
      <trkpt lat="59.126251" lon="18.325254">
        <ele>11.4</ele>
        <time>2014-10-11T12:08:51Z</time>
      </trkpt>
      <trkpt lat="59.126219" lon="18.325064">
        <ele>11.8</ele>
        <time>2014-10-11T12:08:52Z</time>
      </trkpt>
      <trkpt lat="59.126187" lon="18.32489">
        <ele>12</ele>
        <time>2014-10-11T12:08:53Z</time>
      </trkpt>
      <trkpt lat="59.126165" lon="18.324723">
        <ele>12.2</ele>
        <time>2014-10-11T12:08:54Z</time>
      </trkpt>
      <trkpt lat="59.126151" lon="18.324592">
        <ele>12.4</ele>
        <time>2014-10-11T12:08:55Z</time>
      </trkpt>
      <trkpt lat="59.12612" lon="18.32442">
        <ele>12.3</ele>
        <time>2014-10-11T12:08:56Z</time>
      </trkpt>
      <trkpt lat="59.126094" lon="18.324248">
        <ele>12.2</ele>
        <time>2014-10-11T12:08:57Z</time>
      </trkpt>
      <trkpt lat="59.12607" lon="18.324089">
        <ele>12.1</ele>
        <time>2014-10-11T12:08:58Z</time>
      </trkpt>
      <trkpt lat="59.126044" lon="18.323919">
        <ele>12</ele>
        <time>2014-10-11T12:08:59Z</time>
      </trkpt>
      <trkpt lat="59.12603" lon="18.323778">
        <ele>11.9</ele>
        <time>2014-10-11T12:09:00Z</time>
      </trkpt>
      <trkpt lat="59.126027" lon="18.32363">
        <ele>11.9</ele>
        <time>2014-10-11T12:09:01Z</time>
      </trkpt>
      <trkpt lat="59.126002" lon="18.323478">
        <ele>11.8</ele>
        <time>2014-10-11T12:09:02Z</time>
      </trkpt>
      <trkpt lat="59.125982" lon="18.323307">
        <ele>11.6</ele>
        <time>2014-10-11T12:09:03Z</time>
      </trkpt>
      <trkpt lat="59.125948" lon="18.323131">
        <ele>11.3</ele>
        <time>2014-10-11T12:09:04Z</time>
      </trkpt>
      <trkpt lat="59.125926" lon="18.322966">
        <ele>11.1</ele>
        <time>2014-10-11T12:09:05Z</time>
      </trkpt>
      <trkpt lat="59.125917" lon="18.322806">
        <ele>11</ele>
        <time>2014-10-11T12:09:06Z</time>
      </trkpt>
      <trkpt lat="59.125896" lon="18.32264">
        <ele>10.8</ele>
        <time>2014-10-11T12:09:07Z</time>
      </trkpt>
      <trkpt lat="59.125881" lon="18.32249">
        <ele>10.6</ele>
        <time>2014-10-11T12:09:08Z</time>
      </trkpt>
      <trkpt lat="59.125853" lon="18.322306">
        <ele>10.2</ele>
        <time>2014-10-11T12:09:09Z</time>
      </trkpt>
      <trkpt lat="59.125825" lon="18.322127">
        <ele>9.9</ele>
        <time>2014-10-11T12:09:10Z</time>
      </trkpt>
      <trkpt lat="59.125805" lon="18.321965">
        <ele>9.8</ele>
        <time>2014-10-11T12:09:11Z</time>
      </trkpt>
      <trkpt lat="59.12579" lon="18.321819">
        <ele>9.8</ele>
        <time>2014-10-11T12:09:12Z</time>
      </trkpt>
      <trkpt lat="59.125777" lon="18.321688">
        <ele>9.8</ele>
        <time>2014-10-11T12:09:13Z</time>
      </trkpt>
      <trkpt lat="59.12575" lon="18.32151">
        <ele>9.7</ele>
        <time>2014-10-11T12:09:14Z</time>
      </trkpt>
      <trkpt lat="59.125731" lon="18.321373">
        <ele>9.6</ele>
        <time>2014-10-11T12:09:15Z</time>
      </trkpt>
      <trkpt lat="59.125725" lon="18.321233">
        <ele>9.7</ele>
        <time>2014-10-11T12:09:16Z</time>
      </trkpt>
      <trkpt lat="59.125713" lon="18.321088">
        <ele>9.8</ele>
        <time>2014-10-11T12:09:17Z</time>
      </trkpt>
      <trkpt lat="59.125703" lon="18.320937">
        <ele>9.8</ele>
        <time>2014-10-11T12:09:18Z</time>
      </trkpt>
      <trkpt lat="59.125692" lon="18.320805">
        <ele>9.8</ele>
        <time>2014-10-11T12:09:19Z</time>
      </trkpt>
      <trkpt lat="59.125682" lon="18.320658">
        <ele>9.9</ele>
        <time>2014-10-11T12:09:20Z</time>
      </trkpt>
      <trkpt lat="59.125656" lon="18.320529">
        <ele>9.7</ele>
        <time>2014-10-11T12:09:21Z</time>
      </trkpt>
      <trkpt lat="59.125654" lon="18.320391">
        <ele>9.9</ele>
        <time>2014-10-11T12:09:22Z</time>
      </trkpt>
      <trkpt lat="59.125647" lon="18.320256">
        <ele>10.1</ele>
        <time>2014-10-11T12:09:23Z</time>
      </trkpt>
      <trkpt lat="59.125622" lon="18.320124">
        <ele>10.1</ele>
        <time>2014-10-11T12:09:24Z</time>
      </trkpt>
      <trkpt lat="59.125626" lon="18.319983">
        <ele>10.4</ele>
        <time>2014-10-11T12:09:25Z</time>
      </trkpt>
      <trkpt lat="59.125607" lon="18.319862">
        <ele>10.5</ele>
        <time>2014-10-11T12:09:26Z</time>
      </trkpt>
      <trkpt lat="59.1256" lon="18.31972">
        <ele>10.7</ele>
        <time>2014-10-11T12:09:27Z</time>
      </trkpt>
      <trkpt lat="59.125611" lon="18.3196">
        <ele>11.1</ele>
        <time>2014-10-11T12:09:28Z</time>
      </trkpt>
      <trkpt lat="59.125585" lon="18.31945">
        <ele>11.1</ele>
        <time>2014-10-11T12:09:29Z</time>
      </trkpt>
      <trkpt lat="59.12558" lon="18.319332">
        <ele>11.3</ele>
        <time>2014-10-11T12:09:30Z</time>
      </trkpt>
      <trkpt lat="59.125586" lon="18.319225">
        <ele>11.6</ele>
        <time>2014-10-11T12:09:31Z</time>
      </trkpt>
      <trkpt lat="59.125571" lon="18.319103">
        <ele>11.7</ele>
        <time>2014-10-11T12:09:32Z</time>
      </trkpt>
      <trkpt lat="59.125542" lon="18.318959">
        <ele>11.7</ele>
        <time>2014-10-11T12:09:33Z</time>
      </trkpt>
      <trkpt lat="59.125536" lon="18.318855">
        <ele>11.9</ele>
        <time>2014-10-11T12:09:34Z</time>
      </trkpt>
      <trkpt lat="59.125528" lon="18.318742">
        <ele>12.1</ele>
        <time>2014-10-11T12:09:35Z</time>
      </trkpt>
      <trkpt lat="59.125527" lon="18.318632">
        <ele>12.5</ele>
        <time>2014-10-11T12:09:36Z</time>
      </trkpt>
      <trkpt lat="59.12552" lon="18.31853">
        <ele>12.8</ele>
        <time>2014-10-11T12:09:37Z</time>
      </trkpt>
      <trkpt lat="59.125512" lon="18.318438">
        <ele>13</ele>
        <time>2014-10-11T12:09:38Z</time>
      </trkpt>
      <trkpt lat="59.125494" lon="18.318323">
        <ele>13.2</ele>
        <time>2014-10-11T12:09:39Z</time>
      </trkpt>
      <trkpt lat="59.125479" lon="18.318226">
        <ele>13.4</ele>
        <time>2014-10-11T12:09:40Z</time>
      </trkpt>
      <trkpt lat="59.125465" lon="18.318112">
        <ele>13.7</ele>
        <time>2014-10-11T12:09:41Z</time>
      </trkpt>
      <trkpt lat="59.125435" lon="18.317999">
        <ele>13.9</ele>
        <time>2014-10-11T12:09:42Z</time>
      </trkpt>
      <trkpt lat="59.12543" lon="18.317911">
        <ele>14.1</ele>
        <time>2014-10-11T12:09:43Z</time>
      </trkpt>
      <trkpt lat="59.125406" lon="18.317825">
        <ele>14.3</ele>
        <time>2014-10-11T12:09:44Z</time>
      </trkpt>
      <trkpt lat="59.125393" lon="18.31772">
        <ele>14.5</ele>
        <time>2014-10-11T12:09:45Z</time>
      </trkpt>
      <trkpt lat="59.125395" lon="18.317596">
        <ele>15</ele>
        <time>2014-10-11T12:09:46Z</time>
      </trkpt>
      <trkpt lat="59.12539" lon="18.317465">
        <ele>15.4</ele>
        <time>2014-10-11T12:09:47Z</time>
      </trkpt>
      <trkpt lat="59.125377" lon="18.317349">
        <ele>15.7</ele>
        <time>2014-10-11T12:09:48Z</time>
      </trkpt>
      <trkpt lat="59.125359" lon="18.317216">
        <ele>16</ele>
        <time>2014-10-11T12:09:49Z</time>
      </trkpt>
      <trkpt lat="59.125367" lon="18.317118">
        <ele>16.4</ele>
        <time>2014-10-11T12:09:50Z</time>
      </trkpt>
      <trkpt lat="59.12536" lon="18.317014">
        <ele>16.5</ele>
        <time>2014-10-11T12:09:51Z</time>
      </trkpt>
      <trkpt lat="59.125336" lon="18.316887">
        <ele>16.3</ele>
        <time>2014-10-11T12:09:52Z</time>
      </trkpt>
      <trkpt lat="59.125326" lon="18.316784">
        <ele>16.2</ele>
        <time>2014-10-11T12:09:53Z</time>
      </trkpt>
      <trkpt lat="59.125312" lon="18.316689">
        <ele>16.1</ele>
        <time>2014-10-11T12:09:54Z</time>
      </trkpt>
      <trkpt lat="59.1253" lon="18.31656">
        <ele>16.1</ele>
        <time>2014-10-11T12:09:55Z</time>
      </trkpt>
      <trkpt lat="59.125291" lon="18.316454">
        <ele>16</ele>
        <time>2014-10-11T12:09:56Z</time>
      </trkpt>
      <trkpt lat="59.125273" lon="18.316329">
        <ele>15.9</ele>
        <time>2014-10-11T12:09:57Z</time>
      </trkpt>
      <trkpt lat="59.125256" lon="18.31621">
        <ele>15.9</ele>
        <time>2014-10-11T12:09:58Z</time>
      </trkpt>
      <trkpt lat="59.12525" lon="18.316117">
        <ele>15.9</ele>
        <time>2014-10-11T12:09:59Z</time>
      </trkpt>
      <trkpt lat="59.125244" lon="18.316006">
        <ele>15.9</ele>
        <time>2014-10-11T12:10:00Z</time>
      </trkpt>
      <trkpt lat="59.125235" lon="18.31589">
        <ele>15.9</ele>
        <time>2014-10-11T12:10:01Z</time>
      </trkpt>
      <trkpt lat="59.125228" lon="18.315784">
        <ele>15.9</ele>
        <time>2014-10-11T12:10:02Z</time>
      </trkpt>
      <trkpt lat="59.125229" lon="18.315669">
        <ele>16</ele>
        <time>2014-10-11T12:10:03Z</time>
      </trkpt>
      <trkpt lat="59.125234" lon="18.31556">
        <ele>16</ele>
        <time>2014-10-11T12:10:04Z</time>
      </trkpt>
      <trkpt lat="59.125233" lon="18.315469">
        <ele>16.1</ele>
        <time>2014-10-11T12:10:05Z</time>
      </trkpt>
      <trkpt lat="59.125208" lon="18.315345">
        <ele>16.5</ele>
        <time>2014-10-11T12:10:06Z</time>
      </trkpt>
      <trkpt lat="59.125201" lon="18.315261">
        <ele>17.1</ele>
        <time>2014-10-11T12:10:07Z</time>
      </trkpt>
      <trkpt lat="59.1252" lon="18.315176">
        <ele>17.8</ele>
        <time>2014-10-11T12:10:08Z</time>
      </trkpt>
      <trkpt lat="59.125193" lon="18.315058">
        <ele>18.6</ele>
        <time>2014-10-11T12:10:09Z</time>
      </trkpt>
      <trkpt lat="59.125179" lon="18.314973">
        <ele>19.2</ele>
        <time>2014-10-11T12:10:10Z</time>
      </trkpt>
      <trkpt lat="59.125174" lon="18.314893">
        <ele>19.8</ele>
        <time>2014-10-11T12:10:11Z</time>
      </trkpt>
      <trkpt lat="59.125172" lon="18.314814">
        <ele>20.4</ele>
        <time>2014-10-11T12:10:12Z</time>
      </trkpt>
      <trkpt lat="59.125165" lon="18.314717">
        <ele>21.1</ele>
        <time>2014-10-11T12:10:13Z</time>
      </trkpt>
      <trkpt lat="59.125167" lon="18.314637">
        <ele>21.7</ele>
        <time>2014-10-11T12:10:14Z</time>
      </trkpt>
      <trkpt lat="59.125167" lon="18.314554">
        <ele>22.3</ele>
        <time>2014-10-11T12:10:15Z</time>
      </trkpt>
      <trkpt lat="59.125166" lon="18.314485">
        <ele>22.7</ele>
        <time>2014-10-11T12:10:16Z</time>
      </trkpt>
      <trkpt lat="59.125157" lon="18.314393">
        <ele>23.3</ele>
        <time>2014-10-11T12:10:17Z</time>
      </trkpt>
      <trkpt lat="59.125149" lon="18.314319">
        <ele>23.7</ele>
        <time>2014-10-11T12:10:18Z</time>
      </trkpt>
      <trkpt lat="59.125145" lon="18.314239">
        <ele>24.2</ele>
        <time>2014-10-11T12:10:19Z</time>
      </trkpt>
      <trkpt lat="59.125138" lon="18.314153">
        <ele>24.8</ele>
        <time>2014-10-11T12:10:20Z</time>
      </trkpt>
      <trkpt lat="59.125126" lon="18.314083">
        <ele>25.2</ele>
        <time>2014-10-11T12:10:21Z</time>
      </trkpt>
      <trkpt lat="59.125116" lon="18.314005">
        <ele>25.6</ele>
        <time>2014-10-11T12:10:22Z</time>
      </trkpt>
      <trkpt lat="59.125107" lon="18.313934">
        <ele>26.1</ele>
        <time>2014-10-11T12:10:23Z</time>
      </trkpt>
      <trkpt lat="59.125095" lon="18.313851">
        <ele>26.6</ele>
        <time>2014-10-11T12:10:24Z</time>
      </trkpt>
      <trkpt lat="59.125057" lon="18.313745">
        <ele>27.2</ele>
        <time>2014-10-11T12:10:25Z</time>
      </trkpt>
      <trkpt lat="59.125045" lon="18.313661">
        <ele>27.4</ele>
        <time>2014-10-11T12:10:26Z</time>
      </trkpt>
      <trkpt lat="59.125039" lon="18.313569">
        <ele>27.6</ele>
        <time>2014-10-11T12:10:27Z</time>
      </trkpt>
      <trkpt lat="59.125039" lon="18.313502">
        <ele>27.8</ele>
        <time>2014-10-11T12:10:28Z</time>
      </trkpt>
      <trkpt lat="59.125024" lon="18.313431">
        <ele>28</ele>
        <time>2014-10-11T12:10:29Z</time>
      </trkpt>
      <trkpt lat="59.125011" lon="18.313345">
        <ele>28.2</ele>
        <time>2014-10-11T12:10:30Z</time>
      </trkpt>
      <trkpt lat="59.124987" lon="18.313247">
        <ele>28.5</ele>
        <time>2014-10-11T12:10:31Z</time>
      </trkpt>
      <trkpt lat="59.12498" lon="18.313165">
        <ele>28.7</ele>
        <time>2014-10-11T12:10:32Z</time>
      </trkpt>
      <trkpt lat="59.12497" lon="18.313073">
        <ele>29</ele>
        <time>2014-10-11T12:10:33Z</time>
      </trkpt>
      <trkpt lat="59.12497" lon="18.312985">
        <ele>29.3</ele>
        <time>2014-10-11T12:10:34Z</time>
      </trkpt>
      <trkpt lat="59.124977" lon="18.312893">
        <ele>29.5</ele>
        <time>2014-10-11T12:10:35Z</time>
      </trkpt>
      <trkpt lat="59.124966" lon="18.312803">
        <ele>29.7</ele>
        <time>2014-10-11T12:10:36Z</time>
      </trkpt>
      <trkpt lat="59.12497" lon="18.312725">
        <ele>29.9</ele>
        <time>2014-10-11T12:10:37Z</time>
      </trkpt>
      <trkpt lat="59.124952" lon="18.312625">
        <ele>30.1</ele>
        <time>2014-10-11T12:10:38Z</time>
      </trkpt>
      <trkpt lat="59.124942" lon="18.312557">
        <ele>30.3</ele>
        <time>2014-10-11T12:10:39Z</time>
      </trkpt>
      <trkpt lat="59.124929" lon="18.312463">
        <ele>30.5</ele>
        <time>2014-10-11T12:10:40Z</time>
      </trkpt>
      <trkpt lat="59.12492" lon="18.312393">
        <ele>30.7</ele>
        <time>2014-10-11T12:10:41Z</time>
      </trkpt>
      <trkpt lat="59.12491" lon="18.312314">
        <ele>30.8</ele>
        <time>2014-10-11T12:10:42Z</time>
      </trkpt>
      <trkpt lat="59.124907" lon="18.312225">
        <ele>31</ele>
        <time>2014-10-11T12:10:43Z</time>
      </trkpt>
      <trkpt lat="59.124897" lon="18.312147">
        <ele>31.2</ele>
        <time>2014-10-11T12:10:44Z</time>
      </trkpt>
      <trkpt lat="59.124889" lon="18.312046">
        <ele>31.4</ele>
        <time>2014-10-11T12:10:45Z</time>
      </trkpt>
      <trkpt lat="59.124892" lon="18.311945">
        <ele>31.4</ele>
        <time>2014-10-11T12:10:46Z</time>
      </trkpt>
      <trkpt lat="59.124899" lon="18.311866">
        <ele>31.4</ele>
        <time>2014-10-11T12:10:47Z</time>
      </trkpt>
      <trkpt lat="59.124894" lon="18.311775">
        <ele>31.4</ele>
        <time>2014-10-11T12:10:48Z</time>
      </trkpt>
      <trkpt lat="59.124888" lon="18.31168">
        <ele>31.4</ele>
        <time>2014-10-11T12:10:49Z</time>
      </trkpt>
      <trkpt lat="59.124871" lon="18.311589">
        <ele>31.4</ele>
        <time>2014-10-11T12:10:50Z</time>
      </trkpt>
      <trkpt lat="59.124871" lon="18.311509">
        <ele>31.4</ele>
        <time>2014-10-11T12:10:51Z</time>
      </trkpt>
      <trkpt lat="59.124858" lon="18.311406">
        <ele>31.3</ele>
        <time>2014-10-11T12:10:52Z</time>
      </trkpt>
      <trkpt lat="59.124847" lon="18.311313">
        <ele>31.3</ele>
        <time>2014-10-11T12:10:53Z</time>
      </trkpt>
      <trkpt lat="59.124823" lon="18.311202">
        <ele>31.2</ele>
        <time>2014-10-11T12:10:54Z</time>
      </trkpt>
      <trkpt lat="59.124805" lon="18.3111">
        <ele>31.2</ele>
        <time>2014-10-11T12:10:55Z</time>
      </trkpt>
      <trkpt lat="59.124793" lon="18.310989">
        <ele>31.2</ele>
        <time>2014-10-11T12:10:56Z</time>
      </trkpt>
      <trkpt lat="59.124777" lon="18.310874">
        <ele>31.1</ele>
        <time>2014-10-11T12:10:57Z</time>
      </trkpt>
      <trkpt lat="59.124747" lon="18.310743">
        <ele>31</ele>
        <time>2014-10-11T12:10:58Z</time>
      </trkpt>
      <trkpt lat="59.12471" lon="18.310603">
        <ele>30.8</ele>
        <time>2014-10-11T12:10:59Z</time>
      </trkpt>
      <trkpt lat="59.124672" lon="18.310486">
        <ele>30.6</ele>
        <time>2014-10-11T12:11:00Z</time>
      </trkpt>
      <trkpt lat="59.124637" lon="18.310342">
        <ele>30.6</ele>
        <time>2014-10-11T12:11:01Z</time>
      </trkpt>
      <trkpt lat="59.124604" lon="18.310214">
        <ele>30.6</ele>
        <time>2014-10-11T12:11:02Z</time>
      </trkpt>
      <trkpt lat="59.124568" lon="18.310096">
        <ele>30.6</ele>
        <time>2014-10-11T12:11:03Z</time>
      </trkpt>
      <trkpt lat="59.124529" lon="18.309971">
        <ele>30.5</ele>
        <time>2014-10-11T12:11:04Z</time>
      </trkpt>
      <trkpt lat="59.124528" lon="18.309868">
        <ele>30.7</ele>
        <time>2014-10-11T12:11:05Z</time>
      </trkpt>
      <trkpt lat="59.124508" lon="18.309802">
        <ele>30.7</ele>
        <time>2014-10-11T12:11:06Z</time>
      </trkpt>
      <trkpt lat="59.124466" lon="18.309678">
        <ele>30.4</ele>
        <time>2014-10-11T12:11:07Z</time>
      </trkpt>
      <trkpt lat="59.124429" lon="18.309567">
        <ele>30.2</ele>
        <time>2014-10-11T12:11:08Z</time>
      </trkpt>
      <trkpt lat="59.124377" lon="18.309463">
        <ele>29.7</ele>
        <time>2014-10-11T12:11:09Z</time>
      </trkpt>
      <trkpt lat="59.124326" lon="18.309354">
        <ele>29.1</ele>
        <time>2014-10-11T12:11:10Z</time>
      </trkpt>
      <trkpt lat="59.124268" lon="18.309252">
        <ele>28.4</ele>
        <time>2014-10-11T12:11:11Z</time>
      </trkpt>
      <trkpt lat="59.124223" lon="18.309125">
        <ele>27.8</ele>
        <time>2014-10-11T12:11:12Z</time>
      </trkpt>
      <trkpt lat="59.124154" lon="18.309029">
        <ele>26.8</ele>
        <time>2014-10-11T12:11:13Z</time>
      </trkpt>
      <trkpt lat="59.124104" lon="18.308931">
        <ele>26</ele>
        <time>2014-10-11T12:11:14Z</time>
      </trkpt>
      <trkpt lat="59.124038" lon="18.30882">
        <ele>24.9</ele>
        <time>2014-10-11T12:11:15Z</time>
      </trkpt>
      <trkpt lat="59.123987" lon="18.30871">
        <ele>24.2</ele>
        <time>2014-10-11T12:11:16Z</time>
      </trkpt>
      <trkpt lat="59.123924" lon="18.308596">
        <ele>23.7</ele>
        <time>2014-10-11T12:11:17Z</time>
      </trkpt>
      <trkpt lat="59.123859" lon="18.308472">
        <ele>23.2</ele>
        <time>2014-10-11T12:11:18Z</time>
      </trkpt>
      <trkpt lat="59.123806" lon="18.308384">
        <ele>22.7</ele>
        <time>2014-10-11T12:11:19Z</time>
      </trkpt>
      <trkpt lat="59.123782" lon="18.308297">
        <ele>22.7</ele>
        <time>2014-10-11T12:11:20Z</time>
      </trkpt>
      <trkpt lat="59.123734" lon="18.308152">
        <ele>22.6</ele>
        <time>2014-10-11T12:11:21Z</time>
      </trkpt>
      <trkpt lat="59.123691" lon="18.308072">
        <ele>22.4</ele>
        <time>2014-10-11T12:11:22Z</time>
      </trkpt>
      <trkpt lat="59.123625" lon="18.307949">
        <ele>21.9</ele>
        <time>2014-10-11T12:11:23Z</time>
      </trkpt>
      <trkpt lat="59.12357" lon="18.307821">
        <ele>21.5</ele>
        <time>2014-10-11T12:11:24Z</time>
      </trkpt>
      <trkpt lat="59.123499" lon="18.307708">
        <ele>20.7</ele>
        <time>2014-10-11T12:11:25Z</time>
      </trkpt>
      <trkpt lat="59.123432" lon="18.30758">
        <ele>19.9</ele>
        <time>2014-10-11T12:11:26Z</time>
      </trkpt>
      <trkpt lat="59.123369" lon="18.307456">
        <ele>19.2</ele>
        <time>2014-10-11T12:11:27Z</time>
      </trkpt>
      <trkpt lat="59.123304" lon="18.307317">
        <ele>18.4</ele>
        <time>2014-10-11T12:11:28Z</time>
      </trkpt>
      <trkpt lat="59.123252" lon="18.30718">
        <ele>17.8</ele>
        <time>2014-10-11T12:11:29Z</time>
      </trkpt>
      <trkpt lat="59.123202" lon="18.307048">
        <ele>17.3</ele>
        <time>2014-10-11T12:11:30Z</time>
      </trkpt>
      <trkpt lat="59.123134" lon="18.306895">
        <ele>16.6</ele>
        <time>2014-10-11T12:11:31Z</time>
      </trkpt>
      <trkpt lat="59.123096" lon="18.306758">
        <ele>16.4</ele>
        <time>2014-10-11T12:11:32Z</time>
      </trkpt>
      <trkpt lat="59.123048" lon="18.306617">
        <ele>16</ele>
        <time>2014-10-11T12:11:33Z</time>
      </trkpt>
      <trkpt lat="59.122995" lon="18.306449">
        <ele>15.7</ele>
        <time>2014-10-11T12:11:34Z</time>
      </trkpt>
      <trkpt lat="59.12295" lon="18.306296">
        <ele>15.4</ele>
        <time>2014-10-11T12:11:35Z</time>
      </trkpt>
      <trkpt lat="59.122901" lon="18.306122">
        <ele>15.2</ele>
        <time>2014-10-11T12:11:36Z</time>
      </trkpt>
      <trkpt lat="59.122858" lon="18.305939">
        <ele>15.3</ele>
        <time>2014-10-11T12:11:37Z</time>
      </trkpt>
      <trkpt lat="59.122807" lon="18.305852">
        <ele>15.2</ele>
        <time>2014-10-11T12:11:38Z</time>
      </trkpt>
      <trkpt lat="59.122744" lon="18.305644">
        <ele>15.1</ele>
        <time>2014-10-11T12:11:39Z</time>
      </trkpt>
      <trkpt lat="59.122702" lon="18.305473">
        <ele>15.1</ele>
        <time>2014-10-11T12:11:40Z</time>
      </trkpt>
      <trkpt lat="59.122651" lon="18.305321">
        <ele>15</ele>
        <time>2014-10-11T12:11:41Z</time>
      </trkpt>
      <trkpt lat="59.122613" lon="18.305167">
        <ele>15</ele>
        <time>2014-10-11T12:11:42Z</time>
      </trkpt>
      <trkpt lat="59.122588" lon="18.304992">
        <ele>15.2</ele>
        <time>2014-10-11T12:11:43Z</time>
      </trkpt>
      <trkpt lat="59.122549" lon="18.304838">
        <ele>15.1</ele>
        <time>2014-10-11T12:11:44Z</time>
      </trkpt>
      <trkpt lat="59.122511" lon="18.30468">
        <ele>15</ele>
        <time>2014-10-11T12:11:45Z</time>
      </trkpt>
      <trkpt lat="59.122485" lon="18.304523">
        <ele>14.9</ele>
        <time>2014-10-11T12:11:46Z</time>
      </trkpt>
      <trkpt lat="59.122457" lon="18.304354">
        <ele>14.7</ele>
        <time>2014-10-11T12:11:47Z</time>
      </trkpt>
      <trkpt lat="59.122427" lon="18.304207">
        <ele>14.5</ele>
        <time>2014-10-11T12:11:48Z</time>
      </trkpt>
      <trkpt lat="59.122383" lon="18.304005">
        <ele>14.1</ele>
        <time>2014-10-11T12:11:49Z</time>
      </trkpt>
      <trkpt lat="59.12235" lon="18.303832">
        <ele>13.8</ele>
        <time>2014-10-11T12:11:50Z</time>
      </trkpt>
      <trkpt lat="59.122327" lon="18.303691">
        <ele>13.4</ele>
        <time>2014-10-11T12:11:51Z</time>
      </trkpt>
      <trkpt lat="59.122287" lon="18.303509">
        <ele>12.6</ele>
        <time>2014-10-11T12:11:52Z</time>
      </trkpt>
      <trkpt lat="59.122239" lon="18.303363">
        <ele>11.8</ele>
        <time>2014-10-11T12:11:53Z</time>
      </trkpt>
      <trkpt lat="59.122207" lon="18.30321">
        <ele>11.1</ele>
        <time>2014-10-11T12:11:54Z</time>
      </trkpt>
      <trkpt lat="59.122177" lon="18.303074">
        <ele>10.5</ele>
        <time>2014-10-11T12:11:55Z</time>
      </trkpt>
      <trkpt lat="59.122132" lon="18.30291">
        <ele>9.7</ele>
        <time>2014-10-11T12:11:56Z</time>
      </trkpt>
      <trkpt lat="59.122089" lon="18.30276">
        <ele>9.1</ele>
        <time>2014-10-11T12:11:57Z</time>
      </trkpt>
      <trkpt lat="59.122058" lon="18.302611">
        <ele>8.8</ele>
        <time>2014-10-11T12:11:58Z</time>
      </trkpt>
      <trkpt lat="59.122036" lon="18.302461">
        <ele>8.7</ele>
        <time>2014-10-11T12:11:59Z</time>
      </trkpt>
      <trkpt lat="59.121998" lon="18.302297">
        <ele>8.5</ele>
        <time>2014-10-11T12:12:00Z</time>
      </trkpt>
      <trkpt lat="59.121963" lon="18.302139">
        <ele>8.3</ele>
        <time>2014-10-11T12:12:01Z</time>
      </trkpt>
      <trkpt lat="59.121941" lon="18.301991">
        <ele>8.1</ele>
        <time>2014-10-11T12:12:02Z</time>
      </trkpt>
      <trkpt lat="59.121908" lon="18.301823">
        <ele>7.7</ele>
        <time>2014-10-11T12:12:03Z</time>
      </trkpt>
      <trkpt lat="59.12187" lon="18.301643">
        <ele>7.3</ele>
        <time>2014-10-11T12:12:04Z</time>
      </trkpt>
      <trkpt lat="59.12184" lon="18.301482">
        <ele>7</ele>
        <time>2014-10-11T12:12:05Z</time>
      </trkpt>
      <trkpt lat="59.121822" lon="18.301338">
        <ele>6.8</ele>
        <time>2014-10-11T12:12:06Z</time>
      </trkpt>
      <trkpt lat="59.121796" lon="18.301158">
        <ele>6.5</ele>
        <time>2014-10-11T12:12:07Z</time>
      </trkpt>
      <trkpt lat="59.121772" lon="18.300987">
        <ele>6.3</ele>
        <time>2014-10-11T12:12:08Z</time>
      </trkpt>
      <trkpt lat="59.121747" lon="18.300817">
        <ele>6.1</ele>
        <time>2014-10-11T12:12:09Z</time>
      </trkpt>
      <trkpt lat="59.121713" lon="18.30064">
        <ele>5.8</ele>
        <time>2014-10-11T12:12:10Z</time>
      </trkpt>
      <trkpt lat="59.121684" lon="18.300453">
        <ele>5.6</ele>
        <time>2014-10-11T12:12:11Z</time>
      </trkpt>
      <trkpt lat="59.121665" lon="18.300334">
        <ele>5.7</ele>
        <time>2014-10-11T12:12:12Z</time>
      </trkpt>
      <trkpt lat="59.121632" lon="18.300181">
        <ele>6.1</ele>
        <time>2014-10-11T12:12:13Z</time>
      </trkpt>
      <trkpt lat="59.121596" lon="18.30002">
        <ele>6.4</ele>
        <time>2014-10-11T12:12:14Z</time>
      </trkpt>
      <trkpt lat="59.121562" lon="18.299876">
        <ele>6.7</ele>
        <time>2014-10-11T12:12:15Z</time>
      </trkpt>
      <trkpt lat="59.121534" lon="18.299742">
        <ele>6.9</ele>
        <time>2014-10-11T12:12:16Z</time>
      </trkpt>
      <trkpt lat="59.121522" lon="18.299601">
        <ele>7.3</ele>
        <time>2014-10-11T12:12:17Z</time>
      </trkpt>
      <trkpt lat="59.121501" lon="18.29948">
        <ele>7.5</ele>
        <time>2014-10-11T12:12:18Z</time>
      </trkpt>
      <trkpt lat="59.121471" lon="18.29934">
        <ele>7.6</ele>
        <time>2014-10-11T12:12:19Z</time>
      </trkpt>
      <trkpt lat="59.121439" lon="18.299207">
        <ele>7.8</ele>
        <time>2014-10-11T12:12:20Z</time>
      </trkpt>
      <trkpt lat="59.121409" lon="18.299064">
        <ele>8</ele>
        <time>2014-10-11T12:12:21Z</time>
      </trkpt>
      <trkpt lat="59.121385" lon="18.298919">
        <ele>8.2</ele>
        <time>2014-10-11T12:12:22Z</time>
      </trkpt>
      <trkpt lat="59.121375" lon="18.298798">
        <ele>8.5</ele>
        <time>2014-10-11T12:12:23Z</time>
      </trkpt>
      <trkpt lat="59.121354" lon="18.298663">
        <ele>8.7</ele>
        <time>2014-10-11T12:12:24Z</time>
      </trkpt>
      <trkpt lat="59.12134" lon="18.298529">
        <ele>9</ele>
        <time>2014-10-11T12:12:25Z</time>
      </trkpt>
      <trkpt lat="59.121314" lon="18.298395">
        <ele>9.2</ele>
        <time>2014-10-11T12:12:26Z</time>
      </trkpt>
      <trkpt lat="59.121297" lon="18.298266">
        <ele>9.4</ele>
        <time>2014-10-11T12:12:27Z</time>
      </trkpt>
      <trkpt lat="59.121279" lon="18.298138">
        <ele>9.6</ele>
        <time>2014-10-11T12:12:28Z</time>
      </trkpt>
      <trkpt lat="59.12126" lon="18.298034">
        <ele>9.8</ele>
        <time>2014-10-11T12:12:29Z</time>
      </trkpt>
      <trkpt lat="59.121238" lon="18.297889">
        <ele>10</ele>
        <time>2014-10-11T12:12:30Z</time>
      </trkpt>
      <trkpt lat="59.121219" lon="18.297774">
        <ele>10</ele>
        <time>2014-10-11T12:12:31Z</time>
      </trkpt>
      <trkpt lat="59.121201" lon="18.297655">
        <ele>10.1</ele>
        <time>2014-10-11T12:12:32Z</time>
      </trkpt>
      <trkpt lat="59.121176" lon="18.297531">
        <ele>10.1</ele>
        <time>2014-10-11T12:12:33Z</time>
      </trkpt>
      <trkpt lat="59.12116" lon="18.297413">
        <ele>10.2</ele>
        <time>2014-10-11T12:12:34Z</time>
      </trkpt>
      <trkpt lat="59.121134" lon="18.297288">
        <ele>10.2</ele>
        <time>2014-10-11T12:12:35Z</time>
      </trkpt>
      <trkpt lat="59.12111" lon="18.297173">
        <ele>10.2</ele>
        <time>2014-10-11T12:12:36Z</time>
      </trkpt>
      <trkpt lat="59.121103" lon="18.297056">
        <ele>10.4</ele>
        <time>2014-10-11T12:12:37Z</time>
      </trkpt>
      <trkpt lat="59.121087" lon="18.296941">
        <ele>10.6</ele>
        <time>2014-10-11T12:12:38Z</time>
      </trkpt>
      <trkpt lat="59.121063" lon="18.296822">
        <ele>10.7</ele>
        <time>2014-10-11T12:12:39Z</time>
      </trkpt>
      <trkpt lat="59.12103" lon="18.296704">
        <ele>10.9</ele>
        <time>2014-10-11T12:12:40Z</time>
      </trkpt>
      <trkpt lat="59.12101" lon="18.296575">
        <ele>11.1</ele>
        <time>2014-10-11T12:12:41Z</time>
      </trkpt>
      <trkpt lat="59.120991" lon="18.296466">
        <ele>11.2</ele>
        <time>2014-10-11T12:12:42Z</time>
      </trkpt>
      <trkpt lat="59.120972" lon="18.296329">
        <ele>11.5</ele>
        <time>2014-10-11T12:12:43Z</time>
      </trkpt>
      <trkpt lat="59.120947" lon="18.296208">
        <ele>11.6</ele>
        <time>2014-10-11T12:12:44Z</time>
      </trkpt>
      <trkpt lat="59.120931" lon="18.296103">
        <ele>11.6</ele>
        <time>2014-10-11T12:12:45Z</time>
      </trkpt>
      <trkpt lat="59.120908" lon="18.295987">
        <ele>11.7</ele>
        <time>2014-10-11T12:12:46Z</time>
      </trkpt>
      <trkpt lat="59.120884" lon="18.295878">
        <ele>11.7</ele>
        <time>2014-10-11T12:12:47Z</time>
      </trkpt>
      <trkpt lat="59.120832" lon="18.295445">
        <ele>12</ele>
        <time>2014-10-11T12:12:51Z</time>
      </trkpt>
      <trkpt lat="59.120809" lon="18.295358">
        <ele>12.1</ele>
        <time>2014-10-11T12:12:52Z</time>
      </trkpt>
      <trkpt lat="59.120777" lon="18.29524">
        <ele>12.4</ele>
        <time>2014-10-11T12:12:53Z</time>
      </trkpt>
      <trkpt lat="59.120751" lon="18.295119">
        <ele>12.7</ele>
        <time>2014-10-11T12:12:54Z</time>
      </trkpt>
      <trkpt lat="59.120739" lon="18.295037">
        <ele>13</ele>
        <time>2014-10-11T12:12:55Z</time>
      </trkpt>
      <trkpt lat="59.120714" lon="18.294919">
        <ele>13.4</ele>
        <time>2014-10-11T12:12:56Z</time>
      </trkpt>
      <trkpt lat="59.120679" lon="18.294806">
        <ele>13.7</ele>
        <time>2014-10-11T12:12:57Z</time>
      </trkpt>
      <trkpt lat="59.120651" lon="18.294691">
        <ele>14.1</ele>
        <time>2014-10-11T12:12:58Z</time>
      </trkpt>
      <trkpt lat="59.120626" lon="18.294573">
        <ele>14.5</ele>
        <time>2014-10-11T12:12:59Z</time>
      </trkpt>
      <trkpt lat="59.120607" lon="18.294461">
        <ele>14.8</ele>
        <time>2014-10-11T12:13:00Z</time>
      </trkpt>
      <trkpt lat="59.120589" lon="18.294352">
        <ele>15.1</ele>
        <time>2014-10-11T12:13:01Z</time>
      </trkpt>
      <trkpt lat="59.120575" lon="18.294241">
        <ele>15.5</ele>
        <time>2014-10-11T12:13:02Z</time>
      </trkpt>
      <trkpt lat="59.120566" lon="18.294136">
        <ele>15.8</ele>
        <time>2014-10-11T12:13:03Z</time>
      </trkpt>
      <trkpt lat="59.120553" lon="18.294051">
        <ele>16</ele>
        <time>2014-10-11T12:13:04Z</time>
      </trkpt>
      <trkpt lat="59.120532" lon="18.293934">
        <ele>16.4</ele>
        <time>2014-10-11T12:13:05Z</time>
      </trkpt>
      <trkpt lat="59.120511" lon="18.293829">
        <ele>16.7</ele>
        <time>2014-10-11T12:13:06Z</time>
      </trkpt>
      <trkpt lat="59.120477" lon="18.293712">
        <ele>17.2</ele>
        <time>2014-10-11T12:13:07Z</time>
      </trkpt>
      <trkpt lat="59.120458" lon="18.293606">
        <ele>17.7</ele>
        <time>2014-10-11T12:13:08Z</time>
      </trkpt>
      <trkpt lat="59.120442" lon="18.293467">
        <ele>18.4</ele>
        <time>2014-10-11T12:13:09Z</time>
      </trkpt>
      <trkpt lat="59.120429" lon="18.293369">
        <ele>18.8</ele>
        <time>2014-10-11T12:13:10Z</time>
      </trkpt>
      <trkpt lat="59.120409" lon="18.293255">
        <ele>19.4</ele>
        <time>2014-10-11T12:13:11Z</time>
      </trkpt>
      <trkpt lat="59.120389" lon="18.29313">
        <ele>19.9</ele>
        <time>2014-10-11T12:13:12Z</time>
      </trkpt>
      <trkpt lat="59.120364" lon="18.293017">
        <ele>20.4</ele>
        <time>2014-10-11T12:13:13Z</time>
      </trkpt>
      <trkpt lat="59.120344" lon="18.292905">
        <ele>20.9</ele>
        <time>2014-10-11T12:13:14Z</time>
      </trkpt>
      <trkpt lat="59.120321" lon="18.292798">
        <ele>21.2</ele>
        <time>2014-10-11T12:13:15Z</time>
      </trkpt>
      <trkpt lat="59.120313" lon="18.292708">
        <ele>21.5</ele>
        <time>2014-10-11T12:13:16Z</time>
      </trkpt>
      <trkpt lat="59.120291" lon="18.292629">
        <ele>21.7</ele>
        <time>2014-10-11T12:13:17Z</time>
      </trkpt>
      <trkpt lat="59.120271" lon="18.292529">
        <ele>22</ele>
        <time>2014-10-11T12:13:18Z</time>
      </trkpt>
      <trkpt lat="59.120253" lon="18.292421">
        <ele>22.4</ele>
        <time>2014-10-11T12:13:19Z</time>
      </trkpt>
      <trkpt lat="59.120237" lon="18.292332">
        <ele>22.7</ele>
        <time>2014-10-11T12:13:20Z</time>
      </trkpt>
      <trkpt lat="59.120216" lon="18.29223">
        <ele>23</ele>
        <time>2014-10-11T12:13:21Z</time>
      </trkpt>
      <trkpt lat="59.120206" lon="18.292119">
        <ele>23.4</ele>
        <time>2014-10-11T12:13:22Z</time>
      </trkpt>
      <trkpt lat="59.12019" lon="18.292015">
        <ele>23.5</ele>
        <time>2014-10-11T12:13:23Z</time>
      </trkpt>
      <trkpt lat="59.120182" lon="18.291937">
        <ele>23.5</ele>
        <time>2014-10-11T12:13:24Z</time>
      </trkpt>
      <trkpt lat="59.120173" lon="18.29184">
        <ele>23.5</ele>
        <time>2014-10-11T12:13:25Z</time>
      </trkpt>
      <trkpt lat="59.120153" lon="18.291742">
        <ele>23.5</ele>
        <time>2014-10-11T12:13:26Z</time>
      </trkpt>
      <trkpt lat="59.120122" lon="18.291652">
        <ele>23.5</ele>
        <time>2014-10-11T12:13:27Z</time>
      </trkpt>
      <trkpt lat="59.120095" lon="18.291568">
        <ele>23.5</ele>
        <time>2014-10-11T12:13:28Z</time>
      </trkpt>
      <trkpt lat="59.120056" lon="18.291456">
        <ele>23.5</ele>
        <time>2014-10-11T12:13:29Z</time>
      </trkpt>
      <trkpt lat="59.120026" lon="18.291363">
        <ele>23.5</ele>
        <time>2014-10-11T12:13:30Z</time>
      </trkpt>
      <trkpt lat="59.120016" lon="18.291266">
        <ele>23.5</ele>
        <time>2014-10-11T12:13:31Z</time>
      </trkpt>
      <trkpt lat="59.119983" lon="18.291181">
        <ele>23.5</ele>
        <time>2014-10-11T12:13:32Z</time>
      </trkpt>
      <trkpt lat="59.119957" lon="18.291089">
        <ele>23.6</ele>
        <time>2014-10-11T12:13:33Z</time>
      </trkpt>
      <trkpt lat="59.119915" lon="18.290994">
        <ele>23.6</ele>
        <time>2014-10-11T12:13:34Z</time>
      </trkpt>
      <trkpt lat="59.119886" lon="18.290917">
        <ele>23.6</ele>
        <time>2014-10-11T12:13:35Z</time>
      </trkpt>
      <trkpt lat="59.119848" lon="18.290824">
        <ele>23.7</ele>
        <time>2014-10-11T12:13:36Z</time>
      </trkpt>
      <trkpt lat="59.119804" lon="18.290738">
        <ele>23.7</ele>
        <time>2014-10-11T12:13:37Z</time>
      </trkpt>
      <trkpt lat="59.119783" lon="18.290665">
        <ele>23.8</ele>
        <time>2014-10-11T12:13:38Z</time>
      </trkpt>
      <trkpt lat="59.119758" lon="18.290592">
        <ele>23.8</ele>
        <time>2014-10-11T12:13:39Z</time>
      </trkpt>
      <trkpt lat="59.119711" lon="18.290491">
        <ele>23.9</ele>
        <time>2014-10-11T12:13:40Z</time>
      </trkpt>
      <trkpt lat="59.11967" lon="18.290423">
        <ele>24</ele>
        <time>2014-10-11T12:13:41Z</time>
      </trkpt>
      <trkpt lat="59.119625" lon="18.290352">
        <ele>23.9</ele>
        <time>2014-10-11T12:13:42Z</time>
      </trkpt>
      <trkpt lat="59.11959" lon="18.290304">
        <ele>23.9</ele>
        <time>2014-10-11T12:13:43Z</time>
      </trkpt>
      <trkpt lat="59.119547" lon="18.290235">
        <ele>23.8</ele>
        <time>2014-10-11T12:13:44Z</time>
      </trkpt>
      <trkpt lat="59.1195" lon="18.290149">
        <ele>23.8</ele>
        <time>2014-10-11T12:13:45Z</time>
      </trkpt>
      <trkpt lat="59.119454" lon="18.290077">
        <ele>23.7</ele>
        <time>2014-10-11T12:13:46Z</time>
      </trkpt>
      <trkpt lat="59.119405" lon="18.290005">
        <ele>23.7</ele>
        <time>2014-10-11T12:13:47Z</time>
      </trkpt>
      <trkpt lat="59.119367" lon="18.289937">
        <ele>23.7</ele>
        <time>2014-10-11T12:13:48Z</time>
      </trkpt>
      <trkpt lat="59.119328" lon="18.289864">
        <ele>23.6</ele>
        <time>2014-10-11T12:13:49Z</time>
      </trkpt>
      <trkpt lat="59.119279" lon="18.289782">
        <ele>23.6</ele>
        <time>2014-10-11T12:13:50Z</time>
      </trkpt>
      <trkpt lat="59.119234" lon="18.28971">
        <ele>23.6</ele>
        <time>2014-10-11T12:13:51Z</time>
      </trkpt>
      <trkpt lat="59.119193" lon="18.289626">
        <ele>23.5</ele>
        <time>2014-10-11T12:13:52Z</time>
      </trkpt>
      <trkpt lat="59.119151" lon="18.289547">
        <ele>23.5</ele>
        <time>2014-10-11T12:13:53Z</time>
      </trkpt>
      <trkpt lat="59.119109" lon="18.289478">
        <ele>23.5</ele>
        <time>2014-10-11T12:13:54Z</time>
      </trkpt>
      <trkpt lat="59.119073" lon="18.289428">
        <ele>23.5</ele>
        <time>2014-10-11T12:13:55Z</time>
      </trkpt>
      <trkpt lat="59.119021" lon="18.289352">
        <ele>23.6</ele>
        <time>2014-10-11T12:13:56Z</time>
      </trkpt>
      <trkpt lat="59.118976" lon="18.289283">
        <ele>23.6</ele>
        <time>2014-10-11T12:13:57Z</time>
      </trkpt>
      <trkpt lat="59.118954" lon="18.289237">
        <ele>23.7</ele>
        <time>2014-10-11T12:13:58Z</time>
      </trkpt>
      <trkpt lat="59.118912" lon="18.289179">
        <ele>23.7</ele>
        <time>2014-10-11T12:13:59Z</time>
      </trkpt>
      <trkpt lat="59.118863" lon="18.289092">
        <ele>23.8</ele>
        <time>2014-10-11T12:14:00Z</time>
      </trkpt>
      <trkpt lat="59.118792" lon="18.289007">
        <ele>23.9</ele>
        <time>2014-10-11T12:14:01Z</time>
      </trkpt>
      <trkpt lat="59.118744" lon="18.288951">
        <ele>24</ele>
        <time>2014-10-11T12:14:02Z</time>
      </trkpt>
      <trkpt lat="59.118686" lon="18.288895">
        <ele>23.8</ele>
        <time>2014-10-11T12:14:03Z</time>
      </trkpt>
      <trkpt lat="59.118655" lon="18.288814">
        <ele>23.6</ele>
        <time>2014-10-11T12:14:04Z</time>
      </trkpt>
      <trkpt lat="59.118611" lon="18.288754">
        <ele>23.5</ele>
        <time>2014-10-11T12:14:05Z</time>
      </trkpt>
      <trkpt lat="59.118568" lon="18.288679">
        <ele>23.3</ele>
        <time>2014-10-11T12:14:06Z</time>
      </trkpt>
      <trkpt lat="59.11853" lon="18.288615">
        <ele>23.1</ele>
        <time>2014-10-11T12:14:07Z</time>
      </trkpt>
      <trkpt lat="59.118485" lon="18.288547">
        <ele>22.9</ele>
        <time>2014-10-11T12:14:08Z</time>
      </trkpt>
      <trkpt lat="59.118442" lon="18.288448">
        <ele>22.7</ele>
        <time>2014-10-11T12:14:09Z</time>
      </trkpt>
      <trkpt lat="59.118396" lon="18.288377">
        <ele>22.5</ele>
        <time>2014-10-11T12:14:10Z</time>
      </trkpt>
      <trkpt lat="59.118358" lon="18.288309">
        <ele>22.3</ele>
        <time>2014-10-11T12:14:11Z</time>
      </trkpt>
      <trkpt lat="59.118311" lon="18.288229">
        <ele>22.1</ele>
        <time>2014-10-11T12:14:12Z</time>
      </trkpt>
      <trkpt lat="59.118273" lon="18.288167">
        <ele>22</ele>
        <time>2014-10-11T12:14:13Z</time>
      </trkpt>
      <trkpt lat="59.118218" lon="18.288085">
        <ele>21.8</ele>
        <time>2014-10-11T12:14:14Z</time>
      </trkpt>
      <trkpt lat="59.118176" lon="18.288016">
        <ele>21.7</ele>
        <time>2014-10-11T12:14:15Z</time>
      </trkpt>
      <trkpt lat="59.118145" lon="18.287935">
        <ele>21.6</ele>
        <time>2014-10-11T12:14:16Z</time>
      </trkpt>
      <trkpt lat="59.118106" lon="18.287858">
        <ele>21.5</ele>
        <time>2014-10-11T12:14:17Z</time>
      </trkpt>
      <trkpt lat="59.118049" lon="18.28775">
        <ele>21.3</ele>
        <time>2014-10-11T12:14:18Z</time>
      </trkpt>
      <trkpt lat="59.11801" lon="18.287661">
        <ele>21.2</ele>
        <time>2014-10-11T12:14:19Z</time>
      </trkpt>
      <trkpt lat="59.117963" lon="18.28758">
        <ele>21.1</ele>
        <time>2014-10-11T12:14:20Z</time>
      </trkpt>
      <trkpt lat="59.117922" lon="18.287501">
        <ele>21</ele>
        <time>2014-10-11T12:14:21Z</time>
      </trkpt>
      <trkpt lat="59.117899" lon="18.287425">
        <ele>20.8</ele>
        <time>2014-10-11T12:14:22Z</time>
      </trkpt>
      <trkpt lat="59.117848" lon="18.287322">
        <ele>20.4</ele>
        <time>2014-10-11T12:14:23Z</time>
      </trkpt>
      <trkpt lat="59.117804" lon="18.28723">
        <ele>20</ele>
        <time>2014-10-11T12:14:24Z</time>
      </trkpt>
      <trkpt lat="59.117759" lon="18.28717">
        <ele>19.7</ele>
        <time>2014-10-11T12:14:25Z</time>
      </trkpt>
      <trkpt lat="59.117714" lon="18.287062">
        <ele>19.3</ele>
        <time>2014-10-11T12:14:26Z</time>
      </trkpt>
      <trkpt lat="59.117677" lon="18.28696">
        <ele>19</ele>
        <time>2014-10-11T12:14:27Z</time>
      </trkpt>
      <trkpt lat="59.117622" lon="18.28687">
        <ele>18.5</ele>
        <time>2014-10-11T12:14:28Z</time>
      </trkpt>
      <trkpt lat="59.117572" lon="18.286761">
        <ele>18.1</ele>
        <time>2014-10-11T12:14:29Z</time>
      </trkpt>
      <trkpt lat="59.117526" lon="18.286622">
        <ele>17.7</ele>
        <time>2014-10-11T12:14:30Z</time>
      </trkpt>
      <trkpt lat="59.11748" lon="18.2865">
        <ele>17.3</ele>
        <time>2014-10-11T12:14:31Z</time>
      </trkpt>
      <trkpt lat="59.117457" lon="18.286371">
        <ele>17.1</ele>
        <time>2014-10-11T12:14:32Z</time>
      </trkpt>
      <trkpt lat="59.11743" lon="18.28623">
        <ele>16.9</ele>
        <time>2014-10-11T12:14:33Z</time>
      </trkpt>
      <trkpt lat="59.117393" lon="18.286098">
        <ele>16.6</ele>
        <time>2014-10-11T12:14:34Z</time>
      </trkpt>
      <trkpt lat="59.117342" lon="18.285943">
        <ele>16.2</ele>
        <time>2014-10-11T12:14:35Z</time>
      </trkpt>
      <trkpt lat="59.117295" lon="18.285766">
        <ele>15.8</ele>
        <time>2014-10-11T12:14:36Z</time>
      </trkpt>
      <trkpt lat="59.117251" lon="18.285592">
        <ele>15.4</ele>
        <time>2014-10-11T12:14:37Z</time>
      </trkpt>
      <trkpt lat="59.117199" lon="18.285449">
        <ele>15</ele>
        <time>2014-10-11T12:14:38Z</time>
      </trkpt>
      <trkpt lat="59.117161" lon="18.285292">
        <ele>14.9</ele>
        <time>2014-10-11T12:14:39Z</time>
      </trkpt>
      <trkpt lat="59.117116" lon="18.285099">
        <ele>15</ele>
        <time>2014-10-11T12:14:40Z</time>
      </trkpt>
      <trkpt lat="59.117069" lon="18.284928">
        <ele>15.1</ele>
        <time>2014-10-11T12:14:41Z</time>
      </trkpt>
      <trkpt lat="59.117034" lon="18.284756">
        <ele>15.4</ele>
        <time>2014-10-11T12:14:42Z</time>
      </trkpt>
      <trkpt lat="59.117001" lon="18.284608">
        <ele>15.7</ele>
        <time>2014-10-11T12:14:43Z</time>
      </trkpt>
      <trkpt lat="59.116942" lon="18.284466">
        <ele>15.6</ele>
        <time>2014-10-11T12:14:44Z</time>
      </trkpt>
      <trkpt lat="59.116901" lon="18.284311">
        <ele>15.5</ele>
        <time>2014-10-11T12:14:45Z</time>
      </trkpt>
      <trkpt lat="59.116869" lon="18.284137">
        <ele>15.5</ele>
        <time>2014-10-11T12:14:46Z</time>
      </trkpt>
      <trkpt lat="59.116825" lon="18.283987">
        <ele>15.3</ele>
        <time>2014-10-11T12:14:47Z</time>
      </trkpt>
      <trkpt lat="59.1168" lon="18.283813">
        <ele>15.3</ele>
        <time>2014-10-11T12:14:48Z</time>
      </trkpt>
      <trkpt lat="59.116759" lon="18.283655">
        <ele>15.2</ele>
        <time>2014-10-11T12:14:49Z</time>
      </trkpt>
      <trkpt lat="59.116711" lon="18.283502">
        <ele>15.1</ele>
        <time>2014-10-11T12:14:50Z</time>
      </trkpt>
      <trkpt lat="59.116669" lon="18.283339">
        <ele>15</ele>
        <time>2014-10-11T12:14:51Z</time>
      </trkpt>
      <trkpt lat="59.116635" lon="18.283154">
        <ele>14.9</ele>
        <time>2014-10-11T12:14:52Z</time>
      </trkpt>
      <trkpt lat="59.116598" lon="18.283">
        <ele>14.7</ele>
        <time>2014-10-11T12:14:53Z</time>
      </trkpt>
      <trkpt lat="59.116562" lon="18.282861">
        <ele>14.4</ele>
        <time>2014-10-11T12:14:54Z</time>
      </trkpt>
      <trkpt lat="59.116517" lon="18.282704">
        <ele>13.9</ele>
        <time>2014-10-11T12:14:55Z</time>
      </trkpt>
      <trkpt lat="59.116494" lon="18.282537">
        <ele>13.6</ele>
        <time>2014-10-11T12:14:56Z</time>
      </trkpt>
      <trkpt lat="59.116444" lon="18.282398">
        <ele>12.9</ele>
        <time>2014-10-11T12:14:57Z</time>
      </trkpt>
      <trkpt lat="59.11641" lon="18.282231">
        <ele>12.4</ele>
        <time>2014-10-11T12:14:58Z</time>
      </trkpt>
      <trkpt lat="59.11637" lon="18.282051">
        <ele>11.8</ele>
        <time>2014-10-11T12:14:59Z</time>
      </trkpt>
      <trkpt lat="59.116341" lon="18.281907">
        <ele>11.7</ele>
        <time>2014-10-11T12:15:00Z</time>
      </trkpt>
      <trkpt lat="59.116306" lon="18.281732">
        <ele>11.6</ele>
        <time>2014-10-11T12:15:01Z</time>
      </trkpt>
      <trkpt lat="59.116283" lon="18.28158">
        <ele>11.7</ele>
        <time>2014-10-11T12:15:02Z</time>
      </trkpt>
      <trkpt lat="59.116276" lon="18.281426">
        <ele>11.9</ele>
        <time>2014-10-11T12:15:03Z</time>
      </trkpt>
      <trkpt lat="59.11625" lon="18.281279">
        <ele>11.9</ele>
        <time>2014-10-11T12:15:04Z</time>
      </trkpt>
      <trkpt lat="59.11624" lon="18.281145">
        <ele>12.1</ele>
        <time>2014-10-11T12:15:05Z</time>
      </trkpt>
      <trkpt lat="59.116213" lon="18.281019">
        <ele>12.3</ele>
        <time>2014-10-11T12:15:06Z</time>
      </trkpt>
      <trkpt lat="59.116191" lon="18.280875">
        <ele>12.4</ele>
        <time>2014-10-11T12:15:07Z</time>
      </trkpt>
      <trkpt lat="59.116189" lon="18.280739">
        <ele>12.6</ele>
        <time>2014-10-11T12:15:08Z</time>
      </trkpt>
      <trkpt lat="59.116176" lon="18.280602">
        <ele>12.7</ele>
        <time>2014-10-11T12:15:09Z</time>
      </trkpt>
      <trkpt lat="59.11615" lon="18.280462">
        <ele>12.8</ele>
        <time>2014-10-11T12:15:10Z</time>
      </trkpt>
      <trkpt lat="59.116143" lon="18.280331">
        <ele>13.1</ele>
        <time>2014-10-11T12:15:11Z</time>
      </trkpt>
      <trkpt lat="59.116129" lon="18.280168">
        <ele>13.4</ele>
        <time>2014-10-11T12:15:12Z</time>
      </trkpt>
      <trkpt lat="59.116116" lon="18.28002">
        <ele>13.6</ele>
        <time>2014-10-11T12:15:13Z</time>
      </trkpt>
      <trkpt lat="59.116113" lon="18.279865">
        <ele>13.9</ele>
        <time>2014-10-11T12:15:14Z</time>
      </trkpt>
      <trkpt lat="59.1161" lon="18.279724">
        <ele>14.2</ele>
        <time>2014-10-11T12:15:15Z</time>
      </trkpt>
      <trkpt lat="59.116093" lon="18.279593">
        <ele>14.4</ele>
        <time>2014-10-11T12:15:16Z</time>
      </trkpt>
      <trkpt lat="59.116059" lon="18.279445">
        <ele>14.4</ele>
        <time>2014-10-11T12:15:17Z</time>
      </trkpt>
      <trkpt lat="59.116059" lon="18.279327">
        <ele>14.5</ele>
        <time>2014-10-11T12:15:18Z</time>
      </trkpt>
      <trkpt lat="59.116058" lon="18.279201">
        <ele>14.7</ele>
        <time>2014-10-11T12:15:19Z</time>
      </trkpt>
      <trkpt lat="59.116057" lon="18.279056">
        <ele>14.8</ele>
        <time>2014-10-11T12:15:20Z</time>
      </trkpt>
      <trkpt lat="59.11605" lon="18.278912">
        <ele>14.9</ele>
        <time>2014-10-11T12:15:21Z</time>
      </trkpt>
      <trkpt lat="59.116046" lon="18.278773">
        <ele>15</ele>
        <time>2014-10-11T12:15:22Z</time>
      </trkpt>
      <trkpt lat="59.116047" lon="18.278631">
        <ele>14.9</ele>
        <time>2014-10-11T12:15:23Z</time>
      </trkpt>
      <trkpt lat="59.116038" lon="18.278496">
        <ele>14.7</ele>
        <time>2014-10-11T12:15:24Z</time>
      </trkpt>
      <trkpt lat="59.116038" lon="18.278379">
        <ele>14.5</ele>
        <time>2014-10-11T12:15:25Z</time>
      </trkpt>
      <trkpt lat="59.116023" lon="18.278226">
        <ele>14.3</ele>
        <time>2014-10-11T12:15:26Z</time>
      </trkpt>
      <trkpt lat="59.116006" lon="18.278099">
        <ele>14</ele>
        <time>2014-10-11T12:15:27Z</time>
      </trkpt>
      <trkpt lat="59.11599" lon="18.277969">
        <ele>13.8</ele>
        <time>2014-10-11T12:15:28Z</time>
      </trkpt>
      <trkpt lat="59.115991" lon="18.277846">
        <ele>13.7</ele>
        <time>2014-10-11T12:15:29Z</time>
      </trkpt>
      <trkpt lat="59.115983" lon="18.277733">
        <ele>13.6</ele>
        <time>2014-10-11T12:15:30Z</time>
      </trkpt>
      <trkpt lat="59.115971" lon="18.277602">
        <ele>13.4</ele>
        <time>2014-10-11T12:15:31Z</time>
      </trkpt>
      <trkpt lat="59.115964" lon="18.27746">
        <ele>13.3</ele>
        <time>2014-10-11T12:15:32Z</time>
      </trkpt>
      <trkpt lat="59.115942" lon="18.277314">
        <ele>13.1</ele>
        <time>2014-10-11T12:15:33Z</time>
      </trkpt>
      <trkpt lat="59.11594" lon="18.277195">
        <ele>13</ele>
        <time>2014-10-11T12:15:34Z</time>
      </trkpt>
      <trkpt lat="59.115925" lon="18.27705">
        <ele>12.9</ele>
        <time>2014-10-11T12:15:35Z</time>
      </trkpt>
      <trkpt lat="59.115912" lon="18.276928">
        <ele>13.3</ele>
        <time>2014-10-11T12:15:36Z</time>
      </trkpt>
      <trkpt lat="59.115898" lon="18.276804">
        <ele>13.6</ele>
        <time>2014-10-11T12:15:37Z</time>
      </trkpt>
      <trkpt lat="59.115901" lon="18.27668">
        <ele>14</ele>
        <time>2014-10-11T12:15:38Z</time>
      </trkpt>
      <trkpt lat="59.115883" lon="18.276553">
        <ele>14.3</ele>
        <time>2014-10-11T12:15:39Z</time>
      </trkpt>
      <trkpt lat="59.115857" lon="18.276396">
        <ele>14.7</ele>
        <time>2014-10-11T12:15:40Z</time>
      </trkpt>
      <trkpt lat="59.115845" lon="18.276246">
        <ele>15.1</ele>
        <time>2014-10-11T12:15:41Z</time>
      </trkpt>
      <trkpt lat="59.115833" lon="18.276103">
        <ele>15.3</ele>
        <time>2014-10-11T12:15:42Z</time>
      </trkpt>
      <trkpt lat="59.115813" lon="18.275981">
        <ele>15.4</ele>
        <time>2014-10-11T12:15:43Z</time>
      </trkpt>
      <trkpt lat="59.115802" lon="18.275845">
        <ele>15.6</ele>
        <time>2014-10-11T12:15:44Z</time>
      </trkpt>
      <trkpt lat="59.115785" lon="18.275698">
        <ele>15.7</ele>
        <time>2014-10-11T12:15:45Z</time>
      </trkpt>
      <trkpt lat="59.115761" lon="18.275552">
        <ele>15.8</ele>
        <time>2014-10-11T12:15:46Z</time>
      </trkpt>
      <trkpt lat="59.115742" lon="18.275412">
        <ele>16</ele>
        <time>2014-10-11T12:15:47Z</time>
      </trkpt>
      <trkpt lat="59.115734" lon="18.275297">
        <ele>16.4</ele>
        <time>2014-10-11T12:15:48Z</time>
      </trkpt>
      <trkpt lat="59.115722" lon="18.275145">
        <ele>16.9</ele>
        <time>2014-10-11T12:15:49Z</time>
      </trkpt>
      <trkpt lat="59.115708" lon="18.275007">
        <ele>17.4</ele>
        <time>2014-10-11T12:15:50Z</time>
      </trkpt>
      <trkpt lat="59.115702" lon="18.274891">
        <ele>17.8</ele>
        <time>2014-10-11T12:15:51Z</time>
      </trkpt>
      <trkpt lat="59.115673" lon="18.274774">
        <ele>18.1</ele>
        <time>2014-10-11T12:15:52Z</time>
      </trkpt>
      <trkpt lat="59.115659" lon="18.274646">
        <ele>18.5</ele>
        <time>2014-10-11T12:15:53Z</time>
      </trkpt>
      <trkpt lat="59.115649" lon="18.274534">
        <ele>18.8</ele>
        <time>2014-10-11T12:15:54Z</time>
      </trkpt>
      <trkpt lat="59.115633" lon="18.27442">
        <ele>19.1</ele>
        <time>2014-10-11T12:15:55Z</time>
      </trkpt>
      <trkpt lat="59.115623" lon="18.274321">
        <ele>19.3</ele>
        <time>2014-10-11T12:15:56Z</time>
      </trkpt>
      <trkpt lat="59.115607" lon="18.274221">
        <ele>19.4</ele>
        <time>2014-10-11T12:15:57Z</time>
      </trkpt>
      <trkpt lat="59.115601" lon="18.274145">
        <ele>19.6</ele>
        <time>2014-10-11T12:15:58Z</time>
      </trkpt>
      <trkpt lat="59.115589" lon="18.274054">
        <ele>19.8</ele>
        <time>2014-10-11T12:15:59Z</time>
      </trkpt>
      <trkpt lat="59.115567" lon="18.273949">
        <ele>19.9</ele>
        <time>2014-10-11T12:16:00Z</time>
      </trkpt>
      <trkpt lat="59.115552" lon="18.273856">
        <ele>20</ele>
        <time>2014-10-11T12:16:01Z</time>
      </trkpt>
      <trkpt lat="59.115538" lon="18.273768">
        <ele>20.1</ele>
        <time>2014-10-11T12:16:02Z</time>
      </trkpt>
      <trkpt lat="59.115527" lon="18.273698">
        <ele>20.1</ele>
        <time>2014-10-11T12:16:03Z</time>
      </trkpt>
      <trkpt lat="59.115514" lon="18.273605">
        <ele>20.1</ele>
        <time>2014-10-11T12:16:04Z</time>
      </trkpt>
      <trkpt lat="59.115508" lon="18.273507">
        <ele>20.2</ele>
        <time>2014-10-11T12:16:05Z</time>
      </trkpt>
      <trkpt lat="59.115484" lon="18.273388">
        <ele>20.1</ele>
        <time>2014-10-11T12:16:06Z</time>
      </trkpt>
      <trkpt lat="59.115479" lon="18.273293">
        <ele>20.2</ele>
        <time>2014-10-11T12:16:07Z</time>
      </trkpt>
      <trkpt lat="59.115465" lon="18.273193">
        <ele>20.2</ele>
        <time>2014-10-11T12:16:08Z</time>
      </trkpt>
      <trkpt lat="59.115439" lon="18.273112">
        <ele>20</ele>
        <time>2014-10-11T12:16:09Z</time>
      </trkpt>
      <trkpt lat="59.11542" lon="18.273017">
        <ele>19.9</ele>
        <time>2014-10-11T12:16:10Z</time>
      </trkpt>
      <trkpt lat="59.115406" lon="18.272901">
        <ele>19.9</ele>
        <time>2014-10-11T12:16:11Z</time>
      </trkpt>
      <trkpt lat="59.115403" lon="18.272805">
        <ele>19.9</ele>
        <time>2014-10-11T12:16:12Z</time>
      </trkpt>
      <trkpt lat="59.115393" lon="18.272719">
        <ele>19.8</ele>
        <time>2014-10-11T12:16:13Z</time>
      </trkpt>
      <trkpt lat="59.11538" lon="18.27262">
        <ele>19.7</ele>
        <time>2014-10-11T12:16:14Z</time>
      </trkpt>
      <trkpt lat="59.115371" lon="18.272537">
        <ele>19.6</ele>
        <time>2014-10-11T12:16:15Z</time>
      </trkpt>
      <trkpt lat="59.11535" lon="18.272437">
        <ele>19.5</ele>
        <time>2014-10-11T12:16:16Z</time>
      </trkpt>
      <trkpt lat="59.115354" lon="18.272338">
        <ele>19.5</ele>
        <time>2014-10-11T12:16:17Z</time>
      </trkpt>
      <trkpt lat="59.115346" lon="18.272251">
        <ele>19.5</ele>
        <time>2014-10-11T12:16:18Z</time>
      </trkpt>
      <trkpt lat="59.115348" lon="18.272195">
        <ele>19.5</ele>
        <time>2014-10-11T12:16:19Z</time>
      </trkpt>
      <trkpt lat="59.115341" lon="18.27209">
        <ele>19.5</ele>
        <time>2014-10-11T12:16:20Z</time>
      </trkpt>
      <trkpt lat="59.115319" lon="18.271957">
        <ele>19</ele>
        <time>2014-10-11T12:16:21Z</time>
      </trkpt>
      <trkpt lat="59.115304" lon="18.27184">
        <ele>18.6</ele>
        <time>2014-10-11T12:16:22Z</time>
      </trkpt>
      <trkpt lat="59.115298" lon="18.27173">
        <ele>18.4</ele>
        <time>2014-10-11T12:16:23Z</time>
      </trkpt>
      <trkpt lat="59.115303" lon="18.271614">
        <ele>18.1</ele>
        <time>2014-10-11T12:16:24Z</time>
      </trkpt>
      <trkpt lat="59.115297" lon="18.271492">
        <ele>17.8</ele>
        <time>2014-10-11T12:16:25Z</time>
      </trkpt>
      <trkpt lat="59.115254" lon="18.271347">
        <ele>17.2</ele>
        <time>2014-10-11T12:16:26Z</time>
      </trkpt>
      <trkpt lat="59.115234" lon="18.271202">
        <ele>16.8</ele>
        <time>2014-10-11T12:16:27Z</time>
      </trkpt>
      <trkpt lat="59.115234" lon="18.271061">
        <ele>16.5</ele>
        <time>2014-10-11T12:16:28Z</time>
      </trkpt>
      <trkpt lat="59.115225" lon="18.270932">
        <ele>16.3</ele>
        <time>2014-10-11T12:16:29Z</time>
      </trkpt>
      <trkpt lat="59.115176" lon="18.270691">
        <ele>15.6</ele>
        <time>2014-10-11T12:16:30Z</time>
      </trkpt>
      <trkpt lat="59.115163" lon="18.270536">
        <ele>15.3</ele>
        <time>2014-10-11T12:16:31Z</time>
      </trkpt>
      <trkpt lat="59.115178" lon="18.270364">
        <ele>15</ele>
        <time>2014-10-11T12:16:32Z</time>
      </trkpt>
      <trkpt lat="59.11517" lon="18.270198">
        <ele>14.7</ele>
        <time>2014-10-11T12:16:33Z</time>
      </trkpt>
      <trkpt lat="59.115153" lon="18.269981">
        <ele>14.2</ele>
        <time>2014-10-11T12:16:34Z</time>
      </trkpt>
      <trkpt lat="59.115155" lon="18.269826">
        <ele>13.9</ele>
        <time>2014-10-11T12:16:35Z</time>
      </trkpt>
      <trkpt lat="59.115153" lon="18.269658">
        <ele>13.5</ele>
        <time>2014-10-11T12:16:36Z</time>
      </trkpt>
      <trkpt lat="59.11514" lon="18.269486">
        <ele>13.3</ele>
        <time>2014-10-11T12:16:37Z</time>
      </trkpt>
      <trkpt lat="59.115141" lon="18.269334">
        <ele>13.1</ele>
        <time>2014-10-11T12:16:38Z</time>
      </trkpt>
      <trkpt lat="59.115124" lon="18.269153">
        <ele>13</ele>
        <time>2014-10-11T12:16:39Z</time>
      </trkpt>
      <trkpt lat="59.115121" lon="18.269007">
        <ele>12.8</ele>
        <time>2014-10-11T12:16:40Z</time>
      </trkpt>
      <trkpt lat="59.115112" lon="18.26884">
        <ele>12.7</ele>
        <time>2014-10-11T12:16:41Z</time>
      </trkpt>
      <trkpt lat="59.115102" lon="18.268701">
        <ele>12.8</ele>
        <time>2014-10-11T12:16:42Z</time>
      </trkpt>
      <trkpt lat="59.115096" lon="18.268546">
        <ele>13.3</ele>
        <time>2014-10-11T12:16:43Z</time>
      </trkpt>
      <trkpt lat="59.115083" lon="18.268383">
        <ele>13.7</ele>
        <time>2014-10-11T12:16:44Z</time>
      </trkpt>
      <trkpt lat="59.115072" lon="18.268229">
        <ele>14.2</ele>
        <time>2014-10-11T12:16:45Z</time>
      </trkpt>
      <trkpt lat="59.11506" lon="18.268064">
        <ele>14.7</ele>
        <time>2014-10-11T12:16:46Z</time>
      </trkpt>
      <trkpt lat="59.115032" lon="18.267983">
        <ele>14.9</ele>
        <time>2014-10-11T12:16:47Z</time>
      </trkpt>
      <trkpt lat="59.115028" lon="18.26782">
        <ele>15.2</ele>
        <time>2014-10-11T12:16:48Z</time>
      </trkpt>
      <trkpt lat="59.115019" lon="18.267655">
        <ele>15.5</ele>
        <time>2014-10-11T12:16:49Z</time>
      </trkpt>
      <trkpt lat="59.115012" lon="18.267504">
        <ele>15.8</ele>
        <time>2014-10-11T12:16:50Z</time>
      </trkpt>
      <trkpt lat="59.115003" lon="18.267334">
        <ele>16.1</ele>
        <time>2014-10-11T12:16:51Z</time>
      </trkpt>
      <trkpt lat="59.11499" lon="18.267177">
        <ele>16.3</ele>
        <time>2014-10-11T12:16:52Z</time>
      </trkpt>
      <trkpt lat="59.114991" lon="18.267032">
        <ele>16.6</ele>
        <time>2014-10-11T12:16:53Z</time>
      </trkpt>
      <trkpt lat="59.11499" lon="18.266842">
        <ele>16.9</ele>
        <time>2014-10-11T12:16:55Z</time>
      </trkpt>
      <trkpt lat="59.114975" lon="18.266702">
        <ele>17.1</ele>
        <time>2014-10-11T12:16:56Z</time>
      </trkpt>
      <trkpt lat="59.11496" lon="18.266572">
        <ele>17.2</ele>
        <time>2014-10-11T12:16:57Z</time>
      </trkpt>
      <trkpt lat="59.114952" lon="18.266453">
        <ele>17.4</ele>
        <time>2014-10-11T12:16:58Z</time>
      </trkpt>
      <trkpt lat="59.114937" lon="18.266335">
        <ele>17.6</ele>
        <time>2014-10-11T12:16:59Z</time>
      </trkpt>
      <trkpt lat="59.11493" lon="18.266188">
        <ele>17.7</ele>
        <time>2014-10-11T12:17:00Z</time>
      </trkpt>
      <trkpt lat="59.114929" lon="18.266103">
        <ele>17.8</ele>
        <time>2014-10-11T12:17:01Z</time>
      </trkpt>
      <trkpt lat="59.114921" lon="18.265998">
        <ele>17.9</ele>
        <time>2014-10-11T12:17:02Z</time>
      </trkpt>
      <trkpt lat="59.114933" lon="18.265899">
        <ele>18</ele>
        <time>2014-10-11T12:17:03Z</time>
      </trkpt>
      <trkpt lat="59.114935" lon="18.265804">
        <ele>18.1</ele>
        <time>2014-10-11T12:17:04Z</time>
      </trkpt>
      <trkpt lat="59.114922" lon="18.265675">
        <ele>18.2</ele>
        <time>2014-10-11T12:17:05Z</time>
      </trkpt>
      <trkpt lat="59.114915" lon="18.265566">
        <ele>18.2</ele>
        <time>2014-10-11T12:17:06Z</time>
      </trkpt>
      <trkpt lat="59.114923" lon="18.265454">
        <ele>18.4</ele>
        <time>2014-10-11T12:17:07Z</time>
      </trkpt>
      <trkpt lat="59.114905" lon="18.265346">
        <ele>18.3</ele>
        <time>2014-10-11T12:17:08Z</time>
      </trkpt>
      <trkpt lat="59.114915" lon="18.265245">
        <ele>18.3</ele>
        <time>2014-10-11T12:17:09Z</time>
      </trkpt>
      <trkpt lat="59.114917" lon="18.265122">
        <ele>18.2</ele>
        <time>2014-10-11T12:17:10Z</time>
      </trkpt>
      <trkpt lat="59.1149" lon="18.265001">
        <ele>18</ele>
        <time>2014-10-11T12:17:11Z</time>
      </trkpt>
      <trkpt lat="59.114904" lon="18.264876">
        <ele>17.9</ele>
        <time>2014-10-11T12:17:12Z</time>
      </trkpt>
      <trkpt lat="59.114921" lon="18.264789">
        <ele>18</ele>
        <time>2014-10-11T12:17:13Z</time>
      </trkpt>
      <trkpt lat="59.114924" lon="18.264682">
        <ele>17.9</ele>
        <time>2014-10-11T12:17:14Z</time>
      </trkpt>
      <trkpt lat="59.114926" lon="18.264568">
        <ele>17.9</ele>
        <time>2014-10-11T12:17:15Z</time>
      </trkpt>
      <trkpt lat="59.114941" lon="18.264447">
        <ele>18</ele>
        <time>2014-10-11T12:17:16Z</time>
      </trkpt>
      <trkpt lat="59.114944" lon="18.264321">
        <ele>18</ele>
        <time>2014-10-11T12:17:17Z</time>
      </trkpt>
      <trkpt lat="59.114949" lon="18.264223">
        <ele>18.1</ele>
        <time>2014-10-11T12:17:18Z</time>
      </trkpt>
      <trkpt lat="59.114951" lon="18.264128">
        <ele>18.1</ele>
        <time>2014-10-11T12:17:19Z</time>
      </trkpt>
      <trkpt lat="59.114962" lon="18.263987">
        <ele>18.2</ele>
        <time>2014-10-11T12:17:20Z</time>
      </trkpt>
      <trkpt lat="59.114964" lon="18.263886">
        <ele>18.2</ele>
        <time>2014-10-11T12:17:21Z</time>
      </trkpt>
      <trkpt lat="59.114991" lon="18.263807">
        <ele>18.4</ele>
        <time>2014-10-11T12:17:22Z</time>
      </trkpt>
      <trkpt lat="59.115012" lon="18.263705">
        <ele>18.7</ele>
        <time>2014-10-11T12:17:23Z</time>
      </trkpt>
      <trkpt lat="59.115033" lon="18.263602">
        <ele>19.1</ele>
        <time>2014-10-11T12:17:24Z</time>
      </trkpt>
      <trkpt lat="59.115059" lon="18.263519">
        <ele>19.4</ele>
        <time>2014-10-11T12:17:25Z</time>
      </trkpt>
      <trkpt lat="59.115082" lon="18.263425">
        <ele>19.8</ele>
        <time>2014-10-11T12:17:26Z</time>
      </trkpt>
      <trkpt lat="59.115112" lon="18.26332">
        <ele>20.3</ele>
        <time>2014-10-11T12:17:27Z</time>
      </trkpt>
      <trkpt lat="59.115151" lon="18.263224">
        <ele>20.8</ele>
        <time>2014-10-11T12:17:28Z</time>
      </trkpt>
      <trkpt lat="59.115174" lon="18.263136">
        <ele>21.2</ele>
        <time>2014-10-11T12:17:29Z</time>
      </trkpt>
      <trkpt lat="59.115199" lon="18.263066">
        <ele>21.6</ele>
        <time>2014-10-11T12:17:30Z</time>
      </trkpt>
      <trkpt lat="59.115231" lon="18.262988">
        <ele>22.1</ele>
        <time>2014-10-11T12:17:31Z</time>
      </trkpt>
      <trkpt lat="59.115257" lon="18.262908">
        <ele>22.5</ele>
        <time>2014-10-11T12:17:32Z</time>
      </trkpt>
      <trkpt lat="59.115298" lon="18.262858">
        <ele>23</ele>
        <time>2014-10-11T12:17:33Z</time>
      </trkpt>
      <trkpt lat="59.115336" lon="18.262779">
        <ele>23.5</ele>
        <time>2014-10-11T12:17:34Z</time>
      </trkpt>
      <trkpt lat="59.115358" lon="18.262708">
        <ele>23.9</ele>
        <time>2014-10-11T12:17:35Z</time>
      </trkpt>
      <trkpt lat="59.11539" lon="18.262646">
        <ele>24.4</ele>
        <time>2014-10-11T12:17:36Z</time>
      </trkpt>
      <trkpt lat="59.115427" lon="18.262557">
        <ele>24.9</ele>
        <time>2014-10-11T12:17:37Z</time>
      </trkpt>
      <trkpt lat="59.115466" lon="18.262482">
        <ele>25.2</ele>
        <time>2014-10-11T12:17:38Z</time>
      </trkpt>
      <trkpt lat="59.115496" lon="18.262427">
        <ele>25.4</ele>
        <time>2014-10-11T12:17:39Z</time>
      </trkpt>
      <trkpt lat="59.115529" lon="18.262363">
        <ele>25.7</ele>
        <time>2014-10-11T12:17:40Z</time>
      </trkpt>
      <trkpt lat="59.115563" lon="18.262288">
        <ele>25.9</ele>
        <time>2014-10-11T12:17:41Z</time>
      </trkpt>
      <trkpt lat="59.115601" lon="18.262226">
        <ele>26.2</ele>
        <time>2014-10-11T12:17:42Z</time>
      </trkpt>
      <trkpt lat="59.115633" lon="18.262157">
        <ele>26.4</ele>
        <time>2014-10-11T12:17:43Z</time>
      </trkpt>
      <trkpt lat="59.115668" lon="18.262068">
        <ele>26.6</ele>
        <time>2014-10-11T12:17:44Z</time>
      </trkpt>
      <trkpt lat="59.115704" lon="18.261999">
        <ele>26.7</ele>
        <time>2014-10-11T12:17:45Z</time>
      </trkpt>
      <trkpt lat="59.115741" lon="18.261934">
        <ele>26.8</ele>
        <time>2014-10-11T12:17:46Z</time>
      </trkpt>
      <trkpt lat="59.115773" lon="18.261867">
        <ele>26.9</ele>
        <time>2014-10-11T12:17:47Z</time>
      </trkpt>
      <trkpt lat="59.115802" lon="18.261792">
        <ele>26.9</ele>
        <time>2014-10-11T12:17:48Z</time>
      </trkpt>
      <trkpt lat="59.116072" lon="18.261164">
        <ele>27.6</ele>
        <time>2014-10-11T12:17:55Z</time>
      </trkpt>
      <trkpt lat="59.116094" lon="18.261094">
        <ele>27.6</ele>
        <time>2014-10-11T12:17:56Z</time>
      </trkpt>
      <trkpt lat="59.116121" lon="18.261003">
        <ele>27.7</ele>
        <time>2014-10-11T12:17:57Z</time>
      </trkpt>
      <trkpt lat="59.116139" lon="18.260896">
        <ele>27.7</ele>
        <time>2014-10-11T12:17:58Z</time>
      </trkpt>
      <trkpt lat="59.11616" lon="18.260802">
        <ele>27.8</ele>
        <time>2014-10-11T12:17:59Z</time>
      </trkpt>
      <trkpt lat="59.116186" lon="18.26068">
        <ele>27.8</ele>
        <time>2014-10-11T12:18:00Z</time>
      </trkpt>
      <trkpt lat="59.116225" lon="18.260588">
        <ele>27.9</ele>
        <time>2014-10-11T12:18:01Z</time>
      </trkpt>
      <trkpt lat="59.116249" lon="18.260469">
        <ele>28</ele>
        <time>2014-10-11T12:18:02Z</time>
      </trkpt>
      <trkpt lat="59.116272" lon="18.260351">
        <ele>28</ele>
        <time>2014-10-11T12:18:03Z</time>
      </trkpt>
      <trkpt lat="59.116292" lon="18.260244">
        <ele>28</ele>
        <time>2014-10-11T12:18:04Z</time>
      </trkpt>
      <trkpt lat="59.116333" lon="18.260113">
        <ele>28.1</ele>
        <time>2014-10-11T12:18:05Z</time>
      </trkpt>
      <trkpt lat="59.116361" lon="18.260015">
        <ele>28.1</ele>
        <time>2014-10-11T12:18:06Z</time>
      </trkpt>
      <trkpt lat="59.116387" lon="18.259905">
        <ele>28.1</ele>
        <time>2014-10-11T12:18:07Z</time>
      </trkpt>
      <trkpt lat="59.116413" lon="18.259762">
        <ele>28</ele>
        <time>2014-10-11T12:18:08Z</time>
      </trkpt>
      <trkpt lat="59.116445" lon="18.259623">
        <ele>28</ele>
        <time>2014-10-11T12:18:09Z</time>
      </trkpt>
      <trkpt lat="59.116484" lon="18.259505">
        <ele>28</ele>
        <time>2014-10-11T12:18:10Z</time>
      </trkpt>
      <trkpt lat="59.116512" lon="18.259369">
        <ele>27.9</ele>
        <time>2014-10-11T12:18:11Z</time>
      </trkpt>
      <trkpt lat="59.116526" lon="18.259198">
        <ele>27.8</ele>
        <time>2014-10-11T12:18:12Z</time>
      </trkpt>
      <trkpt lat="59.116548" lon="18.259067">
        <ele>27.8</ele>
        <time>2014-10-11T12:18:13Z</time>
      </trkpt>
      <trkpt lat="59.116581" lon="18.258929">
        <ele>27.7</ele>
        <time>2014-10-11T12:18:14Z</time>
      </trkpt>
      <trkpt lat="59.116605" lon="18.258796">
        <ele>27.6</ele>
        <time>2014-10-11T12:18:15Z</time>
      </trkpt>
      <trkpt lat="59.116635" lon="18.258663">
        <ele>27.1</ele>
        <time>2014-10-11T12:18:16Z</time>
      </trkpt>
      <trkpt lat="59.116667" lon="18.258522">
        <ele>26.4</ele>
        <time>2014-10-11T12:18:17Z</time>
      </trkpt>
      <trkpt lat="59.116701" lon="18.25838">
        <ele>25.7</ele>
        <time>2014-10-11T12:18:18Z</time>
      </trkpt>
      <trkpt lat="59.116733" lon="18.258229">
        <ele>24.9</ele>
        <time>2014-10-11T12:18:19Z</time>
      </trkpt>
      <trkpt lat="59.116765" lon="18.258089">
        <ele>24.2</ele>
        <time>2014-10-11T12:18:20Z</time>
      </trkpt>
      <trkpt lat="59.116771" lon="18.257947">
        <ele>23.5</ele>
        <time>2014-10-11T12:18:21Z</time>
      </trkpt>
      <trkpt lat="59.116796" lon="18.25781">
        <ele>22.9</ele>
        <time>2014-10-11T12:18:22Z</time>
      </trkpt>
      <trkpt lat="59.116831" lon="18.257674">
        <ele>22.3</ele>
        <time>2014-10-11T12:18:23Z</time>
      </trkpt>
      <trkpt lat="59.11687" lon="18.257557">
        <ele>21.9</ele>
        <time>2014-10-11T12:18:24Z</time>
      </trkpt>
      <trkpt lat="59.116909" lon="18.257422">
        <ele>21.3</ele>
        <time>2014-10-11T12:18:25Z</time>
      </trkpt>
      <trkpt lat="59.11694" lon="18.257288">
        <ele>20.8</ele>
        <time>2014-10-11T12:18:26Z</time>
      </trkpt>
      <trkpt lat="59.116969" lon="18.257162">
        <ele>20.3</ele>
        <time>2014-10-11T12:18:27Z</time>
      </trkpt>
      <trkpt lat="59.116997" lon="18.257044">
        <ele>20</ele>
        <time>2014-10-11T12:18:28Z</time>
      </trkpt>
      <trkpt lat="59.117024" lon="18.256983">
        <ele>20</ele>
        <time>2014-10-11T12:18:29Z</time>
      </trkpt>
      <trkpt lat="59.117051" lon="18.256873">
        <ele>20</ele>
        <time>2014-10-11T12:18:30Z</time>
      </trkpt>
      <trkpt lat="59.117072" lon="18.25676">
        <ele>20</ele>
        <time>2014-10-11T12:18:31Z</time>
      </trkpt>
      <trkpt lat="59.117116" lon="18.256683">
        <ele>20.1</ele>
        <time>2014-10-11T12:18:32Z</time>
      </trkpt>
      <trkpt lat="59.11716" lon="18.256568">
        <ele>20.3</ele>
        <time>2014-10-11T12:18:33Z</time>
      </trkpt>
      <trkpt lat="59.117204" lon="18.256485">
        <ele>20.5</ele>
        <time>2014-10-11T12:18:34Z</time>
      </trkpt>
      <trkpt lat="59.11725" lon="18.256388">
        <ele>20.6</ele>
        <time>2014-10-11T12:18:35Z</time>
      </trkpt>
      <trkpt lat="59.1173" lon="18.256282">
        <ele>20.8</ele>
        <time>2014-10-11T12:18:36Z</time>
      </trkpt>
      <trkpt lat="59.117355" lon="18.256198">
        <ele>21</ele>
        <time>2014-10-11T12:18:37Z</time>
      </trkpt>
      <trkpt lat="59.117415" lon="18.2561">
        <ele>21.1</ele>
        <time>2014-10-11T12:18:38Z</time>
      </trkpt>
      <trkpt lat="59.117476" lon="18.256011">
        <ele>21.3</ele>
        <time>2014-10-11T12:18:39Z</time>
      </trkpt>
      <trkpt lat="59.117543" lon="18.255901">
        <ele>21.4</ele>
        <time>2014-10-11T12:18:40Z</time>
      </trkpt>
      <trkpt lat="59.117615" lon="18.255779">
        <ele>21.6</ele>
        <time>2014-10-11T12:18:41Z</time>
      </trkpt>
      <trkpt lat="59.11768" lon="18.255675">
        <ele>21.7</ele>
        <time>2014-10-11T12:18:42Z</time>
      </trkpt>
      <trkpt lat="59.11775" lon="18.255563">
        <ele>21.7</ele>
        <time>2014-10-11T12:18:43Z</time>
      </trkpt>
      <trkpt lat="59.117821" lon="18.255453">
        <ele>21.8</ele>
        <time>2014-10-11T12:18:44Z</time>
      </trkpt>
      <trkpt lat="59.11789" lon="18.255339">
        <ele>22</ele>
        <time>2014-10-11T12:18:45Z</time>
      </trkpt>
      <trkpt lat="59.117966" lon="18.255219">
        <ele>22.1</ele>
        <time>2014-10-11T12:18:46Z</time>
      </trkpt>
      <trkpt lat="59.118026" lon="18.255106">
        <ele>22</ele>
        <time>2014-10-11T12:18:47Z</time>
      </trkpt>
      <trkpt lat="59.118099" lon="18.254994">
        <ele>21.8</ele>
        <time>2014-10-11T12:18:48Z</time>
      </trkpt>
      <trkpt lat="59.118165" lon="18.254876">
        <ele>21.6</ele>
        <time>2014-10-11T12:18:49Z</time>
      </trkpt>
      <trkpt lat="59.118227" lon="18.254769">
        <ele>21.2</ele>
        <time>2014-10-11T12:18:50Z</time>
      </trkpt>
      <trkpt lat="59.118295" lon="18.25465">
        <ele>20.8</ele>
        <time>2014-10-11T12:18:51Z</time>
      </trkpt>
      <trkpt lat="59.118369" lon="18.254517">
        <ele>20.2</ele>
        <time>2014-10-11T12:18:52Z</time>
      </trkpt>
      <trkpt lat="59.118425" lon="18.254384">
        <ele>19.7</ele>
        <time>2014-10-11T12:18:53Z</time>
      </trkpt>
      <trkpt lat="59.118498" lon="18.254219">
        <ele>18.9</ele>
        <time>2014-10-11T12:18:54Z</time>
      </trkpt>
      <trkpt lat="59.118558" lon="18.254061">
        <ele>18.2</ele>
        <time>2014-10-11T12:18:55Z</time>
      </trkpt>
      <trkpt lat="59.118618" lon="18.253887">
        <ele>17.4</ele>
        <time>2014-10-11T12:18:56Z</time>
      </trkpt>
      <trkpt lat="59.118659" lon="18.253703">
        <ele>16.4</ele>
        <time>2014-10-11T12:18:57Z</time>
      </trkpt>
      <trkpt lat="59.118703" lon="18.253539">
        <ele>14.9</ele>
        <time>2014-10-11T12:18:58Z</time>
      </trkpt>
      <trkpt lat="59.118754" lon="18.253374">
        <ele>13.3</ele>
        <time>2014-10-11T12:18:59Z</time>
      </trkpt>
      <trkpt lat="59.118811" lon="18.25322">
        <ele>12.4</ele>
        <time>2014-10-11T12:19:00Z</time>
      </trkpt>
      <trkpt lat="59.118867" lon="18.253058">
        <ele>11.6</ele>
        <time>2014-10-11T12:19:01Z</time>
      </trkpt>
      <trkpt lat="59.118927" lon="18.252881">
        <ele>10.9</ele>
        <time>2014-10-11T12:19:02Z</time>
      </trkpt>
      <trkpt lat="59.11897" lon="18.252746">
        <ele>10.5</ele>
        <time>2014-10-11T12:19:03Z</time>
      </trkpt>
      <trkpt lat="59.119028" lon="18.252588">
        <ele>10.2</ele>
        <time>2014-10-11T12:19:04Z</time>
      </trkpt>
      <trkpt lat="59.11908" lon="18.252423">
        <ele>10</ele>
        <time>2014-10-11T12:19:05Z</time>
      </trkpt>
      <trkpt lat="59.119122" lon="18.252274">
        <ele>9.8</ele>
        <time>2014-10-11T12:19:06Z</time>
      </trkpt>
      <trkpt lat="59.119174" lon="18.252128">
        <ele>9.7</ele>
        <time>2014-10-11T12:19:07Z</time>
      </trkpt>
      <trkpt lat="59.119228" lon="18.251982">
        <ele>9.9</ele>
        <time>2014-10-11T12:19:08Z</time>
      </trkpt>
      <trkpt lat="59.119269" lon="18.251873">
        <ele>10</ele>
        <time>2014-10-11T12:19:09Z</time>
      </trkpt>
      <trkpt lat="59.119326" lon="18.251737">
        <ele>10.2</ele>
        <time>2014-10-11T12:19:10Z</time>
      </trkpt>
      <trkpt lat="59.119379" lon="18.251638">
        <ele>10.5</ele>
        <time>2014-10-11T12:19:11Z</time>
      </trkpt>
      <trkpt lat="59.119426" lon="18.251539">
        <ele>10.6</ele>
        <time>2014-10-11T12:19:12Z</time>
      </trkpt>
      <trkpt lat="59.119489" lon="18.251431">
        <ele>10.8</ele>
        <time>2014-10-11T12:19:13Z</time>
      </trkpt>
      <trkpt lat="59.119532" lon="18.251309">
        <ele>10.8</ele>
        <time>2014-10-11T12:19:14Z</time>
      </trkpt>
      <trkpt lat="59.1196" lon="18.251206">
        <ele>11</ele>
        <time>2014-10-11T12:19:15Z</time>
      </trkpt>
      <trkpt lat="59.119667" lon="18.25112">
        <ele>11.1</ele>
        <time>2014-10-11T12:19:16Z</time>
      </trkpt>
      <trkpt lat="59.119726" lon="18.251029">
        <ele>11.1</ele>
        <time>2014-10-11T12:19:17Z</time>
      </trkpt>
      <trkpt lat="59.119794" lon="18.250922">
        <ele>11.1</ele>
        <time>2014-10-11T12:19:18Z</time>
      </trkpt>
      <trkpt lat="59.119846" lon="18.250824">
        <ele>11</ele>
        <time>2014-10-11T12:19:19Z</time>
      </trkpt>
      <trkpt lat="59.119896" lon="18.250712">
        <ele>10.8</ele>
        <time>2014-10-11T12:19:20Z</time>
      </trkpt>
      <trkpt lat="59.119947" lon="18.250593">
        <ele>10.6</ele>
        <time>2014-10-11T12:19:21Z</time>
      </trkpt>
      <trkpt lat="59.119985" lon="18.250473">
        <ele>10.2</ele>
        <time>2014-10-11T12:19:22Z</time>
      </trkpt>
      <trkpt lat="59.120035" lon="18.250338">
        <ele>10.1</ele>
        <time>2014-10-11T12:19:23Z</time>
      </trkpt>
      <trkpt lat="59.12008" lon="18.250185">
        <ele>10.2</ele>
        <time>2014-10-11T12:19:24Z</time>
      </trkpt>
      <trkpt lat="59.120114" lon="18.25004">
        <ele>10.1</ele>
        <time>2014-10-11T12:19:25Z</time>
      </trkpt>
      <trkpt lat="59.120149" lon="18.249867">
        <ele>10</ele>
        <time>2014-10-11T12:19:26Z</time>
      </trkpt>
      <trkpt lat="59.120178" lon="18.249737">
        <ele>9.9</ele>
        <time>2014-10-11T12:19:27Z</time>
      </trkpt>
      <trkpt lat="59.120219" lon="18.249583">
        <ele>9.8</ele>
        <time>2014-10-11T12:19:28Z</time>
      </trkpt>
      <trkpt lat="59.120248" lon="18.249433">
        <ele>9.7</ele>
        <time>2014-10-11T12:19:29Z</time>
      </trkpt>
      <trkpt lat="59.120289" lon="18.249285">
        <ele>9.5</ele>
        <time>2014-10-11T12:19:30Z</time>
      </trkpt>
      <trkpt lat="59.120324" lon="18.249132">
        <ele>9.4</ele>
        <time>2014-10-11T12:19:31Z</time>
      </trkpt>
      <trkpt lat="59.12036" lon="18.248979">
        <ele>9.3</ele>
        <time>2014-10-11T12:19:32Z</time>
      </trkpt>
      <trkpt lat="59.120394" lon="18.248845">
        <ele>9.1</ele>
        <time>2014-10-11T12:19:33Z</time>
      </trkpt>
      <trkpt lat="59.120423" lon="18.248708">
        <ele>9.2</ele>
        <time>2014-10-11T12:19:34Z</time>
      </trkpt>
      <trkpt lat="59.120452" lon="18.24856">
        <ele>9.9</ele>
        <time>2014-10-11T12:19:35Z</time>
      </trkpt>
      <trkpt lat="59.12048" lon="18.248429">
        <ele>10.5</ele>
        <time>2014-10-11T12:19:36Z</time>
      </trkpt>
      <trkpt lat="59.12051" lon="18.248293">
        <ele>11.1</ele>
        <time>2014-10-11T12:19:37Z</time>
      </trkpt>
      <trkpt lat="59.120533" lon="18.248167">
        <ele>11.6</ele>
        <time>2014-10-11T12:19:38Z</time>
      </trkpt>
      <trkpt lat="59.120553" lon="18.248032">
        <ele>12.1</ele>
        <time>2014-10-11T12:19:39Z</time>
      </trkpt>
      <trkpt lat="59.120582" lon="18.247908">
        <ele>12.6</ele>
        <time>2014-10-11T12:19:40Z</time>
      </trkpt>
      <trkpt lat="59.120605" lon="18.247801">
        <ele>12.9</ele>
        <time>2014-10-11T12:19:41Z</time>
      </trkpt>
      <trkpt lat="59.120631" lon="18.247681">
        <ele>13.3</ele>
        <time>2014-10-11T12:19:42Z</time>
      </trkpt>
      <trkpt lat="59.120652" lon="18.247548">
        <ele>13.6</ele>
        <time>2014-10-11T12:19:43Z</time>
      </trkpt>
      <trkpt lat="59.120679" lon="18.247426">
        <ele>13.9</ele>
        <time>2014-10-11T12:19:44Z</time>
      </trkpt>
      <trkpt lat="59.120706" lon="18.247309">
        <ele>14.2</ele>
        <time>2014-10-11T12:19:45Z</time>
      </trkpt>
      <trkpt lat="59.120728" lon="18.247198">
        <ele>14.5</ele>
        <time>2014-10-11T12:19:46Z</time>
      </trkpt>
      <trkpt lat="59.120746" lon="18.247083">
        <ele>14.8</ele>
        <time>2014-10-11T12:19:47Z</time>
      </trkpt>
      <trkpt lat="59.120764" lon="18.246971">
        <ele>14.6</ele>
        <time>2014-10-11T12:19:48Z</time>
      </trkpt>
      <trkpt lat="59.120783" lon="18.246862">
        <ele>14.5</ele>
        <time>2014-10-11T12:19:49Z</time>
      </trkpt>
      <trkpt lat="59.120805" lon="18.246752">
        <ele>14.3</ele>
        <time>2014-10-11T12:19:50Z</time>
      </trkpt>
      <trkpt lat="59.120823" lon="18.246661">
        <ele>14.2</ele>
        <time>2014-10-11T12:19:51Z</time>
      </trkpt>
      <trkpt lat="59.120841" lon="18.246565">
        <ele>14.1</ele>
        <time>2014-10-11T12:19:52Z</time>
      </trkpt>
      <trkpt lat="59.120862" lon="18.246462">
        <ele>14</ele>
        <time>2014-10-11T12:19:53Z</time>
      </trkpt>
      <trkpt lat="59.120879" lon="18.246378">
        <ele>13.9</ele>
        <time>2014-10-11T12:19:54Z</time>
      </trkpt>
      <trkpt lat="59.120896" lon="18.246281">
        <ele>13.8</ele>
        <time>2014-10-11T12:19:55Z</time>
      </trkpt>
      <trkpt lat="59.12091" lon="18.246167">
        <ele>13.7</ele>
        <time>2014-10-11T12:19:56Z</time>
      </trkpt>
      <trkpt lat="59.120916" lon="18.246069">
        <ele>13.7</ele>
        <time>2014-10-11T12:19:57Z</time>
      </trkpt>
      <trkpt lat="59.120916" lon="18.245965">
        <ele>13.7</ele>
        <time>2014-10-11T12:19:58Z</time>
      </trkpt>
      <trkpt lat="59.120921" lon="18.245855">
        <ele>13.6</ele>
        <time>2014-10-11T12:19:59Z</time>
      </trkpt>
      <trkpt lat="59.120929" lon="18.245747">
        <ele>13.6</ele>
        <time>2014-10-11T12:20:00Z</time>
      </trkpt>
      <trkpt lat="59.120934" lon="18.245629">
        <ele>13.6</ele>
        <time>2014-10-11T12:20:01Z</time>
      </trkpt>
      <trkpt lat="59.12094" lon="18.245527">
        <ele>13.6</ele>
        <time>2014-10-11T12:20:02Z</time>
      </trkpt>
      <trkpt lat="59.120949" lon="18.24543">
        <ele>13.6</ele>
        <time>2014-10-11T12:20:03Z</time>
      </trkpt>
      <trkpt lat="59.120946" lon="18.245307">
        <ele>13.5</ele>
        <time>2014-10-11T12:20:04Z</time>
      </trkpt>
      <trkpt lat="59.120939" lon="18.245174">
        <ele>13.4</ele>
        <time>2014-10-11T12:20:05Z</time>
      </trkpt>
      <trkpt lat="59.120934" lon="18.245037">
        <ele>13.3</ele>
        <time>2014-10-11T12:20:06Z</time>
      </trkpt>
      <trkpt lat="59.120934" lon="18.244912">
        <ele>13.3</ele>
        <time>2014-10-11T12:20:07Z</time>
      </trkpt>
      <trkpt lat="59.120923" lon="18.244795">
        <ele>13.1</ele>
        <time>2014-10-11T12:20:08Z</time>
      </trkpt>
      <trkpt lat="59.120912" lon="18.244665">
        <ele>13</ele>
        <time>2014-10-11T12:20:09Z</time>
      </trkpt>
      <trkpt lat="59.120906" lon="18.244545">
        <ele>12.9</ele>
        <time>2014-10-11T12:20:10Z</time>
      </trkpt>
      <trkpt lat="59.120901" lon="18.244418">
        <ele>12.8</ele>
        <time>2014-10-11T12:20:11Z</time>
      </trkpt>
      <trkpt lat="59.120895" lon="18.244288">
        <ele>12.7</ele>
        <time>2014-10-11T12:20:12Z</time>
      </trkpt>
      <trkpt lat="59.120887" lon="18.244179">
        <ele>12.6</ele>
        <time>2014-10-11T12:20:13Z</time>
      </trkpt>
      <trkpt lat="59.120876" lon="18.244063">
        <ele>12.5</ele>
        <time>2014-10-11T12:20:14Z</time>
      </trkpt>
      <trkpt lat="59.120863" lon="18.243958">
        <ele>12.3</ele>
        <time>2014-10-11T12:20:15Z</time>
      </trkpt>
      <trkpt lat="59.12085" lon="18.243849">
        <ele>12.2</ele>
        <time>2014-10-11T12:20:16Z</time>
      </trkpt>
      <trkpt lat="59.120829" lon="18.243727">
        <ele>12</ele>
        <time>2014-10-11T12:20:17Z</time>
      </trkpt>
      <trkpt lat="59.120816" lon="18.243615">
        <ele>12.2</ele>
        <time>2014-10-11T12:20:18Z</time>
      </trkpt>
      <trkpt lat="59.120797" lon="18.24349">
        <ele>12.4</ele>
        <time>2014-10-11T12:20:19Z</time>
      </trkpt>
      <trkpt lat="59.120776" lon="18.243374">
        <ele>12.6</ele>
        <time>2014-10-11T12:20:20Z</time>
      </trkpt>
      <trkpt lat="59.120759" lon="18.243253">
        <ele>12.8</ele>
        <time>2014-10-11T12:20:21Z</time>
      </trkpt>
      <trkpt lat="59.120743" lon="18.243136">
        <ele>13</ele>
        <time>2014-10-11T12:20:22Z</time>
      </trkpt>
      <trkpt lat="59.120726" lon="18.243025">
        <ele>13.2</ele>
        <time>2014-10-11T12:20:23Z</time>
      </trkpt>
      <trkpt lat="59.120708" lon="18.242906">
        <ele>13.4</ele>
        <time>2014-10-11T12:20:24Z</time>
      </trkpt>
      <trkpt lat="59.120679" lon="18.242783">
        <ele>13.6</ele>
        <time>2014-10-11T12:20:25Z</time>
      </trkpt>
      <trkpt lat="59.120651" lon="18.242642">
        <ele>13.9</ele>
        <time>2014-10-11T12:20:26Z</time>
      </trkpt>
      <trkpt lat="59.120625" lon="18.242518">
        <ele>14.2</ele>
        <time>2014-10-11T12:20:27Z</time>
      </trkpt>
      <trkpt lat="59.120601" lon="18.242374">
        <ele>14.6</ele>
        <time>2014-10-11T12:20:28Z</time>
      </trkpt>
      <trkpt lat="59.120572" lon="18.242241">
        <ele>14.9</ele>
        <time>2014-10-11T12:20:29Z</time>
      </trkpt>
      <trkpt lat="59.120546" lon="18.242128">
        <ele>15.2</ele>
        <time>2014-10-11T12:20:30Z</time>
      </trkpt>
      <trkpt lat="59.120511" lon="18.241988">
        <ele>15.1</ele>
        <time>2014-10-11T12:20:31Z</time>
      </trkpt>
      <trkpt lat="59.120482" lon="18.24185">
        <ele>14.9</ele>
        <time>2014-10-11T12:20:32Z</time>
      </trkpt>
      <trkpt lat="59.120444" lon="18.241728">
        <ele>14.7</ele>
        <time>2014-10-11T12:20:33Z</time>
      </trkpt>
      <trkpt lat="59.120424" lon="18.241592">
        <ele>14.4</ele>
        <time>2014-10-11T12:20:34Z</time>
      </trkpt>
      <trkpt lat="59.120397" lon="18.241451">
        <ele>14</ele>
        <time>2014-10-11T12:20:35Z</time>
      </trkpt>
      <trkpt lat="59.120351" lon="18.241294">
        <ele>13.3</ele>
        <time>2014-10-11T12:20:36Z</time>
      </trkpt>
      <trkpt lat="59.120316" lon="18.241169">
        <ele>12.8</ele>
        <time>2014-10-11T12:20:37Z</time>
      </trkpt>
      <trkpt lat="59.120294" lon="18.241028">
        <ele>12.4</ele>
        <time>2014-10-11T12:20:38Z</time>
      </trkpt>
      <trkpt lat="59.120252" lon="18.240869">
        <ele>11.8</ele>
        <time>2014-10-11T12:20:39Z</time>
      </trkpt>
      <trkpt lat="59.120221" lon="18.240728">
        <ele>11.3</ele>
        <time>2014-10-11T12:20:40Z</time>
      </trkpt>
      <trkpt lat="59.120187" lon="18.240567">
        <ele>10.7</ele>
        <time>2014-10-11T12:20:41Z</time>
      </trkpt>
      <trkpt lat="59.120156" lon="18.24042">
        <ele>10.2</ele>
        <time>2014-10-11T12:20:42Z</time>
      </trkpt>
      <trkpt lat="59.120123" lon="18.24026">
        <ele>9.6</ele>
        <time>2014-10-11T12:20:43Z</time>
      </trkpt>
      <trkpt lat="59.120096" lon="18.240113">
        <ele>9.2</ele>
        <time>2014-10-11T12:20:44Z</time>
      </trkpt>
      <trkpt lat="59.120067" lon="18.239945">
        <ele>8.7</ele>
        <time>2014-10-11T12:20:45Z</time>
      </trkpt>
      <trkpt lat="59.120037" lon="18.239781">
        <ele>8.1</ele>
        <time>2014-10-11T12:20:46Z</time>
      </trkpt>
      <trkpt lat="59.120014" lon="18.239613">
        <ele>7.7</ele>
        <time>2014-10-11T12:20:47Z</time>
      </trkpt>
      <trkpt lat="59.12" lon="18.239457">
        <ele>7.5</ele>
        <time>2014-10-11T12:20:48Z</time>
      </trkpt>
      <trkpt lat="59.119981" lon="18.23928">
        <ele>7.3</ele>
        <time>2014-10-11T12:20:49Z</time>
      </trkpt>
      <trkpt lat="59.119973" lon="18.239116">
        <ele>7.2</ele>
        <time>2014-10-11T12:20:50Z</time>
      </trkpt>
      <trkpt lat="59.119965" lon="18.238948">
        <ele>7.1</ele>
        <time>2014-10-11T12:20:51Z</time>
      </trkpt>
      <trkpt lat="59.119956" lon="18.23878">
        <ele>7</ele>
        <time>2014-10-11T12:20:52Z</time>
      </trkpt>
      <trkpt lat="59.119953" lon="18.238625">
        <ele>7</ele>
        <time>2014-10-11T12:20:53Z</time>
      </trkpt>
      <trkpt lat="59.119953" lon="18.238452">
        <ele>7.1</ele>
        <time>2014-10-11T12:20:54Z</time>
      </trkpt>
      <trkpt lat="59.119952" lon="18.238282">
        <ele>7.1</ele>
        <time>2014-10-11T12:20:55Z</time>
      </trkpt>
      <trkpt lat="59.119961" lon="18.238118">
        <ele>7.2</ele>
        <time>2014-10-11T12:20:56Z</time>
      </trkpt>
      <trkpt lat="59.11997" lon="18.237944">
        <ele>7.3</ele>
        <time>2014-10-11T12:20:57Z</time>
      </trkpt>
      <trkpt lat="59.119982" lon="18.237776">
        <ele>7.4</ele>
        <time>2014-10-11T12:20:58Z</time>
      </trkpt>
      <trkpt lat="59.119997" lon="18.237603">
        <ele>7.5</ele>
        <time>2014-10-11T12:20:59Z</time>
      </trkpt>
      <trkpt lat="59.120014" lon="18.237429">
        <ele>7.6</ele>
        <time>2014-10-11T12:21:00Z</time>
      </trkpt>
      <trkpt lat="59.12003" lon="18.237297">
        <ele>7.6</ele>
        <time>2014-10-11T12:21:01Z</time>
      </trkpt>
      <trkpt lat="59.120047" lon="18.23714">
        <ele>7.7</ele>
        <time>2014-10-11T12:21:02Z</time>
      </trkpt>
      <trkpt lat="59.120061" lon="18.236989">
        <ele>7.7</ele>
        <time>2014-10-11T12:21:03Z</time>
      </trkpt>
      <trkpt lat="59.120073" lon="18.236839">
        <ele>7.6</ele>
        <time>2014-10-11T12:21:04Z</time>
      </trkpt>
      <trkpt lat="59.120086" lon="18.236681">
        <ele>7.5</ele>
        <time>2014-10-11T12:21:05Z</time>
      </trkpt>
      <trkpt lat="59.120087" lon="18.236521">
        <ele>7.4</ele>
        <time>2014-10-11T12:21:06Z</time>
      </trkpt>
      <trkpt lat="59.1201" lon="18.236368">
        <ele>7.3</ele>
        <time>2014-10-11T12:21:07Z</time>
      </trkpt>
      <trkpt lat="59.120114" lon="18.236216">
        <ele>7.2</ele>
        <time>2014-10-11T12:21:08Z</time>
      </trkpt>
      <trkpt lat="59.120126" lon="18.236067">
        <ele>7.2</ele>
        <time>2014-10-11T12:21:09Z</time>
      </trkpt>
      <trkpt lat="59.12014" lon="18.235919">
        <ele>7.1</ele>
        <time>2014-10-11T12:21:10Z</time>
      </trkpt>
      <trkpt lat="59.120158" lon="18.235782">
        <ele>7</ele>
        <time>2014-10-11T12:21:11Z</time>
      </trkpt>
      <trkpt lat="59.120178" lon="18.235634">
        <ele>6.9</ele>
        <time>2014-10-11T12:21:12Z</time>
      </trkpt>
      <trkpt lat="59.120197" lon="18.235496">
        <ele>6.8</ele>
        <time>2014-10-11T12:21:13Z</time>
      </trkpt>
      <trkpt lat="59.120216" lon="18.235363">
        <ele>6.7</ele>
        <time>2014-10-11T12:21:14Z</time>
      </trkpt>
      <trkpt lat="59.120225" lon="18.235233">
        <ele>6.7</ele>
        <time>2014-10-11T12:21:15Z</time>
      </trkpt>
      <trkpt lat="59.120237" lon="18.235064">
        <ele>6.7</ele>
        <time>2014-10-11T12:21:16Z</time>
      </trkpt>
      <trkpt lat="59.12025" lon="18.234924">
        <ele>6.7</ele>
        <time>2014-10-11T12:21:17Z</time>
      </trkpt>
      <trkpt lat="59.120262" lon="18.234766">
        <ele>6.7</ele>
        <time>2014-10-11T12:21:18Z</time>
      </trkpt>
      <trkpt lat="59.120276" lon="18.23461">
        <ele>6.7</ele>
        <time>2014-10-11T12:21:19Z</time>
      </trkpt>
      <trkpt lat="59.120291" lon="18.234461">
        <ele>6.7</ele>
        <time>2014-10-11T12:21:20Z</time>
      </trkpt>
      <trkpt lat="59.120305" lon="18.23432">
        <ele>6.7</ele>
        <time>2014-10-11T12:21:21Z</time>
      </trkpt>
      <trkpt lat="59.120316" lon="18.234176">
        <ele>6.8</ele>
        <time>2014-10-11T12:21:22Z</time>
      </trkpt>
      <trkpt lat="59.120328" lon="18.234036">
        <ele>6.8</ele>
        <time>2014-10-11T12:21:23Z</time>
      </trkpt>
      <trkpt lat="59.120339" lon="18.233887">
        <ele>6.8</ele>
        <time>2014-10-11T12:21:24Z</time>
      </trkpt>
      <trkpt lat="59.120355" lon="18.233729">
        <ele>6.9</ele>
        <time>2014-10-11T12:21:25Z</time>
      </trkpt>
      <trkpt lat="59.120367" lon="18.23358">
        <ele>7.3</ele>
        <time>2014-10-11T12:21:26Z</time>
      </trkpt>
      <trkpt lat="59.120378" lon="18.233432">
        <ele>7.7</ele>
        <time>2014-10-11T12:21:27Z</time>
      </trkpt>
      <trkpt lat="59.120394" lon="18.233284">
        <ele>8</ele>
        <time>2014-10-11T12:21:28Z</time>
      </trkpt>
      <trkpt lat="59.120406" lon="18.233136">
        <ele>8.4</ele>
        <time>2014-10-11T12:21:29Z</time>
      </trkpt>
      <trkpt lat="59.120418" lon="18.232998">
        <ele>8.8</ele>
        <time>2014-10-11T12:21:30Z</time>
      </trkpt>
      <trkpt lat="59.120432" lon="18.232856">
        <ele>9.1</ele>
        <time>2014-10-11T12:21:31Z</time>
      </trkpt>
      <trkpt lat="59.120447" lon="18.232716">
        <ele>9.3</ele>
        <time>2014-10-11T12:21:32Z</time>
      </trkpt>
      <trkpt lat="59.12046" lon="18.232579">
        <ele>9.5</ele>
        <time>2014-10-11T12:21:33Z</time>
      </trkpt>
      <trkpt lat="59.120472" lon="18.232439">
        <ele>9.7</ele>
        <time>2014-10-11T12:21:34Z</time>
      </trkpt>
      <trkpt lat="59.12049" lon="18.232321">
        <ele>9.9</ele>
        <time>2014-10-11T12:21:35Z</time>
      </trkpt>
      <trkpt lat="59.120509" lon="18.232198">
        <ele>10</ele>
        <time>2014-10-11T12:21:36Z</time>
      </trkpt>
      <trkpt lat="59.120526" lon="18.232075">
        <ele>10.1</ele>
        <time>2014-10-11T12:21:37Z</time>
      </trkpt>
      <trkpt lat="59.120537" lon="18.231947">
        <ele>10.4</ele>
        <time>2014-10-11T12:21:38Z</time>
      </trkpt>
      <trkpt lat="59.120547" lon="18.23182">
        <ele>10.7</ele>
        <time>2014-10-11T12:21:39Z</time>
      </trkpt>
      <trkpt lat="59.120559" lon="18.231702">
        <ele>11</ele>
        <time>2014-10-11T12:21:40Z</time>
      </trkpt>
      <trkpt lat="59.120568" lon="18.231585">
        <ele>11.3</ele>
        <time>2014-10-11T12:21:41Z</time>
      </trkpt>
      <trkpt lat="59.120582" lon="18.231485">
        <ele>11.5</ele>
        <time>2014-10-11T12:21:42Z</time>
      </trkpt>
      <trkpt lat="59.120589" lon="18.231374">
        <ele>11.7</ele>
        <time>2014-10-11T12:21:43Z</time>
      </trkpt>
      <trkpt lat="59.120592" lon="18.231259">
        <ele>12</ele>
        <time>2014-10-11T12:21:44Z</time>
      </trkpt>
      <trkpt lat="59.12061" lon="18.231148">
        <ele>12.2</ele>
        <time>2014-10-11T12:21:45Z</time>
      </trkpt>
      <trkpt lat="59.120619" lon="18.231032">
        <ele>12.5</ele>
        <time>2014-10-11T12:21:46Z</time>
      </trkpt>
      <trkpt lat="59.120619" lon="18.230925">
        <ele>12.7</ele>
        <time>2014-10-11T12:21:47Z</time>
      </trkpt>
      <trkpt lat="59.120634" lon="18.230818">
        <ele>12.9</ele>
        <time>2014-10-11T12:21:48Z</time>
      </trkpt>
      <trkpt lat="59.120648" lon="18.230706">
        <ele>13.1</ele>
        <time>2014-10-11T12:21:49Z</time>
      </trkpt>
      <trkpt lat="59.120658" lon="18.230583">
        <ele>13.4</ele>
        <time>2014-10-11T12:21:50Z</time>
      </trkpt>
      <trkpt lat="59.120673" lon="18.230466">
        <ele>13.6</ele>
        <time>2014-10-11T12:21:51Z</time>
      </trkpt>
      <trkpt lat="59.120688" lon="18.230356">
        <ele>13.6</ele>
        <time>2014-10-11T12:21:52Z</time>
      </trkpt>
      <trkpt lat="59.120702" lon="18.230241">
        <ele>13.3</ele>
        <time>2014-10-11T12:21:53Z</time>
      </trkpt>
      <trkpt lat="59.120715" lon="18.230134">
        <ele>13.1</ele>
        <time>2014-10-11T12:21:54Z</time>
      </trkpt>
      <trkpt lat="59.120745" lon="18.229998">
        <ele>12.8</ele>
        <time>2014-10-11T12:21:55Z</time>
      </trkpt>
      <trkpt lat="59.120773" lon="18.229892">
        <ele>12.6</ele>
        <time>2014-10-11T12:21:56Z</time>
      </trkpt>
      <trkpt lat="59.120793" lon="18.229774">
        <ele>12.4</ele>
        <time>2014-10-11T12:21:57Z</time>
      </trkpt>
      <trkpt lat="59.120821" lon="18.229674">
        <ele>12.2</ele>
        <time>2014-10-11T12:21:58Z</time>
      </trkpt>
      <trkpt lat="59.120854" lon="18.22955">
        <ele>12</ele>
        <time>2014-10-11T12:21:59Z</time>
      </trkpt>
      <trkpt lat="59.120885" lon="18.229433">
        <ele>11.8</ele>
        <time>2014-10-11T12:22:00Z</time>
      </trkpt>
      <trkpt lat="59.120919" lon="18.229319">
        <ele>11.7</ele>
        <time>2014-10-11T12:22:01Z</time>
      </trkpt>
      <trkpt lat="59.12095" lon="18.229221">
        <ele>11.6</ele>
        <time>2014-10-11T12:22:02Z</time>
      </trkpt>
      <trkpt lat="59.120987" lon="18.22911">
        <ele>11.4</ele>
        <time>2014-10-11T12:22:03Z</time>
      </trkpt>
      <trkpt lat="59.121025" lon="18.229006">
        <ele>11.3</ele>
        <time>2014-10-11T12:22:04Z</time>
      </trkpt>
      <trkpt lat="59.121055" lon="18.228904">
        <ele>11.2</ele>
        <time>2014-10-11T12:22:05Z</time>
      </trkpt>
      <trkpt lat="59.121097" lon="18.228793">
        <ele>11.1</ele>
        <time>2014-10-11T12:22:06Z</time>
      </trkpt>
      <trkpt lat="59.121127" lon="18.228698">
        <ele>10.9</ele>
        <time>2014-10-11T12:22:07Z</time>
      </trkpt>
      <trkpt lat="59.121157" lon="18.228594">
        <ele>10.8</ele>
        <time>2014-10-11T12:22:08Z</time>
      </trkpt>
      <trkpt lat="59.121192" lon="18.228481">
        <ele>10.6</ele>
        <time>2014-10-11T12:22:09Z</time>
      </trkpt>
      <trkpt lat="59.121218" lon="18.228386">
        <ele>10.5</ele>
        <time>2014-10-11T12:22:10Z</time>
      </trkpt>
      <trkpt lat="59.121252" lon="18.228275">
        <ele>10.4</ele>
        <time>2014-10-11T12:22:11Z</time>
      </trkpt>
      <trkpt lat="59.121281" lon="18.228179">
        <ele>10.3</ele>
        <time>2014-10-11T12:22:12Z</time>
      </trkpt>
      <trkpt lat="59.121312" lon="18.228063">
        <ele>10.2</ele>
        <time>2014-10-11T12:22:13Z</time>
      </trkpt>
      <trkpt lat="59.121345" lon="18.227947">
        <ele>10</ele>
        <time>2014-10-11T12:22:14Z</time>
      </trkpt>
      <trkpt lat="59.121377" lon="18.227831">
        <ele>9.9</ele>
        <time>2014-10-11T12:22:15Z</time>
      </trkpt>
      <trkpt lat="59.121413" lon="18.227712">
        <ele>9.8</ele>
        <time>2014-10-11T12:22:16Z</time>
      </trkpt>
      <trkpt lat="59.121451" lon="18.227586">
        <ele>9.7</ele>
        <time>2014-10-11T12:22:17Z</time>
      </trkpt>
      <trkpt lat="59.121484" lon="18.227477">
        <ele>9.6</ele>
        <time>2014-10-11T12:22:18Z</time>
      </trkpt>
      <trkpt lat="59.121521" lon="18.227353">
        <ele>9.5</ele>
        <time>2014-10-11T12:22:19Z</time>
      </trkpt>
      <trkpt lat="59.121557" lon="18.227233">
        <ele>9.5</ele>
        <time>2014-10-11T12:22:20Z</time>
      </trkpt>
      <trkpt lat="59.12159" lon="18.227116">
        <ele>9.4</ele>
        <time>2014-10-11T12:22:21Z</time>
      </trkpt>
      <trkpt lat="59.121631" lon="18.226981">
        <ele>9.3</ele>
        <time>2014-10-11T12:22:22Z</time>
      </trkpt>
      <trkpt lat="59.121664" lon="18.226869">
        <ele>9.2</ele>
        <time>2014-10-11T12:22:23Z</time>
      </trkpt>
      <trkpt lat="59.121697" lon="18.226741">
        <ele>9.1</ele>
        <time>2014-10-11T12:22:24Z</time>
      </trkpt>
      <trkpt lat="59.121737" lon="18.226608">
        <ele>9</ele>
        <time>2014-10-11T12:22:25Z</time>
      </trkpt>
      <trkpt lat="59.121774" lon="18.226489">
        <ele>8.9</ele>
        <time>2014-10-11T12:22:26Z</time>
      </trkpt>
      <trkpt lat="59.121816" lon="18.226354">
        <ele>8.8</ele>
        <time>2014-10-11T12:22:27Z</time>
      </trkpt>
      <trkpt lat="59.121852" lon="18.226236">
        <ele>8.7</ele>
        <time>2014-10-11T12:22:28Z</time>
      </trkpt>
      <trkpt lat="59.121889" lon="18.226104">
        <ele>8.7</ele>
        <time>2014-10-11T12:22:29Z</time>
      </trkpt>
      <trkpt lat="59.121931" lon="18.225976">
        <ele>8.8</ele>
        <time>2014-10-11T12:22:30Z</time>
      </trkpt>
      <trkpt lat="59.121967" lon="18.225843">
        <ele>8.8</ele>
        <time>2014-10-11T12:22:31Z</time>
      </trkpt>
      <trkpt lat="59.122003" lon="18.225719">
        <ele>8.8</ele>
        <time>2014-10-11T12:22:32Z</time>
      </trkpt>
      <trkpt lat="59.122046" lon="18.22558">
        <ele>8.9</ele>
        <time>2014-10-11T12:22:33Z</time>
      </trkpt>
      <trkpt lat="59.122081" lon="18.225463">
        <ele>9</ele>
        <time>2014-10-11T12:22:34Z</time>
      </trkpt>
      <trkpt lat="59.122116" lon="18.22534">
        <ele>9.1</ele>
        <time>2014-10-11T12:22:35Z</time>
      </trkpt>
      <trkpt lat="59.122151" lon="18.225209">
        <ele>9.3</ele>
        <time>2014-10-11T12:22:36Z</time>
      </trkpt>
      <trkpt lat="59.122184" lon="18.225081">
        <ele>9.5</ele>
        <time>2014-10-11T12:22:37Z</time>
      </trkpt>
      <trkpt lat="59.122223" lon="18.22495">
        <ele>9.7</ele>
        <time>2014-10-11T12:22:38Z</time>
      </trkpt>
      <trkpt lat="59.122258" lon="18.22483">
        <ele>10</ele>
        <time>2014-10-11T12:22:39Z</time>
      </trkpt>
      <trkpt lat="59.12229" lon="18.224696">
        <ele>10.3</ele>
        <time>2014-10-11T12:22:40Z</time>
      </trkpt>
      <trkpt lat="59.122324" lon="18.22455">
        <ele>10.6</ele>
        <time>2014-10-11T12:22:41Z</time>
      </trkpt>
      <trkpt lat="59.122358" lon="18.224432">
        <ele>10.9</ele>
        <time>2014-10-11T12:22:42Z</time>
      </trkpt>
      <trkpt lat="59.122391" lon="18.224305">
        <ele>11.2</ele>
        <time>2014-10-11T12:22:43Z</time>
      </trkpt>
      <trkpt lat="59.12243" lon="18.224183">
        <ele>11.5</ele>
        <time>2014-10-11T12:22:44Z</time>
      </trkpt>
      <trkpt lat="59.122466" lon="18.22407">
        <ele>11.8</ele>
        <time>2014-10-11T12:22:45Z</time>
      </trkpt>
      <trkpt lat="59.122501" lon="18.22394">
        <ele>12.2</ele>
        <time>2014-10-11T12:22:46Z</time>
      </trkpt>
      <trkpt lat="59.122535" lon="18.223826">
        <ele>12.5</ele>
        <time>2014-10-11T12:22:47Z</time>
      </trkpt>
      <trkpt lat="59.12257" lon="18.223712">
        <ele>12.9</ele>
        <time>2014-10-11T12:22:48Z</time>
      </trkpt>
      <trkpt lat="59.122673" lon="18.223313">
        <ele>14.9</ele>
        <time>2014-10-11T12:22:52Z</time>
      </trkpt>
      <trkpt lat="59.122694" lon="18.223244">
        <ele>15.3</ele>
        <time>2014-10-11T12:22:53Z</time>
      </trkpt>
      <trkpt lat="59.122723" lon="18.223157">
        <ele>15.8</ele>
        <time>2014-10-11T12:22:54Z</time>
      </trkpt>
      <trkpt lat="59.122749" lon="18.223074">
        <ele>16.3</ele>
        <time>2014-10-11T12:22:55Z</time>
      </trkpt>
      <trkpt lat="59.122772" lon="18.222988">
        <ele>16.8</ele>
        <time>2014-10-11T12:22:56Z</time>
      </trkpt>
      <trkpt lat="59.122803" lon="18.222916">
        <ele>17.3</ele>
        <time>2014-10-11T12:22:57Z</time>
      </trkpt>
      <trkpt lat="59.122826" lon="18.222834">
        <ele>17.8</ele>
        <time>2014-10-11T12:22:58Z</time>
      </trkpt>
      <trkpt lat="59.122853" lon="18.222778">
        <ele>18.2</ele>
        <time>2014-10-11T12:22:59Z</time>
      </trkpt>
      <trkpt lat="59.122873" lon="18.222704">
        <ele>18.7</ele>
        <time>2014-10-11T12:23:00Z</time>
      </trkpt>
      <trkpt lat="59.122895" lon="18.222622">
        <ele>19.3</ele>
        <time>2014-10-11T12:23:01Z</time>
      </trkpt>
      <trkpt lat="59.122926" lon="18.222553">
        <ele>19.8</ele>
        <time>2014-10-11T12:23:02Z</time>
      </trkpt>
      <trkpt lat="59.122954" lon="18.222479">
        <ele>20.3</ele>
        <time>2014-10-11T12:23:03Z</time>
      </trkpt>
      <trkpt lat="59.122976" lon="18.222399">
        <ele>20.7</ele>
        <time>2014-10-11T12:23:04Z</time>
      </trkpt>
      <trkpt lat="59.122999" lon="18.222319">
        <ele>21.2</ele>
        <time>2014-10-11T12:23:05Z</time>
      </trkpt>
      <trkpt lat="59.123027" lon="18.222264">
        <ele>21.6</ele>
        <time>2014-10-11T12:23:06Z</time>
      </trkpt>
      <trkpt lat="59.123055" lon="18.222203">
        <ele>22.1</ele>
        <time>2014-10-11T12:23:07Z</time>
      </trkpt>
      <trkpt lat="59.123073" lon="18.222122">
        <ele>22.6</ele>
        <time>2014-10-11T12:23:08Z</time>
      </trkpt>
      <trkpt lat="59.123093" lon="18.222068">
        <ele>22.8</ele>
        <time>2014-10-11T12:23:09Z</time>
      </trkpt>
      <trkpt lat="59.123107" lon="18.221967">
        <ele>22.7</ele>
        <time>2014-10-11T12:23:10Z</time>
      </trkpt>
      <trkpt lat="59.123117" lon="18.221906">
        <ele>22.6</ele>
        <time>2014-10-11T12:23:11Z</time>
      </trkpt>
      <trkpt lat="59.123139" lon="18.221829">
        <ele>22.5</ele>
        <time>2014-10-11T12:23:12Z</time>
      </trkpt>
      <trkpt lat="59.12316" lon="18.221748">
        <ele>22.5</ele>
        <time>2014-10-11T12:23:13Z</time>
      </trkpt>
      <trkpt lat="59.123163" lon="18.221686">
        <ele>22.4</ele>
        <time>2014-10-11T12:23:14Z</time>
      </trkpt>
      <trkpt lat="59.12319" lon="18.221601">
        <ele>22.3</ele>
        <time>2014-10-11T12:23:15Z</time>
      </trkpt>
      <trkpt lat="59.123207" lon="18.221524">
        <ele>22.3</ele>
        <time>2014-10-11T12:23:16Z</time>
      </trkpt>
      <trkpt lat="59.123223" lon="18.221462">
        <ele>22.3</ele>
        <time>2014-10-11T12:23:17Z</time>
      </trkpt>
      <trkpt lat="59.123239" lon="18.221372">
        <ele>22.2</ele>
        <time>2014-10-11T12:23:18Z</time>
      </trkpt>
      <trkpt lat="59.123237" lon="18.221278">
        <ele>22</ele>
        <time>2014-10-11T12:23:19Z</time>
      </trkpt>
      <trkpt lat="59.123248" lon="18.221186">
        <ele>21.9</ele>
        <time>2014-10-11T12:23:20Z</time>
      </trkpt>
      <trkpt lat="59.123259" lon="18.221112">
        <ele>21.9</ele>
        <time>2014-10-11T12:23:21Z</time>
      </trkpt>
      <trkpt lat="59.123286" lon="18.221027">
        <ele>21.9</ele>
        <time>2014-10-11T12:23:22Z</time>
      </trkpt>
      <trkpt lat="59.123311" lon="18.220944">
        <ele>22</ele>
        <time>2014-10-11T12:23:23Z</time>
      </trkpt>
      <trkpt lat="59.123331" lon="18.220862">
        <ele>22</ele>
        <time>2014-10-11T12:23:24Z</time>
      </trkpt>
      <trkpt lat="59.123373" lon="18.220768">
        <ele>22.2</ele>
        <time>2014-10-11T12:23:25Z</time>
      </trkpt>
      <trkpt lat="59.123398" lon="18.220676">
        <ele>22.3</ele>
        <time>2014-10-11T12:23:26Z</time>
      </trkpt>
      <trkpt lat="59.123414" lon="18.220606">
        <ele>22.4</ele>
        <time>2014-10-11T12:23:27Z</time>
      </trkpt>
      <trkpt lat="59.123434" lon="18.220475">
        <ele>22.4</ele>
        <time>2014-10-11T12:23:28Z</time>
      </trkpt>
      <trkpt lat="59.123467" lon="18.220378">
        <ele>22.4</ele>
        <time>2014-10-11T12:23:29Z</time>
      </trkpt>
      <trkpt lat="59.123487" lon="18.220266">
        <ele>21.9</ele>
        <time>2014-10-11T12:23:30Z</time>
      </trkpt>
      <trkpt lat="59.123518" lon="18.220166">
        <ele>21.5</ele>
        <time>2014-10-11T12:23:31Z</time>
      </trkpt>
      <trkpt lat="59.12354" lon="18.220061">
        <ele>21</ele>
        <time>2014-10-11T12:23:32Z</time>
      </trkpt>
      <trkpt lat="59.123558" lon="18.219952">
        <ele>20.4</ele>
        <time>2014-10-11T12:23:33Z</time>
      </trkpt>
      <trkpt lat="59.123584" lon="18.219837">
        <ele>19.8</ele>
        <time>2014-10-11T12:23:34Z</time>
      </trkpt>
      <trkpt lat="59.123615" lon="18.219705">
        <ele>19.2</ele>
        <time>2014-10-11T12:23:35Z</time>
      </trkpt>
      <trkpt lat="59.123634" lon="18.21958">
        <ele>18.4</ele>
        <time>2014-10-11T12:23:36Z</time>
      </trkpt>
      <trkpt lat="59.123677" lon="18.219478">
        <ele>17.9</ele>
        <time>2014-10-11T12:23:37Z</time>
      </trkpt>
      <trkpt lat="59.1237" lon="18.219352">
        <ele>17.1</ele>
        <time>2014-10-11T12:23:38Z</time>
      </trkpt>
      <trkpt lat="59.12372" lon="18.219195">
        <ele>16.1</ele>
        <time>2014-10-11T12:23:39Z</time>
      </trkpt>
      <trkpt lat="59.123746" lon="18.219061">
        <ele>15.2</ele>
        <time>2014-10-11T12:23:40Z</time>
      </trkpt>
      <trkpt lat="59.123771" lon="18.218919">
        <ele>14.5</ele>
        <time>2014-10-11T12:23:41Z</time>
      </trkpt>
      <trkpt lat="59.1238" lon="18.218768">
        <ele>13.8</ele>
        <time>2014-10-11T12:23:42Z</time>
      </trkpt>
      <trkpt lat="59.123837" lon="18.218621">
        <ele>14</ele>
        <time>2014-10-11T12:23:43Z</time>
      </trkpt>
      <trkpt lat="59.123867" lon="18.218459">
        <ele>14.1</ele>
        <time>2014-10-11T12:23:44Z</time>
      </trkpt>
      <trkpt lat="59.123897" lon="18.218304">
        <ele>14.2</ele>
        <time>2014-10-11T12:23:45Z</time>
      </trkpt>
      <trkpt lat="59.123921" lon="18.21817">
        <ele>14.3</ele>
        <time>2014-10-11T12:23:46Z</time>
      </trkpt>
      <trkpt lat="59.123957" lon="18.218045">
        <ele>14.5</ele>
        <time>2014-10-11T12:23:47Z</time>
      </trkpt>
      <trkpt lat="59.123987" lon="18.217912">
        <ele>14.6</ele>
        <time>2014-10-11T12:23:48Z</time>
      </trkpt>
      <trkpt lat="59.124019" lon="18.21777">
        <ele>14.6</ele>
        <time>2014-10-11T12:23:49Z</time>
      </trkpt>
      <trkpt lat="59.124058" lon="18.217645">
        <ele>14.8</ele>
        <time>2014-10-11T12:23:50Z</time>
      </trkpt>
      <trkpt lat="59.124079" lon="18.217519">
        <ele>14.7</ele>
        <time>2014-10-11T12:23:51Z</time>
      </trkpt>
      <trkpt lat="59.124116" lon="18.217382">
        <ele>14.7</ele>
        <time>2014-10-11T12:23:52Z</time>
      </trkpt>
      <trkpt lat="59.124151" lon="18.217247">
        <ele>14.8</ele>
        <time>2014-10-11T12:23:53Z</time>
      </trkpt>
      <trkpt lat="59.124174" lon="18.217098">
        <ele>14.6</ele>
        <time>2014-10-11T12:23:54Z</time>
      </trkpt>
      <trkpt lat="59.124207" lon="18.216952">
        <ele>14.7</ele>
        <time>2014-10-11T12:23:55Z</time>
      </trkpt>
      <trkpt lat="59.124245" lon="18.216788">
        <ele>14.7</ele>
        <time>2014-10-11T12:23:56Z</time>
      </trkpt>
      <trkpt lat="59.124271" lon="18.216657">
        <ele>14.6</ele>
        <time>2014-10-11T12:23:57Z</time>
      </trkpt>
      <trkpt lat="59.1243" lon="18.216524">
        <ele>14.5</ele>
        <time>2014-10-11T12:23:58Z</time>
      </trkpt>
      <trkpt lat="59.124324" lon="18.216388">
        <ele>14.4</ele>
        <time>2014-10-11T12:23:59Z</time>
      </trkpt>
      <trkpt lat="59.124344" lon="18.216255">
        <ele>14.1</ele>
        <time>2014-10-11T12:24:00Z</time>
      </trkpt>
      <trkpt lat="59.124373" lon="18.216126">
        <ele>13.9</ele>
        <time>2014-10-11T12:24:01Z</time>
      </trkpt>
      <trkpt lat="59.124401" lon="18.216004">
        <ele>13.7</ele>
        <time>2014-10-11T12:24:02Z</time>
      </trkpt>
      <trkpt lat="59.124429" lon="18.215892">
        <ele>13.4</ele>
        <time>2014-10-11T12:24:03Z</time>
      </trkpt>
      <trkpt lat="59.124444" lon="18.215773">
        <ele>13.1</ele>
        <time>2014-10-11T12:24:04Z</time>
      </trkpt>
      <trkpt lat="59.124463" lon="18.215646">
        <ele>12.7</ele>
        <time>2014-10-11T12:24:05Z</time>
      </trkpt>
      <trkpt lat="59.124494" lon="18.215536">
        <ele>12.4</ele>
        <time>2014-10-11T12:24:06Z</time>
      </trkpt>
      <trkpt lat="59.124521" lon="18.215421">
        <ele>12</ele>
        <time>2014-10-11T12:24:07Z</time>
      </trkpt>
      <trkpt lat="59.124545" lon="18.215303">
        <ele>12.1</ele>
        <time>2014-10-11T12:24:08Z</time>
      </trkpt>
      <trkpt lat="59.124576" lon="18.215182">
        <ele>12.3</ele>
        <time>2014-10-11T12:24:09Z</time>
      </trkpt>
      <trkpt lat="59.1246" lon="18.215063">
        <ele>12.7</ele>
        <time>2014-10-11T12:24:10Z</time>
      </trkpt>
      <trkpt lat="59.12463" lon="18.214955">
        <ele>13.3</ele>
        <time>2014-10-11T12:24:11Z</time>
      </trkpt>
      <trkpt lat="59.124657" lon="18.21484">
        <ele>13.8</ele>
        <time>2014-10-11T12:24:12Z</time>
      </trkpt>
      <trkpt lat="59.124685" lon="18.21474">
        <ele>14.3</ele>
        <time>2014-10-11T12:24:13Z</time>
      </trkpt>
      <trkpt lat="59.124701" lon="18.214625">
        <ele>14.5</ele>
        <time>2014-10-11T12:24:14Z</time>
      </trkpt>
      <trkpt lat="59.124723" lon="18.214517">
        <ele>14.9</ele>
        <time>2014-10-11T12:24:15Z</time>
      </trkpt>
      <trkpt lat="59.12476" lon="18.21442">
        <ele>15.4</ele>
        <time>2014-10-11T12:24:16Z</time>
      </trkpt>
      <trkpt lat="59.124793" lon="18.214329">
        <ele>15.8</ele>
        <time>2014-10-11T12:24:17Z</time>
      </trkpt>
      <trkpt lat="59.12482" lon="18.214231">
        <ele>16.1</ele>
        <time>2014-10-11T12:24:18Z</time>
      </trkpt>
      <trkpt lat="59.124854" lon="18.214125">
        <ele>16.4</ele>
        <time>2014-10-11T12:24:19Z</time>
      </trkpt>
      <trkpt lat="59.124881" lon="18.214022">
        <ele>16.6</ele>
        <time>2014-10-11T12:24:20Z</time>
      </trkpt>
      <trkpt lat="59.124893" lon="18.213922">
        <ele>16.7</ele>
        <time>2014-10-11T12:24:21Z</time>
      </trkpt>
      <trkpt lat="59.124911" lon="18.213805">
        <ele>16.8</ele>
        <time>2014-10-11T12:24:22Z</time>
      </trkpt>
      <trkpt lat="59.124944" lon="18.2137">
        <ele>17.1</ele>
        <time>2014-10-11T12:24:23Z</time>
      </trkpt>
      <trkpt lat="59.124976" lon="18.213594">
        <ele>17.5</ele>
        <time>2014-10-11T12:24:24Z</time>
      </trkpt>
      <trkpt lat="59.125012" lon="18.213497">
        <ele>17.9</ele>
        <time>2014-10-11T12:24:25Z</time>
      </trkpt>
      <trkpt lat="59.125037" lon="18.213377">
        <ele>18.1</ele>
        <time>2014-10-11T12:24:26Z</time>
      </trkpt>
      <trkpt lat="59.12507" lon="18.21327">
        <ele>18.3</ele>
        <time>2014-10-11T12:24:27Z</time>
      </trkpt>
      <trkpt lat="59.125102" lon="18.213163">
        <ele>18.4</ele>
        <time>2014-10-11T12:24:28Z</time>
      </trkpt>
      <trkpt lat="59.125117" lon="18.213096">
        <ele>18.4</ele>
        <time>2014-10-11T12:24:29Z</time>
      </trkpt>
      <trkpt lat="59.125176" lon="18.21302">
        <ele>18.4</ele>
        <time>2014-10-11T12:24:30Z</time>
      </trkpt>
      <trkpt lat="59.125209" lon="18.212927">
        <ele>18.3</ele>
        <time>2014-10-11T12:24:31Z</time>
      </trkpt>
      <trkpt lat="59.125259" lon="18.212818">
        <ele>18.1</ele>
        <time>2014-10-11T12:24:32Z</time>
      </trkpt>
      <trkpt lat="59.125295" lon="18.212702">
        <ele>17.9</ele>
        <time>2014-10-11T12:24:33Z</time>
      </trkpt>
      <trkpt lat="59.125328" lon="18.2126">
        <ele>17.6</ele>
        <time>2014-10-11T12:24:34Z</time>
      </trkpt>
      <trkpt lat="59.125368" lon="18.212486">
        <ele>17.2</ele>
        <time>2014-10-11T12:24:35Z</time>
      </trkpt>
      <trkpt lat="59.125403" lon="18.212372">
        <ele>16.8</ele>
        <time>2014-10-11T12:24:36Z</time>
      </trkpt>
      <trkpt lat="59.125443" lon="18.212248">
        <ele>16.8</ele>
        <time>2014-10-11T12:24:37Z</time>
      </trkpt>
      <trkpt lat="59.125491" lon="18.212121">
        <ele>17.1</ele>
        <time>2014-10-11T12:24:38Z</time>
      </trkpt>
      <trkpt lat="59.125535" lon="18.212028">
        <ele>17.9</ele>
        <time>2014-10-11T12:24:39Z</time>
      </trkpt>
      <trkpt lat="59.125582" lon="18.211956">
        <ele>18.8</ele>
        <time>2014-10-11T12:24:40Z</time>
      </trkpt>
      <trkpt lat="59.125624" lon="18.211839">
        <ele>19.8</ele>
        <time>2014-10-11T12:24:41Z</time>
      </trkpt>
      <trkpt lat="59.125657" lon="18.211723">
        <ele>20.5</ele>
        <time>2014-10-11T12:24:42Z</time>
      </trkpt>
      <trkpt lat="59.125692" lon="18.2116">
        <ele>21.2</ele>
        <time>2014-10-11T12:24:43Z</time>
      </trkpt>
      <trkpt lat="59.125731" lon="18.211486">
        <ele>21.7</ele>
        <time>2014-10-11T12:24:44Z</time>
      </trkpt>
      <trkpt lat="59.125771" lon="18.211357">
        <ele>22.2</ele>
        <time>2014-10-11T12:24:45Z</time>
      </trkpt>
      <trkpt lat="59.125811" lon="18.211246">
        <ele>22.5</ele>
        <time>2014-10-11T12:24:46Z</time>
      </trkpt>
      <trkpt lat="59.125833" lon="18.211133">
        <ele>22.6</ele>
        <time>2014-10-11T12:24:47Z</time>
      </trkpt>
      <trkpt lat="59.125877" lon="18.211023">
        <ele>22.7</ele>
        <time>2014-10-11T12:24:48Z</time>
      </trkpt>
      <trkpt lat="59.125911" lon="18.210872">
        <ele>22.7</ele>
        <time>2014-10-11T12:24:49Z</time>
      </trkpt>
      <trkpt lat="59.125939" lon="18.210734">
        <ele>22.6</ele>
        <time>2014-10-11T12:24:50Z</time>
      </trkpt>
      <trkpt lat="59.125977" lon="18.210573">
        <ele>22.4</ele>
        <time>2014-10-11T12:24:51Z</time>
      </trkpt>
      <trkpt lat="59.126016" lon="18.210445">
        <ele>22</ele>
        <time>2014-10-11T12:24:52Z</time>
      </trkpt>
      <trkpt lat="59.126042" lon="18.2103">
        <ele>22.4</ele>
        <time>2014-10-11T12:24:53Z</time>
      </trkpt>
      <trkpt lat="59.126064" lon="18.210185">
        <ele>22.9</ele>
        <time>2014-10-11T12:24:54Z</time>
      </trkpt>
      <trkpt lat="59.126084" lon="18.210033">
        <ele>23.5</ele>
        <time>2014-10-11T12:24:55Z</time>
      </trkpt>
      <trkpt lat="59.126103" lon="18.209872">
        <ele>24.2</ele>
        <time>2014-10-11T12:24:56Z</time>
      </trkpt>
      <trkpt lat="59.126124" lon="18.209722">
        <ele>24.8</ele>
        <time>2014-10-11T12:24:57Z</time>
      </trkpt>
      <trkpt lat="59.126158" lon="18.209592">
        <ele>25.1</ele>
        <time>2014-10-11T12:24:58Z</time>
      </trkpt>
      <trkpt lat="59.12618" lon="18.209451">
        <ele>25.4</ele>
        <time>2014-10-11T12:24:59Z</time>
      </trkpt>
      <trkpt lat="59.126199" lon="18.209293">
        <ele>25.7</ele>
        <time>2014-10-11T12:25:00Z</time>
      </trkpt>
      <trkpt lat="59.126221" lon="18.209182">
        <ele>25.8</ele>
        <time>2014-10-11T12:25:01Z</time>
      </trkpt>
      <trkpt lat="59.126238" lon="18.209039">
        <ele>26.1</ele>
        <time>2014-10-11T12:25:02Z</time>
      </trkpt>
      <trkpt lat="59.12625" lon="18.208896">
        <ele>26.5</ele>
        <time>2014-10-11T12:25:03Z</time>
      </trkpt>
      <trkpt lat="59.126269" lon="18.208754">
        <ele>26.8</ele>
        <time>2014-10-11T12:25:04Z</time>
      </trkpt>
      <trkpt lat="59.126287" lon="18.208614">
        <ele>27.2</ele>
        <time>2014-10-11T12:25:05Z</time>
      </trkpt>
      <trkpt lat="59.126304" lon="18.208489">
        <ele>27.5</ele>
        <time>2014-10-11T12:25:06Z</time>
      </trkpt>
      <trkpt lat="59.126323" lon="18.208374">
        <ele>27.7</ele>
        <time>2014-10-11T12:25:07Z</time>
      </trkpt>
      <trkpt lat="59.126334" lon="18.208243">
        <ele>28.1</ele>
        <time>2014-10-11T12:25:08Z</time>
      </trkpt>
      <trkpt lat="59.12634" lon="18.208108">
        <ele>28.6</ele>
        <time>2014-10-11T12:25:09Z</time>
      </trkpt>
      <trkpt lat="59.126356" lon="18.207974">
        <ele>28.9</ele>
        <time>2014-10-11T12:25:10Z</time>
      </trkpt>
      <trkpt lat="59.12637" lon="18.207854">
        <ele>29</ele>
        <time>2014-10-11T12:25:11Z</time>
      </trkpt>
      <trkpt lat="59.126384" lon="18.207733">
        <ele>29.1</ele>
        <time>2014-10-11T12:25:12Z</time>
      </trkpt>
      <trkpt lat="59.126397" lon="18.207594">
        <ele>29.3</ele>
        <time>2014-10-11T12:25:13Z</time>
      </trkpt>
      <trkpt lat="59.126409" lon="18.207463">
        <ele>29.5</ele>
        <time>2014-10-11T12:25:14Z</time>
      </trkpt>
      <trkpt lat="59.126416" lon="18.207334">
        <ele>29.7</ele>
        <time>2014-10-11T12:25:15Z</time>
      </trkpt>
      <trkpt lat="59.126424" lon="18.207194">
        <ele>29.9</ele>
        <time>2014-10-11T12:25:16Z</time>
      </trkpt>
      <trkpt lat="59.126427" lon="18.207074">
        <ele>30.2</ele>
        <time>2014-10-11T12:25:17Z</time>
      </trkpt>
      <trkpt lat="59.126439" lon="18.206944">
        <ele>29.8</ele>
        <time>2014-10-11T12:25:18Z</time>
      </trkpt>
      <trkpt lat="59.126451" lon="18.206805">
        <ele>29.5</ele>
        <time>2014-10-11T12:25:19Z</time>
      </trkpt>
      <trkpt lat="59.126463" lon="18.206688">
        <ele>29.2</ele>
        <time>2014-10-11T12:25:20Z</time>
      </trkpt>
      <trkpt lat="59.126462" lon="18.20657">
        <ele>29.1</ele>
        <time>2014-10-11T12:25:21Z</time>
      </trkpt>
      <trkpt lat="59.126472" lon="18.206444">
        <ele>28.8</ele>
        <time>2014-10-11T12:25:22Z</time>
      </trkpt>
      <trkpt lat="59.126478" lon="18.206319">
        <ele>28.7</ele>
        <time>2014-10-11T12:25:23Z</time>
      </trkpt>
      <trkpt lat="59.126485" lon="18.206202">
        <ele>28.5</ele>
        <time>2014-10-11T12:25:24Z</time>
      </trkpt>
      <trkpt lat="59.12648" lon="18.206116">
        <ele>28.5</ele>
        <time>2014-10-11T12:25:25Z</time>
      </trkpt>
      <trkpt lat="59.126479" lon="18.205997">
        <ele>28.5</ele>
        <time>2014-10-11T12:25:26Z</time>
      </trkpt>
      <trkpt lat="59.126496" lon="18.205891">
        <ele>28.1</ele>
        <time>2014-10-11T12:25:27Z</time>
      </trkpt>
      <trkpt lat="59.126505" lon="18.205772">
        <ele>27.9</ele>
        <time>2014-10-11T12:25:28Z</time>
      </trkpt>
      <trkpt lat="59.126494" lon="18.205652">
        <ele>28</ele>
        <time>2014-10-11T12:25:29Z</time>
      </trkpt>
      <trkpt lat="59.126494" lon="18.205531">
        <ele>28</ele>
        <time>2014-10-11T12:25:30Z</time>
      </trkpt>
      <trkpt lat="59.126501" lon="18.205409">
        <ele>27.8</ele>
        <time>2014-10-11T12:25:31Z</time>
      </trkpt>
      <trkpt lat="59.126504" lon="18.205289">
        <ele>27.5</ele>
        <time>2014-10-11T12:25:32Z</time>
      </trkpt>
      <trkpt lat="59.126506" lon="18.205185">
        <ele>27.3</ele>
        <time>2014-10-11T12:25:33Z</time>
      </trkpt>
      <trkpt lat="59.126513" lon="18.205066">
        <ele>27</ele>
        <time>2014-10-11T12:25:34Z</time>
      </trkpt>
      <trkpt lat="59.126525" lon="18.204955">
        <ele>26.6</ele>
        <time>2014-10-11T12:25:35Z</time>
      </trkpt>
      <trkpt lat="59.126525" lon="18.204838">
        <ele>26.4</ele>
        <time>2014-10-11T12:25:36Z</time>
      </trkpt>
      <trkpt lat="59.126524" lon="18.20473">
        <ele>26.3</ele>
        <time>2014-10-11T12:25:37Z</time>
      </trkpt>
      <trkpt lat="59.126529" lon="18.204615">
        <ele>26</ele>
        <time>2014-10-11T12:25:38Z</time>
      </trkpt>
      <trkpt lat="59.126537" lon="18.204504">
        <ele>25.8</ele>
        <time>2014-10-11T12:25:39Z</time>
      </trkpt>
      <trkpt lat="59.126544" lon="18.204397">
        <ele>25.6</ele>
        <time>2014-10-11T12:25:40Z</time>
      </trkpt>
      <trkpt lat="59.126563" lon="18.204283">
        <ele>25.3</ele>
        <time>2014-10-11T12:25:41Z</time>
      </trkpt>
      <trkpt lat="59.126568" lon="18.204169">
        <ele>25.1</ele>
        <time>2014-10-11T12:25:42Z</time>
      </trkpt>
      <trkpt lat="59.12658" lon="18.204051">
        <ele>24.9</ele>
        <time>2014-10-11T12:25:43Z</time>
      </trkpt>
      <trkpt lat="59.126593" lon="18.203944">
        <ele>24.6</ele>
        <time>2014-10-11T12:25:44Z</time>
      </trkpt>
      <trkpt lat="59.126606" lon="18.203822">
        <ele>24.4</ele>
        <time>2014-10-11T12:25:45Z</time>
      </trkpt>
      <trkpt lat="59.126615" lon="18.203709">
        <ele>24.1</ele>
        <time>2014-10-11T12:25:46Z</time>
      </trkpt>
      <trkpt lat="59.126628" lon="18.203581">
        <ele>23.8</ele>
        <time>2014-10-11T12:25:47Z</time>
      </trkpt>
      <trkpt lat="59.126642" lon="18.203466">
        <ele>23.5</ele>
        <time>2014-10-11T12:25:48Z</time>
      </trkpt>
      <trkpt lat="59.126659" lon="18.203337">
        <ele>23.1</ele>
        <time>2014-10-11T12:25:49Z</time>
      </trkpt>
      <trkpt lat="59.126675" lon="18.203218">
        <ele>22.8</ele>
        <time>2014-10-11T12:25:50Z</time>
      </trkpt>
      <trkpt lat="59.126686" lon="18.203096">
        <ele>22.5</ele>
        <time>2014-10-11T12:25:51Z</time>
      </trkpt>
      <trkpt lat="59.126705" lon="18.202975">
        <ele>22.1</ele>
        <time>2014-10-11T12:25:52Z</time>
      </trkpt>
      <trkpt lat="59.126726" lon="18.202834">
        <ele>21.7</ele>
        <time>2014-10-11T12:25:53Z</time>
      </trkpt>
      <trkpt lat="59.126751" lon="18.202713">
        <ele>21.3</ele>
        <time>2014-10-11T12:25:54Z</time>
      </trkpt>
      <trkpt lat="59.126776" lon="18.20259">
        <ele>20.9</ele>
        <time>2014-10-11T12:25:55Z</time>
      </trkpt>
      <trkpt lat="59.126793" lon="18.202455">
        <ele>20.6</ele>
        <time>2014-10-11T12:25:56Z</time>
      </trkpt>
      <trkpt lat="59.126824" lon="18.202318">
        <ele>20.2</ele>
        <time>2014-10-11T12:25:57Z</time>
      </trkpt>
      <trkpt lat="59.126851" lon="18.202187">
        <ele>19.8</ele>
        <time>2014-10-11T12:25:58Z</time>
      </trkpt>
      <trkpt lat="59.126881" lon="18.202049">
        <ele>19.5</ele>
        <time>2014-10-11T12:25:59Z</time>
      </trkpt>
      <trkpt lat="59.126914" lon="18.201911">
        <ele>19.3</ele>
        <time>2014-10-11T12:26:00Z</time>
      </trkpt>
      <trkpt lat="59.126943" lon="18.201781">
        <ele>19.2</ele>
        <time>2014-10-11T12:26:01Z</time>
      </trkpt>
      <trkpt lat="59.126972" lon="18.201656">
        <ele>19.2</ele>
        <time>2014-10-11T12:26:02Z</time>
      </trkpt>
      <trkpt lat="59.127003" lon="18.201523">
        <ele>19.1</ele>
        <time>2014-10-11T12:26:03Z</time>
      </trkpt>
      <trkpt lat="59.127034" lon="18.201382">
        <ele>19.1</ele>
        <time>2014-10-11T12:26:04Z</time>
      </trkpt>
      <trkpt lat="59.12706" lon="18.20126">
        <ele>19.2</ele>
        <time>2014-10-11T12:26:05Z</time>
      </trkpt>
      <trkpt lat="59.127099" lon="18.20112">
        <ele>19.3</ele>
        <time>2014-10-11T12:26:06Z</time>
      </trkpt>
      <trkpt lat="59.127131" lon="18.200992">
        <ele>19.5</ele>
        <time>2014-10-11T12:26:07Z</time>
      </trkpt>
      <trkpt lat="59.127162" lon="18.200858">
        <ele>19.7</ele>
        <time>2014-10-11T12:26:08Z</time>
      </trkpt>
      <trkpt lat="59.127195" lon="18.20073">
        <ele>19.8</ele>
        <time>2014-10-11T12:26:09Z</time>
      </trkpt>
      <trkpt lat="59.127229" lon="18.200585">
        <ele>20</ele>
        <time>2014-10-11T12:26:10Z</time>
      </trkpt>
      <trkpt lat="59.127262" lon="18.200462">
        <ele>20.1</ele>
        <time>2014-10-11T12:26:11Z</time>
      </trkpt>
      <trkpt lat="59.127296" lon="18.200328">
        <ele>20.9</ele>
        <time>2014-10-11T12:26:12Z</time>
      </trkpt>
      <trkpt lat="59.127325" lon="18.200186">
        <ele>22.2</ele>
        <time>2014-10-11T12:26:13Z</time>
      </trkpt>
      <trkpt lat="59.127352" lon="18.20006">
        <ele>23.3</ele>
        <time>2014-10-11T12:26:14Z</time>
      </trkpt>
      <trkpt lat="59.12738" lon="18.199938">
        <ele>24.3</ele>
        <time>2014-10-11T12:26:15Z</time>
      </trkpt>
      <trkpt lat="59.127411" lon="18.199816">
        <ele>25.3</ele>
        <time>2014-10-11T12:26:16Z</time>
      </trkpt>
      <trkpt lat="59.127443" lon="18.199679">
        <ele>26.5</ele>
        <time>2014-10-11T12:26:17Z</time>
      </trkpt>
      <trkpt lat="59.127471" lon="18.199561">
        <ele>27.4</ele>
        <time>2014-10-11T12:26:18Z</time>
      </trkpt>
      <trkpt lat="59.1275" lon="18.199438">
        <ele>28.4</ele>
        <time>2014-10-11T12:26:19Z</time>
      </trkpt>
      <trkpt lat="59.127527" lon="18.199303">
        <ele>29.5</ele>
        <time>2014-10-11T12:26:20Z</time>
      </trkpt>
      <trkpt lat="59.127555" lon="18.19919">
        <ele>30.3</ele>
        <time>2014-10-11T12:26:21Z</time>
      </trkpt>
      <trkpt lat="59.127591" lon="18.19907">
        <ele>31.1</ele>
        <time>2014-10-11T12:26:22Z</time>
      </trkpt>
      <trkpt lat="59.127625" lon="18.198938">
        <ele>32.1</ele>
        <time>2014-10-11T12:26:23Z</time>
      </trkpt>
      <trkpt lat="59.12766" lon="18.19882">
        <ele>32.8</ele>
        <time>2014-10-11T12:26:24Z</time>
      </trkpt>
      <trkpt lat="59.127691" lon="18.198691">
        <ele>33.6</ele>
        <time>2014-10-11T12:26:25Z</time>
      </trkpt>
      <trkpt lat="59.127712" lon="18.198568">
        <ele>34.2</ele>
        <time>2014-10-11T12:26:26Z</time>
      </trkpt>
      <trkpt lat="59.127747" lon="18.198431">
        <ele>34.8</ele>
        <time>2014-10-11T12:26:27Z</time>
      </trkpt>
      <trkpt lat="59.127765" lon="18.198335">
        <ele>35.4</ele>
        <time>2014-10-11T12:26:28Z</time>
      </trkpt>
      <trkpt lat="59.127792" lon="18.198201">
        <ele>36.1</ele>
        <time>2014-10-11T12:26:29Z</time>
      </trkpt>
      <trkpt lat="59.127813" lon="18.198098">
        <ele>36.6</ele>
        <time>2014-10-11T12:26:30Z</time>
      </trkpt>
      <trkpt lat="59.127826" lon="18.198015">
        <ele>37.1</ele>
        <time>2014-10-11T12:26:31Z</time>
      </trkpt>
      <trkpt lat="59.127855" lon="18.197897">
        <ele>37.7</ele>
        <time>2014-10-11T12:26:32Z</time>
      </trkpt>
      <trkpt lat="59.127878" lon="18.197783">
        <ele>38.3</ele>
        <time>2014-10-11T12:26:33Z</time>
      </trkpt>
      <trkpt lat="59.127902" lon="18.197672">
        <ele>38.9</ele>
        <time>2014-10-11T12:26:34Z</time>
      </trkpt>
      <trkpt lat="59.127922" lon="18.197553">
        <ele>39.5</ele>
        <time>2014-10-11T12:26:35Z</time>
      </trkpt>
      <trkpt lat="59.12794" lon="18.197436">
        <ele>39.9</ele>
        <time>2014-10-11T12:26:36Z</time>
      </trkpt>
      <trkpt lat="59.127958" lon="18.197328">
        <ele>40.2</ele>
        <time>2014-10-11T12:26:37Z</time>
      </trkpt>
      <trkpt lat="59.127991" lon="18.197205">
        <ele>40.2</ele>
        <time>2014-10-11T12:26:38Z</time>
      </trkpt>
      <trkpt lat="59.128016" lon="18.197091">
        <ele>40.3</ele>
        <time>2014-10-11T12:26:39Z</time>
      </trkpt>
      <trkpt lat="59.128041" lon="18.196974">
        <ele>39.4</ele>
        <time>2014-10-11T12:26:40Z</time>
      </trkpt>
      <trkpt lat="59.128062" lon="18.196854">
        <ele>38.5</ele>
        <time>2014-10-11T12:26:41Z</time>
      </trkpt>
      <trkpt lat="59.128091" lon="18.196741">
        <ele>37.5</ele>
        <time>2014-10-11T12:26:42Z</time>
      </trkpt>
      <trkpt lat="59.128125" lon="18.196639">
        <ele>36.4</ele>
        <time>2014-10-11T12:26:43Z</time>
      </trkpt>
      <trkpt lat="59.128153" lon="18.196539">
        <ele>35.5</ele>
        <time>2014-10-11T12:26:44Z</time>
      </trkpt>
      <trkpt lat="59.128177" lon="18.196433">
        <ele>34.8</ele>
        <time>2014-10-11T12:26:45Z</time>
      </trkpt>
      <trkpt lat="59.128204" lon="18.196327">
        <ele>33.9</ele>
        <time>2014-10-11T12:26:46Z</time>
      </trkpt>
      <trkpt lat="59.128231" lon="18.196215">
        <ele>33.2</ele>
        <time>2014-10-11T12:26:47Z</time>
      </trkpt>
      <trkpt lat="59.128257" lon="18.196107">
        <ele>32.5</ele>
        <time>2014-10-11T12:26:48Z</time>
      </trkpt>
      <trkpt lat="59.128294" lon="18.195999">
        <ele>31.7</ele>
        <time>2014-10-11T12:26:49Z</time>
      </trkpt>
      <trkpt lat="59.128327" lon="18.195902">
        <ele>30.9</ele>
        <time>2014-10-11T12:26:50Z</time>
      </trkpt>
      <trkpt lat="59.12836" lon="18.195793">
        <ele>30.2</ele>
        <time>2014-10-11T12:26:51Z</time>
      </trkpt>
      <trkpt lat="59.128404" lon="18.195688">
        <ele>29.3</ele>
        <time>2014-10-11T12:26:52Z</time>
      </trkpt>
      <trkpt lat="59.128451" lon="18.195595">
        <ele>28.4</ele>
        <time>2014-10-11T12:26:53Z</time>
      </trkpt>
      <trkpt lat="59.128495" lon="18.195487">
        <ele>27.6</ele>
        <time>2014-10-11T12:26:54Z</time>
      </trkpt>
      <trkpt lat="59.128548" lon="18.195397">
        <ele>26.6</ele>
        <time>2014-10-11T12:26:55Z</time>
      </trkpt>
      <trkpt lat="59.128598" lon="18.195328">
        <ele>25.8</ele>
        <time>2014-10-11T12:26:56Z</time>
      </trkpt>
      <trkpt lat="59.128646" lon="18.195238">
        <ele>24.9</ele>
        <time>2014-10-11T12:26:57Z</time>
      </trkpt>
      <trkpt lat="59.128697" lon="18.195153">
        <ele>24</ele>
        <time>2014-10-11T12:26:58Z</time>
      </trkpt>
      <trkpt lat="59.128757" lon="18.195081">
        <ele>22.9</ele>
        <time>2014-10-11T12:26:59Z</time>
      </trkpt>
      <trkpt lat="59.128812" lon="18.195011">
        <ele>22.4</ele>
        <time>2014-10-11T12:27:00Z</time>
      </trkpt>
      <trkpt lat="59.128865" lon="18.194931">
        <ele>21.8</ele>
        <time>2014-10-11T12:27:01Z</time>
      </trkpt>
      <trkpt lat="59.128924" lon="18.194847">
        <ele>21.2</ele>
        <time>2014-10-11T12:27:02Z</time>
      </trkpt>
      <trkpt lat="59.128973" lon="18.19476">
        <ele>20.6</ele>
        <time>2014-10-11T12:27:03Z</time>
      </trkpt>
      <trkpt lat="59.129023" lon="18.194676">
        <ele>20.1</ele>
        <time>2014-10-11T12:27:04Z</time>
      </trkpt>
      <trkpt lat="59.129081" lon="18.194601">
        <ele>19.4</ele>
        <time>2014-10-11T12:27:05Z</time>
      </trkpt>
      <trkpt lat="59.129141" lon="18.194513">
        <ele>18.8</ele>
        <time>2014-10-11T12:27:06Z</time>
      </trkpt>
      <trkpt lat="59.129209" lon="18.194427">
        <ele>18</ele>
        <time>2014-10-11T12:27:07Z</time>
      </trkpt>
      <trkpt lat="59.129283" lon="18.194334">
        <ele>17.2</ele>
        <time>2014-10-11T12:27:08Z</time>
      </trkpt>
      <trkpt lat="59.129353" lon="18.194251">
        <ele>16.5</ele>
        <time>2014-10-11T12:27:09Z</time>
      </trkpt>
      <trkpt lat="59.129426" lon="18.194144">
        <ele>15.7</ele>
        <time>2014-10-11T12:27:10Z</time>
      </trkpt>
      <trkpt lat="59.129478" lon="18.194023">
        <ele>15.1</ele>
        <time>2014-10-11T12:27:11Z</time>
      </trkpt>
      <trkpt lat="59.129496" lon="18.193858">
        <ele>14.9</ele>
        <time>2014-10-11T12:27:12Z</time>
      </trkpt>
      <trkpt lat="59.129492" lon="18.193706">
        <ele>14.9</ele>
        <time>2014-10-11T12:27:13Z</time>
      </trkpt>
      <trkpt lat="59.129482" lon="18.193553">
        <ele>14.8</ele>
        <time>2014-10-11T12:27:14Z</time>
      </trkpt>
      <trkpt lat="59.129463" lon="18.193394">
        <ele>14.8</ele>
        <time>2014-10-11T12:27:15Z</time>
      </trkpt>
      <trkpt lat="59.129431" lon="18.193241">
        <ele>14.9</ele>
        <time>2014-10-11T12:27:16Z</time>
      </trkpt>
      <trkpt lat="59.129402" lon="18.193117">
        <ele>15</ele>
        <time>2014-10-11T12:27:17Z</time>
      </trkpt>
      <trkpt lat="59.129372" lon="18.192979">
        <ele>15.1</ele>
        <time>2014-10-11T12:27:18Z</time>
      </trkpt>
      <trkpt lat="59.12934" lon="18.192849">
        <ele>15.3</ele>
        <time>2014-10-11T12:27:19Z</time>
      </trkpt>
      <trkpt lat="59.129293" lon="18.19274">
        <ele>15.6</ele>
        <time>2014-10-11T12:27:20Z</time>
      </trkpt>
      <trkpt lat="59.129235" lon="18.192681">
        <ele>16.1</ele>
        <time>2014-10-11T12:27:21Z</time>
      </trkpt>
      <trkpt lat="59.129174" lon="18.192672">
        <ele>16.6</ele>
        <time>2014-10-11T12:27:22Z</time>
      </trkpt>
      <trkpt lat="59.129113" lon="18.192706">
        <ele>17.2</ele>
        <time>2014-10-11T12:27:23Z</time>
      </trkpt>
      <trkpt lat="59.129047" lon="18.192734">
        <ele>17.9</ele>
        <time>2014-10-11T12:27:24Z</time>
      </trkpt>
      <trkpt lat="59.128987" lon="18.19277">
        <ele>18.5</ele>
        <time>2014-10-11T12:27:25Z</time>
      </trkpt>
      <trkpt lat="59.128929" lon="18.192787">
        <ele>19</ele>
        <time>2014-10-11T12:27:26Z</time>
      </trkpt>
      <trkpt lat="59.128873" lon="18.192814">
        <ele>19.6</ele>
        <time>2014-10-11T12:27:27Z</time>
      </trkpt>
      <trkpt lat="59.128819" lon="18.192824">
        <ele>20.1</ele>
        <time>2014-10-11T12:27:28Z</time>
      </trkpt>
      <trkpt lat="59.128762" lon="18.192834">
        <ele>20.7</ele>
        <time>2014-10-11T12:27:29Z</time>
      </trkpt>
      <trkpt lat="59.128715" lon="18.192844">
        <ele>21.5</ele>
        <time>2014-10-11T12:27:30Z</time>
      </trkpt>
      <trkpt lat="59.128664" lon="18.192851">
        <ele>22.5</ele>
        <time>2014-10-11T12:27:31Z</time>
      </trkpt>
      <trkpt lat="59.128611" lon="18.192845">
        <ele>23.5</ele>
        <time>2014-10-11T12:27:32Z</time>
      </trkpt>
      <trkpt lat="59.128559" lon="18.192837">
        <ele>24.5</ele>
        <time>2014-10-11T12:27:33Z</time>
      </trkpt>
      <trkpt lat="59.12852" lon="18.192824">
        <ele>25.2</ele>
        <time>2014-10-11T12:27:34Z</time>
      </trkpt>
      <trkpt lat="59.128474" lon="18.192797">
        <ele>26</ele>
        <time>2014-10-11T12:27:35Z</time>
      </trkpt>
      <trkpt lat="59.128431" lon="18.192766">
        <ele>26.8</ele>
        <time>2014-10-11T12:27:36Z</time>
      </trkpt>
      <trkpt lat="59.128391" lon="18.192742">
        <ele>27.5</ele>
        <time>2014-10-11T12:27:37Z</time>
      </trkpt>
      <trkpt lat="59.128356" lon="18.192714">
        <ele>28.1</ele>
        <time>2014-10-11T12:27:38Z</time>
      </trkpt>
      <trkpt lat="59.128322" lon="18.192684">
        <ele>28.7</ele>
        <time>2014-10-11T12:27:39Z</time>
      </trkpt>
      <trkpt lat="59.128285" lon="18.192669">
        <ele>29.3</ele>
        <time>2014-10-11T12:27:40Z</time>
      </trkpt>
      <trkpt lat="59.128253" lon="18.192645">
        <ele>29.9</ele>
        <time>2014-10-11T12:27:41Z</time>
      </trkpt>
      <trkpt lat="59.128216" lon="18.192622">
        <ele>30.5</ele>
        <time>2014-10-11T12:27:42Z</time>
      </trkpt>
      <trkpt lat="59.128191" lon="18.192596">
        <ele>31</ele>
        <time>2014-10-11T12:27:43Z</time>
      </trkpt>
      <trkpt lat="59.128156" lon="18.192563">
        <ele>31.6</ele>
        <time>2014-10-11T12:27:44Z</time>
      </trkpt>
      <trkpt lat="59.128119" lon="18.192533">
        <ele>32.2</ele>
        <time>2014-10-11T12:27:45Z</time>
      </trkpt>
      <trkpt lat="59.128085" lon="18.192512">
        <ele>32.8</ele>
        <time>2014-10-11T12:27:46Z</time>
      </trkpt>
      <trkpt lat="59.128051" lon="18.192492">
        <ele>33.4</ele>
        <time>2014-10-11T12:27:47Z</time>
      </trkpt>
      <trkpt lat="59.128018" lon="18.192466">
        <ele>34</ele>
        <time>2014-10-11T12:27:48Z</time>
      </trkpt>
      <trkpt lat="59.127983" lon="18.192442">
        <ele>34.6</ele>
        <time>2014-10-11T12:27:49Z</time>
      </trkpt>
      <trkpt lat="59.12774" lon="18.192285">
        <ele>36.5</ele>
        <time>2014-10-11T12:27:56Z</time>
      </trkpt>
      <trkpt lat="59.1277" lon="18.192254">
        <ele>36.7</ele>
        <time>2014-10-11T12:27:57Z</time>
      </trkpt>
      <trkpt lat="59.127667" lon="18.192223">
        <ele>36.8</ele>
        <time>2014-10-11T12:27:58Z</time>
      </trkpt>
      <trkpt lat="59.127636" lon="18.192197">
        <ele>36.9</ele>
        <time>2014-10-11T12:27:59Z</time>
      </trkpt>
      <trkpt lat="59.127607" lon="18.192163">
        <ele>37</ele>
        <time>2014-10-11T12:28:00Z</time>
      </trkpt>
      <trkpt lat="59.127579" lon="18.192133">
        <ele>37.1</ele>
        <time>2014-10-11T12:28:01Z</time>
      </trkpt>
      <trkpt lat="59.127553" lon="18.192104">
        <ele>37.2</ele>
        <time>2014-10-11T12:28:02Z</time>
      </trkpt>
      <trkpt lat="59.127527" lon="18.192077">
        <ele>37.3</ele>
        <time>2014-10-11T12:28:03Z</time>
      </trkpt>
      <trkpt lat="59.127496" lon="18.192051">
        <ele>37.5</ele>
        <time>2014-10-11T12:28:04Z</time>
      </trkpt>
      <trkpt lat="59.127447" lon="18.191997">
        <ele>37.8</ele>
        <time>2014-10-11T12:28:06Z</time>
      </trkpt>
      <trkpt lat="59.127417" lon="18.191974">
        <ele>38</ele>
        <time>2014-10-11T12:28:07Z</time>
      </trkpt>
      <trkpt lat="59.12736" lon="18.191928">
        <ele>38.3</ele>
        <time>2014-10-11T12:28:09Z</time>
      </trkpt>
      <trkpt lat="59.127315" lon="18.191876">
        <ele>38.5</ele>
        <time>2014-10-11T12:28:11Z</time>
      </trkpt>
      <trkpt lat="59.127283" lon="18.191849">
        <ele>38.7</ele>
        <time>2014-10-11T12:28:12Z</time>
      </trkpt>
      <trkpt lat="59.127237" lon="18.191795">
        <ele>38.9</ele>
        <time>2014-10-11T12:28:14Z</time>
      </trkpt>
      <trkpt lat="59.127214" lon="18.191765">
        <ele>39</ele>
        <time>2014-10-11T12:28:15Z</time>
      </trkpt>
      <trkpt lat="59.127185" lon="18.191737">
        <ele>39.1</ele>
        <time>2014-10-11T12:28:16Z</time>
      </trkpt>
      <trkpt lat="59.127159" lon="18.191712">
        <ele>39.2</ele>
        <time>2014-10-11T12:28:17Z</time>
      </trkpt>
      <trkpt lat="59.127132" lon="18.191691">
        <ele>39.3</ele>
        <time>2014-10-11T12:28:18Z</time>
      </trkpt>
      <trkpt lat="59.127103" lon="18.191664">
        <ele>39.4</ele>
        <time>2014-10-11T12:28:19Z</time>
      </trkpt>
      <trkpt lat="59.127055" lon="18.191609">
        <ele>39.4</ele>
        <time>2014-10-11T12:28:21Z</time>
      </trkpt>
      <trkpt lat="59.127025" lon="18.191575">
        <ele>39.4</ele>
        <time>2014-10-11T12:28:22Z</time>
      </trkpt>
      <trkpt lat="59.127003" lon="18.191545">
        <ele>39.3</ele>
        <time>2014-10-11T12:28:23Z</time>
      </trkpt>
      <trkpt lat="59.126958" lon="18.191488">
        <ele>39.3</ele>
        <time>2014-10-11T12:28:25Z</time>
      </trkpt>
      <trkpt lat="59.12693" lon="18.19146">
        <ele>39.3</ele>
        <time>2014-10-11T12:28:26Z</time>
      </trkpt>
      <trkpt lat="59.1269" lon="18.19143">
        <ele>39.3</ele>
        <time>2014-10-11T12:28:27Z</time>
      </trkpt>
      <trkpt lat="59.126867" lon="18.191397">
        <ele>39.3</ele>
        <time>2014-10-11T12:28:28Z</time>
      </trkpt>
      <trkpt lat="59.12684" lon="18.191364">
        <ele>39.3</ele>
        <time>2014-10-11T12:28:29Z</time>
      </trkpt>
      <trkpt lat="59.126812" lon="18.19133">
        <ele>39.3</ele>
        <time>2014-10-11T12:28:30Z</time>
      </trkpt>
      <trkpt lat="59.126783" lon="18.191301">
        <ele>39.4</ele>
        <time>2014-10-11T12:28:31Z</time>
      </trkpt>
      <trkpt lat="59.126749" lon="18.191272">
        <ele>39.4</ele>
        <time>2014-10-11T12:28:32Z</time>
      </trkpt>
      <trkpt lat="59.126715" lon="18.191248">
        <ele>39.4</ele>
        <time>2014-10-11T12:28:33Z</time>
      </trkpt>
      <trkpt lat="59.126681" lon="18.191224">
        <ele>39.5</ele>
        <time>2014-10-11T12:28:34Z</time>
      </trkpt>
      <trkpt lat="59.126645" lon="18.1912">
        <ele>39.5</ele>
        <time>2014-10-11T12:28:35Z</time>
      </trkpt>
      <trkpt lat="59.126611" lon="18.191173">
        <ele>39.6</ele>
        <time>2014-10-11T12:28:36Z</time>
      </trkpt>
      <trkpt lat="59.12658" lon="18.191144">
        <ele>39.6</ele>
        <time>2014-10-11T12:28:37Z</time>
      </trkpt>
      <trkpt lat="59.126544" lon="18.191115">
        <ele>39.7</ele>
        <time>2014-10-11T12:28:38Z</time>
      </trkpt>
      <trkpt lat="59.126512" lon="18.191093">
        <ele>39.8</ele>
        <time>2014-10-11T12:28:39Z</time>
      </trkpt>
      <trkpt lat="59.126475" lon="18.191067">
        <ele>39.8</ele>
        <time>2014-10-11T12:28:40Z</time>
      </trkpt>
      <trkpt lat="59.126443" lon="18.19104">
        <ele>39.9</ele>
        <time>2014-10-11T12:28:41Z</time>
      </trkpt>
      <trkpt lat="59.126402" lon="18.191016">
        <ele>40</ele>
        <time>2014-10-11T12:28:42Z</time>
      </trkpt>
      <trkpt lat="59.126363" lon="18.190986">
        <ele>40.1</ele>
        <time>2014-10-11T12:28:43Z</time>
      </trkpt>
      <trkpt lat="59.126325" lon="18.190954">
        <ele>40.2</ele>
        <time>2014-10-11T12:28:44Z</time>
      </trkpt>
      <trkpt lat="59.126248" lon="18.190902">
        <ele>40.4</ele>
        <time>2014-10-11T12:28:45Z</time>
      </trkpt>
      <trkpt lat="59.126208" lon="18.190868">
        <ele>40.6</ele>
        <time>2014-10-11T12:28:46Z</time>
      </trkpt>
      <trkpt lat="59.126156" lon="18.19082">
        <ele>40.8</ele>
        <time>2014-10-11T12:28:47Z</time>
      </trkpt>
      <trkpt lat="59.126112" lon="18.190779">
        <ele>41</ele>
        <time>2014-10-11T12:28:48Z</time>
      </trkpt>
      <trkpt lat="59.126055" lon="18.190734">
        <ele>41.2</ele>
        <time>2014-10-11T12:28:49Z</time>
      </trkpt>
      <trkpt lat="59.126003" lon="18.190692">
        <ele>41.4</ele>
        <time>2014-10-11T12:28:50Z</time>
      </trkpt>
      <trkpt lat="59.125951" lon="18.190663">
        <ele>41.5</ele>
        <time>2014-10-11T12:28:51Z</time>
      </trkpt>
      <trkpt lat="59.125905" lon="18.190621">
        <ele>41.7</ele>
        <time>2014-10-11T12:28:52Z</time>
      </trkpt>
      <trkpt lat="59.125845" lon="18.190571">
        <ele>41.9</ele>
        <time>2014-10-11T12:28:53Z</time>
      </trkpt>
      <trkpt lat="59.125798" lon="18.190531">
        <ele>42</ele>
        <time>2014-10-11T12:28:54Z</time>
      </trkpt>
      <trkpt lat="59.125754" lon="18.190484">
        <ele>42.2</ele>
        <time>2014-10-11T12:28:55Z</time>
      </trkpt>
      <trkpt lat="59.125708" lon="18.190439">
        <ele>42.3</ele>
        <time>2014-10-11T12:28:56Z</time>
      </trkpt>
      <trkpt lat="59.125659" lon="18.190384">
        <ele>42.5</ele>
        <time>2014-10-11T12:28:57Z</time>
      </trkpt>
      <trkpt lat="59.125608" lon="18.190338">
        <ele>42.6</ele>
        <time>2014-10-11T12:28:58Z</time>
      </trkpt>
      <trkpt lat="59.125574" lon="18.190323">
        <ele>42.7</ele>
        <time>2014-10-11T12:28:59Z</time>
      </trkpt>
      <trkpt lat="59.125541" lon="18.190265">
        <ele>42.9</ele>
        <time>2014-10-11T12:29:00Z</time>
      </trkpt>
      <trkpt lat="59.125508" lon="18.190221">
        <ele>43</ele>
        <time>2014-10-11T12:29:01Z</time>
      </trkpt>
      <trkpt lat="59.125458" lon="18.190174">
        <ele>43.2</ele>
        <time>2014-10-11T12:29:02Z</time>
      </trkpt>
      <trkpt lat="59.125402" lon="18.190105">
        <ele>43.4</ele>
        <time>2014-10-11T12:29:03Z</time>
      </trkpt>
      <trkpt lat="59.125351" lon="18.190061">
        <ele>43.4</ele>
        <time>2014-10-11T12:29:04Z</time>
      </trkpt>
      <trkpt lat="59.125307" lon="18.190009">
        <ele>43.5</ele>
        <time>2014-10-11T12:29:05Z</time>
      </trkpt>
      <trkpt lat="59.125247" lon="18.189948">
        <ele>43.5</ele>
        <time>2014-10-11T12:29:06Z</time>
      </trkpt>
      <trkpt lat="59.1252" lon="18.189898">
        <ele>43.6</ele>
        <time>2014-10-11T12:29:07Z</time>
      </trkpt>
      <trkpt lat="59.125144" lon="18.189836">
        <ele>43.6</ele>
        <time>2014-10-11T12:29:08Z</time>
      </trkpt>
      <trkpt lat="59.125096" lon="18.189754">
        <ele>43.6</ele>
        <time>2014-10-11T12:29:09Z</time>
      </trkpt>
      <trkpt lat="59.125056" lon="18.189674">
        <ele>43.6</ele>
        <time>2014-10-11T12:29:10Z</time>
      </trkpt>
      <trkpt lat="59.125014" lon="18.189593">
        <ele>43.5</ele>
        <time>2014-10-11T12:29:11Z</time>
      </trkpt>
      <trkpt lat="59.124983" lon="18.189525">
        <ele>43.5</ele>
        <time>2014-10-11T12:29:12Z</time>
      </trkpt>
      <trkpt lat="59.124942" lon="18.189442">
        <ele>43.5</ele>
        <time>2014-10-11T12:29:13Z</time>
      </trkpt>
      <trkpt lat="59.124902" lon="18.189364">
        <ele>43.5</ele>
        <time>2014-10-11T12:29:14Z</time>
      </trkpt>
      <trkpt lat="59.124869" lon="18.189284">
        <ele>43.5</ele>
        <time>2014-10-11T12:29:15Z</time>
      </trkpt>
      <trkpt lat="59.12483" lon="18.189182">
        <ele>43.4</ele>
        <time>2014-10-11T12:29:16Z</time>
      </trkpt>
      <trkpt lat="59.124798" lon="18.189099">
        <ele>43.4</ele>
        <time>2014-10-11T12:29:17Z</time>
      </trkpt>
      <trkpt lat="59.124762" lon="18.189028">
        <ele>43.4</ele>
        <time>2014-10-11T12:29:18Z</time>
      </trkpt>
      <trkpt lat="59.124715" lon="18.188933">
        <ele>43.3</ele>
        <time>2014-10-11T12:29:19Z</time>
      </trkpt>
      <trkpt lat="59.124672" lon="18.188828">
        <ele>43.2</ele>
        <time>2014-10-11T12:29:20Z</time>
      </trkpt>
      <trkpt lat="59.12463" lon="18.188736">
        <ele>43.1</ele>
        <time>2014-10-11T12:29:21Z</time>
      </trkpt>
      <trkpt lat="59.12459" lon="18.188659">
        <ele>42.9</ele>
        <time>2014-10-11T12:29:22Z</time>
      </trkpt>
      <trkpt lat="59.124547" lon="18.188531">
        <ele>42.8</ele>
        <time>2014-10-11T12:29:23Z</time>
      </trkpt>
      <trkpt lat="59.124514" lon="18.188439">
        <ele>42.6</ele>
        <time>2014-10-11T12:29:24Z</time>
      </trkpt>
      <trkpt lat="59.124471" lon="18.188347">
        <ele>42.5</ele>
        <time>2014-10-11T12:29:25Z</time>
      </trkpt>
      <trkpt lat="59.124429" lon="18.188262">
        <ele>42.4</ele>
        <time>2014-10-11T12:29:26Z</time>
      </trkpt>
      <trkpt lat="59.124394" lon="18.188157">
        <ele>42.2</ele>
        <time>2014-10-11T12:29:27Z</time>
      </trkpt>
      <trkpt lat="59.124354" lon="18.18805">
        <ele>42</ele>
        <time>2014-10-11T12:29:28Z</time>
      </trkpt>
      <trkpt lat="59.124316" lon="18.187974">
        <ele>41.8</ele>
        <time>2014-10-11T12:29:29Z</time>
      </trkpt>
      <trkpt lat="59.124281" lon="18.187884">
        <ele>41.6</ele>
        <time>2014-10-11T12:29:30Z</time>
      </trkpt>
      <trkpt lat="59.124241" lon="18.187794">
        <ele>41.4</ele>
        <time>2014-10-11T12:29:31Z</time>
      </trkpt>
      <trkpt lat="59.124184" lon="18.187706">
        <ele>41.1</ele>
        <time>2014-10-11T12:29:32Z</time>
      </trkpt>
      <trkpt lat="59.124132" lon="18.187599">
        <ele>40.9</ele>
        <time>2014-10-11T12:29:33Z</time>
      </trkpt>
      <trkpt lat="59.124086" lon="18.187499">
        <ele>40.6</ele>
        <time>2014-10-11T12:29:34Z</time>
      </trkpt>
      <trkpt lat="59.124047" lon="18.187407">
        <ele>40.4</ele>
        <time>2014-10-11T12:29:35Z</time>
      </trkpt>
      <trkpt lat="59.123999" lon="18.187295">
        <ele>40</ele>
        <time>2014-10-11T12:29:36Z</time>
      </trkpt>
      <trkpt lat="59.12395" lon="18.187161">
        <ele>39.6</ele>
        <time>2014-10-11T12:29:37Z</time>
      </trkpt>
      <trkpt lat="59.123909" lon="18.187061">
        <ele>39.3</ele>
        <time>2014-10-11T12:29:38Z</time>
      </trkpt>
      <trkpt lat="59.123861" lon="18.186945">
        <ele>38.8</ele>
        <time>2014-10-11T12:29:39Z</time>
      </trkpt>
      <trkpt lat="59.123824" lon="18.186868">
        <ele>38.4</ele>
        <time>2014-10-11T12:29:40Z</time>
      </trkpt>
      <trkpt lat="59.123768" lon="18.186744">
        <ele>37.8</ele>
        <time>2014-10-11T12:29:41Z</time>
      </trkpt>
      <trkpt lat="59.123718" lon="18.186621">
        <ele>37.4</ele>
        <time>2014-10-11T12:29:42Z</time>
      </trkpt>
      <trkpt lat="59.123672" lon="18.186511">
        <ele>37</ele>
        <time>2014-10-11T12:29:43Z</time>
      </trkpt>
      <trkpt lat="59.123619" lon="18.186388">
        <ele>36.6</ele>
        <time>2014-10-11T12:29:44Z</time>
      </trkpt>
      <trkpt lat="59.123557" lon="18.186274">
        <ele>36.3</ele>
        <time>2014-10-11T12:29:45Z</time>
      </trkpt>
      <trkpt lat="59.123504" lon="18.186156">
        <ele>36.1</ele>
        <time>2014-10-11T12:29:46Z</time>
      </trkpt>
      <trkpt lat="59.123453" lon="18.186037">
        <ele>35.9</ele>
        <time>2014-10-11T12:29:47Z</time>
      </trkpt>
      <trkpt lat="59.123407" lon="18.185925">
        <ele>35.8</ele>
        <time>2014-10-11T12:29:48Z</time>
      </trkpt>
      <trkpt lat="59.123355" lon="18.185819">
        <ele>35.7</ele>
        <time>2014-10-11T12:29:49Z</time>
      </trkpt>
      <trkpt lat="59.123301" lon="18.185703">
        <ele>35.6</ele>
        <time>2014-10-11T12:29:50Z</time>
      </trkpt>
      <trkpt lat="59.123251" lon="18.185617">
        <ele>35.5</ele>
        <time>2014-10-11T12:29:51Z</time>
      </trkpt>
      <trkpt lat="59.123197" lon="18.185542">
        <ele>35.5</ele>
        <time>2014-10-11T12:29:52Z</time>
      </trkpt>
      <trkpt lat="59.123138" lon="18.185459">
        <ele>35.5</ele>
        <time>2014-10-11T12:29:53Z</time>
      </trkpt>
      <trkpt lat="59.123079" lon="18.185399">
        <ele>35.6</ele>
        <time>2014-10-11T12:29:54Z</time>
      </trkpt>
      <trkpt lat="59.123022" lon="18.185312">
        <ele>35.6</ele>
        <time>2014-10-11T12:29:55Z</time>
      </trkpt>
      <trkpt lat="59.122954" lon="18.185233">
        <ele>35.7</ele>
        <time>2014-10-11T12:29:56Z</time>
      </trkpt>
      <trkpt lat="59.122885" lon="18.185161">
        <ele>35.7</ele>
        <time>2014-10-11T12:29:57Z</time>
      </trkpt>
      <trkpt lat="59.122816" lon="18.185095">
        <ele>35.5</ele>
        <time>2014-10-11T12:29:58Z</time>
      </trkpt>
      <trkpt lat="59.122744" lon="18.185069">
        <ele>35.4</ele>
        <time>2014-10-11T12:29:59Z</time>
      </trkpt>
      <trkpt lat="59.122676" lon="18.185041">
        <ele>35.3</ele>
        <time>2014-10-11T12:30:00Z</time>
      </trkpt>
      <trkpt lat="59.1226" lon="18.185017">
        <ele>35.1</ele>
        <time>2014-10-11T12:30:01Z</time>
      </trkpt>
      <trkpt lat="59.122531" lon="18.184992">
        <ele>35</ele>
        <time>2014-10-11T12:30:02Z</time>
      </trkpt>
      <trkpt lat="59.122465" lon="18.184983">
        <ele>34.9</ele>
        <time>2014-10-11T12:30:03Z</time>
      </trkpt>
      <trkpt lat="59.122392" lon="18.184968">
        <ele>34.8</ele>
        <time>2014-10-11T12:30:04Z</time>
      </trkpt>
      <trkpt lat="59.122328" lon="18.184965">
        <ele>34.8</ele>
        <time>2014-10-11T12:30:05Z</time>
      </trkpt>
      <trkpt lat="59.122261" lon="18.184989">
        <ele>34.7</ele>
        <time>2014-10-11T12:30:06Z</time>
      </trkpt>
      <trkpt lat="59.122196" lon="18.185002">
        <ele>34.6</ele>
        <time>2014-10-11T12:30:07Z</time>
      </trkpt>
      <trkpt lat="59.122128" lon="18.185031">
        <ele>34.6</ele>
        <time>2014-10-11T12:30:08Z</time>
      </trkpt>
      <trkpt lat="59.122058" lon="18.185064">
        <ele>34.5</ele>
        <time>2014-10-11T12:30:09Z</time>
      </trkpt>
      <trkpt lat="59.121991" lon="18.185094">
        <ele>34.5</ele>
        <time>2014-10-11T12:30:10Z</time>
      </trkpt>
      <trkpt lat="59.121928" lon="18.185141">
        <ele>34.4</ele>
        <time>2014-10-11T12:30:11Z</time>
      </trkpt>
      <trkpt lat="59.121865" lon="18.185169">
        <ele>34.3</ele>
        <time>2014-10-11T12:30:12Z</time>
      </trkpt>
      <trkpt lat="59.121796" lon="18.185238">
        <ele>34.2</ele>
        <time>2014-10-11T12:30:13Z</time>
      </trkpt>
      <trkpt lat="59.121736" lon="18.185315">
        <ele>34.1</ele>
        <time>2014-10-11T12:30:14Z</time>
      </trkpt>
      <trkpt lat="59.121664" lon="18.185368">
        <ele>34</ele>
        <time>2014-10-11T12:30:15Z</time>
      </trkpt>
      <trkpt lat="59.1216" lon="18.185424">
        <ele>33.8</ele>
        <time>2014-10-11T12:30:16Z</time>
      </trkpt>
      <trkpt lat="59.12153" lon="18.185465">
        <ele>33.7</ele>
        <time>2014-10-11T12:30:17Z</time>
      </trkpt>
      <trkpt lat="59.121462" lon="18.185499">
        <ele>33.6</ele>
        <time>2014-10-11T12:30:18Z</time>
      </trkpt>
      <trkpt lat="59.121398" lon="18.185549">
        <ele>33.5</ele>
        <time>2014-10-11T12:30:19Z</time>
      </trkpt>
      <trkpt lat="59.121331" lon="18.185593">
        <ele>33.4</ele>
        <time>2014-10-11T12:30:20Z</time>
      </trkpt>
      <trkpt lat="59.12127" lon="18.185646">
        <ele>33.3</ele>
        <time>2014-10-11T12:30:21Z</time>
      </trkpt>
      <trkpt lat="59.121198" lon="18.185706">
        <ele>33.5</ele>
        <time>2014-10-11T12:30:22Z</time>
      </trkpt>
      <trkpt lat="59.121137" lon="18.185757">
        <ele>33.6</ele>
        <time>2014-10-11T12:30:23Z</time>
      </trkpt>
      <trkpt lat="59.121074" lon="18.185811">
        <ele>33.8</ele>
        <time>2014-10-11T12:30:24Z</time>
      </trkpt>
      <trkpt lat="59.121006" lon="18.185862">
        <ele>34</ele>
        <time>2014-10-11T12:30:25Z</time>
      </trkpt>
      <trkpt lat="59.120941" lon="18.185938">
        <ele>34.1</ele>
        <time>2014-10-11T12:30:26Z</time>
      </trkpt>
      <trkpt lat="59.120877" lon="18.186">
        <ele>34.3</ele>
        <time>2014-10-11T12:30:27Z</time>
      </trkpt>
      <trkpt lat="59.120806" lon="18.186055">
        <ele>34.4</ele>
        <time>2014-10-11T12:30:28Z</time>
      </trkpt>
      <trkpt lat="59.120743" lon="18.186113">
        <ele>34.5</ele>
        <time>2014-10-11T12:30:29Z</time>
      </trkpt>
      <trkpt lat="59.120668" lon="18.186168">
        <ele>34.7</ele>
        <time>2014-10-11T12:30:30Z</time>
      </trkpt>
      <trkpt lat="59.120605" lon="18.186217">
        <ele>34.8</ele>
        <time>2014-10-11T12:30:31Z</time>
      </trkpt>
      <trkpt lat="59.120542" lon="18.186281">
        <ele>34.9</ele>
        <time>2014-10-11T12:30:32Z</time>
      </trkpt>
      <trkpt lat="59.120471" lon="18.186338">
        <ele>34.9</ele>
        <time>2014-10-11T12:30:33Z</time>
      </trkpt>
      <trkpt lat="59.120416" lon="18.186395">
        <ele>35</ele>
        <time>2014-10-11T12:30:34Z</time>
      </trkpt>
      <trkpt lat="59.120351" lon="18.18645">
        <ele>34.9</ele>
        <time>2014-10-11T12:30:35Z</time>
      </trkpt>
      <trkpt lat="59.120286" lon="18.186504">
        <ele>34.8</ele>
        <time>2014-10-11T12:30:36Z</time>
      </trkpt>
      <trkpt lat="59.120224" lon="18.186557">
        <ele>34.7</ele>
        <time>2014-10-11T12:30:37Z</time>
      </trkpt>
      <trkpt lat="59.120151" lon="18.186603">
        <ele>34.5</ele>
        <time>2014-10-11T12:30:38Z</time>
      </trkpt>
      <trkpt lat="59.120091" lon="18.186656">
        <ele>34.4</ele>
        <time>2014-10-11T12:30:39Z</time>
      </trkpt>
      <trkpt lat="59.120028" lon="18.186713">
        <ele>34.3</ele>
        <time>2014-10-11T12:30:40Z</time>
      </trkpt>
      <trkpt lat="59.119964" lon="18.18677">
        <ele>34.1</ele>
        <time>2014-10-11T12:30:41Z</time>
      </trkpt>
      <trkpt lat="59.119911" lon="18.186821">
        <ele>34</ele>
        <time>2014-10-11T12:30:42Z</time>
      </trkpt>
      <trkpt lat="59.119837" lon="18.186867">
        <ele>33.8</ele>
        <time>2014-10-11T12:30:43Z</time>
      </trkpt>
      <trkpt lat="59.119769" lon="18.186914">
        <ele>33.6</ele>
        <time>2014-10-11T12:30:44Z</time>
      </trkpt>
      <trkpt lat="59.119699" lon="18.18697">
        <ele>33.4</ele>
        <time>2014-10-11T12:30:45Z</time>
      </trkpt>
      <trkpt lat="59.119624" lon="18.187014">
        <ele>33.2</ele>
        <time>2014-10-11T12:30:46Z</time>
      </trkpt>
      <trkpt lat="59.119555" lon="18.187067">
        <ele>33</ele>
        <time>2014-10-11T12:30:47Z</time>
      </trkpt>
      <trkpt lat="59.119474" lon="18.187138">
        <ele>32.9</ele>
        <time>2014-10-11T12:30:48Z</time>
      </trkpt>
      <trkpt lat="59.119395" lon="18.187191">
        <ele>32.9</ele>
        <time>2014-10-11T12:30:49Z</time>
      </trkpt>
      <trkpt lat="59.11932" lon="18.187244">
        <ele>32.9</ele>
        <time>2014-10-11T12:30:50Z</time>
      </trkpt>
      <trkpt lat="59.119245" lon="18.187314">
        <ele>32.8</ele>
        <time>2014-10-11T12:30:51Z</time>
      </trkpt>
      <trkpt lat="59.119183" lon="18.187361">
        <ele>32.8</ele>
        <time>2014-10-11T12:30:52Z</time>
      </trkpt>
      <trkpt lat="59.119101" lon="18.187422">
        <ele>32.8</ele>
        <time>2014-10-11T12:30:53Z</time>
      </trkpt>
      <trkpt lat="59.119036" lon="18.187492">
        <ele>32.8</ele>
        <time>2014-10-11T12:30:54Z</time>
      </trkpt>
      <trkpt lat="59.118967" lon="18.187549">
        <ele>32.9</ele>
        <time>2014-10-11T12:30:55Z</time>
      </trkpt>
      <trkpt lat="59.118892" lon="18.187614">
        <ele>32.9</ele>
        <time>2014-10-11T12:30:56Z</time>
      </trkpt>
      <trkpt lat="59.118828" lon="18.187675">
        <ele>32.9</ele>
        <time>2014-10-11T12:30:57Z</time>
      </trkpt>
      <trkpt lat="59.118758" lon="18.18773">
        <ele>33</ele>
        <time>2014-10-11T12:30:58Z</time>
      </trkpt>
      <trkpt lat="59.118681" lon="18.187785">
        <ele>32.9</ele>
        <time>2014-10-11T12:30:59Z</time>
      </trkpt>
      <trkpt lat="59.118614" lon="18.187833">
        <ele>32.8</ele>
        <time>2014-10-11T12:31:00Z</time>
      </trkpt>
      <trkpt lat="59.11854" lon="18.187884">
        <ele>32.7</ele>
        <time>2014-10-11T12:31:01Z</time>
      </trkpt>
      <trkpt lat="59.118474" lon="18.187943">
        <ele>32.7</ele>
        <time>2014-10-11T12:31:02Z</time>
      </trkpt>
      <trkpt lat="59.118403" lon="18.188004">
        <ele>32.6</ele>
        <time>2014-10-11T12:31:03Z</time>
      </trkpt>
      <trkpt lat="59.118329" lon="18.188073">
        <ele>32.6</ele>
        <time>2014-10-11T12:31:04Z</time>
      </trkpt>
      <trkpt lat="59.11825" lon="18.188134">
        <ele>32.6</ele>
        <time>2014-10-11T12:31:05Z</time>
      </trkpt>
      <trkpt lat="59.118174" lon="18.188186">
        <ele>32.5</ele>
        <time>2014-10-11T12:31:06Z</time>
      </trkpt>
      <trkpt lat="59.118097" lon="18.188247">
        <ele>32.5</ele>
        <time>2014-10-11T12:31:07Z</time>
      </trkpt>
      <trkpt lat="59.118026" lon="18.188304">
        <ele>32.5</ele>
        <time>2014-10-11T12:31:08Z</time>
      </trkpt>
      <trkpt lat="59.117962" lon="18.188363">
        <ele>32.6</ele>
        <time>2014-10-11T12:31:09Z</time>
      </trkpt>
      <trkpt lat="59.117884" lon="18.188424">
        <ele>32.6</ele>
        <time>2014-10-11T12:31:10Z</time>
      </trkpt>
      <trkpt lat="59.117813" lon="18.18847">
        <ele>32.7</ele>
        <time>2014-10-11T12:31:11Z</time>
      </trkpt>
      <trkpt lat="59.117741" lon="18.18853">
        <ele>32.8</ele>
        <time>2014-10-11T12:31:12Z</time>
      </trkpt>
      <trkpt lat="59.11766" lon="18.188587">
        <ele>32.9</ele>
        <time>2014-10-11T12:31:13Z</time>
      </trkpt>
      <trkpt lat="59.117588" lon="18.188644">
        <ele>32.9</ele>
        <time>2014-10-11T12:31:14Z</time>
      </trkpt>
      <trkpt lat="59.11751" lon="18.188698">
        <ele>33</ele>
        <time>2014-10-11T12:31:15Z</time>
      </trkpt>
      <trkpt lat="59.117441" lon="18.188753">
        <ele>33</ele>
        <time>2014-10-11T12:31:16Z</time>
      </trkpt>
      <trkpt lat="59.117371" lon="18.188808">
        <ele>33</ele>
        <time>2014-10-11T12:31:17Z</time>
      </trkpt>
      <trkpt lat="59.1173" lon="18.188878">
        <ele>33</ele>
        <time>2014-10-11T12:31:18Z</time>
      </trkpt>
      <trkpt lat="59.117231" lon="18.188925">
        <ele>33</ele>
        <time>2014-10-11T12:31:19Z</time>
      </trkpt>
      <trkpt lat="59.117167" lon="18.188987">
        <ele>33</ele>
        <time>2014-10-11T12:31:20Z</time>
      </trkpt>
      <trkpt lat="59.117086" lon="18.189038">
        <ele>33</ele>
        <time>2014-10-11T12:31:21Z</time>
      </trkpt>
      <trkpt lat="59.117019" lon="18.189089">
        <ele>32.8</ele>
        <time>2014-10-11T12:31:22Z</time>
      </trkpt>
      <trkpt lat="59.116944" lon="18.189149">
        <ele>32.5</ele>
        <time>2014-10-11T12:31:23Z</time>
      </trkpt>
      <trkpt lat="59.116873" lon="18.189211">
        <ele>32.2</ele>
        <time>2014-10-11T12:31:24Z</time>
      </trkpt>
      <trkpt lat="59.116817" lon="18.189256">
        <ele>32</ele>
        <time>2014-10-11T12:31:25Z</time>
      </trkpt>
      <trkpt lat="59.116747" lon="18.189321">
        <ele>31.8</ele>
        <time>2014-10-11T12:31:26Z</time>
      </trkpt>
      <trkpt lat="59.116682" lon="18.189373">
        <ele>31.6</ele>
        <time>2014-10-11T12:31:27Z</time>
      </trkpt>
      <trkpt lat="59.116606" lon="18.189439">
        <ele>31.3</ele>
        <time>2014-10-11T12:31:28Z</time>
      </trkpt>
      <trkpt lat="59.116535" lon="18.189495">
        <ele>31</ele>
        <time>2014-10-11T12:31:29Z</time>
      </trkpt>
      <trkpt lat="59.116468" lon="18.189542">
        <ele>30.8</ele>
        <time>2014-10-11T12:31:30Z</time>
      </trkpt>
      <trkpt lat="59.116396" lon="18.189595">
        <ele>30.5</ele>
        <time>2014-10-11T12:31:31Z</time>
      </trkpt>
      <trkpt lat="59.116331" lon="18.189644">
        <ele>30.3</ele>
        <time>2014-10-11T12:31:32Z</time>
      </trkpt>
      <trkpt lat="59.116257" lon="18.189686">
        <ele>30</ele>
        <time>2014-10-11T12:31:33Z</time>
      </trkpt>
      <trkpt lat="59.116162" lon="18.189738">
        <ele>29.6</ele>
        <time>2014-10-11T12:31:34Z</time>
      </trkpt>
      <trkpt lat="59.116096" lon="18.189793">
        <ele>29.2</ele>
        <time>2014-10-11T12:31:35Z</time>
      </trkpt>
      <trkpt lat="59.116025" lon="18.189852">
        <ele>28.8</ele>
        <time>2014-10-11T12:31:36Z</time>
      </trkpt>
      <trkpt lat="59.115966" lon="18.189875">
        <ele>28.5</ele>
        <time>2014-10-11T12:31:37Z</time>
      </trkpt>
      <trkpt lat="59.11587" lon="18.189946">
        <ele>28</ele>
        <time>2014-10-11T12:31:38Z</time>
      </trkpt>
      <trkpt lat="59.115797" lon="18.190018">
        <ele>27.5</ele>
        <time>2014-10-11T12:31:39Z</time>
      </trkpt>
      <trkpt lat="59.11571" lon="18.190095">
        <ele>27</ele>
        <time>2014-10-11T12:31:40Z</time>
      </trkpt>
      <trkpt lat="59.11563" lon="18.19015">
        <ele>26.5</ele>
        <time>2014-10-11T12:31:41Z</time>
      </trkpt>
      <trkpt lat="59.11554" lon="18.190193">
        <ele>26</ele>
        <time>2014-10-11T12:31:42Z</time>
      </trkpt>
      <trkpt lat="59.115447" lon="18.190245">
        <ele>25.4</ele>
        <time>2014-10-11T12:31:43Z</time>
      </trkpt>
      <trkpt lat="59.115348" lon="18.1903">
        <ele>24.6</ele>
        <time>2014-10-11T12:31:44Z</time>
      </trkpt>
      <trkpt lat="59.115253" lon="18.190348">
        <ele>23.9</ele>
        <time>2014-10-11T12:31:45Z</time>
      </trkpt>
      <trkpt lat="59.115156" lon="18.190367">
        <ele>23.1</ele>
        <time>2014-10-11T12:31:46Z</time>
      </trkpt>
      <trkpt lat="59.115062" lon="18.190396">
        <ele>22.5</ele>
        <time>2014-10-11T12:31:47Z</time>
      </trkpt>
      <trkpt lat="59.114966" lon="18.19042">
        <ele>21.8</ele>
        <time>2014-10-11T12:31:48Z</time>
      </trkpt>
      <trkpt lat="59.114861" lon="18.190409">
        <ele>21</ele>
        <time>2014-10-11T12:31:49Z</time>
      </trkpt>
      <trkpt lat="59.114755" lon="18.190387">
        <ele>20.2</ele>
        <time>2014-10-11T12:31:50Z</time>
      </trkpt>
      <trkpt lat="59.114657" lon="18.190385">
        <ele>19.5</ele>
        <time>2014-10-11T12:31:51Z</time>
      </trkpt>
      <trkpt lat="59.114562" lon="18.190373">
        <ele>18.8</ele>
        <time>2014-10-11T12:31:52Z</time>
      </trkpt>
      <trkpt lat="59.114465" lon="18.190352">
        <ele>18.2</ele>
        <time>2014-10-11T12:31:53Z</time>
      </trkpt>
      <trkpt lat="59.114374" lon="18.190336">
        <ele>17.7</ele>
        <time>2014-10-11T12:31:54Z</time>
      </trkpt>
      <trkpt lat="59.114281" lon="18.190304">
        <ele>17.1</ele>
        <time>2014-10-11T12:31:55Z</time>
      </trkpt>
      <trkpt lat="59.114179" lon="18.19028">
        <ele>16.5</ele>
        <time>2014-10-11T12:31:56Z</time>
      </trkpt>
      <trkpt lat="59.114096" lon="18.190242">
        <ele>16</ele>
        <time>2014-10-11T12:31:57Z</time>
      </trkpt>
      <trkpt lat="59.114003" lon="18.190206">
        <ele>15.4</ele>
        <time>2014-10-11T12:31:58Z</time>
      </trkpt>
      <trkpt lat="59.11391" lon="18.19016">
        <ele>14.9</ele>
        <time>2014-10-11T12:31:59Z</time>
      </trkpt>
      <trkpt lat="59.113819" lon="18.190116">
        <ele>14.4</ele>
        <time>2014-10-11T12:32:00Z</time>
      </trkpt>
      <trkpt lat="59.113726" lon="18.190076">
        <ele>14</ele>
        <time>2014-10-11T12:32:01Z</time>
      </trkpt>
      <trkpt lat="59.11363" lon="18.19003">
        <ele>13.8</ele>
        <time>2014-10-11T12:32:02Z</time>
      </trkpt>
      <trkpt lat="59.113543" lon="18.18999">
        <ele>13.6</ele>
        <time>2014-10-11T12:32:03Z</time>
      </trkpt>
      <trkpt lat="59.113453" lon="18.189946">
        <ele>13.4</ele>
        <time>2014-10-11T12:32:04Z</time>
      </trkpt>
      <trkpt lat="59.113358" lon="18.189904">
        <ele>13.2</ele>
        <time>2014-10-11T12:32:05Z</time>
      </trkpt>
      <trkpt lat="59.11327" lon="18.189875">
        <ele>13</ele>
        <time>2014-10-11T12:32:06Z</time>
      </trkpt>
      <trkpt lat="59.113186" lon="18.189831">
        <ele>12.8</ele>
        <time>2014-10-11T12:32:07Z</time>
      </trkpt>
      <trkpt lat="59.113092" lon="18.189801">
        <ele>12.6</ele>
        <time>2014-10-11T12:32:08Z</time>
      </trkpt>
      <trkpt lat="59.112998" lon="18.189761">
        <ele>12.4</ele>
        <time>2014-10-11T12:32:09Z</time>
      </trkpt>
      <trkpt lat="59.112912" lon="18.189745">
        <ele>12.2</ele>
        <time>2014-10-11T12:32:10Z</time>
      </trkpt>
      <trkpt lat="59.112828" lon="18.1897">
        <ele>11.9</ele>
        <time>2014-10-11T12:32:11Z</time>
      </trkpt>
      <trkpt lat="59.112738" lon="18.189655">
        <ele>11.7</ele>
        <time>2014-10-11T12:32:12Z</time>
      </trkpt>
      <trkpt lat="59.112664" lon="18.189637">
        <ele>11.5</ele>
        <time>2014-10-11T12:32:13Z</time>
      </trkpt>
      <trkpt lat="59.112581" lon="18.189596">
        <ele>11.2</ele>
        <time>2014-10-11T12:32:14Z</time>
      </trkpt>
      <trkpt lat="59.112503" lon="18.189564">
        <ele>11</ele>
        <time>2014-10-11T12:32:15Z</time>
      </trkpt>
      <trkpt lat="59.112422" lon="18.189532">
        <ele>10.8</ele>
        <time>2014-10-11T12:32:16Z</time>
      </trkpt>
      <trkpt lat="59.112342" lon="18.189491">
        <ele>10.6</ele>
        <time>2014-10-11T12:32:17Z</time>
      </trkpt>
      <trkpt lat="59.112254" lon="18.189447">
        <ele>10.4</ele>
        <time>2014-10-11T12:32:18Z</time>
      </trkpt>
      <trkpt lat="59.11218" lon="18.189413">
        <ele>10.2</ele>
        <time>2014-10-11T12:32:19Z</time>
      </trkpt>
      <trkpt lat="59.112094" lon="18.189388">
        <ele>10</ele>
        <time>2014-10-11T12:32:20Z</time>
      </trkpt>
      <trkpt lat="59.112013" lon="18.189344">
        <ele>9.8</ele>
        <time>2014-10-11T12:32:21Z</time>
      </trkpt>
      <trkpt lat="59.111934" lon="18.189304">
        <ele>9.6</ele>
        <time>2014-10-11T12:32:22Z</time>
      </trkpt>
      <trkpt lat="59.111853" lon="18.189265">
        <ele>9.4</ele>
        <time>2014-10-11T12:32:23Z</time>
      </trkpt>
      <trkpt lat="59.111772" lon="18.189224">
        <ele>9.3</ele>
        <time>2014-10-11T12:32:24Z</time>
      </trkpt>
      <trkpt lat="59.111697" lon="18.18918">
        <ele>9.1</ele>
        <time>2014-10-11T12:32:25Z</time>
      </trkpt>
      <trkpt lat="59.11162" lon="18.189145">
        <ele>8.9</ele>
        <time>2014-10-11T12:32:26Z</time>
      </trkpt>
      <trkpt lat="59.111537" lon="18.18911">
        <ele>8.7</ele>
        <time>2014-10-11T12:32:27Z</time>
      </trkpt>
      <trkpt lat="59.111455" lon="18.189075">
        <ele>8.5</ele>
        <time>2014-10-11T12:32:28Z</time>
      </trkpt>
      <trkpt lat="59.111376" lon="18.189071">
        <ele>8.3</ele>
        <time>2014-10-11T12:32:29Z</time>
      </trkpt>
      <trkpt lat="59.1113" lon="18.18904">
        <ele>8.1</ele>
        <time>2014-10-11T12:32:30Z</time>
      </trkpt>
      <trkpt lat="59.111231" lon="18.189008">
        <ele>8</ele>
        <time>2014-10-11T12:32:31Z</time>
      </trkpt>
      <trkpt lat="59.111157" lon="18.188972">
        <ele>7.9</ele>
        <time>2014-10-11T12:32:32Z</time>
      </trkpt>
      <trkpt lat="59.111075" lon="18.188932">
        <ele>7.8</ele>
        <time>2014-10-11T12:32:33Z</time>
      </trkpt>
      <trkpt lat="59.110996" lon="18.188886">
        <ele>7.7</ele>
        <time>2014-10-11T12:32:34Z</time>
      </trkpt>
      <trkpt lat="59.110917" lon="18.188852">
        <ele>7.6</ele>
        <time>2014-10-11T12:32:35Z</time>
      </trkpt>
      <trkpt lat="59.110834" lon="18.188831">
        <ele>7.5</ele>
        <time>2014-10-11T12:32:36Z</time>
      </trkpt>
      <trkpt lat="59.11075" lon="18.188803">
        <ele>7.4</ele>
        <time>2014-10-11T12:32:37Z</time>
      </trkpt>
      <trkpt lat="59.110675" lon="18.188774">
        <ele>7.3</ele>
        <time>2014-10-11T12:32:38Z</time>
      </trkpt>
      <trkpt lat="59.110597" lon="18.188746">
        <ele>7.2</ele>
        <time>2014-10-11T12:32:39Z</time>
      </trkpt>
      <trkpt lat="59.110511" lon="18.188717">
        <ele>7.2</ele>
        <time>2014-10-11T12:32:40Z</time>
      </trkpt>
      <trkpt lat="59.110431" lon="18.188714">
        <ele>7.1</ele>
        <time>2014-10-11T12:32:41Z</time>
      </trkpt>
      <trkpt lat="59.110351" lon="18.188674">
        <ele>7.1</ele>
        <time>2014-10-11T12:32:42Z</time>
      </trkpt>
      <trkpt lat="59.110273" lon="18.188629">
        <ele>7</ele>
        <time>2014-10-11T12:32:43Z</time>
      </trkpt>
      <trkpt lat="59.110181" lon="18.188576">
        <ele>6.9</ele>
        <time>2014-10-11T12:32:44Z</time>
      </trkpt>
      <trkpt lat="59.110101" lon="18.188532">
        <ele>6.8</ele>
        <time>2014-10-11T12:32:45Z</time>
      </trkpt>
      <trkpt lat="59.110021" lon="18.1885">
        <ele>6.7</ele>
        <time>2014-10-11T12:32:46Z</time>
      </trkpt>
      <trkpt lat="59.109946" lon="18.188468">
        <ele>6.5</ele>
        <time>2014-10-11T12:32:47Z</time>
      </trkpt>
      <trkpt lat="59.109863" lon="18.18843">
        <ele>6.3</ele>
        <time>2014-10-11T12:32:48Z</time>
      </trkpt>
      <trkpt lat="59.109777" lon="18.188409">
        <ele>6.1</ele>
        <time>2014-10-11T12:32:49Z</time>
      </trkpt>
      <trkpt lat="59.10922" lon="18.188197">
        <ele>5.4</ele>
        <time>2014-10-11T12:32:56Z</time>
      </trkpt>
      <trkpt lat="59.109142" lon="18.188169">
        <ele>5.3</ele>
        <time>2014-10-11T12:32:57Z</time>
      </trkpt>
      <trkpt lat="59.109073" lon="18.188143">
        <ele>5.3</ele>
        <time>2014-10-11T12:32:58Z</time>
      </trkpt>
      <trkpt lat="59.108985" lon="18.188124">
        <ele>5.2</ele>
        <time>2014-10-11T12:32:59Z</time>
      </trkpt>
      <trkpt lat="59.108905" lon="18.188096">
        <ele>5.1</ele>
        <time>2014-10-11T12:33:00Z</time>
      </trkpt>
      <trkpt lat="59.108833" lon="18.188063">
        <ele>5.1</ele>
        <time>2014-10-11T12:33:01Z</time>
      </trkpt>
      <trkpt lat="59.108753" lon="18.188041">
        <ele>5</ele>
        <time>2014-10-11T12:33:02Z</time>
      </trkpt>
      <trkpt lat="59.108674" lon="18.188004">
        <ele>4.9</ele>
        <time>2014-10-11T12:33:03Z</time>
      </trkpt>
      <trkpt lat="59.108597" lon="18.187981">
        <ele>4.8</ele>
        <time>2014-10-11T12:33:04Z</time>
      </trkpt>
      <trkpt lat="59.108524" lon="18.187969">
        <ele>4.7</ele>
        <time>2014-10-11T12:33:05Z</time>
      </trkpt>
      <trkpt lat="59.10845" lon="18.187956">
        <ele>4.7</ele>
        <time>2014-10-11T12:33:06Z</time>
      </trkpt>
      <trkpt lat="59.108372" lon="18.187932">
        <ele>4.6</ele>
        <time>2014-10-11T12:33:07Z</time>
      </trkpt>
      <trkpt lat="59.108299" lon="18.187909">
        <ele>4.5</ele>
        <time>2014-10-11T12:33:08Z</time>
      </trkpt>
      <trkpt lat="59.108225" lon="18.187877">
        <ele>4.4</ele>
        <time>2014-10-11T12:33:09Z</time>
      </trkpt>
      <trkpt lat="59.10815" lon="18.187868">
        <ele>4.3</ele>
        <time>2014-10-11T12:33:10Z</time>
      </trkpt>
      <trkpt lat="59.108079" lon="18.18785">
        <ele>4.2</ele>
        <time>2014-10-11T12:33:11Z</time>
      </trkpt>
      <trkpt lat="59.108009" lon="18.187826">
        <ele>4.1</ele>
        <time>2014-10-11T12:33:12Z</time>
      </trkpt>
      <trkpt lat="59.107932" lon="18.187803">
        <ele>4</ele>
        <time>2014-10-11T12:33:13Z</time>
      </trkpt>
      <trkpt lat="59.107864" lon="18.187796">
        <ele>4</ele>
        <time>2014-10-11T12:33:14Z</time>
      </trkpt>
      <trkpt lat="59.107792" lon="18.187766">
        <ele>4</ele>
        <time>2014-10-11T12:33:15Z</time>
      </trkpt>
      <trkpt lat="59.107719" lon="18.187736">
        <ele>4</ele>
        <time>2014-10-11T12:33:16Z</time>
      </trkpt>
      <trkpt lat="59.107648" lon="18.18772">
        <ele>4</ele>
        <time>2014-10-11T12:33:17Z</time>
      </trkpt>
      <trkpt lat="59.107574" lon="18.187686">
        <ele>4</ele>
        <time>2014-10-11T12:33:18Z</time>
      </trkpt>
      <trkpt lat="59.107501" lon="18.187649">
        <ele>4</ele>
        <time>2014-10-11T12:33:19Z</time>
      </trkpt>
      <trkpt lat="59.107436" lon="18.187633">
        <ele>4</ele>
        <time>2014-10-11T12:33:20Z</time>
      </trkpt>
      <trkpt lat="59.107361" lon="18.187599">
        <ele>4</ele>
        <time>2014-10-11T12:33:21Z</time>
      </trkpt>
      <trkpt lat="59.107296" lon="18.187579">
        <ele>4</ele>
        <time>2014-10-11T12:33:22Z</time>
      </trkpt>
      <trkpt lat="59.107231" lon="18.187568">
        <ele>4</ele>
        <time>2014-10-11T12:33:23Z</time>
      </trkpt>
      <trkpt lat="59.107165" lon="18.187544">
        <ele>4</ele>
        <time>2014-10-11T12:33:24Z</time>
      </trkpt>
      <trkpt lat="59.107095" lon="18.187521">
        <ele>4</ele>
        <time>2014-10-11T12:33:25Z</time>
      </trkpt>
      <trkpt lat="59.107022" lon="18.1875">
        <ele>4</ele>
        <time>2014-10-11T12:33:26Z</time>
      </trkpt>
      <trkpt lat="59.106954" lon="18.187473">
        <ele>4.1</ele>
        <time>2014-10-11T12:33:27Z</time>
      </trkpt>
      <trkpt lat="59.106893" lon="18.187456">
        <ele>4.1</ele>
        <time>2014-10-11T12:33:28Z</time>
      </trkpt>
      <trkpt lat="59.106827" lon="18.187422">
        <ele>4.2</ele>
        <time>2014-10-11T12:33:29Z</time>
      </trkpt>
      <trkpt lat="59.106762" lon="18.187421">
        <ele>4.2</ele>
        <time>2014-10-11T12:33:30Z</time>
      </trkpt>
      <trkpt lat="59.106695" lon="18.18739">
        <ele>4.3</ele>
        <time>2014-10-11T12:33:31Z</time>
      </trkpt>
      <trkpt lat="59.106623" lon="18.187365">
        <ele>4.4</ele>
        <time>2014-10-11T12:33:32Z</time>
      </trkpt>
      <trkpt lat="59.106555" lon="18.187336">
        <ele>4.4</ele>
        <time>2014-10-11T12:33:33Z</time>
      </trkpt>
      <trkpt lat="59.106488" lon="18.187311">
        <ele>4.5</ele>
        <time>2014-10-11T12:33:34Z</time>
      </trkpt>
      <trkpt lat="59.106421" lon="18.187295">
        <ele>4.6</ele>
        <time>2014-10-11T12:33:35Z</time>
      </trkpt>
      <trkpt lat="59.106351" lon="18.187267">
        <ele>4.7</ele>
        <time>2014-10-11T12:33:36Z</time>
      </trkpt>
      <trkpt lat="59.106285" lon="18.187233">
        <ele>4.8</ele>
        <time>2014-10-11T12:33:37Z</time>
      </trkpt>
      <trkpt lat="59.106214" lon="18.187215">
        <ele>4.8</ele>
        <time>2014-10-11T12:33:38Z</time>
      </trkpt>
      <trkpt lat="59.106142" lon="18.187183">
        <ele>4.9</ele>
        <time>2014-10-11T12:33:39Z</time>
      </trkpt>
      <trkpt lat="59.10607" lon="18.187151">
        <ele>4.9</ele>
        <time>2014-10-11T12:33:40Z</time>
      </trkpt>
      <trkpt lat="59.106001" lon="18.187121">
        <ele>5</ele>
        <time>2014-10-11T12:33:41Z</time>
      </trkpt>
      <trkpt lat="59.105939" lon="18.187102">
        <ele>5</ele>
        <time>2014-10-11T12:33:42Z</time>
      </trkpt>
      <trkpt lat="59.105873" lon="18.187075">
        <ele>5</ele>
        <time>2014-10-11T12:33:43Z</time>
      </trkpt>
      <trkpt lat="59.105803" lon="18.187052">
        <ele>5</ele>
        <time>2014-10-11T12:33:44Z</time>
      </trkpt>
      <trkpt lat="59.105737" lon="18.187033">
        <ele>5</ele>
        <time>2014-10-11T12:33:45Z</time>
      </trkpt>
      <trkpt lat="59.105667" lon="18.187008">
        <ele>4.9</ele>
        <time>2014-10-11T12:33:46Z</time>
      </trkpt>
      <trkpt lat="59.105594" lon="18.186978">
        <ele>4.9</ele>
        <time>2014-10-11T12:33:47Z</time>
      </trkpt>
      <trkpt lat="59.105525" lon="18.186976">
        <ele>4.9</ele>
        <time>2014-10-11T12:33:48Z</time>
      </trkpt>
      <trkpt lat="59.105457" lon="18.186972">
        <ele>4.9</ele>
        <time>2014-10-11T12:33:49Z</time>
      </trkpt>
      <trkpt lat="59.105394" lon="18.186952">
        <ele>4.9</ele>
        <time>2014-10-11T12:33:50Z</time>
      </trkpt>
      <trkpt lat="59.105336" lon="18.186917">
        <ele>4.8</ele>
        <time>2014-10-11T12:33:51Z</time>
      </trkpt>
      <trkpt lat="59.105267" lon="18.186886">
        <ele>4.8</ele>
        <time>2014-10-11T12:33:52Z</time>
      </trkpt>
      <trkpt lat="59.105207" lon="18.186856">
        <ele>4.9</ele>
        <time>2014-10-11T12:33:53Z</time>
      </trkpt>
      <trkpt lat="59.105144" lon="18.186848">
        <ele>4.9</ele>
        <time>2014-10-11T12:33:54Z</time>
      </trkpt>
      <trkpt lat="59.105074" lon="18.186832">
        <ele>4.9</ele>
        <time>2014-10-11T12:33:55Z</time>
      </trkpt>
      <trkpt lat="59.105013" lon="18.186804">
        <ele>5</ele>
        <time>2014-10-11T12:33:56Z</time>
      </trkpt>
      <trkpt lat="59.10495" lon="18.186772">
        <ele>5</ele>
        <time>2014-10-11T12:33:57Z</time>
      </trkpt>
      <trkpt lat="59.104891" lon="18.186738">
        <ele>5.1</ele>
        <time>2014-10-11T12:33:58Z</time>
      </trkpt>
      <trkpt lat="59.104826" lon="18.186726">
        <ele>5.2</ele>
        <time>2014-10-11T12:33:59Z</time>
      </trkpt>
      <trkpt lat="59.104774" lon="18.186712">
        <ele>5.2</ele>
        <time>2014-10-11T12:34:00Z</time>
      </trkpt>
      <trkpt lat="59.104707" lon="18.186697">
        <ele>5.3</ele>
        <time>2014-10-11T12:34:01Z</time>
      </trkpt>
      <trkpt lat="59.104644" lon="18.186677">
        <ele>5.4</ele>
        <time>2014-10-11T12:34:02Z</time>
      </trkpt>
      <trkpt lat="59.104582" lon="18.186648">
        <ele>5.5</ele>
        <time>2014-10-11T12:34:03Z</time>
      </trkpt>
      <trkpt lat="59.10451" lon="18.186613">
        <ele>5.9</ele>
        <time>2014-10-11T12:34:04Z</time>
      </trkpt>
      <trkpt lat="59.104446" lon="18.186583">
        <ele>6.3</ele>
        <time>2014-10-11T12:34:05Z</time>
      </trkpt>
      <trkpt lat="59.104377" lon="18.186574">
        <ele>6.6</ele>
        <time>2014-10-11T12:34:06Z</time>
      </trkpt>
      <trkpt lat="59.104313" lon="18.18655">
        <ele>6.9</ele>
        <time>2014-10-11T12:34:07Z</time>
      </trkpt>
      <trkpt lat="59.104253" lon="18.186528">
        <ele>7.3</ele>
        <time>2014-10-11T12:34:08Z</time>
      </trkpt>
      <trkpt lat="59.104191" lon="18.186499">
        <ele>7.6</ele>
        <time>2014-10-11T12:34:09Z</time>
      </trkpt>
      <trkpt lat="59.104126" lon="18.186477">
        <ele>7.9</ele>
        <time>2014-10-11T12:34:10Z</time>
      </trkpt>
      <trkpt lat="59.104061" lon="18.186452">
        <ele>8.3</ele>
        <time>2014-10-11T12:34:11Z</time>
      </trkpt>
      <trkpt lat="59.103997" lon="18.186429">
        <ele>8.6</ele>
        <time>2014-10-11T12:34:12Z</time>
      </trkpt>
      <trkpt lat="59.103931" lon="18.186414">
        <ele>8.9</ele>
        <time>2014-10-11T12:34:13Z</time>
      </trkpt>
      <trkpt lat="59.103868" lon="18.186408">
        <ele>9.2</ele>
        <time>2014-10-11T12:34:14Z</time>
      </trkpt>
      <trkpt lat="59.103809" lon="18.186377">
        <ele>9.6</ele>
        <time>2014-10-11T12:34:15Z</time>
      </trkpt>
      <trkpt lat="59.103752" lon="18.186362">
        <ele>9.9</ele>
        <time>2014-10-11T12:34:16Z</time>
      </trkpt>
      <trkpt lat="59.10369" lon="18.186361">
        <ele>9.8</ele>
        <time>2014-10-11T12:34:17Z</time>
      </trkpt>
      <trkpt lat="59.103632" lon="18.186335">
        <ele>9.7</ele>
        <time>2014-10-11T12:34:18Z</time>
      </trkpt>
      <trkpt lat="59.103575" lon="18.186306">
        <ele>9.7</ele>
        <time>2014-10-11T12:34:19Z</time>
      </trkpt>
      <trkpt lat="59.10351" lon="18.18629">
        <ele>9.7</ele>
        <time>2014-10-11T12:34:20Z</time>
      </trkpt>
      <trkpt lat="59.103455" lon="18.186278">
        <ele>9.6</ele>
        <time>2014-10-11T12:34:21Z</time>
      </trkpt>
      <trkpt lat="59.103392" lon="18.186269">
        <ele>9.5</ele>
        <time>2014-10-11T12:34:22Z</time>
      </trkpt>
      <trkpt lat="59.10334" lon="18.186251">
        <ele>9.5</ele>
        <time>2014-10-11T12:34:23Z</time>
      </trkpt>
      <trkpt lat="59.103284" lon="18.186232">
        <ele>9.5</ele>
        <time>2014-10-11T12:34:24Z</time>
      </trkpt>
      <trkpt lat="59.103237" lon="18.186215">
        <ele>9.4</ele>
        <time>2014-10-11T12:34:25Z</time>
      </trkpt>
      <trkpt lat="59.103197" lon="18.186192">
        <ele>9.4</ele>
        <time>2014-10-11T12:34:26Z</time>
      </trkpt>
      <trkpt lat="59.103145" lon="18.186161">
        <ele>9.4</ele>
        <time>2014-10-11T12:34:27Z</time>
      </trkpt>
      <trkpt lat="59.103086" lon="18.186141">
        <ele>9.3</ele>
        <time>2014-10-11T12:34:28Z</time>
      </trkpt>
      <trkpt lat="59.10303" lon="18.186119">
        <ele>9.3</ele>
        <time>2014-10-11T12:34:29Z</time>
      </trkpt>
      <trkpt lat="59.102973" lon="18.186107">
        <ele>9.2</ele>
        <time>2014-10-11T12:34:30Z</time>
      </trkpt>
      <trkpt lat="59.102906" lon="18.186101">
        <ele>9.2</ele>
        <time>2014-10-11T12:34:31Z</time>
      </trkpt>
      <trkpt lat="59.102858" lon="18.186073">
        <ele>9.2</ele>
        <time>2014-10-11T12:34:32Z</time>
      </trkpt>
      <trkpt lat="59.102803" lon="18.186052">
        <ele>9.2</ele>
        <time>2014-10-11T12:34:33Z</time>
      </trkpt>
      <trkpt lat="59.102749" lon="18.186031">
        <ele>9.3</ele>
        <time>2014-10-11T12:34:34Z</time>
      </trkpt>
      <trkpt lat="59.102697" lon="18.186006">
        <ele>9.3</ele>
        <time>2014-10-11T12:34:35Z</time>
      </trkpt>
      <trkpt lat="59.102642" lon="18.18599">
        <ele>9.3</ele>
        <time>2014-10-11T12:34:36Z</time>
      </trkpt>
      <trkpt lat="59.102589" lon="18.185979">
        <ele>9.3</ele>
        <time>2014-10-11T12:34:37Z</time>
      </trkpt>
      <trkpt lat="59.102538" lon="18.185959">
        <ele>9.3</ele>
        <time>2014-10-11T12:34:38Z</time>
      </trkpt>
      <trkpt lat="59.102476" lon="18.185924">
        <ele>9.4</ele>
        <time>2014-10-11T12:34:39Z</time>
      </trkpt>
      <trkpt lat="59.102417" lon="18.185896">
        <ele>9.4</ele>
        <time>2014-10-11T12:34:40Z</time>
      </trkpt>
      <trkpt lat="59.102358" lon="18.185873">
        <ele>9.5</ele>
        <time>2014-10-11T12:34:41Z</time>
      </trkpt>
      <trkpt lat="59.102294" lon="18.185841">
        <ele>9.5</ele>
        <time>2014-10-11T12:34:42Z</time>
      </trkpt>
      <trkpt lat="59.102236" lon="18.185825">
        <ele>9.5</ele>
        <time>2014-10-11T12:34:43Z</time>
      </trkpt>
      <trkpt lat="59.102173" lon="18.185814">
        <ele>9.5</ele>
        <time>2014-10-11T12:34:44Z</time>
      </trkpt>
      <trkpt lat="59.102113" lon="18.18578">
        <ele>9.6</ele>
        <time>2014-10-11T12:34:45Z</time>
      </trkpt>
      <trkpt lat="59.10206" lon="18.185776">
        <ele>9.6</ele>
        <time>2014-10-11T12:34:46Z</time>
      </trkpt>
      <trkpt lat="59.102004" lon="18.18576">
        <ele>9.8</ele>
        <time>2014-10-11T12:34:47Z</time>
      </trkpt>
      <trkpt lat="59.10195" lon="18.185726">
        <ele>9.9</ele>
        <time>2014-10-11T12:34:48Z</time>
      </trkpt>
      <trkpt lat="59.101902" lon="18.185694">
        <ele>10.1</ele>
        <time>2014-10-11T12:34:49Z</time>
      </trkpt>
      <trkpt lat="59.101847" lon="18.185662">
        <ele>10.3</ele>
        <time>2014-10-11T12:34:50Z</time>
      </trkpt>
      <trkpt lat="59.101796" lon="18.185628">
        <ele>10.4</ele>
        <time>2014-10-11T12:34:51Z</time>
      </trkpt>
      <trkpt lat="59.101743" lon="18.185587">
        <ele>10.6</ele>
        <time>2014-10-11T12:34:52Z</time>
      </trkpt>
      <trkpt lat="59.101699" lon="18.185547">
        <ele>10.8</ele>
        <time>2014-10-11T12:34:53Z</time>
      </trkpt>
      <trkpt lat="59.101647" lon="18.185508">
        <ele>10.9</ele>
        <time>2014-10-11T12:34:54Z</time>
      </trkpt>
      <trkpt lat="59.101597" lon="18.185463">
        <ele>11.1</ele>
        <time>2014-10-11T12:34:55Z</time>
      </trkpt>
      <trkpt lat="59.101535" lon="18.185419">
        <ele>11.3</ele>
        <time>2014-10-11T12:34:56Z</time>
      </trkpt>
      <trkpt lat="59.101487" lon="18.185385">
        <ele>11.5</ele>
        <time>2014-10-11T12:34:57Z</time>
      </trkpt>
      <trkpt lat="59.101427" lon="18.185352">
        <ele>11.7</ele>
        <time>2014-10-11T12:34:58Z</time>
      </trkpt>
      <trkpt lat="59.101381" lon="18.18531">
        <ele>11.8</ele>
        <time>2014-10-11T12:34:59Z</time>
      </trkpt>
      <trkpt lat="59.101334" lon="18.185274">
        <ele>12</ele>
        <time>2014-10-11T12:35:00Z</time>
      </trkpt>
      <trkpt lat="59.101282" lon="18.18523">
        <ele>12.1</ele>
        <time>2014-10-11T12:35:01Z</time>
      </trkpt>
      <trkpt lat="59.10124" lon="18.185199">
        <ele>12.3</ele>
        <time>2014-10-11T12:35:02Z</time>
      </trkpt>
      <trkpt lat="59.10119" lon="18.185165">
        <ele>12.5</ele>
        <time>2014-10-11T12:35:03Z</time>
      </trkpt>
      <trkpt lat="59.101137" lon="18.185131">
        <ele>12.8</ele>
        <time>2014-10-11T12:35:04Z</time>
      </trkpt>
      <trkpt lat="59.101085" lon="18.185095">
        <ele>13.1</ele>
        <time>2014-10-11T12:35:05Z</time>
      </trkpt>
      <trkpt lat="59.101035" lon="18.185087">
        <ele>13.3</ele>
        <time>2014-10-11T12:35:06Z</time>
      </trkpt>
      <trkpt lat="59.100979" lon="18.185047">
        <ele>13.7</ele>
        <time>2014-10-11T12:35:07Z</time>
      </trkpt>
      <trkpt lat="59.100928" lon="18.185008">
        <ele>14</ele>
        <time>2014-10-11T12:35:08Z</time>
      </trkpt>
      <trkpt lat="59.100882" lon="18.184965">
        <ele>14.4</ele>
        <time>2014-10-11T12:35:09Z</time>
      </trkpt>
      <trkpt lat="59.100833" lon="18.184922">
        <ele>14.8</ele>
        <time>2014-10-11T12:35:10Z</time>
      </trkpt>
      <trkpt lat="59.100782" lon="18.184885">
        <ele>15.2</ele>
        <time>2014-10-11T12:35:11Z</time>
      </trkpt>
      <trkpt lat="59.100731" lon="18.184844">
        <ele>15.6</ele>
        <time>2014-10-11T12:35:12Z</time>
      </trkpt>
      <trkpt lat="59.100683" lon="18.184808">
        <ele>16.1</ele>
        <time>2014-10-11T12:35:13Z</time>
      </trkpt>
      <trkpt lat="59.10063" lon="18.184765">
        <ele>16.6</ele>
        <time>2014-10-11T12:35:14Z</time>
      </trkpt>
      <trkpt lat="59.100579" lon="18.184719">
        <ele>17.1</ele>
        <time>2014-10-11T12:35:15Z</time>
      </trkpt>
      <trkpt lat="59.10053" lon="18.184678">
        <ele>17.7</ele>
        <time>2014-10-11T12:35:16Z</time>
      </trkpt>
      <trkpt lat="59.100478" lon="18.184649">
        <ele>18.2</ele>
        <time>2014-10-11T12:35:17Z</time>
      </trkpt>
      <trkpt lat="59.100428" lon="18.184609">
        <ele>18.8</ele>
        <time>2014-10-11T12:35:18Z</time>
      </trkpt>
      <trkpt lat="59.10038" lon="18.184565">
        <ele>19.1</ele>
        <time>2014-10-11T12:35:19Z</time>
      </trkpt>
      <trkpt lat="59.100331" lon="18.184512">
        <ele>19.4</ele>
        <time>2014-10-11T12:35:20Z</time>
      </trkpt>
      <trkpt lat="59.100281" lon="18.184475">
        <ele>19.6</ele>
        <time>2014-10-11T12:35:21Z</time>
      </trkpt>
      <trkpt lat="59.100234" lon="18.184435">
        <ele>19.9</ele>
        <time>2014-10-11T12:35:22Z</time>
      </trkpt>
      <trkpt lat="59.100186" lon="18.184395">
        <ele>20.1</ele>
        <time>2014-10-11T12:35:23Z</time>
      </trkpt>
      <trkpt lat="59.10013" lon="18.184344">
        <ele>20.3</ele>
        <time>2014-10-11T12:35:24Z</time>
      </trkpt>
      <trkpt lat="59.100076" lon="18.184295">
        <ele>20.5</ele>
        <time>2014-10-11T12:35:25Z</time>
      </trkpt>
      <trkpt lat="59.100015" lon="18.184257">
        <ele>20.7</ele>
        <time>2014-10-11T12:35:26Z</time>
      </trkpt>
      <trkpt lat="59.099956" lon="18.184212">
        <ele>20.8</ele>
        <time>2014-10-11T12:35:27Z</time>
      </trkpt>
      <trkpt lat="59.099896" lon="18.184167">
        <ele>21</ele>
        <time>2014-10-11T12:35:28Z</time>
      </trkpt>
      <trkpt lat="59.099842" lon="18.184131">
        <ele>21.1</ele>
        <time>2014-10-11T12:35:29Z</time>
      </trkpt>
      <trkpt lat="59.099791" lon="18.184088">
        <ele>21.2</ele>
        <time>2014-10-11T12:35:30Z</time>
      </trkpt>
      <trkpt lat="59.09973" lon="18.184038">
        <ele>21.4</ele>
        <time>2014-10-11T12:35:31Z</time>
      </trkpt>
      <trkpt lat="59.099671" lon="18.183973">
        <ele>21.5</ele>
        <time>2014-10-11T12:35:32Z</time>
      </trkpt>
      <trkpt lat="59.099612" lon="18.183917">
        <ele>21.6</ele>
        <time>2014-10-11T12:35:33Z</time>
      </trkpt>
      <trkpt lat="59.099551" lon="18.183848">
        <ele>21.6</ele>
        <time>2014-10-11T12:35:34Z</time>
      </trkpt>
      <trkpt lat="59.099494" lon="18.183814">
        <ele>21.3</ele>
        <time>2014-10-11T12:35:35Z</time>
      </trkpt>
      <trkpt lat="59.099431" lon="18.183762">
        <ele>21.1</ele>
        <time>2014-10-11T12:35:36Z</time>
      </trkpt>
      <trkpt lat="59.099364" lon="18.183709">
        <ele>20.6</ele>
        <time>2014-10-11T12:35:37Z</time>
      </trkpt>
      <trkpt lat="59.099304" lon="18.183666">
        <ele>20.2</ele>
        <time>2014-10-11T12:35:38Z</time>
      </trkpt>
      <trkpt lat="59.099251" lon="18.18362">
        <ele>19.8</ele>
        <time>2014-10-11T12:35:39Z</time>
      </trkpt>
      <trkpt lat="59.099192" lon="18.183585">
        <ele>19.3</ele>
        <time>2014-10-11T12:35:40Z</time>
      </trkpt>
      <trkpt lat="59.099129" lon="18.183555">
        <ele>18.9</ele>
        <time>2014-10-11T12:35:41Z</time>
      </trkpt>
      <trkpt lat="59.099075" lon="18.183496">
        <ele>18.5</ele>
        <time>2014-10-11T12:35:42Z</time>
      </trkpt>
      <trkpt lat="59.099021" lon="18.183442">
        <ele>18.1</ele>
        <time>2014-10-11T12:35:43Z</time>
      </trkpt>
      <trkpt lat="59.098961" lon="18.183385">
        <ele>17.7</ele>
        <time>2014-10-11T12:35:44Z</time>
      </trkpt>
      <trkpt lat="59.0989" lon="18.18333">
        <ele>17.3</ele>
        <time>2014-10-11T12:35:45Z</time>
      </trkpt>
      <trkpt lat="59.098844" lon="18.183279">
        <ele>16.9</ele>
        <time>2014-10-11T12:35:46Z</time>
      </trkpt>
      <trkpt lat="59.09877" lon="18.183216">
        <ele>16.5</ele>
        <time>2014-10-11T12:35:47Z</time>
      </trkpt>
      <trkpt lat="59.09871" lon="18.183143">
        <ele>16.3</ele>
        <time>2014-10-11T12:35:48Z</time>
      </trkpt>
      <trkpt lat="59.098654" lon="18.183067">
        <ele>16.3</ele>
        <time>2014-10-11T12:35:49Z</time>
      </trkpt>
      <trkpt lat="59.098596" lon="18.182996">
        <ele>16.3</ele>
        <time>2014-10-11T12:35:50Z</time>
      </trkpt>
      <trkpt lat="59.098529" lon="18.182944">
        <ele>16.3</ele>
        <time>2014-10-11T12:35:51Z</time>
      </trkpt>
      <trkpt lat="59.098469" lon="18.182885">
        <ele>16.3</ele>
        <time>2014-10-11T12:35:52Z</time>
      </trkpt>
      <trkpt lat="59.098402" lon="18.182824">
        <ele>16.4</ele>
        <time>2014-10-11T12:35:53Z</time>
      </trkpt>
      <trkpt lat="59.09834" lon="18.18276">
        <ele>16.4</ele>
        <time>2014-10-11T12:35:54Z</time>
      </trkpt>
      <trkpt lat="59.098278" lon="18.182692">
        <ele>16.4</ele>
        <time>2014-10-11T12:35:55Z</time>
      </trkpt>
      <trkpt lat="59.098212" lon="18.18264">
        <ele>16.4</ele>
        <time>2014-10-11T12:35:56Z</time>
      </trkpt>
      <trkpt lat="59.098152" lon="18.182562">
        <ele>16.4</ele>
        <time>2014-10-11T12:35:57Z</time>
      </trkpt>
      <trkpt lat="59.098097" lon="18.182547">
        <ele>16.4</ele>
        <time>2014-10-11T12:35:58Z</time>
      </trkpt>
      <trkpt lat="59.098035" lon="18.182482">
        <ele>16.4</ele>
        <time>2014-10-11T12:35:59Z</time>
      </trkpt>
      <trkpt lat="59.09797" lon="18.182414">
        <ele>16.4</ele>
        <time>2014-10-11T12:36:00Z</time>
      </trkpt>
      <trkpt lat="59.097897" lon="18.182342">
        <ele>16.5</ele>
        <time>2014-10-11T12:36:01Z</time>
      </trkpt>
      <trkpt lat="59.097839" lon="18.182275">
        <ele>16.8</ele>
        <time>2014-10-11T12:36:02Z</time>
      </trkpt>
      <trkpt lat="59.097773" lon="18.182237">
        <ele>17.3</ele>
        <time>2014-10-11T12:36:03Z</time>
      </trkpt>
      <trkpt lat="59.097719" lon="18.182197">
        <ele>17.6</ele>
        <time>2014-10-11T12:36:04Z</time>
      </trkpt>
      <trkpt lat="59.097657" lon="18.182129">
        <ele>18</ele>
        <time>2014-10-11T12:36:05Z</time>
      </trkpt>
      <trkpt lat="59.097605" lon="18.18206">
        <ele>18.2</ele>
        <time>2014-10-11T12:36:06Z</time>
      </trkpt>
      <trkpt lat="59.097553" lon="18.182005">
        <ele>18.5</ele>
        <time>2014-10-11T12:36:07Z</time>
      </trkpt>
      <trkpt lat="59.097491" lon="18.181944">
        <ele>18.7</ele>
        <time>2014-10-11T12:36:08Z</time>
      </trkpt>
      <trkpt lat="59.097427" lon="18.181884">
        <ele>19</ele>
        <time>2014-10-11T12:36:09Z</time>
      </trkpt>
      <trkpt lat="59.097371" lon="18.181836">
        <ele>19.2</ele>
        <time>2014-10-11T12:36:10Z</time>
      </trkpt>
      <trkpt lat="59.097319" lon="18.181773">
        <ele>19.2</ele>
        <time>2014-10-11T12:36:11Z</time>
      </trkpt>
      <trkpt lat="59.097259" lon="18.181711">
        <ele>19.3</ele>
        <time>2014-10-11T12:36:12Z</time>
      </trkpt>
      <trkpt lat="59.097209" lon="18.181674">
        <ele>19.4</ele>
        <time>2014-10-11T12:36:13Z</time>
      </trkpt>
      <trkpt lat="59.097156" lon="18.181635">
        <ele>19.5</ele>
        <time>2014-10-11T12:36:14Z</time>
      </trkpt>
      <trkpt lat="59.097104" lon="18.181595">
        <ele>19.6</ele>
        <time>2014-10-11T12:36:15Z</time>
      </trkpt>
      <trkpt lat="59.097048" lon="18.18154">
        <ele>19.7</ele>
        <time>2014-10-11T12:36:16Z</time>
      </trkpt>
      <trkpt lat="59.096994" lon="18.181483">
        <ele>19.9</ele>
        <time>2014-10-11T12:36:17Z</time>
      </trkpt>
      <trkpt lat="59.096947" lon="18.181419">
        <ele>20</ele>
        <time>2014-10-11T12:36:18Z</time>
      </trkpt>
      <trkpt lat="59.096902" lon="18.181376">
        <ele>20.2</ele>
        <time>2014-10-11T12:36:19Z</time>
      </trkpt>
      <trkpt lat="59.09685" lon="18.18134">
        <ele>20.4</ele>
        <time>2014-10-11T12:36:20Z</time>
      </trkpt>
      <trkpt lat="59.096801" lon="18.181277">
        <ele>20.5</ele>
        <time>2014-10-11T12:36:21Z</time>
      </trkpt>
      <trkpt lat="59.096755" lon="18.181225">
        <ele>20.6</ele>
        <time>2014-10-11T12:36:22Z</time>
      </trkpt>
      <trkpt lat="59.0967" lon="18.181184">
        <ele>20.9</ele>
        <time>2014-10-11T12:36:23Z</time>
      </trkpt>
      <trkpt lat="59.096652" lon="18.181132">
        <ele>21.1</ele>
        <time>2014-10-11T12:36:24Z</time>
      </trkpt>
      <trkpt lat="59.096606" lon="18.181089">
        <ele>21.2</ele>
        <time>2014-10-11T12:36:25Z</time>
      </trkpt>
      <trkpt lat="59.09656" lon="18.181038">
        <ele>21.3</ele>
        <time>2014-10-11T12:36:26Z</time>
      </trkpt>
      <trkpt lat="59.096517" lon="18.180995">
        <ele>21.4</ele>
        <time>2014-10-11T12:36:27Z</time>
      </trkpt>
      <trkpt lat="59.096467" lon="18.18094">
        <ele>21.5</ele>
        <time>2014-10-11T12:36:28Z</time>
      </trkpt>
      <trkpt lat="59.096429" lon="18.180892">
        <ele>21.5</ele>
        <time>2014-10-11T12:36:29Z</time>
      </trkpt>
      <trkpt lat="59.096391" lon="18.180842">
        <ele>21.5</ele>
        <time>2014-10-11T12:36:30Z</time>
      </trkpt>
      <trkpt lat="59.096353" lon="18.180798">
        <ele>21.6</ele>
        <time>2014-10-11T12:36:31Z</time>
      </trkpt>
      <trkpt lat="59.096323" lon="18.180766">
        <ele>21.6</ele>
        <time>2014-10-11T12:36:32Z</time>
      </trkpt>
      <trkpt lat="59.096284" lon="18.180737">
        <ele>21.7</ele>
        <time>2014-10-11T12:36:33Z</time>
      </trkpt>
      <trkpt lat="59.096238" lon="18.180704">
        <ele>21.8</ele>
        <time>2014-10-11T12:36:34Z</time>
      </trkpt>
      <trkpt lat="59.096198" lon="18.180654">
        <ele>21.8</ele>
        <time>2014-10-11T12:36:35Z</time>
      </trkpt>
      <trkpt lat="59.096151" lon="18.180611">
        <ele>21.8</ele>
        <time>2014-10-11T12:36:36Z</time>
      </trkpt>
      <trkpt lat="59.096104" lon="18.180556">
        <ele>21.8</ele>
        <time>2014-10-11T12:36:37Z</time>
      </trkpt>
      <trkpt lat="59.09606" lon="18.180525">
        <ele>22</ele>
        <time>2014-10-11T12:36:38Z</time>
      </trkpt>
      <trkpt lat="59.096012" lon="18.180475">
        <ele>22</ele>
        <time>2014-10-11T12:36:39Z</time>
      </trkpt>
      <trkpt lat="59.095973" lon="18.180424">
        <ele>22</ele>
        <time>2014-10-11T12:36:40Z</time>
      </trkpt>
      <trkpt lat="59.095935" lon="18.18039">
        <ele>22.1</ele>
        <time>2014-10-11T12:36:41Z</time>
      </trkpt>
      <trkpt lat="59.095883" lon="18.180365">
        <ele>22.4</ele>
        <time>2014-10-11T12:36:42Z</time>
      </trkpt>
      <trkpt lat="59.095835" lon="18.180313">
        <ele>22.5</ele>
        <time>2014-10-11T12:36:43Z</time>
      </trkpt>
      <trkpt lat="59.095788" lon="18.180301">
        <ele>22.8</ele>
        <time>2014-10-11T12:36:44Z</time>
      </trkpt>
      <trkpt lat="59.095745" lon="18.180247">
        <ele>22.8</ele>
        <time>2014-10-11T12:36:45Z</time>
      </trkpt>
      <trkpt lat="59.095703" lon="18.180206">
        <ele>22.8</ele>
        <time>2014-10-11T12:36:46Z</time>
      </trkpt>
      <trkpt lat="59.095661" lon="18.180158">
        <ele>22.9</ele>
        <time>2014-10-11T12:36:47Z</time>
      </trkpt>
      <trkpt lat="59.095613" lon="18.180106">
        <ele>22.9</ele>
        <time>2014-10-11T12:36:48Z</time>
      </trkpt>
      <trkpt lat="59.095574" lon="18.180055">
        <ele>22.9</ele>
        <time>2014-10-11T12:36:49Z</time>
      </trkpt>
      <trkpt lat="59.09552" lon="18.180035">
        <ele>23.1</ele>
        <time>2014-10-11T12:36:50Z</time>
      </trkpt>
      <trkpt lat="59.095482" lon="18.179989">
        <ele>23</ele>
        <time>2014-10-11T12:36:51Z</time>
      </trkpt>
      <trkpt lat="59.095442" lon="18.179965">
        <ele>23.1</ele>
        <time>2014-10-11T12:36:52Z</time>
      </trkpt>
      <trkpt lat="59.095399" lon="18.179921">
        <ele>23.1</ele>
        <time>2014-10-11T12:36:53Z</time>
      </trkpt>
      <trkpt lat="59.095357" lon="18.179895">
        <ele>23.1</ele>
        <time>2014-10-11T12:36:54Z</time>
      </trkpt>
      <trkpt lat="59.095318" lon="18.179855">
        <ele>22.9</ele>
        <time>2014-10-11T12:36:55Z</time>
      </trkpt>
      <trkpt lat="59.095273" lon="18.179822">
        <ele>22.9</ele>
        <time>2014-10-11T12:36:56Z</time>
      </trkpt>
      <trkpt lat="59.095227" lon="18.179784">
        <ele>22.8</ele>
        <time>2014-10-11T12:36:57Z</time>
      </trkpt>
      <trkpt lat="59.095177" lon="18.179757">
        <ele>22.8</ele>
        <time>2014-10-11T12:36:58Z</time>
      </trkpt>
      <trkpt lat="59.095132" lon="18.179705">
        <ele>22.7</ele>
        <time>2014-10-11T12:36:59Z</time>
      </trkpt>
      <trkpt lat="59.095092" lon="18.179664">
        <ele>22.6</ele>
        <time>2014-10-11T12:37:00Z</time>
      </trkpt>
      <trkpt lat="59.095053" lon="18.179626">
        <ele>22.5</ele>
        <time>2014-10-11T12:37:01Z</time>
      </trkpt>
      <trkpt lat="59.094999" lon="18.179589">
        <ele>22.5</ele>
        <time>2014-10-11T12:37:02Z</time>
      </trkpt>
      <trkpt lat="59.094954" lon="18.179573">
        <ele>22.6</ele>
        <time>2014-10-11T12:37:03Z</time>
      </trkpt>
      <trkpt lat="59.09491" lon="18.179536">
        <ele>22.6</ele>
        <time>2014-10-11T12:37:04Z</time>
      </trkpt>
      <trkpt lat="59.094864" lon="18.179516">
        <ele>22.7</ele>
        <time>2014-10-11T12:37:05Z</time>
      </trkpt>
      <trkpt lat="59.094797" lon="18.179486">
        <ele>22.9</ele>
        <time>2014-10-11T12:37:06Z</time>
      </trkpt>
      <trkpt lat="59.09474" lon="18.179441">
        <ele>22.9</ele>
        <time>2014-10-11T12:37:07Z</time>
      </trkpt>
      <trkpt lat="59.094685" lon="18.179403">
        <ele>23</ele>
        <time>2014-10-11T12:37:08Z</time>
      </trkpt>
      <trkpt lat="59.094635" lon="18.17938">
        <ele>23.1</ele>
        <time>2014-10-11T12:37:09Z</time>
      </trkpt>
      <trkpt lat="59.094578" lon="18.179355">
        <ele>23.2</ele>
        <time>2014-10-11T12:37:10Z</time>
      </trkpt>
      <trkpt lat="59.094524" lon="18.179321">
        <ele>23.2</ele>
        <time>2014-10-11T12:37:11Z</time>
      </trkpt>
      <trkpt lat="59.094467" lon="18.179293">
        <ele>23.3</ele>
        <time>2014-10-11T12:37:12Z</time>
      </trkpt>
      <trkpt lat="59.094414" lon="18.179261">
        <ele>23.4</ele>
        <time>2014-10-11T12:37:13Z</time>
      </trkpt>
      <trkpt lat="59.094357" lon="18.179243">
        <ele>23.5</ele>
        <time>2014-10-11T12:37:14Z</time>
      </trkpt>
      <trkpt lat="59.094306" lon="18.17922">
        <ele>23.6</ele>
        <time>2014-10-11T12:37:15Z</time>
      </trkpt>
      <trkpt lat="59.094256" lon="18.179213">
        <ele>23.8</ele>
        <time>2014-10-11T12:37:16Z</time>
      </trkpt>
      <trkpt lat="59.0942" lon="18.179206">
        <ele>24</ele>
        <time>2014-10-11T12:37:17Z</time>
      </trkpt>
      <trkpt lat="59.094148" lon="18.179198">
        <ele>24.1</ele>
        <time>2014-10-11T12:37:18Z</time>
      </trkpt>
      <trkpt lat="59.094086" lon="18.179187">
        <ele>24.3</ele>
        <time>2014-10-11T12:37:19Z</time>
      </trkpt>
      <trkpt lat="59.094028" lon="18.179171">
        <ele>24.5</ele>
        <time>2014-10-11T12:37:20Z</time>
      </trkpt>
      <trkpt lat="59.093973" lon="18.179178">
        <ele>24.7</ele>
        <time>2014-10-11T12:37:21Z</time>
      </trkpt>
      <trkpt lat="59.093923" lon="18.179191">
        <ele>24.9</ele>
        <time>2014-10-11T12:37:22Z</time>
      </trkpt>
      <trkpt lat="59.093867" lon="18.179201">
        <ele>25.1</ele>
        <time>2014-10-11T12:37:23Z</time>
      </trkpt>
      <trkpt lat="59.093813" lon="18.179205">
        <ele>25.3</ele>
        <time>2014-10-11T12:37:24Z</time>
      </trkpt>
      <trkpt lat="59.093748" lon="18.179206">
        <ele>25.6</ele>
        <time>2014-10-11T12:37:25Z</time>
      </trkpt>
      <trkpt lat="59.093682" lon="18.17922">
        <ele>25.8</ele>
        <time>2014-10-11T12:37:26Z</time>
      </trkpt>
      <trkpt lat="59.093621" lon="18.179244">
        <ele>26</ele>
        <time>2014-10-11T12:37:27Z</time>
      </trkpt>
      <trkpt lat="59.093552" lon="18.179257">
        <ele>26.2</ele>
        <time>2014-10-11T12:37:28Z</time>
      </trkpt>
      <trkpt lat="59.093483" lon="18.179268">
        <ele>26.4</ele>
        <time>2014-10-11T12:37:29Z</time>
      </trkpt>
      <trkpt lat="59.09342" lon="18.179286">
        <ele>26.6</ele>
        <time>2014-10-11T12:37:30Z</time>
      </trkpt>
      <trkpt lat="59.093346" lon="18.179316">
        <ele>26.8</ele>
        <time>2014-10-11T12:37:31Z</time>
      </trkpt>
      <trkpt lat="59.093272" lon="18.17936">
        <ele>27</ele>
        <time>2014-10-11T12:37:32Z</time>
      </trkpt>
      <trkpt lat="59.093202" lon="18.179404">
        <ele>27.2</ele>
        <time>2014-10-11T12:37:33Z</time>
      </trkpt>
      <trkpt lat="59.093129" lon="18.179465">
        <ele>27.5</ele>
        <time>2014-10-11T12:37:34Z</time>
      </trkpt>
      <trkpt lat="59.093057" lon="18.179523">
        <ele>27.7</ele>
        <time>2014-10-11T12:37:35Z</time>
      </trkpt>
      <trkpt lat="59.092979" lon="18.179564">
        <ele>27.8</ele>
        <time>2014-10-11T12:37:36Z</time>
      </trkpt>
      <trkpt lat="59.092913" lon="18.17962">
        <ele>28</ele>
        <time>2014-10-11T12:37:37Z</time>
      </trkpt>
      <trkpt lat="59.092842" lon="18.179678">
        <ele>28</ele>
        <time>2014-10-11T12:37:38Z</time>
      </trkpt>
      <trkpt lat="59.092761" lon="18.179734">
        <ele>28</ele>
        <time>2014-10-11T12:37:39Z</time>
      </trkpt>
      <trkpt lat="59.092676" lon="18.179775">
        <ele>27.9</ele>
        <time>2014-10-11T12:37:40Z</time>
      </trkpt>
      <trkpt lat="59.09261" lon="18.179845">
        <ele>27.9</ele>
        <time>2014-10-11T12:37:41Z</time>
      </trkpt>
      <trkpt lat="59.09254" lon="18.179899">
        <ele>27.8</ele>
        <time>2014-10-11T12:37:42Z</time>
      </trkpt>
      <trkpt lat="59.092479" lon="18.179949">
        <ele>27.8</ele>
        <time>2014-10-11T12:37:43Z</time>
      </trkpt>
      <trkpt lat="59.092415" lon="18.18">
        <ele>27.7</ele>
        <time>2014-10-11T12:37:44Z</time>
      </trkpt>
      <trkpt lat="59.092341" lon="18.180055">
        <ele>27.6</ele>
        <time>2014-10-11T12:37:45Z</time>
      </trkpt>
      <trkpt lat="59.092265" lon="18.180108">
        <ele>27.5</ele>
        <time>2014-10-11T12:37:46Z</time>
      </trkpt>
      <trkpt lat="59.092195" lon="18.180157">
        <ele>27.4</ele>
        <time>2014-10-11T12:37:47Z</time>
      </trkpt>
      <trkpt lat="59.092126" lon="18.180211">
        <ele>27.3</ele>
        <time>2014-10-11T12:37:48Z</time>
      </trkpt>
      <trkpt lat="59.092065" lon="18.180247">
        <ele>27.1</ele>
        <time>2014-10-11T12:37:49Z</time>
      </trkpt>
      <trkpt lat="59.091518" lon="18.180466">
        <ele>25</ele>
        <time>2014-10-11T12:37:56Z</time>
      </trkpt>
      <trkpt lat="59.091476" lon="18.180472">
        <ele>24.8</ele>
        <time>2014-10-11T12:37:57Z</time>
      </trkpt>
      <trkpt lat="59.091375" lon="18.180477">
        <ele>24.5</ele>
        <time>2014-10-11T12:37:58Z</time>
      </trkpt>
      <trkpt lat="59.091303" lon="18.180466">
        <ele>24.2</ele>
        <time>2014-10-11T12:37:59Z</time>
      </trkpt>
      <trkpt lat="59.091231" lon="18.18043">
        <ele>23.9</ele>
        <time>2014-10-11T12:38:00Z</time>
      </trkpt>
      <trkpt lat="59.091132" lon="18.18039">
        <ele>23.2</ele>
        <time>2014-10-11T12:38:01Z</time>
      </trkpt>
      <trkpt lat="59.091049" lon="18.180337">
        <ele>22.7</ele>
        <time>2014-10-11T12:38:02Z</time>
      </trkpt>
      <trkpt lat="59.090962" lon="18.180296">
        <ele>22.1</ele>
        <time>2014-10-11T12:38:03Z</time>
      </trkpt>
      <trkpt lat="59.090875" lon="18.180222">
        <ele>21.6</ele>
        <time>2014-10-11T12:38:04Z</time>
      </trkpt>
      <trkpt lat="59.0908" lon="18.180161">
        <ele>21.2</ele>
        <time>2014-10-11T12:38:05Z</time>
      </trkpt>
      <trkpt lat="59.090716" lon="18.180103">
        <ele>20.8</ele>
        <time>2014-10-11T12:38:06Z</time>
      </trkpt>
      <trkpt lat="59.090655" lon="18.180029">
        <ele>20.5</ele>
        <time>2014-10-11T12:38:07Z</time>
      </trkpt>
      <trkpt lat="59.09059" lon="18.179986">
        <ele>20.2</ele>
        <time>2014-10-11T12:38:08Z</time>
      </trkpt>
      <trkpt lat="59.090502" lon="18.179915">
        <ele>19.8</ele>
        <time>2014-10-11T12:38:09Z</time>
      </trkpt>
      <trkpt lat="59.090434" lon="18.179835">
        <ele>19.5</ele>
        <time>2014-10-11T12:38:10Z</time>
      </trkpt>
      <trkpt lat="59.090367" lon="18.179775">
        <ele>19.2</ele>
        <time>2014-10-11T12:38:11Z</time>
      </trkpt>
      <trkpt lat="59.09028" lon="18.179703">
        <ele>18.9</ele>
        <time>2014-10-11T12:38:12Z</time>
      </trkpt>
      <trkpt lat="59.090208" lon="18.179617">
        <ele>18.7</ele>
        <time>2014-10-11T12:38:13Z</time>
      </trkpt>
      <trkpt lat="59.090132" lon="18.179555">
        <ele>18.3</ele>
        <time>2014-10-11T12:38:14Z</time>
      </trkpt>
      <trkpt lat="59.090054" lon="18.179486">
        <ele>17.9</ele>
        <time>2014-10-11T12:38:15Z</time>
      </trkpt>
      <trkpt lat="59.089966" lon="18.179422">
        <ele>17.5</ele>
        <time>2014-10-11T12:38:16Z</time>
      </trkpt>
      <trkpt lat="59.0899" lon="18.179366">
        <ele>17.2</ele>
        <time>2014-10-11T12:38:17Z</time>
      </trkpt>
      <trkpt lat="59.089831" lon="18.179302">
        <ele>16.8</ele>
        <time>2014-10-11T12:38:18Z</time>
      </trkpt>
      <trkpt lat="59.089758" lon="18.179234">
        <ele>16.5</ele>
        <time>2014-10-11T12:38:19Z</time>
      </trkpt>
      <trkpt lat="59.089671" lon="18.179179">
        <ele>16</ele>
        <time>2014-10-11T12:38:20Z</time>
      </trkpt>
      <trkpt lat="59.089597" lon="18.179123">
        <ele>15.6</ele>
        <time>2014-10-11T12:38:21Z</time>
      </trkpt>
      <trkpt lat="59.089504" lon="18.179079">
        <ele>15.4</ele>
        <time>2014-10-11T12:38:22Z</time>
      </trkpt>
      <trkpt lat="59.089429" lon="18.179015">
        <ele>15.3</ele>
        <time>2014-10-11T12:38:23Z</time>
      </trkpt>
      <trkpt lat="59.089345" lon="18.178959">
        <ele>15.1</ele>
        <time>2014-10-11T12:38:24Z</time>
      </trkpt>
      <trkpt lat="59.089266" lon="18.178916">
        <ele>15</ele>
        <time>2014-10-11T12:38:25Z</time>
      </trkpt>
      <trkpt lat="59.089144" lon="18.178862">
        <ele>14.7</ele>
        <time>2014-10-11T12:38:26Z</time>
      </trkpt>
      <trkpt lat="59.089051" lon="18.178835">
        <ele>14.6</ele>
        <time>2014-10-11T12:38:27Z</time>
      </trkpt>
      <trkpt lat="59.088962" lon="18.178798">
        <ele>14.4</ele>
        <time>2014-10-11T12:38:28Z</time>
      </trkpt>
      <trkpt lat="59.08888" lon="18.178788">
        <ele>14.2</ele>
        <time>2014-10-11T12:38:29Z</time>
      </trkpt>
      <trkpt lat="59.0888" lon="18.178766">
        <ele>14.1</ele>
        <time>2014-10-11T12:38:30Z</time>
      </trkpt>
      <trkpt lat="59.088718" lon="18.178751">
        <ele>14</ele>
        <time>2014-10-11T12:38:31Z</time>
      </trkpt>
      <trkpt lat="59.08863" lon="18.178739">
        <ele>14.2</ele>
        <time>2014-10-11T12:38:32Z</time>
      </trkpt>
      <trkpt lat="59.088542" lon="18.178727">
        <ele>14.3</ele>
        <time>2014-10-11T12:38:33Z</time>
      </trkpt>
      <trkpt lat="59.088477" lon="18.178747">
        <ele>14.3</ele>
        <time>2014-10-11T12:38:34Z</time>
      </trkpt>
      <trkpt lat="59.088373" lon="18.178741">
        <ele>14.5</ele>
        <time>2014-10-11T12:38:35Z</time>
      </trkpt>
      <trkpt lat="59.088281" lon="18.178735">
        <ele>14.6</ele>
        <time>2014-10-11T12:38:36Z</time>
      </trkpt>
      <trkpt lat="59.088212" lon="18.178719">
        <ele>14.7</ele>
        <time>2014-10-11T12:38:37Z</time>
      </trkpt>
      <trkpt lat="59.088129" lon="18.178706">
        <ele>14.9</ele>
        <time>2014-10-11T12:38:38Z</time>
      </trkpt>
      <trkpt lat="59.088051" lon="18.178693">
        <ele>15</ele>
        <time>2014-10-11T12:38:39Z</time>
      </trkpt>
      <trkpt lat="59.087978" lon="18.178727">
        <ele>15</ele>
        <time>2014-10-11T12:38:40Z</time>
      </trkpt>
      <trkpt lat="59.087891" lon="18.178703">
        <ele>15.1</ele>
        <time>2014-10-11T12:38:41Z</time>
      </trkpt>
      <trkpt lat="59.087822" lon="18.178691">
        <ele>15.3</ele>
        <time>2014-10-11T12:38:42Z</time>
      </trkpt>
      <trkpt lat="59.087734" lon="18.178672">
        <ele>15.4</ele>
        <time>2014-10-11T12:38:43Z</time>
      </trkpt>
      <trkpt lat="59.087659" lon="18.178649">
        <ele>15.6</ele>
        <time>2014-10-11T12:38:44Z</time>
      </trkpt>
      <trkpt lat="59.087585" lon="18.178633">
        <ele>15.7</ele>
        <time>2014-10-11T12:38:45Z</time>
      </trkpt>
      <trkpt lat="59.087511" lon="18.178621">
        <ele>15.9</ele>
        <time>2014-10-11T12:38:46Z</time>
      </trkpt>
      <trkpt lat="59.087438" lon="18.178617">
        <ele>16</ele>
        <time>2014-10-11T12:38:47Z</time>
      </trkpt>
      <trkpt lat="59.087365" lon="18.178598">
        <ele>16.1</ele>
        <time>2014-10-11T12:38:48Z</time>
      </trkpt>
      <trkpt lat="59.087299" lon="18.178564">
        <ele>16.4</ele>
        <time>2014-10-11T12:38:49Z</time>
      </trkpt>
      <trkpt lat="59.08723" lon="18.178541">
        <ele>16.5</ele>
        <time>2014-10-11T12:38:50Z</time>
      </trkpt>
      <trkpt lat="59.087159" lon="18.178503">
        <ele>16.8</ele>
        <time>2014-10-11T12:38:51Z</time>
      </trkpt>
      <trkpt lat="59.087079" lon="18.178454">
        <ele>17.1</ele>
        <time>2014-10-11T12:38:52Z</time>
      </trkpt>
      <trkpt lat="59.087006" lon="18.178422">
        <ele>17.1</ele>
        <time>2014-10-11T12:38:53Z</time>
      </trkpt>
      <trkpt lat="59.086938" lon="18.17838">
        <ele>17.2</ele>
        <time>2014-10-11T12:38:54Z</time>
      </trkpt>
      <trkpt lat="59.086866" lon="18.178351">
        <ele>17.2</ele>
        <time>2014-10-11T12:38:55Z</time>
      </trkpt>
      <trkpt lat="59.086803" lon="18.178328">
        <ele>17.2</ele>
        <time>2014-10-11T12:38:56Z</time>
      </trkpt>
      <trkpt lat="59.086732" lon="18.178288">
        <ele>17.2</ele>
        <time>2014-10-11T12:38:57Z</time>
      </trkpt>
      <trkpt lat="59.086668" lon="18.178243">
        <ele>17.3</ele>
        <time>2014-10-11T12:38:58Z</time>
      </trkpt>
      <trkpt lat="59.086601" lon="18.178227">
        <ele>17.3</ele>
        <time>2014-10-11T12:38:59Z</time>
      </trkpt>
      <trkpt lat="59.086534" lon="18.17819">
        <ele>17.4</ele>
        <time>2014-10-11T12:39:00Z</time>
      </trkpt>
      <trkpt lat="59.086465" lon="18.178165">
        <ele>17.4</ele>
        <time>2014-10-11T12:39:01Z</time>
      </trkpt>
      <trkpt lat="59.086397" lon="18.178159">
        <ele>17.3</ele>
        <time>2014-10-11T12:39:02Z</time>
      </trkpt>
      <trkpt lat="59.086327" lon="18.178129">
        <ele>17.3</ele>
        <time>2014-10-11T12:39:03Z</time>
      </trkpt>
      <trkpt lat="59.086249" lon="18.178098">
        <ele>17.3</ele>
        <time>2014-10-11T12:39:04Z</time>
      </trkpt>
      <trkpt lat="59.086177" lon="18.178055">
        <ele>17.4</ele>
        <time>2014-10-11T12:39:05Z</time>
      </trkpt>
      <trkpt lat="59.086108" lon="18.178027">
        <ele>17.3</ele>
        <time>2014-10-11T12:39:06Z</time>
      </trkpt>
      <trkpt lat="59.086041" lon="18.177982">
        <ele>17.3</ele>
        <time>2014-10-11T12:39:07Z</time>
      </trkpt>
      <trkpt lat="59.085955" lon="18.177938">
        <ele>17.2</ele>
        <time>2014-10-11T12:39:08Z</time>
      </trkpt>
      <trkpt lat="59.085882" lon="18.177898">
        <ele>17.2</ele>
        <time>2014-10-11T12:39:09Z</time>
      </trkpt>
      <trkpt lat="59.085809" lon="18.177851">
        <ele>17.1</ele>
        <time>2014-10-11T12:39:10Z</time>
      </trkpt>
      <trkpt lat="59.085738" lon="18.17782">
        <ele>16.9</ele>
        <time>2014-10-11T12:39:11Z</time>
      </trkpt>
      <trkpt lat="59.085656" lon="18.177778">
        <ele>16.8</ele>
        <time>2014-10-11T12:39:12Z</time>
      </trkpt>
      <trkpt lat="59.085579" lon="18.177711">
        <ele>16.7</ele>
        <time>2014-10-11T12:39:13Z</time>
      </trkpt>
      <trkpt lat="59.085499" lon="18.177636">
        <ele>16.6</ele>
        <time>2014-10-11T12:39:14Z</time>
      </trkpt>
      <trkpt lat="59.085421" lon="18.177553">
        <ele>16.4</ele>
        <time>2014-10-11T12:39:15Z</time>
      </trkpt>
      <trkpt lat="59.085346" lon="18.177463">
        <ele>16.3</ele>
        <time>2014-10-11T12:39:16Z</time>
      </trkpt>
      <trkpt lat="59.08527" lon="18.177364">
        <ele>16.1</ele>
        <time>2014-10-11T12:39:17Z</time>
      </trkpt>
      <trkpt lat="59.085201" lon="18.177267">
        <ele>16</ele>
        <time>2014-10-11T12:39:18Z</time>
      </trkpt>
      <trkpt lat="59.085137" lon="18.177159">
        <ele>15.9</ele>
        <time>2014-10-11T12:39:19Z</time>
      </trkpt>
      <trkpt lat="59.085076" lon="18.177035">
        <ele>15.9</ele>
        <time>2014-10-11T12:39:20Z</time>
      </trkpt>
      <trkpt lat="59.085014" lon="18.17691">
        <ele>15.9</ele>
        <time>2014-10-11T12:39:21Z</time>
      </trkpt>
      <trkpt lat="59.084956" lon="18.176793">
        <ele>15.8</ele>
        <time>2014-10-11T12:39:22Z</time>
      </trkpt>
      <trkpt lat="59.084921" lon="18.176745">
        <ele>15.8</ele>
        <time>2014-10-11T12:39:23Z</time>
      </trkpt>
      <trkpt lat="59.084868" lon="18.176615">
        <ele>15.8</ele>
        <time>2014-10-11T12:39:24Z</time>
      </trkpt>
      <trkpt lat="59.08482" lon="18.176514">
        <ele>15.7</ele>
        <time>2014-10-11T12:39:25Z</time>
      </trkpt>
      <trkpt lat="59.084779" lon="18.176374">
        <ele>15.8</ele>
        <time>2014-10-11T12:39:26Z</time>
      </trkpt>
      <trkpt lat="59.084737" lon="18.176288">
        <ele>15.7</ele>
        <time>2014-10-11T12:39:27Z</time>
      </trkpt>
      <trkpt lat="59.084692" lon="18.176174">
        <ele>15.6</ele>
        <time>2014-10-11T12:39:28Z</time>
      </trkpt>
      <trkpt lat="59.084656" lon="18.176055">
        <ele>15.6</ele>
        <time>2014-10-11T12:39:29Z</time>
      </trkpt>
      <trkpt lat="59.084604" lon="18.175953">
        <ele>15.5</ele>
        <time>2014-10-11T12:39:30Z</time>
      </trkpt>
      <trkpt lat="59.084566" lon="18.175813">
        <ele>15.4</ele>
        <time>2014-10-11T12:39:31Z</time>
      </trkpt>
      <trkpt lat="59.084537" lon="18.17569">
        <ele>15.4</ele>
        <time>2014-10-11T12:39:32Z</time>
      </trkpt>
      <trkpt lat="59.084503" lon="18.175542">
        <ele>15.5</ele>
        <time>2014-10-11T12:39:33Z</time>
      </trkpt>
      <trkpt lat="59.084472" lon="18.175401">
        <ele>15.5</ele>
        <time>2014-10-11T12:39:34Z</time>
      </trkpt>
      <trkpt lat="59.084472" lon="18.175293">
        <ele>15.7</ele>
        <time>2014-10-11T12:39:35Z</time>
      </trkpt>
      <trkpt lat="59.084443" lon="18.175168">
        <ele>15.9</ele>
        <time>2014-10-11T12:39:36Z</time>
      </trkpt>
      <trkpt lat="59.084424" lon="18.175017">
        <ele>16.1</ele>
        <time>2014-10-11T12:39:37Z</time>
      </trkpt>
      <trkpt lat="59.084409" lon="18.174877">
        <ele>16.3</ele>
        <time>2014-10-11T12:39:38Z</time>
      </trkpt>
      <trkpt lat="59.084397" lon="18.174757">
        <ele>16.5</ele>
        <time>2014-10-11T12:39:39Z</time>
      </trkpt>
      <trkpt lat="59.084384" lon="18.174624">
        <ele>16.7</ele>
        <time>2014-10-11T12:39:40Z</time>
      </trkpt>
      <trkpt lat="59.084364" lon="18.174501">
        <ele>16.8</ele>
        <time>2014-10-11T12:39:41Z</time>
      </trkpt>
      <trkpt lat="59.084357" lon="18.174386">
        <ele>16.9</ele>
        <time>2014-10-11T12:39:42Z</time>
      </trkpt>
      <trkpt lat="59.084346" lon="18.174262">
        <ele>17</ele>
        <time>2014-10-11T12:39:43Z</time>
      </trkpt>
      <trkpt lat="59.084336" lon="18.174149">
        <ele>17</ele>
        <time>2014-10-11T12:39:44Z</time>
      </trkpt>
      <trkpt lat="59.084326" lon="18.174025">
        <ele>17.1</ele>
        <time>2014-10-11T12:39:45Z</time>
      </trkpt>
      <trkpt lat="59.084318" lon="18.173903">
        <ele>17.2</ele>
        <time>2014-10-11T12:39:46Z</time>
      </trkpt>
      <trkpt lat="59.084297" lon="18.17378">
        <ele>17.2</ele>
        <time>2014-10-11T12:39:47Z</time>
      </trkpt>
      <trkpt lat="59.084284" lon="18.173651">
        <ele>16.9</ele>
        <time>2014-10-11T12:39:48Z</time>
      </trkpt>
      <trkpt lat="59.084263" lon="18.173523">
        <ele>16.5</ele>
        <time>2014-10-11T12:39:49Z</time>
      </trkpt>
      <trkpt lat="59.084254" lon="18.173401">
        <ele>16.1</ele>
        <time>2014-10-11T12:39:50Z</time>
      </trkpt>
      <trkpt lat="59.084248" lon="18.173276">
        <ele>15.7</ele>
        <time>2014-10-11T12:39:51Z</time>
      </trkpt>
      <trkpt lat="59.084239" lon="18.17315">
        <ele>15.4</ele>
        <time>2014-10-11T12:39:52Z</time>
      </trkpt>
      <trkpt lat="59.084227" lon="18.173017">
        <ele>15</ele>
        <time>2014-10-11T12:39:53Z</time>
      </trkpt>
      <trkpt lat="59.08422" lon="18.172896">
        <ele>14.7</ele>
        <time>2014-10-11T12:39:54Z</time>
      </trkpt>
      <trkpt lat="59.084205" lon="18.172773">
        <ele>14.4</ele>
        <time>2014-10-11T12:39:55Z</time>
      </trkpt>
      <trkpt lat="59.084198" lon="18.172662">
        <ele>14.1</ele>
        <time>2014-10-11T12:39:56Z</time>
      </trkpt>
      <trkpt lat="59.084183" lon="18.17255">
        <ele>13.9</ele>
        <time>2014-10-11T12:39:57Z</time>
      </trkpt>
      <trkpt lat="59.084173" lon="18.172431">
        <ele>13.6</ele>
        <time>2014-10-11T12:39:58Z</time>
      </trkpt>
      <trkpt lat="59.084171" lon="18.172342">
        <ele>13.5</ele>
        <time>2014-10-11T12:39:59Z</time>
      </trkpt>
      <trkpt lat="59.084164" lon="18.172242">
        <ele>13.3</ele>
        <time>2014-10-11T12:40:00Z</time>
      </trkpt>
      <trkpt lat="59.084162" lon="18.172136">
        <ele>13.1</ele>
        <time>2014-10-11T12:40:01Z</time>
      </trkpt>
      <trkpt lat="59.084156" lon="18.172024">
        <ele>13.1</ele>
        <time>2014-10-11T12:40:02Z</time>
      </trkpt>
      <trkpt lat="59.084158" lon="18.171926">
        <ele>13.2</ele>
        <time>2014-10-11T12:40:03Z</time>
      </trkpt>
      <trkpt lat="59.084162" lon="18.17185">
        <ele>13.3</ele>
        <time>2014-10-11T12:40:04Z</time>
      </trkpt>
      <trkpt lat="59.084153" lon="18.171739">
        <ele>13.4</ele>
        <time>2014-10-11T12:40:05Z</time>
      </trkpt>
      <trkpt lat="59.084151" lon="18.171661">
        <ele>13.5</ele>
        <time>2014-10-11T12:40:06Z</time>
      </trkpt>
      <trkpt lat="59.084143" lon="18.171603">
        <ele>13.6</ele>
        <time>2014-10-11T12:40:07Z</time>
      </trkpt>
      <trkpt lat="59.084131" lon="18.171551">
        <ele>13.6</ele>
        <time>2014-10-11T12:40:09Z</time>
      </trkpt>
      <trkpt lat="59.084123" lon="18.171477">
        <ele>13.7</ele>
        <time>2014-10-11T12:40:16Z</time>
      </trkpt>
      <trkpt lat="59.084114" lon="18.171369">
        <ele>13.9</ele>
        <time>2014-10-11T12:40:18Z</time>
      </trkpt>
      <trkpt lat="59.084102" lon="18.171297">
        <ele>13.9</ele>
        <time>2014-10-11T12:40:19Z</time>
      </trkpt>
      <trkpt lat="59.084096" lon="18.171221">
        <ele>14</ele>
        <time>2014-10-11T12:40:20Z</time>
      </trkpt>
      <trkpt lat="59.084093" lon="18.171139">
        <ele>14.1</ele>
        <time>2014-10-11T12:40:21Z</time>
      </trkpt>
      <trkpt lat="59.084088" lon="18.171032">
        <ele>14.1</ele>
        <time>2014-10-11T12:40:22Z</time>
      </trkpt>
      <trkpt lat="59.08408" lon="18.17093">
        <ele>14.2</ele>
        <time>2014-10-11T12:40:23Z</time>
      </trkpt>
      <trkpt lat="59.084069" lon="18.170804">
        <ele>14.2</ele>
        <time>2014-10-11T12:40:24Z</time>
      </trkpt>
      <trkpt lat="59.084051" lon="18.170697">
        <ele>14.2</ele>
        <time>2014-10-11T12:40:25Z</time>
      </trkpt>
      <trkpt lat="59.084037" lon="18.170578">
        <ele>14.3</ele>
        <time>2014-10-11T12:40:26Z</time>
      </trkpt>
      <trkpt lat="59.084035" lon="18.170469">
        <ele>14.3</ele>
        <time>2014-10-11T12:40:27Z</time>
      </trkpt>
      <trkpt lat="59.084027" lon="18.170349">
        <ele>14.5</ele>
        <time>2014-10-11T12:40:28Z</time>
      </trkpt>
      <trkpt lat="59.084021" lon="18.17024">
        <ele>14.8</ele>
        <time>2014-10-11T12:40:29Z</time>
      </trkpt>
      <trkpt lat="59.084011" lon="18.170125">
        <ele>15.1</ele>
        <time>2014-10-11T12:40:30Z</time>
      </trkpt>
      <trkpt lat="59.084011" lon="18.17002">
        <ele>15.4</ele>
        <time>2014-10-11T12:40:31Z</time>
      </trkpt>
      <trkpt lat="59.084005" lon="18.169914">
        <ele>15.7</ele>
        <time>2014-10-11T12:40:32Z</time>
      </trkpt>
      <trkpt lat="59.083991" lon="18.1698">
        <ele>16.1</ele>
        <time>2014-10-11T12:40:33Z</time>
      </trkpt>
      <trkpt lat="59.083978" lon="18.169688">
        <ele>16.4</ele>
        <time>2014-10-11T12:40:34Z</time>
      </trkpt>
      <trkpt lat="59.083967" lon="18.169574">
        <ele>16.8</ele>
        <time>2014-10-11T12:40:35Z</time>
      </trkpt>
      <trkpt lat="59.083959" lon="18.169479">
        <ele>16.9</ele>
        <time>2014-10-11T12:40:36Z</time>
      </trkpt>
      <trkpt lat="59.083948" lon="18.169365">
        <ele>17.2</ele>
        <time>2014-10-11T12:40:37Z</time>
      </trkpt>
      <trkpt lat="59.083941" lon="18.169262">
        <ele>17.4</ele>
        <time>2014-10-11T12:40:38Z</time>
      </trkpt>
      <trkpt lat="59.083934" lon="18.16915">
        <ele>17.6</ele>
        <time>2014-10-11T12:40:39Z</time>
      </trkpt>
      <trkpt lat="59.083924" lon="18.169025">
        <ele>17.9</ele>
        <time>2014-10-11T12:40:40Z</time>
      </trkpt>
      <trkpt lat="59.083922" lon="18.168894">
        <ele>18.1</ele>
        <time>2014-10-11T12:40:41Z</time>
      </trkpt>
      <trkpt lat="59.083915" lon="18.168774">
        <ele>18.4</ele>
        <time>2014-10-11T12:40:42Z</time>
      </trkpt>
      <trkpt lat="59.083909" lon="18.168653">
        <ele>18.8</ele>
        <time>2014-10-11T12:40:43Z</time>
      </trkpt>
      <trkpt lat="59.083902" lon="18.168529">
        <ele>19.4</ele>
        <time>2014-10-11T12:40:44Z</time>
      </trkpt>
      <trkpt lat="59.083893" lon="18.168414">
        <ele>20</ele>
        <time>2014-10-11T12:40:45Z</time>
      </trkpt>
      <trkpt lat="59.083883" lon="18.168295">
        <ele>20.5</ele>
        <time>2014-10-11T12:40:46Z</time>
      </trkpt>
      <trkpt lat="59.08387" lon="18.168164">
        <ele>21.2</ele>
        <time>2014-10-11T12:40:47Z</time>
      </trkpt>
      <trkpt lat="59.083859" lon="18.168044">
        <ele>21.8</ele>
        <time>2014-10-11T12:40:48Z</time>
      </trkpt>
      <trkpt lat="59.083847" lon="18.167933">
        <ele>22.3</ele>
        <time>2014-10-11T12:40:49Z</time>
      </trkpt>
      <trkpt lat="59.083834" lon="18.167797">
        <ele>23</ele>
        <time>2014-10-11T12:40:50Z</time>
      </trkpt>
      <trkpt lat="59.083822" lon="18.167682">
        <ele>23.6</ele>
        <time>2014-10-11T12:40:51Z</time>
      </trkpt>
      <trkpt lat="59.083815" lon="18.167576">
        <ele>24.2</ele>
        <time>2014-10-11T12:40:52Z</time>
      </trkpt>
      <trkpt lat="59.083807" lon="18.167469">
        <ele>24.7</ele>
        <time>2014-10-11T12:40:53Z</time>
      </trkpt>
      <trkpt lat="59.083798" lon="18.167362">
        <ele>25.3</ele>
        <time>2014-10-11T12:40:54Z</time>
      </trkpt>
      <trkpt lat="59.083784" lon="18.167311">
        <ele>25.6</ele>
        <time>2014-10-11T12:40:55Z</time>
      </trkpt>
      <trkpt lat="59.083769" lon="18.167215">
        <ele>26.2</ele>
        <time>2014-10-11T12:40:56Z</time>
      </trkpt>
      <trkpt lat="59.083754" lon="18.167132">
        <ele>26.7</ele>
        <time>2014-10-11T12:40:57Z</time>
      </trkpt>
      <trkpt lat="59.083745" lon="18.167057">
        <ele>26.9</ele>
        <time>2014-10-11T12:40:58Z</time>
      </trkpt>
      <trkpt lat="59.083741" lon="18.16699">
        <ele>26.8</ele>
        <time>2014-10-11T12:40:59Z</time>
      </trkpt>
      <trkpt lat="59.083728" lon="18.166905">
        <ele>26.5</ele>
        <time>2014-10-11T12:41:00Z</time>
      </trkpt>
      <trkpt lat="59.083719" lon="18.166813">
        <ele>26.3</ele>
        <time>2014-10-11T12:41:01Z</time>
      </trkpt>
      <trkpt lat="59.083703" lon="18.166724">
        <ele>26</ele>
        <time>2014-10-11T12:41:02Z</time>
      </trkpt>
      <trkpt lat="59.083689" lon="18.166634">
        <ele>25.8</ele>
        <time>2014-10-11T12:41:03Z</time>
      </trkpt>
      <trkpt lat="59.08367" lon="18.166537">
        <ele>25.6</ele>
        <time>2014-10-11T12:41:04Z</time>
      </trkpt>
      <trkpt lat="59.083646" lon="18.16644">
        <ele>25.3</ele>
        <time>2014-10-11T12:41:05Z</time>
      </trkpt>
      <trkpt lat="59.083629" lon="18.166351">
        <ele>25.1</ele>
        <time>2014-10-11T12:41:06Z</time>
      </trkpt>
      <trkpt lat="59.083612" lon="18.166247">
        <ele>24.8</ele>
        <time>2014-10-11T12:41:07Z</time>
      </trkpt>
      <trkpt lat="59.083598" lon="18.166164">
        <ele>24.7</ele>
        <time>2014-10-11T12:41:08Z</time>
      </trkpt>
      <trkpt lat="59.083572" lon="18.166069">
        <ele>24.6</ele>
        <time>2014-10-11T12:41:09Z</time>
      </trkpt>
      <trkpt lat="59.083548" lon="18.165978">
        <ele>24.4</ele>
        <time>2014-10-11T12:41:10Z</time>
      </trkpt>
      <trkpt lat="59.083531" lon="18.165893">
        <ele>24.3</ele>
        <time>2014-10-11T12:41:11Z</time>
      </trkpt>
      <trkpt lat="59.083513" lon="18.165804">
        <ele>24.2</ele>
        <time>2014-10-11T12:41:12Z</time>
      </trkpt>
      <trkpt lat="59.083484" lon="18.165694">
        <ele>24</ele>
        <time>2014-10-11T12:41:13Z</time>
      </trkpt>
      <trkpt lat="59.083459" lon="18.165576">
        <ele>23.8</ele>
        <time>2014-10-11T12:41:14Z</time>
      </trkpt>
      <trkpt lat="59.083438" lon="18.165463">
        <ele>23.7</ele>
        <time>2014-10-11T12:41:15Z</time>
      </trkpt>
      <trkpt lat="59.083414" lon="18.165349">
        <ele>23.6</ele>
        <time>2014-10-11T12:41:16Z</time>
      </trkpt>
      <trkpt lat="59.083378" lon="18.16524">
        <ele>23.7</ele>
        <time>2014-10-11T12:41:17Z</time>
      </trkpt>
      <trkpt lat="59.083354" lon="18.16513">
        <ele>23.7</ele>
        <time>2014-10-11T12:41:18Z</time>
      </trkpt>
      <trkpt lat="59.08333" lon="18.165038">
        <ele>23.7</ele>
        <time>2014-10-11T12:41:19Z</time>
      </trkpt>
      <trkpt lat="59.083292" lon="18.164936">
        <ele>23.7</ele>
        <time>2014-10-11T12:41:20Z</time>
      </trkpt>
      <trkpt lat="59.083265" lon="18.164839">
        <ele>23.7</ele>
        <time>2014-10-11T12:41:21Z</time>
      </trkpt>
      <trkpt lat="59.083233" lon="18.164738">
        <ele>23.7</ele>
        <time>2014-10-11T12:41:22Z</time>
      </trkpt>
      <trkpt lat="59.083208" lon="18.164632">
        <ele>23.7</ele>
        <time>2014-10-11T12:41:23Z</time>
      </trkpt>
      <trkpt lat="59.083189" lon="18.16452">
        <ele>23.7</ele>
        <time>2014-10-11T12:41:24Z</time>
      </trkpt>
      <trkpt lat="59.083174" lon="18.164422">
        <ele>23.7</ele>
        <time>2014-10-11T12:41:25Z</time>
      </trkpt>
      <trkpt lat="59.083149" lon="18.164329">
        <ele>23.6</ele>
        <time>2014-10-11T12:41:26Z</time>
      </trkpt>
      <trkpt lat="59.083126" lon="18.164228">
        <ele>23.6</ele>
        <time>2014-10-11T12:41:27Z</time>
      </trkpt>
      <trkpt lat="59.083106" lon="18.164136">
        <ele>23.6</ele>
        <time>2014-10-11T12:41:28Z</time>
      </trkpt>
      <trkpt lat="59.083076" lon="18.164036">
        <ele>23.5</ele>
        <time>2014-10-11T12:41:29Z</time>
      </trkpt>
      <trkpt lat="59.083059" lon="18.163948">
        <ele>23.5</ele>
        <time>2014-10-11T12:41:30Z</time>
      </trkpt>
      <trkpt lat="59.083043" lon="18.163857">
        <ele>23.4</ele>
        <time>2014-10-11T12:41:31Z</time>
      </trkpt>
      <trkpt lat="59.083018" lon="18.163762">
        <ele>23.4</ele>
        <time>2014-10-11T12:41:32Z</time>
      </trkpt>
      <trkpt lat="59.083004" lon="18.163684">
        <ele>23.3</ele>
        <time>2014-10-11T12:41:33Z</time>
      </trkpt>
      <trkpt lat="59.082987" lon="18.1636">
        <ele>23.2</ele>
        <time>2014-10-11T12:41:34Z</time>
      </trkpt>
      <trkpt lat="59.082958" lon="18.163509">
        <ele>23.1</ele>
        <time>2014-10-11T12:41:35Z</time>
      </trkpt>
      <trkpt lat="59.082937" lon="18.163416">
        <ele>23.1</ele>
        <time>2014-10-11T12:41:36Z</time>
      </trkpt>
      <trkpt lat="59.082915" lon="18.163317">
        <ele>23</ele>
        <time>2014-10-11T12:41:37Z</time>
      </trkpt>
      <trkpt lat="59.082891" lon="18.163243">
        <ele>22.8</ele>
        <time>2014-10-11T12:41:38Z</time>
      </trkpt>
      <trkpt lat="59.082866" lon="18.163169">
        <ele>22.7</ele>
        <time>2014-10-11T12:41:39Z</time>
      </trkpt>
      <trkpt lat="59.08285" lon="18.16309">
        <ele>22.6</ele>
        <time>2014-10-11T12:41:40Z</time>
      </trkpt>
      <trkpt lat="59.082826" lon="18.163004">
        <ele>22.4</ele>
        <time>2014-10-11T12:41:41Z</time>
      </trkpt>
      <trkpt lat="59.082808" lon="18.162922">
        <ele>22.3</ele>
        <time>2014-10-11T12:41:42Z</time>
      </trkpt>
      <trkpt lat="59.082793" lon="18.162846">
        <ele>22.3</ele>
        <time>2014-10-11T12:41:43Z</time>
      </trkpt>
      <trkpt lat="59.082777" lon="18.162776">
        <ele>22.2</ele>
        <time>2014-10-11T12:41:44Z</time>
      </trkpt>
      <trkpt lat="59.082765" lon="18.162728">
        <ele>22.1</ele>
        <time>2014-10-11T12:41:45Z</time>
      </trkpt>
      <trkpt lat="59.082762" lon="18.162673">
        <ele>22.1</ele>
        <time>2014-10-11T12:41:46Z</time>
      </trkpt>
      <trkpt lat="59.082754" lon="18.162619">
        <ele>22.1</ele>
        <time>2014-10-11T12:41:47Z</time>
      </trkpt>
      <trkpt lat="59.082741" lon="18.16256">
        <ele>22</ele>
        <time>2014-10-11T12:41:49Z</time>
      </trkpt>
      <trkpt lat="59.082735" lon="18.1625">
        <ele>22</ele>
        <time>2014-10-11T12:41:51Z</time>
      </trkpt>
      <trkpt lat="59.082727" lon="18.162441">
        <ele>22</ele>
        <time>2014-10-11T12:41:54Z</time>
      </trkpt>
      <trkpt lat="59.082703" lon="18.162372">
        <ele>21.9</ele>
        <time>2014-10-11T12:41:57Z</time>
      </trkpt>
      <trkpt lat="59.082671" lon="18.162289">
        <ele>21.7</ele>
        <time>2014-10-11T12:41:59Z</time>
      </trkpt>
      <trkpt lat="59.082648" lon="18.162218">
        <ele>21.7</ele>
        <time>2014-10-11T12:42:00Z</time>
      </trkpt>
      <trkpt lat="59.082627" lon="18.162135">
        <ele>21.6</ele>
        <time>2014-10-11T12:42:01Z</time>
      </trkpt>
      <trkpt lat="59.082593" lon="18.161995">
        <ele>21.4</ele>
        <time>2014-10-11T12:42:02Z</time>
      </trkpt>
      <trkpt lat="59.082572" lon="18.161903">
        <ele>21.3</ele>
        <time>2014-10-11T12:42:03Z</time>
      </trkpt>
      <trkpt lat="59.082554" lon="18.161799">
        <ele>21.1</ele>
        <time>2014-10-11T12:42:04Z</time>
      </trkpt>
      <trkpt lat="59.082534" lon="18.161712">
        <ele>21</ele>
        <time>2014-10-11T12:42:05Z</time>
      </trkpt>
      <trkpt lat="59.082515" lon="18.161627">
        <ele>20.8</ele>
        <time>2014-10-11T12:42:06Z</time>
      </trkpt>
      <trkpt lat="59.082486" lon="18.161535">
        <ele>20.6</ele>
        <time>2014-10-11T12:42:07Z</time>
      </trkpt>
      <trkpt lat="59.082468" lon="18.161438">
        <ele>20.4</ele>
        <time>2014-10-11T12:42:08Z</time>
      </trkpt>
      <trkpt lat="59.082443" lon="18.16133">
        <ele>20.2</ele>
        <time>2014-10-11T12:42:09Z</time>
      </trkpt>
      <trkpt lat="59.082422" lon="18.161227">
        <ele>20</ele>
        <time>2014-10-11T12:42:10Z</time>
      </trkpt>
      <trkpt lat="59.082403" lon="18.161131">
        <ele>19.8</ele>
        <time>2014-10-11T12:42:11Z</time>
      </trkpt>
      <trkpt lat="59.082389" lon="18.161037">
        <ele>19.7</ele>
        <time>2014-10-11T12:42:12Z</time>
      </trkpt>
      <trkpt lat="59.082371" lon="18.160919">
        <ele>19.5</ele>
        <time>2014-10-11T12:42:13Z</time>
      </trkpt>
      <trkpt lat="59.082354" lon="18.160793">
        <ele>19.3</ele>
        <time>2014-10-11T12:42:14Z</time>
      </trkpt>
      <trkpt lat="59.082326" lon="18.160654">
        <ele>18.9</ele>
        <time>2014-10-11T12:42:15Z</time>
      </trkpt>
      <trkpt lat="59.082307" lon="18.160509">
        <ele>18.7</ele>
        <time>2014-10-11T12:42:16Z</time>
      </trkpt>
      <trkpt lat="59.082281" lon="18.160331">
        <ele>18.6</ele>
        <time>2014-10-11T12:42:17Z</time>
      </trkpt>
      <trkpt lat="59.08226" lon="18.160188">
        <ele>18.6</ele>
        <time>2014-10-11T12:42:18Z</time>
      </trkpt>
      <trkpt lat="59.082229" lon="18.160006">
        <ele>18.6</ele>
        <time>2014-10-11T12:42:19Z</time>
      </trkpt>
      <trkpt lat="59.082214" lon="18.159825">
        <ele>18.8</ele>
        <time>2014-10-11T12:42:20Z</time>
      </trkpt>
      <trkpt lat="59.082193" lon="18.159637">
        <ele>18.8</ele>
        <time>2014-10-11T12:42:21Z</time>
      </trkpt>
      <trkpt lat="59.082171" lon="18.159463">
        <ele>18.9</ele>
        <time>2014-10-11T12:42:22Z</time>
      </trkpt>
      <trkpt lat="59.082146" lon="18.15927">
        <ele>18.9</ele>
        <time>2014-10-11T12:42:23Z</time>
      </trkpt>
      <trkpt lat="59.082141" lon="18.159097">
        <ele>19.1</ele>
        <time>2014-10-11T12:42:24Z</time>
      </trkpt>
      <trkpt lat="59.082131" lon="18.158927">
        <ele>19.2</ele>
        <time>2014-10-11T12:42:25Z</time>
      </trkpt>
      <trkpt lat="59.082116" lon="18.158787">
        <ele>19.3</ele>
        <time>2014-10-11T12:42:26Z</time>
      </trkpt>
      <trkpt lat="59.082101" lon="18.158638">
        <ele>19.2</ele>
        <time>2014-10-11T12:42:27Z</time>
      </trkpt>
      <trkpt lat="59.082094" lon="18.158491">
        <ele>19.1</ele>
        <time>2014-10-11T12:42:28Z</time>
      </trkpt>
      <trkpt lat="59.082092" lon="18.158354">
        <ele>19.1</ele>
        <time>2014-10-11T12:42:29Z</time>
      </trkpt>
      <trkpt lat="59.082097" lon="18.158222">
        <ele>19.1</ele>
        <time>2014-10-11T12:42:30Z</time>
      </trkpt>
      <trkpt lat="59.082089" lon="18.158098">
        <ele>19</ele>
        <time>2014-10-11T12:42:31Z</time>
      </trkpt>
      <trkpt lat="59.082076" lon="18.157988">
        <ele>18.9</ele>
        <time>2014-10-11T12:42:32Z</time>
      </trkpt>
      <trkpt lat="59.082086" lon="18.157869">
        <ele>19</ele>
        <time>2014-10-11T12:42:33Z</time>
      </trkpt>
      <trkpt lat="59.082094" lon="18.15774">
        <ele>19.1</ele>
        <time>2014-10-11T12:42:34Z</time>
      </trkpt>
      <trkpt lat="59.082094" lon="18.157623">
        <ele>19.1</ele>
        <time>2014-10-11T12:42:35Z</time>
      </trkpt>
      <trkpt lat="59.082101" lon="18.157494">
        <ele>19.1</ele>
        <time>2014-10-11T12:42:36Z</time>
      </trkpt>
      <trkpt lat="59.082094" lon="18.157378">
        <ele>19.1</ele>
        <time>2014-10-11T12:42:37Z</time>
      </trkpt>
      <trkpt lat="59.082101" lon="18.15726">
        <ele>19.1</ele>
        <time>2014-10-11T12:42:38Z</time>
      </trkpt>
      <trkpt lat="59.082118" lon="18.157197">
        <ele>19.3</ele>
        <time>2014-10-11T12:42:39Z</time>
      </trkpt>
      <trkpt lat="59.082121" lon="18.157081">
        <ele>19.3</ele>
        <time>2014-10-11T12:42:40Z</time>
      </trkpt>
      <trkpt lat="59.08213" lon="18.156981">
        <ele>19.5</ele>
        <time>2014-10-11T12:42:41Z</time>
      </trkpt>
      <trkpt lat="59.082142" lon="18.156882">
        <ele>19.6</ele>
        <time>2014-10-11T12:42:42Z</time>
      </trkpt>
      <trkpt lat="59.082149" lon="18.156783">
        <ele>19.8</ele>
        <time>2014-10-11T12:42:43Z</time>
      </trkpt>
      <trkpt lat="59.082154" lon="18.156702">
        <ele>19.9</ele>
        <time>2014-10-11T12:42:44Z</time>
      </trkpt>
      <trkpt lat="59.082161" lon="18.15659">
        <ele>20.1</ele>
        <time>2014-10-11T12:42:45Z</time>
      </trkpt>
      <trkpt lat="59.082173" lon="18.156491">
        <ele>20.3</ele>
        <time>2014-10-11T12:42:46Z</time>
      </trkpt>
      <trkpt lat="59.082182" lon="18.156383">
        <ele>20.5</ele>
        <time>2014-10-11T12:42:47Z</time>
      </trkpt>
      <trkpt lat="59.082191" lon="18.156261">
        <ele>20.6</ele>
        <time>2014-10-11T12:42:48Z</time>
      </trkpt>
      <trkpt lat="59.082202" lon="18.156142">
        <ele>20.8</ele>
        <time>2014-10-11T12:42:49Z</time>
      </trkpt>
      <trkpt lat="59.082272" lon="18.155421">
        <ele>21.9</ele>
        <time>2014-10-11T12:42:56Z</time>
      </trkpt>
      <trkpt lat="59.082285" lon="18.155314">
        <ele>22.1</ele>
        <time>2014-10-11T12:42:57Z</time>
      </trkpt>
      <trkpt lat="59.082307" lon="18.155216">
        <ele>22.4</ele>
        <time>2014-10-11T12:42:58Z</time>
      </trkpt>
      <trkpt lat="59.082318" lon="18.15512">
        <ele>22.5</ele>
        <time>2014-10-11T12:42:59Z</time>
      </trkpt>
      <trkpt lat="59.08233" lon="18.154994">
        <ele>22.7</ele>
        <time>2014-10-11T12:43:00Z</time>
      </trkpt>
      <trkpt lat="59.082345" lon="18.15488">
        <ele>22.9</ele>
        <time>2014-10-11T12:43:01Z</time>
      </trkpt>
      <trkpt lat="59.082356" lon="18.154764">
        <ele>23.1</ele>
        <time>2014-10-11T12:43:02Z</time>
      </trkpt>
      <trkpt lat="59.082376" lon="18.154636">
        <ele>23.3</ele>
        <time>2014-10-11T12:43:03Z</time>
      </trkpt>
      <trkpt lat="59.082395" lon="18.154507">
        <ele>23.5</ele>
        <time>2014-10-11T12:43:04Z</time>
      </trkpt>
      <trkpt lat="59.082418" lon="18.154377">
        <ele>23.6</ele>
        <time>2014-10-11T12:43:05Z</time>
      </trkpt>
      <trkpt lat="59.082441" lon="18.154255">
        <ele>23.7</ele>
        <time>2014-10-11T12:43:06Z</time>
      </trkpt>
      <trkpt lat="59.082463" lon="18.154115">
        <ele>23.8</ele>
        <time>2014-10-11T12:43:07Z</time>
      </trkpt>
      <trkpt lat="59.08249" lon="18.153971">
        <ele>23.9</ele>
        <time>2014-10-11T12:43:08Z</time>
      </trkpt>
      <trkpt lat="59.082509" lon="18.153844">
        <ele>23.9</ele>
        <time>2014-10-11T12:43:09Z</time>
      </trkpt>
      <trkpt lat="59.082518" lon="18.153712">
        <ele>23.8</ele>
        <time>2014-10-11T12:43:10Z</time>
      </trkpt>
      <trkpt lat="59.08253" lon="18.153568">
        <ele>23.1</ele>
        <time>2014-10-11T12:43:11Z</time>
      </trkpt>
      <trkpt lat="59.082548" lon="18.153435">
        <ele>22.4</ele>
        <time>2014-10-11T12:43:12Z</time>
      </trkpt>
      <trkpt lat="59.082561" lon="18.153293">
        <ele>21.7</ele>
        <time>2014-10-11T12:43:13Z</time>
      </trkpt>
      <trkpt lat="59.082563" lon="18.153142">
        <ele>20.9</ele>
        <time>2014-10-11T12:43:14Z</time>
      </trkpt>
      <trkpt lat="59.082564" lon="18.152976">
        <ele>20.1</ele>
        <time>2014-10-11T12:43:15Z</time>
      </trkpt>
      <trkpt lat="59.08256" lon="18.152815">
        <ele>19.4</ele>
        <time>2014-10-11T12:43:16Z</time>
      </trkpt>
      <trkpt lat="59.082565" lon="18.152678">
        <ele>18.9</ele>
        <time>2014-10-11T12:43:17Z</time>
      </trkpt>
      <trkpt lat="59.082572" lon="18.152546">
        <ele>18.3</ele>
        <time>2014-10-11T12:43:18Z</time>
      </trkpt>
      <trkpt lat="59.082589" lon="18.152442">
        <ele>17.9</ele>
        <time>2014-10-11T12:43:19Z</time>
      </trkpt>
      <trkpt lat="59.082617" lon="18.15235">
        <ele>17.4</ele>
        <time>2014-10-11T12:43:20Z</time>
      </trkpt>
      <trkpt lat="59.082662" lon="18.152263">
        <ele>17</ele>
        <time>2014-10-11T12:43:21Z</time>
      </trkpt>
      <trkpt lat="59.082706" lon="18.152196">
        <ele>16.7</ele>
        <time>2014-10-11T12:43:22Z</time>
      </trkpt>
      <trkpt lat="59.082762" lon="18.152171">
        <ele>16.5</ele>
        <time>2014-10-11T12:43:23Z</time>
      </trkpt>
      <trkpt lat="59.082809" lon="18.152156">
        <ele>16.4</ele>
        <time>2014-10-11T12:43:24Z</time>
      </trkpt>
      <trkpt lat="59.082889" lon="18.152118">
        <ele>16.2</ele>
        <time>2014-10-11T12:43:25Z</time>
      </trkpt>
      <trkpt lat="59.082967" lon="18.152075">
        <ele>16.1</ele>
        <time>2014-10-11T12:43:26Z</time>
      </trkpt>
      <trkpt lat="59.08304" lon="18.152027">
        <ele>16.5</ele>
        <time>2014-10-11T12:43:27Z</time>
      </trkpt>
      <trkpt lat="59.083116" lon="18.151976">
        <ele>16.9</ele>
        <time>2014-10-11T12:43:28Z</time>
      </trkpt>
      <trkpt lat="59.083198" lon="18.151934">
        <ele>17.3</ele>
        <time>2014-10-11T12:43:29Z</time>
      </trkpt>
      <trkpt lat="59.083267" lon="18.151887">
        <ele>17.7</ele>
        <time>2014-10-11T12:43:30Z</time>
      </trkpt>
      <trkpt lat="59.083343" lon="18.15185">
        <ele>18.1</ele>
        <time>2014-10-11T12:43:31Z</time>
      </trkpt>
      <trkpt lat="59.083416" lon="18.151814">
        <ele>18.4</ele>
        <time>2014-10-11T12:43:32Z</time>
      </trkpt>
      <trkpt lat="59.083485" lon="18.151784">
        <ele>18.7</ele>
        <time>2014-10-11T12:43:33Z</time>
      </trkpt>
      <trkpt lat="59.083555" lon="18.151752">
        <ele>19.1</ele>
        <time>2014-10-11T12:43:34Z</time>
      </trkpt>
      <trkpt lat="59.083619" lon="18.15173">
        <ele>19.3</ele>
        <time>2014-10-11T12:43:35Z</time>
      </trkpt>
      <trkpt lat="59.08369" lon="18.151692">
        <ele>19.7</ele>
        <time>2014-10-11T12:43:36Z</time>
      </trkpt>
      <trkpt lat="59.083767" lon="18.151651">
        <ele>20.1</ele>
        <time>2014-10-11T12:43:37Z</time>
      </trkpt>
      <trkpt lat="59.083836" lon="18.15162">
        <ele>20.5</ele>
        <time>2014-10-11T12:43:38Z</time>
      </trkpt>
      <trkpt lat="59.083909" lon="18.151589">
        <ele>20.8</ele>
        <time>2014-10-11T12:43:39Z</time>
      </trkpt>
      <trkpt lat="59.083986" lon="18.151546">
        <ele>21.3</ele>
        <time>2014-10-11T12:43:40Z</time>
      </trkpt>
      <trkpt lat="59.084052" lon="18.151505">
        <ele>21.6</ele>
        <time>2014-10-11T12:43:41Z</time>
      </trkpt>
      <trkpt lat="59.084128" lon="18.151457">
        <ele>22.1</ele>
        <time>2014-10-11T12:43:42Z</time>
      </trkpt>
      <trkpt lat="59.084187" lon="18.15142">
        <ele>22.4</ele>
        <time>2014-10-11T12:43:43Z</time>
      </trkpt>
      <trkpt lat="59.084252" lon="18.151368">
        <ele>22.8</ele>
        <time>2014-10-11T12:43:44Z</time>
      </trkpt>
      <trkpt lat="59.084321" lon="18.1513">
        <ele>23.4</ele>
        <time>2014-10-11T12:43:45Z</time>
      </trkpt>
      <trkpt lat="59.084381" lon="18.151231">
        <ele>23.9</ele>
        <time>2014-10-11T12:43:46Z</time>
      </trkpt>
      <trkpt lat="59.08444" lon="18.151146">
        <ele>24.5</ele>
        <time>2014-10-11T12:43:47Z</time>
      </trkpt>
      <trkpt lat="59.084498" lon="18.151061">
        <ele>25</ele>
        <time>2014-10-11T12:43:48Z</time>
      </trkpt>
      <trkpt lat="59.084543" lon="18.150966">
        <ele>25.7</ele>
        <time>2014-10-11T12:43:49Z</time>
      </trkpt>
      <trkpt lat="59.084589" lon="18.150851">
        <ele>26.4</ele>
        <time>2014-10-11T12:43:50Z</time>
      </trkpt>
      <trkpt lat="59.084618" lon="18.150741">
        <ele>26.9</ele>
        <time>2014-10-11T12:43:51Z</time>
      </trkpt>
      <trkpt lat="59.08465" lon="18.150623">
        <ele>27.4</ele>
        <time>2014-10-11T12:43:52Z</time>
      </trkpt>
      <trkpt lat="59.084686" lon="18.150488">
        <ele>28</ele>
        <time>2014-10-11T12:43:53Z</time>
      </trkpt>
      <trkpt lat="59.084716" lon="18.150369">
        <ele>28.4</ele>
        <time>2014-10-11T12:43:54Z</time>
      </trkpt>
      <trkpt lat="59.084744" lon="18.150238">
        <ele>28.6</ele>
        <time>2014-10-11T12:43:55Z</time>
      </trkpt>
      <trkpt lat="59.084764" lon="18.150101">
        <ele>29</ele>
        <time>2014-10-11T12:43:56Z</time>
      </trkpt>
      <trkpt lat="59.084783" lon="18.14998">
        <ele>29.2</ele>
        <time>2014-10-11T12:43:57Z</time>
      </trkpt>
      <trkpt lat="59.084803" lon="18.149858">
        <ele>29.5</ele>
        <time>2014-10-11T12:43:58Z</time>
      </trkpt>
      <trkpt lat="59.084829" lon="18.149736">
        <ele>29.7</ele>
        <time>2014-10-11T12:43:59Z</time>
      </trkpt>
      <trkpt lat="59.08486" lon="18.149597">
        <ele>30</ele>
        <time>2014-10-11T12:44:00Z</time>
      </trkpt>
      <trkpt lat="59.084885" lon="18.149467">
        <ele>30.1</ele>
        <time>2014-10-11T12:44:01Z</time>
      </trkpt>
      <trkpt lat="59.084893" lon="18.149358">
        <ele>30.3</ele>
        <time>2014-10-11T12:44:02Z</time>
      </trkpt>
      <trkpt lat="59.084913" lon="18.149225">
        <ele>30.5</ele>
        <time>2014-10-11T12:44:03Z</time>
      </trkpt>
      <trkpt lat="59.08493" lon="18.149092">
        <ele>30.7</ele>
        <time>2014-10-11T12:44:04Z</time>
      </trkpt>
      <trkpt lat="59.084949" lon="18.148977">
        <ele>30.8</ele>
        <time>2014-10-11T12:44:05Z</time>
      </trkpt>
      <trkpt lat="59.08498" lon="18.148862">
        <ele>30.9</ele>
        <time>2014-10-11T12:44:06Z</time>
      </trkpt>
      <trkpt lat="59.085023" lon="18.148768">
        <ele>30.8</ele>
        <time>2014-10-11T12:44:07Z</time>
      </trkpt>
      <trkpt lat="59.085049" lon="18.148642">
        <ele>30.8</ele>
        <time>2014-10-11T12:44:08Z</time>
      </trkpt>
      <trkpt lat="59.085074" lon="18.148504">
        <ele>30.8</ele>
        <time>2014-10-11T12:44:09Z</time>
      </trkpt>
      <trkpt lat="59.08509" lon="18.14841">
        <ele>30.8</ele>
        <time>2014-10-11T12:44:10Z</time>
      </trkpt>
      <trkpt lat="59.085119" lon="18.148299">
        <ele>30.8</ele>
        <time>2014-10-11T12:44:11Z</time>
      </trkpt>
      <trkpt lat="59.085137" lon="18.148185">
        <ele>30.9</ele>
        <time>2014-10-11T12:44:12Z</time>
      </trkpt>
      <trkpt lat="59.085159" lon="18.148068">
        <ele>31</ele>
        <time>2014-10-11T12:44:13Z</time>
      </trkpt>
      <trkpt lat="59.085173" lon="18.147946">
        <ele>31.1</ele>
        <time>2014-10-11T12:44:14Z</time>
      </trkpt>
      <trkpt lat="59.085195" lon="18.14783">
        <ele>31.2</ele>
        <time>2014-10-11T12:44:15Z</time>
      </trkpt>
      <trkpt lat="59.085218" lon="18.147719">
        <ele>31.3</ele>
        <time>2014-10-11T12:44:16Z</time>
      </trkpt>
      <trkpt lat="59.085246" lon="18.147622">
        <ele>31.4</ele>
        <time>2014-10-11T12:44:17Z</time>
      </trkpt>
      <trkpt lat="59.085269" lon="18.147523">
        <ele>31.5</ele>
        <time>2014-10-11T12:44:18Z</time>
      </trkpt>
      <trkpt lat="59.085283" lon="18.147417">
        <ele>31.6</ele>
        <time>2014-10-11T12:44:19Z</time>
      </trkpt>
      <trkpt lat="59.085309" lon="18.14734">
        <ele>31.7</ele>
        <time>2014-10-11T12:44:20Z</time>
      </trkpt>
      <trkpt lat="59.08533" lon="18.147229">
        <ele>31.9</ele>
        <time>2014-10-11T12:44:21Z</time>
      </trkpt>
      <trkpt lat="59.085352" lon="18.147132">
        <ele>32</ele>
        <time>2014-10-11T12:44:22Z</time>
      </trkpt>
      <trkpt lat="59.085358" lon="18.147027">
        <ele>31.9</ele>
        <time>2014-10-11T12:44:23Z</time>
      </trkpt>
      <trkpt lat="59.085379" lon="18.14692">
        <ele>31.5</ele>
        <time>2014-10-11T12:44:24Z</time>
      </trkpt>
      <trkpt lat="59.085406" lon="18.146837">
        <ele>31.1</ele>
        <time>2014-10-11T12:44:25Z</time>
      </trkpt>
      <trkpt lat="59.085428" lon="18.146734">
        <ele>30.7</ele>
        <time>2014-10-11T12:44:26Z</time>
      </trkpt>
      <trkpt lat="59.085421" lon="18.146635">
        <ele>30.4</ele>
        <time>2014-10-11T12:44:27Z</time>
      </trkpt>
      <trkpt lat="59.085447" lon="18.146531">
        <ele>30</ele>
        <time>2014-10-11T12:44:28Z</time>
      </trkpt>
      <trkpt lat="59.085477" lon="18.146451">
        <ele>29.7</ele>
        <time>2014-10-11T12:44:29Z</time>
      </trkpt>
      <trkpt lat="59.085503" lon="18.146349">
        <ele>29.3</ele>
        <time>2014-10-11T12:44:30Z</time>
      </trkpt>
      <trkpt lat="59.085522" lon="18.146244">
        <ele>29</ele>
        <time>2014-10-11T12:44:31Z</time>
      </trkpt>
      <trkpt lat="59.085526" lon="18.146126">
        <ele>28.7</ele>
        <time>2014-10-11T12:44:32Z</time>
      </trkpt>
      <trkpt lat="59.085545" lon="18.14603">
        <ele>28.6</ele>
        <time>2014-10-11T12:44:33Z</time>
      </trkpt>
      <trkpt lat="59.08556" lon="18.145936">
        <ele>28.4</ele>
        <time>2014-10-11T12:44:34Z</time>
      </trkpt>
      <trkpt lat="59.085587" lon="18.145817">
        <ele>28.2</ele>
        <time>2014-10-11T12:44:35Z</time>
      </trkpt>
      <trkpt lat="59.085607" lon="18.145711">
        <ele>28</ele>
        <time>2014-10-11T12:44:36Z</time>
      </trkpt>
      <trkpt lat="59.085616" lon="18.145615">
        <ele>27.8</ele>
        <time>2014-10-11T12:44:37Z</time>
      </trkpt>
      <trkpt lat="59.085629" lon="18.145514">
        <ele>27.7</ele>
        <time>2014-10-11T12:44:38Z</time>
      </trkpt>
      <trkpt lat="59.085634" lon="18.145415">
        <ele>27.5</ele>
        <time>2014-10-11T12:44:39Z</time>
      </trkpt>
      <trkpt lat="59.085648" lon="18.145297">
        <ele>27.5</ele>
        <time>2014-10-11T12:44:40Z</time>
      </trkpt>
      <trkpt lat="59.08566" lon="18.145183">
        <ele>27.5</ele>
        <time>2014-10-11T12:44:41Z</time>
      </trkpt>
      <trkpt lat="59.085668" lon="18.145074">
        <ele>27.4</ele>
        <time>2014-10-11T12:44:42Z</time>
      </trkpt>
      <trkpt lat="59.085667" lon="18.144962">
        <ele>27.3</ele>
        <time>2014-10-11T12:44:43Z</time>
      </trkpt>
      <trkpt lat="59.085671" lon="18.144847">
        <ele>27.3</ele>
        <time>2014-10-11T12:44:44Z</time>
      </trkpt>
      <trkpt lat="59.085666" lon="18.144711">
        <ele>27.2</ele>
        <time>2014-10-11T12:44:45Z</time>
      </trkpt>
      <trkpt lat="59.085664" lon="18.144576">
        <ele>27.1</ele>
        <time>2014-10-11T12:44:46Z</time>
      </trkpt>
      <trkpt lat="59.085689" lon="18.144435">
        <ele>27</ele>
        <time>2014-10-11T12:44:47Z</time>
      </trkpt>
      <trkpt lat="59.085732" lon="18.144314">
        <ele>26.7</ele>
        <time>2014-10-11T12:44:48Z</time>
      </trkpt>
      <trkpt lat="59.085795" lon="18.144207">
        <ele>26.3</ele>
        <time>2014-10-11T12:44:49Z</time>
      </trkpt>
      <trkpt lat="59.085832" lon="18.144129">
        <ele>26</ele>
        <time>2014-10-11T12:44:50Z</time>
      </trkpt>
      <trkpt lat="59.085898" lon="18.144091">
        <ele>25.5</ele>
        <time>2014-10-11T12:44:51Z</time>
      </trkpt>
      <trkpt lat="59.085966" lon="18.144053">
        <ele>25</ele>
        <time>2014-10-11T12:44:52Z</time>
      </trkpt>
      <trkpt lat="59.086027" lon="18.143994">
        <ele>24.4</ele>
        <time>2014-10-11T12:44:53Z</time>
      </trkpt>
      <trkpt lat="59.086099" lon="18.143944">
        <ele>23.8</ele>
        <time>2014-10-11T12:44:54Z</time>
      </trkpt>
      <trkpt lat="59.086178" lon="18.1439">
        <ele>23.1</ele>
        <time>2014-10-11T12:44:55Z</time>
      </trkpt>
      <trkpt lat="59.08625" lon="18.143863">
        <ele>22.4</ele>
        <time>2014-10-11T12:44:56Z</time>
      </trkpt>
      <trkpt lat="59.086324" lon="18.143816">
        <ele>22.3</ele>
        <time>2014-10-11T12:44:57Z</time>
      </trkpt>
      <trkpt lat="59.086396" lon="18.143761">
        <ele>22.2</ele>
        <time>2014-10-11T12:44:58Z</time>
      </trkpt>
      <trkpt lat="59.086457" lon="18.143712">
        <ele>22.5</ele>
        <time>2014-10-11T12:44:59Z</time>
      </trkpt>
      <trkpt lat="59.086529" lon="18.143649">
        <ele>22.9</ele>
        <time>2014-10-11T12:45:00Z</time>
      </trkpt>
      <trkpt lat="59.086605" lon="18.143598">
        <ele>23.3</ele>
        <time>2014-10-11T12:45:01Z</time>
      </trkpt>
      <trkpt lat="59.086675" lon="18.143543">
        <ele>23.6</ele>
        <time>2014-10-11T12:45:02Z</time>
      </trkpt>
      <trkpt lat="59.086749" lon="18.1435">
        <ele>23.9</ele>
        <time>2014-10-11T12:45:03Z</time>
      </trkpt>
      <trkpt lat="59.086822" lon="18.143445">
        <ele>24.1</ele>
        <time>2014-10-11T12:45:04Z</time>
      </trkpt>
      <trkpt lat="59.086889" lon="18.143394">
        <ele>24.3</ele>
        <time>2014-10-11T12:45:05Z</time>
      </trkpt>
      <trkpt lat="59.086968" lon="18.143335">
        <ele>24.6</ele>
        <time>2014-10-11T12:45:06Z</time>
      </trkpt>
      <trkpt lat="59.087042" lon="18.143283">
        <ele>24.7</ele>
        <time>2014-10-11T12:45:07Z</time>
      </trkpt>
      <trkpt lat="59.08712" lon="18.143224">
        <ele>24.9</ele>
        <time>2014-10-11T12:45:08Z</time>
      </trkpt>
      <trkpt lat="59.08719" lon="18.143186">
        <ele>25.1</ele>
        <time>2014-10-11T12:45:09Z</time>
      </trkpt>
      <trkpt lat="59.087257" lon="18.143126">
        <ele>25.3</ele>
        <time>2014-10-11T12:45:10Z</time>
      </trkpt>
      <trkpt lat="59.08733" lon="18.143073">
        <ele>25.4</ele>
        <time>2014-10-11T12:45:11Z</time>
      </trkpt>
      <trkpt lat="59.087412" lon="18.143032">
        <ele>25.5</ele>
        <time>2014-10-11T12:45:12Z</time>
      </trkpt>
      <trkpt lat="59.087486" lon="18.142962">
        <ele>25.5</ele>
        <time>2014-10-11T12:45:13Z</time>
      </trkpt>
      <trkpt lat="59.087549" lon="18.142895">
        <ele>25.4</ele>
        <time>2014-10-11T12:45:14Z</time>
      </trkpt>
      <trkpt lat="59.087618" lon="18.142835">
        <ele>25.3</ele>
        <time>2014-10-11T12:45:15Z</time>
      </trkpt>
      <trkpt lat="59.087691" lon="18.142763">
        <ele>25.1</ele>
        <time>2014-10-11T12:45:16Z</time>
      </trkpt>
      <trkpt lat="59.087747" lon="18.142706">
        <ele>24.9</ele>
        <time>2014-10-11T12:45:17Z</time>
      </trkpt>
      <trkpt lat="59.087822" lon="18.142644">
        <ele>24.6</ele>
        <time>2014-10-11T12:45:18Z</time>
      </trkpt>
      <trkpt lat="59.087888" lon="18.142592">
        <ele>24.3</ele>
        <time>2014-10-11T12:45:19Z</time>
      </trkpt>
      <trkpt lat="59.087945" lon="18.142518">
        <ele>24</ele>
        <time>2014-10-11T12:45:20Z</time>
      </trkpt>
      <trkpt lat="59.088013" lon="18.142444">
        <ele>23.9</ele>
        <time>2014-10-11T12:45:21Z</time>
      </trkpt>
      <trkpt lat="59.088079" lon="18.142337">
        <ele>23.5</ele>
        <time>2014-10-11T12:45:22Z</time>
      </trkpt>
      <trkpt lat="59.088147" lon="18.142258">
        <ele>23.3</ele>
        <time>2014-10-11T12:45:23Z</time>
      </trkpt>
      <trkpt lat="59.088221" lon="18.142186">
        <ele>23</ele>
        <time>2014-10-11T12:45:24Z</time>
      </trkpt>
      <trkpt lat="59.088296" lon="18.142101">
        <ele>22.6</ele>
        <time>2014-10-11T12:45:25Z</time>
      </trkpt>
      <trkpt lat="59.088363" lon="18.142053">
        <ele>22.6</ele>
        <time>2014-10-11T12:45:26Z</time>
      </trkpt>
      <trkpt lat="59.088427" lon="18.141971">
        <ele>22.8</ele>
        <time>2014-10-11T12:45:27Z</time>
      </trkpt>
      <trkpt lat="59.088483" lon="18.141891">
        <ele>23.1</ele>
        <time>2014-10-11T12:45:28Z</time>
      </trkpt>
      <trkpt lat="59.088555" lon="18.141821">
        <ele>23.3</ele>
        <time>2014-10-11T12:45:29Z</time>
      </trkpt>
      <trkpt lat="59.088622" lon="18.141765">
        <ele>23.4</ele>
        <time>2014-10-11T12:45:30Z</time>
      </trkpt>
      <trkpt lat="59.0887" lon="18.141693">
        <ele>23.5</ele>
        <time>2014-10-11T12:45:31Z</time>
      </trkpt>
      <trkpt lat="59.088772" lon="18.14163">
        <ele>23.7</ele>
        <time>2014-10-11T12:45:32Z</time>
      </trkpt>
      <trkpt lat="59.08884" lon="18.141534">
        <ele>24.2</ele>
        <time>2014-10-11T12:45:33Z</time>
      </trkpt>
      <trkpt lat="59.088918" lon="18.141428">
        <ele>24.7</ele>
        <time>2014-10-11T12:45:34Z</time>
      </trkpt>
      <trkpt lat="59.088996" lon="18.141339">
        <ele>25.1</ele>
        <time>2014-10-11T12:45:35Z</time>
      </trkpt>
      <trkpt lat="59.089069" lon="18.141274">
        <ele>25.3</ele>
        <time>2014-10-11T12:45:36Z</time>
      </trkpt>
      <trkpt lat="59.08914" lon="18.141173">
        <ele>25.6</ele>
        <time>2014-10-11T12:45:37Z</time>
      </trkpt>
      <trkpt lat="59.089202" lon="18.1411">
        <ele>25.7</ele>
        <time>2014-10-11T12:45:38Z</time>
      </trkpt>
      <trkpt lat="59.089263" lon="18.141049">
        <ele>25.7</ele>
        <time>2014-10-11T12:45:39Z</time>
      </trkpt>
      <trkpt lat="59.089328" lon="18.140967">
        <ele>25.8</ele>
        <time>2014-10-11T12:45:40Z</time>
      </trkpt>
      <trkpt lat="59.089396" lon="18.140894">
        <ele>25.7</ele>
        <time>2014-10-11T12:45:41Z</time>
      </trkpt>
      <trkpt lat="59.089466" lon="18.140821">
        <ele>25.6</ele>
        <time>2014-10-11T12:45:42Z</time>
      </trkpt>
      <trkpt lat="59.089541" lon="18.140736">
        <ele>25.5</ele>
        <time>2014-10-11T12:45:43Z</time>
      </trkpt>
      <trkpt lat="59.089614" lon="18.140678">
        <ele>25.1</ele>
        <time>2014-10-11T12:45:44Z</time>
      </trkpt>
      <trkpt lat="59.089692" lon="18.140607">
        <ele>24.4</ele>
        <time>2014-10-11T12:45:45Z</time>
      </trkpt>
      <trkpt lat="59.089763" lon="18.140557">
        <ele>23.9</ele>
        <time>2014-10-11T12:45:46Z</time>
      </trkpt>
      <trkpt lat="59.089836" lon="18.140501">
        <ele>23.3</ele>
        <time>2014-10-11T12:45:47Z</time>
      </trkpt>
      <trkpt lat="59.089914" lon="18.140423">
        <ele>22.6</ele>
        <time>2014-10-11T12:45:48Z</time>
      </trkpt>
      <trkpt lat="59.089978" lon="18.140347">
        <ele>22.4</ele>
        <time>2014-10-11T12:45:49Z</time>
      </trkpt>
      <trkpt lat="59.090045" lon="18.140255">
        <ele>22.1</ele>
        <time>2014-10-11T12:45:50Z</time>
      </trkpt>
      <trkpt lat="59.090119" lon="18.14018">
        <ele>21.7</ele>
        <time>2014-10-11T12:45:51Z</time>
      </trkpt>
      <trkpt lat="59.090195" lon="18.140103">
        <ele>21.3</ele>
        <time>2014-10-11T12:45:52Z</time>
      </trkpt>
      <trkpt lat="59.090257" lon="18.140013">
        <ele>20.9</ele>
        <time>2014-10-11T12:45:53Z</time>
      </trkpt>
      <trkpt lat="59.090329" lon="18.139943">
        <ele>20.4</ele>
        <time>2014-10-11T12:45:54Z</time>
      </trkpt>
      <trkpt lat="59.090402" lon="18.13986">
        <ele>19.8</ele>
        <time>2014-10-11T12:45:55Z</time>
      </trkpt>
      <trkpt lat="59.090471" lon="18.139781">
        <ele>19.6</ele>
        <time>2014-10-11T12:45:56Z</time>
      </trkpt>
      <trkpt lat="59.090541" lon="18.139693">
        <ele>19.4</ele>
        <time>2014-10-11T12:45:57Z</time>
      </trkpt>
      <trkpt lat="59.090611" lon="18.139602">
        <ele>19.3</ele>
        <time>2014-10-11T12:45:58Z</time>
      </trkpt>
      <trkpt lat="59.090683" lon="18.139507">
        <ele>19.1</ele>
        <time>2014-10-11T12:45:59Z</time>
      </trkpt>
      <trkpt lat="59.090751" lon="18.139414">
        <ele>18.9</ele>
        <time>2014-10-11T12:46:00Z</time>
      </trkpt>
      <trkpt lat="59.090819" lon="18.139331">
        <ele>18.7</ele>
        <time>2014-10-11T12:46:01Z</time>
      </trkpt>
      <trkpt lat="59.090884" lon="18.139223">
        <ele>18.6</ele>
        <time>2014-10-11T12:46:02Z</time>
      </trkpt>
      <trkpt lat="59.090942" lon="18.139119">
        <ele>18.5</ele>
        <time>2014-10-11T12:46:03Z</time>
      </trkpt>
      <trkpt lat="59.090998" lon="18.139017">
        <ele>18.4</ele>
        <time>2014-10-11T12:46:04Z</time>
      </trkpt>
      <trkpt lat="59.091057" lon="18.13892">
        <ele>18.3</ele>
        <time>2014-10-11T12:46:05Z</time>
      </trkpt>
      <trkpt lat="59.091125" lon="18.138814">
        <ele>18.2</ele>
        <time>2014-10-11T12:46:06Z</time>
      </trkpt>
      <trkpt lat="59.091187" lon="18.138712">
        <ele>18.1</ele>
        <time>2014-10-11T12:46:07Z</time>
      </trkpt>
      <trkpt lat="59.091242" lon="18.138621">
        <ele>17.9</ele>
        <time>2014-10-11T12:46:08Z</time>
      </trkpt>
      <trkpt lat="59.091298" lon="18.138512">
        <ele>17.7</ele>
        <time>2014-10-11T12:46:09Z</time>
      </trkpt>
      <trkpt lat="59.09136" lon="18.138413">
        <ele>17.5</ele>
        <time>2014-10-11T12:46:10Z</time>
      </trkpt>
      <trkpt lat="59.091425" lon="18.138317">
        <ele>17.3</ele>
        <time>2014-10-11T12:46:11Z</time>
      </trkpt>
      <trkpt lat="59.091482" lon="18.138214">
        <ele>17.1</ele>
        <time>2014-10-11T12:46:12Z</time>
      </trkpt>
      <trkpt lat="59.091541" lon="18.13812">
        <ele>16.9</ele>
        <time>2014-10-11T12:46:13Z</time>
      </trkpt>
      <trkpt lat="59.091599" lon="18.138018">
        <ele>16.7</ele>
        <time>2014-10-11T12:46:14Z</time>
      </trkpt>
      <trkpt lat="59.091655" lon="18.137931">
        <ele>16.5</ele>
        <time>2014-10-11T12:46:15Z</time>
      </trkpt>
      <trkpt lat="59.091714" lon="18.137827">
        <ele>16.4</ele>
        <time>2014-10-11T12:46:16Z</time>
      </trkpt>
      <trkpt lat="59.091768" lon="18.137731">
        <ele>16.2</ele>
        <time>2014-10-11T12:46:17Z</time>
      </trkpt>
      <trkpt lat="59.091821" lon="18.137638">
        <ele>16.1</ele>
        <time>2014-10-11T12:46:18Z</time>
      </trkpt>
      <trkpt lat="59.091875" lon="18.137555">
        <ele>15.9</ele>
        <time>2014-10-11T12:46:19Z</time>
      </trkpt>
      <trkpt lat="59.09193" lon="18.13748">
        <ele>15.8</ele>
        <time>2014-10-11T12:46:20Z</time>
      </trkpt>
      <trkpt lat="59.091956" lon="18.137403">
        <ele>15.6</ele>
        <time>2014-10-11T12:46:21Z</time>
      </trkpt>
      <trkpt lat="59.092014" lon="18.137305">
        <ele>15.4</ele>
        <time>2014-10-11T12:46:22Z</time>
      </trkpt>
      <trkpt lat="59.092076" lon="18.137214">
        <ele>15.2</ele>
        <time>2014-10-11T12:46:23Z</time>
      </trkpt>
      <trkpt lat="59.092137" lon="18.137137">
        <ele>15.1</ele>
        <time>2014-10-11T12:46:24Z</time>
      </trkpt>
      <trkpt lat="59.092185" lon="18.137034">
        <ele>15.2</ele>
        <time>2014-10-11T12:46:25Z</time>
      </trkpt>
      <trkpt lat="59.092242" lon="18.136947">
        <ele>15.4</ele>
        <time>2014-10-11T12:46:26Z</time>
      </trkpt>
      <trkpt lat="59.092304" lon="18.136865">
        <ele>15.6</ele>
        <time>2014-10-11T12:46:27Z</time>
      </trkpt>
      <trkpt lat="59.092359" lon="18.136782">
        <ele>15.8</ele>
        <time>2014-10-11T12:46:28Z</time>
      </trkpt>
      <trkpt lat="59.092408" lon="18.136705">
        <ele>16</ele>
        <time>2014-10-11T12:46:29Z</time>
      </trkpt>
      <trkpt lat="59.092465" lon="18.136624">
        <ele>16.3</ele>
        <time>2014-10-11T12:46:30Z</time>
      </trkpt>
      <trkpt lat="59.092524" lon="18.136532">
        <ele>16.5</ele>
        <time>2014-10-11T12:46:31Z</time>
      </trkpt>
      <trkpt lat="59.092568" lon="18.136445">
        <ele>16.8</ele>
        <time>2014-10-11T12:46:32Z</time>
      </trkpt>
      <trkpt lat="59.092612" lon="18.136351">
        <ele>17.1</ele>
        <time>2014-10-11T12:46:33Z</time>
      </trkpt>
      <trkpt lat="59.092666" lon="18.136269">
        <ele>17.4</ele>
        <time>2014-10-11T12:46:34Z</time>
      </trkpt>
      <trkpt lat="59.09272" lon="18.136174">
        <ele>17.6</ele>
        <time>2014-10-11T12:46:35Z</time>
      </trkpt>
      <trkpt lat="59.092782" lon="18.13608">
        <ele>17.9</ele>
        <time>2014-10-11T12:46:36Z</time>
      </trkpt>
      <trkpt lat="59.092832" lon="18.136013">
        <ele>18.1</ele>
        <time>2014-10-11T12:46:37Z</time>
      </trkpt>
      <trkpt lat="59.092888" lon="18.135938">
        <ele>18.3</ele>
        <time>2014-10-11T12:46:38Z</time>
      </trkpt>
      <trkpt lat="59.092941" lon="18.135849">
        <ele>18.5</ele>
        <time>2014-10-11T12:46:39Z</time>
      </trkpt>
      <trkpt lat="59.092994" lon="18.135762">
        <ele>18.6</ele>
        <time>2014-10-11T12:46:40Z</time>
      </trkpt>
      <trkpt lat="59.093046" lon="18.135664">
        <ele>18.8</ele>
        <time>2014-10-11T12:46:41Z</time>
      </trkpt>
      <trkpt lat="59.0931" lon="18.135572">
        <ele>19</ele>
        <time>2014-10-11T12:46:42Z</time>
      </trkpt>
      <trkpt lat="59.093149" lon="18.135471">
        <ele>19.2</ele>
        <time>2014-10-11T12:46:43Z</time>
      </trkpt>
      <trkpt lat="59.0932" lon="18.135386">
        <ele>19.6</ele>
        <time>2014-10-11T12:46:44Z</time>
      </trkpt>
      <trkpt lat="59.09325" lon="18.135302">
        <ele>20.4</ele>
        <time>2014-10-11T12:46:45Z</time>
      </trkpt>
      <trkpt lat="59.093297" lon="18.135207">
        <ele>21.4</ele>
        <time>2014-10-11T12:46:46Z</time>
      </trkpt>
      <trkpt lat="59.093357" lon="18.135129">
        <ele>22.1</ele>
        <time>2014-10-11T12:46:47Z</time>
      </trkpt>
      <trkpt lat="59.093404" lon="18.13504">
        <ele>22.9</ele>
        <time>2014-10-11T12:46:48Z</time>
      </trkpt>
      <trkpt lat="59.093457" lon="18.134961">
        <ele>23.7</ele>
        <time>2014-10-11T12:46:49Z</time>
      </trkpt>
      <trkpt lat="59.093503" lon="18.134875">
        <ele>24.4</ele>
        <time>2014-10-11T12:46:50Z</time>
      </trkpt>
      <trkpt lat="59.093553" lon="18.134796">
        <ele>25.2</ele>
        <time>2014-10-11T12:46:51Z</time>
      </trkpt>
      <trkpt lat="59.093606" lon="18.134704">
        <ele>26</ele>
        <time>2014-10-11T12:46:52Z</time>
      </trkpt>
      <trkpt lat="59.093651" lon="18.134635">
        <ele>26.6</ele>
        <time>2014-10-11T12:46:53Z</time>
      </trkpt>
      <trkpt lat="59.093699" lon="18.134566">
        <ele>27.1</ele>
        <time>2014-10-11T12:46:54Z</time>
      </trkpt>
      <trkpt lat="59.093737" lon="18.134482">
        <ele>27.7</ele>
        <time>2014-10-11T12:46:55Z</time>
      </trkpt>
      <trkpt lat="59.093779" lon="18.134417">
        <ele>28</ele>
        <time>2014-10-11T12:46:56Z</time>
      </trkpt>
      <trkpt lat="59.093823" lon="18.134343">
        <ele>28.1</ele>
        <time>2014-10-11T12:46:57Z</time>
      </trkpt>
      <trkpt lat="59.093871" lon="18.134277">
        <ele>28.2</ele>
        <time>2014-10-11T12:46:58Z</time>
      </trkpt>
      <trkpt lat="59.093916" lon="18.134202">
        <ele>28.3</ele>
        <time>2014-10-11T12:46:59Z</time>
      </trkpt>
      <trkpt lat="59.093957" lon="18.134146">
        <ele>28.3</ele>
        <time>2014-10-11T12:47:00Z</time>
      </trkpt>
      <trkpt lat="59.094011" lon="18.134065">
        <ele>28.3</ele>
        <time>2014-10-11T12:47:01Z</time>
      </trkpt>
      <trkpt lat="59.09406" lon="18.133999">
        <ele>28.2</ele>
        <time>2014-10-11T12:47:02Z</time>
      </trkpt>
      <trkpt lat="59.094104" lon="18.13393">
        <ele>28.2</ele>
        <time>2014-10-11T12:47:03Z</time>
      </trkpt>
      <trkpt lat="59.094157" lon="18.133839">
        <ele>28.1</ele>
        <time>2014-10-11T12:47:04Z</time>
      </trkpt>
      <trkpt lat="59.094207" lon="18.13377">
        <ele>28</ele>
        <time>2014-10-11T12:47:05Z</time>
      </trkpt>
      <trkpt lat="59.094257" lon="18.133692">
        <ele>27.6</ele>
        <time>2014-10-11T12:47:06Z</time>
      </trkpt>
      <trkpt lat="59.094304" lon="18.133621">
        <ele>27.3</ele>
        <time>2014-10-11T12:47:07Z</time>
      </trkpt>
      <trkpt lat="59.094349" lon="18.133555">
        <ele>26.9</ele>
        <time>2014-10-11T12:47:08Z</time>
      </trkpt>
      <trkpt lat="59.094398" lon="18.133487">
        <ele>26.6</ele>
        <time>2014-10-11T12:47:09Z</time>
      </trkpt>
      <trkpt lat="59.094454" lon="18.133416">
        <ele>26.1</ele>
        <time>2014-10-11T12:47:10Z</time>
      </trkpt>
      <trkpt lat="59.094512" lon="18.133342">
        <ele>25.7</ele>
        <time>2014-10-11T12:47:11Z</time>
      </trkpt>
      <trkpt lat="59.094566" lon="18.133276">
        <ele>25.3</ele>
        <time>2014-10-11T12:47:12Z</time>
      </trkpt>
      <trkpt lat="59.094625" lon="18.133205">
        <ele>25</ele>
        <time>2014-10-11T12:47:13Z</time>
      </trkpt>
      <trkpt lat="59.094673" lon="18.133127">
        <ele>24.8</ele>
        <time>2014-10-11T12:47:14Z</time>
      </trkpt>
      <trkpt lat="59.094729" lon="18.133056">
        <ele>24.5</ele>
        <time>2014-10-11T12:47:15Z</time>
      </trkpt>
      <trkpt lat="59.094783" lon="18.132999">
        <ele>24.1</ele>
        <time>2014-10-11T12:47:16Z</time>
      </trkpt>
      <trkpt lat="59.094845" lon="18.132917">
        <ele>23.8</ele>
        <time>2014-10-11T12:47:17Z</time>
      </trkpt>
      <trkpt lat="59.094908" lon="18.132855">
        <ele>23.3</ele>
        <time>2014-10-11T12:47:18Z</time>
      </trkpt>
      <trkpt lat="59.094964" lon="18.13278">
        <ele>22.9</ele>
        <time>2014-10-11T12:47:19Z</time>
      </trkpt>
      <trkpt lat="59.095016" lon="18.132734">
        <ele>22.5</ele>
        <time>2014-10-11T12:47:20Z</time>
      </trkpt>
      <trkpt lat="59.095071" lon="18.132674">
        <ele>22</ele>
        <time>2014-10-11T12:47:21Z</time>
      </trkpt>
      <trkpt lat="59.095129" lon="18.132606">
        <ele>21.5</ele>
        <time>2014-10-11T12:47:22Z</time>
      </trkpt>
      <trkpt lat="59.095187" lon="18.132532">
        <ele>21.1</ele>
        <time>2014-10-11T12:47:23Z</time>
      </trkpt>
      <trkpt lat="59.095245" lon="18.132477">
        <ele>20.6</ele>
        <time>2014-10-11T12:47:24Z</time>
      </trkpt>
      <trkpt lat="59.095306" lon="18.132406">
        <ele>20</ele>
        <time>2014-10-11T12:47:25Z</time>
      </trkpt>
      <trkpt lat="59.09536" lon="18.132327">
        <ele>19.5</ele>
        <time>2014-10-11T12:47:26Z</time>
      </trkpt>
      <trkpt lat="59.095416" lon="18.132248">
        <ele>19</ele>
        <time>2014-10-11T12:47:27Z</time>
      </trkpt>
      <trkpt lat="59.095479" lon="18.132171">
        <ele>18.9</ele>
        <time>2014-10-11T12:47:28Z</time>
      </trkpt>
      <trkpt lat="59.095539" lon="18.132098">
        <ele>18.7</ele>
        <time>2014-10-11T12:47:29Z</time>
      </trkpt>
      <trkpt lat="59.095601" lon="18.132024">
        <ele>18.6</ele>
        <time>2014-10-11T12:47:30Z</time>
      </trkpt>
      <trkpt lat="59.095665" lon="18.13198">
        <ele>18.4</ele>
        <time>2014-10-11T12:47:31Z</time>
      </trkpt>
      <trkpt lat="59.095725" lon="18.131923">
        <ele>18.3</ele>
        <time>2014-10-11T12:47:32Z</time>
      </trkpt>
      <trkpt lat="59.095785" lon="18.131858">
        <ele>18.2</ele>
        <time>2014-10-11T12:47:33Z</time>
      </trkpt>
      <trkpt lat="59.095847" lon="18.131795">
        <ele>18.1</ele>
        <time>2014-10-11T12:47:34Z</time>
      </trkpt>
      <trkpt lat="59.095904" lon="18.131717">
        <ele>18.1</ele>
        <time>2014-10-11T12:47:35Z</time>
      </trkpt>
      <trkpt lat="59.095973" lon="18.131647">
        <ele>18</ele>
        <time>2014-10-11T12:47:36Z</time>
      </trkpt>
      <trkpt lat="59.096041" lon="18.131604">
        <ele>17.9</ele>
        <time>2014-10-11T12:47:37Z</time>
      </trkpt>
      <trkpt lat="59.096112" lon="18.131541">
        <ele>17.9</ele>
        <time>2014-10-11T12:47:38Z</time>
      </trkpt>
      <trkpt lat="59.096176" lon="18.13149">
        <ele>17.8</ele>
        <time>2014-10-11T12:47:39Z</time>
      </trkpt>
      <trkpt lat="59.096244" lon="18.131442">
        <ele>17.8</ele>
        <time>2014-10-11T12:47:40Z</time>
      </trkpt>
      <trkpt lat="59.09631" lon="18.131389">
        <ele>17.7</ele>
        <time>2014-10-11T12:47:41Z</time>
      </trkpt>
      <trkpt lat="59.096376" lon="18.131328">
        <ele>17.6</ele>
        <time>2014-10-11T12:47:42Z</time>
      </trkpt>
      <trkpt lat="59.096443" lon="18.13127">
        <ele>17.5</ele>
        <time>2014-10-11T12:47:43Z</time>
      </trkpt>
      <trkpt lat="59.096515" lon="18.131218">
        <ele>17.4</ele>
        <time>2014-10-11T12:47:44Z</time>
      </trkpt>
      <trkpt lat="59.096577" lon="18.131161">
        <ele>17.2</ele>
        <time>2014-10-11T12:47:45Z</time>
      </trkpt>
      <trkpt lat="59.096649" lon="18.131091">
        <ele>17</ele>
        <time>2014-10-11T12:47:46Z</time>
      </trkpt>
      <trkpt lat="59.096721" lon="18.131043">
        <ele>16.9</ele>
        <time>2014-10-11T12:47:47Z</time>
      </trkpt>
      <trkpt lat="59.096791" lon="18.130999">
        <ele>16.7</ele>
        <time>2014-10-11T12:47:48Z</time>
      </trkpt>
      <trkpt lat="59.096864" lon="18.130934">
        <ele>16.5</ele>
        <time>2014-10-11T12:47:49Z</time>
      </trkpt>
      <trkpt lat="59.096928" lon="18.130868">
        <ele>16.4</ele>
        <time>2014-10-11T12:47:50Z</time>
      </trkpt>
      <trkpt lat="59.097413" lon="18.130506">
        <ele>16.8</ele>
        <time>2014-10-11T12:47:57Z</time>
      </trkpt>
      <trkpt lat="59.097483" lon="18.130467">
        <ele>17</ele>
        <time>2014-10-11T12:47:58Z</time>
      </trkpt>
      <trkpt lat="59.097558" lon="18.130408">
        <ele>17.1</ele>
        <time>2014-10-11T12:47:59Z</time>
      </trkpt>
      <trkpt lat="59.097624" lon="18.130365">
        <ele>17.3</ele>
        <time>2014-10-11T12:48:00Z</time>
      </trkpt>
      <trkpt lat="59.097687" lon="18.130329">
        <ele>17.5</ele>
        <time>2014-10-11T12:48:01Z</time>
      </trkpt>
      <trkpt lat="59.097761" lon="18.130278">
        <ele>17.7</ele>
        <time>2014-10-11T12:48:02Z</time>
      </trkpt>
      <trkpt lat="59.097831" lon="18.130234">
        <ele>17.8</ele>
        <time>2014-10-11T12:48:03Z</time>
      </trkpt>
      <trkpt lat="59.097892" lon="18.130203">
        <ele>17.9</ele>
        <time>2014-10-11T12:48:04Z</time>
      </trkpt>
      <trkpt lat="59.097956" lon="18.130172">
        <ele>18</ele>
        <time>2014-10-11T12:48:05Z</time>
      </trkpt>
      <trkpt lat="59.098028" lon="18.130141">
        <ele>18</ele>
        <time>2014-10-11T12:48:06Z</time>
      </trkpt>
      <trkpt lat="59.098102" lon="18.130114">
        <ele>18.1</ele>
        <time>2014-10-11T12:48:07Z</time>
      </trkpt>
      <trkpt lat="59.09817" lon="18.130085">
        <ele>18.1</ele>
        <time>2014-10-11T12:48:08Z</time>
      </trkpt>
      <trkpt lat="59.09824" lon="18.130045">
        <ele>18.2</ele>
        <time>2014-10-11T12:48:09Z</time>
      </trkpt>
      <trkpt lat="59.098304" lon="18.13002">
        <ele>18.2</ele>
        <time>2014-10-11T12:48:10Z</time>
      </trkpt>
      <trkpt lat="59.098375" lon="18.129984">
        <ele>18.3</ele>
        <time>2014-10-11T12:48:11Z</time>
      </trkpt>
      <trkpt lat="59.098446" lon="18.129952">
        <ele>18.4</ele>
        <time>2014-10-11T12:48:12Z</time>
      </trkpt>
      <trkpt lat="59.098511" lon="18.129923">
        <ele>18.4</ele>
        <time>2014-10-11T12:48:13Z</time>
      </trkpt>
      <trkpt lat="59.098585" lon="18.129899">
        <ele>18.5</ele>
        <time>2014-10-11T12:48:14Z</time>
      </trkpt>
      <trkpt lat="59.098644" lon="18.129906">
        <ele>18.5</ele>
        <time>2014-10-11T12:48:15Z</time>
      </trkpt>
      <trkpt lat="59.098721" lon="18.12988">
        <ele>18.6</ele>
        <time>2014-10-11T12:48:16Z</time>
      </trkpt>
      <trkpt lat="59.098792" lon="18.129857">
        <ele>18.7</ele>
        <time>2014-10-11T12:48:17Z</time>
      </trkpt>
      <trkpt lat="59.098867" lon="18.129824">
        <ele>18.7</ele>
        <time>2014-10-11T12:48:18Z</time>
      </trkpt>
      <trkpt lat="59.098932" lon="18.12981">
        <ele>18.7</ele>
        <time>2014-10-11T12:48:19Z</time>
      </trkpt>
      <trkpt lat="59.099005" lon="18.129777">
        <ele>18.8</ele>
        <time>2014-10-11T12:48:20Z</time>
      </trkpt>
      <trkpt lat="59.099072" lon="18.129749">
        <ele>18.8</ele>
        <time>2014-10-11T12:48:21Z</time>
      </trkpt>
      <trkpt lat="59.099145" lon="18.129711">
        <ele>18.8</ele>
        <time>2014-10-11T12:48:22Z</time>
      </trkpt>
      <trkpt lat="59.099212" lon="18.129678">
        <ele>18.9</ele>
        <time>2014-10-11T12:48:23Z</time>
      </trkpt>
      <trkpt lat="59.09928" lon="18.129649">
        <ele>18.9</ele>
        <time>2014-10-11T12:48:24Z</time>
      </trkpt>
      <trkpt lat="59.099349" lon="18.129633">
        <ele>18.9</ele>
        <time>2014-10-11T12:48:25Z</time>
      </trkpt>
      <trkpt lat="59.099416" lon="18.129618">
        <ele>19</ele>
        <time>2014-10-11T12:48:26Z</time>
      </trkpt>
      <trkpt lat="59.099488" lon="18.129609">
        <ele>19</ele>
        <time>2014-10-11T12:48:27Z</time>
      </trkpt>
      <trkpt lat="59.099556" lon="18.129587">
        <ele>19</ele>
        <time>2014-10-11T12:48:28Z</time>
      </trkpt>
      <trkpt lat="59.099624" lon="18.129572">
        <ele>19</ele>
        <time>2014-10-11T12:48:29Z</time>
      </trkpt>
      <trkpt lat="59.0997" lon="18.129561">
        <ele>19</ele>
        <time>2014-10-11T12:48:30Z</time>
      </trkpt>
      <trkpt lat="59.099777" lon="18.129545">
        <ele>19</ele>
        <time>2014-10-11T12:48:31Z</time>
      </trkpt>
      <trkpt lat="59.099854" lon="18.129527">
        <ele>19</ele>
        <time>2014-10-11T12:48:32Z</time>
      </trkpt>
      <trkpt lat="59.099938" lon="18.12951">
        <ele>19</ele>
        <time>2014-10-11T12:48:33Z</time>
      </trkpt>
      <trkpt lat="59.100012" lon="18.129492">
        <ele>19</ele>
        <time>2014-10-11T12:48:34Z</time>
      </trkpt>
      <trkpt lat="59.100086" lon="18.129459">
        <ele>19</ele>
        <time>2014-10-11T12:48:35Z</time>
      </trkpt>
      <trkpt lat="59.100157" lon="18.129448">
        <ele>19</ele>
        <time>2014-10-11T12:48:36Z</time>
      </trkpt>
      <trkpt lat="59.100234" lon="18.129436">
        <ele>19</ele>
        <time>2014-10-11T12:48:37Z</time>
      </trkpt>
      <trkpt lat="59.100315" lon="18.129438">
        <ele>19</ele>
        <time>2014-10-11T12:48:38Z</time>
      </trkpt>
      <trkpt lat="59.10039" lon="18.129436">
        <ele>19</ele>
        <time>2014-10-11T12:48:39Z</time>
      </trkpt>
      <trkpt lat="59.100475" lon="18.129413">
        <ele>19.1</ele>
        <time>2014-10-11T12:48:40Z</time>
      </trkpt>
      <trkpt lat="59.100551" lon="18.129398">
        <ele>19.2</ele>
        <time>2014-10-11T12:48:41Z</time>
      </trkpt>
      <trkpt lat="59.100618" lon="18.129377">
        <ele>19.3</ele>
        <time>2014-10-11T12:48:42Z</time>
      </trkpt>
      <trkpt lat="59.100693" lon="18.129379">
        <ele>19.4</ele>
        <time>2014-10-11T12:48:43Z</time>
      </trkpt>
      <trkpt lat="59.100755" lon="18.129378">
        <ele>19.5</ele>
        <time>2014-10-11T12:48:44Z</time>
      </trkpt>
      <trkpt lat="59.100829" lon="18.129379">
        <ele>19.6</ele>
        <time>2014-10-11T12:48:45Z</time>
      </trkpt>
      <trkpt lat="59.100897" lon="18.129367">
        <ele>19.7</ele>
        <time>2014-10-11T12:48:46Z</time>
      </trkpt>
      <trkpt lat="59.100966" lon="18.129366">
        <ele>19.8</ele>
        <time>2014-10-11T12:48:47Z</time>
      </trkpt>
      <trkpt lat="59.10103" lon="18.129366">
        <ele>19.9</ele>
        <time>2014-10-11T12:48:48Z</time>
      </trkpt>
      <trkpt lat="59.101106" lon="18.129375">
        <ele>20</ele>
        <time>2014-10-11T12:48:49Z</time>
      </trkpt>
      <trkpt lat="59.101177" lon="18.129377">
        <ele>20.1</ele>
        <time>2014-10-11T12:48:50Z</time>
      </trkpt>
      <trkpt lat="59.101248" lon="18.12941">
        <ele>20.2</ele>
        <time>2014-10-11T12:48:51Z</time>
      </trkpt>
      <trkpt lat="59.101313" lon="18.129407">
        <ele>20.2</ele>
        <time>2014-10-11T12:48:52Z</time>
      </trkpt>
      <trkpt lat="59.101394" lon="18.129414">
        <ele>20.2</ele>
        <time>2014-10-11T12:48:53Z</time>
      </trkpt>
      <trkpt lat="59.101465" lon="18.129419">
        <ele>20.2</ele>
        <time>2014-10-11T12:48:54Z</time>
      </trkpt>
      <trkpt lat="59.101541" lon="18.12942">
        <ele>20.3</ele>
        <time>2014-10-11T12:48:55Z</time>
      </trkpt>
      <trkpt lat="59.101612" lon="18.129424">
        <ele>20.3</ele>
        <time>2014-10-11T12:48:56Z</time>
      </trkpt>
      <trkpt lat="59.101684" lon="18.12942">
        <ele>20.3</ele>
        <time>2014-10-11T12:48:57Z</time>
      </trkpt>
      <trkpt lat="59.101754" lon="18.129418">
        <ele>20.3</ele>
        <time>2014-10-11T12:48:58Z</time>
      </trkpt>
      <trkpt lat="59.101825" lon="18.129428">
        <ele>20.3</ele>
        <time>2014-10-11T12:48:59Z</time>
      </trkpt>
      <trkpt lat="59.101896" lon="18.129434">
        <ele>20.3</ele>
        <time>2014-10-11T12:49:00Z</time>
      </trkpt>
      <trkpt lat="59.101959" lon="18.129435">
        <ele>20.3</ele>
        <time>2014-10-11T12:49:01Z</time>
      </trkpt>
      <trkpt lat="59.102026" lon="18.129434">
        <ele>20.3</ele>
        <time>2014-10-11T12:49:02Z</time>
      </trkpt>
      <trkpt lat="59.102093" lon="18.129437">
        <ele>20.4</ele>
        <time>2014-10-11T12:49:03Z</time>
      </trkpt>
      <trkpt lat="59.102161" lon="18.129442">
        <ele>20.5</ele>
        <time>2014-10-11T12:49:04Z</time>
      </trkpt>
      <trkpt lat="59.102231" lon="18.12944">
        <ele>20.7</ele>
        <time>2014-10-11T12:49:05Z</time>
      </trkpt>
      <trkpt lat="59.102302" lon="18.12944">
        <ele>20.9</ele>
        <time>2014-10-11T12:49:06Z</time>
      </trkpt>
      <trkpt lat="59.102366" lon="18.129456">
        <ele>21</ele>
        <time>2014-10-11T12:49:07Z</time>
      </trkpt>
      <trkpt lat="59.102442" lon="18.129465">
        <ele>21.2</ele>
        <time>2014-10-11T12:49:08Z</time>
      </trkpt>
      <trkpt lat="59.102519" lon="18.129471">
        <ele>21.4</ele>
        <time>2014-10-11T12:49:09Z</time>
      </trkpt>
      <trkpt lat="59.102592" lon="18.129489">
        <ele>21.5</ele>
        <time>2014-10-11T12:49:10Z</time>
      </trkpt>
      <trkpt lat="59.102664" lon="18.129485">
        <ele>21.7</ele>
        <time>2014-10-11T12:49:11Z</time>
      </trkpt>
      <trkpt lat="59.102729" lon="18.129483">
        <ele>21.9</ele>
        <time>2014-10-11T12:49:12Z</time>
      </trkpt>
      <trkpt lat="59.102801" lon="18.129467">
        <ele>22.1</ele>
        <time>2014-10-11T12:49:13Z</time>
      </trkpt>
      <trkpt lat="59.102868" lon="18.129463">
        <ele>22.3</ele>
        <time>2014-10-11T12:49:14Z</time>
      </trkpt>
      <trkpt lat="59.102941" lon="18.129466">
        <ele>22.4</ele>
        <time>2014-10-11T12:49:15Z</time>
      </trkpt>
      <trkpt lat="59.103015" lon="18.129467">
        <ele>22.3</ele>
        <time>2014-10-11T12:49:16Z</time>
      </trkpt>
      <trkpt lat="59.103078" lon="18.129456">
        <ele>22.3</ele>
        <time>2014-10-11T12:49:17Z</time>
      </trkpt>
      <trkpt lat="59.103148" lon="18.129459">
        <ele>22.2</ele>
        <time>2014-10-11T12:49:18Z</time>
      </trkpt>
      <trkpt lat="59.103214" lon="18.129449">
        <ele>22.2</ele>
        <time>2014-10-11T12:49:19Z</time>
      </trkpt>
      <trkpt lat="59.103284" lon="18.129443">
        <ele>22.1</ele>
        <time>2014-10-11T12:49:20Z</time>
      </trkpt>
      <trkpt lat="59.103369" lon="18.129447">
        <ele>22</ele>
        <time>2014-10-11T12:49:21Z</time>
      </trkpt>
      <trkpt lat="59.10344" lon="18.129436">
        <ele>22</ele>
        <time>2014-10-11T12:49:22Z</time>
      </trkpt>
      <trkpt lat="59.103514" lon="18.129415">
        <ele>21.9</ele>
        <time>2014-10-11T12:49:23Z</time>
      </trkpt>
      <trkpt lat="59.103587" lon="18.129394">
        <ele>21.8</ele>
        <time>2014-10-11T12:49:24Z</time>
      </trkpt>
      <trkpt lat="59.10365" lon="18.129374">
        <ele>21.6</ele>
        <time>2014-10-11T12:49:25Z</time>
      </trkpt>
      <trkpt lat="59.103724" lon="18.129341">
        <ele>21.5</ele>
        <time>2014-10-11T12:49:26Z</time>
      </trkpt>
      <trkpt lat="59.103796" lon="18.129308">
        <ele>21.3</ele>
        <time>2014-10-11T12:49:27Z</time>
      </trkpt>
      <trkpt lat="59.10386" lon="18.129292">
        <ele>21.2</ele>
        <time>2014-10-11T12:49:28Z</time>
      </trkpt>
      <trkpt lat="59.103928" lon="18.129269">
        <ele>21</ele>
        <time>2014-10-11T12:49:29Z</time>
      </trkpt>
      <trkpt lat="59.103998" lon="18.129256">
        <ele>20.9</ele>
        <time>2014-10-11T12:49:30Z</time>
      </trkpt>
      <trkpt lat="59.104075" lon="18.129248">
        <ele>20.8</ele>
        <time>2014-10-11T12:49:31Z</time>
      </trkpt>
      <trkpt lat="59.104146" lon="18.129215">
        <ele>20.6</ele>
        <time>2014-10-11T12:49:32Z</time>
      </trkpt>
      <trkpt lat="59.104217" lon="18.129183">
        <ele>20.5</ele>
        <time>2014-10-11T12:49:33Z</time>
      </trkpt>
      <trkpt lat="59.104292" lon="18.129163">
        <ele>20.3</ele>
        <time>2014-10-11T12:49:34Z</time>
      </trkpt>
      <trkpt lat="59.104361" lon="18.129128">
        <ele>20.2</ele>
        <time>2014-10-11T12:49:35Z</time>
      </trkpt>
      <trkpt lat="59.104434" lon="18.129096">
        <ele>20</ele>
        <time>2014-10-11T12:49:36Z</time>
      </trkpt>
      <trkpt lat="59.104507" lon="18.129057">
        <ele>19.8</ele>
        <time>2014-10-11T12:49:37Z</time>
      </trkpt>
      <trkpt lat="59.10458" lon="18.129012">
        <ele>19.6</ele>
        <time>2014-10-11T12:49:38Z</time>
      </trkpt>
      <trkpt lat="59.104646" lon="18.128961">
        <ele>19.6</ele>
        <time>2014-10-11T12:49:39Z</time>
      </trkpt>
      <trkpt lat="59.104703" lon="18.128925">
        <ele>19.7</ele>
        <time>2014-10-11T12:49:40Z</time>
      </trkpt>
      <trkpt lat="59.104769" lon="18.128879">
        <ele>19.7</ele>
        <time>2014-10-11T12:49:41Z</time>
      </trkpt>
      <trkpt lat="59.104841" lon="18.128832">
        <ele>19.8</ele>
        <time>2014-10-11T12:49:42Z</time>
      </trkpt>
      <trkpt lat="59.104906" lon="18.128786">
        <ele>19.8</ele>
        <time>2014-10-11T12:49:43Z</time>
      </trkpt>
      <trkpt lat="59.104968" lon="18.128741">
        <ele>19.9</ele>
        <time>2014-10-11T12:49:44Z</time>
      </trkpt>
      <trkpt lat="59.105023" lon="18.12872">
        <ele>20.1</ele>
        <time>2014-10-11T12:49:45Z</time>
      </trkpt>
      <trkpt lat="59.105079" lon="18.128683">
        <ele>20.2</ele>
        <time>2014-10-11T12:49:46Z</time>
      </trkpt>
      <trkpt lat="59.105137" lon="18.128621">
        <ele>20.3</ele>
        <time>2014-10-11T12:49:47Z</time>
      </trkpt>
      <trkpt lat="59.105193" lon="18.128561">
        <ele>20.4</ele>
        <time>2014-10-11T12:49:48Z</time>
      </trkpt>
      <trkpt lat="59.105258" lon="18.1285">
        <ele>20.4</ele>
        <time>2014-10-11T12:49:49Z</time>
      </trkpt>
      <trkpt lat="59.105323" lon="18.128441">
        <ele>20.5</ele>
        <time>2014-10-11T12:49:50Z</time>
      </trkpt>
      <trkpt lat="59.105369" lon="18.128395">
        <ele>20.5</ele>
        <time>2014-10-11T12:49:51Z</time>
      </trkpt>
      <trkpt lat="59.105435" lon="18.128336">
        <ele>20.5</ele>
        <time>2014-10-11T12:49:52Z</time>
      </trkpt>
      <trkpt lat="59.105494" lon="18.128289">
        <ele>20.5</ele>
        <time>2014-10-11T12:49:53Z</time>
      </trkpt>
      <trkpt lat="59.105543" lon="18.128228">
        <ele>20.5</ele>
        <time>2014-10-11T12:49:54Z</time>
      </trkpt>
      <trkpt lat="59.105604" lon="18.128166">
        <ele>20.5</ele>
        <time>2014-10-11T12:49:55Z</time>
      </trkpt>
      <trkpt lat="59.105656" lon="18.128098">
        <ele>20.5</ele>
        <time>2014-10-11T12:49:56Z</time>
      </trkpt>
      <trkpt lat="59.105719" lon="18.128038">
        <ele>20.5</ele>
        <time>2014-10-11T12:49:57Z</time>
      </trkpt>
      <trkpt lat="59.10577" lon="18.127975">
        <ele>20.5</ele>
        <time>2014-10-11T12:49:58Z</time>
      </trkpt>
      <trkpt lat="59.105824" lon="18.127896">
        <ele>20.5</ele>
        <time>2014-10-11T12:49:59Z</time>
      </trkpt>
      <trkpt lat="59.105868" lon="18.127821">
        <ele>20.5</ele>
        <time>2014-10-11T12:50:00Z</time>
      </trkpt>
      <trkpt lat="59.105914" lon="18.127768">
        <ele>20.6</ele>
        <time>2014-10-11T12:50:01Z</time>
      </trkpt>
      <trkpt lat="59.105965" lon="18.127706">
        <ele>20.7</ele>
        <time>2014-10-11T12:50:02Z</time>
      </trkpt>
      <trkpt lat="59.106015" lon="18.127639">
        <ele>20.7</ele>
        <time>2014-10-11T12:50:03Z</time>
      </trkpt>
      <trkpt lat="59.106061" lon="18.127567">
        <ele>20.8</ele>
        <time>2014-10-11T12:50:04Z</time>
      </trkpt>
      <trkpt lat="59.106106" lon="18.127509">
        <ele>20.8</ele>
        <time>2014-10-11T12:50:05Z</time>
      </trkpt>
      <trkpt lat="59.10615" lon="18.127439">
        <ele>20.9</ele>
        <time>2014-10-11T12:50:06Z</time>
      </trkpt>
      <trkpt lat="59.106181" lon="18.127375">
        <ele>20.9</ele>
        <time>2014-10-11T12:50:07Z</time>
      </trkpt>
      <trkpt lat="59.106226" lon="18.127331">
        <ele>21</ele>
        <time>2014-10-11T12:50:08Z</time>
      </trkpt>
      <trkpt lat="59.106269" lon="18.127261">
        <ele>21.2</ele>
        <time>2014-10-11T12:50:09Z</time>
      </trkpt>
      <trkpt lat="59.10631" lon="18.127186">
        <ele>21.6</ele>
        <time>2014-10-11T12:50:10Z</time>
      </trkpt>
      <trkpt lat="59.106353" lon="18.127109">
        <ele>22</ele>
        <time>2014-10-11T12:50:11Z</time>
      </trkpt>
      <trkpt lat="59.10639" lon="18.12704">
        <ele>22.6</ele>
        <time>2014-10-11T12:50:12Z</time>
      </trkpt>
      <trkpt lat="59.106437" lon="18.126967">
        <ele>23.4</ele>
        <time>2014-10-11T12:50:13Z</time>
      </trkpt>
      <trkpt lat="59.106481" lon="18.126893">
        <ele>24.1</ele>
        <time>2014-10-11T12:50:14Z</time>
      </trkpt>
      <trkpt lat="59.106514" lon="18.126819">
        <ele>24.7</ele>
        <time>2014-10-11T12:50:15Z</time>
      </trkpt>
      <trkpt lat="59.106552" lon="18.126747">
        <ele>25.3</ele>
        <time>2014-10-11T12:50:16Z</time>
      </trkpt>
      <trkpt lat="59.106598" lon="18.126664">
        <ele>26</ele>
        <time>2014-10-11T12:50:17Z</time>
      </trkpt>
      <trkpt lat="59.106631" lon="18.126598">
        <ele>26.5</ele>
        <time>2014-10-11T12:50:18Z</time>
      </trkpt>
      <trkpt lat="59.106668" lon="18.126532">
        <ele>27</ele>
        <time>2014-10-11T12:50:19Z</time>
      </trkpt>
      <trkpt lat="59.106703" lon="18.126462">
        <ele>27.5</ele>
        <time>2014-10-11T12:50:20Z</time>
      </trkpt>
      <trkpt lat="59.106737" lon="18.126392">
        <ele>27.9</ele>
        <time>2014-10-11T12:50:21Z</time>
      </trkpt>
      <trkpt lat="59.106771" lon="18.126318">
        <ele>28.3</ele>
        <time>2014-10-11T12:50:22Z</time>
      </trkpt>
      <trkpt lat="59.106809" lon="18.126241">
        <ele>28.7</ele>
        <time>2014-10-11T12:50:23Z</time>
      </trkpt>
      <trkpt lat="59.106844" lon="18.126168">
        <ele>29</ele>
        <time>2014-10-11T12:50:24Z</time>
      </trkpt>
      <trkpt lat="59.106885" lon="18.126088">
        <ele>29.3</ele>
        <time>2014-10-11T12:50:25Z</time>
      </trkpt>
      <trkpt lat="59.106909" lon="18.126017">
        <ele>29.5</ele>
        <time>2014-10-11T12:50:26Z</time>
      </trkpt>
      <trkpt lat="59.106943" lon="18.125939">
        <ele>29.6</ele>
        <time>2014-10-11T12:50:27Z</time>
      </trkpt>
      <trkpt lat="59.106968" lon="18.125855">
        <ele>29.8</ele>
        <time>2014-10-11T12:50:28Z</time>
      </trkpt>
      <trkpt lat="59.107006" lon="18.125759">
        <ele>29.9</ele>
        <time>2014-10-11T12:50:29Z</time>
      </trkpt>
      <trkpt lat="59.107036" lon="18.125686">
        <ele>30</ele>
        <time>2014-10-11T12:50:30Z</time>
      </trkpt>
      <trkpt lat="59.10706" lon="18.125605">
        <ele>30</ele>
        <time>2014-10-11T12:50:31Z</time>
      </trkpt>
      <trkpt lat="59.107087" lon="18.125513">
        <ele>30</ele>
        <time>2014-10-11T12:50:32Z</time>
      </trkpt>
      <trkpt lat="59.107111" lon="18.125427">
        <ele>30.1</ele>
        <time>2014-10-11T12:50:33Z</time>
      </trkpt>
      <trkpt lat="59.107137" lon="18.125346">
        <ele>30.4</ele>
        <time>2014-10-11T12:50:34Z</time>
      </trkpt>
      <trkpt lat="59.107157" lon="18.125264">
        <ele>30.8</ele>
        <time>2014-10-11T12:50:35Z</time>
      </trkpt>
      <trkpt lat="59.107178" lon="18.125186">
        <ele>31.1</ele>
        <time>2014-10-11T12:50:36Z</time>
      </trkpt>
      <trkpt lat="59.107201" lon="18.125107">
        <ele>31.4</ele>
        <time>2014-10-11T12:50:37Z</time>
      </trkpt>
      <trkpt lat="59.107229" lon="18.125023">
        <ele>31.8</ele>
        <time>2014-10-11T12:50:38Z</time>
      </trkpt>
      <trkpt lat="59.107262" lon="18.124944">
        <ele>32.1</ele>
        <time>2014-10-11T12:50:39Z</time>
      </trkpt>
      <trkpt lat="59.107285" lon="18.124864">
        <ele>32.4</ele>
        <time>2014-10-11T12:50:40Z</time>
      </trkpt>
      <trkpt lat="59.107307" lon="18.124779">
        <ele>32.7</ele>
        <time>2014-10-11T12:50:41Z</time>
      </trkpt>
      <trkpt lat="59.107333" lon="18.124695">
        <ele>33</ele>
        <time>2014-10-11T12:50:42Z</time>
      </trkpt>
      <trkpt lat="59.107358" lon="18.12461">
        <ele>33.3</ele>
        <time>2014-10-11T12:50:43Z</time>
      </trkpt>
      <trkpt lat="59.10737" lon="18.124528">
        <ele>33.5</ele>
        <time>2014-10-11T12:50:44Z</time>
      </trkpt>
      <trkpt lat="59.107373" lon="18.124458">
        <ele>33.7</ele>
        <time>2014-10-11T12:50:45Z</time>
      </trkpt>
      <trkpt lat="59.10739" lon="18.124383">
        <ele>33.9</ele>
        <time>2014-10-11T12:50:46Z</time>
      </trkpt>
      <trkpt lat="59.10741" lon="18.124309">
        <ele>34.1</ele>
        <time>2014-10-11T12:50:47Z</time>
      </trkpt>
      <trkpt lat="59.10744" lon="18.124229">
        <ele>34.3</ele>
        <time>2014-10-11T12:50:48Z</time>
      </trkpt>
      <trkpt lat="59.107458" lon="18.124114">
        <ele>34.6</ele>
        <time>2014-10-11T12:50:49Z</time>
      </trkpt>
      <trkpt lat="59.10748" lon="18.124025">
        <ele>34.8</ele>
        <time>2014-10-11T12:50:50Z</time>
      </trkpt>
      <trkpt lat="59.107502" lon="18.123934">
        <ele>35.1</ele>
        <time>2014-10-11T12:50:51Z</time>
      </trkpt>
      <trkpt lat="59.107523" lon="18.123854">
        <ele>35.2</ele>
        <time>2014-10-11T12:50:52Z</time>
      </trkpt>
      <trkpt lat="59.107544" lon="18.123761">
        <ele>35.4</ele>
        <time>2014-10-11T12:50:53Z</time>
      </trkpt>
      <trkpt lat="59.10757" lon="18.123672">
        <ele>35.7</ele>
        <time>2014-10-11T12:50:54Z</time>
      </trkpt>
      <trkpt lat="59.107583" lon="18.123611">
        <ele>35.9</ele>
        <time>2014-10-11T12:50:55Z</time>
      </trkpt>
      <trkpt lat="59.107607" lon="18.123527">
        <ele>36.2</ele>
        <time>2014-10-11T12:50:56Z</time>
      </trkpt>
      <trkpt lat="59.107624" lon="18.12344">
        <ele>36.5</ele>
        <time>2014-10-11T12:50:57Z</time>
      </trkpt>
      <trkpt lat="59.107633" lon="18.123359">
        <ele>36.7</ele>
        <time>2014-10-11T12:50:58Z</time>
      </trkpt>
      <trkpt lat="59.10765" lon="18.123256">
        <ele>37.1</ele>
        <time>2014-10-11T12:50:59Z</time>
      </trkpt>
      <trkpt lat="59.107668" lon="18.123153">
        <ele>37.4</ele>
        <time>2014-10-11T12:51:00Z</time>
      </trkpt>
      <trkpt lat="59.10768" lon="18.123041">
        <ele>37.8</ele>
        <time>2014-10-11T12:51:01Z</time>
      </trkpt>
      <trkpt lat="59.107686" lon="18.122942">
        <ele>38.2</ele>
        <time>2014-10-11T12:51:02Z</time>
      </trkpt>
      <trkpt lat="59.107704" lon="18.122835">
        <ele>38.5</ele>
        <time>2014-10-11T12:51:03Z</time>
      </trkpt>
      <trkpt lat="59.107727" lon="18.122745">
        <ele>38.7</ele>
        <time>2014-10-11T12:51:04Z</time>
      </trkpt>
      <trkpt lat="59.107738" lon="18.122647">
        <ele>38.9</ele>
        <time>2014-10-11T12:51:05Z</time>
      </trkpt>
      <trkpt lat="59.107748" lon="18.122541">
        <ele>39.2</ele>
        <time>2014-10-11T12:51:06Z</time>
      </trkpt>
      <trkpt lat="59.10776" lon="18.122438">
        <ele>39.4</ele>
        <time>2014-10-11T12:51:07Z</time>
      </trkpt>
      <trkpt lat="59.107775" lon="18.12235">
        <ele>39.6</ele>
        <time>2014-10-11T12:51:08Z</time>
      </trkpt>
      <trkpt lat="59.107791" lon="18.122251">
        <ele>39.9</ele>
        <time>2014-10-11T12:51:09Z</time>
      </trkpt>
      <trkpt lat="59.107805" lon="18.122153">
        <ele>40.1</ele>
        <time>2014-10-11T12:51:10Z</time>
      </trkpt>
      <trkpt lat="59.10782" lon="18.122055">
        <ele>40.2</ele>
        <time>2014-10-11T12:51:11Z</time>
      </trkpt>
      <trkpt lat="59.107841" lon="18.121956">
        <ele>40.2</ele>
        <time>2014-10-11T12:51:12Z</time>
      </trkpt>
      <trkpt lat="59.107844" lon="18.121853">
        <ele>40.2</ele>
        <time>2014-10-11T12:51:13Z</time>
      </trkpt>
      <trkpt lat="59.107865" lon="18.121731">
        <ele>40.1</ele>
        <time>2014-10-11T12:51:14Z</time>
      </trkpt>
      <trkpt lat="59.107877" lon="18.121634">
        <ele>40.1</ele>
        <time>2014-10-11T12:51:15Z</time>
      </trkpt>
      <trkpt lat="59.107889" lon="18.121532">
        <ele>40.1</ele>
        <time>2014-10-11T12:51:16Z</time>
      </trkpt>
      <trkpt lat="59.107901" lon="18.121427">
        <ele>40</ele>
        <time>2014-10-11T12:51:17Z</time>
      </trkpt>
      <trkpt lat="59.107921" lon="18.121326">
        <ele>40</ele>
        <time>2014-10-11T12:51:18Z</time>
      </trkpt>
      <trkpt lat="59.107935" lon="18.121218">
        <ele>40</ele>
        <time>2014-10-11T12:51:19Z</time>
      </trkpt>
      <trkpt lat="59.107955" lon="18.121122">
        <ele>40</ele>
        <time>2014-10-11T12:51:20Z</time>
      </trkpt>
      <trkpt lat="59.107971" lon="18.12102">
        <ele>40</ele>
        <time>2014-10-11T12:51:21Z</time>
      </trkpt>
      <trkpt lat="59.10798" lon="18.12092">
        <ele>40</ele>
        <time>2014-10-11T12:51:22Z</time>
      </trkpt>
      <trkpt lat="59.107991" lon="18.120815">
        <ele>40</ele>
        <time>2014-10-11T12:51:23Z</time>
      </trkpt>
      <trkpt lat="59.108007" lon="18.120711">
        <ele>40</ele>
        <time>2014-10-11T12:51:24Z</time>
      </trkpt>
      <trkpt lat="59.108026" lon="18.120595">
        <ele>40</ele>
        <time>2014-10-11T12:51:25Z</time>
      </trkpt>
      <trkpt lat="59.10804" lon="18.12048">
        <ele>40</ele>
        <time>2014-10-11T12:51:26Z</time>
      </trkpt>
      <trkpt lat="59.10805" lon="18.120377">
        <ele>39.9</ele>
        <time>2014-10-11T12:51:27Z</time>
      </trkpt>
      <trkpt lat="59.108064" lon="18.120255">
        <ele>39.6</ele>
        <time>2014-10-11T12:51:28Z</time>
      </trkpt>
      <trkpt lat="59.10808" lon="18.120144">
        <ele>39.4</ele>
        <time>2014-10-11T12:51:29Z</time>
      </trkpt>
      <trkpt lat="59.1081" lon="18.120049">
        <ele>39.2</ele>
        <time>2014-10-11T12:51:30Z</time>
      </trkpt>
      <trkpt lat="59.108125" lon="18.119939">
        <ele>39</ele>
        <time>2014-10-11T12:51:31Z</time>
      </trkpt>
      <trkpt lat="59.108146" lon="18.119844">
        <ele>38.8</ele>
        <time>2014-10-11T12:51:32Z</time>
      </trkpt>
      <trkpt lat="59.108157" lon="18.11973">
        <ele>38.6</ele>
        <time>2014-10-11T12:51:33Z</time>
      </trkpt>
      <trkpt lat="59.108166" lon="18.119618">
        <ele>38.4</ele>
        <time>2014-10-11T12:51:34Z</time>
      </trkpt>
      <trkpt lat="59.108194" lon="18.119508">
        <ele>38.2</ele>
        <time>2014-10-11T12:51:35Z</time>
      </trkpt>
      <trkpt lat="59.108217" lon="18.119387">
        <ele>38</ele>
        <time>2014-10-11T12:51:36Z</time>
      </trkpt>
      <trkpt lat="59.108245" lon="18.119275">
        <ele>37.8</ele>
        <time>2014-10-11T12:51:37Z</time>
      </trkpt>
      <trkpt lat="59.108271" lon="18.119171">
        <ele>37.6</ele>
        <time>2014-10-11T12:51:38Z</time>
      </trkpt>
      <trkpt lat="59.108298" lon="18.119066">
        <ele>37.5</ele>
        <time>2014-10-11T12:51:39Z</time>
      </trkpt>
      <trkpt lat="59.108332" lon="18.118946">
        <ele>37.3</ele>
        <time>2014-10-11T12:51:40Z</time>
      </trkpt>
      <trkpt lat="59.10835" lon="18.118846">
        <ele>37.2</ele>
        <time>2014-10-11T12:51:41Z</time>
      </trkpt>
      <trkpt lat="59.108373" lon="18.118728">
        <ele>37.2</ele>
        <time>2014-10-11T12:51:42Z</time>
      </trkpt>
      <trkpt lat="59.108371" lon="18.118613">
        <ele>37.4</ele>
        <time>2014-10-11T12:51:43Z</time>
      </trkpt>
      <trkpt lat="59.10835" lon="18.118512">
        <ele>37.6</ele>
        <time>2014-10-11T12:51:44Z</time>
      </trkpt>
      <trkpt lat="59.108316" lon="18.118398">
        <ele>37.8</ele>
        <time>2014-10-11T12:51:45Z</time>
      </trkpt>
      <trkpt lat="59.108273" lon="18.118309">
        <ele>37.8</ele>
        <time>2014-10-11T12:51:46Z</time>
      </trkpt>
      <trkpt lat="59.108213" lon="18.11823">
        <ele>37.8</ele>
        <time>2014-10-11T12:51:47Z</time>
      </trkpt>
      <trkpt lat="59.108153" lon="18.118164">
        <ele>37.7</ele>
        <time>2014-10-11T12:51:48Z</time>
      </trkpt>
      <trkpt lat="59.108093" lon="18.1181">
        <ele>37.5</ele>
        <time>2014-10-11T12:51:49Z</time>
      </trkpt>
      <trkpt lat="59.108025" lon="18.118056">
        <ele>37.3</ele>
        <time>2014-10-11T12:51:50Z</time>
      </trkpt>
      <trkpt lat="59.107964" lon="18.117991">
        <ele>37.1</ele>
        <time>2014-10-11T12:51:51Z</time>
      </trkpt>
      <trkpt lat="59.107891" lon="18.117939">
        <ele>36.8</ele>
        <time>2014-10-11T12:51:52Z</time>
      </trkpt>
      <trkpt lat="59.107825" lon="18.117899">
        <ele>36.2</ele>
        <time>2014-10-11T12:51:53Z</time>
      </trkpt>
      <trkpt lat="59.107753" lon="18.117862">
        <ele>35.6</ele>
        <time>2014-10-11T12:51:54Z</time>
      </trkpt>
      <trkpt lat="59.107682" lon="18.11786">
        <ele>35</ele>
        <time>2014-10-11T12:51:55Z</time>
      </trkpt>
      <trkpt lat="59.10761" lon="18.117848">
        <ele>34.4</ele>
        <time>2014-10-11T12:51:56Z</time>
      </trkpt>
      <trkpt lat="59.10754" lon="18.117825">
        <ele>33.7</ele>
        <time>2014-10-11T12:51:57Z</time>
      </trkpt>
      <trkpt lat="59.107458" lon="18.1178">
        <ele>33</ele>
        <time>2014-10-11T12:51:58Z</time>
      </trkpt>
      <trkpt lat="59.107379" lon="18.117796">
        <ele>32.3</ele>
        <time>2014-10-11T12:51:59Z</time>
      </trkpt>
      <trkpt lat="59.107292" lon="18.117772">
        <ele>31.4</ele>
        <time>2014-10-11T12:52:00Z</time>
      </trkpt>
      <trkpt lat="59.107208" lon="18.117747">
        <ele>30.6</ele>
        <time>2014-10-11T12:52:01Z</time>
      </trkpt>
      <trkpt lat="59.107122" lon="18.117717">
        <ele>29.7</ele>
        <time>2014-10-11T12:52:02Z</time>
      </trkpt>
      <trkpt lat="59.107043" lon="18.117679">
        <ele>29.1</ele>
        <time>2014-10-11T12:52:03Z</time>
      </trkpt>
      <trkpt lat="59.106959" lon="18.117647">
        <ele>28.8</ele>
        <time>2014-10-11T12:52:04Z</time>
      </trkpt>
      <trkpt lat="59.106878" lon="18.117618">
        <ele>28.6</ele>
        <time>2014-10-11T12:52:05Z</time>
      </trkpt>
      <trkpt lat="59.10679" lon="18.117578">
        <ele>28.3</ele>
        <time>2014-10-11T12:52:06Z</time>
      </trkpt>
      <trkpt lat="59.106708" lon="18.117522">
        <ele>27.9</ele>
        <time>2014-10-11T12:52:07Z</time>
      </trkpt>
      <trkpt lat="59.106612" lon="18.117465">
        <ele>27.5</ele>
        <time>2014-10-11T12:52:08Z</time>
      </trkpt>
      <trkpt lat="59.106535" lon="18.117426">
        <ele>27.2</ele>
        <time>2014-10-11T12:52:09Z</time>
      </trkpt>
      <trkpt lat="59.106452" lon="18.117363">
        <ele>26.7</ele>
        <time>2014-10-11T12:52:10Z</time>
      </trkpt>
      <trkpt lat="59.106357" lon="18.117312">
        <ele>26.3</ele>
        <time>2014-10-11T12:52:11Z</time>
      </trkpt>
      <trkpt lat="59.106268" lon="18.11723">
        <ele>25.7</ele>
        <time>2014-10-11T12:52:12Z</time>
      </trkpt>
      <trkpt lat="59.106194" lon="18.117169">
        <ele>25.5</ele>
        <time>2014-10-11T12:52:13Z</time>
      </trkpt>
      <trkpt lat="59.106113" lon="18.117105">
        <ele>25.4</ele>
        <time>2014-10-11T12:52:14Z</time>
      </trkpt>
      <trkpt lat="59.106028" lon="18.11705">
        <ele>25.5</ele>
        <time>2014-10-11T12:52:15Z</time>
      </trkpt>
      <trkpt lat="59.105952" lon="18.116983">
        <ele>25.6</ele>
        <time>2014-10-11T12:52:16Z</time>
      </trkpt>
      <trkpt lat="59.105868" lon="18.116919">
        <ele>25.6</ele>
        <time>2014-10-11T12:52:17Z</time>
      </trkpt>
      <trkpt lat="59.105794" lon="18.11687">
        <ele>25.7</ele>
        <time>2014-10-11T12:52:18Z</time>
      </trkpt>
      <trkpt lat="59.10571" lon="18.11682">
        <ele>25.8</ele>
        <time>2014-10-11T12:52:19Z</time>
      </trkpt>
      <trkpt lat="59.10563" lon="18.116753">
        <ele>25.8</ele>
        <time>2014-10-11T12:52:20Z</time>
      </trkpt>
      <trkpt lat="59.105547" lon="18.116701">
        <ele>25.8</ele>
        <time>2014-10-11T12:52:21Z</time>
      </trkpt>
      <trkpt lat="59.105465" lon="18.116656">
        <ele>25.9</ele>
        <time>2014-10-11T12:52:22Z</time>
      </trkpt>
      <trkpt lat="59.105388" lon="18.11659">
        <ele>26.1</ele>
        <time>2014-10-11T12:52:23Z</time>
      </trkpt>
      <trkpt lat="59.105311" lon="18.116518">
        <ele>26.6</ele>
        <time>2014-10-11T12:52:24Z</time>
      </trkpt>
      <trkpt lat="59.10523" lon="18.116457">
        <ele>27.1</ele>
        <time>2014-10-11T12:52:25Z</time>
      </trkpt>
      <trkpt lat="59.105151" lon="18.11639">
        <ele>27.5</ele>
        <time>2014-10-11T12:52:26Z</time>
      </trkpt>
      <trkpt lat="59.105069" lon="18.116329">
        <ele>27.9</ele>
        <time>2014-10-11T12:52:27Z</time>
      </trkpt>
      <trkpt lat="59.104991" lon="18.116285">
        <ele>28.2</ele>
        <time>2014-10-11T12:52:28Z</time>
      </trkpt>
      <trkpt lat="59.104921" lon="18.116226">
        <ele>28.5</ele>
        <time>2014-10-11T12:52:29Z</time>
      </trkpt>
      <trkpt lat="59.104849" lon="18.116164">
        <ele>28.6</ele>
        <time>2014-10-11T12:52:30Z</time>
      </trkpt>
      <trkpt lat="59.104777" lon="18.116105">
        <ele>28.8</ele>
        <time>2014-10-11T12:52:31Z</time>
      </trkpt>
      <trkpt lat="59.104707" lon="18.116045">
        <ele>28.8</ele>
        <time>2014-10-11T12:52:32Z</time>
      </trkpt>
      <trkpt lat="59.104626" lon="18.115986">
        <ele>28.9</ele>
        <time>2014-10-11T12:52:33Z</time>
      </trkpt>
      <trkpt lat="59.104562" lon="18.115924">
        <ele>28.7</ele>
        <time>2014-10-11T12:52:34Z</time>
      </trkpt>
      <trkpt lat="59.104496" lon="18.115877">
        <ele>28.5</ele>
        <time>2014-10-11T12:52:35Z</time>
      </trkpt>
      <trkpt lat="59.104424" lon="18.115818">
        <ele>28.2</ele>
        <time>2014-10-11T12:52:36Z</time>
      </trkpt>
      <trkpt lat="59.104355" lon="18.115756">
        <ele>27.9</ele>
        <time>2014-10-11T12:52:37Z</time>
      </trkpt>
      <trkpt lat="59.104278" lon="18.115701">
        <ele>27.7</ele>
        <time>2014-10-11T12:52:38Z</time>
      </trkpt>
      <trkpt lat="59.104207" lon="18.115646">
        <ele>27.4</ele>
        <time>2014-10-11T12:52:39Z</time>
      </trkpt>
      <trkpt lat="59.10414" lon="18.115586">
        <ele>27.2</ele>
        <time>2014-10-11T12:52:40Z</time>
      </trkpt>
      <trkpt lat="59.104067" lon="18.115543">
        <ele>27.1</ele>
        <time>2014-10-11T12:52:41Z</time>
      </trkpt>
      <trkpt lat="59.104004" lon="18.115507">
        <ele>27</ele>
        <time>2014-10-11T12:52:42Z</time>
      </trkpt>
      <trkpt lat="59.103939" lon="18.115454">
        <ele>26.8</ele>
        <time>2014-10-11T12:52:43Z</time>
      </trkpt>
      <trkpt lat="59.103846" lon="18.115405">
        <ele>26.7</ele>
        <time>2014-10-11T12:52:44Z</time>
      </trkpt>
      <trkpt lat="59.10378" lon="18.115344">
        <ele>26.8</ele>
        <time>2014-10-11T12:52:45Z</time>
      </trkpt>
      <trkpt lat="59.103711" lon="18.115292">
        <ele>26.7</ele>
        <time>2014-10-11T12:52:46Z</time>
      </trkpt>
      <trkpt lat="59.10364" lon="18.115229">
        <ele>26.5</ele>
        <time>2014-10-11T12:52:47Z</time>
      </trkpt>
      <trkpt lat="59.103564" lon="18.11517">
        <ele>26.4</ele>
        <time>2014-10-11T12:52:48Z</time>
      </trkpt>
      <trkpt lat="59.103499" lon="18.115124">
        <ele>26.3</ele>
        <time>2014-10-11T12:52:49Z</time>
      </trkpt>
      <trkpt lat="59.103427" lon="18.11507">
        <ele>26.3</ele>
        <time>2014-10-11T12:52:50Z</time>
      </trkpt>
      <trkpt lat="59.10291" lon="18.114696">
        <ele>26.9</ele>
        <time>2014-10-11T12:52:57Z</time>
      </trkpt>
      <trkpt lat="59.10286" lon="18.114685">
        <ele>26.9</ele>
        <time>2014-10-11T12:52:58Z</time>
      </trkpt>
      <trkpt lat="59.102779" lon="18.114624">
        <ele>26.9</ele>
        <time>2014-10-11T12:52:59Z</time>
      </trkpt>
      <trkpt lat="59.102694" lon="18.114569">
        <ele>27</ele>
        <time>2014-10-11T12:53:00Z</time>
      </trkpt>
      <trkpt lat="59.102626" lon="18.114533">
        <ele>27.1</ele>
        <time>2014-10-11T12:53:01Z</time>
      </trkpt>
      <trkpt lat="59.10255" lon="18.114487">
        <ele>27.2</ele>
        <time>2014-10-11T12:53:02Z</time>
      </trkpt>
      <trkpt lat="59.102472" lon="18.11443">
        <ele>27.3</ele>
        <time>2014-10-11T12:53:03Z</time>
      </trkpt>
      <trkpt lat="59.102402" lon="18.114381">
        <ele>27.4</ele>
        <time>2014-10-11T12:53:04Z</time>
      </trkpt>
      <trkpt lat="59.102334" lon="18.11432">
        <ele>27.5</ele>
        <time>2014-10-11T12:53:05Z</time>
      </trkpt>
      <trkpt lat="59.102266" lon="18.114258">
        <ele>27.7</ele>
        <time>2014-10-11T12:53:06Z</time>
      </trkpt>
      <trkpt lat="59.102195" lon="18.11419">
        <ele>27.9</ele>
        <time>2014-10-11T12:53:07Z</time>
      </trkpt>
      <trkpt lat="59.102123" lon="18.114103">
        <ele>28.1</ele>
        <time>2014-10-11T12:53:08Z</time>
      </trkpt>
      <trkpt lat="59.102055" lon="18.114022">
        <ele>28.2</ele>
        <time>2014-10-11T12:53:09Z</time>
      </trkpt>
      <trkpt lat="59.101985" lon="18.113959">
        <ele>28.1</ele>
        <time>2014-10-11T12:53:10Z</time>
      </trkpt>
      <trkpt lat="59.101917" lon="18.113918">
        <ele>27.9</ele>
        <time>2014-10-11T12:53:11Z</time>
      </trkpt>
      <trkpt lat="59.101843" lon="18.113861">
        <ele>27.7</ele>
        <time>2014-10-11T12:53:12Z</time>
      </trkpt>
      <trkpt lat="59.101772" lon="18.11379">
        <ele>27.4</ele>
        <time>2014-10-11T12:53:13Z</time>
      </trkpt>
      <trkpt lat="59.101704" lon="18.113716">
        <ele>27.2</ele>
        <time>2014-10-11T12:53:14Z</time>
      </trkpt>
      <trkpt lat="59.101635" lon="18.113669">
        <ele>26.9</ele>
        <time>2014-10-11T12:53:15Z</time>
      </trkpt>
      <trkpt lat="59.101558" lon="18.113608">
        <ele>26.6</ele>
        <time>2014-10-11T12:53:16Z</time>
      </trkpt>
      <trkpt lat="59.101495" lon="18.11355">
        <ele>26.4</ele>
        <time>2014-10-11T12:53:17Z</time>
      </trkpt>
      <trkpt lat="59.101421" lon="18.113487">
        <ele>26.3</ele>
        <time>2014-10-11T12:53:18Z</time>
      </trkpt>
      <trkpt lat="59.101349" lon="18.113417">
        <ele>26.1</ele>
        <time>2014-10-11T12:53:19Z</time>
      </trkpt>
      <trkpt lat="59.101279" lon="18.11334">
        <ele>26.1</ele>
        <time>2014-10-11T12:53:20Z</time>
      </trkpt>
      <trkpt lat="59.101207" lon="18.113265">
        <ele>26</ele>
        <time>2014-10-11T12:53:21Z</time>
      </trkpt>
      <trkpt lat="59.101149" lon="18.113204">
        <ele>25.8</ele>
        <time>2014-10-11T12:53:22Z</time>
      </trkpt>
      <trkpt lat="59.101071" lon="18.113128">
        <ele>25.6</ele>
        <time>2014-10-11T12:53:23Z</time>
      </trkpt>
      <trkpt lat="59.101004" lon="18.113055">
        <ele>25.5</ele>
        <time>2014-10-11T12:53:24Z</time>
      </trkpt>
      <trkpt lat="59.100945" lon="18.112981">
        <ele>25.4</ele>
        <time>2014-10-11T12:53:25Z</time>
      </trkpt>
      <trkpt lat="59.100888" lon="18.112922">
        <ele>25.2</ele>
        <time>2014-10-11T12:53:26Z</time>
      </trkpt>
      <trkpt lat="59.100823" lon="18.112869">
        <ele>25</ele>
        <time>2014-10-11T12:53:27Z</time>
      </trkpt>
      <trkpt lat="59.100754" lon="18.112795">
        <ele>24.9</ele>
        <time>2014-10-11T12:53:28Z</time>
      </trkpt>
      <trkpt lat="59.100688" lon="18.11272">
        <ele>24.7</ele>
        <time>2014-10-11T12:53:29Z</time>
      </trkpt>
      <trkpt lat="59.100628" lon="18.11264">
        <ele>24.6</ele>
        <time>2014-10-11T12:53:30Z</time>
      </trkpt>
      <trkpt lat="59.100566" lon="18.112559">
        <ele>24.5</ele>
        <time>2014-10-11T12:53:31Z</time>
      </trkpt>
      <trkpt lat="59.100502" lon="18.11248">
        <ele>24.4</ele>
        <time>2014-10-11T12:53:32Z</time>
      </trkpt>
      <trkpt lat="59.100429" lon="18.112415">
        <ele>24.3</ele>
        <time>2014-10-11T12:53:33Z</time>
      </trkpt>
      <trkpt lat="59.100371" lon="18.112347">
        <ele>24.3</ele>
        <time>2014-10-11T12:53:34Z</time>
      </trkpt>
      <trkpt lat="59.1003" lon="18.112275">
        <ele>24.3</ele>
        <time>2014-10-11T12:53:35Z</time>
      </trkpt>
      <trkpt lat="59.100233" lon="18.112194">
        <ele>24.3</ele>
        <time>2014-10-11T12:53:36Z</time>
      </trkpt>
      <trkpt lat="59.100169" lon="18.112105">
        <ele>24.4</ele>
        <time>2014-10-11T12:53:37Z</time>
      </trkpt>
      <trkpt lat="59.100099" lon="18.112021">
        <ele>24.6</ele>
        <time>2014-10-11T12:53:38Z</time>
      </trkpt>
      <trkpt lat="59.10003" lon="18.111951">
        <ele>24.9</ele>
        <time>2014-10-11T12:53:39Z</time>
      </trkpt>
      <trkpt lat="59.09996" lon="18.111882">
        <ele>25.1</ele>
        <time>2014-10-11T12:53:40Z</time>
      </trkpt>
      <trkpt lat="59.099892" lon="18.111802">
        <ele>25.4</ele>
        <time>2014-10-11T12:53:41Z</time>
      </trkpt>
      <trkpt lat="59.099808" lon="18.111718">
        <ele>25.7</ele>
        <time>2014-10-11T12:53:42Z</time>
      </trkpt>
      <trkpt lat="59.099741" lon="18.111636">
        <ele>26.1</ele>
        <time>2014-10-11T12:53:43Z</time>
      </trkpt>
      <trkpt lat="59.099671" lon="18.111561">
        <ele>26.3</ele>
        <time>2014-10-11T12:53:44Z</time>
      </trkpt>
      <trkpt lat="59.099608" lon="18.111464">
        <ele>26.8</ele>
        <time>2014-10-11T12:53:45Z</time>
      </trkpt>
      <trkpt lat="59.099539" lon="18.1114">
        <ele>26.9</ele>
        <time>2014-10-11T12:53:46Z</time>
      </trkpt>
      <trkpt lat="59.099466" lon="18.111322">
        <ele>27.2</ele>
        <time>2014-10-11T12:53:47Z</time>
      </trkpt>
      <trkpt lat="59.099387" lon="18.11125">
        <ele>27.3</ele>
        <time>2014-10-11T12:53:48Z</time>
      </trkpt>
      <trkpt lat="59.099323" lon="18.111168">
        <ele>27.5</ele>
        <time>2014-10-11T12:53:49Z</time>
      </trkpt>
      <trkpt lat="59.099251" lon="18.111085">
        <ele>27.6</ele>
        <time>2014-10-11T12:53:50Z</time>
      </trkpt>
      <trkpt lat="59.099184" lon="18.111004">
        <ele>27.8</ele>
        <time>2014-10-11T12:53:51Z</time>
      </trkpt>
      <trkpt lat="59.099106" lon="18.110916">
        <ele>27.8</ele>
        <time>2014-10-11T12:53:52Z</time>
      </trkpt>
      <trkpt lat="59.099028" lon="18.110826">
        <ele>27.9</ele>
        <time>2014-10-11T12:53:53Z</time>
      </trkpt>
      <trkpt lat="59.098963" lon="18.110748">
        <ele>27.9</ele>
        <time>2014-10-11T12:53:54Z</time>
      </trkpt>
      <trkpt lat="59.098895" lon="18.110658">
        <ele>27.9</ele>
        <time>2014-10-11T12:53:55Z</time>
      </trkpt>
      <trkpt lat="59.098824" lon="18.110559">
        <ele>27.9</ele>
        <time>2014-10-11T12:53:56Z</time>
      </trkpt>
      <trkpt lat="59.098747" lon="18.110459">
        <ele>27.8</ele>
        <time>2014-10-11T12:53:57Z</time>
      </trkpt>
      <trkpt lat="59.098684" lon="18.110357">
        <ele>27.9</ele>
        <time>2014-10-11T12:53:58Z</time>
      </trkpt>
      <trkpt lat="59.098621" lon="18.110261">
        <ele>28</ele>
        <time>2014-10-11T12:53:59Z</time>
      </trkpt>
      <trkpt lat="59.098548" lon="18.110166">
        <ele>28</ele>
        <time>2014-10-11T12:54:00Z</time>
      </trkpt>
      <trkpt lat="59.098479" lon="18.11007">
        <ele>28.1</ele>
        <time>2014-10-11T12:54:01Z</time>
      </trkpt>
      <trkpt lat="59.098421" lon="18.109982">
        <ele>28.2</ele>
        <time>2014-10-11T12:54:02Z</time>
      </trkpt>
      <trkpt lat="59.098354" lon="18.109888">
        <ele>28.2</ele>
        <time>2014-10-11T12:54:03Z</time>
      </trkpt>
      <trkpt lat="59.098293" lon="18.109794">
        <ele>28.2</ele>
        <time>2014-10-11T12:54:04Z</time>
      </trkpt>
      <trkpt lat="59.098229" lon="18.109699">
        <ele>28.3</ele>
        <time>2014-10-11T12:54:05Z</time>
      </trkpt>
      <trkpt lat="59.098179" lon="18.109603">
        <ele>28.4</ele>
        <time>2014-10-11T12:54:06Z</time>
      </trkpt>
      <trkpt lat="59.098123" lon="18.109503">
        <ele>28.4</ele>
        <time>2014-10-11T12:54:07Z</time>
      </trkpt>
      <trkpt lat="59.098068" lon="18.109408">
        <ele>28.4</ele>
        <time>2014-10-11T12:54:08Z</time>
      </trkpt>
      <trkpt lat="59.098013" lon="18.109315">
        <ele>28.3</ele>
        <time>2014-10-11T12:54:09Z</time>
      </trkpt>
      <trkpt lat="59.09796" lon="18.109232">
        <ele>28.1</ele>
        <time>2014-10-11T12:54:10Z</time>
      </trkpt>
      <trkpt lat="59.097917" lon="18.109161">
        <ele>28</ele>
        <time>2014-10-11T12:54:11Z</time>
      </trkpt>
      <trkpt lat="59.097862" lon="18.109078">
        <ele>28</ele>
        <time>2014-10-11T12:54:12Z</time>
      </trkpt>
      <trkpt lat="59.097823" lon="18.109004">
        <ele>28.1</ele>
        <time>2014-10-11T12:54:13Z</time>
      </trkpt>
      <trkpt lat="59.097782" lon="18.108927">
        <ele>28.1</ele>
        <time>2014-10-11T12:54:14Z</time>
      </trkpt>
      <trkpt lat="59.097746" lon="18.108837">
        <ele>28.2</ele>
        <time>2014-10-11T12:54:15Z</time>
      </trkpt>
      <trkpt lat="59.097704" lon="18.10875">
        <ele>28.2</ele>
        <time>2014-10-11T12:54:16Z</time>
      </trkpt>
      <trkpt lat="59.097667" lon="18.10867">
        <ele>28.4</ele>
        <time>2014-10-11T12:54:17Z</time>
      </trkpt>
      <trkpt lat="59.097632" lon="18.108598">
        <ele>28.5</ele>
        <time>2014-10-11T12:54:18Z</time>
      </trkpt>
      <trkpt lat="59.097601" lon="18.108531">
        <ele>28.7</ele>
        <time>2014-10-11T12:54:19Z</time>
      </trkpt>
      <trkpt lat="59.097561" lon="18.108457">
        <ele>28.8</ele>
        <time>2014-10-11T12:54:20Z</time>
      </trkpt>
      <trkpt lat="59.097527" lon="18.108382">
        <ele>28.9</ele>
        <time>2014-10-11T12:54:21Z</time>
      </trkpt>
      <trkpt lat="59.097496" lon="18.108305">
        <ele>29.1</ele>
        <time>2014-10-11T12:54:22Z</time>
      </trkpt>
      <trkpt lat="59.097463" lon="18.108232">
        <ele>29.3</ele>
        <time>2014-10-11T12:54:23Z</time>
      </trkpt>
      <trkpt lat="59.097427" lon="18.108155">
        <ele>29.5</ele>
        <time>2014-10-11T12:54:24Z</time>
      </trkpt>
      <trkpt lat="59.0974" lon="18.108088">
        <ele>29.6</ele>
        <time>2014-10-11T12:54:25Z</time>
      </trkpt>
      <trkpt lat="59.097375" lon="18.108005">
        <ele>29.9</ele>
        <time>2014-10-11T12:54:26Z</time>
      </trkpt>
      <trkpt lat="59.097348" lon="18.107935">
        <ele>30.1</ele>
        <time>2014-10-11T12:54:27Z</time>
      </trkpt>
      <trkpt lat="59.097309" lon="18.107846">
        <ele>30.2</ele>
        <time>2014-10-11T12:54:28Z</time>
      </trkpt>
      <trkpt lat="59.097271" lon="18.107783">
        <ele>30.2</ele>
        <time>2014-10-11T12:54:29Z</time>
      </trkpt>
      <trkpt lat="59.097237" lon="18.107695">
        <ele>30.4</ele>
        <time>2014-10-11T12:54:30Z</time>
      </trkpt>
      <trkpt lat="59.097207" lon="18.107618">
        <ele>30.5</ele>
        <time>2014-10-11T12:54:31Z</time>
      </trkpt>
      <trkpt lat="59.097173" lon="18.107533">
        <ele>30.6</ele>
        <time>2014-10-11T12:54:32Z</time>
      </trkpt>
      <trkpt lat="59.097148" lon="18.107459">
        <ele>30.7</ele>
        <time>2014-10-11T12:54:33Z</time>
      </trkpt>
      <trkpt lat="59.097116" lon="18.107383">
        <ele>30.8</ele>
        <time>2014-10-11T12:54:34Z</time>
      </trkpt>
      <trkpt lat="59.097086" lon="18.107306">
        <ele>31</ele>
        <time>2014-10-11T12:54:35Z</time>
      </trkpt>
      <trkpt lat="59.097051" lon="18.107219">
        <ele>31.1</ele>
        <time>2014-10-11T12:54:36Z</time>
      </trkpt>
      <trkpt lat="59.09702" lon="18.107142">
        <ele>31.2</ele>
        <time>2014-10-11T12:54:37Z</time>
      </trkpt>
      <trkpt lat="59.096986" lon="18.107052">
        <ele>31.3</ele>
        <time>2014-10-11T12:54:38Z</time>
      </trkpt>
      <trkpt lat="59.096951" lon="18.106963">
        <ele>31.4</ele>
        <time>2014-10-11T12:54:39Z</time>
      </trkpt>
      <trkpt lat="59.096915" lon="18.10687">
        <ele>31.6</ele>
        <time>2014-10-11T12:54:40Z</time>
      </trkpt>
      <trkpt lat="59.096878" lon="18.106787">
        <ele>31.6</ele>
        <time>2014-10-11T12:54:41Z</time>
      </trkpt>
      <trkpt lat="59.096849" lon="18.106706">
        <ele>31.7</ele>
        <time>2014-10-11T12:54:42Z</time>
      </trkpt>
      <trkpt lat="59.096807" lon="18.106632">
        <ele>31.7</ele>
        <time>2014-10-11T12:54:43Z</time>
      </trkpt>
      <trkpt lat="59.096777" lon="18.106558">
        <ele>31.7</ele>
        <time>2014-10-11T12:54:44Z</time>
      </trkpt>
      <trkpt lat="59.096739" lon="18.10647">
        <ele>31.7</ele>
        <time>2014-10-11T12:54:45Z</time>
      </trkpt>
      <trkpt lat="59.096715" lon="18.106392">
        <ele>31.9</ele>
        <time>2014-10-11T12:54:46Z</time>
      </trkpt>
      <trkpt lat="59.096678" lon="18.106307">
        <ele>31.9</ele>
        <time>2014-10-11T12:54:47Z</time>
      </trkpt>
      <trkpt lat="59.09664" lon="18.106249">
        <ele>31.7</ele>
        <time>2014-10-11T12:54:48Z</time>
      </trkpt>
      <trkpt lat="59.096613" lon="18.10617">
        <ele>31.8</ele>
        <time>2014-10-11T12:54:49Z</time>
      </trkpt>
      <trkpt lat="59.096575" lon="18.106085">
        <ele>31.8</ele>
        <time>2014-10-11T12:54:50Z</time>
      </trkpt>
      <trkpt lat="59.096539" lon="18.106003">
        <ele>31.8</ele>
        <time>2014-10-11T12:54:51Z</time>
      </trkpt>
      <trkpt lat="59.096493" lon="18.105906">
        <ele>31.7</ele>
        <time>2014-10-11T12:54:52Z</time>
      </trkpt>
      <trkpt lat="59.096462" lon="18.105827">
        <ele>31.7</ele>
        <time>2014-10-11T12:54:53Z</time>
      </trkpt>
      <trkpt lat="59.09643" lon="18.105743">
        <ele>31.7</ele>
        <time>2014-10-11T12:54:54Z</time>
      </trkpt>
      <trkpt lat="59.096396" lon="18.105648">
        <ele>31.7</ele>
        <time>2014-10-11T12:54:55Z</time>
      </trkpt>
      <trkpt lat="59.096354" lon="18.105569">
        <ele>31.6</ele>
        <time>2014-10-11T12:54:56Z</time>
      </trkpt>
      <trkpt lat="59.096316" lon="18.105498">
        <ele>31.4</ele>
        <time>2014-10-11T12:54:57Z</time>
      </trkpt>
      <trkpt lat="59.096284" lon="18.105402">
        <ele>31.4</ele>
        <time>2014-10-11T12:54:58Z</time>
      </trkpt>
      <trkpt lat="59.096252" lon="18.105314">
        <ele>31.4</ele>
        <time>2014-10-11T12:54:59Z</time>
      </trkpt>
      <trkpt lat="59.096224" lon="18.105228">
        <ele>31.6</ele>
        <time>2014-10-11T12:55:00Z</time>
      </trkpt>
      <trkpt lat="59.096191" lon="18.105145">
        <ele>31.7</ele>
        <time>2014-10-11T12:55:01Z</time>
      </trkpt>
      <trkpt lat="59.096157" lon="18.105071">
        <ele>31.8</ele>
        <time>2014-10-11T12:55:02Z</time>
      </trkpt>
      <trkpt lat="59.09613" lon="18.105009">
        <ele>31.9</ele>
        <time>2014-10-11T12:55:03Z</time>
      </trkpt>
      <trkpt lat="59.096099" lon="18.104922">
        <ele>32</ele>
        <time>2014-10-11T12:55:04Z</time>
      </trkpt>
      <trkpt lat="59.096064" lon="18.104832">
        <ele>32.1</ele>
        <time>2014-10-11T12:55:05Z</time>
      </trkpt>
      <trkpt lat="59.096029" lon="18.104742">
        <ele>32.2</ele>
        <time>2014-10-11T12:55:06Z</time>
      </trkpt>
      <trkpt lat="59.095992" lon="18.104659">
        <ele>32.2</ele>
        <time>2014-10-11T12:55:07Z</time>
      </trkpt>
      <trkpt lat="59.095957" lon="18.104578">
        <ele>32.3</ele>
        <time>2014-10-11T12:55:08Z</time>
      </trkpt>
      <trkpt lat="59.095931" lon="18.104504">
        <ele>32.2</ele>
        <time>2014-10-11T12:55:09Z</time>
      </trkpt>
      <trkpt lat="59.095885" lon="18.104413">
        <ele>32.1</ele>
        <time>2014-10-11T12:55:10Z</time>
      </trkpt>
      <trkpt lat="59.095841" lon="18.104339">
        <ele>32</ele>
        <time>2014-10-11T12:55:11Z</time>
      </trkpt>
      <trkpt lat="59.095795" lon="18.104251">
        <ele>31.8</ele>
        <time>2014-10-11T12:55:12Z</time>
      </trkpt>
      <trkpt lat="59.095747" lon="18.104135">
        <ele>31.7</ele>
        <time>2014-10-11T12:55:13Z</time>
      </trkpt>
      <trkpt lat="59.095716" lon="18.104054">
        <ele>31.7</ele>
        <time>2014-10-11T12:55:14Z</time>
      </trkpt>
      <trkpt lat="59.095682" lon="18.103961">
        <ele>31.6</ele>
        <time>2014-10-11T12:55:15Z</time>
      </trkpt>
      <trkpt lat="59.09565" lon="18.103874">
        <ele>31.5</ele>
        <time>2014-10-11T12:55:16Z</time>
      </trkpt>
      <trkpt lat="59.09561" lon="18.103779">
        <ele>31.3</ele>
        <time>2014-10-11T12:55:17Z</time>
      </trkpt>
      <trkpt lat="59.095572" lon="18.103655">
        <ele>31.3</ele>
        <time>2014-10-11T12:55:18Z</time>
      </trkpt>
      <trkpt lat="59.095526" lon="18.103543">
        <ele>31.3</ele>
        <time>2014-10-11T12:55:19Z</time>
      </trkpt>
      <trkpt lat="59.095484" lon="18.103437">
        <ele>31.2</ele>
        <time>2014-10-11T12:55:20Z</time>
      </trkpt>
      <trkpt lat="59.095452" lon="18.103344">
        <ele>31.2</ele>
        <time>2014-10-11T12:55:21Z</time>
      </trkpt>
      <trkpt lat="59.095409" lon="18.103252">
        <ele>31.2</ele>
        <time>2014-10-11T12:55:22Z</time>
      </trkpt>
      <trkpt lat="59.095364" lon="18.10315">
        <ele>31.3</ele>
        <time>2014-10-11T12:55:23Z</time>
      </trkpt>
      <trkpt lat="59.095315" lon="18.103052">
        <ele>31.3</ele>
        <time>2014-10-11T12:55:24Z</time>
      </trkpt>
      <trkpt lat="59.095266" lon="18.102952">
        <ele>31.4</ele>
        <time>2014-10-11T12:55:25Z</time>
      </trkpt>
      <trkpt lat="59.095223" lon="18.102837">
        <ele>31.4</ele>
        <time>2014-10-11T12:55:26Z</time>
      </trkpt>
      <trkpt lat="59.09517" lon="18.102718">
        <ele>31.3</ele>
        <time>2014-10-11T12:55:27Z</time>
      </trkpt>
      <trkpt lat="59.095128" lon="18.102613">
        <ele>31.2</ele>
        <time>2014-10-11T12:55:28Z</time>
      </trkpt>
      <trkpt lat="59.095086" lon="18.102507">
        <ele>31.1</ele>
        <time>2014-10-11T12:55:29Z</time>
      </trkpt>
      <trkpt lat="59.09505" lon="18.102393">
        <ele>31</ele>
        <time>2014-10-11T12:55:30Z</time>
      </trkpt>
      <trkpt lat="59.095016" lon="18.102306">
        <ele>30.9</ele>
        <time>2014-10-11T12:55:31Z</time>
      </trkpt>
      <trkpt lat="59.094967" lon="18.10219">
        <ele>30.8</ele>
        <time>2014-10-11T12:55:32Z</time>
      </trkpt>
      <trkpt lat="59.094909" lon="18.102105">
        <ele>30.6</ele>
        <time>2014-10-11T12:55:33Z</time>
      </trkpt>
      <trkpt lat="59.094874" lon="18.101995">
        <ele>30.6</ele>
        <time>2014-10-11T12:55:34Z</time>
      </trkpt>
      <trkpt lat="59.094831" lon="18.101881">
        <ele>30.7</ele>
        <time>2014-10-11T12:55:35Z</time>
      </trkpt>
      <trkpt lat="59.094775" lon="18.101766">
        <ele>30.8</ele>
        <time>2014-10-11T12:55:36Z</time>
      </trkpt>
      <trkpt lat="59.094732" lon="18.101647">
        <ele>30.9</ele>
        <time>2014-10-11T12:55:37Z</time>
      </trkpt>
      <trkpt lat="59.094693" lon="18.101539">
        <ele>30.9</ele>
        <time>2014-10-11T12:55:38Z</time>
      </trkpt>
      <trkpt lat="59.094659" lon="18.101448">
        <ele>31</ele>
        <time>2014-10-11T12:55:39Z</time>
      </trkpt>
      <trkpt lat="59.094621" lon="18.101317">
        <ele>31.1</ele>
        <time>2014-10-11T12:55:40Z</time>
      </trkpt>
      <trkpt lat="59.094584" lon="18.101205">
        <ele>31.1</ele>
        <time>2014-10-11T12:55:41Z</time>
      </trkpt>
      <trkpt lat="59.094544" lon="18.101081">
        <ele>31.4</ele>
        <time>2014-10-11T12:55:42Z</time>
      </trkpt>
      <trkpt lat="59.094519" lon="18.100961">
        <ele>31.6</ele>
        <time>2014-10-11T12:55:43Z</time>
      </trkpt>
      <trkpt lat="59.09449" lon="18.100829">
        <ele>31.8</ele>
        <time>2014-10-11T12:55:44Z</time>
      </trkpt>
      <trkpt lat="59.094459" lon="18.100698">
        <ele>31.9</ele>
        <time>2014-10-11T12:55:45Z</time>
      </trkpt>
      <trkpt lat="59.094436" lon="18.100581">
        <ele>32</ele>
        <time>2014-10-11T12:55:46Z</time>
      </trkpt>
      <trkpt lat="59.094415" lon="18.100464">
        <ele>32.1</ele>
        <time>2014-10-11T12:55:47Z</time>
      </trkpt>
      <trkpt lat="59.094393" lon="18.100332">
        <ele>32.3</ele>
        <time>2014-10-11T12:55:48Z</time>
      </trkpt>
      <trkpt lat="59.094377" lon="18.100194">
        <ele>32.5</ele>
        <time>2014-10-11T12:55:49Z</time>
      </trkpt>
      <trkpt lat="59.094365" lon="18.100076">
        <ele>32.7</ele>
        <time>2014-10-11T12:55:50Z</time>
      </trkpt>
      <trkpt lat="59.094348" lon="18.099954">
        <ele>32.8</ele>
        <time>2014-10-11T12:55:51Z</time>
      </trkpt>
      <trkpt lat="59.094336" lon="18.099844">
        <ele>33</ele>
        <time>2014-10-11T12:55:52Z</time>
      </trkpt>
      <trkpt lat="59.094317" lon="18.099709">
        <ele>33.1</ele>
        <time>2014-10-11T12:55:53Z</time>
      </trkpt>
      <trkpt lat="59.094294" lon="18.099613">
        <ele>33.2</ele>
        <time>2014-10-11T12:55:54Z</time>
      </trkpt>
      <trkpt lat="59.094271" lon="18.099486">
        <ele>33.3</ele>
        <time>2014-10-11T12:55:55Z</time>
      </trkpt>
      <trkpt lat="59.094257" lon="18.099379">
        <ele>33.3</ele>
        <time>2014-10-11T12:55:56Z</time>
      </trkpt>
      <trkpt lat="59.094246" lon="18.099262">
        <ele>33.4</ele>
        <time>2014-10-11T12:55:57Z</time>
      </trkpt>
      <trkpt lat="59.094228" lon="18.099142">
        <ele>33.5</ele>
        <time>2014-10-11T12:55:58Z</time>
      </trkpt>
      <trkpt lat="59.094201" lon="18.099019">
        <ele>33.4</ele>
        <time>2014-10-11T12:55:59Z</time>
      </trkpt>
      <trkpt lat="59.094181" lon="18.098898">
        <ele>33.4</ele>
        <time>2014-10-11T12:56:00Z</time>
      </trkpt>
      <trkpt lat="59.094161" lon="18.098774">
        <ele>33.4</ele>
        <time>2014-10-11T12:56:01Z</time>
      </trkpt>
      <trkpt lat="59.094139" lon="18.098686">
        <ele>33.3</ele>
        <time>2014-10-11T12:56:02Z</time>
      </trkpt>
      <trkpt lat="59.094122" lon="18.098581">
        <ele>33.1</ele>
        <time>2014-10-11T12:56:03Z</time>
      </trkpt>
      <trkpt lat="59.094105" lon="18.098472">
        <ele>33</ele>
        <time>2014-10-11T12:56:04Z</time>
      </trkpt>
      <trkpt lat="59.094086" lon="18.098357">
        <ele>32.8</ele>
        <time>2014-10-11T12:56:05Z</time>
      </trkpt>
      <trkpt lat="59.094071" lon="18.098241">
        <ele>32.7</ele>
        <time>2014-10-11T12:56:06Z</time>
      </trkpt>
      <trkpt lat="59.094056" lon="18.098128">
        <ele>32.6</ele>
        <time>2014-10-11T12:56:07Z</time>
      </trkpt>
      <trkpt lat="59.094042" lon="18.098014">
        <ele>32.5</ele>
        <time>2014-10-11T12:56:08Z</time>
      </trkpt>
      <trkpt lat="59.09404" lon="18.097889">
        <ele>32.4</ele>
        <time>2014-10-11T12:56:09Z</time>
      </trkpt>
      <trkpt lat="59.094039" lon="18.097781">
        <ele>32.4</ele>
        <time>2014-10-11T12:56:10Z</time>
      </trkpt>
      <trkpt lat="59.094038" lon="18.097664">
        <ele>32.4</ele>
        <time>2014-10-11T12:56:11Z</time>
      </trkpt>
      <trkpt lat="59.094043" lon="18.097542">
        <ele>32.5</ele>
        <time>2014-10-11T12:56:12Z</time>
      </trkpt>
      <trkpt lat="59.094052" lon="18.097434">
        <ele>32.5</ele>
        <time>2014-10-11T12:56:13Z</time>
      </trkpt>
      <trkpt lat="59.094065" lon="18.097299">
        <ele>32.6</ele>
        <time>2014-10-11T12:56:14Z</time>
      </trkpt>
      <trkpt lat="59.094079" lon="18.097196">
        <ele>32.8</ele>
        <time>2014-10-11T12:56:15Z</time>
      </trkpt>
      <trkpt lat="59.094095" lon="18.09708">
        <ele>32.9</ele>
        <time>2014-10-11T12:56:16Z</time>
      </trkpt>
      <trkpt lat="59.094108" lon="18.096952">
        <ele>32.9</ele>
        <time>2014-10-11T12:56:17Z</time>
      </trkpt>
      <trkpt lat="59.094119" lon="18.096845">
        <ele>32.9</ele>
        <time>2014-10-11T12:56:18Z</time>
      </trkpt>
      <trkpt lat="59.094128" lon="18.096722">
        <ele>32.8</ele>
        <time>2014-10-11T12:56:19Z</time>
      </trkpt>
      <trkpt lat="59.094137" lon="18.096598">
        <ele>32.8</ele>
        <time>2014-10-11T12:56:20Z</time>
      </trkpt>
      <trkpt lat="59.094141" lon="18.096476">
        <ele>32.6</ele>
        <time>2014-10-11T12:56:21Z</time>
      </trkpt>
      <trkpt lat="59.094149" lon="18.096354">
        <ele>32.6</ele>
        <time>2014-10-11T12:56:22Z</time>
      </trkpt>
      <trkpt lat="59.094156" lon="18.096234">
        <ele>32.4</ele>
        <time>2014-10-11T12:56:23Z</time>
      </trkpt>
      <trkpt lat="59.094172" lon="18.096105">
        <ele>32.3</ele>
        <time>2014-10-11T12:56:24Z</time>
      </trkpt>
      <trkpt lat="59.094182" lon="18.095978">
        <ele>32.2</ele>
        <time>2014-10-11T12:56:25Z</time>
      </trkpt>
      <trkpt lat="59.094197" lon="18.095852">
        <ele>32.1</ele>
        <time>2014-10-11T12:56:26Z</time>
      </trkpt>
      <trkpt lat="59.094203" lon="18.095735">
        <ele>31.9</ele>
        <time>2014-10-11T12:56:27Z</time>
      </trkpt>
      <trkpt lat="59.094218" lon="18.095597">
        <ele>31.7</ele>
        <time>2014-10-11T12:56:28Z</time>
      </trkpt>
      <trkpt lat="59.094221" lon="18.095471">
        <ele>31.5</ele>
        <time>2014-10-11T12:56:29Z</time>
      </trkpt>
      <trkpt lat="59.094234" lon="18.095344">
        <ele>31.5</ele>
        <time>2014-10-11T12:56:30Z</time>
      </trkpt>
      <trkpt lat="59.094246" lon="18.095218">
        <ele>31.7</ele>
        <time>2014-10-11T12:56:31Z</time>
      </trkpt>
      <trkpt lat="59.094255" lon="18.095086">
        <ele>31.9</ele>
        <time>2014-10-11T12:56:32Z</time>
      </trkpt>
      <trkpt lat="59.094271" lon="18.094942">
        <ele>32.2</ele>
        <time>2014-10-11T12:56:33Z</time>
      </trkpt>
      <trkpt lat="59.094282" lon="18.094818">
        <ele>32.3</ele>
        <time>2014-10-11T12:56:34Z</time>
      </trkpt>
      <trkpt lat="59.094298" lon="18.094675">
        <ele>32.5</ele>
        <time>2014-10-11T12:56:35Z</time>
      </trkpt>
      <trkpt lat="59.094315" lon="18.09454">
        <ele>32.7</ele>
        <time>2014-10-11T12:56:36Z</time>
      </trkpt>
      <trkpt lat="59.094327" lon="18.094396">
        <ele>32.8</ele>
        <time>2014-10-11T12:56:37Z</time>
      </trkpt>
      <trkpt lat="59.094341" lon="18.094261">
        <ele>33</ele>
        <time>2014-10-11T12:56:38Z</time>
      </trkpt>
      <trkpt lat="59.094354" lon="18.09412">
        <ele>33.1</ele>
        <time>2014-10-11T12:56:39Z</time>
      </trkpt>
      <trkpt lat="59.094363" lon="18.094005">
        <ele>33.2</ele>
        <time>2014-10-11T12:56:40Z</time>
      </trkpt>
      <trkpt lat="59.094377" lon="18.093859">
        <ele>33.4</ele>
        <time>2014-10-11T12:56:41Z</time>
      </trkpt>
      <trkpt lat="59.094391" lon="18.093719">
        <ele>33.4</ele>
        <time>2014-10-11T12:56:42Z</time>
      </trkpt>
      <trkpt lat="59.094395" lon="18.093577">
        <ele>33</ele>
        <time>2014-10-11T12:56:43Z</time>
      </trkpt>
      <trkpt lat="59.094398" lon="18.093451">
        <ele>32.6</ele>
        <time>2014-10-11T12:56:44Z</time>
      </trkpt>
      <trkpt lat="59.094398" lon="18.093317">
        <ele>32.3</ele>
        <time>2014-10-11T12:56:45Z</time>
      </trkpt>
      <trkpt lat="59.094394" lon="18.093173">
        <ele>31.9</ele>
        <time>2014-10-11T12:56:46Z</time>
      </trkpt>
      <trkpt lat="59.094383" lon="18.093039">
        <ele>31.6</ele>
        <time>2014-10-11T12:56:47Z</time>
      </trkpt>
      <trkpt lat="59.094376" lon="18.092887">
        <ele>31.2</ele>
        <time>2014-10-11T12:56:48Z</time>
      </trkpt>
      <trkpt lat="59.094364" lon="18.092737">
        <ele>31</ele>
        <time>2014-10-11T12:56:49Z</time>
      </trkpt>
      <trkpt lat="59.094335" lon="18.092604">
        <ele>30.8</ele>
        <time>2014-10-11T12:56:50Z</time>
      </trkpt>
      <trkpt lat="59.094307" lon="18.092471">
        <ele>30.6</ele>
        <time>2014-10-11T12:56:51Z</time>
      </trkpt>
      <trkpt lat="59.094287" lon="18.092337">
        <ele>30.4</ele>
        <time>2014-10-11T12:56:52Z</time>
      </trkpt>
      <trkpt lat="59.094269" lon="18.092211">
        <ele>30.2</ele>
        <time>2014-10-11T12:56:53Z</time>
      </trkpt>
      <trkpt lat="59.094252" lon="18.092071">
        <ele>30</ele>
        <time>2014-10-11T12:56:54Z</time>
      </trkpt>
      <trkpt lat="59.094221" lon="18.091959">
        <ele>30.1</ele>
        <time>2014-10-11T12:56:55Z</time>
      </trkpt>
      <trkpt lat="59.094195" lon="18.091817">
        <ele>30.3</ele>
        <time>2014-10-11T12:56:56Z</time>
      </trkpt>
      <trkpt lat="59.094164" lon="18.091711">
        <ele>30.4</ele>
        <time>2014-10-11T12:56:57Z</time>
      </trkpt>
      <trkpt lat="59.094134" lon="18.09159">
        <ele>30.6</ele>
        <time>2014-10-11T12:56:58Z</time>
      </trkpt>
      <trkpt lat="59.094111" lon="18.091468">
        <ele>30.7</ele>
        <time>2014-10-11T12:56:59Z</time>
      </trkpt>
      <trkpt lat="59.094083" lon="18.091349">
        <ele>30.9</ele>
        <time>2014-10-11T12:57:00Z</time>
      </trkpt>
      <trkpt lat="59.094054" lon="18.091238">
        <ele>31</ele>
        <time>2014-10-11T12:57:01Z</time>
      </trkpt>
      <trkpt lat="59.094026" lon="18.091118">
        <ele>31</ele>
        <time>2014-10-11T12:57:02Z</time>
      </trkpt>
      <trkpt lat="59.094019" lon="18.091003">
        <ele>31</ele>
        <time>2014-10-11T12:57:03Z</time>
      </trkpt>
      <trkpt lat="59.094017" lon="18.090867">
        <ele>31</ele>
        <time>2014-10-11T12:57:04Z</time>
      </trkpt>
      <trkpt lat="59.094011" lon="18.090729">
        <ele>31</ele>
        <time>2014-10-11T12:57:05Z</time>
      </trkpt>
      <trkpt lat="59.094013" lon="18.090581">
        <ele>31</ele>
        <time>2014-10-11T12:57:06Z</time>
      </trkpt>
      <trkpt lat="59.094019" lon="18.090441">
        <ele>31</ele>
        <time>2014-10-11T12:57:07Z</time>
      </trkpt>
      <trkpt lat="59.09403" lon="18.090302">
        <ele>31.2</ele>
        <time>2014-10-11T12:57:08Z</time>
      </trkpt>
      <trkpt lat="59.094047" lon="18.090158">
        <ele>31.5</ele>
        <time>2014-10-11T12:57:09Z</time>
      </trkpt>
      <trkpt lat="59.094061" lon="18.090034">
        <ele>31.8</ele>
        <time>2014-10-11T12:57:10Z</time>
      </trkpt>
      <trkpt lat="59.094085" lon="18.089928">
        <ele>32.1</ele>
        <time>2014-10-11T12:57:11Z</time>
      </trkpt>
      <trkpt lat="59.094101" lon="18.089788">
        <ele>32.4</ele>
        <time>2014-10-11T12:57:12Z</time>
      </trkpt>
      <trkpt lat="59.094124" lon="18.089661">
        <ele>32.7</ele>
        <time>2014-10-11T12:57:13Z</time>
      </trkpt>
      <trkpt lat="59.094153" lon="18.08955">
        <ele>33</ele>
        <time>2014-10-11T12:57:14Z</time>
      </trkpt>
      <trkpt lat="59.094185" lon="18.089446">
        <ele>33.3</ele>
        <time>2014-10-11T12:57:15Z</time>
      </trkpt>
      <trkpt lat="59.094217" lon="18.089315">
        <ele>33.6</ele>
        <time>2014-10-11T12:57:16Z</time>
      </trkpt>
      <trkpt lat="59.094252" lon="18.089229">
        <ele>33.9</ele>
        <time>2014-10-11T12:57:17Z</time>
      </trkpt>
      <trkpt lat="59.094281" lon="18.089132">
        <ele>34.2</ele>
        <time>2014-10-11T12:57:18Z</time>
      </trkpt>
      <trkpt lat="59.094317" lon="18.089025">
        <ele>34.5</ele>
        <time>2014-10-11T12:57:19Z</time>
      </trkpt>
      <trkpt lat="59.094365" lon="18.088931">
        <ele>34.8</ele>
        <time>2014-10-11T12:57:20Z</time>
      </trkpt>
      <trkpt lat="59.094407" lon="18.088824">
        <ele>35.2</ele>
        <time>2014-10-11T12:57:21Z</time>
      </trkpt>
      <trkpt lat="59.094437" lon="18.088719">
        <ele>35.5</ele>
        <time>2014-10-11T12:57:22Z</time>
      </trkpt>
      <trkpt lat="59.094473" lon="18.088604">
        <ele>35.6</ele>
        <time>2014-10-11T12:57:23Z</time>
      </trkpt>
      <trkpt lat="59.094507" lon="18.088496">
        <ele>35.8</ele>
        <time>2014-10-11T12:57:24Z</time>
      </trkpt>
      <trkpt lat="59.094519" lon="18.08834">
        <ele>35.8</ele>
        <time>2014-10-11T12:57:25Z</time>
      </trkpt>
      <trkpt lat="59.094537" lon="18.088201">
        <ele>35.9</ele>
        <time>2014-10-11T12:57:26Z</time>
      </trkpt>
      <trkpt lat="59.094546" lon="18.088056">
        <ele>35.9</ele>
        <time>2014-10-11T12:57:27Z</time>
      </trkpt>
      <trkpt lat="59.094552" lon="18.087913">
        <ele>36</ele>
        <time>2014-10-11T12:57:28Z</time>
      </trkpt>
      <trkpt lat="59.094564" lon="18.087758">
        <ele>36</ele>
        <time>2014-10-11T12:57:29Z</time>
      </trkpt>
      <trkpt lat="59.094566" lon="18.087626">
        <ele>36</ele>
        <time>2014-10-11T12:57:30Z</time>
      </trkpt>
      <trkpt lat="59.09455" lon="18.08748">
        <ele>36</ele>
        <time>2014-10-11T12:57:31Z</time>
      </trkpt>
      <trkpt lat="59.094546" lon="18.087313">
        <ele>36</ele>
        <time>2014-10-11T12:57:32Z</time>
      </trkpt>
      <trkpt lat="59.094535" lon="18.087185">
        <ele>36</ele>
        <time>2014-10-11T12:57:33Z</time>
      </trkpt>
      <trkpt lat="59.094538" lon="18.087041">
        <ele>36.1</ele>
        <time>2014-10-11T12:57:34Z</time>
      </trkpt>
      <trkpt lat="59.09454" lon="18.086903">
        <ele>36.3</ele>
        <time>2014-10-11T12:57:35Z</time>
      </trkpt>
      <trkpt lat="59.094545" lon="18.086765">
        <ele>36.4</ele>
        <time>2014-10-11T12:57:36Z</time>
      </trkpt>
      <trkpt lat="59.094548" lon="18.086613">
        <ele>36.6</ele>
        <time>2014-10-11T12:57:37Z</time>
      </trkpt>
      <trkpt lat="59.09456" lon="18.086473">
        <ele>36.8</ele>
        <time>2014-10-11T12:57:38Z</time>
      </trkpt>
      <trkpt lat="59.094576" lon="18.086332">
        <ele>36.9</ele>
        <time>2014-10-11T12:57:39Z</time>
      </trkpt>
      <trkpt lat="59.094592" lon="18.086192">
        <ele>36.9</ele>
        <time>2014-10-11T12:57:40Z</time>
      </trkpt>
      <trkpt lat="59.094607" lon="18.086067">
        <ele>36.8</ele>
        <time>2014-10-11T12:57:41Z</time>
      </trkpt>
      <trkpt lat="59.094621" lon="18.085924">
        <ele>36.7</ele>
        <time>2014-10-11T12:57:42Z</time>
      </trkpt>
      <trkpt lat="59.09463" lon="18.085768">
        <ele>36.5</ele>
        <time>2014-10-11T12:57:43Z</time>
      </trkpt>
      <trkpt lat="59.094644" lon="18.085633">
        <ele>36.3</ele>
        <time>2014-10-11T12:57:44Z</time>
      </trkpt>
      <trkpt lat="59.094661" lon="18.085502">
        <ele>36.1</ele>
        <time>2014-10-11T12:57:45Z</time>
      </trkpt>
      <trkpt lat="59.094671" lon="18.085347">
        <ele>35.6</ele>
        <time>2014-10-11T12:57:46Z</time>
      </trkpt>
      <trkpt lat="59.094686" lon="18.08519">
        <ele>34.5</ele>
        <time>2014-10-11T12:57:47Z</time>
      </trkpt>
      <trkpt lat="59.094698" lon="18.085015">
        <ele>33.4</ele>
        <time>2014-10-11T12:57:48Z</time>
      </trkpt>
      <trkpt lat="59.094711" lon="18.084859">
        <ele>32.4</ele>
        <time>2014-10-11T12:57:49Z</time>
      </trkpt>
      <trkpt lat="59.09473" lon="18.084668">
        <ele>31.2</ele>
        <time>2014-10-11T12:57:50Z</time>
      </trkpt>
      <trkpt lat="59.094743" lon="18.084498">
        <ele>30.2</ele>
        <time>2014-10-11T12:57:51Z</time>
      </trkpt>
      <trkpt lat="59.094807" lon="18.083747">
        <ele>26.2</ele>
        <time>2014-10-11T12:57:55Z</time>
      </trkpt>
      <trkpt lat="59.094825" lon="18.083577">
        <ele>26</ele>
        <time>2014-10-11T12:57:56Z</time>
      </trkpt>
      <trkpt lat="59.094837" lon="18.083396">
        <ele>25.9</ele>
        <time>2014-10-11T12:57:57Z</time>
      </trkpt>
      <trkpt lat="59.094855" lon="18.083212">
        <ele>25.8</ele>
        <time>2014-10-11T12:57:58Z</time>
      </trkpt>
      <trkpt lat="59.094876" lon="18.08303">
        <ele>25.7</ele>
        <time>2014-10-11T12:57:59Z</time>
      </trkpt>
      <trkpt lat="59.094886" lon="18.082853">
        <ele>25.6</ele>
        <time>2014-10-11T12:58:00Z</time>
      </trkpt>
      <trkpt lat="59.094902" lon="18.082691">
        <ele>25.5</ele>
        <time>2014-10-11T12:58:01Z</time>
      </trkpt>
      <trkpt lat="59.094915" lon="18.082522">
        <ele>25.3</ele>
        <time>2014-10-11T12:58:02Z</time>
      </trkpt>
      <trkpt lat="59.094932" lon="18.082353">
        <ele>25.2</ele>
        <time>2014-10-11T12:58:03Z</time>
      </trkpt>
      <trkpt lat="59.094945" lon="18.082184">
        <ele>25.1</ele>
        <time>2014-10-11T12:58:04Z</time>
      </trkpt>
      <trkpt lat="59.094963" lon="18.082051">
        <ele>25</ele>
        <time>2014-10-11T12:58:05Z</time>
      </trkpt>
      <trkpt lat="59.094977" lon="18.081901">
        <ele>25.1</ele>
        <time>2014-10-11T12:58:06Z</time>
      </trkpt>
      <trkpt lat="59.094989" lon="18.081743">
        <ele>25.2</ele>
        <time>2014-10-11T12:58:07Z</time>
      </trkpt>
      <trkpt lat="59.094996" lon="18.081583">
        <ele>25.3</ele>
        <time>2014-10-11T12:58:08Z</time>
      </trkpt>
      <trkpt lat="59.09501" lon="18.081428">
        <ele>25.4</ele>
        <time>2014-10-11T12:58:09Z</time>
      </trkpt>
      <trkpt lat="59.095023" lon="18.081271">
        <ele>25.5</ele>
        <time>2014-10-11T12:58:10Z</time>
      </trkpt>
      <trkpt lat="59.095036" lon="18.081114">
        <ele>25.5</ele>
        <time>2014-10-11T12:58:11Z</time>
      </trkpt>
      <trkpt lat="59.095047" lon="18.080964">
        <ele>25.4</ele>
        <time>2014-10-11T12:58:12Z</time>
      </trkpt>
      <trkpt lat="59.095055" lon="18.080797">
        <ele>25.4</ele>
        <time>2014-10-11T12:58:13Z</time>
      </trkpt>
      <trkpt lat="59.095064" lon="18.08065">
        <ele>25.4</ele>
        <time>2014-10-11T12:58:14Z</time>
      </trkpt>
      <trkpt lat="59.095076" lon="18.080502">
        <ele>25.4</ele>
        <time>2014-10-11T12:58:15Z</time>
      </trkpt>
      <trkpt lat="59.095091" lon="18.080352">
        <ele>25.6</ele>
        <time>2014-10-11T12:58:16Z</time>
      </trkpt>
      <trkpt lat="59.095106" lon="18.080214">
        <ele>26</ele>
        <time>2014-10-11T12:58:17Z</time>
      </trkpt>
      <trkpt lat="59.09512" lon="18.080069">
        <ele>26.5</ele>
        <time>2014-10-11T12:58:18Z</time>
      </trkpt>
      <trkpt lat="59.095134" lon="18.079926">
        <ele>26.9</ele>
        <time>2014-10-11T12:58:19Z</time>
      </trkpt>
      <trkpt lat="59.095148" lon="18.079764">
        <ele>27.4</ele>
        <time>2014-10-11T12:58:20Z</time>
      </trkpt>
      <trkpt lat="59.095164" lon="18.079636">
        <ele>27.8</ele>
        <time>2014-10-11T12:58:21Z</time>
      </trkpt>
      <trkpt lat="59.095185" lon="18.079489">
        <ele>28.3</ele>
        <time>2014-10-11T12:58:22Z</time>
      </trkpt>
      <trkpt lat="59.095199" lon="18.079353">
        <ele>28.7</ele>
        <time>2014-10-11T12:58:23Z</time>
      </trkpt>
      <trkpt lat="59.095209" lon="18.079222">
        <ele>29.1</ele>
        <time>2014-10-11T12:58:24Z</time>
      </trkpt>
      <trkpt lat="59.095222" lon="18.079074">
        <ele>29.5</ele>
        <time>2014-10-11T12:58:25Z</time>
      </trkpt>
      <trkpt lat="59.09523" lon="18.078927">
        <ele>30</ele>
        <time>2014-10-11T12:58:26Z</time>
      </trkpt>
      <trkpt lat="59.095232" lon="18.078777">
        <ele>30.5</ele>
        <time>2014-10-11T12:58:27Z</time>
      </trkpt>
      <trkpt lat="59.095238" lon="18.078663">
        <ele>30.5</ele>
        <time>2014-10-11T12:58:28Z</time>
      </trkpt>
      <trkpt lat="59.095232" lon="18.078525">
        <ele>30.3</ele>
        <time>2014-10-11T12:58:29Z</time>
      </trkpt>
      <trkpt lat="59.095229" lon="18.078399">
        <ele>30.2</ele>
        <time>2014-10-11T12:58:30Z</time>
      </trkpt>
      <trkpt lat="59.09522" lon="18.078265">
        <ele>30.1</ele>
        <time>2014-10-11T12:58:31Z</time>
      </trkpt>
      <trkpt lat="59.095205" lon="18.078139">
        <ele>29.9</ele>
        <time>2014-10-11T12:58:32Z</time>
      </trkpt>
      <trkpt lat="59.095188" lon="18.078019">
        <ele>29.8</ele>
        <time>2014-10-11T12:58:33Z</time>
      </trkpt>
      <trkpt lat="59.095163" lon="18.077898">
        <ele>29.7</ele>
        <time>2014-10-11T12:58:34Z</time>
      </trkpt>
      <trkpt lat="59.095146" lon="18.077782">
        <ele>29.7</ele>
        <time>2014-10-11T12:58:35Z</time>
      </trkpt>
      <trkpt lat="59.095136" lon="18.07767">
        <ele>29.7</ele>
        <time>2014-10-11T12:58:36Z</time>
      </trkpt>
      <trkpt lat="59.095124" lon="18.077561">
        <ele>29.6</ele>
        <time>2014-10-11T12:58:37Z</time>
      </trkpt>
      <trkpt lat="59.095102" lon="18.077446">
        <ele>29.6</ele>
        <time>2014-10-11T12:58:38Z</time>
      </trkpt>
      <trkpt lat="59.095083" lon="18.077344">
        <ele>29.6</ele>
        <time>2014-10-11T12:58:39Z</time>
      </trkpt>
      <trkpt lat="59.09507" lon="18.077246">
        <ele>29.6</ele>
        <time>2014-10-11T12:58:40Z</time>
      </trkpt>
      <trkpt lat="59.095045" lon="18.077117">
        <ele>29.6</ele>
        <time>2014-10-11T12:58:41Z</time>
      </trkpt>
      <trkpt lat="59.095015" lon="18.07701">
        <ele>29.7</ele>
        <time>2014-10-11T12:58:42Z</time>
      </trkpt>
      <trkpt lat="59.094995" lon="18.0769">
        <ele>29.9</ele>
        <time>2014-10-11T12:58:43Z</time>
      </trkpt>
      <trkpt lat="59.09498" lon="18.076784">
        <ele>30.2</ele>
        <time>2014-10-11T12:58:44Z</time>
      </trkpt>
      <trkpt lat="59.094961" lon="18.076685">
        <ele>30.4</ele>
        <time>2014-10-11T12:58:45Z</time>
      </trkpt>
      <trkpt lat="59.094938" lon="18.076573">
        <ele>30.6</ele>
        <time>2014-10-11T12:58:46Z</time>
      </trkpt>
      <trkpt lat="59.094907" lon="18.07648">
        <ele>30.7</ele>
        <time>2014-10-11T12:58:47Z</time>
      </trkpt>
      <trkpt lat="59.094878" lon="18.076372">
        <ele>30.8</ele>
        <time>2014-10-11T12:58:48Z</time>
      </trkpt>
      <trkpt lat="59.09485" lon="18.076261">
        <ele>30.9</ele>
        <time>2014-10-11T12:58:49Z</time>
      </trkpt>
      <trkpt lat="59.094823" lon="18.076164">
        <ele>31</ele>
        <time>2014-10-11T12:58:50Z</time>
      </trkpt>
      <trkpt lat="59.094799" lon="18.076074">
        <ele>30.9</ele>
        <time>2014-10-11T12:58:51Z</time>
      </trkpt>
      <trkpt lat="59.094774" lon="18.075974">
        <ele>30.9</ele>
        <time>2014-10-11T12:58:52Z</time>
      </trkpt>
      <trkpt lat="59.094756" lon="18.075868">
        <ele>30.9</ele>
        <time>2014-10-11T12:58:53Z</time>
      </trkpt>
      <trkpt lat="59.094721" lon="18.075761">
        <ele>30.8</ele>
        <time>2014-10-11T12:58:54Z</time>
      </trkpt>
      <trkpt lat="59.094686" lon="18.075652">
        <ele>30.6</ele>
        <time>2014-10-11T12:58:55Z</time>
      </trkpt>
      <trkpt lat="59.094664" lon="18.075545">
        <ele>30.5</ele>
        <time>2014-10-11T12:58:56Z</time>
      </trkpt>
      <trkpt lat="59.094637" lon="18.075446">
        <ele>30.4</ele>
        <time>2014-10-11T12:58:57Z</time>
      </trkpt>
      <trkpt lat="59.094598" lon="18.075339">
        <ele>30.7</ele>
        <time>2014-10-11T12:58:58Z</time>
      </trkpt>
      <trkpt lat="59.09457" lon="18.075241">
        <ele>31.2</ele>
        <time>2014-10-11T12:58:59Z</time>
      </trkpt>
      <trkpt lat="59.094538" lon="18.075132">
        <ele>32</ele>
        <time>2014-10-11T12:59:00Z</time>
      </trkpt>
      <trkpt lat="59.094527" lon="18.075032">
        <ele>32.7</ele>
        <time>2014-10-11T12:59:01Z</time>
      </trkpt>
      <trkpt lat="59.094487" lon="18.074938">
        <ele>33.3</ele>
        <time>2014-10-11T12:59:02Z</time>
      </trkpt>
      <trkpt lat="59.094452" lon="18.074827">
        <ele>34</ele>
        <time>2014-10-11T12:59:03Z</time>
      </trkpt>
      <trkpt lat="59.094427" lon="18.074753">
        <ele>34.4</ele>
        <time>2014-10-11T12:59:04Z</time>
      </trkpt>
      <trkpt lat="59.094401" lon="18.074653">
        <ele>35.1</ele>
        <time>2014-10-11T12:59:05Z</time>
      </trkpt>
      <trkpt lat="59.094372" lon="18.074556">
        <ele>35.6</ele>
        <time>2014-10-11T12:59:06Z</time>
      </trkpt>
      <trkpt lat="59.094339" lon="18.074453">
        <ele>36.1</ele>
        <time>2014-10-11T12:59:07Z</time>
      </trkpt>
      <trkpt lat="59.094319" lon="18.07434">
        <ele>36.7</ele>
        <time>2014-10-11T12:59:08Z</time>
      </trkpt>
      <trkpt lat="59.09431" lon="18.074232">
        <ele>37.3</ele>
        <time>2014-10-11T12:59:09Z</time>
      </trkpt>
      <trkpt lat="59.094311" lon="18.07414">
        <ele>37.8</ele>
        <time>2014-10-11T12:59:10Z</time>
      </trkpt>
      <trkpt lat="59.094318" lon="18.074054">
        <ele>38.3</ele>
        <time>2014-10-11T12:59:11Z</time>
      </trkpt>
      <trkpt lat="59.094335" lon="18.07395">
        <ele>39</ele>
        <time>2014-10-11T12:59:12Z</time>
      </trkpt>
      <trkpt lat="59.094348" lon="18.07386">
        <ele>39.5</ele>
        <time>2014-10-11T12:59:13Z</time>
      </trkpt>
      <trkpt lat="59.094369" lon="18.073786">
        <ele>40</ele>
        <time>2014-10-11T12:59:14Z</time>
      </trkpt>
      <trkpt lat="59.094393" lon="18.073701">
        <ele>40.6</ele>
        <time>2014-10-11T12:59:15Z</time>
      </trkpt>
      <trkpt lat="59.09441" lon="18.073615">
        <ele>41.1</ele>
        <time>2014-10-11T12:59:16Z</time>
      </trkpt>
      <trkpt lat="59.094429" lon="18.073552">
        <ele>41.5</ele>
        <time>2014-10-11T12:59:17Z</time>
      </trkpt>
      <trkpt lat="59.094443" lon="18.07348">
        <ele>41.9</ele>
        <time>2014-10-11T12:59:18Z</time>
      </trkpt>
      <trkpt lat="59.094458" lon="18.073416">
        <ele>42.3</ele>
        <time>2014-10-11T12:59:19Z</time>
      </trkpt>
      <trkpt lat="59.09448" lon="18.073342">
        <ele>42.7</ele>
        <time>2014-10-11T12:59:20Z</time>
      </trkpt>
      <trkpt lat="59.094495" lon="18.073268">
        <ele>43.1</ele>
        <time>2014-10-11T12:59:21Z</time>
      </trkpt>
      <trkpt lat="59.094511" lon="18.073196">
        <ele>43.5</ele>
        <time>2014-10-11T12:59:22Z</time>
      </trkpt>
      <trkpt lat="59.094527" lon="18.073133">
        <ele>43.9</ele>
        <time>2014-10-11T12:59:23Z</time>
      </trkpt>
      <trkpt lat="59.094544" lon="18.073054">
        <ele>44.3</ele>
        <time>2014-10-11T12:59:24Z</time>
      </trkpt>
      <trkpt lat="59.094562" lon="18.072976">
        <ele>44.7</ele>
        <time>2014-10-11T12:59:25Z</time>
      </trkpt>
      <trkpt lat="59.094582" lon="18.072889">
        <ele>45.1</ele>
        <time>2014-10-11T12:59:26Z</time>
      </trkpt>
      <trkpt lat="59.094599" lon="18.072827">
        <ele>45.3</ele>
        <time>2014-10-11T12:59:27Z</time>
      </trkpt>
      <trkpt lat="59.094615" lon="18.072753">
        <ele>45.6</ele>
        <time>2014-10-11T12:59:28Z</time>
      </trkpt>
      <trkpt lat="59.09464" lon="18.072671">
        <ele>45.8</ele>
        <time>2014-10-11T12:59:29Z</time>
      </trkpt>
      <trkpt lat="59.094658" lon="18.072597">
        <ele>46</ele>
        <time>2014-10-11T12:59:30Z</time>
      </trkpt>
      <trkpt lat="59.094685" lon="18.07252">
        <ele>46.2</ele>
        <time>2014-10-11T12:59:31Z</time>
      </trkpt>
      <trkpt lat="59.094702" lon="18.072441">
        <ele>46.4</ele>
        <time>2014-10-11T12:59:32Z</time>
      </trkpt>
      <trkpt lat="59.094722" lon="18.072358">
        <ele>46.6</ele>
        <time>2014-10-11T12:59:33Z</time>
      </trkpt>
      <trkpt lat="59.094743" lon="18.072274">
        <ele>46.7</ele>
        <time>2014-10-11T12:59:34Z</time>
      </trkpt>
      <trkpt lat="59.094765" lon="18.072203">
        <ele>46.8</ele>
        <time>2014-10-11T12:59:35Z</time>
      </trkpt>
      <trkpt lat="59.094784" lon="18.072131">
        <ele>46.9</ele>
        <time>2014-10-11T12:59:36Z</time>
      </trkpt>
      <trkpt lat="59.09481" lon="18.072065">
        <ele>46.8</ele>
        <time>2014-10-11T12:59:37Z</time>
      </trkpt>
      <trkpt lat="59.094835" lon="18.071999">
        <ele>46.6</ele>
        <time>2014-10-11T12:59:38Z</time>
      </trkpt>
      <trkpt lat="59.094858" lon="18.07193">
        <ele>46.4</ele>
        <time>2014-10-11T12:59:39Z</time>
      </trkpt>
      <trkpt lat="59.094885" lon="18.071855">
        <ele>46.2</ele>
        <time>2014-10-11T12:59:40Z</time>
      </trkpt>
      <trkpt lat="59.094924" lon="18.071777">
        <ele>46</ele>
        <time>2014-10-11T12:59:41Z</time>
      </trkpt>
      <trkpt lat="59.094966" lon="18.071715">
        <ele>45.7</ele>
        <time>2014-10-11T12:59:42Z</time>
      </trkpt>
      <trkpt lat="59.095022" lon="18.071633">
        <ele>45.4</ele>
        <time>2014-10-11T12:59:43Z</time>
      </trkpt>
      <trkpt lat="59.095077" lon="18.071553">
        <ele>45.1</ele>
        <time>2014-10-11T12:59:44Z</time>
      </trkpt>
      <trkpt lat="59.095146" lon="18.071481">
        <ele>44.8</ele>
        <time>2014-10-11T12:59:45Z</time>
      </trkpt>
      <trkpt lat="59.095201" lon="18.071396">
        <ele>44.7</ele>
        <time>2014-10-11T12:59:46Z</time>
      </trkpt>
      <trkpt lat="59.095241" lon="18.071269">
        <ele>44.8</ele>
        <time>2014-10-11T12:59:47Z</time>
      </trkpt>
      <trkpt lat="59.09527" lon="18.071136">
        <ele>45</ele>
        <time>2014-10-11T12:59:48Z</time>
      </trkpt>
      <trkpt lat="59.095287" lon="18.070983">
        <ele>45.4</ele>
        <time>2014-10-11T12:59:49Z</time>
      </trkpt>
      <trkpt lat="59.09531" lon="18.07086">
        <ele>45.7</ele>
        <time>2014-10-11T12:59:50Z</time>
      </trkpt>
      <trkpt lat="59.095329" lon="18.070718">
        <ele>46.1</ele>
        <time>2014-10-11T12:59:51Z</time>
      </trkpt>
      <trkpt lat="59.095348" lon="18.07057">
        <ele>46.6</ele>
        <time>2014-10-11T12:59:52Z</time>
      </trkpt>
      <trkpt lat="59.095367" lon="18.070427">
        <ele>47</ele>
        <time>2014-10-11T12:59:53Z</time>
      </trkpt>
      <trkpt lat="59.095386" lon="18.070289">
        <ele>46.9</ele>
        <time>2014-10-11T12:59:54Z</time>
      </trkpt>
      <trkpt lat="59.095405" lon="18.070149">
        <ele>46.7</ele>
        <time>2014-10-11T12:59:55Z</time>
      </trkpt>
      <trkpt lat="59.095425" lon="18.07002">
        <ele>46.5</ele>
        <time>2014-10-11T12:59:56Z</time>
      </trkpt>
      <trkpt lat="59.095444" lon="18.069899">
        <ele>46.2</ele>
        <time>2014-10-11T12:59:57Z</time>
      </trkpt>
      <trkpt lat="59.095469" lon="18.069768">
        <ele>45.9</ele>
        <time>2014-10-11T12:59:58Z</time>
      </trkpt>
      <trkpt lat="59.095493" lon="18.069668">
        <ele>45.7</ele>
        <time>2014-10-11T12:59:59Z</time>
      </trkpt>
      <trkpt lat="59.095531" lon="18.069549">
        <ele>45.5</ele>
        <time>2014-10-11T13:00:00Z</time>
      </trkpt>
      <trkpt lat="59.095572" lon="18.069429">
        <ele>45.3</ele>
        <time>2014-10-11T13:00:01Z</time>
      </trkpt>
      <trkpt lat="59.09561" lon="18.069326">
        <ele>45.2</ele>
        <time>2014-10-11T13:00:02Z</time>
      </trkpt>
      <trkpt lat="59.095651" lon="18.069221">
        <ele>45.1</ele>
        <time>2014-10-11T13:00:03Z</time>
      </trkpt>
      <trkpt lat="59.095694" lon="18.069117">
        <ele>45</ele>
        <time>2014-10-11T13:00:04Z</time>
      </trkpt>
      <trkpt lat="59.095735" lon="18.069021">
        <ele>45</ele>
        <time>2014-10-11T13:00:05Z</time>
      </trkpt>
      <trkpt lat="59.095772" lon="18.068921">
        <ele>45</ele>
        <time>2014-10-11T13:00:06Z</time>
      </trkpt>
      <trkpt lat="59.095815" lon="18.068844">
        <ele>44.9</ele>
        <time>2014-10-11T13:00:07Z</time>
      </trkpt>
      <trkpt lat="59.095865" lon="18.068749">
        <ele>44.9</ele>
        <time>2014-10-11T13:00:08Z</time>
      </trkpt>
      <trkpt lat="59.095912" lon="18.068661">
        <ele>44.7</ele>
        <time>2014-10-11T13:00:09Z</time>
      </trkpt>
      <trkpt lat="59.095958" lon="18.068566">
        <ele>44.6</ele>
        <time>2014-10-11T13:00:10Z</time>
      </trkpt>
      <trkpt lat="59.096006" lon="18.068477">
        <ele>44.5</ele>
        <time>2014-10-11T13:00:11Z</time>
      </trkpt>
      <trkpt lat="59.09605" lon="18.068388">
        <ele>44.5</ele>
        <time>2014-10-11T13:00:12Z</time>
      </trkpt>
      <trkpt lat="59.096098" lon="18.068303">
        <ele>44.5</ele>
        <time>2014-10-11T13:00:13Z</time>
      </trkpt>
      <trkpt lat="59.096157" lon="18.068206">
        <ele>44.6</ele>
        <time>2014-10-11T13:00:14Z</time>
      </trkpt>
      <trkpt lat="59.096216" lon="18.068135">
        <ele>44.7</ele>
        <time>2014-10-11T13:00:15Z</time>
      </trkpt>
      <trkpt lat="59.096277" lon="18.068034">
        <ele>45</ele>
        <time>2014-10-11T13:00:16Z</time>
      </trkpt>
      <trkpt lat="59.096331" lon="18.067954">
        <ele>45.4</ele>
        <time>2014-10-11T13:00:17Z</time>
      </trkpt>
      <trkpt lat="59.096389" lon="18.067878">
        <ele>45.9</ele>
        <time>2014-10-11T13:00:18Z</time>
      </trkpt>
      <trkpt lat="59.096442" lon="18.067781">
        <ele>46.4</ele>
        <time>2014-10-11T13:00:19Z</time>
      </trkpt>
      <trkpt lat="59.096506" lon="18.067732">
        <ele>46.8</ele>
        <time>2014-10-11T13:00:20Z</time>
      </trkpt>
      <trkpt lat="59.096578" lon="18.067658">
        <ele>47.4</ele>
        <time>2014-10-11T13:00:21Z</time>
      </trkpt>
      <trkpt lat="59.096632" lon="18.06759">
        <ele>47.9</ele>
        <time>2014-10-11T13:00:22Z</time>
      </trkpt>
      <trkpt lat="59.096698" lon="18.067515">
        <ele>48.4</ele>
        <time>2014-10-11T13:00:23Z</time>
      </trkpt>
      <trkpt lat="59.096758" lon="18.06745">
        <ele>48.9</ele>
        <time>2014-10-11T13:00:24Z</time>
      </trkpt>
      <trkpt lat="59.096813" lon="18.067394">
        <ele>49.4</ele>
        <time>2014-10-11T13:00:25Z</time>
      </trkpt>
      <trkpt lat="59.096852" lon="18.067325">
        <ele>49.8</ele>
        <time>2014-10-11T13:00:26Z</time>
      </trkpt>
      <trkpt lat="59.096903" lon="18.06726">
        <ele>50.3</ele>
        <time>2014-10-11T13:00:27Z</time>
      </trkpt>
      <trkpt lat="59.096962" lon="18.06721">
        <ele>50.8</ele>
        <time>2014-10-11T13:00:28Z</time>
      </trkpt>
      <trkpt lat="59.097014" lon="18.067162">
        <ele>51.3</ele>
        <time>2014-10-11T13:00:29Z</time>
      </trkpt>
      <trkpt lat="59.097073" lon="18.067131">
        <ele>51.8</ele>
        <time>2014-10-11T13:00:30Z</time>
      </trkpt>
      <trkpt lat="59.097137" lon="18.067114">
        <ele>51.9</ele>
        <time>2014-10-11T13:00:31Z</time>
      </trkpt>
      <trkpt lat="59.09721" lon="18.067089">
        <ele>52</ele>
        <time>2014-10-11T13:00:32Z</time>
      </trkpt>
      <trkpt lat="59.097285" lon="18.067078">
        <ele>52</ele>
        <time>2014-10-11T13:00:33Z</time>
      </trkpt>
      <trkpt lat="59.097352" lon="18.067079">
        <ele>52</ele>
        <time>2014-10-11T13:00:34Z</time>
      </trkpt>
      <trkpt lat="59.097421" lon="18.06707">
        <ele>52</ele>
        <time>2014-10-11T13:00:35Z</time>
      </trkpt>
      <trkpt lat="59.097475" lon="18.067061">
        <ele>51.9</ele>
        <time>2014-10-11T13:00:36Z</time>
      </trkpt>
      <trkpt lat="59.097546" lon="18.067048">
        <ele>51.9</ele>
        <time>2014-10-11T13:00:37Z</time>
      </trkpt>
      <trkpt lat="59.097603" lon="18.067024">
        <ele>51.8</ele>
        <time>2014-10-11T13:00:38Z</time>
      </trkpt>
      <trkpt lat="59.097662" lon="18.066984">
        <ele>51.7</ele>
        <time>2014-10-11T13:00:39Z</time>
      </trkpt>
      <trkpt lat="59.097725" lon="18.066938">
        <ele>51.6</ele>
        <time>2014-10-11T13:00:40Z</time>
      </trkpt>
      <trkpt lat="59.09778" lon="18.066905">
        <ele>51.5</ele>
        <time>2014-10-11T13:00:41Z</time>
      </trkpt>
      <trkpt lat="59.097845" lon="18.066863">
        <ele>51.4</ele>
        <time>2014-10-11T13:00:42Z</time>
      </trkpt>
      <trkpt lat="59.0979" lon="18.066826">
        <ele>51.4</ele>
        <time>2014-10-11T13:00:43Z</time>
      </trkpt>
      <trkpt lat="59.097926" lon="18.066788">
        <ele>51.2</ele>
        <time>2014-10-11T13:00:44Z</time>
      </trkpt>
      <trkpt lat="59.097986" lon="18.066744">
        <ele>50.9</ele>
        <time>2014-10-11T13:00:45Z</time>
      </trkpt>
      <trkpt lat="59.098048" lon="18.066685">
        <ele>50.4</ele>
        <time>2014-10-11T13:00:46Z</time>
      </trkpt>
      <trkpt lat="59.098115" lon="18.066618">
        <ele>49.9</ele>
        <time>2014-10-11T13:00:47Z</time>
      </trkpt>
      <trkpt lat="59.098177" lon="18.066528">
        <ele>49.3</ele>
        <time>2014-10-11T13:00:48Z</time>
      </trkpt>
      <trkpt lat="59.098236" lon="18.06647">
        <ele>48.8</ele>
        <time>2014-10-11T13:00:49Z</time>
      </trkpt>
      <trkpt lat="59.098303" lon="18.066379">
        <ele>48.1</ele>
        <time>2014-10-11T13:00:50Z</time>
      </trkpt>
      <trkpt lat="59.098386" lon="18.066256">
        <ele>47.2</ele>
        <time>2014-10-11T13:00:51Z</time>
      </trkpt>
      <trkpt lat="59.098467" lon="18.066205">
        <ele>46.5</ele>
        <time>2014-10-11T13:00:52Z</time>
      </trkpt>
      <trkpt lat="59.098535" lon="18.066072">
        <ele>45.5</ele>
        <time>2014-10-11T13:00:53Z</time>
      </trkpt>
      <trkpt lat="59.098608" lon="18.065951">
        <ele>44.5</ele>
        <time>2014-10-11T13:00:54Z</time>
      </trkpt>
      <trkpt lat="59.098693" lon="18.065825">
        <ele>43.4</ele>
        <time>2014-10-11T13:00:55Z</time>
      </trkpt>
      <trkpt lat="59.098774" lon="18.065705">
        <ele>42.4</ele>
        <time>2014-10-11T13:00:56Z</time>
      </trkpt>
      <trkpt lat="59.09884" lon="18.065589">
        <ele>41.8</ele>
        <time>2014-10-11T13:00:57Z</time>
      </trkpt>
      <trkpt lat="59.098917" lon="18.065452">
        <ele>41.2</ele>
        <time>2014-10-11T13:00:58Z</time>
      </trkpt>
      <trkpt lat="59.098994" lon="18.065332">
        <ele>40.8</ele>
        <time>2014-10-11T13:00:59Z</time>
      </trkpt>
      <trkpt lat="59.099059" lon="18.065187">
        <ele>40.6</ele>
        <time>2014-10-11T13:01:00Z</time>
      </trkpt>
      <trkpt lat="59.099108" lon="18.065055">
        <ele>40.3</ele>
        <time>2014-10-11T13:01:01Z</time>
      </trkpt>
      <trkpt lat="59.099133" lon="18.064895">
        <ele>40</ele>
        <time>2014-10-11T13:01:02Z</time>
      </trkpt>
      <trkpt lat="59.099162" lon="18.064718">
        <ele>39.7</ele>
        <time>2014-10-11T13:01:03Z</time>
      </trkpt>
      <trkpt lat="59.099184" lon="18.064535">
        <ele>39.5</ele>
        <time>2014-10-11T13:01:04Z</time>
      </trkpt>
      <trkpt lat="59.099185" lon="18.064337">
        <ele>39.2</ele>
        <time>2014-10-11T13:01:05Z</time>
      </trkpt>
      <trkpt lat="59.099194" lon="18.064163">
        <ele>39</ele>
        <time>2014-10-11T13:01:06Z</time>
      </trkpt>
      <trkpt lat="59.099196" lon="18.063987">
        <ele>38.8</ele>
        <time>2014-10-11T13:01:07Z</time>
      </trkpt>
      <trkpt lat="59.099209" lon="18.063839">
        <ele>38.7</ele>
        <time>2014-10-11T13:01:08Z</time>
      </trkpt>
      <trkpt lat="59.099216" lon="18.063679">
        <ele>38.7</ele>
        <time>2014-10-11T13:01:09Z</time>
      </trkpt>
      <trkpt lat="59.099232" lon="18.063518">
        <ele>38.9</ele>
        <time>2014-10-11T13:01:10Z</time>
      </trkpt>
      <trkpt lat="59.099244" lon="18.063352">
        <ele>39.1</ele>
        <time>2014-10-11T13:01:11Z</time>
      </trkpt>
      <trkpt lat="59.099265" lon="18.06316">
        <ele>39.3</ele>
        <time>2014-10-11T13:01:12Z</time>
      </trkpt>
      <trkpt lat="59.099288" lon="18.062991">
        <ele>39.3</ele>
        <time>2014-10-11T13:01:13Z</time>
      </trkpt>
      <trkpt lat="59.099312" lon="18.06283">
        <ele>39.3</ele>
        <time>2014-10-11T13:01:14Z</time>
      </trkpt>
      <trkpt lat="59.099339" lon="18.062658">
        <ele>39.2</ele>
        <time>2014-10-11T13:01:15Z</time>
      </trkpt>
      <trkpt lat="59.099375" lon="18.062494">
        <ele>39</ele>
        <time>2014-10-11T13:01:16Z</time>
      </trkpt>
      <trkpt lat="59.0994" lon="18.062326">
        <ele>38.8</ele>
        <time>2014-10-11T13:01:17Z</time>
      </trkpt>
      <trkpt lat="59.099424" lon="18.062165">
        <ele>38.6</ele>
        <time>2014-10-11T13:01:18Z</time>
      </trkpt>
      <trkpt lat="59.099453" lon="18.06199">
        <ele>38.5</ele>
        <time>2014-10-11T13:01:19Z</time>
      </trkpt>
      <trkpt lat="59.099479" lon="18.061839">
        <ele>38.6</ele>
        <time>2014-10-11T13:01:20Z</time>
      </trkpt>
      <trkpt lat="59.099511" lon="18.061696">
        <ele>38.7</ele>
        <time>2014-10-11T13:01:21Z</time>
      </trkpt>
      <trkpt lat="59.099538" lon="18.06152">
        <ele>38.8</ele>
        <time>2014-10-11T13:01:22Z</time>
      </trkpt>
      <trkpt lat="59.099564" lon="18.06136">
        <ele>38.9</ele>
        <time>2014-10-11T13:01:23Z</time>
      </trkpt>
      <trkpt lat="59.099595" lon="18.061188">
        <ele>39.1</ele>
        <time>2014-10-11T13:01:24Z</time>
      </trkpt>
      <trkpt lat="59.099622" lon="18.06103">
        <ele>39.1</ele>
        <time>2014-10-11T13:01:25Z</time>
      </trkpt>
      <trkpt lat="59.099654" lon="18.06086">
        <ele>39.1</ele>
        <time>2014-10-11T13:01:26Z</time>
      </trkpt>
      <trkpt lat="59.099678" lon="18.060692">
        <ele>39.1</ele>
        <time>2014-10-11T13:01:27Z</time>
      </trkpt>
      <trkpt lat="59.099699" lon="18.060532">
        <ele>39</ele>
        <time>2014-10-11T13:01:28Z</time>
      </trkpt>
      <trkpt lat="59.099728" lon="18.060372">
        <ele>38.8</ele>
        <time>2014-10-11T13:01:29Z</time>
      </trkpt>
      <trkpt lat="59.09976" lon="18.060203">
        <ele>38.7</ele>
        <time>2014-10-11T13:01:30Z</time>
      </trkpt>
      <trkpt lat="59.099789" lon="18.060047">
        <ele>38.5</ele>
        <time>2014-10-11T13:01:31Z</time>
      </trkpt>
      <trkpt lat="59.099811" lon="18.059876">
        <ele>38.4</ele>
        <time>2014-10-11T13:01:32Z</time>
      </trkpt>
      <trkpt lat="59.099839" lon="18.059723">
        <ele>38.2</ele>
        <time>2014-10-11T13:01:33Z</time>
      </trkpt>
      <trkpt lat="59.099864" lon="18.059584">
        <ele>38</ele>
        <time>2014-10-11T13:01:34Z</time>
      </trkpt>
      <trkpt lat="59.099891" lon="18.05941">
        <ele>37.7</ele>
        <time>2014-10-11T13:01:35Z</time>
      </trkpt>
      <trkpt lat="59.099917" lon="18.059246">
        <ele>37.4</ele>
        <time>2014-10-11T13:01:36Z</time>
      </trkpt>
      <trkpt lat="59.099939" lon="18.059078">
        <ele>37.2</ele>
        <time>2014-10-11T13:01:37Z</time>
      </trkpt>
      <trkpt lat="59.099958" lon="18.058924">
        <ele>37</ele>
        <time>2014-10-11T13:01:38Z</time>
      </trkpt>
      <trkpt lat="59.099975" lon="18.058764">
        <ele>36.8</ele>
        <time>2014-10-11T13:01:39Z</time>
      </trkpt>
      <trkpt lat="59.099985" lon="18.058643">
        <ele>36.3</ele>
        <time>2014-10-11T13:01:40Z</time>
      </trkpt>
      <trkpt lat="59.099996" lon="18.058495">
        <ele>35.8</ele>
        <time>2014-10-11T13:01:41Z</time>
      </trkpt>
      <trkpt lat="59.099996" lon="18.058329">
        <ele>35.3</ele>
        <time>2014-10-11T13:01:42Z</time>
      </trkpt>
      <trkpt lat="59.099991" lon="18.05818">
        <ele>34.9</ele>
        <time>2014-10-11T13:01:43Z</time>
      </trkpt>
      <trkpt lat="59.099986" lon="18.05803">
        <ele>34.4</ele>
        <time>2014-10-11T13:01:44Z</time>
      </trkpt>
      <trkpt lat="59.099986" lon="18.05787">
        <ele>34</ele>
        <time>2014-10-11T13:01:45Z</time>
      </trkpt>
      <trkpt lat="59.099984" lon="18.057721">
        <ele>33.7</ele>
        <time>2014-10-11T13:01:46Z</time>
      </trkpt>
      <trkpt lat="59.099974" lon="18.057574">
        <ele>33.5</ele>
        <time>2014-10-11T13:01:47Z</time>
      </trkpt>
      <trkpt lat="59.099964" lon="18.057416">
        <ele>33.3</ele>
        <time>2014-10-11T13:01:48Z</time>
      </trkpt>
      <trkpt lat="59.099957" lon="18.057288">
        <ele>33.1</ele>
        <time>2014-10-11T13:01:49Z</time>
      </trkpt>
      <trkpt lat="59.099952" lon="18.057152">
        <ele>32.8</ele>
        <time>2014-10-11T13:01:50Z</time>
      </trkpt>
      <trkpt lat="59.09993" lon="18.057018">
        <ele>32.7</ele>
        <time>2014-10-11T13:01:51Z</time>
      </trkpt>
      <trkpt lat="59.099911" lon="18.056888">
        <ele>32.7</ele>
        <time>2014-10-11T13:01:52Z</time>
      </trkpt>
      <trkpt lat="59.099893" lon="18.056758">
        <ele>32.6</ele>
        <time>2014-10-11T13:01:53Z</time>
      </trkpt>
      <trkpt lat="59.099875" lon="18.05663">
        <ele>32.6</ele>
        <time>2014-10-11T13:01:54Z</time>
      </trkpt>
      <trkpt lat="59.099857" lon="18.056504">
        <ele>32.5</ele>
        <time>2014-10-11T13:01:55Z</time>
      </trkpt>
      <trkpt lat="59.099831" lon="18.056377">
        <ele>32.5</ele>
        <time>2014-10-11T13:01:56Z</time>
      </trkpt>
      <trkpt lat="59.099804" lon="18.056239">
        <ele>32.5</ele>
        <time>2014-10-11T13:01:57Z</time>
      </trkpt>
      <trkpt lat="59.09978" lon="18.05611">
        <ele>32.5</ele>
        <time>2014-10-11T13:01:58Z</time>
      </trkpt>
      <trkpt lat="59.099755" lon="18.055969">
        <ele>32.6</ele>
        <time>2014-10-11T13:01:59Z</time>
      </trkpt>
      <trkpt lat="59.099724" lon="18.055835">
        <ele>32.7</ele>
        <time>2014-10-11T13:02:00Z</time>
      </trkpt>
      <trkpt lat="59.099696" lon="18.055691">
        <ele>32.7</ele>
        <time>2014-10-11T13:02:01Z</time>
      </trkpt>
      <trkpt lat="59.099664" lon="18.055547">
        <ele>32.8</ele>
        <time>2014-10-11T13:02:02Z</time>
      </trkpt>
      <trkpt lat="59.099635" lon="18.055407">
        <ele>32.9</ele>
        <time>2014-10-11T13:02:03Z</time>
      </trkpt>
      <trkpt lat="59.099609" lon="18.055257">
        <ele>33.7</ele>
        <time>2014-10-11T13:02:04Z</time>
      </trkpt>
      <trkpt lat="59.099582" lon="18.055148">
        <ele>34.3</ele>
        <time>2014-10-11T13:02:05Z</time>
      </trkpt>
      <trkpt lat="59.099557" lon="18.055012">
        <ele>35.2</ele>
        <time>2014-10-11T13:02:06Z</time>
      </trkpt>
      <trkpt lat="59.099528" lon="18.054881">
        <ele>36.1</ele>
        <time>2014-10-11T13:02:07Z</time>
      </trkpt>
      <trkpt lat="59.099507" lon="18.05476">
        <ele>36.8</ele>
        <time>2014-10-11T13:02:08Z</time>
      </trkpt>
      <trkpt lat="59.099481" lon="18.054621">
        <ele>37.7</ele>
        <time>2014-10-11T13:02:09Z</time>
      </trkpt>
      <trkpt lat="59.09946" lon="18.054492">
        <ele>38.3</ele>
        <time>2014-10-11T13:02:10Z</time>
      </trkpt>
      <trkpt lat="59.099443" lon="18.054365">
        <ele>38.9</ele>
        <time>2014-10-11T13:02:11Z</time>
      </trkpt>
      <trkpt lat="59.099427" lon="18.054228">
        <ele>39.4</ele>
        <time>2014-10-11T13:02:12Z</time>
      </trkpt>
      <trkpt lat="59.09941" lon="18.05408">
        <ele>40</ele>
        <time>2014-10-11T13:02:13Z</time>
      </trkpt>
      <trkpt lat="59.099397" lon="18.053949">
        <ele>40.5</ele>
        <time>2014-10-11T13:02:14Z</time>
      </trkpt>
      <trkpt lat="59.09938" lon="18.053816">
        <ele>41</ele>
        <time>2014-10-11T13:02:15Z</time>
      </trkpt>
      <trkpt lat="59.099373" lon="18.053679">
        <ele>41.2</ele>
        <time>2014-10-11T13:02:16Z</time>
      </trkpt>
      <trkpt lat="59.099365" lon="18.053533">
        <ele>41</ele>
        <time>2014-10-11T13:02:17Z</time>
      </trkpt>
      <trkpt lat="59.099363" lon="18.053391">
        <ele>40.9</ele>
        <time>2014-10-11T13:02:18Z</time>
      </trkpt>
      <trkpt lat="59.099358" lon="18.053259">
        <ele>40.8</ele>
        <time>2014-10-11T13:02:19Z</time>
      </trkpt>
      <trkpt lat="59.09935" lon="18.05311">
        <ele>40.6</ele>
        <time>2014-10-11T13:02:20Z</time>
      </trkpt>
      <trkpt lat="59.099354" lon="18.052981">
        <ele>40.5</ele>
        <time>2014-10-11T13:02:21Z</time>
      </trkpt>
      <trkpt lat="59.099362" lon="18.052851">
        <ele>40.3</ele>
        <time>2014-10-11T13:02:22Z</time>
      </trkpt>
      <trkpt lat="59.099372" lon="18.052728">
        <ele>40.1</ele>
        <time>2014-10-11T13:02:23Z</time>
      </trkpt>
      <trkpt lat="59.099384" lon="18.05262">
        <ele>39.9</ele>
        <time>2014-10-11T13:02:24Z</time>
      </trkpt>
      <trkpt lat="59.099402" lon="18.052516">
        <ele>39.7</ele>
        <time>2014-10-11T13:02:25Z</time>
      </trkpt>
      <trkpt lat="59.099405" lon="18.05239">
        <ele>39.6</ele>
        <time>2014-10-11T13:02:26Z</time>
      </trkpt>
      <trkpt lat="59.099417" lon="18.052262">
        <ele>39.4</ele>
        <time>2014-10-11T13:02:27Z</time>
      </trkpt>
      <trkpt lat="59.099433" lon="18.052136">
        <ele>39.1</ele>
        <time>2014-10-11T13:02:28Z</time>
      </trkpt>
      <trkpt lat="59.099458" lon="18.052007">
        <ele>39.1</ele>
        <time>2014-10-11T13:02:29Z</time>
      </trkpt>
      <trkpt lat="59.099486" lon="18.051864">
        <ele>39.2</ele>
        <time>2014-10-11T13:02:30Z</time>
      </trkpt>
      <trkpt lat="59.099508" lon="18.051721">
        <ele>39.4</ele>
        <time>2014-10-11T13:02:31Z</time>
      </trkpt>
      <trkpt lat="59.099531" lon="18.051559">
        <ele>39.6</ele>
        <time>2014-10-11T13:02:32Z</time>
      </trkpt>
      <trkpt lat="59.099556" lon="18.051396">
        <ele>39.8</ele>
        <time>2014-10-11T13:02:33Z</time>
      </trkpt>
      <trkpt lat="59.099579" lon="18.051239">
        <ele>40.1</ele>
        <time>2014-10-11T13:02:34Z</time>
      </trkpt>
      <trkpt lat="59.099608" lon="18.05107">
        <ele>40.2</ele>
        <time>2014-10-11T13:02:35Z</time>
      </trkpt>
      <trkpt lat="59.099644" lon="18.050916">
        <ele>40.2</ele>
        <time>2014-10-11T13:02:36Z</time>
      </trkpt>
      <trkpt lat="59.099672" lon="18.050775">
        <ele>40.2</ele>
        <time>2014-10-11T13:02:37Z</time>
      </trkpt>
      <trkpt lat="59.099704" lon="18.050633">
        <ele>40.1</ele>
        <time>2014-10-11T13:02:38Z</time>
      </trkpt>
      <trkpt lat="59.099742" lon="18.050502">
        <ele>39.9</ele>
        <time>2014-10-11T13:02:39Z</time>
      </trkpt>
      <trkpt lat="59.099783" lon="18.050367">
        <ele>39.6</ele>
        <time>2014-10-11T13:02:40Z</time>
      </trkpt>
      <trkpt lat="59.099826" lon="18.05023">
        <ele>39.2</ele>
        <time>2014-10-11T13:02:41Z</time>
      </trkpt>
      <trkpt lat="59.099869" lon="18.050122">
        <ele>38.7</ele>
        <time>2014-10-11T13:02:42Z</time>
      </trkpt>
      <trkpt lat="59.099916" lon="18.050004">
        <ele>38.2</ele>
        <time>2014-10-11T13:02:43Z</time>
      </trkpt>
      <trkpt lat="59.099959" lon="18.049893">
        <ele>37.8</ele>
        <time>2014-10-11T13:02:44Z</time>
      </trkpt>
      <trkpt lat="59.100017" lon="18.049778">
        <ele>37.2</ele>
        <time>2014-10-11T13:02:45Z</time>
      </trkpt>
      <trkpt lat="59.100072" lon="18.049673">
        <ele>36.7</ele>
        <time>2014-10-11T13:02:46Z</time>
      </trkpt>
      <trkpt lat="59.100125" lon="18.049565">
        <ele>36.1</ele>
        <time>2014-10-11T13:02:47Z</time>
      </trkpt>
      <trkpt lat="59.100183" lon="18.049474">
        <ele>35.5</ele>
        <time>2014-10-11T13:02:48Z</time>
      </trkpt>
      <trkpt lat="59.100256" lon="18.049371">
        <ele>34.7</ele>
        <time>2014-10-11T13:02:49Z</time>
      </trkpt>
      <trkpt lat="59.100315" lon="18.04929">
        <ele>34.1</ele>
        <time>2014-10-11T13:02:50Z</time>
      </trkpt>
      <trkpt lat="59.100376" lon="18.049192">
        <ele>33.4</ele>
        <time>2014-10-11T13:02:51Z</time>
      </trkpt>
      <trkpt lat="59.100888" lon="18.04873">
        <ele>32.5</ele>
        <time>2014-10-11T13:02:58Z</time>
      </trkpt>
      <trkpt lat="59.100927" lon="18.048708">
        <ele>32.4</ele>
        <time>2014-10-11T13:02:59Z</time>
      </trkpt>
      <trkpt lat="59.101001" lon="18.048682">
        <ele>32.4</ele>
        <time>2014-10-11T13:03:00Z</time>
      </trkpt>
      <trkpt lat="59.101083" lon="18.048675">
        <ele>32.3</ele>
        <time>2014-10-11T13:03:01Z</time>
      </trkpt>
      <trkpt lat="59.101165" lon="18.048659">
        <ele>32.2</ele>
        <time>2014-10-11T13:03:02Z</time>
      </trkpt>
      <trkpt lat="59.101246" lon="18.048631">
        <ele>32.1</ele>
        <time>2014-10-11T13:03:03Z</time>
      </trkpt>
      <trkpt lat="59.101327" lon="18.048609">
        <ele>32.2</ele>
        <time>2014-10-11T13:03:04Z</time>
      </trkpt>
      <trkpt lat="59.101407" lon="18.048608">
        <ele>32.1</ele>
        <time>2014-10-11T13:03:05Z</time>
      </trkpt>
      <trkpt lat="59.101483" lon="18.04861">
        <ele>32.1</ele>
        <time>2014-10-11T13:03:06Z</time>
      </trkpt>
      <trkpt lat="59.101569" lon="18.048623">
        <ele>32.1</ele>
        <time>2014-10-11T13:03:07Z</time>
      </trkpt>
      <trkpt lat="59.10165" lon="18.048641">
        <ele>32.1</ele>
        <time>2014-10-11T13:03:08Z</time>
      </trkpt>
      <trkpt lat="59.10173" lon="18.048652">
        <ele>32</ele>
        <time>2014-10-11T13:03:09Z</time>
      </trkpt>
      <trkpt lat="59.101805" lon="18.048682">
        <ele>32</ele>
        <time>2014-10-11T13:03:10Z</time>
      </trkpt>
      <trkpt lat="59.10188" lon="18.048712">
        <ele>32</ele>
        <time>2014-10-11T13:03:11Z</time>
      </trkpt>
      <trkpt lat="59.101943" lon="18.048736">
        <ele>32</ele>
        <time>2014-10-11T13:03:12Z</time>
      </trkpt>
      <trkpt lat="59.102011" lon="18.048772">
        <ele>32</ele>
        <time>2014-10-11T13:03:13Z</time>
      </trkpt>
      <trkpt lat="59.102071" lon="18.048794">
        <ele>32</ele>
        <time>2014-10-11T13:03:14Z</time>
      </trkpt>
      <trkpt lat="59.102132" lon="18.048819">
        <ele>32.1</ele>
        <time>2014-10-11T13:03:15Z</time>
      </trkpt>
      <trkpt lat="59.102192" lon="18.048849">
        <ele>32.3</ele>
        <time>2014-10-11T13:03:16Z</time>
      </trkpt>
      <trkpt lat="59.102254" lon="18.048876">
        <ele>32.4</ele>
        <time>2014-10-11T13:03:17Z</time>
      </trkpt>
      <trkpt lat="59.102316" lon="18.04891">
        <ele>32.6</ele>
        <time>2014-10-11T13:03:18Z</time>
      </trkpt>
      <trkpt lat="59.102376" lon="18.048941">
        <ele>32.7</ele>
        <time>2014-10-11T13:03:19Z</time>
      </trkpt>
      <trkpt lat="59.102431" lon="18.04897">
        <ele>32.8</ele>
        <time>2014-10-11T13:03:20Z</time>
      </trkpt>
      <trkpt lat="59.102489" lon="18.048996">
        <ele>33</ele>
        <time>2014-10-11T13:03:21Z</time>
      </trkpt>
      <trkpt lat="59.102551" lon="18.049017">
        <ele>33.1</ele>
        <time>2014-10-11T13:03:22Z</time>
      </trkpt>
      <trkpt lat="59.10261" lon="18.04904">
        <ele>33.3</ele>
        <time>2014-10-11T13:03:23Z</time>
      </trkpt>
      <trkpt lat="59.102676" lon="18.049064">
        <ele>33.4</ele>
        <time>2014-10-11T13:03:24Z</time>
      </trkpt>
      <trkpt lat="59.102728" lon="18.049093">
        <ele>33.5</ele>
        <time>2014-10-11T13:03:25Z</time>
      </trkpt>
      <trkpt lat="59.102784" lon="18.049109">
        <ele>33.7</ele>
        <time>2014-10-11T13:03:26Z</time>
      </trkpt>
      <trkpt lat="59.102839" lon="18.049134">
        <ele>33.8</ele>
        <time>2014-10-11T13:03:27Z</time>
      </trkpt>
      <trkpt lat="59.102903" lon="18.049144">
        <ele>34</ele>
        <time>2014-10-11T13:03:28Z</time>
      </trkpt>
      <trkpt lat="59.102959" lon="18.049157">
        <ele>34.2</ele>
        <time>2014-10-11T13:03:29Z</time>
      </trkpt>
      <trkpt lat="59.103015" lon="18.049163">
        <ele>34.4</ele>
        <time>2014-10-11T13:03:30Z</time>
      </trkpt>
      <trkpt lat="59.103068" lon="18.049156">
        <ele>34.6</ele>
        <time>2014-10-11T13:03:31Z</time>
      </trkpt>
      <trkpt lat="59.103124" lon="18.049144">
        <ele>34.9</ele>
        <time>2014-10-11T13:03:32Z</time>
      </trkpt>
      <trkpt lat="59.103183" lon="18.049132">
        <ele>35.1</ele>
        <time>2014-10-11T13:03:33Z</time>
      </trkpt>
      <trkpt lat="59.103233" lon="18.049117">
        <ele>35.4</ele>
        <time>2014-10-11T13:03:34Z</time>
      </trkpt>
      <trkpt lat="59.103272" lon="18.049076">
        <ele>35.5</ele>
        <time>2014-10-11T13:03:35Z</time>
      </trkpt>
      <trkpt lat="59.103321" lon="18.049042">
        <ele>35.8</ele>
        <time>2014-10-11T13:03:36Z</time>
      </trkpt>
      <trkpt lat="59.103373" lon="18.049013">
        <ele>36</ele>
        <time>2014-10-11T13:03:37Z</time>
      </trkpt>
      <trkpt lat="59.103417" lon="18.048986">
        <ele>36.2</ele>
        <time>2014-10-11T13:03:38Z</time>
      </trkpt>
      <trkpt lat="59.103467" lon="18.048957">
        <ele>36.5</ele>
        <time>2014-10-11T13:03:39Z</time>
      </trkpt>
      <trkpt lat="59.103516" lon="18.048929">
        <ele>36.7</ele>
        <time>2014-10-11T13:03:40Z</time>
      </trkpt>
      <trkpt lat="59.103567" lon="18.048892">
        <ele>37</ele>
        <time>2014-10-11T13:03:41Z</time>
      </trkpt>
      <trkpt lat="59.103613" lon="18.048849">
        <ele>37.2</ele>
        <time>2014-10-11T13:03:42Z</time>
      </trkpt>
      <trkpt lat="59.103668" lon="18.048801">
        <ele>37.6</ele>
        <time>2014-10-11T13:03:43Z</time>
      </trkpt>
      <trkpt lat="59.103724" lon="18.048778">
        <ele>37.8</ele>
        <time>2014-10-11T13:03:44Z</time>
      </trkpt>
      <trkpt lat="59.103766" lon="18.048762">
        <ele>38.1</ele>
        <time>2014-10-11T13:03:45Z</time>
      </trkpt>
      <trkpt lat="59.103817" lon="18.048725">
        <ele>38.2</ele>
        <time>2014-10-11T13:03:46Z</time>
      </trkpt>
      <trkpt lat="59.103874" lon="18.048692">
        <ele>38.4</ele>
        <time>2014-10-11T13:03:47Z</time>
      </trkpt>
      <trkpt lat="59.103931" lon="18.048668">
        <ele>38.6</ele>
        <time>2014-10-11T13:03:48Z</time>
      </trkpt>
      <trkpt lat="59.103989" lon="18.048658">
        <ele>38.9</ele>
        <time>2014-10-11T13:03:49Z</time>
      </trkpt>
      <trkpt lat="59.104054" lon="18.048638">
        <ele>39.2</ele>
        <time>2014-10-11T13:03:50Z</time>
      </trkpt>
      <trkpt lat="59.104112" lon="18.04863">
        <ele>39.4</ele>
        <time>2014-10-11T13:03:51Z</time>
      </trkpt>
      <trkpt lat="59.104164" lon="18.048656">
        <ele>39.8</ele>
        <time>2014-10-11T13:03:52Z</time>
      </trkpt>
      <trkpt lat="59.104232" lon="18.048656">
        <ele>40.1</ele>
        <time>2014-10-11T13:03:53Z</time>
      </trkpt>
      <trkpt lat="59.104284" lon="18.048626">
        <ele>40.3</ele>
        <time>2014-10-11T13:03:54Z</time>
      </trkpt>
      <trkpt lat="59.104327" lon="18.04856">
        <ele>40.4</ele>
        <time>2014-10-11T13:03:55Z</time>
      </trkpt>
      <trkpt lat="59.104332" lon="18.048453">
        <ele>40.2</ele>
        <time>2014-10-11T13:03:56Z</time>
      </trkpt>
      <trkpt lat="59.104319" lon="18.048371">
        <ele>40</ele>
        <time>2014-10-11T13:03:57Z</time>
      </trkpt>
      <trkpt lat="59.104295" lon="18.048288">
        <ele>39.7</ele>
        <time>2014-10-11T13:03:58Z</time>
      </trkpt>
      <trkpt lat="59.104271" lon="18.048216">
        <ele>39.4</ele>
        <time>2014-10-11T13:03:59Z</time>
      </trkpt>
      <trkpt lat="59.104232" lon="18.048131">
        <ele>38.9</ele>
        <time>2014-10-11T13:04:00Z</time>
      </trkpt>
      <trkpt lat="59.104188" lon="18.048053">
        <ele>38.5</ele>
        <time>2014-10-11T13:04:01Z</time>
      </trkpt>
      <trkpt lat="59.104158" lon="18.047966">
        <ele>38.1</ele>
        <time>2014-10-11T13:04:02Z</time>
      </trkpt>
      <trkpt lat="59.104123" lon="18.047867">
        <ele>37.6</ele>
        <time>2014-10-11T13:04:03Z</time>
      </trkpt>
      <trkpt lat="59.104086" lon="18.047772">
        <ele>37.1</ele>
        <time>2014-10-11T13:04:04Z</time>
      </trkpt>
      <trkpt lat="59.104052" lon="18.047683">
        <ele>36.7</ele>
        <time>2014-10-11T13:04:05Z</time>
      </trkpt>
      <trkpt lat="59.104015" lon="18.047594">
        <ele>36.3</ele>
        <time>2014-10-11T13:04:06Z</time>
      </trkpt>
      <trkpt lat="59.10397" lon="18.047508">
        <ele>35.7</ele>
        <time>2014-10-11T13:04:07Z</time>
      </trkpt>
      <trkpt lat="59.103925" lon="18.047378">
        <ele>35.1</ele>
        <time>2014-10-11T13:04:08Z</time>
      </trkpt>
      <trkpt lat="59.103882" lon="18.047258">
        <ele>34.5</ele>
        <time>2014-10-11T13:04:09Z</time>
      </trkpt>
      <trkpt lat="59.103835" lon="18.047154">
        <ele>33.9</ele>
        <time>2014-10-11T13:04:10Z</time>
      </trkpt>
      <trkpt lat="59.103779" lon="18.047032">
        <ele>33.3</ele>
        <time>2014-10-11T13:04:11Z</time>
      </trkpt>
      <trkpt lat="59.103716" lon="18.046895">
        <ele>33.2</ele>
        <time>2014-10-11T13:04:12Z</time>
      </trkpt>
      <trkpt lat="59.103658" lon="18.0468">
        <ele>33.2</ele>
        <time>2014-10-11T13:04:13Z</time>
      </trkpt>
      <trkpt lat="59.103599" lon="18.046675">
        <ele>33.3</ele>
        <time>2014-10-11T13:04:14Z</time>
      </trkpt>
      <trkpt lat="59.103537" lon="18.046561">
        <ele>33.4</ele>
        <time>2014-10-11T13:04:15Z</time>
      </trkpt>
      <trkpt lat="59.103479" lon="18.046453">
        <ele>33.4</ele>
        <time>2014-10-11T13:04:16Z</time>
      </trkpt>
      <trkpt lat="59.10342" lon="18.046317">
        <ele>33.5</ele>
        <time>2014-10-11T13:04:17Z</time>
      </trkpt>
      <trkpt lat="59.103378" lon="18.046203">
        <ele>33.6</ele>
        <time>2014-10-11T13:04:18Z</time>
      </trkpt>
      <trkpt lat="59.10334" lon="18.046073">
        <ele>33.5</ele>
        <time>2014-10-11T13:04:19Z</time>
      </trkpt>
      <trkpt lat="59.103298" lon="18.04594">
        <ele>33.5</ele>
        <time>2014-10-11T13:04:20Z</time>
      </trkpt>
      <trkpt lat="59.103259" lon="18.045784">
        <ele>33.4</ele>
        <time>2014-10-11T13:04:21Z</time>
      </trkpt>
      <trkpt lat="59.103229" lon="18.045666">
        <ele>33.4</ele>
        <time>2014-10-11T13:04:22Z</time>
      </trkpt>
      <trkpt lat="59.103196" lon="18.045544">
        <ele>33.3</ele>
        <time>2014-10-11T13:04:23Z</time>
      </trkpt>
      <trkpt lat="59.103162" lon="18.045414">
        <ele>33.3</ele>
        <time>2014-10-11T13:04:24Z</time>
      </trkpt>
      <trkpt lat="59.103119" lon="18.045338">
        <ele>33.3</ele>
        <time>2014-10-11T13:04:25Z</time>
      </trkpt>
      <trkpt lat="59.103088" lon="18.045237">
        <ele>33.4</ele>
        <time>2014-10-11T13:04:26Z</time>
      </trkpt>
      <trkpt lat="59.103056" lon="18.045119">
        <ele>33.5</ele>
        <time>2014-10-11T13:04:27Z</time>
      </trkpt>
      <trkpt lat="59.10303" lon="18.04501">
        <ele>33.6</ele>
        <time>2014-10-11T13:04:28Z</time>
      </trkpt>
      <trkpt lat="59.103009" lon="18.044923">
        <ele>33.6</ele>
        <time>2014-10-11T13:04:29Z</time>
      </trkpt>
      <trkpt lat="59.102986" lon="18.044839">
        <ele>33.7</ele>
        <time>2014-10-11T13:04:30Z</time>
      </trkpt>
      <trkpt lat="59.102959" lon="18.044762">
        <ele>33.8</ele>
        <time>2014-10-11T13:04:31Z</time>
      </trkpt>
      <trkpt lat="59.102948" lon="18.04469">
        <ele>33.9</ele>
        <time>2014-10-11T13:04:32Z</time>
      </trkpt>
      <trkpt lat="59.102933" lon="18.044615">
        <ele>34</ele>
        <time>2014-10-11T13:04:33Z</time>
      </trkpt>
      <trkpt lat="59.102927" lon="18.044533">
        <ele>34</ele>
        <time>2014-10-11T13:04:34Z</time>
      </trkpt>
      <trkpt lat="59.102944" lon="18.044438">
        <ele>34</ele>
        <time>2014-10-11T13:04:35Z</time>
      </trkpt>
      <trkpt lat="59.102985" lon="18.044368">
        <ele>34</ele>
        <time>2014-10-11T13:04:36Z</time>
      </trkpt>
      <trkpt lat="59.103039" lon="18.0443">
        <ele>34</ele>
        <time>2014-10-11T13:04:37Z</time>
      </trkpt>
      <trkpt lat="59.103094" lon="18.044246">
        <ele>34</ele>
        <time>2014-10-11T13:04:38Z</time>
      </trkpt>
      <trkpt lat="59.103146" lon="18.044169">
        <ele>34</ele>
        <time>2014-10-11T13:04:39Z</time>
      </trkpt>
      <trkpt lat="59.103209" lon="18.044107">
        <ele>34</ele>
        <time>2014-10-11T13:04:40Z</time>
      </trkpt>
      <trkpt lat="59.103273" lon="18.04406">
        <ele>34</ele>
        <time>2014-10-11T13:04:41Z</time>
      </trkpt>
      <trkpt lat="59.103344" lon="18.044009">
        <ele>34</ele>
        <time>2014-10-11T13:04:42Z</time>
      </trkpt>
      <trkpt lat="59.103415" lon="18.043963">
        <ele>34</ele>
        <time>2014-10-11T13:04:43Z</time>
      </trkpt>
      <trkpt lat="59.103483" lon="18.043909">
        <ele>34</ele>
        <time>2014-10-11T13:04:44Z</time>
      </trkpt>
      <trkpt lat="59.103549" lon="18.043863">
        <ele>34</ele>
        <time>2014-10-11T13:04:45Z</time>
      </trkpt>
      <trkpt lat="59.103615" lon="18.043798">
        <ele>34</ele>
        <time>2014-10-11T13:04:46Z</time>
      </trkpt>
      <trkpt lat="59.103689" lon="18.043745">
        <ele>34</ele>
        <time>2014-10-11T13:04:47Z</time>
      </trkpt>
      <trkpt lat="59.103753" lon="18.043693">
        <ele>33.9</ele>
        <time>2014-10-11T13:04:48Z</time>
      </trkpt>
      <trkpt lat="59.103822" lon="18.043628">
        <ele>33.9</ele>
        <time>2014-10-11T13:04:49Z</time>
      </trkpt>
      <trkpt lat="59.103888" lon="18.043566">
        <ele>33.8</ele>
        <time>2014-10-11T13:04:50Z</time>
      </trkpt>
      <trkpt lat="59.103959" lon="18.04351">
        <ele>33.8</ele>
        <time>2014-10-11T13:04:51Z</time>
      </trkpt>
      <trkpt lat="59.104021" lon="18.043479">
        <ele>33.8</ele>
        <time>2014-10-11T13:04:52Z</time>
      </trkpt>
      <trkpt lat="59.104092" lon="18.043435">
        <ele>33.8</ele>
        <time>2014-10-11T13:04:53Z</time>
      </trkpt>
      <trkpt lat="59.104156" lon="18.043396">
        <ele>33.8</ele>
        <time>2014-10-11T13:04:54Z</time>
      </trkpt>
      <trkpt lat="59.104225" lon="18.043335">
        <ele>33.8</ele>
        <time>2014-10-11T13:04:55Z</time>
      </trkpt>
      <trkpt lat="59.104283" lon="18.043277">
        <ele>33.8</ele>
        <time>2014-10-11T13:04:56Z</time>
      </trkpt>
      <trkpt lat="59.104352" lon="18.043232">
        <ele>33.8</ele>
        <time>2014-10-11T13:04:57Z</time>
      </trkpt>
      <trkpt lat="59.104412" lon="18.043177">
        <ele>33.9</ele>
        <time>2014-10-11T13:04:58Z</time>
      </trkpt>
      <trkpt lat="59.104482" lon="18.043137">
        <ele>33.9</ele>
        <time>2014-10-11T13:04:59Z</time>
      </trkpt>
      <trkpt lat="59.104558" lon="18.043087">
        <ele>34</ele>
        <time>2014-10-11T13:05:00Z</time>
      </trkpt>
      <trkpt lat="59.104616" lon="18.04305">
        <ele>34</ele>
        <time>2014-10-11T13:05:01Z</time>
      </trkpt>
      <trkpt lat="59.10468" lon="18.043005">
        <ele>34</ele>
        <time>2014-10-11T13:05:02Z</time>
      </trkpt>
      <trkpt lat="59.104748" lon="18.042949">
        <ele>34</ele>
        <time>2014-10-11T13:05:03Z</time>
      </trkpt>
      <trkpt lat="59.104811" lon="18.042907">
        <ele>34</ele>
        <time>2014-10-11T13:05:04Z</time>
      </trkpt>
      <trkpt lat="59.10488" lon="18.042855">
        <ele>34</ele>
        <time>2014-10-11T13:05:05Z</time>
      </trkpt>
      <trkpt lat="59.104945" lon="18.042807">
        <ele>34</ele>
        <time>2014-10-11T13:05:06Z</time>
      </trkpt>
      <trkpt lat="59.105023" lon="18.042737">
        <ele>34</ele>
        <time>2014-10-11T13:05:07Z</time>
      </trkpt>
      <trkpt lat="59.105097" lon="18.042712">
        <ele>34</ele>
        <time>2014-10-11T13:05:08Z</time>
      </trkpt>
      <trkpt lat="59.105168" lon="18.042662">
        <ele>34</ele>
        <time>2014-10-11T13:05:09Z</time>
      </trkpt>
      <trkpt lat="59.105232" lon="18.042617">
        <ele>34</ele>
        <time>2014-10-11T13:05:10Z</time>
      </trkpt>
      <trkpt lat="59.105297" lon="18.042566">
        <ele>34</ele>
        <time>2014-10-11T13:05:11Z</time>
      </trkpt>
      <trkpt lat="59.105366" lon="18.042511">
        <ele>34</ele>
        <time>2014-10-11T13:05:12Z</time>
      </trkpt>
      <trkpt lat="59.105443" lon="18.04239">
        <ele>33.9</ele>
        <time>2014-10-11T13:05:13Z</time>
      </trkpt>
      <trkpt lat="59.105503" lon="18.042353">
        <ele>33.8</ele>
        <time>2014-10-11T13:05:14Z</time>
      </trkpt>
      <trkpt lat="59.105569" lon="18.042292">
        <ele>33.6</ele>
        <time>2014-10-11T13:05:15Z</time>
      </trkpt>
      <trkpt lat="59.105633" lon="18.042226">
        <ele>33.5</ele>
        <time>2014-10-11T13:05:16Z</time>
      </trkpt>
      <trkpt lat="59.105681" lon="18.042198">
        <ele>33.4</ele>
        <time>2014-10-11T13:05:17Z</time>
      </trkpt>
      <trkpt lat="59.105753" lon="18.042125">
        <ele>33.2</ele>
        <time>2014-10-11T13:05:18Z</time>
      </trkpt>
      <trkpt lat="59.10582" lon="18.042074">
        <ele>33</ele>
        <time>2014-10-11T13:05:19Z</time>
      </trkpt>
      <trkpt lat="59.105883" lon="18.042046">
        <ele>32.9</ele>
        <time>2014-10-11T13:05:20Z</time>
      </trkpt>
      <trkpt lat="59.105951" lon="18.041989">
        <ele>32.8</ele>
        <time>2014-10-11T13:05:21Z</time>
      </trkpt>
      <trkpt lat="59.106015" lon="18.041921">
        <ele>32.7</ele>
        <time>2014-10-11T13:05:22Z</time>
      </trkpt>
      <trkpt lat="59.106078" lon="18.041875">
        <ele>32.6</ele>
        <time>2014-10-11T13:05:23Z</time>
      </trkpt>
      <trkpt lat="59.106137" lon="18.041831">
        <ele>32.5</ele>
        <time>2014-10-11T13:05:24Z</time>
      </trkpt>
      <trkpt lat="59.106191" lon="18.041836">
        <ele>32.4</ele>
        <time>2014-10-11T13:05:25Z</time>
      </trkpt>
      <trkpt lat="59.106252" lon="18.04177">
        <ele>32.4</ele>
        <time>2014-10-11T13:05:26Z</time>
      </trkpt>
      <trkpt lat="59.106322" lon="18.041741">
        <ele>32.5</ele>
        <time>2014-10-11T13:05:27Z</time>
      </trkpt>
      <trkpt lat="59.106399" lon="18.041688">
        <ele>32.7</ele>
        <time>2014-10-11T13:05:28Z</time>
      </trkpt>
      <trkpt lat="59.106458" lon="18.041634">
        <ele>32.9</ele>
        <time>2014-10-11T13:05:29Z</time>
      </trkpt>
      <trkpt lat="59.106527" lon="18.041585">
        <ele>33.1</ele>
        <time>2014-10-11T13:05:30Z</time>
      </trkpt>
      <trkpt lat="59.106589" lon="18.041528">
        <ele>33.2</ele>
        <time>2014-10-11T13:05:31Z</time>
      </trkpt>
      <trkpt lat="59.106652" lon="18.041492">
        <ele>33.3</ele>
        <time>2014-10-11T13:05:32Z</time>
      </trkpt>
      <trkpt lat="59.106712" lon="18.041442">
        <ele>33.5</ele>
        <time>2014-10-11T13:05:33Z</time>
      </trkpt>
      <trkpt lat="59.106778" lon="18.041406">
        <ele>33.6</ele>
        <time>2014-10-11T13:05:34Z</time>
      </trkpt>
      <trkpt lat="59.106836" lon="18.041353">
        <ele>33.7</ele>
        <time>2014-10-11T13:05:35Z</time>
      </trkpt>
      <trkpt lat="59.106897" lon="18.041278">
        <ele>33.8</ele>
        <time>2014-10-11T13:05:36Z</time>
      </trkpt>
      <trkpt lat="59.106957" lon="18.041231">
        <ele>33.9</ele>
        <time>2014-10-11T13:05:37Z</time>
      </trkpt>
      <trkpt lat="59.107027" lon="18.041173">
        <ele>33.9</ele>
        <time>2014-10-11T13:05:38Z</time>
      </trkpt>
      <trkpt lat="59.107086" lon="18.041131">
        <ele>34</ele>
        <time>2014-10-11T13:05:39Z</time>
      </trkpt>
      <trkpt lat="59.10715" lon="18.041087">
        <ele>34</ele>
        <time>2014-10-11T13:05:40Z</time>
      </trkpt>
      <trkpt lat="59.107213" lon="18.041037">
        <ele>34</ele>
        <time>2014-10-11T13:05:41Z</time>
      </trkpt>
      <trkpt lat="59.107287" lon="18.040976">
        <ele>34</ele>
        <time>2014-10-11T13:05:42Z</time>
      </trkpt>
      <trkpt lat="59.107353" lon="18.040911">
        <ele>34</ele>
        <time>2014-10-11T13:05:43Z</time>
      </trkpt>
      <trkpt lat="59.107416" lon="18.040855">
        <ele>34</ele>
        <time>2014-10-11T13:05:44Z</time>
      </trkpt>
      <trkpt lat="59.107486" lon="18.040797">
        <ele>34</ele>
        <time>2014-10-11T13:05:45Z</time>
      </trkpt>
      <trkpt lat="59.107541" lon="18.040749">
        <ele>34</ele>
        <time>2014-10-11T13:05:46Z</time>
      </trkpt>
      <trkpt lat="59.10761" lon="18.040734">
        <ele>34</ele>
        <time>2014-10-11T13:05:47Z</time>
      </trkpt>
      <trkpt lat="59.107671" lon="18.0407">
        <ele>34</ele>
        <time>2014-10-11T13:05:48Z</time>
      </trkpt>
      <trkpt lat="59.107731" lon="18.040657">
        <ele>34</ele>
        <time>2014-10-11T13:05:49Z</time>
      </trkpt>
      <trkpt lat="59.107777" lon="18.040604">
        <ele>34</ele>
        <time>2014-10-11T13:05:50Z</time>
      </trkpt>
      <trkpt lat="59.107837" lon="18.040551">
        <ele>34</ele>
        <time>2014-10-11T13:05:51Z</time>
      </trkpt>
      <trkpt lat="59.107906" lon="18.040494">
        <ele>34</ele>
        <time>2014-10-11T13:05:52Z</time>
      </trkpt>
      <trkpt lat="59.107968" lon="18.040453">
        <ele>34.1</ele>
        <time>2014-10-11T13:05:53Z</time>
      </trkpt>
      <trkpt lat="59.108027" lon="18.04041">
        <ele>34.1</ele>
        <time>2014-10-11T13:05:54Z</time>
      </trkpt>
      <trkpt lat="59.108085" lon="18.040356">
        <ele>34.3</ele>
        <time>2014-10-11T13:05:55Z</time>
      </trkpt>
      <trkpt lat="59.108151" lon="18.040318">
        <ele>34.4</ele>
        <time>2014-10-11T13:05:56Z</time>
      </trkpt>
      <trkpt lat="59.108217" lon="18.040284">
        <ele>34.5</ele>
        <time>2014-10-11T13:05:57Z</time>
      </trkpt>
      <trkpt lat="59.108274" lon="18.040252">
        <ele>34.5</ele>
        <time>2014-10-11T13:05:58Z</time>
      </trkpt>
      <trkpt lat="59.108332" lon="18.040197">
        <ele>34.6</ele>
        <time>2014-10-11T13:05:59Z</time>
      </trkpt>
      <trkpt lat="59.108388" lon="18.040165">
        <ele>34.7</ele>
        <time>2014-10-11T13:06:00Z</time>
      </trkpt>
      <trkpt lat="59.108457" lon="18.040111">
        <ele>34.8</ele>
        <time>2014-10-11T13:06:01Z</time>
      </trkpt>
      <trkpt lat="59.108515" lon="18.040056">
        <ele>34.8</ele>
        <time>2014-10-11T13:06:02Z</time>
      </trkpt>
      <trkpt lat="59.108575" lon="18.039991">
        <ele>34.9</ele>
        <time>2014-10-11T13:06:03Z</time>
      </trkpt>
      <trkpt lat="59.108632" lon="18.039921">
        <ele>34.9</ele>
        <time>2014-10-11T13:06:04Z</time>
      </trkpt>
      <trkpt lat="59.108703" lon="18.039865">
        <ele>35</ele>
        <time>2014-10-11T13:06:05Z</time>
      </trkpt>
      <trkpt lat="59.108757" lon="18.039813">
        <ele>35</ele>
        <time>2014-10-11T13:06:06Z</time>
      </trkpt>
      <trkpt lat="59.108825" lon="18.039766">
        <ele>35</ele>
        <time>2014-10-11T13:06:07Z</time>
      </trkpt>
      <trkpt lat="59.108887" lon="18.039722">
        <ele>35</ele>
        <time>2014-10-11T13:06:08Z</time>
      </trkpt>
      <trkpt lat="59.10894" lon="18.039661">
        <ele>35</ele>
        <time>2014-10-11T13:06:09Z</time>
      </trkpt>
      <trkpt lat="59.109002" lon="18.039617">
        <ele>35</ele>
        <time>2014-10-11T13:06:10Z</time>
      </trkpt>
      <trkpt lat="59.109069" lon="18.039556">
        <ele>35</ele>
        <time>2014-10-11T13:06:11Z</time>
      </trkpt>
      <trkpt lat="59.109123" lon="18.039496">
        <ele>35</ele>
        <time>2014-10-11T13:06:12Z</time>
      </trkpt>
      <trkpt lat="59.10919" lon="18.039419">
        <ele>35</ele>
        <time>2014-10-11T13:06:13Z</time>
      </trkpt>
      <trkpt lat="59.109242" lon="18.03933">
        <ele>35</ele>
        <time>2014-10-11T13:06:14Z</time>
      </trkpt>
      <trkpt lat="59.109296" lon="18.039235">
        <ele>35</ele>
        <time>2014-10-11T13:06:15Z</time>
      </trkpt>
      <trkpt lat="59.109348" lon="18.03913">
        <ele>35</ele>
        <time>2014-10-11T13:06:16Z</time>
      </trkpt>
      <trkpt lat="59.109392" lon="18.039018">
        <ele>35</ele>
        <time>2014-10-11T13:06:17Z</time>
      </trkpt>
      <trkpt lat="59.109437" lon="18.038905">
        <ele>35</ele>
        <time>2014-10-11T13:06:18Z</time>
      </trkpt>
      <trkpt lat="59.109483" lon="18.03879">
        <ele>35</ele>
        <time>2014-10-11T13:06:19Z</time>
      </trkpt>
      <trkpt lat="59.109541" lon="18.038659">
        <ele>34.9</ele>
        <time>2014-10-11T13:06:20Z</time>
      </trkpt>
      <trkpt lat="59.10957" lon="18.03855">
        <ele>34.8</ele>
        <time>2014-10-11T13:06:21Z</time>
      </trkpt>
      <trkpt lat="59.109617" lon="18.038442">
        <ele>34.7</ele>
        <time>2014-10-11T13:06:22Z</time>
      </trkpt>
      <trkpt lat="59.109664" lon="18.038329">
        <ele>34.6</ele>
        <time>2014-10-11T13:06:23Z</time>
      </trkpt>
      <trkpt lat="59.109713" lon="18.038227">
        <ele>34.5</ele>
        <time>2014-10-11T13:06:24Z</time>
      </trkpt>
      <trkpt lat="59.109756" lon="18.038121">
        <ele>34.5</ele>
        <time>2014-10-11T13:06:25Z</time>
      </trkpt>
      <trkpt lat="59.109804" lon="18.038031">
        <ele>34.4</ele>
        <time>2014-10-11T13:06:26Z</time>
      </trkpt>
      <trkpt lat="59.109851" lon="18.037926">
        <ele>34.3</ele>
        <time>2014-10-11T13:06:27Z</time>
      </trkpt>
      <trkpt lat="59.109891" lon="18.037834">
        <ele>34.4</ele>
        <time>2014-10-11T13:06:28Z</time>
      </trkpt>
      <trkpt lat="59.109944" lon="18.037719">
        <ele>34.4</ele>
        <time>2014-10-11T13:06:29Z</time>
      </trkpt>
      <trkpt lat="59.109989" lon="18.037603">
        <ele>34.5</ele>
        <time>2014-10-11T13:06:30Z</time>
      </trkpt>
      <trkpt lat="59.110034" lon="18.037497">
        <ele>34.5</ele>
        <time>2014-10-11T13:06:31Z</time>
      </trkpt>
      <trkpt lat="59.110074" lon="18.037385">
        <ele>34.6</ele>
        <time>2014-10-11T13:06:32Z</time>
      </trkpt>
      <trkpt lat="59.110124" lon="18.037267">
        <ele>34.6</ele>
        <time>2014-10-11T13:06:33Z</time>
      </trkpt>
      <trkpt lat="59.110166" lon="18.037171">
        <ele>34.7</ele>
        <time>2014-10-11T13:06:34Z</time>
      </trkpt>
      <trkpt lat="59.110213" lon="18.037058">
        <ele>34.7</ele>
        <time>2014-10-11T13:06:35Z</time>
      </trkpt>
      <trkpt lat="59.110259" lon="18.036949">
        <ele>34.7</ele>
        <time>2014-10-11T13:06:36Z</time>
      </trkpt>
      <trkpt lat="59.110305" lon="18.03686">
        <ele>34.6</ele>
        <time>2014-10-11T13:06:37Z</time>
      </trkpt>
      <trkpt lat="59.110348" lon="18.036771">
        <ele>34.6</ele>
        <time>2014-10-11T13:06:38Z</time>
      </trkpt>
      <trkpt lat="59.110388" lon="18.036684">
        <ele>34.5</ele>
        <time>2014-10-11T13:06:39Z</time>
      </trkpt>
      <trkpt lat="59.110433" lon="18.036604">
        <ele>34.5</ele>
        <time>2014-10-11T13:06:40Z</time>
      </trkpt>
      <trkpt lat="59.110478" lon="18.036516">
        <ele>34.6</ele>
        <time>2014-10-11T13:06:41Z</time>
      </trkpt>
      <trkpt lat="59.110528" lon="18.036431">
        <ele>34.8</ele>
        <time>2014-10-11T13:06:42Z</time>
      </trkpt>
      <trkpt lat="59.110576" lon="18.036358">
        <ele>34.9</ele>
        <time>2014-10-11T13:06:43Z</time>
      </trkpt>
      <trkpt lat="59.11063" lon="18.036284">
        <ele>35.1</ele>
        <time>2014-10-11T13:06:44Z</time>
      </trkpt>
      <trkpt lat="59.110677" lon="18.036209">
        <ele>35.2</ele>
        <time>2014-10-11T13:06:45Z</time>
      </trkpt>
      <trkpt lat="59.110731" lon="18.03614">
        <ele>35.4</ele>
        <time>2014-10-11T13:06:46Z</time>
      </trkpt>
      <trkpt lat="59.110775" lon="18.036052">
        <ele>35.5</ele>
        <time>2014-10-11T13:06:47Z</time>
      </trkpt>
      <trkpt lat="59.110826" lon="18.035977">
        <ele>35.6</ele>
        <time>2014-10-11T13:06:48Z</time>
      </trkpt>
      <trkpt lat="59.110887" lon="18.035888">
        <ele>35.8</ele>
        <time>2014-10-11T13:06:49Z</time>
      </trkpt>
      <trkpt lat="59.110937" lon="18.035836">
        <ele>36</ele>
        <time>2014-10-11T13:06:50Z</time>
      </trkpt>
      <trkpt lat="59.110988" lon="18.035764">
        <ele>36.2</ele>
        <time>2014-10-11T13:06:51Z</time>
      </trkpt>
      <trkpt lat="59.111045" lon="18.035686">
        <ele>36.3</ele>
        <time>2014-10-11T13:06:52Z</time>
      </trkpt>
      <trkpt lat="59.111097" lon="18.03562">
        <ele>36.5</ele>
        <time>2014-10-11T13:06:53Z</time>
      </trkpt>
      <trkpt lat="59.111134" lon="18.035558">
        <ele>36.6</ele>
        <time>2014-10-11T13:06:54Z</time>
      </trkpt>
      <trkpt lat="59.111186" lon="18.035504">
        <ele>36.8</ele>
        <time>2014-10-11T13:06:55Z</time>
      </trkpt>
      <trkpt lat="59.111232" lon="18.035446">
        <ele>36.9</ele>
        <time>2014-10-11T13:06:56Z</time>
      </trkpt>
      <trkpt lat="59.11129" lon="18.035374">
        <ele>37.2</ele>
        <time>2014-10-11T13:06:57Z</time>
      </trkpt>
      <trkpt lat="59.111343" lon="18.035332">
        <ele>37.5</ele>
        <time>2014-10-11T13:06:58Z</time>
      </trkpt>
      <trkpt lat="59.111403" lon="18.035285">
        <ele>37.9</ele>
        <time>2014-10-11T13:06:59Z</time>
      </trkpt>
      <trkpt lat="59.111459" lon="18.035238">
        <ele>38.1</ele>
        <time>2014-10-11T13:07:00Z</time>
      </trkpt>
      <trkpt lat="59.111517" lon="18.035178">
        <ele>38.4</ele>
        <time>2014-10-11T13:07:01Z</time>
      </trkpt>
      <trkpt lat="59.111562" lon="18.035116">
        <ele>38.5</ele>
        <time>2014-10-11T13:07:02Z</time>
      </trkpt>
      <trkpt lat="59.111621" lon="18.035074">
        <ele>38.7</ele>
        <time>2014-10-11T13:07:03Z</time>
      </trkpt>
      <trkpt lat="59.111685" lon="18.035032">
        <ele>38.9</ele>
        <time>2014-10-11T13:07:04Z</time>
      </trkpt>
      <trkpt lat="59.111745" lon="18.034991">
        <ele>39.1</ele>
        <time>2014-10-11T13:07:05Z</time>
      </trkpt>
      <trkpt lat="59.111791" lon="18.03495">
        <ele>39.2</ele>
        <time>2014-10-11T13:07:06Z</time>
      </trkpt>
      <trkpt lat="59.11184" lon="18.034902">
        <ele>39.3</ele>
        <time>2014-10-11T13:07:07Z</time>
      </trkpt>
      <trkpt lat="59.111898" lon="18.034849">
        <ele>39.4</ele>
        <time>2014-10-11T13:07:08Z</time>
      </trkpt>
      <trkpt lat="59.111948" lon="18.034828">
        <ele>39.5</ele>
        <time>2014-10-11T13:07:09Z</time>
      </trkpt>
      <trkpt lat="59.111992" lon="18.034809">
        <ele>39.7</ele>
        <time>2014-10-11T13:07:10Z</time>
      </trkpt>
      <trkpt lat="59.11204" lon="18.034779">
        <ele>39.7</ele>
        <time>2014-10-11T13:07:11Z</time>
      </trkpt>
      <trkpt lat="59.112084" lon="18.034759">
        <ele>39.8</ele>
        <time>2014-10-11T13:07:12Z</time>
      </trkpt>
      <trkpt lat="59.112132" lon="18.034735">
        <ele>40.2</ele>
        <time>2014-10-11T13:07:13Z</time>
      </trkpt>
      <trkpt lat="59.112181" lon="18.034722">
        <ele>40.6</ele>
        <time>2014-10-11T13:07:14Z</time>
      </trkpt>
      <trkpt lat="59.112228" lon="18.034708">
        <ele>41</ele>
        <time>2014-10-11T13:07:15Z</time>
      </trkpt>
      <trkpt lat="59.112277" lon="18.034684">
        <ele>41.4</ele>
        <time>2014-10-11T13:07:16Z</time>
      </trkpt>
      <trkpt lat="59.112327" lon="18.03467">
        <ele>41.8</ele>
        <time>2014-10-11T13:07:17Z</time>
      </trkpt>
      <trkpt lat="59.112368" lon="18.034658">
        <ele>42.1</ele>
        <time>2014-10-11T13:07:18Z</time>
      </trkpt>
      <trkpt lat="59.112417" lon="18.034635">
        <ele>42.5</ele>
        <time>2014-10-11T13:07:19Z</time>
      </trkpt>
      <trkpt lat="59.112467" lon="18.034615">
        <ele>42.9</ele>
        <time>2014-10-11T13:07:20Z</time>
      </trkpt>
      <trkpt lat="59.112517" lon="18.034605">
        <ele>43.3</ele>
        <time>2014-10-11T13:07:21Z</time>
      </trkpt>
      <trkpt lat="59.112569" lon="18.034583">
        <ele>43.7</ele>
        <time>2014-10-11T13:07:22Z</time>
      </trkpt>
      <trkpt lat="59.11262" lon="18.034569">
        <ele>44.1</ele>
        <time>2014-10-11T13:07:23Z</time>
      </trkpt>
      <trkpt lat="59.112676" lon="18.034549">
        <ele>44.5</ele>
        <time>2014-10-11T13:07:24Z</time>
      </trkpt>
      <trkpt lat="59.112723" lon="18.034527">
        <ele>44.9</ele>
        <time>2014-10-11T13:07:25Z</time>
      </trkpt>
      <trkpt lat="59.112756" lon="18.034502">
        <ele>45.1</ele>
        <time>2014-10-11T13:07:26Z</time>
      </trkpt>
      <trkpt lat="59.112791" lon="18.034479">
        <ele>45.3</ele>
        <time>2014-10-11T13:07:27Z</time>
      </trkpt>
      <trkpt lat="59.112835" lon="18.034443">
        <ele>45.6</ele>
        <time>2014-10-11T13:07:28Z</time>
      </trkpt>
      <trkpt lat="59.11288" lon="18.034403">
        <ele>45.8</ele>
        <time>2014-10-11T13:07:29Z</time>
      </trkpt>
      <trkpt lat="59.112942" lon="18.034387">
        <ele>46.2</ele>
        <time>2014-10-11T13:07:30Z</time>
      </trkpt>
      <trkpt lat="59.112987" lon="18.034346">
        <ele>46.4</ele>
        <time>2014-10-11T13:07:31Z</time>
      </trkpt>
      <trkpt lat="59.113031" lon="18.034291">
        <ele>46.4</ele>
        <time>2014-10-11T13:07:32Z</time>
      </trkpt>
      <trkpt lat="59.113076" lon="18.034233">
        <ele>46.5</ele>
        <time>2014-10-11T13:07:33Z</time>
      </trkpt>
      <trkpt lat="59.113119" lon="18.034152">
        <ele>46.4</ele>
        <time>2014-10-11T13:07:34Z</time>
      </trkpt>
      <trkpt lat="59.113164" lon="18.03408">
        <ele>46.4</ele>
        <time>2014-10-11T13:07:35Z</time>
      </trkpt>
      <trkpt lat="59.113197" lon="18.033993">
        <ele>46.2</ele>
        <time>2014-10-11T13:07:36Z</time>
      </trkpt>
      <trkpt lat="59.113243" lon="18.033913">
        <ele>46.1</ele>
        <time>2014-10-11T13:07:37Z</time>
      </trkpt>
      <trkpt lat="59.113284" lon="18.03384">
        <ele>46.1</ele>
        <time>2014-10-11T13:07:38Z</time>
      </trkpt>
      <trkpt lat="59.113332" lon="18.033771">
        <ele>46.1</ele>
        <time>2014-10-11T13:07:39Z</time>
      </trkpt>
      <trkpt lat="59.113374" lon="18.033698">
        <ele>46.2</ele>
        <time>2014-10-11T13:07:40Z</time>
      </trkpt>
      <trkpt lat="59.113408" lon="18.03362">
        <ele>46.2</ele>
        <time>2014-10-11T13:07:41Z</time>
      </trkpt>
      <trkpt lat="59.113444" lon="18.033542">
        <ele>46.3</ele>
        <time>2014-10-11T13:07:42Z</time>
      </trkpt>
      <trkpt lat="59.113474" lon="18.033465">
        <ele>46.3</ele>
        <time>2014-10-11T13:07:43Z</time>
      </trkpt>
      <trkpt lat="59.113511" lon="18.033388">
        <ele>46.4</ele>
        <time>2014-10-11T13:07:44Z</time>
      </trkpt>
      <trkpt lat="59.113545" lon="18.033307">
        <ele>46.5</ele>
        <time>2014-10-11T13:07:45Z</time>
      </trkpt>
      <trkpt lat="59.113588" lon="18.03321">
        <ele>46.5</ele>
        <time>2014-10-11T13:07:46Z</time>
      </trkpt>
      <trkpt lat="59.113617" lon="18.033137">
        <ele>46.6</ele>
        <time>2014-10-11T13:07:47Z</time>
      </trkpt>
      <trkpt lat="59.113659" lon="18.033043">
        <ele>46.6</ele>
        <time>2014-10-11T13:07:48Z</time>
      </trkpt>
      <trkpt lat="59.113682" lon="18.032945">
        <ele>46.6</ele>
        <time>2014-10-11T13:07:49Z</time>
      </trkpt>
      <trkpt lat="59.113709" lon="18.032838">
        <ele>46.6</ele>
        <time>2014-10-11T13:07:50Z</time>
      </trkpt>
      <trkpt lat="59.11373" lon="18.032724">
        <ele>46.6</ele>
        <time>2014-10-11T13:07:51Z</time>
      </trkpt>
      <trkpt lat="59.113731" lon="18.032632">
        <ele>46.5</ele>
        <time>2014-10-11T13:07:52Z</time>
      </trkpt>
      <trkpt lat="59.113741" lon="18.031861">
        <ele>45.1</ele>
        <time>2014-10-11T13:07:59Z</time>
      </trkpt>
      <trkpt lat="59.113735" lon="18.031708">
        <ele>44.5</ele>
        <time>2014-10-11T13:08:00Z</time>
      </trkpt>
      <trkpt lat="59.113734" lon="18.031569">
        <ele>44</ele>
        <time>2014-10-11T13:08:01Z</time>
      </trkpt>
      <trkpt lat="59.113738" lon="18.031432">
        <ele>43.6</ele>
        <time>2014-10-11T13:08:02Z</time>
      </trkpt>
      <trkpt lat="59.113732" lon="18.031297">
        <ele>43.1</ele>
        <time>2014-10-11T13:08:03Z</time>
      </trkpt>
      <trkpt lat="59.113731" lon="18.031176">
        <ele>42.7</ele>
        <time>2014-10-11T13:08:04Z</time>
      </trkpt>
      <trkpt lat="59.11373" lon="18.031031">
        <ele>42.4</ele>
        <time>2014-10-11T13:08:05Z</time>
      </trkpt>
      <trkpt lat="59.113732" lon="18.030894">
        <ele>42</ele>
        <time>2014-10-11T13:08:06Z</time>
      </trkpt>
      <trkpt lat="59.113736" lon="18.030752">
        <ele>41.7</ele>
        <time>2014-10-11T13:08:07Z</time>
      </trkpt>
      <trkpt lat="59.11374" lon="18.030615">
        <ele>41.4</ele>
        <time>2014-10-11T13:08:08Z</time>
      </trkpt>
      <trkpt lat="59.113747" lon="18.030461">
        <ele>41.1</ele>
        <time>2014-10-11T13:08:09Z</time>
      </trkpt>
      <trkpt lat="59.113757" lon="18.030329">
        <ele>41</ele>
        <time>2014-10-11T13:08:10Z</time>
      </trkpt>
      <trkpt lat="59.113776" lon="18.030178">
        <ele>41</ele>
        <time>2014-10-11T13:08:11Z</time>
      </trkpt>
      <trkpt lat="59.113798" lon="18.030016">
        <ele>41.1</ele>
        <time>2014-10-11T13:08:12Z</time>
      </trkpt>
      <trkpt lat="59.113821" lon="18.029934">
        <ele>41.2</ele>
        <time>2014-10-11T13:08:13Z</time>
      </trkpt>
      <trkpt lat="59.113841" lon="18.029774">
        <ele>41.2</ele>
        <time>2014-10-11T13:08:14Z</time>
      </trkpt>
      <trkpt lat="59.113874" lon="18.029645">
        <ele>41.3</ele>
        <time>2014-10-11T13:08:15Z</time>
      </trkpt>
      <trkpt lat="59.113901" lon="18.029518">
        <ele>41.4</ele>
        <time>2014-10-11T13:08:16Z</time>
      </trkpt>
      <trkpt lat="59.113929" lon="18.029369">
        <ele>41.6</ele>
        <time>2014-10-11T13:08:17Z</time>
      </trkpt>
      <trkpt lat="59.11397" lon="18.029229">
        <ele>41.8</ele>
        <time>2014-10-11T13:08:18Z</time>
      </trkpt>
      <trkpt lat="59.113992" lon="18.0291">
        <ele>41.8</ele>
        <time>2014-10-11T13:08:19Z</time>
      </trkpt>
      <trkpt lat="59.114043" lon="18.029002">
        <ele>42.1</ele>
        <time>2014-10-11T13:08:20Z</time>
      </trkpt>
      <trkpt lat="59.114094" lon="18.028895">
        <ele>42.3</ele>
        <time>2014-10-11T13:08:21Z</time>
      </trkpt>
      <trkpt lat="59.114149" lon="18.028807">
        <ele>42.5</ele>
        <time>2014-10-11T13:08:22Z</time>
      </trkpt>
      <trkpt lat="59.114194" lon="18.02869">
        <ele>42.6</ele>
        <time>2014-10-11T13:08:23Z</time>
      </trkpt>
      <trkpt lat="59.114246" lon="18.028596">
        <ele>42.7</ele>
        <time>2014-10-11T13:08:24Z</time>
      </trkpt>
      <trkpt lat="59.114309" lon="18.028516">
        <ele>42.9</ele>
        <time>2014-10-11T13:08:25Z</time>
      </trkpt>
      <trkpt lat="59.114362" lon="18.028426">
        <ele>42.9</ele>
        <time>2014-10-11T13:08:26Z</time>
      </trkpt>
      <trkpt lat="59.114417" lon="18.02836">
        <ele>43</ele>
        <time>2014-10-11T13:08:27Z</time>
      </trkpt>
      <trkpt lat="59.114466" lon="18.028278">
        <ele>42.9</ele>
        <time>2014-10-11T13:08:28Z</time>
      </trkpt>
      <trkpt lat="59.114508" lon="18.028165">
        <ele>42.7</ele>
        <time>2014-10-11T13:08:29Z</time>
      </trkpt>
      <trkpt lat="59.114566" lon="18.028016">
        <ele>42.3</ele>
        <time>2014-10-11T13:08:30Z</time>
      </trkpt>
      <trkpt lat="59.114612" lon="18.027895">
        <ele>42.2</ele>
        <time>2014-10-11T13:08:31Z</time>
      </trkpt>
      <trkpt lat="59.114657" lon="18.027789">
        <ele>42.2</ele>
        <time>2014-10-11T13:08:32Z</time>
      </trkpt>
      <trkpt lat="59.114714" lon="18.02768">
        <ele>42.3</ele>
        <time>2014-10-11T13:08:33Z</time>
      </trkpt>
      <trkpt lat="59.114771" lon="18.02757">
        <ele>42.3</ele>
        <time>2014-10-11T13:08:34Z</time>
      </trkpt>
      <trkpt lat="59.114831" lon="18.027452">
        <ele>42.3</ele>
        <time>2014-10-11T13:08:35Z</time>
      </trkpt>
      <trkpt lat="59.114887" lon="18.027352">
        <ele>42.3</ele>
        <time>2014-10-11T13:08:36Z</time>
      </trkpt>
      <trkpt lat="59.114946" lon="18.027246">
        <ele>42.3</ele>
        <time>2014-10-11T13:08:37Z</time>
      </trkpt>
      <trkpt lat="59.115011" lon="18.027136">
        <ele>42.2</ele>
        <time>2014-10-11T13:08:38Z</time>
      </trkpt>
      <trkpt lat="59.115069" lon="18.027049">
        <ele>42.3</ele>
        <time>2014-10-11T13:08:39Z</time>
      </trkpt>
      <trkpt lat="59.115131" lon="18.026955">
        <ele>42.7</ele>
        <time>2014-10-11T13:08:40Z</time>
      </trkpt>
      <trkpt lat="59.115189" lon="18.026852">
        <ele>43</ele>
        <time>2014-10-11T13:08:41Z</time>
      </trkpt>
      <trkpt lat="59.11524" lon="18.026774">
        <ele>43.2</ele>
        <time>2014-10-11T13:08:42Z</time>
      </trkpt>
      <trkpt lat="59.115298" lon="18.026687">
        <ele>43.5</ele>
        <time>2014-10-11T13:08:43Z</time>
      </trkpt>
      <trkpt lat="59.115343" lon="18.026613">
        <ele>43.7</ele>
        <time>2014-10-11T13:08:44Z</time>
      </trkpt>
      <trkpt lat="59.115397" lon="18.02654">
        <ele>43.9</ele>
        <time>2014-10-11T13:08:45Z</time>
      </trkpt>
      <trkpt lat="59.11546" lon="18.02646">
        <ele>44.2</ele>
        <time>2014-10-11T13:08:46Z</time>
      </trkpt>
      <trkpt lat="59.115518" lon="18.026388">
        <ele>44.5</ele>
        <time>2014-10-11T13:08:47Z</time>
      </trkpt>
      <trkpt lat="59.11558" lon="18.026305">
        <ele>44.7</ele>
        <time>2014-10-11T13:08:48Z</time>
      </trkpt>
      <trkpt lat="59.115646" lon="18.026219">
        <ele>44.8</ele>
        <time>2014-10-11T13:08:49Z</time>
      </trkpt>
      <trkpt lat="59.115701" lon="18.026151">
        <ele>44.8</ele>
        <time>2014-10-11T13:08:50Z</time>
      </trkpt>
      <trkpt lat="59.115769" lon="18.026082">
        <ele>44.8</ele>
        <time>2014-10-11T13:08:51Z</time>
      </trkpt>
      <trkpt lat="59.115843" lon="18.025996">
        <ele>44.6</ele>
        <time>2014-10-11T13:08:52Z</time>
      </trkpt>
      <trkpt lat="59.11592" lon="18.025922">
        <ele>44.4</ele>
        <time>2014-10-11T13:08:53Z</time>
      </trkpt>
      <trkpt lat="59.115994" lon="18.025838">
        <ele>44</ele>
        <time>2014-10-11T13:08:54Z</time>
      </trkpt>
      <trkpt lat="59.116056" lon="18.025765">
        <ele>43.6</ele>
        <time>2014-10-11T13:08:55Z</time>
      </trkpt>
      <trkpt lat="59.116123" lon="18.025675">
        <ele>43</ele>
        <time>2014-10-11T13:08:56Z</time>
      </trkpt>
      <trkpt lat="59.116189" lon="18.025572">
        <ele>42.3</ele>
        <time>2014-10-11T13:08:57Z</time>
      </trkpt>
      <trkpt lat="59.116247" lon="18.025481">
        <ele>41.5</ele>
        <time>2014-10-11T13:08:58Z</time>
      </trkpt>
      <trkpt lat="59.11631" lon="18.025384">
        <ele>41.7</ele>
        <time>2014-10-11T13:08:59Z</time>
      </trkpt>
      <trkpt lat="59.116333" lon="18.025306">
        <ele>42.4</ele>
        <time>2014-10-11T13:09:00Z</time>
      </trkpt>
      <trkpt lat="59.116381" lon="18.025219">
        <ele>43.3</ele>
        <time>2014-10-11T13:09:01Z</time>
      </trkpt>
      <trkpt lat="59.116443" lon="18.02507">
        <ele>44.6</ele>
        <time>2014-10-11T13:09:02Z</time>
      </trkpt>
      <trkpt lat="59.116498" lon="18.024971">
        <ele>45.5</ele>
        <time>2014-10-11T13:09:03Z</time>
      </trkpt>
      <trkpt lat="59.116544" lon="18.024858">
        <ele>46.3</ele>
        <time>2014-10-11T13:09:04Z</time>
      </trkpt>
      <trkpt lat="59.116595" lon="18.024745">
        <ele>47.1</ele>
        <time>2014-10-11T13:09:05Z</time>
      </trkpt>
      <trkpt lat="59.116645" lon="18.024647">
        <ele>47.7</ele>
        <time>2014-10-11T13:09:06Z</time>
      </trkpt>
      <trkpt lat="59.116698" lon="18.024533">
        <ele>48.2</ele>
        <time>2014-10-11T13:09:07Z</time>
      </trkpt>
      <trkpt lat="59.116735" lon="18.024418">
        <ele>48.6</ele>
        <time>2014-10-11T13:09:08Z</time>
      </trkpt>
      <trkpt lat="59.116783" lon="18.024318">
        <ele>48.9</ele>
        <time>2014-10-11T13:09:09Z</time>
      </trkpt>
      <trkpt lat="59.116829" lon="18.024208">
        <ele>49.1</ele>
        <time>2014-10-11T13:09:10Z</time>
      </trkpt>
      <trkpt lat="59.116877" lon="18.024094">
        <ele>49.2</ele>
        <time>2014-10-11T13:09:11Z</time>
      </trkpt>
      <trkpt lat="59.116924" lon="18.023977">
        <ele>49.3</ele>
        <time>2014-10-11T13:09:12Z</time>
      </trkpt>
      <trkpt lat="59.116969" lon="18.023867">
        <ele>49.3</ele>
        <time>2014-10-11T13:09:13Z</time>
      </trkpt>
      <trkpt lat="59.117011" lon="18.023755">
        <ele>49.3</ele>
        <time>2014-10-11T13:09:14Z</time>
      </trkpt>
      <trkpt lat="59.117062" lon="18.023643">
        <ele>49.6</ele>
        <time>2014-10-11T13:09:15Z</time>
      </trkpt>
      <trkpt lat="59.117108" lon="18.023532">
        <ele>49.9</ele>
        <time>2014-10-11T13:09:16Z</time>
      </trkpt>
      <trkpt lat="59.117154" lon="18.02341">
        <ele>50</ele>
        <time>2014-10-11T13:09:17Z</time>
      </trkpt>
      <trkpt lat="59.117193" lon="18.023294">
        <ele>50.2</ele>
        <time>2014-10-11T13:09:18Z</time>
      </trkpt>
      <trkpt lat="59.117241" lon="18.023198">
        <ele>50.1</ele>
        <time>2014-10-11T13:09:19Z</time>
      </trkpt>
      <trkpt lat="59.117268" lon="18.023082">
        <ele>50.2</ele>
        <time>2014-10-11T13:09:20Z</time>
      </trkpt>
      <trkpt lat="59.117305" lon="18.022963">
        <ele>50.2</ele>
        <time>2014-10-11T13:09:21Z</time>
      </trkpt>
      <trkpt lat="59.117339" lon="18.022851">
        <ele>50.1</ele>
        <time>2014-10-11T13:09:22Z</time>
      </trkpt>
      <trkpt lat="59.11733" lon="18.022693">
        <ele>50.7</ele>
        <time>2014-10-11T13:09:23Z</time>
      </trkpt>
      <trkpt lat="59.117332" lon="18.022573">
        <ele>51.1</ele>
        <time>2014-10-11T13:09:24Z</time>
      </trkpt>
      <trkpt lat="59.117351" lon="18.022429">
        <ele>51.2</ele>
        <time>2014-10-11T13:09:25Z</time>
      </trkpt>
      <trkpt lat="59.117373" lon="18.022292">
        <ele>51.2</ele>
        <time>2014-10-11T13:09:26Z</time>
      </trkpt>
      <trkpt lat="59.117394" lon="18.022149">
        <ele>51.2</ele>
        <time>2014-10-11T13:09:27Z</time>
      </trkpt>
      <trkpt lat="59.1174" lon="18.022016">
        <ele>51.3</ele>
        <time>2014-10-11T13:09:28Z</time>
      </trkpt>
      <trkpt lat="59.117422" lon="18.021868">
        <ele>50.8</ele>
        <time>2014-10-11T13:09:29Z</time>
      </trkpt>
      <trkpt lat="59.117432" lon="18.021728">
        <ele>50.6</ele>
        <time>2014-10-11T13:09:30Z</time>
      </trkpt>
      <trkpt lat="59.117439" lon="18.021597">
        <ele>50.4</ele>
        <time>2014-10-11T13:09:31Z</time>
      </trkpt>
      <trkpt lat="59.117455" lon="18.02145">
        <ele>50.1</ele>
        <time>2014-10-11T13:09:32Z</time>
      </trkpt>
      <trkpt lat="59.117477" lon="18.021312">
        <ele>49.8</ele>
        <time>2014-10-11T13:09:33Z</time>
      </trkpt>
      <trkpt lat="59.117494" lon="18.021177">
        <ele>49.6</ele>
        <time>2014-10-11T13:09:34Z</time>
      </trkpt>
      <trkpt lat="59.117509" lon="18.021054">
        <ele>49.5</ele>
        <time>2014-10-11T13:09:35Z</time>
      </trkpt>
      <trkpt lat="59.117526" lon="18.020932">
        <ele>49.4</ele>
        <time>2014-10-11T13:09:36Z</time>
      </trkpt>
      <trkpt lat="59.117546" lon="18.020797">
        <ele>49.3</ele>
        <time>2014-10-11T13:09:37Z</time>
      </trkpt>
      <trkpt lat="59.117563" lon="18.020693">
        <ele>49.2</ele>
        <time>2014-10-11T13:09:38Z</time>
      </trkpt>
      <trkpt lat="59.117576" lon="18.020584">
        <ele>49.1</ele>
        <time>2014-10-11T13:09:39Z</time>
      </trkpt>
      <trkpt lat="59.117591" lon="18.020466">
        <ele>49.1</ele>
        <time>2014-10-11T13:09:40Z</time>
      </trkpt>
      <trkpt lat="59.117617" lon="18.020358">
        <ele>48.9</ele>
        <time>2014-10-11T13:09:41Z</time>
      </trkpt>
      <trkpt lat="59.117639" lon="18.02025">
        <ele>48.8</ele>
        <time>2014-10-11T13:09:42Z</time>
      </trkpt>
      <trkpt lat="59.117666" lon="18.020134">
        <ele>48.7</ele>
        <time>2014-10-11T13:09:43Z</time>
      </trkpt>
      <trkpt lat="59.117695" lon="18.020018">
        <ele>48.6</ele>
        <time>2014-10-11T13:09:44Z</time>
      </trkpt>
      <trkpt lat="59.117721" lon="18.019911">
        <ele>48.5</ele>
        <time>2014-10-11T13:09:45Z</time>
      </trkpt>
      <trkpt lat="59.117746" lon="18.019822">
        <ele>48.5</ele>
        <time>2014-10-11T13:09:46Z</time>
      </trkpt>
      <trkpt lat="59.117775" lon="18.019726">
        <ele>48.5</ele>
        <time>2014-10-11T13:09:47Z</time>
      </trkpt>
      <trkpt lat="59.117806" lon="18.019634">
        <ele>48.4</ele>
        <time>2014-10-11T13:09:48Z</time>
      </trkpt>
      <trkpt lat="59.117837" lon="18.019545">
        <ele>48.4</ele>
        <time>2014-10-11T13:09:49Z</time>
      </trkpt>
      <trkpt lat="59.117871" lon="18.019451">
        <ele>48.4</ele>
        <time>2014-10-11T13:09:50Z</time>
      </trkpt>
      <trkpt lat="59.117901" lon="18.019359">
        <ele>48.3</ele>
        <time>2014-10-11T13:09:51Z</time>
      </trkpt>
      <trkpt lat="59.117929" lon="18.019274">
        <ele>48.3</ele>
        <time>2014-10-11T13:09:52Z</time>
      </trkpt>
      <trkpt lat="59.11796" lon="18.019171">
        <ele>48.2</ele>
        <time>2014-10-11T13:09:53Z</time>
      </trkpt>
      <trkpt lat="59.117987" lon="18.019107">
        <ele>48</ele>
        <time>2014-10-11T13:09:54Z</time>
      </trkpt>
      <trkpt lat="59.117999" lon="18.019025">
        <ele>48</ele>
        <time>2014-10-11T13:09:55Z</time>
      </trkpt>
      <trkpt lat="59.118023" lon="18.018958">
        <ele>47.9</ele>
        <time>2014-10-11T13:09:56Z</time>
      </trkpt>
      <trkpt lat="59.118046" lon="18.01891">
        <ele>47.8</ele>
        <time>2014-10-11T13:09:57Z</time>
      </trkpt>
      <trkpt lat="59.118063" lon="18.01883">
        <ele>47.7</ele>
        <time>2014-10-11T13:09:58Z</time>
      </trkpt>
      <trkpt lat="59.118082" lon="18.018759">
        <ele>47.6</ele>
        <time>2014-10-11T13:09:59Z</time>
      </trkpt>
      <trkpt lat="59.118101" lon="18.018689">
        <ele>47.6</ele>
        <time>2014-10-11T13:10:00Z</time>
      </trkpt>
      <trkpt lat="59.11812" lon="18.018606">
        <ele>47.6</ele>
        <time>2014-10-11T13:10:01Z</time>
      </trkpt>
      <trkpt lat="59.118143" lon="18.018528">
        <ele>47.6</ele>
        <time>2014-10-11T13:10:02Z</time>
      </trkpt>
      <trkpt lat="59.118171" lon="18.01845">
        <ele>47.5</ele>
        <time>2014-10-11T13:10:03Z</time>
      </trkpt>
      <trkpt lat="59.1182" lon="18.018374">
        <ele>47.4</ele>
        <time>2014-10-11T13:10:04Z</time>
      </trkpt>
      <trkpt lat="59.118221" lon="18.018313">
        <ele>47.3</ele>
        <time>2014-10-11T13:10:05Z</time>
      </trkpt>
      <trkpt lat="59.118225" lon="18.018254">
        <ele>47.4</ele>
        <time>2014-10-11T13:10:06Z</time>
      </trkpt>
      <trkpt lat="59.118234" lon="18.018197">
        <ele>47.4</ele>
        <time>2014-10-11T13:10:08Z</time>
      </trkpt>
      <trkpt lat="59.118251" lon="18.018028">
        <ele>47.6</ele>
        <time>2014-10-11T13:12:24Z</time>
      </trkpt>
      <trkpt lat="59.118259" lon="18.01797">
        <ele>47.6</ele>
        <time>2014-10-11T13:12:25Z</time>
      </trkpt>
      <trkpt lat="59.118263" lon="18.017878">
        <ele>47.7</ele>
        <time>2014-10-11T13:12:26Z</time>
      </trkpt>
      <trkpt lat="59.118253" lon="18.017741">
        <ele>47.9</ele>
        <time>2014-10-11T13:12:27Z</time>
      </trkpt>
      <trkpt lat="59.118229" lon="18.017643">
        <ele>48.2</ele>
        <time>2014-10-11T13:12:28Z</time>
      </trkpt>
      <trkpt lat="59.118194" lon="18.017563">
        <ele>48.6</ele>
        <time>2014-10-11T13:12:29Z</time>
      </trkpt>
      <trkpt lat="59.118154" lon="18.017492">
        <ele>49.1</ele>
        <time>2014-10-11T13:12:30Z</time>
      </trkpt>
      <trkpt lat="59.118105" lon="18.01743">
        <ele>49.6</ele>
        <time>2014-10-11T13:12:31Z</time>
      </trkpt>
      <trkpt lat="59.118051" lon="18.017378">
        <ele>50.3</ele>
        <time>2014-10-11T13:12:32Z</time>
      </trkpt>
      <trkpt lat="59.117997" lon="18.017331">
        <ele>50.9</ele>
        <time>2014-10-11T13:12:33Z</time>
      </trkpt>
      <trkpt lat="59.117941" lon="18.017283">
        <ele>51.5</ele>
        <time>2014-10-11T13:12:34Z</time>
      </trkpt>
      <trkpt lat="59.117887" lon="18.017245">
        <ele>51.8</ele>
        <time>2014-10-11T13:12:35Z</time>
      </trkpt>
      <trkpt lat="59.117834" lon="18.017196">
        <ele>51.9</ele>
        <time>2014-10-11T13:12:36Z</time>
      </trkpt>
      <trkpt lat="59.117778" lon="18.017158">
        <ele>51.9</ele>
        <time>2014-10-11T13:12:37Z</time>
      </trkpt>
      <trkpt lat="59.117722" lon="18.017111">
        <ele>52</ele>
        <time>2014-10-11T13:12:38Z</time>
      </trkpt>
      <trkpt lat="59.117668" lon="18.017073">
        <ele>52.1</ele>
        <time>2014-10-11T13:12:39Z</time>
      </trkpt>
      <trkpt lat="59.117616" lon="18.017035">
        <ele>52.4</ele>
        <time>2014-10-11T13:12:40Z</time>
      </trkpt>
      <trkpt lat="59.117565" lon="18.016982">
        <ele>52.9</ele>
        <time>2014-10-11T13:12:41Z</time>
      </trkpt>
      <trkpt lat="59.117518" lon="18.016936">
        <ele>53.2</ele>
        <time>2014-10-11T13:12:42Z</time>
      </trkpt>
      <trkpt lat="59.117481" lon="18.016891">
        <ele>53.6</ele>
        <time>2014-10-11T13:12:43Z</time>
      </trkpt>
      <trkpt lat="59.117437" lon="18.01685">
        <ele>54</ele>
        <time>2014-10-11T13:12:44Z</time>
      </trkpt>
      <trkpt lat="59.117399" lon="18.016817">
        <ele>54.2</ele>
        <time>2014-10-11T13:12:45Z</time>
      </trkpt>
      <trkpt lat="59.117357" lon="18.016791">
        <ele>54.5</ele>
        <time>2014-10-11T13:12:46Z</time>
      </trkpt>
      <trkpt lat="59.117317" lon="18.016756">
        <ele>54.7</ele>
        <time>2014-10-11T13:12:47Z</time>
      </trkpt>
      <trkpt lat="59.117281" lon="18.016717">
        <ele>55.1</ele>
        <time>2014-10-11T13:12:48Z</time>
      </trkpt>
      <trkpt lat="59.117256" lon="18.0167">
        <ele>55.2</ele>
        <time>2014-10-11T13:12:49Z</time>
      </trkpt>
      <trkpt lat="59.117212" lon="18.016659">
        <ele>55.6</ele>
        <time>2014-10-11T13:12:51Z</time>
      </trkpt>
      <trkpt lat="59.117182" lon="18.016623">
        <ele>55.9</ele>
        <time>2014-10-11T13:12:52Z</time>
      </trkpt>
      <trkpt lat="59.117147" lon="18.016592">
        <ele>56.1</ele>
        <time>2014-10-11T13:12:53Z</time>
      </trkpt>
      <trkpt lat="59.11703" lon="18.016522">
        <ele>56.7</ele>
        <time>2014-10-11T13:12:57Z</time>
      </trkpt>
      <trkpt lat="59.117001" lon="18.0165">
        <ele>56.8</ele>
        <time>2014-10-11T13:12:58Z</time>
      </trkpt>
      <trkpt lat="59.11697" lon="18.01648">
        <ele>57</ele>
        <time>2014-10-11T13:12:59Z</time>
      </trkpt>
      <trkpt lat="59.11694" lon="18.01646">
        <ele>57.1</ele>
        <time>2014-10-11T13:13:00Z</time>
      </trkpt>
      <trkpt lat="59.11691" lon="18.016438">
        <ele>57.2</ele>
        <time>2014-10-11T13:13:01Z</time>
      </trkpt>
      <trkpt lat="59.11688" lon="18.016412">
        <ele>57.3</ele>
        <time>2014-10-11T13:13:02Z</time>
      </trkpt>
      <trkpt lat="59.116852" lon="18.016389">
        <ele>57.4</ele>
        <time>2014-10-11T13:13:03Z</time>
      </trkpt>
      <trkpt lat="59.116822" lon="18.016367">
        <ele>57.4</ele>
        <time>2014-10-11T13:13:04Z</time>
      </trkpt>
      <trkpt lat="59.116792" lon="18.016344">
        <ele>57.5</ele>
        <time>2014-10-11T13:13:05Z</time>
      </trkpt>
      <trkpt lat="59.116762" lon="18.01632">
        <ele>57.5</ele>
        <time>2014-10-11T13:13:06Z</time>
      </trkpt>
      <trkpt lat="59.116732" lon="18.016295">
        <ele>57.5</ele>
        <time>2014-10-11T13:13:07Z</time>
      </trkpt>
      <trkpt lat="59.116701" lon="18.016266">
        <ele>57.6</ele>
        <time>2014-10-11T13:13:08Z</time>
      </trkpt>
      <trkpt lat="59.11667" lon="18.016235">
        <ele>57.6</ele>
        <time>2014-10-11T13:13:09Z</time>
      </trkpt>
      <trkpt lat="59.116637" lon="18.0162">
        <ele>57.6</ele>
        <time>2014-10-11T13:13:10Z</time>
      </trkpt>
      <trkpt lat="59.116601" lon="18.016157">
        <ele>57.5</ele>
        <time>2014-10-11T13:13:11Z</time>
      </trkpt>
      <trkpt lat="59.116564" lon="18.016107">
        <ele>57.5</ele>
        <time>2014-10-11T13:13:12Z</time>
      </trkpt>
      <trkpt lat="59.116508" lon="18.016007">
        <ele>57.5</ele>
        <time>2014-10-11T13:13:13Z</time>
      </trkpt>
      <trkpt lat="59.116465" lon="18.015949">
        <ele>57.3</ele>
        <time>2014-10-11T13:13:14Z</time>
      </trkpt>
      <trkpt lat="59.116424" lon="18.015898">
        <ele>57.2</ele>
        <time>2014-10-11T13:13:15Z</time>
      </trkpt>
      <trkpt lat="59.116392" lon="18.015824">
        <ele>57</ele>
        <time>2014-10-11T13:13:16Z</time>
      </trkpt>
      <trkpt lat="59.116356" lon="18.01575">
        <ele>56.8</ele>
        <time>2014-10-11T13:13:17Z</time>
      </trkpt>
      <trkpt lat="59.11632" lon="18.015692">
        <ele>56.6</ele>
        <time>2014-10-11T13:13:18Z</time>
      </trkpt>
      <trkpt lat="59.116292" lon="18.015612">
        <ele>56.4</ele>
        <time>2014-10-11T13:13:19Z</time>
      </trkpt>
      <trkpt lat="59.11626" lon="18.01553">
        <ele>56.1</ele>
        <time>2014-10-11T13:13:20Z</time>
      </trkpt>
      <trkpt lat="59.116224" lon="18.015453">
        <ele>56.2</ele>
        <time>2014-10-11T13:13:21Z</time>
      </trkpt>
      <trkpt lat="59.11619" lon="18.015375">
        <ele>56.6</ele>
        <time>2014-10-11T13:13:22Z</time>
      </trkpt>
      <trkpt lat="59.116155" lon="18.015297">
        <ele>57.3</ele>
        <time>2014-10-11T13:13:23Z</time>
      </trkpt>
      <trkpt lat="59.116121" lon="18.015214">
        <ele>57.9</ele>
        <time>2014-10-11T13:13:24Z</time>
      </trkpt>
      <trkpt lat="59.116085" lon="18.015138">
        <ele>58.3</ele>
        <time>2014-10-11T13:13:25Z</time>
      </trkpt>
      <trkpt lat="59.116045" lon="18.015065">
        <ele>58.7</ele>
        <time>2014-10-11T13:13:26Z</time>
      </trkpt>
      <trkpt lat="59.116021" lon="18.014999">
        <ele>59</ele>
        <time>2014-10-11T13:13:27Z</time>
      </trkpt>
      <trkpt lat="59.115993" lon="18.014935">
        <ele>59.2</ele>
        <time>2014-10-11T13:13:28Z</time>
      </trkpt>
      <trkpt lat="59.115963" lon="18.014882">
        <ele>59.4</ele>
        <time>2014-10-11T13:13:29Z</time>
      </trkpt>
      <trkpt lat="59.115929" lon="18.014833">
        <ele>59.4</ele>
        <time>2014-10-11T13:13:30Z</time>
      </trkpt>
      <trkpt lat="59.115894" lon="18.014772">
        <ele>59.5</ele>
        <time>2014-10-11T13:13:31Z</time>
      </trkpt>
      <trkpt lat="59.115858" lon="18.014716">
        <ele>59.4</ele>
        <time>2014-10-11T13:13:32Z</time>
      </trkpt>
      <trkpt lat="59.11582" lon="18.014653">
        <ele>59.3</ele>
        <time>2014-10-11T13:13:33Z</time>
      </trkpt>
      <trkpt lat="59.115787" lon="18.014601">
        <ele>59.2</ele>
        <time>2014-10-11T13:13:34Z</time>
      </trkpt>
      <trkpt lat="59.115763" lon="18.014568">
        <ele>59.1</ele>
        <time>2014-10-11T13:13:35Z</time>
      </trkpt>
      <trkpt lat="59.11572" lon="18.014517">
        <ele>58.8</ele>
        <time>2014-10-11T13:13:36Z</time>
      </trkpt>
      <trkpt lat="59.115685" lon="18.014466">
        <ele>58.6</ele>
        <time>2014-10-11T13:13:37Z</time>
      </trkpt>
      <trkpt lat="59.115644" lon="18.014415">
        <ele>58.2</ele>
        <time>2014-10-11T13:13:38Z</time>
      </trkpt>
      <trkpt lat="59.115614" lon="18.014393">
        <ele>57.9</ele>
        <time>2014-10-11T13:13:39Z</time>
      </trkpt>
      <trkpt lat="59.115569" lon="18.014347">
        <ele>57.5</ele>
        <time>2014-10-11T13:13:40Z</time>
      </trkpt>
      <trkpt lat="59.115524" lon="18.014287">
        <ele>56.9</ele>
        <time>2014-10-11T13:13:41Z</time>
      </trkpt>
      <trkpt lat="59.115492" lon="18.014238">
        <ele>56.5</ele>
        <time>2014-10-11T13:13:42Z</time>
      </trkpt>
      <trkpt lat="59.115457" lon="18.014187">
        <ele>56</ele>
        <time>2014-10-11T13:13:43Z</time>
      </trkpt>
      <trkpt lat="59.115425" lon="18.014142">
        <ele>55.5</ele>
        <time>2014-10-11T13:13:44Z</time>
      </trkpt>
      <trkpt lat="59.115391" lon="18.014094">
        <ele>55.4</ele>
        <time>2014-10-11T13:13:45Z</time>
      </trkpt>
      <trkpt lat="59.11536" lon="18.014041">
        <ele>55.4</ele>
        <time>2014-10-11T13:13:46Z</time>
      </trkpt>
      <trkpt lat="59.115327" lon="18.013988">
        <ele>55.3</ele>
        <time>2014-10-11T13:13:47Z</time>
      </trkpt>
      <trkpt lat="59.115294" lon="18.01393">
        <ele>55.2</ele>
        <time>2014-10-11T13:13:48Z</time>
      </trkpt>
      <trkpt lat="59.115264" lon="18.013877">
        <ele>55.1</ele>
        <time>2014-10-11T13:13:49Z</time>
      </trkpt>
      <trkpt lat="59.115236" lon="18.013819">
        <ele>55</ele>
        <time>2014-10-11T13:13:50Z</time>
      </trkpt>
      <trkpt lat="59.115207" lon="18.013757">
        <ele>54.8</ele>
        <time>2014-10-11T13:13:51Z</time>
      </trkpt>
      <trkpt lat="59.115184" lon="18.013689">
        <ele>54.9</ele>
        <time>2014-10-11T13:13:52Z</time>
      </trkpt>
      <trkpt lat="59.115152" lon="18.013601">
        <ele>55.1</ele>
        <time>2014-10-11T13:13:53Z</time>
      </trkpt>
      <trkpt lat="59.115113" lon="18.013519">
        <ele>55.3</ele>
        <time>2014-10-11T13:13:54Z</time>
      </trkpt>
      <trkpt lat="59.115078" lon="18.013426">
        <ele>55.5</ele>
        <time>2014-10-11T13:13:55Z</time>
      </trkpt>
      <trkpt lat="59.115046" lon="18.013337">
        <ele>55.7</ele>
        <time>2014-10-11T13:13:56Z</time>
      </trkpt>
      <trkpt lat="59.115003" lon="18.013242">
        <ele>55.8</ele>
        <time>2014-10-11T13:13:57Z</time>
      </trkpt>
      <trkpt lat="59.114971" lon="18.013159">
        <ele>55.9</ele>
        <time>2014-10-11T13:13:58Z</time>
      </trkpt>
      <trkpt lat="59.114946" lon="18.01306">
        <ele>55.9</ele>
        <time>2014-10-11T13:13:59Z</time>
      </trkpt>
      <trkpt lat="59.114921" lon="18.012965">
        <ele>56</ele>
        <time>2014-10-11T13:14:00Z</time>
      </trkpt>
      <trkpt lat="59.114892" lon="18.012871">
        <ele>56</ele>
        <time>2014-10-11T13:14:01Z</time>
      </trkpt>
      <trkpt lat="59.114858" lon="18.012771">
        <ele>56</ele>
        <time>2014-10-11T13:14:02Z</time>
      </trkpt>
      <trkpt lat="59.114829" lon="18.012688">
        <ele>56</ele>
        <time>2014-10-11T13:14:03Z</time>
      </trkpt>
      <trkpt lat="59.114786" lon="18.01258">
        <ele>55.9</ele>
        <time>2014-10-11T13:14:04Z</time>
      </trkpt>
      <trkpt lat="59.114744" lon="18.012505">
        <ele>55.8</ele>
        <time>2014-10-11T13:14:05Z</time>
      </trkpt>
      <trkpt lat="59.114701" lon="18.012441">
        <ele>55.7</ele>
        <time>2014-10-11T13:14:06Z</time>
      </trkpt>
      <trkpt lat="59.114652" lon="18.012382">
        <ele>55.5</ele>
        <time>2014-10-11T13:14:07Z</time>
      </trkpt>
      <trkpt lat="59.114606" lon="18.012298">
        <ele>55.3</ele>
        <time>2014-10-11T13:14:08Z</time>
      </trkpt>
      <trkpt lat="59.114554" lon="18.01223">
        <ele>55.6</ele>
        <time>2014-10-11T13:14:09Z</time>
      </trkpt>
      <trkpt lat="59.114508" lon="18.012158">
        <ele>56.1</ele>
        <time>2014-10-11T13:14:10Z</time>
      </trkpt>
      <trkpt lat="59.114456" lon="18.012086">
        <ele>56.7</ele>
        <time>2014-10-11T13:14:11Z</time>
      </trkpt>
      <trkpt lat="59.114399" lon="18.012018">
        <ele>57.3</ele>
        <time>2014-10-11T13:14:12Z</time>
      </trkpt>
      <trkpt lat="59.114347" lon="18.011941">
        <ele>57.9</ele>
        <time>2014-10-11T13:14:13Z</time>
      </trkpt>
      <trkpt lat="59.114305" lon="18.011883">
        <ele>58.3</ele>
        <time>2014-10-11T13:14:14Z</time>
      </trkpt>
      <trkpt lat="59.114261" lon="18.011811">
        <ele>58.7</ele>
        <time>2014-10-11T13:14:15Z</time>
      </trkpt>
      <trkpt lat="59.11421" lon="18.01174">
        <ele>59.1</ele>
        <time>2014-10-11T13:14:16Z</time>
      </trkpt>
      <trkpt lat="59.114161" lon="18.011669">
        <ele>59.6</ele>
        <time>2014-10-11T13:14:17Z</time>
      </trkpt>
      <trkpt lat="59.114114" lon="18.011594">
        <ele>59.9</ele>
        <time>2014-10-11T13:14:18Z</time>
      </trkpt>
      <trkpt lat="59.11407" lon="18.011521">
        <ele>60.3</ele>
        <time>2014-10-11T13:14:19Z</time>
      </trkpt>
      <trkpt lat="59.114016" lon="18.011448">
        <ele>60.7</ele>
        <time>2014-10-11T13:14:20Z</time>
      </trkpt>
      <trkpt lat="59.113975" lon="18.011395">
        <ele>61</ele>
        <time>2014-10-11T13:14:21Z</time>
      </trkpt>
      <trkpt lat="59.113925" lon="18.011325">
        <ele>61.3</ele>
        <time>2014-10-11T13:14:22Z</time>
      </trkpt>
      <trkpt lat="59.113882" lon="18.011253">
        <ele>61.6</ele>
        <time>2014-10-11T13:14:23Z</time>
      </trkpt>
      <trkpt lat="59.113842" lon="18.011196">
        <ele>61.8</ele>
        <time>2014-10-11T13:14:24Z</time>
      </trkpt>
      <trkpt lat="59.113798" lon="18.011115">
        <ele>62</ele>
        <time>2014-10-11T13:14:25Z</time>
      </trkpt>
      <trkpt lat="59.113757" lon="18.01105">
        <ele>62.2</ele>
        <time>2014-10-11T13:14:26Z</time>
      </trkpt>
      <trkpt lat="59.113719" lon="18.01098">
        <ele>62.4</ele>
        <time>2014-10-11T13:14:27Z</time>
      </trkpt>
      <trkpt lat="59.113669" lon="18.010903">
        <ele>62.6</ele>
        <time>2014-10-11T13:14:28Z</time>
      </trkpt>
      <trkpt lat="59.113618" lon="18.010834">
        <ele>62.9</ele>
        <time>2014-10-11T13:14:29Z</time>
      </trkpt>
      <trkpt lat="59.113585" lon="18.010754">
        <ele>63</ele>
        <time>2014-10-11T13:14:30Z</time>
      </trkpt>
      <trkpt lat="59.113543" lon="18.010673">
        <ele>63.2</ele>
        <time>2014-10-11T13:14:31Z</time>
      </trkpt>
      <trkpt lat="59.113502" lon="18.010612">
        <ele>63.4</ele>
        <time>2014-10-11T13:14:32Z</time>
      </trkpt>
      <trkpt lat="59.113455" lon="18.010526">
        <ele>63.6</ele>
        <time>2014-10-11T13:14:33Z</time>
      </trkpt>
      <trkpt lat="59.113412" lon="18.010474">
        <ele>63.9</ele>
        <time>2014-10-11T13:14:34Z</time>
      </trkpt>
      <trkpt lat="59.113368" lon="18.010395">
        <ele>64</ele>
        <time>2014-10-11T13:14:35Z</time>
      </trkpt>
      <trkpt lat="59.113337" lon="18.010315">
        <ele>63.9</ele>
        <time>2014-10-11T13:14:36Z</time>
      </trkpt>
      <trkpt lat="59.113294" lon="18.010233">
        <ele>63.9</ele>
        <time>2014-10-11T13:14:37Z</time>
      </trkpt>
      <trkpt lat="59.113253" lon="18.010149">
        <ele>63.8</ele>
        <time>2014-10-11T13:14:38Z</time>
      </trkpt>
      <trkpt lat="59.113207" lon="18.010069">
        <ele>63.8</ele>
        <time>2014-10-11T13:14:39Z</time>
      </trkpt>
      <trkpt lat="59.113169" lon="18.009991">
        <ele>63.7</ele>
        <time>2014-10-11T13:14:40Z</time>
      </trkpt>
      <trkpt lat="59.113127" lon="18.009924">
        <ele>63.6</ele>
        <time>2014-10-11T13:14:41Z</time>
      </trkpt>
      <trkpt lat="59.113096" lon="18.009845">
        <ele>63.4</ele>
        <time>2014-10-11T13:14:42Z</time>
      </trkpt>
      <trkpt lat="59.113066" lon="18.009768">
        <ele>63.1</ele>
        <time>2014-10-11T13:14:43Z</time>
      </trkpt>
      <trkpt lat="59.113026" lon="18.009694">
        <ele>63</ele>
        <time>2014-10-11T13:14:44Z</time>
      </trkpt>
      <trkpt lat="59.112988" lon="18.009619">
        <ele>62.7</ele>
        <time>2014-10-11T13:14:45Z</time>
      </trkpt>
      <trkpt lat="59.112955" lon="18.009549">
        <ele>62.5</ele>
        <time>2014-10-11T13:14:46Z</time>
      </trkpt>
      <trkpt lat="59.11291" lon="18.009472">
        <ele>62.4</ele>
        <time>2014-10-11T13:14:47Z</time>
      </trkpt>
      <trkpt lat="59.112871" lon="18.009393">
        <ele>62</ele>
        <time>2014-10-11T13:14:48Z</time>
      </trkpt>
      <trkpt lat="59.112836" lon="18.009314">
        <ele>61.7</ele>
        <time>2014-10-11T13:14:49Z</time>
      </trkpt>
      <trkpt lat="59.11281" lon="18.009219">
        <ele>61.2</ele>
        <time>2014-10-11T13:14:50Z</time>
      </trkpt>
      <trkpt lat="59.112784" lon="18.00913">
        <ele>60.8</ele>
        <time>2014-10-11T13:14:51Z</time>
      </trkpt>
      <trkpt lat="59.112751" lon="18.009017">
        <ele>60.2</ele>
        <time>2014-10-11T13:14:52Z</time>
      </trkpt>
      <trkpt lat="59.112723" lon="18.008909">
        <ele>59.7</ele>
        <time>2014-10-11T13:14:53Z</time>
      </trkpt>
      <trkpt lat="59.112695" lon="18.008804">
        <ele>59.1</ele>
        <time>2014-10-11T13:14:54Z</time>
      </trkpt>
      <trkpt lat="59.112668" lon="18.008689">
        <ele>58.9</ele>
        <time>2014-10-11T13:14:55Z</time>
      </trkpt>
      <trkpt lat="59.112641" lon="18.008574">
        <ele>58.9</ele>
        <time>2014-10-11T13:14:56Z</time>
      </trkpt>
      <trkpt lat="59.112624" lon="18.008453">
        <ele>58.9</ele>
        <time>2014-10-11T13:14:57Z</time>
      </trkpt>
      <trkpt lat="59.112615" lon="18.008351">
        <ele>59</ele>
        <time>2014-10-11T13:14:58Z</time>
      </trkpt>
      <trkpt lat="59.112597" lon="18.008236">
        <ele>59</ele>
        <time>2014-10-11T13:14:59Z</time>
      </trkpt>
      <trkpt lat="59.112581" lon="18.008141">
        <ele>59.1</ele>
        <time>2014-10-11T13:15:00Z</time>
      </trkpt>
      <trkpt lat="59.112571" lon="18.008023">
        <ele>59.1</ele>
        <time>2014-10-11T13:15:01Z</time>
      </trkpt>
      <trkpt lat="59.112569" lon="18.007907">
        <ele>59.1</ele>
        <time>2014-10-11T13:15:02Z</time>
      </trkpt>
      <trkpt lat="59.11256" lon="18.007803">
        <ele>59.1</ele>
        <time>2014-10-11T13:15:03Z</time>
      </trkpt>
      <trkpt lat="59.112561" lon="18.007695">
        <ele>59.1</ele>
        <time>2014-10-11T13:15:04Z</time>
      </trkpt>
      <trkpt lat="59.112563" lon="18.00757">
        <ele>59.1</ele>
        <time>2014-10-11T13:15:05Z</time>
      </trkpt>
      <trkpt lat="59.11256" lon="18.007447">
        <ele>59.1</ele>
        <time>2014-10-11T13:15:06Z</time>
      </trkpt>
      <trkpt lat="59.112559" lon="18.007331">
        <ele>59.1</ele>
        <time>2014-10-11T13:15:07Z</time>
      </trkpt>
      <trkpt lat="59.112562" lon="18.00721">
        <ele>59.1</ele>
        <time>2014-10-11T13:15:08Z</time>
      </trkpt>
      <trkpt lat="59.112562" lon="18.007091">
        <ele>59.1</ele>
        <time>2014-10-11T13:15:09Z</time>
      </trkpt>
      <trkpt lat="59.11255" lon="18.006971">
        <ele>59.3</ele>
        <time>2014-10-11T13:15:10Z</time>
      </trkpt>
      <trkpt lat="59.11254" lon="18.006856">
        <ele>59.5</ele>
        <time>2014-10-11T13:15:11Z</time>
      </trkpt>
      <trkpt lat="59.112527" lon="18.006743">
        <ele>59.7</ele>
        <time>2014-10-11T13:15:12Z</time>
      </trkpt>
      <trkpt lat="59.11251" lon="18.006628">
        <ele>60</ele>
        <time>2014-10-11T13:15:13Z</time>
      </trkpt>
      <trkpt lat="59.112496" lon="18.006528">
        <ele>60.2</ele>
        <time>2014-10-11T13:15:14Z</time>
      </trkpt>
      <trkpt lat="59.11248" lon="18.006406">
        <ele>60.4</ele>
        <time>2014-10-11T13:15:15Z</time>
      </trkpt>
      <trkpt lat="59.112464" lon="18.006307">
        <ele>60.6</ele>
        <time>2014-10-11T13:15:16Z</time>
      </trkpt>
      <trkpt lat="59.112448" lon="18.006216">
        <ele>60.8</ele>
        <time>2014-10-11T13:15:17Z</time>
      </trkpt>
      <trkpt lat="59.11243" lon="18.006118">
        <ele>61</ele>
        <time>2014-10-11T13:15:18Z</time>
      </trkpt>
      <trkpt lat="59.11242" lon="18.006019">
        <ele>61.1</ele>
        <time>2014-10-11T13:15:19Z</time>
      </trkpt>
      <trkpt lat="59.112392" lon="18.005917">
        <ele>61.3</ele>
        <time>2014-10-11T13:15:20Z</time>
      </trkpt>
      <trkpt lat="59.112359" lon="18.005823">
        <ele>61.5</ele>
        <time>2014-10-11T13:15:21Z</time>
      </trkpt>
      <trkpt lat="59.112339" lon="18.00574">
        <ele>61.7</ele>
        <time>2014-10-11T13:15:22Z</time>
      </trkpt>
      <trkpt lat="59.112319" lon="18.005637">
        <ele>61.8</ele>
        <time>2014-10-11T13:15:23Z</time>
      </trkpt>
      <trkpt lat="59.112296" lon="18.005547">
        <ele>61.9</ele>
        <time>2014-10-11T13:15:24Z</time>
      </trkpt>
      <trkpt lat="59.112273" lon="18.005442">
        <ele>62.1</ele>
        <time>2014-10-11T13:15:25Z</time>
      </trkpt>
      <trkpt lat="59.112259" lon="18.005331">
        <ele>62.2</ele>
        <time>2014-10-11T13:15:26Z</time>
      </trkpt>
      <trkpt lat="59.112231" lon="18.005225">
        <ele>62.4</ele>
        <time>2014-10-11T13:15:27Z</time>
      </trkpt>
      <trkpt lat="59.112209" lon="18.005113">
        <ele>62.6</ele>
        <time>2014-10-11T13:15:28Z</time>
      </trkpt>
      <trkpt lat="59.112197" lon="18.005007">
        <ele>62.7</ele>
        <time>2014-10-11T13:15:29Z</time>
      </trkpt>
      <trkpt lat="59.112174" lon="18.004907">
        <ele>62.8</ele>
        <time>2014-10-11T13:15:30Z</time>
      </trkpt>
      <trkpt lat="59.112145" lon="18.004787">
        <ele>62.9</ele>
        <time>2014-10-11T13:15:31Z</time>
      </trkpt>
      <trkpt lat="59.112115" lon="18.004666">
        <ele>63</ele>
        <time>2014-10-11T13:15:32Z</time>
      </trkpt>
      <trkpt lat="59.112093" lon="18.004556">
        <ele>63</ele>
        <time>2014-10-11T13:15:33Z</time>
      </trkpt>
      <trkpt lat="59.112067" lon="18.00443">
        <ele>63.2</ele>
        <time>2014-10-11T13:15:34Z</time>
      </trkpt>
      <trkpt lat="59.112044" lon="18.004316">
        <ele>63.4</ele>
        <time>2014-10-11T13:15:35Z</time>
      </trkpt>
      <trkpt lat="59.112016" lon="18.004204">
        <ele>63.7</ele>
        <time>2014-10-11T13:15:36Z</time>
      </trkpt>
      <trkpt lat="59.111984" lon="18.004082">
        <ele>64.1</ele>
        <time>2014-10-11T13:15:37Z</time>
      </trkpt>
      <trkpt lat="59.111951" lon="18.003972">
        <ele>64.5</ele>
        <time>2014-10-11T13:15:38Z</time>
      </trkpt>
      <trkpt lat="59.111926" lon="18.003861">
        <ele>64.8</ele>
        <time>2014-10-11T13:15:39Z</time>
      </trkpt>
      <trkpt lat="59.111901" lon="18.003744">
        <ele>65.2</ele>
        <time>2014-10-11T13:15:40Z</time>
      </trkpt>
      <trkpt lat="59.111871" lon="18.003646">
        <ele>65.7</ele>
        <time>2014-10-11T13:15:41Z</time>
      </trkpt>
      <trkpt lat="59.111832" lon="18.003543">
        <ele>66.4</ele>
        <time>2014-10-11T13:15:42Z</time>
      </trkpt>
      <trkpt lat="59.111805" lon="18.003432">
        <ele>66.8</ele>
        <time>2014-10-11T13:15:43Z</time>
      </trkpt>
      <trkpt lat="59.111778" lon="18.003304">
        <ele>67.3</ele>
        <time>2014-10-11T13:15:44Z</time>
      </trkpt>
      <trkpt lat="59.111751" lon="18.003189">
        <ele>67.8</ele>
        <time>2014-10-11T13:15:45Z</time>
      </trkpt>
      <trkpt lat="59.111731" lon="18.003082">
        <ele>68.2</ele>
        <time>2014-10-11T13:15:46Z</time>
      </trkpt>
      <trkpt lat="59.11172" lon="18.002993">
        <ele>68.4</ele>
        <time>2014-10-11T13:15:47Z</time>
      </trkpt>
      <trkpt lat="59.111704" lon="18.002881">
        <ele>68.7</ele>
        <time>2014-10-11T13:15:48Z</time>
      </trkpt>
      <trkpt lat="59.111677" lon="18.002767">
        <ele>69</ele>
        <time>2014-10-11T13:15:49Z</time>
      </trkpt>
      <trkpt lat="59.111648" lon="18.002659">
        <ele>69.3</ele>
        <time>2014-10-11T13:15:50Z</time>
      </trkpt>
      <trkpt lat="59.111624" lon="18.002551">
        <ele>69.6</ele>
        <time>2014-10-11T13:15:51Z</time>
      </trkpt>
      <trkpt lat="59.111611" lon="18.002396">
        <ele>69.8</ele>
        <time>2014-10-11T13:15:52Z</time>
      </trkpt>
      <trkpt lat="59.111601" lon="18.002276">
        <ele>70</ele>
        <time>2014-10-11T13:15:53Z</time>
      </trkpt>
      <trkpt lat="59.111586" lon="18.00216">
        <ele>70.1</ele>
        <time>2014-10-11T13:15:54Z</time>
      </trkpt>
      <trkpt lat="59.111585" lon="18.002045">
        <ele>70.2</ele>
        <time>2014-10-11T13:15:55Z</time>
      </trkpt>
      <trkpt lat="59.111574" lon="18.001937">
        <ele>70.4</ele>
        <time>2014-10-11T13:15:56Z</time>
      </trkpt>
      <trkpt lat="59.111559" lon="18.001811">
        <ele>70.6</ele>
        <time>2014-10-11T13:15:57Z</time>
      </trkpt>
      <trkpt lat="59.111538" lon="18.001698">
        <ele>70.8</ele>
        <time>2014-10-11T13:15:58Z</time>
      </trkpt>
      <trkpt lat="59.111517" lon="18.001608">
        <ele>70.9</ele>
        <time>2014-10-11T13:15:59Z</time>
      </trkpt>
      <trkpt lat="59.11151" lon="18.001483">
        <ele>71</ele>
        <time>2014-10-11T13:16:00Z</time>
      </trkpt>
      <trkpt lat="59.111504" lon="18.001378">
        <ele>71.1</ele>
        <time>2014-10-11T13:16:01Z</time>
      </trkpt>
      <trkpt lat="59.111478" lon="18.001268">
        <ele>71.2</ele>
        <time>2014-10-11T13:16:02Z</time>
      </trkpt>
      <trkpt lat="59.111458" lon="18.001156">
        <ele>71.2</ele>
        <time>2014-10-11T13:16:03Z</time>
      </trkpt>
      <trkpt lat="59.111433" lon="18.001056">
        <ele>71.3</ele>
        <time>2014-10-11T13:16:04Z</time>
      </trkpt>
      <trkpt lat="59.111412" lon="18.000935">
        <ele>71.3</ele>
        <time>2014-10-11T13:16:05Z</time>
      </trkpt>
      <trkpt lat="59.111393" lon="18.000825">
        <ele>71.2</ele>
        <time>2014-10-11T13:16:06Z</time>
      </trkpt>
      <trkpt lat="59.111367" lon="18.000721">
        <ele>71.2</ele>
        <time>2014-10-11T13:16:07Z</time>
      </trkpt>
      <trkpt lat="59.111354" lon="18.000593">
        <ele>71.1</ele>
        <time>2014-10-11T13:16:08Z</time>
      </trkpt>
      <trkpt lat="59.111325" lon="18.000473">
        <ele>71</ele>
        <time>2014-10-11T13:16:09Z</time>
      </trkpt>
      <trkpt lat="59.111286" lon="18.000384">
        <ele>71</ele>
        <time>2014-10-11T13:16:10Z</time>
      </trkpt>
      <trkpt lat="59.111271" lon="18.000289">
        <ele>70.9</ele>
        <time>2014-10-11T13:16:11Z</time>
      </trkpt>
      <trkpt lat="59.111234" lon="18.00018">
        <ele>70.9</ele>
        <time>2014-10-11T13:16:12Z</time>
      </trkpt>
      <trkpt lat="59.111198" lon="18.000071">
        <ele>71.1</ele>
        <time>2014-10-11T13:16:13Z</time>
      </trkpt>
      <trkpt lat="59.111175" lon="17.999984">
        <ele>71.2</ele>
        <time>2014-10-11T13:16:14Z</time>
      </trkpt>
      <trkpt lat="59.111142" lon="17.99987">
        <ele>71.4</ele>
        <time>2014-10-11T13:16:15Z</time>
      </trkpt>
      <trkpt lat="59.111104" lon="17.999757">
        <ele>71.6</ele>
        <time>2014-10-11T13:16:16Z</time>
      </trkpt>
      <trkpt lat="59.111074" lon="17.999645">
        <ele>71.8</ele>
        <time>2014-10-11T13:16:17Z</time>
      </trkpt>
      <trkpt lat="59.111044" lon="17.999545">
        <ele>72</ele>
        <time>2014-10-11T13:16:18Z</time>
      </trkpt>
      <trkpt lat="59.111006" lon="17.999428">
        <ele>72.3</ele>
        <time>2014-10-11T13:16:19Z</time>
      </trkpt>
      <trkpt lat="59.110966" lon="17.999321">
        <ele>72.6</ele>
        <time>2014-10-11T13:16:20Z</time>
      </trkpt>
      <trkpt lat="59.110933" lon="17.999216">
        <ele>72.9</ele>
        <time>2014-10-11T13:16:21Z</time>
      </trkpt>
      <trkpt lat="59.110908" lon="17.999114">
        <ele>73.1</ele>
        <time>2014-10-11T13:16:22Z</time>
      </trkpt>
      <trkpt lat="59.110863" lon="17.999011">
        <ele>73.4</ele>
        <time>2014-10-11T13:16:23Z</time>
      </trkpt>
      <trkpt lat="59.110821" lon="17.998911">
        <ele>73.7</ele>
        <time>2014-10-11T13:16:24Z</time>
      </trkpt>
      <trkpt lat="59.110772" lon="17.998805">
        <ele>74.1</ele>
        <time>2014-10-11T13:16:25Z</time>
      </trkpt>
      <trkpt lat="59.110734" lon="17.9987">
        <ele>74.1</ele>
        <time>2014-10-11T13:16:26Z</time>
      </trkpt>
      <trkpt lat="59.110704" lon="17.998593">
        <ele>73.9</ele>
        <time>2014-10-11T13:16:27Z</time>
      </trkpt>
      <trkpt lat="59.110665" lon="17.998461">
        <ele>73.6</ele>
        <time>2014-10-11T13:16:28Z</time>
      </trkpt>
      <trkpt lat="59.110641" lon="17.998358">
        <ele>73.3</ele>
        <time>2014-10-11T13:16:29Z</time>
      </trkpt>
      <trkpt lat="59.110611" lon="17.998282">
        <ele>73.1</ele>
        <time>2014-10-11T13:16:30Z</time>
      </trkpt>
      <trkpt lat="59.110573" lon="17.998157">
        <ele>72.7</ele>
        <time>2014-10-11T13:16:31Z</time>
      </trkpt>
      <trkpt lat="59.110538" lon="17.998047">
        <ele>72.3</ele>
        <time>2014-10-11T13:16:32Z</time>
      </trkpt>
      <trkpt lat="59.110493" lon="17.997955">
        <ele>71.9</ele>
        <time>2014-10-11T13:16:33Z</time>
      </trkpt>
      <trkpt lat="59.110456" lon="17.997862">
        <ele>71.6</ele>
        <time>2014-10-11T13:16:34Z</time>
      </trkpt>
      <trkpt lat="59.11041" lon="17.997762">
        <ele>71.3</ele>
        <time>2014-10-11T13:16:35Z</time>
      </trkpt>
      <trkpt lat="59.110382" lon="17.997668">
        <ele>71.1</ele>
        <time>2014-10-11T13:16:36Z</time>
      </trkpt>
      <trkpt lat="59.110327" lon="17.997559">
        <ele>71.2</ele>
        <time>2014-10-11T13:16:37Z</time>
      </trkpt>
      <trkpt lat="59.110294" lon="17.997439">
        <ele>71.1</ele>
        <time>2014-10-11T13:16:38Z</time>
      </trkpt>
      <trkpt lat="59.11026" lon="17.997334">
        <ele>71</ele>
        <time>2014-10-11T13:16:39Z</time>
      </trkpt>
      <trkpt lat="59.11023" lon="17.997238">
        <ele>71</ele>
        <time>2014-10-11T13:16:40Z</time>
      </trkpt>
      <trkpt lat="59.110185" lon="17.997125">
        <ele>71.2</ele>
        <time>2014-10-11T13:16:41Z</time>
      </trkpt>
      <trkpt lat="59.110155" lon="17.997011">
        <ele>71.1</ele>
        <time>2014-10-11T13:16:42Z</time>
      </trkpt>
      <trkpt lat="59.110125" lon="17.996906">
        <ele>71</ele>
        <time>2014-10-11T13:16:43Z</time>
      </trkpt>
      <trkpt lat="59.110102" lon="17.996777">
        <ele>70.7</ele>
        <time>2014-10-11T13:16:44Z</time>
      </trkpt>
      <trkpt lat="59.110081" lon="17.996651">
        <ele>70.4</ele>
        <time>2014-10-11T13:16:45Z</time>
      </trkpt>
      <trkpt lat="59.110063" lon="17.996509">
        <ele>69.9</ele>
        <time>2014-10-11T13:16:46Z</time>
      </trkpt>
      <trkpt lat="59.110051" lon="17.996386">
        <ele>69.5</ele>
        <time>2014-10-11T13:16:47Z</time>
      </trkpt>
      <trkpt lat="59.110038" lon="17.996233">
        <ele>68.9</ele>
        <time>2014-10-11T13:16:48Z</time>
      </trkpt>
      <trkpt lat="59.110027" lon="17.996094">
        <ele>68.5</ele>
        <time>2014-10-11T13:16:49Z</time>
      </trkpt>
      <trkpt lat="59.110008" lon="17.99595">
        <ele>68.1</ele>
        <time>2014-10-11T13:16:50Z</time>
      </trkpt>
      <trkpt lat="59.109989" lon="17.995798">
        <ele>67.7</ele>
        <time>2014-10-11T13:16:51Z</time>
      </trkpt>
      <trkpt lat="59.109971" lon="17.99565">
        <ele>67.3</ele>
        <time>2014-10-11T13:16:52Z</time>
      </trkpt>
      <trkpt lat="59.109962" lon="17.995505">
        <ele>66.8</ele>
        <time>2014-10-11T13:16:53Z</time>
      </trkpt>
      <trkpt lat="59.109956" lon="17.995364">
        <ele>66.4</ele>
        <time>2014-10-11T13:16:54Z</time>
      </trkpt>
      <trkpt lat="59.109962" lon="17.995222">
        <ele>66.1</ele>
        <time>2014-10-11T13:16:55Z</time>
      </trkpt>
      <trkpt lat="59.109965" lon="17.995075">
        <ele>65.7</ele>
        <time>2014-10-11T13:16:56Z</time>
      </trkpt>
      <trkpt lat="59.109978" lon="17.994964">
        <ele>65.4</ele>
        <time>2014-10-11T13:16:57Z</time>
      </trkpt>
      <trkpt lat="59.110013" lon="17.994842">
        <ele>64.9</ele>
        <time>2014-10-11T13:16:58Z</time>
      </trkpt>
      <trkpt lat="59.110042" lon="17.994715">
        <ele>64.4</ele>
        <time>2014-10-11T13:16:59Z</time>
      </trkpt>
      <trkpt lat="59.11008" lon="17.994592">
        <ele>64</ele>
        <time>2014-10-11T13:17:00Z</time>
      </trkpt>
      <trkpt lat="59.110114" lon="17.994506">
        <ele>63.7</ele>
        <time>2014-10-11T13:17:01Z</time>
      </trkpt>
      <trkpt lat="59.110145" lon="17.994409">
        <ele>63.4</ele>
        <time>2014-10-11T13:17:02Z</time>
      </trkpt>
      <trkpt lat="59.110165" lon="17.994316">
        <ele>63.1</ele>
        <time>2014-10-11T13:17:03Z</time>
      </trkpt>
      <trkpt lat="59.110185" lon="17.994212">
        <ele>62.9</ele>
        <time>2014-10-11T13:17:04Z</time>
      </trkpt>
      <trkpt lat="59.110203" lon="17.994127">
        <ele>62.7</ele>
        <time>2014-10-11T13:17:05Z</time>
      </trkpt>
      <trkpt lat="59.110229" lon="17.994005">
        <ele>62.5</ele>
        <time>2014-10-11T13:17:06Z</time>
      </trkpt>
      <trkpt lat="59.110248" lon="17.993893">
        <ele>62.3</ele>
        <time>2014-10-11T13:17:07Z</time>
      </trkpt>
      <trkpt lat="59.11027" lon="17.993789">
        <ele>62.2</ele>
        <time>2014-10-11T13:17:08Z</time>
      </trkpt>
      <trkpt lat="59.110284" lon="17.993668">
        <ele>62.3</ele>
        <time>2014-10-11T13:17:09Z</time>
      </trkpt>
      <trkpt lat="59.110285" lon="17.993528">
        <ele>62.5</ele>
        <time>2014-10-11T13:17:10Z</time>
      </trkpt>
      <trkpt lat="59.110283" lon="17.993409">
        <ele>62.7</ele>
        <time>2014-10-11T13:17:11Z</time>
      </trkpt>
      <trkpt lat="59.110276" lon="17.993285">
        <ele>62.9</ele>
        <time>2014-10-11T13:17:12Z</time>
      </trkpt>
      <trkpt lat="59.110278" lon="17.993137">
        <ele>63.1</ele>
        <time>2014-10-11T13:17:13Z</time>
      </trkpt>
      <trkpt lat="59.110263" lon="17.993024">
        <ele>63.3</ele>
        <time>2014-10-11T13:17:14Z</time>
      </trkpt>
      <trkpt lat="59.110262" lon="17.992938">
        <ele>63.4</ele>
        <time>2014-10-11T13:17:15Z</time>
      </trkpt>
      <trkpt lat="59.11024" lon="17.992794">
        <ele>63.4</ele>
        <time>2014-10-11T13:17:16Z</time>
      </trkpt>
      <trkpt lat="59.11022" lon="17.992669">
        <ele>63.4</ele>
        <time>2014-10-11T13:17:17Z</time>
      </trkpt>
      <trkpt lat="59.110206" lon="17.992507">
        <ele>63.4</ele>
        <time>2014-10-11T13:17:18Z</time>
      </trkpt>
      <trkpt lat="59.110184" lon="17.992363">
        <ele>63.3</ele>
        <time>2014-10-11T13:17:19Z</time>
      </trkpt>
      <trkpt lat="59.110159" lon="17.992226">
        <ele>63.1</ele>
        <time>2014-10-11T13:17:20Z</time>
      </trkpt>
      <trkpt lat="59.110121" lon="17.992072">
        <ele>62.9</ele>
        <time>2014-10-11T13:17:21Z</time>
      </trkpt>
      <trkpt lat="59.110095" lon="17.991939">
        <ele>63.3</ele>
        <time>2014-10-11T13:17:22Z</time>
      </trkpt>
      <trkpt lat="59.110077" lon="17.99179">
        <ele>63.9</ele>
        <time>2014-10-11T13:17:23Z</time>
      </trkpt>
      <trkpt lat="59.110056" lon="17.991666">
        <ele>64.3</ele>
        <time>2014-10-11T13:17:24Z</time>
      </trkpt>
      <trkpt lat="59.110033" lon="17.9915">
        <ele>64.8</ele>
        <time>2014-10-11T13:17:25Z</time>
      </trkpt>
      <trkpt lat="59.110022" lon="17.991371">
        <ele>65.2</ele>
        <time>2014-10-11T13:17:26Z</time>
      </trkpt>
      <trkpt lat="59.110005" lon="17.991256">
        <ele>65.5</ele>
        <time>2014-10-11T13:17:27Z</time>
      </trkpt>
      <trkpt lat="59.109983" lon="17.991167">
        <ele>65.7</ele>
        <time>2014-10-11T13:17:28Z</time>
      </trkpt>
      <trkpt lat="59.109937" lon="17.991042">
        <ele>65.6</ele>
        <time>2014-10-11T13:17:29Z</time>
      </trkpt>
      <trkpt lat="59.109887" lon="17.990933">
        <ele>65.5</ele>
        <time>2014-10-11T13:17:30Z</time>
      </trkpt>
      <trkpt lat="59.109836" lon="17.990821">
        <ele>65.2</ele>
        <time>2014-10-11T13:17:31Z</time>
      </trkpt>
      <trkpt lat="59.109789" lon="17.990697">
        <ele>65</ele>
        <time>2014-10-11T13:17:32Z</time>
      </trkpt>
      <trkpt lat="59.109742" lon="17.990587">
        <ele>64.8</ele>
        <time>2014-10-11T13:17:33Z</time>
      </trkpt>
      <trkpt lat="59.109668" lon="17.990481">
        <ele>64</ele>
        <time>2014-10-11T13:17:34Z</time>
      </trkpt>
      <trkpt lat="59.109601" lon="17.990365">
        <ele>63.7</ele>
        <time>2014-10-11T13:17:35Z</time>
      </trkpt>
      <trkpt lat="59.109528" lon="17.990257">
        <ele>64.3</ele>
        <time>2014-10-11T13:17:36Z</time>
      </trkpt>
      <trkpt lat="59.109478" lon="17.990154">
        <ele>65</ele>
        <time>2014-10-11T13:17:37Z</time>
      </trkpt>
      <trkpt lat="59.109424" lon="17.990052">
        <ele>65.5</ele>
        <time>2014-10-11T13:17:38Z</time>
      </trkpt>
      <trkpt lat="59.109372" lon="17.989947">
        <ele>66</ele>
        <time>2014-10-11T13:17:39Z</time>
      </trkpt>
      <trkpt lat="59.109322" lon="17.989846">
        <ele>66.3</ele>
        <time>2014-10-11T13:17:40Z</time>
      </trkpt>
      <trkpt lat="59.109262" lon="17.989746">
        <ele>66.5</ele>
        <time>2014-10-11T13:17:41Z</time>
      </trkpt>
      <trkpt lat="59.10921" lon="17.989657">
        <ele>66.5</ele>
        <time>2014-10-11T13:17:42Z</time>
      </trkpt>
      <trkpt lat="59.109145" lon="17.989562">
        <ele>66.4</ele>
        <time>2014-10-11T13:17:43Z</time>
      </trkpt>
      <trkpt lat="59.109103" lon="17.989467">
        <ele>66.3</ele>
        <time>2014-10-11T13:17:44Z</time>
      </trkpt>
      <trkpt lat="59.109053" lon="17.989377">
        <ele>66.1</ele>
        <time>2014-10-11T13:17:45Z</time>
      </trkpt>
      <trkpt lat="59.109011" lon="17.989305">
        <ele>65.8</ele>
        <time>2014-10-11T13:17:46Z</time>
      </trkpt>
      <trkpt lat="59.108963" lon="17.989216">
        <ele>65.4</ele>
        <time>2014-10-11T13:17:47Z</time>
      </trkpt>
      <trkpt lat="59.108915" lon="17.989115">
        <ele>65</ele>
        <time>2014-10-11T13:17:48Z</time>
      </trkpt>
      <trkpt lat="59.108861" lon="17.989023">
        <ele>64.4</ele>
        <time>2014-10-11T13:17:49Z</time>
      </trkpt>
      <trkpt lat="59.108806" lon="17.988924">
        <ele>63.7</ele>
        <time>2014-10-11T13:17:50Z</time>
      </trkpt>
      <trkpt lat="59.108751" lon="17.988819">
        <ele>62.9</ele>
        <time>2014-10-11T13:17:51Z</time>
      </trkpt>
      <trkpt lat="59.108714" lon="17.98869">
        <ele>63.4</ele>
        <time>2014-10-11T13:17:52Z</time>
      </trkpt>
      <trkpt lat="59.108678" lon="17.988563">
        <ele>64.1</ele>
        <time>2014-10-11T13:17:53Z</time>
      </trkpt>
      <trkpt lat="59.108504" lon="17.98817">
        <ele>65.4</ele>
        <time>2014-10-11T13:17:57Z</time>
      </trkpt>
      <trkpt lat="59.108458" lon="17.988037">
        <ele>65.7</ele>
        <time>2014-10-11T13:17:58Z</time>
      </trkpt>
      <trkpt lat="59.108424" lon="17.987928">
        <ele>65.8</ele>
        <time>2014-10-11T13:17:59Z</time>
      </trkpt>
      <trkpt lat="59.108359" lon="17.987849">
        <ele>65.4</ele>
        <time>2014-10-11T13:18:00Z</time>
      </trkpt>
      <trkpt lat="59.108309" lon="17.987759">
        <ele>65.1</ele>
        <time>2014-10-11T13:18:01Z</time>
      </trkpt>
      <trkpt lat="59.108259" lon="17.987663">
        <ele>64.7</ele>
        <time>2014-10-11T13:18:02Z</time>
      </trkpt>
      <trkpt lat="59.108215" lon="17.987565">
        <ele>64.3</ele>
        <time>2014-10-11T13:18:03Z</time>
      </trkpt>
      <trkpt lat="59.10816" lon="17.987469">
        <ele>63.7</ele>
        <time>2014-10-11T13:18:04Z</time>
      </trkpt>
      <trkpt lat="59.108109" lon="17.987379">
        <ele>63.1</ele>
        <time>2014-10-11T13:18:05Z</time>
      </trkpt>
      <trkpt lat="59.108058" lon="17.987296">
        <ele>62.4</ele>
        <time>2014-10-11T13:18:06Z</time>
      </trkpt>
      <trkpt lat="59.108013" lon="17.987183">
        <ele>61.7</ele>
        <time>2014-10-11T13:18:07Z</time>
      </trkpt>
      <trkpt lat="59.107958" lon="17.987094">
        <ele>60.7</ele>
        <time>2014-10-11T13:18:08Z</time>
      </trkpt>
      <trkpt lat="59.107905" lon="17.987003">
        <ele>60.1</ele>
        <time>2014-10-11T13:18:09Z</time>
      </trkpt>
      <trkpt lat="59.10786" lon="17.986906">
        <ele>60.3</ele>
        <time>2014-10-11T13:18:10Z</time>
      </trkpt>
      <trkpt lat="59.107805" lon="17.986816">
        <ele>60.5</ele>
        <time>2014-10-11T13:18:11Z</time>
      </trkpt>
      <trkpt lat="59.107756" lon="17.986709">
        <ele>60.7</ele>
        <time>2014-10-11T13:18:12Z</time>
      </trkpt>
      <trkpt lat="59.107714" lon="17.9866">
        <ele>60.8</ele>
        <time>2014-10-11T13:18:13Z</time>
      </trkpt>
      <trkpt lat="59.107677" lon="17.986487">
        <ele>60.9</ele>
        <time>2014-10-11T13:18:14Z</time>
      </trkpt>
      <trkpt lat="59.107642" lon="17.986379">
        <ele>60.9</ele>
        <time>2014-10-11T13:18:15Z</time>
      </trkpt>
      <trkpt lat="59.107617" lon="17.986255">
        <ele>61</ele>
        <time>2014-10-11T13:18:16Z</time>
      </trkpt>
      <trkpt lat="59.107584" lon="17.986113">
        <ele>61</ele>
        <time>2014-10-11T13:18:17Z</time>
      </trkpt>
      <trkpt lat="59.10757" lon="17.985989">
        <ele>61</ele>
        <time>2014-10-11T13:18:18Z</time>
      </trkpt>
      <trkpt lat="59.107558" lon="17.985864">
        <ele>61</ele>
        <time>2014-10-11T13:18:19Z</time>
      </trkpt>
      <trkpt lat="59.107548" lon="17.985724">
        <ele>61</ele>
        <time>2014-10-11T13:18:20Z</time>
      </trkpt>
      <trkpt lat="59.107539" lon="17.985613">
        <ele>61</ele>
        <time>2014-10-11T13:18:21Z</time>
      </trkpt>
      <trkpt lat="59.107528" lon="17.985466">
        <ele>61</ele>
        <time>2014-10-11T13:18:22Z</time>
      </trkpt>
      <trkpt lat="59.107522" lon="17.985345">
        <ele>61.2</ele>
        <time>2014-10-11T13:18:23Z</time>
      </trkpt>
      <trkpt lat="59.107517" lon="17.985224">
        <ele>61.6</ele>
        <time>2014-10-11T13:18:24Z</time>
      </trkpt>
      <trkpt lat="59.107494" lon="17.985074">
        <ele>62</ele>
        <time>2014-10-11T13:18:25Z</time>
      </trkpt>
      <trkpt lat="59.107491" lon="17.984958">
        <ele>62.4</ele>
        <time>2014-10-11T13:18:26Z</time>
      </trkpt>
      <trkpt lat="59.107475" lon="17.9848">
        <ele>62.8</ele>
        <time>2014-10-11T13:18:27Z</time>
      </trkpt>
      <trkpt lat="59.107479" lon="17.984692">
        <ele>63.1</ele>
        <time>2014-10-11T13:18:28Z</time>
      </trkpt>
      <trkpt lat="59.107476" lon="17.984579">
        <ele>63.4</ele>
        <time>2014-10-11T13:18:29Z</time>
      </trkpt>
      <trkpt lat="59.107457" lon="17.984402">
        <ele>63.8</ele>
        <time>2014-10-11T13:18:30Z</time>
      </trkpt>
      <trkpt lat="59.107456" lon="17.984275">
        <ele>64</ele>
        <time>2014-10-11T13:18:31Z</time>
      </trkpt>
      <trkpt lat="59.107463" lon="17.98416">
        <ele>64.3</ele>
        <time>2014-10-11T13:18:32Z</time>
      </trkpt>
      <trkpt lat="59.107458" lon="17.984048">
        <ele>64.6</ele>
        <time>2014-10-11T13:18:33Z</time>
      </trkpt>
      <trkpt lat="59.107465" lon="17.983991">
        <ele>64.7</ele>
        <time>2014-10-11T13:18:34Z</time>
      </trkpt>
      <trkpt lat="59.107488" lon="17.98394">
        <ele>65</ele>
        <time>2014-10-11T13:18:35Z</time>
      </trkpt>
      <trkpt lat="59.107494" lon="17.983874">
        <ele>65.2</ele>
        <time>2014-10-11T13:18:36Z</time>
      </trkpt>
      <trkpt lat="59.10748" lon="17.98381">
        <ele>65.2</ele>
        <time>2014-10-11T13:18:37Z</time>
      </trkpt>
      <trkpt lat="59.107493" lon="17.983707">
        <ele>65.6</ele>
        <time>2014-10-11T13:18:38Z</time>
      </trkpt>
      <trkpt lat="59.107495" lon="17.983562">
        <ele>66</ele>
        <time>2014-10-11T13:18:40Z</time>
      </trkpt>
      <trkpt lat="59.107488" lon="17.98347">
        <ele>66.3</ele>
        <time>2014-10-11T13:18:41Z</time>
      </trkpt>
      <trkpt lat="59.107505" lon="17.983369">
        <ele>66.7</ele>
        <time>2014-10-11T13:18:42Z</time>
      </trkpt>
      <trkpt lat="59.107522" lon="17.983261">
        <ele>67.1</ele>
        <time>2014-10-11T13:18:43Z</time>
      </trkpt>
      <trkpt lat="59.107544" lon="17.983183">
        <ele>67.5</ele>
        <time>2014-10-11T13:18:44Z</time>
      </trkpt>
      <trkpt lat="59.107561" lon="17.983102">
        <ele>67.9</ele>
        <time>2014-10-11T13:18:45Z</time>
      </trkpt>
      <trkpt lat="59.107615" lon="17.983022">
        <ele>68.5</ele>
        <time>2014-10-11T13:18:46Z</time>
      </trkpt>
      <trkpt lat="59.107632" lon="17.982917">
        <ele>68.9</ele>
        <time>2014-10-11T13:18:47Z</time>
      </trkpt>
      <trkpt lat="59.107649" lon="17.982813">
        <ele>69.4</ele>
        <time>2014-10-11T13:18:48Z</time>
      </trkpt>
      <trkpt lat="59.107675" lon="17.982721">
        <ele>69.9</ele>
        <time>2014-10-11T13:18:49Z</time>
      </trkpt>
      <trkpt lat="59.107695" lon="17.982652">
        <ele>70.3</ele>
        <time>2014-10-11T13:18:50Z</time>
      </trkpt>
      <trkpt lat="59.107714" lon="17.982562">
        <ele>70.7</ele>
        <time>2014-10-11T13:18:51Z</time>
      </trkpt>
      <trkpt lat="59.107734" lon="17.982466">
        <ele>71.2</ele>
        <time>2014-10-11T13:18:52Z</time>
      </trkpt>
      <trkpt lat="59.107763" lon="17.982401">
        <ele>71.6</ele>
        <time>2014-10-11T13:18:53Z</time>
      </trkpt>
      <trkpt lat="59.107788" lon="17.98231">
        <ele>72.1</ele>
        <time>2014-10-11T13:18:54Z</time>
      </trkpt>
      <trkpt lat="59.107806" lon="17.982221">
        <ele>72.6</ele>
        <time>2014-10-11T13:18:55Z</time>
      </trkpt>
      <trkpt lat="59.107835" lon="17.98213">
        <ele>73.2</ele>
        <time>2014-10-11T13:18:56Z</time>
      </trkpt>
      <trkpt lat="59.107859" lon="17.982046">
        <ele>73.3</ele>
        <time>2014-10-11T13:18:57Z</time>
      </trkpt>
      <trkpt lat="59.107877" lon="17.981947">
        <ele>72.8</ele>
        <time>2014-10-11T13:18:58Z</time>
      </trkpt>
      <trkpt lat="59.107915" lon="17.981869">
        <ele>72.7</ele>
        <time>2014-10-11T13:18:59Z</time>
      </trkpt>
      <trkpt lat="59.107935" lon="17.981809">
        <ele>72.3</ele>
        <time>2014-10-11T13:19:00Z</time>
      </trkpt>
      <trkpt lat="59.107974" lon="17.981739">
        <ele>71.9</ele>
        <time>2014-10-11T13:19:01Z</time>
      </trkpt>
      <trkpt lat="59.108003" lon="17.981658">
        <ele>71.5</ele>
        <time>2014-10-11T13:19:02Z</time>
      </trkpt>
      <trkpt lat="59.108058" lon="17.981519">
        <ele>70.7</ele>
        <time>2014-10-11T13:19:03Z</time>
      </trkpt>
      <trkpt lat="59.108091" lon="17.981423">
        <ele>70.3</ele>
        <time>2014-10-11T13:19:04Z</time>
      </trkpt>
      <trkpt lat="59.108138" lon="17.981322">
        <ele>69.9</ele>
        <time>2014-10-11T13:19:05Z</time>
      </trkpt>
      <trkpt lat="59.108178" lon="17.981243">
        <ele>69.6</ele>
        <time>2014-10-11T13:19:06Z</time>
      </trkpt>
      <trkpt lat="59.10822" lon="17.981138">
        <ele>69.3</ele>
        <time>2014-10-11T13:19:07Z</time>
      </trkpt>
      <trkpt lat="59.108256" lon="17.981033">
        <ele>69.1</ele>
        <time>2014-10-11T13:19:08Z</time>
      </trkpt>
      <trkpt lat="59.108291" lon="17.980936">
        <ele>68.9</ele>
        <time>2014-10-11T13:19:09Z</time>
      </trkpt>
      <trkpt lat="59.108312" lon="17.980815">
        <ele>68.6</ele>
        <time>2014-10-11T13:19:10Z</time>
      </trkpt>
      <trkpt lat="59.108351" lon="17.980758">
        <ele>68.6</ele>
        <time>2014-10-11T13:19:11Z</time>
      </trkpt>
      <trkpt lat="59.108389" lon="17.980644">
        <ele>68.5</ele>
        <time>2014-10-11T13:19:12Z</time>
      </trkpt>
      <trkpt lat="59.108432" lon="17.980518">
        <ele>68.4</ele>
        <time>2014-10-11T13:19:13Z</time>
      </trkpt>
      <trkpt lat="59.108474" lon="17.980401">
        <ele>68.2</ele>
        <time>2014-10-11T13:19:14Z</time>
      </trkpt>
      <trkpt lat="59.108523" lon="17.980266">
        <ele>67.2</ele>
        <time>2014-10-11T13:19:15Z</time>
      </trkpt>
      <trkpt lat="59.108572" lon="17.980137">
        <ele>66.2</ele>
        <time>2014-10-11T13:19:16Z</time>
      </trkpt>
      <trkpt lat="59.108624" lon="17.980009">
        <ele>65.3</ele>
        <time>2014-10-11T13:19:17Z</time>
      </trkpt>
      <trkpt lat="59.108667" lon="17.97983">
        <ele>63.9</ele>
        <time>2014-10-11T13:19:18Z</time>
      </trkpt>
      <trkpt lat="59.108711" lon="17.979689">
        <ele>62.8</ele>
        <time>2014-10-11T13:19:19Z</time>
      </trkpt>
      <trkpt lat="59.10877" lon="17.979505">
        <ele>61.2</ele>
        <time>2014-10-11T13:19:20Z</time>
      </trkpt>
      <trkpt lat="59.108824" lon="17.979333">
        <ele>59.5</ele>
        <time>2014-10-11T13:19:21Z</time>
      </trkpt>
      <trkpt lat="59.108885" lon="17.979198">
        <ele>58.3</ele>
        <time>2014-10-11T13:19:22Z</time>
      </trkpt>
      <trkpt lat="59.108935" lon="17.979013">
        <ele>56.7</ele>
        <time>2014-10-11T13:19:23Z</time>
      </trkpt>
      <trkpt lat="59.108965" lon="17.978855">
        <ele>55.4</ele>
        <time>2014-10-11T13:19:24Z</time>
      </trkpt>
      <trkpt lat="59.109005" lon="17.978637">
        <ele>55</ele>
        <time>2014-10-11T13:19:25Z</time>
      </trkpt>
      <trkpt lat="59.109063" lon="17.97845">
        <ele>56</ele>
        <time>2014-10-11T13:19:26Z</time>
      </trkpt>
      <trkpt lat="59.109096" lon="17.978246">
        <ele>57</ele>
        <time>2014-10-11T13:19:27Z</time>
      </trkpt>
      <trkpt lat="59.109122" lon="17.978063">
        <ele>58</ele>
        <time>2014-10-11T13:19:28Z</time>
      </trkpt>
      <trkpt lat="59.109147" lon="17.977909">
        <ele>58.9</ele>
        <time>2014-10-11T13:19:29Z</time>
      </trkpt>
      <trkpt lat="59.109167" lon="17.977756">
        <ele>59.7</ele>
        <time>2014-10-11T13:19:30Z</time>
      </trkpt>
      <trkpt lat="59.10916" lon="17.977607">
        <ele>60.2</ele>
        <time>2014-10-11T13:19:31Z</time>
      </trkpt>
      <trkpt lat="59.10916" lon="17.977461">
        <ele>60.9</ele>
        <time>2014-10-11T13:19:32Z</time>
      </trkpt>
      <trkpt lat="59.109126" lon="17.977312">
        <ele>61.1</ele>
        <time>2014-10-11T13:19:33Z</time>
      </trkpt>
      <trkpt lat="59.109102" lon="17.977181">
        <ele>61.4</ele>
        <time>2014-10-11T13:19:34Z</time>
      </trkpt>
      <trkpt lat="59.10908" lon="17.977072">
        <ele>61.6</ele>
        <time>2014-10-11T13:19:35Z</time>
      </trkpt>
      <trkpt lat="59.109026" lon="17.976963">
        <ele>61.7</ele>
        <time>2014-10-11T13:19:36Z</time>
      </trkpt>
      <trkpt lat="59.108984" lon="17.97688">
        <ele>61.8</ele>
        <time>2014-10-11T13:19:37Z</time>
      </trkpt>
      <trkpt lat="59.108943" lon="17.976792">
        <ele>61.9</ele>
        <time>2014-10-11T13:19:38Z</time>
      </trkpt>
      <trkpt lat="59.108892" lon="17.976695">
        <ele>62.1</ele>
        <time>2014-10-11T13:19:39Z</time>
      </trkpt>
      <trkpt lat="59.108844" lon="17.976626">
        <ele>62.1</ele>
        <time>2014-10-11T13:19:40Z</time>
      </trkpt>
      <trkpt lat="59.108802" lon="17.976567">
        <ele>62.2</ele>
        <time>2014-10-11T13:19:41Z</time>
      </trkpt>
      <trkpt lat="59.108752" lon="17.97648">
        <ele>62.4</ele>
        <time>2014-10-11T13:19:42Z</time>
      </trkpt>
      <trkpt lat="59.108702" lon="17.976421">
        <ele>62.3</ele>
        <time>2014-10-11T13:19:43Z</time>
      </trkpt>
      <trkpt lat="59.10863" lon="17.976394">
        <ele>61.8</ele>
        <time>2014-10-11T13:19:44Z</time>
      </trkpt>
      <trkpt lat="59.108571" lon="17.976358">
        <ele>61.5</ele>
        <time>2014-10-11T13:19:45Z</time>
      </trkpt>
      <trkpt lat="59.108509" lon="17.976294">
        <ele>61.4</ele>
        <time>2014-10-11T13:19:46Z</time>
      </trkpt>
      <trkpt lat="59.108447" lon="17.976245">
        <ele>61.1</ele>
        <time>2014-10-11T13:19:47Z</time>
      </trkpt>
      <trkpt lat="59.108392" lon="17.976196">
        <ele>60.9</ele>
        <time>2014-10-11T13:19:48Z</time>
      </trkpt>
      <trkpt lat="59.108323" lon="17.976122">
        <ele>60.7</ele>
        <time>2014-10-11T13:19:49Z</time>
      </trkpt>
      <trkpt lat="59.108238" lon="17.976057">
        <ele>60.2</ele>
        <time>2014-10-11T13:19:50Z</time>
      </trkpt>
      <trkpt lat="59.108169" lon="17.976">
        <ele>59.8</ele>
        <time>2014-10-11T13:19:51Z</time>
      </trkpt>
      <trkpt lat="59.1081" lon="17.975942">
        <ele>59.4</ele>
        <time>2014-10-11T13:19:52Z</time>
      </trkpt>
      <trkpt lat="59.108041" lon="17.975867">
        <ele>59.2</ele>
        <time>2014-10-11T13:19:53Z</time>
      </trkpt>
      <trkpt lat="59.107993" lon="17.975806">
        <ele>59</ele>
        <time>2014-10-11T13:19:54Z</time>
      </trkpt>
      <trkpt lat="59.10795" lon="17.975768">
        <ele>58.7</ele>
        <time>2014-10-11T13:19:55Z</time>
      </trkpt>
      <trkpt lat="59.107901" lon="17.975709">
        <ele>58.6</ele>
        <time>2014-10-11T13:19:56Z</time>
      </trkpt>
      <trkpt lat="59.107848" lon="17.97564">
        <ele>58.8</ele>
        <time>2014-10-11T13:19:57Z</time>
      </trkpt>
      <trkpt lat="59.1078" lon="17.975559">
        <ele>59.2</ele>
        <time>2014-10-11T13:19:58Z</time>
      </trkpt>
      <trkpt lat="59.10776" lon="17.975476">
        <ele>59.5</ele>
        <time>2014-10-11T13:19:59Z</time>
      </trkpt>
      <trkpt lat="59.107721" lon="17.975408">
        <ele>59.8</ele>
        <time>2014-10-11T13:20:00Z</time>
      </trkpt>
      <trkpt lat="59.107681" lon="17.975326">
        <ele>60.1</ele>
        <time>2014-10-11T13:20:01Z</time>
      </trkpt>
      <trkpt lat="59.107646" lon="17.975261">
        <ele>60.4</ele>
        <time>2014-10-11T13:20:02Z</time>
      </trkpt>
      <trkpt lat="59.107592" lon="17.975187">
        <ele>60.8</ele>
        <time>2014-10-11T13:20:03Z</time>
      </trkpt>
      <trkpt lat="59.107544" lon="17.975146">
        <ele>61.1</ele>
        <time>2014-10-11T13:20:04Z</time>
      </trkpt>
      <trkpt lat="59.107494" lon="17.975103">
        <ele>61.4</ele>
        <time>2014-10-11T13:20:05Z</time>
      </trkpt>
      <trkpt lat="59.107434" lon="17.975044">
        <ele>61.9</ele>
        <time>2014-10-11T13:20:06Z</time>
      </trkpt>
      <trkpt lat="59.107375" lon="17.97499">
        <ele>62.4</ele>
        <time>2014-10-11T13:20:07Z</time>
      </trkpt>
      <trkpt lat="59.107323" lon="17.974931">
        <ele>62.9</ele>
        <time>2014-10-11T13:20:08Z</time>
      </trkpt>
      <trkpt lat="59.107265" lon="17.974891">
        <ele>63.4</ele>
        <time>2014-10-11T13:20:09Z</time>
      </trkpt>
      <trkpt lat="59.107209" lon="17.974862">
        <ele>63.9</ele>
        <time>2014-10-11T13:20:10Z</time>
      </trkpt>
      <trkpt lat="59.107151" lon="17.974824">
        <ele>64.4</ele>
        <time>2014-10-11T13:20:11Z</time>
      </trkpt>
      <trkpt lat="59.107093" lon="17.974805">
        <ele>64.8</ele>
        <time>2014-10-11T13:20:12Z</time>
      </trkpt>
      <trkpt lat="59.107035" lon="17.974791">
        <ele>65.1</ele>
        <time>2014-10-11T13:20:13Z</time>
      </trkpt>
      <trkpt lat="59.106974" lon="17.974776">
        <ele>65.3</ele>
        <time>2014-10-11T13:20:14Z</time>
      </trkpt>
      <trkpt lat="59.10691" lon="17.974875">
        <ele>64.5</ele>
        <time>2014-10-11T13:20:15Z</time>
      </trkpt>
      <trkpt lat="59.106839" lon="17.974851">
        <ele>64.8</ele>
        <time>2014-10-11T13:20:16Z</time>
      </trkpt>
      <trkpt lat="59.106765" lon="17.974837">
        <ele>65.1</ele>
        <time>2014-10-11T13:20:17Z</time>
      </trkpt>
      <trkpt lat="59.106698" lon="17.974848">
        <ele>65.1</ele>
        <time>2014-10-11T13:20:18Z</time>
      </trkpt>
      <trkpt lat="59.106627" lon="17.974859">
        <ele>65.1</ele>
        <time>2014-10-11T13:20:19Z</time>
      </trkpt>
      <trkpt lat="59.106559" lon="17.974869">
        <ele>65.1</ele>
        <time>2014-10-11T13:20:20Z</time>
      </trkpt>
      <trkpt lat="59.106491" lon="17.974917">
        <ele>64.8</ele>
        <time>2014-10-11T13:20:21Z</time>
      </trkpt>
      <trkpt lat="59.106406" lon="17.97491">
        <ele>65</ele>
        <time>2014-10-11T13:20:22Z</time>
      </trkpt>
      <trkpt lat="59.106327" lon="17.974896">
        <ele>65.2</ele>
        <time>2014-10-11T13:20:23Z</time>
      </trkpt>
      <trkpt lat="59.106248" lon="17.97485">
        <ele>65.8</ele>
        <time>2014-10-11T13:20:24Z</time>
      </trkpt>
      <trkpt lat="59.106178" lon="17.974822">
        <ele>65.7</ele>
        <time>2014-10-11T13:20:25Z</time>
      </trkpt>
      <trkpt lat="59.106108" lon="17.974788">
        <ele>65.6</ele>
        <time>2014-10-11T13:20:26Z</time>
      </trkpt>
      <trkpt lat="59.106035" lon="17.974763">
        <ele>65.4</ele>
        <time>2014-10-11T13:20:27Z</time>
      </trkpt>
      <trkpt lat="59.105967" lon="17.974741">
        <ele>65.2</ele>
        <time>2014-10-11T13:20:28Z</time>
      </trkpt>
      <trkpt lat="59.105913" lon="17.974708">
        <ele>65.2</ele>
        <time>2014-10-11T13:20:29Z</time>
      </trkpt>
      <trkpt lat="59.105856" lon="17.974681">
        <ele>65</ele>
        <time>2014-10-11T13:20:30Z</time>
      </trkpt>
      <trkpt lat="59.10581" lon="17.974644">
        <ele>65</ele>
        <time>2014-10-11T13:20:31Z</time>
      </trkpt>
      <trkpt lat="59.105757" lon="17.974592">
        <ele>65</ele>
        <time>2014-10-11T13:20:32Z</time>
      </trkpt>
      <trkpt lat="59.105709" lon="17.974549">
        <ele>64.9</ele>
        <time>2014-10-11T13:20:33Z</time>
      </trkpt>
      <trkpt lat="59.105668" lon="17.974502">
        <ele>64.8</ele>
        <time>2014-10-11T13:20:34Z</time>
      </trkpt>
      <trkpt lat="59.105616" lon="17.974449">
        <ele>64.7</ele>
        <time>2014-10-11T13:20:35Z</time>
      </trkpt>
      <trkpt lat="59.105564" lon="17.974392">
        <ele>64.5</ele>
        <time>2014-10-11T13:20:36Z</time>
      </trkpt>
      <trkpt lat="59.105523" lon="17.974331">
        <ele>64.4</ele>
        <time>2014-10-11T13:20:37Z</time>
      </trkpt>
      <trkpt lat="59.105481" lon="17.974294">
        <ele>64.2</ele>
        <time>2014-10-11T13:20:38Z</time>
      </trkpt>
      <trkpt lat="59.105421" lon="17.974239">
        <ele>63.9</ele>
        <time>2014-10-11T13:20:39Z</time>
      </trkpt>
      <trkpt lat="59.105371" lon="17.974201">
        <ele>63.5</ele>
        <time>2014-10-11T13:20:40Z</time>
      </trkpt>
      <trkpt lat="59.10532" lon="17.974148">
        <ele>63.2</ele>
        <time>2014-10-11T13:20:41Z</time>
      </trkpt>
      <trkpt lat="59.105283" lon="17.974113">
        <ele>63</ele>
        <time>2014-10-11T13:20:42Z</time>
      </trkpt>
      <trkpt lat="59.105234" lon="17.974064">
        <ele>62.7</ele>
        <time>2014-10-11T13:20:43Z</time>
      </trkpt>
      <trkpt lat="59.10517" lon="17.973989">
        <ele>62.2</ele>
        <time>2014-10-11T13:20:44Z</time>
      </trkpt>
      <trkpt lat="59.105117" lon="17.973943">
        <ele>61.8</ele>
        <time>2014-10-11T13:20:45Z</time>
      </trkpt>
      <trkpt lat="59.105065" lon="17.973891">
        <ele>61.4</ele>
        <time>2014-10-11T13:20:46Z</time>
      </trkpt>
      <trkpt lat="59.104998" lon="17.973821">
        <ele>60.9</ele>
        <time>2014-10-11T13:20:47Z</time>
      </trkpt>
      <trkpt lat="59.104936" lon="17.973754">
        <ele>60.4</ele>
        <time>2014-10-11T13:20:48Z</time>
      </trkpt>
      <trkpt lat="59.104864" lon="17.973672">
        <ele>60.4</ele>
        <time>2014-10-11T13:20:49Z</time>
      </trkpt>
      <trkpt lat="59.104803" lon="17.973591">
        <ele>60.5</ele>
        <time>2014-10-11T13:20:50Z</time>
      </trkpt>
      <trkpt lat="59.104733" lon="17.973511">
        <ele>60.5</ele>
        <time>2014-10-11T13:20:51Z</time>
      </trkpt>
      <trkpt lat="59.104671" lon="17.973439">
        <ele>60.5</ele>
        <time>2014-10-11T13:20:52Z</time>
      </trkpt>
      <trkpt lat="59.104593" lon="17.973349">
        <ele>60.5</ele>
        <time>2014-10-11T13:20:53Z</time>
      </trkpt>
      <trkpt lat="59.104514" lon="17.973252">
        <ele>60.5</ele>
        <time>2014-10-11T13:20:54Z</time>
      </trkpt>
      <trkpt lat="59.104445" lon="17.973157">
        <ele>60.4</ele>
        <time>2014-10-11T13:20:55Z</time>
      </trkpt>
      <trkpt lat="59.104374" lon="17.973074">
        <ele>60.2</ele>
        <time>2014-10-11T13:20:56Z</time>
      </trkpt>
      <trkpt lat="59.104306" lon="17.972988">
        <ele>59.9</ele>
        <time>2014-10-11T13:20:57Z</time>
      </trkpt>
      <trkpt lat="59.104228" lon="17.972883">
        <ele>59.5</ele>
        <time>2014-10-11T13:20:58Z</time>
      </trkpt>
      <trkpt lat="59.104161" lon="17.97277">
        <ele>59</ele>
        <time>2014-10-11T13:20:59Z</time>
      </trkpt>
      <trkpt lat="59.104082" lon="17.972642">
        <ele>58.4</ele>
        <time>2014-10-11T13:21:00Z</time>
      </trkpt>
      <trkpt lat="59.104014" lon="17.972515">
        <ele>57.7</ele>
        <time>2014-10-11T13:21:01Z</time>
      </trkpt>
      <trkpt lat="59.103952" lon="17.972377">
        <ele>57.1</ele>
        <time>2014-10-11T13:21:02Z</time>
      </trkpt>
      <trkpt lat="59.103895" lon="17.972236">
        <ele>56.4</ele>
        <time>2014-10-11T13:21:03Z</time>
      </trkpt>
      <trkpt lat="59.103833" lon="17.972099">
        <ele>55.6</ele>
        <time>2014-10-11T13:21:04Z</time>
      </trkpt>
      <trkpt lat="59.103774" lon="17.971944">
        <ele>55.5</ele>
        <time>2014-10-11T13:21:05Z</time>
      </trkpt>
      <trkpt lat="59.103727" lon="17.9718">
        <ele>55.8</ele>
        <time>2014-10-11T13:21:06Z</time>
      </trkpt>
      <trkpt lat="59.103677" lon="17.971656">
        <ele>56.1</ele>
        <time>2014-10-11T13:21:07Z</time>
      </trkpt>
      <trkpt lat="59.103628" lon="17.971524">
        <ele>56.3</ele>
        <time>2014-10-11T13:21:08Z</time>
      </trkpt>
      <trkpt lat="59.103577" lon="17.971383">
        <ele>56.5</ele>
        <time>2014-10-11T13:21:09Z</time>
      </trkpt>
      <trkpt lat="59.103528" lon="17.971239">
        <ele>56.6</ele>
        <time>2014-10-11T13:21:10Z</time>
      </trkpt>
      <trkpt lat="59.103482" lon="17.971123">
        <ele>56.4</ele>
        <time>2014-10-11T13:21:11Z</time>
      </trkpt>
      <trkpt lat="59.10342" lon="17.970999">
        <ele>56</ele>
        <time>2014-10-11T13:21:12Z</time>
      </trkpt>
      <trkpt lat="59.10336" lon="17.970883">
        <ele>55.5</ele>
        <time>2014-10-11T13:21:13Z</time>
      </trkpt>
      <trkpt lat="59.103306" lon="17.970782">
        <ele>55</ele>
        <time>2014-10-11T13:21:14Z</time>
      </trkpt>
      <trkpt lat="59.103247" lon="17.970678">
        <ele>54.3</ele>
        <time>2014-10-11T13:21:15Z</time>
      </trkpt>
      <trkpt lat="59.103187" lon="17.970563">
        <ele>53.7</ele>
        <time>2014-10-11T13:21:16Z</time>
      </trkpt>
      <trkpt lat="59.103132" lon="17.97046">
        <ele>53</ele>
        <time>2014-10-11T13:21:17Z</time>
      </trkpt>
      <trkpt lat="59.103067" lon="17.97034">
        <ele>52.4</ele>
        <time>2014-10-11T13:21:18Z</time>
      </trkpt>
      <trkpt lat="59.103013" lon="17.970234">
        <ele>52.1</ele>
        <time>2014-10-11T13:21:19Z</time>
      </trkpt>
      <trkpt lat="59.10296" lon="17.970126">
        <ele>51.9</ele>
        <time>2014-10-11T13:21:20Z</time>
      </trkpt>
      <trkpt lat="59.102906" lon="17.970005">
        <ele>51.8</ele>
        <time>2014-10-11T13:21:21Z</time>
      </trkpt>
      <trkpt lat="59.102865" lon="17.969878">
        <ele>52.3</ele>
        <time>2014-10-11T13:21:22Z</time>
      </trkpt>
      <trkpt lat="59.102821" lon="17.969754">
        <ele>52.6</ele>
        <time>2014-10-11T13:21:23Z</time>
      </trkpt>
      <trkpt lat="59.102793" lon="17.969649">
        <ele>52.9</ele>
        <time>2014-10-11T13:21:24Z</time>
      </trkpt>
      <trkpt lat="59.102756" lon="17.96954">
        <ele>53.1</ele>
        <time>2014-10-11T13:21:25Z</time>
      </trkpt>
      <trkpt lat="59.102755" lon="17.969472">
        <ele>53.4</ele>
        <time>2014-10-11T13:21:26Z</time>
      </trkpt>
      <trkpt lat="59.102742" lon="17.969391">
        <ele>53.7</ele>
        <time>2014-10-11T13:21:27Z</time>
      </trkpt>
      <trkpt lat="59.102714" lon="17.969288">
        <ele>53.8</ele>
        <time>2014-10-11T13:21:28Z</time>
      </trkpt>
      <trkpt lat="59.102695" lon="17.96918">
        <ele>54</ele>
        <time>2014-10-11T13:21:29Z</time>
      </trkpt>
      <trkpt lat="59.102673" lon="17.969046">
        <ele>54.3</ele>
        <time>2014-10-11T13:21:30Z</time>
      </trkpt>
      <trkpt lat="59.102638" lon="17.968935">
        <ele>54.2</ele>
        <time>2014-10-11T13:21:31Z</time>
      </trkpt>
      <trkpt lat="59.102594" lon="17.968831">
        <ele>53.9</ele>
        <time>2014-10-11T13:21:32Z</time>
      </trkpt>
      <trkpt lat="59.102564" lon="17.968741">
        <ele>53.7</ele>
        <time>2014-10-11T13:21:33Z</time>
      </trkpt>
      <trkpt lat="59.102522" lon="17.968645">
        <ele>53.2</ele>
        <time>2014-10-11T13:21:34Z</time>
      </trkpt>
      <trkpt lat="59.102478" lon="17.968555">
        <ele>52.7</ele>
        <time>2014-10-11T13:21:35Z</time>
      </trkpt>
      <trkpt lat="59.102445" lon="17.968466">
        <ele>52.3</ele>
        <time>2014-10-11T13:21:36Z</time>
      </trkpt>
      <trkpt lat="59.102428" lon="17.968391">
        <ele>52.2</ele>
        <time>2014-10-11T13:21:37Z</time>
      </trkpt>
      <trkpt lat="59.102399" lon="17.968302">
        <ele>52</ele>
        <time>2014-10-11T13:21:38Z</time>
      </trkpt>
      <trkpt lat="59.102366" lon="17.968227">
        <ele>51.6</ele>
        <time>2014-10-11T13:21:39Z</time>
      </trkpt>
      <trkpt lat="59.102333" lon="17.968175">
        <ele>51.1</ele>
        <time>2014-10-11T13:21:40Z</time>
      </trkpt>
      <trkpt lat="59.102293" lon="17.968091">
        <ele>50.6</ele>
        <time>2014-10-11T13:21:41Z</time>
      </trkpt>
      <trkpt lat="59.102264" lon="17.968011">
        <ele>50.2</ele>
        <time>2014-10-11T13:21:42Z</time>
      </trkpt>
      <trkpt lat="59.102235" lon="17.967939">
        <ele>49.9</ele>
        <time>2014-10-11T13:21:43Z</time>
      </trkpt>
      <trkpt lat="59.102206" lon="17.967847">
        <ele>49.5</ele>
        <time>2014-10-11T13:21:44Z</time>
      </trkpt>
      <trkpt lat="59.102187" lon="17.967771">
        <ele>49.3</ele>
        <time>2014-10-11T13:21:45Z</time>
      </trkpt>
      <trkpt lat="59.102171" lon="17.967693">
        <ele>49.2</ele>
        <time>2014-10-11T13:21:46Z</time>
      </trkpt>
      <trkpt lat="59.102144" lon="17.967572">
        <ele>49</ele>
        <time>2014-10-11T13:21:47Z</time>
      </trkpt>
      <trkpt lat="59.102126" lon="17.967442">
        <ele>49</ele>
        <time>2014-10-11T13:21:48Z</time>
      </trkpt>
      <trkpt lat="59.102107" lon="17.967299">
        <ele>48.9</ele>
        <time>2014-10-11T13:21:49Z</time>
      </trkpt>
      <trkpt lat="59.102095" lon="17.967165">
        <ele>49</ele>
        <time>2014-10-11T13:21:50Z</time>
      </trkpt>
      <trkpt lat="59.102091" lon="17.967042">
        <ele>49.2</ele>
        <time>2014-10-11T13:21:51Z</time>
      </trkpt>
      <trkpt lat="59.10208" lon="17.966919">
        <ele>49.4</ele>
        <time>2014-10-11T13:21:52Z</time>
      </trkpt>
      <trkpt lat="59.102073" lon="17.966799">
        <ele>49.6</ele>
        <time>2014-10-11T13:21:53Z</time>
      </trkpt>
      <trkpt lat="59.102061" lon="17.966669">
        <ele>49.7</ele>
        <time>2014-10-11T13:21:54Z</time>
      </trkpt>
      <trkpt lat="59.102054" lon="17.966542">
        <ele>49.9</ele>
        <time>2014-10-11T13:21:55Z</time>
      </trkpt>
      <trkpt lat="59.102056" lon="17.966429">
        <ele>50.2</ele>
        <time>2014-10-11T13:21:56Z</time>
      </trkpt>
      <trkpt lat="59.102048" lon="17.966307">
        <ele>50.4</ele>
        <time>2014-10-11T13:21:57Z</time>
      </trkpt>
      <trkpt lat="59.102042" lon="17.966194">
        <ele>50.5</ele>
        <time>2014-10-11T13:21:58Z</time>
      </trkpt>
      <trkpt lat="59.102031" lon="17.966061">
        <ele>50.5</ele>
        <time>2014-10-11T13:21:59Z</time>
      </trkpt>
      <trkpt lat="59.102027" lon="17.965966">
        <ele>50.6</ele>
        <time>2014-10-11T13:22:00Z</time>
      </trkpt>
      <trkpt lat="59.102015" lon="17.965854">
        <ele>50.6</ele>
        <time>2014-10-11T13:22:01Z</time>
      </trkpt>
      <trkpt lat="59.102003" lon="17.965748">
        <ele>50.5</ele>
        <time>2014-10-11T13:22:02Z</time>
      </trkpt>
      <trkpt lat="59.101998" lon="17.965649">
        <ele>50.6</ele>
        <time>2014-10-11T13:22:03Z</time>
      </trkpt>
      <trkpt lat="59.101969" lon="17.965548">
        <ele>50.3</ele>
        <time>2014-10-11T13:22:04Z</time>
      </trkpt>
      <trkpt lat="59.10196" lon="17.965456">
        <ele>50.3</ele>
        <time>2014-10-11T13:22:05Z</time>
      </trkpt>
      <trkpt lat="59.10195" lon="17.965385">
        <ele>50.3</ele>
        <time>2014-10-11T13:22:06Z</time>
      </trkpt>
      <trkpt lat="59.101931" lon="17.965288">
        <ele>50.4</ele>
        <time>2014-10-11T13:22:07Z</time>
      </trkpt>
      <trkpt lat="59.10191" lon="17.965173">
        <ele>50.4</ele>
        <time>2014-10-11T13:22:08Z</time>
      </trkpt>
      <trkpt lat="59.101892" lon="17.965102">
        <ele>50.3</ele>
        <time>2014-10-11T13:22:09Z</time>
      </trkpt>
      <trkpt lat="59.101858" lon="17.964962">
        <ele>50.2</ele>
        <time>2014-10-11T13:22:10Z</time>
      </trkpt>
      <trkpt lat="59.101845" lon="17.964856">
        <ele>50.3</ele>
        <time>2014-10-11T13:22:11Z</time>
      </trkpt>
      <trkpt lat="59.101818" lon="17.964744">
        <ele>50.1</ele>
        <time>2014-10-11T13:22:12Z</time>
      </trkpt>
      <trkpt lat="59.101788" lon="17.964625">
        <ele>49.9</ele>
        <time>2014-10-11T13:22:13Z</time>
      </trkpt>
      <trkpt lat="59.101763" lon="17.964491">
        <ele>49.8</ele>
        <time>2014-10-11T13:22:14Z</time>
      </trkpt>
      <trkpt lat="59.101755" lon="17.964386">
        <ele>49.8</ele>
        <time>2014-10-11T13:22:15Z</time>
      </trkpt>
      <trkpt lat="59.101741" lon="17.964281">
        <ele>49.7</ele>
        <time>2014-10-11T13:22:16Z</time>
      </trkpt>
      <trkpt lat="59.101722" lon="17.964181">
        <ele>49.5</ele>
        <time>2014-10-11T13:22:17Z</time>
      </trkpt>
      <trkpt lat="59.101713" lon="17.964102">
        <ele>49.4</ele>
        <time>2014-10-11T13:22:18Z</time>
      </trkpt>
      <trkpt lat="59.101701" lon="17.964014">
        <ele>49.3</ele>
        <time>2014-10-11T13:22:19Z</time>
      </trkpt>
      <trkpt lat="59.101683" lon="17.963918">
        <ele>49.1</ele>
        <time>2014-10-11T13:22:20Z</time>
      </trkpt>
      <trkpt lat="59.101681" lon="17.963827">
        <ele>49.2</ele>
        <time>2014-10-11T13:22:21Z</time>
      </trkpt>
      <trkpt lat="59.101674" lon="17.963744">
        <ele>49.2</ele>
        <time>2014-10-11T13:22:22Z</time>
      </trkpt>
      <trkpt lat="59.101661" lon="17.963652">
        <ele>49.4</ele>
        <time>2014-10-11T13:22:23Z</time>
      </trkpt>
      <trkpt lat="59.101654" lon="17.963548">
        <ele>49.7</ele>
        <time>2014-10-11T13:22:24Z</time>
      </trkpt>
      <trkpt lat="59.101658" lon="17.963449">
        <ele>50.3</ele>
        <time>2014-10-11T13:22:25Z</time>
      </trkpt>
      <trkpt lat="59.101638" lon="17.963324">
        <ele>50.5</ele>
        <time>2014-10-11T13:22:26Z</time>
      </trkpt>
      <trkpt lat="59.10163" lon="17.963201">
        <ele>50.9</ele>
        <time>2014-10-11T13:22:27Z</time>
      </trkpt>
      <trkpt lat="59.101605" lon="17.963063">
        <ele>51.1</ele>
        <time>2014-10-11T13:22:28Z</time>
      </trkpt>
      <trkpt lat="59.101589" lon="17.96293">
        <ele>51.4</ele>
        <time>2014-10-11T13:22:29Z</time>
      </trkpt>
      <trkpt lat="59.101586" lon="17.962794">
        <ele>52</ele>
        <time>2014-10-11T13:22:30Z</time>
      </trkpt>
      <trkpt lat="59.101557" lon="17.962652">
        <ele>52</ele>
        <time>2014-10-11T13:22:31Z</time>
      </trkpt>
      <trkpt lat="59.101526" lon="17.962535">
        <ele>51.8</ele>
        <time>2014-10-11T13:22:32Z</time>
      </trkpt>
      <trkpt lat="59.1015" lon="17.962418">
        <ele>51.8</ele>
        <time>2014-10-11T13:22:33Z</time>
      </trkpt>
      <trkpt lat="59.10145" lon="17.962286">
        <ele>51.3</ele>
        <time>2014-10-11T13:22:34Z</time>
      </trkpt>
      <trkpt lat="59.10138" lon="17.962117">
        <ele>50.5</ele>
        <time>2014-10-11T13:22:35Z</time>
      </trkpt>
      <trkpt lat="59.101312" lon="17.962">
        <ele>49.8</ele>
        <time>2014-10-11T13:22:36Z</time>
      </trkpt>
      <trkpt lat="59.101263" lon="17.961904">
        <ele>49.5</ele>
        <time>2014-10-11T13:22:37Z</time>
      </trkpt>
      <trkpt lat="59.101199" lon="17.961802">
        <ele>49.5</ele>
        <time>2014-10-11T13:22:38Z</time>
      </trkpt>
      <trkpt lat="59.101141" lon="17.961696">
        <ele>49.5</ele>
        <time>2014-10-11T13:22:39Z</time>
      </trkpt>
      <trkpt lat="59.101089" lon="17.961593">
        <ele>49.5</ele>
        <time>2014-10-11T13:22:40Z</time>
      </trkpt>
      <trkpt lat="59.101033" lon="17.961487">
        <ele>49.5</ele>
        <time>2014-10-11T13:22:41Z</time>
      </trkpt>
      <trkpt lat="59.10099" lon="17.961348">
        <ele>49.7</ele>
        <time>2014-10-11T13:22:42Z</time>
      </trkpt>
      <trkpt lat="59.10095" lon="17.961198">
        <ele>49.9</ele>
        <time>2014-10-11T13:22:43Z</time>
      </trkpt>
      <trkpt lat="59.100931" lon="17.961074">
        <ele>50.2</ele>
        <time>2014-10-11T13:22:44Z</time>
      </trkpt>
      <trkpt lat="59.100921" lon="17.960936">
        <ele>50.7</ele>
        <time>2014-10-11T13:22:45Z</time>
      </trkpt>
      <trkpt lat="59.100934" lon="17.960801">
        <ele>51.5</ele>
        <time>2014-10-11T13:22:46Z</time>
      </trkpt>
      <trkpt lat="59.100952" lon="17.960682">
        <ele>52.4</ele>
        <time>2014-10-11T13:22:47Z</time>
      </trkpt>
      <trkpt lat="59.100972" lon="17.960579">
        <ele>53.2</ele>
        <time>2014-10-11T13:22:48Z</time>
      </trkpt>
      <trkpt lat="59.101003" lon="17.960476">
        <ele>54.3</ele>
        <time>2014-10-11T13:22:49Z</time>
      </trkpt>
      <trkpt lat="59.101021" lon="17.960386">
        <ele>55</ele>
        <time>2014-10-11T13:22:50Z</time>
      </trkpt>
      <trkpt lat="59.101017" lon="17.960279">
        <ele>55.2</ele>
        <time>2014-10-11T13:22:51Z</time>
      </trkpt>
      <trkpt lat="59.101017" lon="17.9602">
        <ele>55.4</ele>
        <time>2014-10-11T13:22:52Z</time>
      </trkpt>
      <trkpt lat="59.101008" lon="17.960101">
        <ele>55.5</ele>
        <time>2014-10-11T13:22:53Z</time>
      </trkpt>
      <trkpt lat="59.100928" lon="17.959778">
        <ele>55</ele>
        <time>2014-10-11T13:22:57Z</time>
      </trkpt>
      <trkpt lat="59.10089" lon="17.959713">
        <ele>54.6</ele>
        <time>2014-10-11T13:22:58Z</time>
      </trkpt>
      <trkpt lat="59.100848" lon="17.959671">
        <ele>54</ele>
        <time>2014-10-11T13:22:59Z</time>
      </trkpt>
      <trkpt lat="59.100797" lon="17.959604">
        <ele>53.3</ele>
        <time>2014-10-11T13:23:00Z</time>
      </trkpt>
      <trkpt lat="59.100765" lon="17.959526">
        <ele>53</ele>
        <time>2014-10-11T13:23:01Z</time>
      </trkpt>
      <trkpt lat="59.10074" lon="17.959474">
        <ele>52.7</ele>
        <time>2014-10-11T13:23:02Z</time>
      </trkpt>
      <trkpt lat="59.100705" lon="17.959431">
        <ele>52.3</ele>
        <time>2014-10-11T13:23:03Z</time>
      </trkpt>
      <trkpt lat="59.100661" lon="17.959354">
        <ele>51.8</ele>
        <time>2014-10-11T13:23:04Z</time>
      </trkpt>
      <trkpt lat="59.100613" lon="17.959291">
        <ele>51.2</ele>
        <time>2014-10-11T13:23:05Z</time>
      </trkpt>
      <trkpt lat="59.100565" lon="17.959206">
        <ele>50.7</ele>
        <time>2014-10-11T13:23:06Z</time>
      </trkpt>
      <trkpt lat="59.1005" lon="17.959091">
        <ele>50.1</ele>
        <time>2014-10-11T13:23:07Z</time>
      </trkpt>
      <trkpt lat="59.100445" lon="17.958982">
        <ele>49.6</ele>
        <time>2014-10-11T13:23:08Z</time>
      </trkpt>
      <trkpt lat="59.100381" lon="17.958811">
        <ele>49.4</ele>
        <time>2014-10-11T13:23:09Z</time>
      </trkpt>
      <trkpt lat="59.100332" lon="17.958668">
        <ele>49.9</ele>
        <time>2014-10-11T13:23:10Z</time>
      </trkpt>
      <trkpt lat="59.100271" lon="17.958509">
        <ele>50.6</ele>
        <time>2014-10-11T13:23:11Z</time>
      </trkpt>
      <trkpt lat="59.100214" lon="17.958349">
        <ele>51.4</ele>
        <time>2014-10-11T13:23:12Z</time>
      </trkpt>
      <trkpt lat="59.100148" lon="17.958183">
        <ele>52.2</ele>
        <time>2014-10-11T13:23:13Z</time>
      </trkpt>
      <trkpt lat="59.100074" lon="17.958022">
        <ele>52.8</ele>
        <time>2014-10-11T13:23:14Z</time>
      </trkpt>
      <trkpt lat="59.1" lon="17.957895">
        <ele>53.2</ele>
        <time>2014-10-11T13:23:15Z</time>
      </trkpt>
      <trkpt lat="59.099914" lon="17.957777">
        <ele>53.2</ele>
        <time>2014-10-11T13:23:16Z</time>
      </trkpt>
      <trkpt lat="59.099829" lon="17.957683">
        <ele>53</ele>
        <time>2014-10-11T13:23:17Z</time>
      </trkpt>
      <trkpt lat="59.099747" lon="17.957573">
        <ele>53</ele>
        <time>2014-10-11T13:23:18Z</time>
      </trkpt>
      <trkpt lat="59.099667" lon="17.957464">
        <ele>53.1</ele>
        <time>2014-10-11T13:23:19Z</time>
      </trkpt>
      <trkpt lat="59.099566" lon="17.957343">
        <ele>52.9</ele>
        <time>2014-10-11T13:23:20Z</time>
      </trkpt>
      <trkpt lat="59.099486" lon="17.957263">
        <ele>52.5</ele>
        <time>2014-10-11T13:23:21Z</time>
      </trkpt>
      <trkpt lat="59.099411" lon="17.957163">
        <ele>52.2</ele>
        <time>2014-10-11T13:23:22Z</time>
      </trkpt>
      <trkpt lat="59.099352" lon="17.957062">
        <ele>52.1</ele>
        <time>2014-10-11T13:23:23Z</time>
      </trkpt>
      <trkpt lat="59.099283" lon="17.956944">
        <ele>51.8</ele>
        <time>2014-10-11T13:23:24Z</time>
      </trkpt>
      <trkpt lat="59.099229" lon="17.956853">
        <ele>51.6</ele>
        <time>2014-10-11T13:23:25Z</time>
      </trkpt>
      <trkpt lat="59.09919" lon="17.95674">
        <ele>51.7</ele>
        <time>2014-10-11T13:23:26Z</time>
      </trkpt>
      <trkpt lat="59.099135" lon="17.956642">
        <ele>51.4</ele>
        <time>2014-10-11T13:23:27Z</time>
      </trkpt>
      <trkpt lat="59.099118" lon="17.956548">
        <ele>51.7</ele>
        <time>2014-10-11T13:23:28Z</time>
      </trkpt>
      <trkpt lat="59.09908" lon="17.956435">
        <ele>51.8</ele>
        <time>2014-10-11T13:23:29Z</time>
      </trkpt>
      <trkpt lat="59.099042" lon="17.956325">
        <ele>51.8</ele>
        <time>2014-10-11T13:23:30Z</time>
      </trkpt>
      <trkpt lat="59.099029" lon="17.956226">
        <ele>52.1</ele>
        <time>2014-10-11T13:23:31Z</time>
      </trkpt>
      <trkpt lat="59.099002" lon="17.956133">
        <ele>52.2</ele>
        <time>2014-10-11T13:23:32Z</time>
      </trkpt>
      <trkpt lat="59.098959" lon="17.956006">
        <ele>52.3</ele>
        <time>2014-10-11T13:23:33Z</time>
      </trkpt>
      <trkpt lat="59.098916" lon="17.955902">
        <ele>52.1</ele>
        <time>2014-10-11T13:23:34Z</time>
      </trkpt>
      <trkpt lat="59.098883" lon="17.955816">
        <ele>52.1</ele>
        <time>2014-10-11T13:23:35Z</time>
      </trkpt>
      <trkpt lat="59.098826" lon="17.955656">
        <ele>52</ele>
        <time>2014-10-11T13:23:36Z</time>
      </trkpt>
      <trkpt lat="59.098814" lon="17.955556">
        <ele>52.3</ele>
        <time>2014-10-11T13:23:37Z</time>
      </trkpt>
      <trkpt lat="59.098798" lon="17.955464">
        <ele>52.5</ele>
        <time>2014-10-11T13:23:38Z</time>
      </trkpt>
      <trkpt lat="59.098792" lon="17.955359">
        <ele>52.8</ele>
        <time>2014-10-11T13:23:39Z</time>
      </trkpt>
      <trkpt lat="59.098764" lon="17.955238">
        <ele>52.7</ele>
        <time>2014-10-11T13:23:40Z</time>
      </trkpt>
      <trkpt lat="59.09873" lon="17.955101">
        <ele>52.5</ele>
        <time>2014-10-11T13:23:41Z</time>
      </trkpt>
      <trkpt lat="59.098688" lon="17.954934">
        <ele>52.3</ele>
        <time>2014-10-11T13:23:42Z</time>
      </trkpt>
      <trkpt lat="59.098666" lon="17.954813">
        <ele>52.3</ele>
        <time>2014-10-11T13:23:43Z</time>
      </trkpt>
      <trkpt lat="59.098658" lon="17.954697">
        <ele>52.4</ele>
        <time>2014-10-11T13:23:44Z</time>
      </trkpt>
      <trkpt lat="59.098634" lon="17.954596">
        <ele>52.3</ele>
        <time>2014-10-11T13:23:45Z</time>
      </trkpt>
      <trkpt lat="59.098596" lon="17.954476">
        <ele>52</ele>
        <time>2014-10-11T13:23:46Z</time>
      </trkpt>
      <trkpt lat="59.098561" lon="17.954344">
        <ele>51.8</ele>
        <time>2014-10-11T13:23:47Z</time>
      </trkpt>
      <trkpt lat="59.098539" lon="17.954228">
        <ele>51.7</ele>
        <time>2014-10-11T13:23:48Z</time>
      </trkpt>
      <trkpt lat="59.098497" lon="17.954066">
        <ele>51.4</ele>
        <time>2014-10-11T13:23:49Z</time>
      </trkpt>
      <trkpt lat="59.098477" lon="17.953938">
        <ele>51.4</ele>
        <time>2014-10-11T13:23:50Z</time>
      </trkpt>
      <trkpt lat="59.098443" lon="17.953794">
        <ele>51.1</ele>
        <time>2014-10-11T13:23:51Z</time>
      </trkpt>
      <trkpt lat="59.098426" lon="17.953678">
        <ele>51.3</ele>
        <time>2014-10-11T13:23:52Z</time>
      </trkpt>
      <trkpt lat="59.098407" lon="17.953526">
        <ele>51.7</ele>
        <time>2014-10-11T13:23:53Z</time>
      </trkpt>
      <trkpt lat="59.098373" lon="17.953387">
        <ele>51.9</ele>
        <time>2014-10-11T13:23:54Z</time>
      </trkpt>
      <trkpt lat="59.098341" lon="17.953261">
        <ele>52</ele>
        <time>2014-10-11T13:23:55Z</time>
      </trkpt>
      <trkpt lat="59.098322" lon="17.953149">
        <ele>52.2</ele>
        <time>2014-10-11T13:23:56Z</time>
      </trkpt>
      <trkpt lat="59.098281" lon="17.953029">
        <ele>52.1</ele>
        <time>2014-10-11T13:23:57Z</time>
      </trkpt>
      <trkpt lat="59.09823" lon="17.952895">
        <ele>52</ele>
        <time>2014-10-11T13:23:58Z</time>
      </trkpt>
      <trkpt lat="59.098176" lon="17.952773">
        <ele>51.6</ele>
        <time>2014-10-11T13:23:59Z</time>
      </trkpt>
      <trkpt lat="59.098129" lon="17.952645">
        <ele>51.4</ele>
        <time>2014-10-11T13:24:00Z</time>
      </trkpt>
      <trkpt lat="59.098083" lon="17.952511">
        <ele>51.2</ele>
        <time>2014-10-11T13:24:01Z</time>
      </trkpt>
      <trkpt lat="59.098044" lon="17.952392">
        <ele>51</ele>
        <time>2014-10-11T13:24:02Z</time>
      </trkpt>
      <trkpt lat="59.098001" lon="17.95228">
        <ele>50.7</ele>
        <time>2014-10-11T13:24:03Z</time>
      </trkpt>
      <trkpt lat="59.097967" lon="17.95213">
        <ele>50.7</ele>
        <time>2014-10-11T13:24:04Z</time>
      </trkpt>
      <trkpt lat="59.097926" lon="17.951998">
        <ele>50.8</ele>
        <time>2014-10-11T13:24:05Z</time>
      </trkpt>
      <trkpt lat="59.097879" lon="17.951809">
        <ele>51.5</ele>
        <time>2014-10-11T13:24:06Z</time>
      </trkpt>
      <trkpt lat="59.097836" lon="17.951705">
        <ele>51.8</ele>
        <time>2014-10-11T13:24:07Z</time>
      </trkpt>
      <trkpt lat="59.097802" lon="17.951568">
        <ele>52.3</ele>
        <time>2014-10-11T13:24:08Z</time>
      </trkpt>
      <trkpt lat="59.097782" lon="17.951467">
        <ele>52.7</ele>
        <time>2014-10-11T13:24:09Z</time>
      </trkpt>
      <trkpt lat="59.097766" lon="17.951354">
        <ele>53.3</ele>
        <time>2014-10-11T13:24:10Z</time>
      </trkpt>
      <trkpt lat="59.097744" lon="17.951249">
        <ele>53.7</ele>
        <time>2014-10-11T13:24:11Z</time>
      </trkpt>
      <trkpt lat="59.097688" lon="17.951139">
        <ele>53.6</ele>
        <time>2014-10-11T13:24:12Z</time>
      </trkpt>
      <trkpt lat="59.097666" lon="17.951049">
        <ele>53.8</ele>
        <time>2014-10-11T13:24:13Z</time>
      </trkpt>
      <trkpt lat="59.097632" lon="17.950949">
        <ele>53.8</ele>
        <time>2014-10-11T13:24:14Z</time>
      </trkpt>
      <trkpt lat="59.097614" lon="17.950901">
        <ele>53.8</ele>
        <time>2014-10-11T13:24:15Z</time>
      </trkpt>
      <trkpt lat="59.097573" lon="17.950797">
        <ele>53.7</ele>
        <time>2014-10-11T13:24:16Z</time>
      </trkpt>
      <trkpt lat="59.097539" lon="17.950684">
        <ele>53.8</ele>
        <time>2014-10-11T13:24:17Z</time>
      </trkpt>
      <trkpt lat="59.097503" lon="17.950597">
        <ele>53.7</ele>
        <time>2014-10-11T13:24:18Z</time>
      </trkpt>
      <trkpt lat="59.097463" lon="17.950506">
        <ele>53.5</ele>
        <time>2014-10-11T13:24:19Z</time>
      </trkpt>
      <trkpt lat="59.097421" lon="17.950416">
        <ele>53.3</ele>
        <time>2014-10-11T13:24:20Z</time>
      </trkpt>
      <trkpt lat="59.097389" lon="17.950307">
        <ele>53.1</ele>
        <time>2014-10-11T13:24:21Z</time>
      </trkpt>
      <trkpt lat="59.097358" lon="17.950196">
        <ele>53.1</ele>
        <time>2014-10-11T13:24:22Z</time>
      </trkpt>
      <trkpt lat="59.097314" lon="17.950094">
        <ele>52.8</ele>
        <time>2014-10-11T13:24:23Z</time>
      </trkpt>
      <trkpt lat="59.097294" lon="17.950018">
        <ele>52.8</ele>
        <time>2014-10-11T13:24:24Z</time>
      </trkpt>
      <trkpt lat="59.097251" lon="17.949911">
        <ele>52.7</ele>
        <time>2014-10-11T13:24:25Z</time>
      </trkpt>
      <trkpt lat="59.097211" lon="17.949835">
        <ele>52.5</ele>
        <time>2014-10-11T13:24:26Z</time>
      </trkpt>
      <trkpt lat="59.097178" lon="17.949757">
        <ele>52.4</ele>
        <time>2014-10-11T13:24:27Z</time>
      </trkpt>
      <trkpt lat="59.097129" lon="17.949656">
        <ele>52.2</ele>
        <time>2014-10-11T13:24:28Z</time>
      </trkpt>
      <trkpt lat="59.097086" lon="17.949547">
        <ele>52.2</ele>
        <time>2014-10-11T13:24:29Z</time>
      </trkpt>
      <trkpt lat="59.097019" lon="17.949443">
        <ele>51.6</ele>
        <time>2014-10-11T13:24:30Z</time>
      </trkpt>
      <trkpt lat="59.096965" lon="17.949343">
        <ele>51.3</ele>
        <time>2014-10-11T13:24:31Z</time>
      </trkpt>
      <trkpt lat="59.096914" lon="17.949226">
        <ele>51</ele>
        <time>2014-10-11T13:24:32Z</time>
      </trkpt>
      <trkpt lat="59.096874" lon="17.949126">
        <ele>50.7</ele>
        <time>2014-10-11T13:24:33Z</time>
      </trkpt>
      <trkpt lat="59.09683" lon="17.949027">
        <ele>50.5</ele>
        <time>2014-10-11T13:24:34Z</time>
      </trkpt>
      <trkpt lat="59.096789" lon="17.948932">
        <ele>50.2</ele>
        <time>2014-10-11T13:24:35Z</time>
      </trkpt>
      <trkpt lat="59.096757" lon="17.948867">
        <ele>49.9</ele>
        <time>2014-10-11T13:24:36Z</time>
      </trkpt>
      <trkpt lat="59.096697" lon="17.948778">
        <ele>49.4</ele>
        <time>2014-10-11T13:24:37Z</time>
      </trkpt>
      <trkpt lat="59.096632" lon="17.948699">
        <ele>48.4</ele>
        <time>2014-10-11T13:24:38Z</time>
      </trkpt>
      <trkpt lat="59.096584" lon="17.948644">
        <ele>47.7</ele>
        <time>2014-10-11T13:24:39Z</time>
      </trkpt>
      <trkpt lat="59.096518" lon="17.94857">
        <ele>46.6</ele>
        <time>2014-10-11T13:24:40Z</time>
      </trkpt>
      <trkpt lat="59.096461" lon="17.9485">
        <ele>45.7</ele>
        <time>2014-10-11T13:24:41Z</time>
      </trkpt>
      <trkpt lat="59.096408" lon="17.948431">
        <ele>44.9</ele>
        <time>2014-10-11T13:24:42Z</time>
      </trkpt>
      <trkpt lat="59.096362" lon="17.948336">
        <ele>44.1</ele>
        <time>2014-10-11T13:24:43Z</time>
      </trkpt>
      <trkpt lat="59.09634" lon="17.948174">
        <ele>43.6</ele>
        <time>2014-10-11T13:24:44Z</time>
      </trkpt>
      <trkpt lat="59.096335" lon="17.948058">
        <ele>43.4</ele>
        <time>2014-10-11T13:24:45Z</time>
      </trkpt>
      <trkpt lat="59.096331" lon="17.947873">
        <ele>43.2</ele>
        <time>2014-10-11T13:24:46Z</time>
      </trkpt>
      <trkpt lat="59.096329" lon="17.947707">
        <ele>43.1</ele>
        <time>2014-10-11T13:24:47Z</time>
      </trkpt>
      <trkpt lat="59.096331" lon="17.94754">
        <ele>43.2</ele>
        <time>2014-10-11T13:24:48Z</time>
      </trkpt>
      <trkpt lat="59.09633" lon="17.947398">
        <ele>43.2</ele>
        <time>2014-10-11T13:24:49Z</time>
      </trkpt>
      <trkpt lat="59.096325" lon="17.947251">
        <ele>43.1</ele>
        <time>2014-10-11T13:24:50Z</time>
      </trkpt>
      <trkpt lat="59.096316" lon="17.947072">
        <ele>43</ele>
        <time>2014-10-11T13:24:51Z</time>
      </trkpt>
      <trkpt lat="59.09631" lon="17.946924">
        <ele>43.2</ele>
        <time>2014-10-11T13:24:52Z</time>
      </trkpt>
      <trkpt lat="59.096303" lon="17.946762">
        <ele>43.5</ele>
        <time>2014-10-11T13:24:53Z</time>
      </trkpt>
      <trkpt lat="59.096301" lon="17.946574">
        <ele>43.9</ele>
        <time>2014-10-11T13:24:54Z</time>
      </trkpt>
      <trkpt lat="59.096322" lon="17.946425">
        <ele>44.5</ele>
        <time>2014-10-11T13:24:55Z</time>
      </trkpt>
      <trkpt lat="59.096336" lon="17.946245">
        <ele>45.1</ele>
        <time>2014-10-11T13:24:56Z</time>
      </trkpt>
      <trkpt lat="59.096341" lon="17.946079">
        <ele>45.6</ele>
        <time>2014-10-11T13:24:57Z</time>
      </trkpt>
      <trkpt lat="59.096323" lon="17.945915">
        <ele>45.7</ele>
        <time>2014-10-11T13:24:58Z</time>
      </trkpt>
      <trkpt lat="59.09629" lon="17.94573">
        <ele>45.7</ele>
        <time>2014-10-11T13:24:59Z</time>
      </trkpt>
      <trkpt lat="59.096243" lon="17.945587">
        <ele>45.5</ele>
        <time>2014-10-11T13:25:00Z</time>
      </trkpt>
      <trkpt lat="59.096202" lon="17.945474">
        <ele>45.5</ele>
        <time>2014-10-11T13:25:01Z</time>
      </trkpt>
      <trkpt lat="59.096149" lon="17.945341">
        <ele>45.8</ele>
        <time>2014-10-11T13:25:02Z</time>
      </trkpt>
      <trkpt lat="59.096103" lon="17.945231">
        <ele>46.4</ele>
        <time>2014-10-11T13:25:03Z</time>
      </trkpt>
      <trkpt lat="59.096049" lon="17.945101">
        <ele>47.1</ele>
        <time>2014-10-11T13:25:04Z</time>
      </trkpt>
      <trkpt lat="59.096007" lon="17.944977">
        <ele>47.8</ele>
        <time>2014-10-11T13:25:05Z</time>
      </trkpt>
      <trkpt lat="59.095972" lon="17.944835">
        <ele>48.8</ele>
        <time>2014-10-11T13:25:06Z</time>
      </trkpt>
      <trkpt lat="59.095943" lon="17.944701">
        <ele>49.7</ele>
        <time>2014-10-11T13:25:07Z</time>
      </trkpt>
      <trkpt lat="59.095918" lon="17.944574">
        <ele>50.7</ele>
        <time>2014-10-11T13:25:08Z</time>
      </trkpt>
      <trkpt lat="59.095894" lon="17.944441">
        <ele>51.5</ele>
        <time>2014-10-11T13:25:09Z</time>
      </trkpt>
      <trkpt lat="59.09588" lon="17.944315">
        <ele>52.4</ele>
        <time>2014-10-11T13:25:10Z</time>
      </trkpt>
      <trkpt lat="59.095895" lon="17.944252">
        <ele>53</ele>
        <time>2014-10-11T13:25:11Z</time>
      </trkpt>
      <trkpt lat="59.095868" lon="17.944162">
        <ele>53.5</ele>
        <time>2014-10-11T13:25:12Z</time>
      </trkpt>
      <trkpt lat="59.095838" lon="17.944072">
        <ele>54</ele>
        <time>2014-10-11T13:25:13Z</time>
      </trkpt>
      <trkpt lat="59.095799" lon="17.944012">
        <ele>54.2</ele>
        <time>2014-10-11T13:25:14Z</time>
      </trkpt>
      <trkpt lat="59.095751" lon="17.943962">
        <ele>54.3</ele>
        <time>2014-10-11T13:25:15Z</time>
      </trkpt>
      <trkpt lat="59.095709" lon="17.943859">
        <ele>54.9</ele>
        <time>2014-10-11T13:25:16Z</time>
      </trkpt>
      <trkpt lat="59.095645" lon="17.943818">
        <ele>54.8</ele>
        <time>2014-10-11T13:25:17Z</time>
      </trkpt>
      <trkpt lat="59.095604" lon="17.94382">
        <ele>54.6</ele>
        <time>2014-10-11T13:25:18Z</time>
      </trkpt>
      <trkpt lat="59.095563" lon="17.943814">
        <ele>54.4</ele>
        <time>2014-10-11T13:25:19Z</time>
      </trkpt>
      <trkpt lat="59.09551" lon="17.943789">
        <ele>54.2</ele>
        <time>2014-10-11T13:25:20Z</time>
      </trkpt>
      <trkpt lat="59.095449" lon="17.943749">
        <ele>54.2</ele>
        <time>2014-10-11T13:25:21Z</time>
      </trkpt>
      <trkpt lat="59.095395" lon="17.94371">
        <ele>54.1</ele>
        <time>2014-10-11T13:25:22Z</time>
      </trkpt>
      <trkpt lat="59.095337" lon="17.943676">
        <ele>53.7</ele>
        <time>2014-10-11T13:25:23Z</time>
      </trkpt>
      <trkpt lat="59.095269" lon="17.943647">
        <ele>53.1</ele>
        <time>2014-10-11T13:25:24Z</time>
      </trkpt>
      <trkpt lat="59.095201" lon="17.943607">
        <ele>52.6</ele>
        <time>2014-10-11T13:25:25Z</time>
      </trkpt>
      <trkpt lat="59.095131" lon="17.943523">
        <ele>52.5</ele>
        <time>2014-10-11T13:25:26Z</time>
      </trkpt>
      <trkpt lat="59.095081" lon="17.943489">
        <ele>52.1</ele>
        <time>2014-10-11T13:25:27Z</time>
      </trkpt>
      <trkpt lat="59.095045" lon="17.943443">
        <ele>52.1</ele>
        <time>2014-10-11T13:25:28Z</time>
      </trkpt>
      <trkpt lat="59.094999" lon="17.94342">
        <ele>51.7</ele>
        <time>2014-10-11T13:25:29Z</time>
      </trkpt>
      <trkpt lat="59.094939" lon="17.943374">
        <ele>51.2</ele>
        <time>2014-10-11T13:25:30Z</time>
      </trkpt>
      <trkpt lat="59.094884" lon="17.943333">
        <ele>50.8</ele>
        <time>2014-10-11T13:25:31Z</time>
      </trkpt>
      <trkpt lat="59.094842" lon="17.943281">
        <ele>50.7</ele>
        <time>2014-10-11T13:25:32Z</time>
      </trkpt>
      <trkpt lat="59.094819" lon="17.943235">
        <ele>50.8</ele>
        <time>2014-10-11T13:25:33Z</time>
      </trkpt>
      <trkpt lat="59.094787" lon="17.94318">
        <ele>50.8</ele>
        <time>2014-10-11T13:25:34Z</time>
      </trkpt>
      <trkpt lat="59.094744" lon="17.943113">
        <ele>50.8</ele>
        <time>2014-10-11T13:25:35Z</time>
      </trkpt>
      <trkpt lat="59.094723" lon="17.943021">
        <ele>51.3</ele>
        <time>2014-10-11T13:25:36Z</time>
      </trkpt>
      <trkpt lat="59.094691" lon="17.942927">
        <ele>51.6</ele>
        <time>2014-10-11T13:25:37Z</time>
      </trkpt>
      <trkpt lat="59.094666" lon="17.942815">
        <ele>52</ele>
        <time>2014-10-11T13:25:38Z</time>
      </trkpt>
      <trkpt lat="59.094641" lon="17.942713">
        <ele>52.4</ele>
        <time>2014-10-11T13:25:39Z</time>
      </trkpt>
      <trkpt lat="59.094613" lon="17.942628">
        <ele>52.6</ele>
        <time>2014-10-11T13:25:40Z</time>
      </trkpt>
      <trkpt lat="59.094582" lon="17.942559">
        <ele>52.6</ele>
        <time>2014-10-11T13:25:41Z</time>
      </trkpt>
      <trkpt lat="59.094569" lon="17.942453">
        <ele>53.2</ele>
        <time>2014-10-11T13:25:42Z</time>
      </trkpt>
      <trkpt lat="59.094524" lon="17.942335">
        <ele>53.4</ele>
        <time>2014-10-11T13:25:43Z</time>
      </trkpt>
      <trkpt lat="59.09445" lon="17.942252">
        <ele>52.9</ele>
        <time>2014-10-11T13:25:44Z</time>
      </trkpt>
      <trkpt lat="59.094423" lon="17.942138">
        <ele>53.2</ele>
        <time>2014-10-11T13:25:45Z</time>
      </trkpt>
      <trkpt lat="59.094393" lon="17.942035">
        <ele>53.4</ele>
        <time>2014-10-11T13:25:46Z</time>
      </trkpt>
      <trkpt lat="59.094343" lon="17.941949">
        <ele>53.2</ele>
        <time>2014-10-11T13:25:47Z</time>
      </trkpt>
      <trkpt lat="59.094322" lon="17.941863">
        <ele>53.4</ele>
        <time>2014-10-11T13:25:48Z</time>
      </trkpt>
      <trkpt lat="59.094298" lon="17.941752">
        <ele>53.8</ele>
        <time>2014-10-11T13:25:49Z</time>
      </trkpt>
      <trkpt lat="59.094251" lon="17.941653">
        <ele>53.6</ele>
        <time>2014-10-11T13:25:50Z</time>
      </trkpt>
      <trkpt lat="59.094216" lon="17.941564">
        <ele>53.5</ele>
        <time>2014-10-11T13:25:51Z</time>
      </trkpt>
      <trkpt lat="59.094169" lon="17.941467">
        <ele>53.2</ele>
        <time>2014-10-11T13:25:52Z</time>
      </trkpt>
      <trkpt lat="59.094131" lon="17.941377">
        <ele>53</ele>
        <time>2014-10-11T13:25:53Z</time>
      </trkpt>
      <trkpt lat="59.094106" lon="17.941286">
        <ele>53.1</ele>
        <time>2014-10-11T13:25:54Z</time>
      </trkpt>
      <trkpt lat="59.094078" lon="17.941199">
        <ele>53</ele>
        <time>2014-10-11T13:25:55Z</time>
      </trkpt>
      <trkpt lat="59.094036" lon="17.94111">
        <ele>52.6</ele>
        <time>2014-10-11T13:25:56Z</time>
      </trkpt>
      <trkpt lat="59.093998" lon="17.941026">
        <ele>52.2</ele>
        <time>2014-10-11T13:25:57Z</time>
      </trkpt>
      <trkpt lat="59.093948" lon="17.940924">
        <ele>51.6</ele>
        <time>2014-10-11T13:25:58Z</time>
      </trkpt>
      <trkpt lat="59.093909" lon="17.940823">
        <ele>51.2</ele>
        <time>2014-10-11T13:25:59Z</time>
      </trkpt>
      <trkpt lat="59.093873" lon="17.940734">
        <ele>50.7</ele>
        <time>2014-10-11T13:26:00Z</time>
      </trkpt>
      <trkpt lat="59.093829" lon="17.940638">
        <ele>50.1</ele>
        <time>2014-10-11T13:26:01Z</time>
      </trkpt>
      <trkpt lat="59.093785" lon="17.940526">
        <ele>49.5</ele>
        <time>2014-10-11T13:26:02Z</time>
      </trkpt>
      <trkpt lat="59.093743" lon="17.940394">
        <ele>49.1</ele>
        <time>2014-10-11T13:26:03Z</time>
      </trkpt>
      <trkpt lat="59.093696" lon="17.940248">
        <ele>49.4</ele>
        <time>2014-10-11T13:26:04Z</time>
      </trkpt>
      <trkpt lat="59.093643" lon="17.940136">
        <ele>49.5</ele>
        <time>2014-10-11T13:26:05Z</time>
      </trkpt>
      <trkpt lat="59.093585" lon="17.94">
        <ele>49.5</ele>
        <time>2014-10-11T13:26:06Z</time>
      </trkpt>
      <trkpt lat="59.093536" lon="17.939871">
        <ele>49.5</ele>
        <time>2014-10-11T13:26:07Z</time>
      </trkpt>
      <trkpt lat="59.093485" lon="17.939713">
        <ele>49.6</ele>
        <time>2014-10-11T13:26:08Z</time>
      </trkpt>
      <trkpt lat="59.093433" lon="17.93955">
        <ele>49.6</ele>
        <time>2014-10-11T13:26:09Z</time>
      </trkpt>
      <trkpt lat="59.093407" lon="17.93941">
        <ele>49.8</ele>
        <time>2014-10-11T13:26:10Z</time>
      </trkpt>
      <trkpt lat="59.093407" lon="17.939293">
        <ele>50.2</ele>
        <time>2014-10-11T13:26:11Z</time>
      </trkpt>
      <trkpt lat="59.093363" lon="17.939104">
        <ele>50.2</ele>
        <time>2014-10-11T13:26:12Z</time>
      </trkpt>
      <trkpt lat="59.093335" lon="17.938969">
        <ele>50.2</ele>
        <time>2014-10-11T13:26:13Z</time>
      </trkpt>
      <trkpt lat="59.09328" lon="17.938859">
        <ele>49.6</ele>
        <time>2014-10-11T13:26:14Z</time>
      </trkpt>
      <trkpt lat="59.093236" lon="17.938713">
        <ele>49.3</ele>
        <time>2014-10-11T13:26:15Z</time>
      </trkpt>
      <trkpt lat="59.093197" lon="17.938572">
        <ele>49.2</ele>
        <time>2014-10-11T13:26:16Z</time>
      </trkpt>
      <trkpt lat="59.093159" lon="17.938433">
        <ele>49.1</ele>
        <time>2014-10-11T13:26:17Z</time>
      </trkpt>
      <trkpt lat="59.093118" lon="17.938279">
        <ele>49</ele>
        <time>2014-10-11T13:26:18Z</time>
      </trkpt>
      <trkpt lat="59.093082" lon="17.938109">
        <ele>49.1</ele>
        <time>2014-10-11T13:26:19Z</time>
      </trkpt>
      <trkpt lat="59.09305" lon="17.937976">
        <ele>49.1</ele>
        <time>2014-10-11T13:26:20Z</time>
      </trkpt>
      <trkpt lat="59.093005" lon="17.937828">
        <ele>48.9</ele>
        <time>2014-10-11T13:26:21Z</time>
      </trkpt>
      <trkpt lat="59.092962" lon="17.937692">
        <ele>48.6</ele>
        <time>2014-10-11T13:26:22Z</time>
      </trkpt>
      <trkpt lat="59.092928" lon="17.93756">
        <ele>48.5</ele>
        <time>2014-10-11T13:26:23Z</time>
      </trkpt>
      <trkpt lat="59.092902" lon="17.937457">
        <ele>48.6</ele>
        <time>2014-10-11T13:26:24Z</time>
      </trkpt>
      <trkpt lat="59.092879" lon="17.937352">
        <ele>48.7</ele>
        <time>2014-10-11T13:26:25Z</time>
      </trkpt>
      <trkpt lat="59.092851" lon="17.937281">
        <ele>48.8</ele>
        <time>2014-10-11T13:26:26Z</time>
      </trkpt>
      <trkpt lat="59.092826" lon="17.937215">
        <ele>48.7</ele>
        <time>2014-10-11T13:26:27Z</time>
      </trkpt>
      <trkpt lat="59.092823" lon="17.93712">
        <ele>49</ele>
        <time>2014-10-11T13:26:28Z</time>
      </trkpt>
      <trkpt lat="59.092811" lon="17.937045">
        <ele>49.1</ele>
        <time>2014-10-11T13:26:29Z</time>
      </trkpt>
      <trkpt lat="59.0928" lon="17.936982">
        <ele>49.1</ele>
        <time>2014-10-11T13:26:30Z</time>
      </trkpt>
      <trkpt lat="59.092785" lon="17.936897">
        <ele>49.1</ele>
        <time>2014-10-11T13:26:31Z</time>
      </trkpt>
      <trkpt lat="59.092767" lon="17.936804">
        <ele>49.2</ele>
        <time>2014-10-11T13:26:32Z</time>
      </trkpt>
      <trkpt lat="59.092764" lon="17.936717">
        <ele>49.3</ele>
        <time>2014-10-11T13:26:33Z</time>
      </trkpt>
      <trkpt lat="59.092738" lon="17.936621">
        <ele>49.3</ele>
        <time>2014-10-11T13:26:34Z</time>
      </trkpt>
      <trkpt lat="59.092727" lon="17.936541">
        <ele>49.3</ele>
        <time>2014-10-11T13:26:35Z</time>
      </trkpt>
      <trkpt lat="59.092729" lon="17.936409">
        <ele>49.6</ele>
        <time>2014-10-11T13:26:36Z</time>
      </trkpt>
      <trkpt lat="59.092715" lon="17.936315">
        <ele>49.7</ele>
        <time>2014-10-11T13:26:37Z</time>
      </trkpt>
      <trkpt lat="59.092741" lon="17.936195">
        <ele>50.2</ele>
        <time>2014-10-11T13:26:38Z</time>
      </trkpt>
      <trkpt lat="59.092736" lon="17.936095">
        <ele>50.3</ele>
        <time>2014-10-11T13:26:39Z</time>
      </trkpt>
      <trkpt lat="59.092726" lon="17.936024">
        <ele>50.4</ele>
        <time>2014-10-11T13:26:40Z</time>
      </trkpt>
      <trkpt lat="59.092726" lon="17.935945">
        <ele>50.5</ele>
        <time>2014-10-11T13:26:41Z</time>
      </trkpt>
      <trkpt lat="59.092678" lon="17.935819">
        <ele>50.2</ele>
        <time>2014-10-11T13:26:42Z</time>
      </trkpt>
      <trkpt lat="59.092649" lon="17.9357">
        <ele>50</ele>
        <time>2014-10-11T13:26:43Z</time>
      </trkpt>
      <trkpt lat="59.092622" lon="17.935594">
        <ele>49.8</ele>
        <time>2014-10-11T13:26:44Z</time>
      </trkpt>
      <trkpt lat="59.092589" lon="17.935483">
        <ele>49.6</ele>
        <time>2014-10-11T13:26:45Z</time>
      </trkpt>
      <trkpt lat="59.092553" lon="17.935381">
        <ele>49.4</ele>
        <time>2014-10-11T13:26:46Z</time>
      </trkpt>
      <trkpt lat="59.092524" lon="17.935282">
        <ele>49.5</ele>
        <time>2014-10-11T13:26:47Z</time>
      </trkpt>
      <trkpt lat="59.092476" lon="17.93515">
        <ele>49.6</ele>
        <time>2014-10-11T13:26:48Z</time>
      </trkpt>
      <trkpt lat="59.092441" lon="17.935044">
        <ele>49.7</ele>
        <time>2014-10-11T13:26:49Z</time>
      </trkpt>
      <trkpt lat="59.092431" lon="17.934964">
        <ele>50</ele>
        <time>2014-10-11T13:26:50Z</time>
      </trkpt>
      <trkpt lat="59.092392" lon="17.934863">
        <ele>50</ele>
        <time>2014-10-11T13:26:51Z</time>
      </trkpt>
      <trkpt lat="59.092354" lon="17.934755">
        <ele>50</ele>
        <time>2014-10-11T13:26:52Z</time>
      </trkpt>
      <trkpt lat="59.092307" lon="17.934649">
        <ele>49.9</ele>
        <time>2014-10-11T13:26:53Z</time>
      </trkpt>
      <trkpt lat="59.092267" lon="17.934531">
        <ele>49.9</ele>
        <time>2014-10-11T13:26:54Z</time>
      </trkpt>
      <trkpt lat="59.092235" lon="17.934459">
        <ele>49.8</ele>
        <time>2014-10-11T13:26:55Z</time>
      </trkpt>
      <trkpt lat="59.092197" lon="17.934348">
        <ele>49.8</ele>
        <time>2014-10-11T13:26:56Z</time>
      </trkpt>
      <trkpt lat="59.092161" lon="17.934241">
        <ele>49.8</ele>
        <time>2014-10-11T13:26:57Z</time>
      </trkpt>
      <trkpt lat="59.092112" lon="17.934135">
        <ele>49.6</ele>
        <time>2014-10-11T13:26:58Z</time>
      </trkpt>
      <trkpt lat="59.092064" lon="17.934026">
        <ele>49.6</ele>
        <time>2014-10-11T13:26:59Z</time>
      </trkpt>
      <trkpt lat="59.092017" lon="17.93392">
        <ele>49.8</ele>
        <time>2014-10-11T13:27:00Z</time>
      </trkpt>
      <trkpt lat="59.091972" lon="17.933839">
        <ele>49.8</ele>
        <time>2014-10-11T13:27:01Z</time>
      </trkpt>
      <trkpt lat="59.091921" lon="17.933731">
        <ele>49.9</ele>
        <time>2014-10-11T13:27:02Z</time>
      </trkpt>
      <trkpt lat="59.091869" lon="17.933639">
        <ele>50.1</ele>
        <time>2014-10-11T13:27:03Z</time>
      </trkpt>
      <trkpt lat="59.091829" lon="17.933564">
        <ele>50.2</ele>
        <time>2014-10-11T13:27:04Z</time>
      </trkpt>
      <trkpt lat="59.091777" lon="17.933476">
        <ele>50.2</ele>
        <time>2014-10-11T13:27:05Z</time>
      </trkpt>
      <trkpt lat="59.091729" lon="17.933396">
        <ele>50.1</ele>
        <time>2014-10-11T13:27:06Z</time>
      </trkpt>
      <trkpt lat="59.091679" lon="17.93332">
        <ele>49.9</ele>
        <time>2014-10-11T13:27:07Z</time>
      </trkpt>
      <trkpt lat="59.091626" lon="17.93322">
        <ele>49.8</ele>
        <time>2014-10-11T13:27:08Z</time>
      </trkpt>
      <trkpt lat="59.091579" lon="17.933127">
        <ele>49.6</ele>
        <time>2014-10-11T13:27:09Z</time>
      </trkpt>
      <trkpt lat="59.091531" lon="17.933032">
        <ele>49.3</ele>
        <time>2014-10-11T13:27:10Z</time>
      </trkpt>
      <trkpt lat="59.091486" lon="17.932937">
        <ele>49.1</ele>
        <time>2014-10-11T13:27:11Z</time>
      </trkpt>
      <trkpt lat="59.091441" lon="17.932835">
        <ele>48.7</ele>
        <time>2014-10-11T13:27:12Z</time>
      </trkpt>
      <trkpt lat="59.0914" lon="17.93274">
        <ele>48.3</ele>
        <time>2014-10-11T13:27:13Z</time>
      </trkpt>
      <trkpt lat="59.091362" lon="17.93265">
        <ele>48</ele>
        <time>2014-10-11T13:27:14Z</time>
      </trkpt>
      <trkpt lat="59.091343" lon="17.932537">
        <ele>47.9</ele>
        <time>2014-10-11T13:27:15Z</time>
      </trkpt>
      <trkpt lat="59.091321" lon="17.93244">
        <ele>47.7</ele>
        <time>2014-10-11T13:27:16Z</time>
      </trkpt>
      <trkpt lat="59.091266" lon="17.932351">
        <ele>46.9</ele>
        <time>2014-10-11T13:27:17Z</time>
      </trkpt>
      <trkpt lat="59.091227" lon="17.932266">
        <ele>46.7</ele>
        <time>2014-10-11T13:27:18Z</time>
      </trkpt>
      <trkpt lat="59.091201" lon="17.932133">
        <ele>46.7</ele>
        <time>2014-10-11T13:27:19Z</time>
      </trkpt>
      <trkpt lat="59.091166" lon="17.932002">
        <ele>46.8</ele>
        <time>2014-10-11T13:27:20Z</time>
      </trkpt>
      <trkpt lat="59.091144" lon="17.931895">
        <ele>46.9</ele>
        <time>2014-10-11T13:27:21Z</time>
      </trkpt>
      <trkpt lat="59.091111" lon="17.931787">
        <ele>46.9</ele>
        <time>2014-10-11T13:27:22Z</time>
      </trkpt>
      <trkpt lat="59.091096" lon="17.931683">
        <ele>47</ele>
        <time>2014-10-11T13:27:23Z</time>
      </trkpt>
      <trkpt lat="59.091078" lon="17.931564">
        <ele>47</ele>
        <time>2014-10-11T13:27:24Z</time>
      </trkpt>
      <trkpt lat="59.091057" lon="17.93145">
        <ele>47.1</ele>
        <time>2014-10-11T13:27:25Z</time>
      </trkpt>
      <trkpt lat="59.09104" lon="17.931334">
        <ele>47.1</ele>
        <time>2014-10-11T13:27:26Z</time>
      </trkpt>
      <trkpt lat="59.091012" lon="17.931202">
        <ele>47</ele>
        <time>2014-10-11T13:27:27Z</time>
      </trkpt>
      <trkpt lat="59.090987" lon="17.931056">
        <ele>47</ele>
        <time>2014-10-11T13:27:28Z</time>
      </trkpt>
      <trkpt lat="59.090964" lon="17.930934">
        <ele>46.8</ele>
        <time>2014-10-11T13:27:29Z</time>
      </trkpt>
      <trkpt lat="59.090943" lon="17.930812">
        <ele>46.8</ele>
        <time>2014-10-11T13:27:30Z</time>
      </trkpt>
      <trkpt lat="59.090916" lon="17.930684">
        <ele>46.6</ele>
        <time>2014-10-11T13:27:31Z</time>
      </trkpt>
      <trkpt lat="59.090896" lon="17.930564">
        <ele>46.5</ele>
        <time>2014-10-11T13:27:32Z</time>
      </trkpt>
      <trkpt lat="59.090879" lon="17.930431">
        <ele>46.4</ele>
        <time>2014-10-11T13:27:33Z</time>
      </trkpt>
      <trkpt lat="59.090858" lon="17.930288">
        <ele>46.3</ele>
        <time>2014-10-11T13:27:34Z</time>
      </trkpt>
      <trkpt lat="59.090846" lon="17.930147">
        <ele>46.3</ele>
        <time>2014-10-11T13:27:35Z</time>
      </trkpt>
      <trkpt lat="59.090819" lon="17.930015">
        <ele>46.1</ele>
        <time>2014-10-11T13:27:36Z</time>
      </trkpt>
      <trkpt lat="59.090798" lon="17.929877">
        <ele>46</ele>
        <time>2014-10-11T13:27:37Z</time>
      </trkpt>
      <trkpt lat="59.09078" lon="17.929753">
        <ele>45.8</ele>
        <time>2014-10-11T13:27:38Z</time>
      </trkpt>
      <trkpt lat="59.090762" lon="17.929641">
        <ele>45.7</ele>
        <time>2014-10-11T13:27:39Z</time>
      </trkpt>
      <trkpt lat="59.090745" lon="17.92952">
        <ele>45.5</ele>
        <time>2014-10-11T13:27:40Z</time>
      </trkpt>
      <trkpt lat="59.090724" lon="17.929385">
        <ele>45.3</ele>
        <time>2014-10-11T13:27:41Z</time>
      </trkpt>
      <trkpt lat="59.090708" lon="17.92926">
        <ele>45.1</ele>
        <time>2014-10-11T13:27:42Z</time>
      </trkpt>
      <trkpt lat="59.090689" lon="17.929144">
        <ele>44.9</ele>
        <time>2014-10-11T13:27:43Z</time>
      </trkpt>
      <trkpt lat="59.090664" lon="17.928994">
        <ele>44.7</ele>
        <time>2014-10-11T13:27:44Z</time>
      </trkpt>
      <trkpt lat="59.090647" lon="17.92886">
        <ele>44.5</ele>
        <time>2014-10-11T13:27:45Z</time>
      </trkpt>
      <trkpt lat="59.090622" lon="17.928731">
        <ele>44.2</ele>
        <time>2014-10-11T13:27:46Z</time>
      </trkpt>
      <trkpt lat="59.090592" lon="17.928589">
        <ele>43.6</ele>
        <time>2014-10-11T13:27:47Z</time>
      </trkpt>
      <trkpt lat="59.090568" lon="17.92845">
        <ele>43.1</ele>
        <time>2014-10-11T13:27:48Z</time>
      </trkpt>
      <trkpt lat="59.09054" lon="17.928299">
        <ele>42.6</ele>
        <time>2014-10-11T13:27:49Z</time>
      </trkpt>
      <trkpt lat="59.090517" lon="17.928155">
        <ele>42.2</ele>
        <time>2014-10-11T13:27:50Z</time>
      </trkpt>
      <trkpt lat="59.090488" lon="17.928009">
        <ele>41.7</ele>
        <time>2014-10-11T13:27:51Z</time>
      </trkpt>
      <trkpt lat="59.090464" lon="17.927861">
        <ele>41.3</ele>
        <time>2014-10-11T13:27:52Z</time>
      </trkpt>
      <trkpt lat="59.090445" lon="17.927732">
        <ele>41</ele>
        <time>2014-10-11T13:27:53Z</time>
      </trkpt>
      <trkpt lat="59.090424" lon="17.927604">
        <ele>40.7</ele>
        <time>2014-10-11T13:27:54Z</time>
      </trkpt>
      <trkpt lat="59.090401" lon="17.926392">
        <ele>42.4</ele>
        <time>2014-10-11T13:28:01Z</time>
      </trkpt>
      <trkpt lat="59.09041" lon="17.92629">
        <ele>42.8</ele>
        <time>2014-10-11T13:28:02Z</time>
      </trkpt>
      <trkpt lat="59.090423" lon="17.926147">
        <ele>43.4</ele>
        <time>2014-10-11T13:28:03Z</time>
      </trkpt>
      <trkpt lat="59.090689" lon="17.92617">
        <ele>46.3</ele>
        <time>2014-10-11T13:28:05Z</time>
      </trkpt>
      <trkpt lat="59.090757" lon="17.926103">
        <ele>47.3</ele>
        <time>2014-10-11T13:28:06Z</time>
      </trkpt>
      <trkpt lat="59.090821" lon="17.926054">
        <ele>48.3</ele>
        <time>2014-10-11T13:28:07Z</time>
      </trkpt>
      <trkpt lat="59.090891" lon="17.925993">
        <ele>49.4</ele>
        <time>2014-10-11T13:28:08Z</time>
      </trkpt>
      <trkpt lat="59.090947" lon="17.925968">
        <ele>50.2</ele>
        <time>2014-10-11T13:28:09Z</time>
      </trkpt>
      <trkpt lat="59.091005" lon="17.925925">
        <ele>51.1</ele>
        <time>2014-10-11T13:28:10Z</time>
      </trkpt>
      <trkpt lat="59.091062" lon="17.925887">
        <ele>52</ele>
        <time>2014-10-11T13:28:11Z</time>
      </trkpt>
      <trkpt lat="59.091123" lon="17.925853">
        <ele>52.9</ele>
        <time>2014-10-11T13:28:12Z</time>
      </trkpt>
      <trkpt lat="59.091185" lon="17.9258">
        <ele>53.9</ele>
        <time>2014-10-11T13:28:13Z</time>
      </trkpt>
      <trkpt lat="59.091243" lon="17.92575">
        <ele>54.9</ele>
        <time>2014-10-11T13:28:14Z</time>
      </trkpt>
      <trkpt lat="59.091297" lon="17.925705">
        <ele>55.1</ele>
        <time>2014-10-11T13:28:15Z</time>
      </trkpt>
      <trkpt lat="59.091348" lon="17.925633">
        <ele>55.2</ele>
        <time>2014-10-11T13:28:16Z</time>
      </trkpt>
      <trkpt lat="59.091413" lon="17.925561">
        <ele>55.3</ele>
        <time>2014-10-11T13:28:17Z</time>
      </trkpt>
      <trkpt lat="59.091456" lon="17.925495">
        <ele>55.4</ele>
        <time>2014-10-11T13:28:18Z</time>
      </trkpt>
      <trkpt lat="59.091509" lon="17.925401">
        <ele>55.5</ele>
        <time>2014-10-11T13:28:19Z</time>
      </trkpt>
      <trkpt lat="59.091556" lon="17.925328">
        <ele>55.6</ele>
        <time>2014-10-11T13:28:20Z</time>
      </trkpt>
      <trkpt lat="59.091599" lon="17.925231">
        <ele>55.8</ele>
        <time>2014-10-11T13:28:21Z</time>
      </trkpt>
      <trkpt lat="59.091644" lon="17.925129">
        <ele>56</ele>
        <time>2014-10-11T13:28:22Z</time>
      </trkpt>
      <trkpt lat="59.091685" lon="17.925036">
        <ele>56.2</ele>
        <time>2014-10-11T13:28:23Z</time>
      </trkpt>
      <trkpt lat="59.091727" lon="17.924944">
        <ele>56.5</ele>
        <time>2014-10-11T13:28:24Z</time>
      </trkpt>
      <trkpt lat="59.091776" lon="17.924841">
        <ele>56.8</ele>
        <time>2014-10-11T13:28:25Z</time>
      </trkpt>
      <trkpt lat="59.091814" lon="17.924739">
        <ele>57.2</ele>
        <time>2014-10-11T13:28:26Z</time>
      </trkpt>
      <trkpt lat="59.091863" lon="17.924639">
        <ele>57.5</ele>
        <time>2014-10-11T13:28:27Z</time>
      </trkpt>
      <trkpt lat="59.091896" lon="17.924529">
        <ele>57.9</ele>
        <time>2014-10-11T13:28:28Z</time>
      </trkpt>
      <trkpt lat="59.091937" lon="17.924423">
        <ele>58.2</ele>
        <time>2014-10-11T13:28:29Z</time>
      </trkpt>
      <trkpt lat="59.091974" lon="17.92433">
        <ele>58.5</ele>
        <time>2014-10-11T13:28:30Z</time>
      </trkpt>
      <trkpt lat="59.092008" lon="17.924226">
        <ele>58.9</ele>
        <time>2014-10-11T13:28:31Z</time>
      </trkpt>
      <trkpt lat="59.092046" lon="17.924136">
        <ele>59.2</ele>
        <time>2014-10-11T13:28:32Z</time>
      </trkpt>
      <trkpt lat="59.092078" lon="17.924034">
        <ele>59.6</ele>
        <time>2014-10-11T13:28:33Z</time>
      </trkpt>
      <trkpt lat="59.09211" lon="17.923926">
        <ele>59.9</ele>
        <time>2014-10-11T13:28:34Z</time>
      </trkpt>
      <trkpt lat="59.092133" lon="17.923827">
        <ele>60.1</ele>
        <time>2014-10-11T13:28:35Z</time>
      </trkpt>
      <trkpt lat="59.092165" lon="17.923722">
        <ele>60.1</ele>
        <time>2014-10-11T13:28:36Z</time>
      </trkpt>
      <trkpt lat="59.092189" lon="17.923607">
        <ele>60.3</ele>
        <time>2014-10-11T13:28:37Z</time>
      </trkpt>
      <trkpt lat="59.092232" lon="17.92352">
        <ele>60.1</ele>
        <time>2014-10-11T13:28:38Z</time>
      </trkpt>
      <trkpt lat="59.092262" lon="17.923409">
        <ele>60.2</ele>
        <time>2014-10-11T13:28:39Z</time>
      </trkpt>
      <trkpt lat="59.092292" lon="17.923312">
        <ele>60.2</ele>
        <time>2014-10-11T13:28:40Z</time>
      </trkpt>
      <trkpt lat="59.092322" lon="17.92321">
        <ele>60.3</ele>
        <time>2014-10-11T13:28:41Z</time>
      </trkpt>
      <trkpt lat="59.092347" lon="17.923115">
        <ele>60.4</ele>
        <time>2014-10-11T13:28:42Z</time>
      </trkpt>
      <trkpt lat="59.092386" lon="17.923014">
        <ele>60.3</ele>
        <time>2014-10-11T13:28:43Z</time>
      </trkpt>
      <trkpt lat="59.092424" lon="17.922929">
        <ele>60.3</ele>
        <time>2014-10-11T13:28:44Z</time>
      </trkpt>
      <trkpt lat="59.092454" lon="17.92285">
        <ele>60.2</ele>
        <time>2014-10-11T13:28:45Z</time>
      </trkpt>
      <trkpt lat="59.092487" lon="17.922765">
        <ele>60.1</ele>
        <time>2014-10-11T13:28:46Z</time>
      </trkpt>
      <trkpt lat="59.092514" lon="17.922677">
        <ele>60.1</ele>
        <time>2014-10-11T13:28:47Z</time>
      </trkpt>
      <trkpt lat="59.092537" lon="17.922587">
        <ele>60.1</ele>
        <time>2014-10-11T13:28:48Z</time>
      </trkpt>
      <trkpt lat="59.092556" lon="17.922515">
        <ele>60.1</ele>
        <time>2014-10-11T13:28:49Z</time>
      </trkpt>
      <trkpt lat="59.092575" lon="17.922431">
        <ele>60.2</ele>
        <time>2014-10-11T13:28:50Z</time>
      </trkpt>
      <trkpt lat="59.092588" lon="17.922344">
        <ele>60.3</ele>
        <time>2014-10-11T13:28:51Z</time>
      </trkpt>
      <trkpt lat="59.092598" lon="17.922254">
        <ele>60.5</ele>
        <time>2014-10-11T13:28:52Z</time>
      </trkpt>
      <trkpt lat="59.092599" lon="17.922164">
        <ele>60.8</ele>
        <time>2014-10-11T13:28:53Z</time>
      </trkpt>
      <trkpt lat="59.092583" lon="17.922094">
        <ele>61.2</ele>
        <time>2014-10-11T13:28:54Z</time>
      </trkpt>
      <trkpt lat="59.092569" lon="17.922022">
        <ele>61.7</ele>
        <time>2014-10-11T13:28:55Z</time>
      </trkpt>
      <trkpt lat="59.092542" lon="17.921952">
        <ele>62.3</ele>
        <time>2014-10-11T13:28:56Z</time>
      </trkpt>
      <trkpt lat="59.092529" lon="17.921888">
        <ele>62.7</ele>
        <time>2014-10-11T13:28:57Z</time>
      </trkpt>
      <trkpt lat="59.092516" lon="17.921828">
        <ele>63.1</ele>
        <time>2014-10-11T13:28:58Z</time>
      </trkpt>
      <trkpt lat="59.092458" lon="17.921782">
        <ele>63.8</ele>
        <time>2014-10-11T13:28:59Z</time>
      </trkpt>
      <trkpt lat="59.092417" lon="17.921753">
        <ele>64.2</ele>
        <time>2014-10-11T13:29:00Z</time>
      </trkpt>
      <trkpt lat="59.092387" lon="17.921705">
        <ele>64.7</ele>
        <time>2014-10-11T13:29:01Z</time>
      </trkpt>
      <trkpt lat="59.092355" lon="17.921624">
        <ele>65.2</ele>
        <time>2014-10-11T13:29:03Z</time>
      </trkpt>
      <trkpt lat="59.09233" lon="17.921586">
        <ele>65.5</ele>
        <time>2014-10-11T13:29:04Z</time>
      </trkpt>
      <trkpt lat="59.092287" lon="17.92153">
        <ele>66</ele>
        <time>2014-10-11T13:29:06Z</time>
      </trkpt>
      <trkpt lat="59.092248" lon="17.921495">
        <ele>66.4</ele>
        <time>2014-10-11T13:29:08Z</time>
      </trkpt>
      <trkpt lat="59.092201" lon="17.921448">
        <ele>66.8</ele>
        <time>2014-10-11T13:29:10Z</time>
      </trkpt>
      <trkpt lat="59.092175" lon="17.921424">
        <ele>67.1</ele>
        <time>2014-10-11T13:29:11Z</time>
      </trkpt>
      <trkpt lat="59.092147" lon="17.921403">
        <ele>67.3</ele>
        <time>2014-10-11T13:29:12Z</time>
      </trkpt>
      <trkpt lat="59.092117" lon="17.921383">
        <ele>67.5</ele>
        <time>2014-10-11T13:29:13Z</time>
      </trkpt>
      <trkpt lat="59.092089" lon="17.921363">
        <ele>67.7</ele>
        <time>2014-10-11T13:29:14Z</time>
      </trkpt>
      <trkpt lat="59.092062" lon="17.921341">
        <ele>67.7</ele>
        <time>2014-10-11T13:29:15Z</time>
      </trkpt>
      <trkpt lat="59.092033" lon="17.921317">
        <ele>67.7</ele>
        <time>2014-10-11T13:29:16Z</time>
      </trkpt>
      <trkpt lat="59.092007" lon="17.9213">
        <ele>67.7</ele>
        <time>2014-10-11T13:29:17Z</time>
      </trkpt>
      <trkpt lat="59.091981" lon="17.921281">
        <ele>67.7</ele>
        <time>2014-10-11T13:29:18Z</time>
      </trkpt>
      <trkpt lat="59.091953" lon="17.921264">
        <ele>67.7</ele>
        <time>2014-10-11T13:29:19Z</time>
      </trkpt>
      <trkpt lat="59.091925" lon="17.92125">
        <ele>67.6</ele>
        <time>2014-10-11T13:29:20Z</time>
      </trkpt>
      <trkpt lat="59.091896" lon="17.921234">
        <ele>67.6</ele>
        <time>2014-10-11T13:29:21Z</time>
      </trkpt>
      <trkpt lat="59.091844" lon="17.921205">
        <ele>67.5</ele>
        <time>2014-10-11T13:29:23Z</time>
      </trkpt>
      <trkpt lat="59.091793" lon="17.921175">
        <ele>67.4</ele>
        <time>2014-10-11T13:29:25Z</time>
      </trkpt>
      <trkpt lat="59.091743" lon="17.921134">
        <ele>67.4</ele>
        <time>2014-10-11T13:29:27Z</time>
      </trkpt>
      <trkpt lat="59.09172" lon="17.921102">
        <ele>67.4</ele>
        <time>2014-10-11T13:29:28Z</time>
      </trkpt>
      <trkpt lat="59.091693" lon="17.921063">
        <ele>67.4</ele>
        <time>2014-10-11T13:29:29Z</time>
      </trkpt>
      <trkpt lat="59.091666" lon="17.921021">
        <ele>67.4</ele>
        <time>2014-10-11T13:29:30Z</time>
      </trkpt>
      <trkpt lat="59.091639" lon="17.920977">
        <ele>67.4</ele>
        <time>2014-10-11T13:29:31Z</time>
      </trkpt>
      <trkpt lat="59.091616" lon="17.920941">
        <ele>67.5</ele>
        <time>2014-10-11T13:29:32Z</time>
      </trkpt>
      <trkpt lat="59.091599" lon="17.92088">
        <ele>67.5</ele>
        <time>2014-10-11T13:29:33Z</time>
      </trkpt>
      <trkpt lat="59.091584" lon="17.920833">
        <ele>67.6</ele>
        <time>2014-10-11T13:29:34Z</time>
      </trkpt>
      <trkpt lat="59.091571" lon="17.920767">
        <ele>67.7</ele>
        <time>2014-10-11T13:29:35Z</time>
      </trkpt>
      <trkpt lat="59.091552" lon="17.920703">
        <ele>67.8</ele>
        <time>2014-10-11T13:29:36Z</time>
      </trkpt>
      <trkpt lat="59.091532" lon="17.920641">
        <ele>67.9</ele>
        <time>2014-10-11T13:29:37Z</time>
      </trkpt>
      <trkpt lat="59.09151" lon="17.920588">
        <ele>68</ele>
        <time>2014-10-11T13:29:38Z</time>
      </trkpt>
      <trkpt lat="59.091487" lon="17.92053">
        <ele>68.1</ele>
        <time>2014-10-11T13:29:39Z</time>
      </trkpt>
      <trkpt lat="59.09147" lon="17.920485">
        <ele>68.1</ele>
        <time>2014-10-11T13:29:40Z</time>
      </trkpt>
      <trkpt lat="59.091414" lon="17.920331">
        <ele>68.5</ele>
        <time>2014-10-11T13:29:41Z</time>
      </trkpt>
      <trkpt lat="59.091392" lon="17.920237">
        <ele>68.8</ele>
        <time>2014-10-11T13:29:42Z</time>
      </trkpt>
      <trkpt lat="59.091361" lon="17.920163">
        <ele>69</ele>
        <time>2014-10-11T13:29:43Z</time>
      </trkpt>
      <trkpt lat="59.091328" lon="17.920076">
        <ele>69.3</ele>
        <time>2014-10-11T13:29:44Z</time>
      </trkpt>
      <trkpt lat="59.091289" lon="17.920024">
        <ele>69.4</ele>
        <time>2014-10-11T13:29:45Z</time>
      </trkpt>
      <trkpt lat="59.091271" lon="17.91996">
        <ele>69.7</ele>
        <time>2014-10-11T13:29:46Z</time>
      </trkpt>
      <trkpt lat="59.091247" lon="17.919881">
        <ele>69.9</ele>
        <time>2014-10-11T13:29:47Z</time>
      </trkpt>
      <trkpt lat="59.091225" lon="17.919795">
        <ele>69.9</ele>
        <time>2014-10-11T13:29:48Z</time>
      </trkpt>
      <trkpt lat="59.09119" lon="17.919716">
        <ele>69.7</ele>
        <time>2014-10-11T13:29:49Z</time>
      </trkpt>
      <trkpt lat="59.091179" lon="17.919628">
        <ele>69.9</ele>
        <time>2014-10-11T13:29:50Z</time>
      </trkpt>
      <trkpt lat="59.091171" lon="17.919552">
        <ele>70</ele>
        <time>2014-10-11T13:29:51Z</time>
      </trkpt>
      <trkpt lat="59.091151" lon="17.919466">
        <ele>70</ele>
        <time>2014-10-11T13:29:52Z</time>
      </trkpt>
      <trkpt lat="59.091133" lon="17.919389">
        <ele>70</ele>
        <time>2014-10-11T13:29:53Z</time>
      </trkpt>
      <trkpt lat="59.091132" lon="17.919318">
        <ele>70.2</ele>
        <time>2014-10-11T13:29:54Z</time>
      </trkpt>
      <trkpt lat="59.091122" lon="17.919197">
        <ele>70.5</ele>
        <time>2014-10-11T13:29:56Z</time>
      </trkpt>
      <trkpt lat="59.091113" lon="17.919125">
        <ele>70.6</ele>
        <time>2014-10-11T13:29:57Z</time>
      </trkpt>
      <trkpt lat="59.091081" lon="17.919019">
        <ele>70.5</ele>
        <time>2014-10-11T13:29:59Z</time>
      </trkpt>
      <trkpt lat="59.091063" lon="17.918914">
        <ele>70.7</ele>
        <time>2014-10-11T13:30:01Z</time>
      </trkpt>
      <trkpt lat="59.091055" lon="17.918861">
        <ele>70.8</ele>
        <time>2014-10-11T13:30:02Z</time>
      </trkpt>
      <trkpt lat="59.091046" lon="17.918806">
        <ele>70.9</ele>
        <time>2014-10-11T13:30:03Z</time>
      </trkpt>
      <trkpt lat="59.091037" lon="17.918753">
        <ele>70.9</ele>
        <time>2014-10-11T13:30:04Z</time>
      </trkpt>
      <trkpt lat="59.091019" lon="17.918657">
        <ele>71.1</ele>
        <time>2014-10-11T13:30:06Z</time>
      </trkpt>
      <trkpt lat="59.090999" lon="17.918564">
        <ele>71.2</ele>
        <time>2014-10-11T13:30:08Z</time>
      </trkpt>
      <trkpt lat="59.090967" lon="17.918482">
        <ele>71.3</ele>
        <time>2014-10-11T13:30:10Z</time>
      </trkpt>
      <trkpt lat="59.090947" lon="17.91844">
        <ele>71.2</ele>
        <time>2014-10-11T13:30:11Z</time>
      </trkpt>
      <trkpt lat="59.090927" lon="17.918393">
        <ele>71.3</ele>
        <time>2014-10-11T13:30:12Z</time>
      </trkpt>
      <trkpt lat="59.090905" lon="17.918345">
        <ele>71.3</ele>
        <time>2014-10-11T13:30:13Z</time>
      </trkpt>
      <trkpt lat="59.09088" lon="17.918298">
        <ele>71.3</ele>
        <time>2014-10-11T13:30:14Z</time>
      </trkpt>
      <trkpt lat="59.090853" lon="17.918251">
        <ele>71.2</ele>
        <time>2014-10-11T13:30:15Z</time>
      </trkpt>
      <trkpt lat="59.090823" lon="17.918203">
        <ele>71.2</ele>
        <time>2014-10-11T13:30:16Z</time>
      </trkpt>
      <trkpt lat="59.090795" lon="17.918159">
        <ele>71.2</ele>
        <time>2014-10-11T13:30:17Z</time>
      </trkpt>
      <trkpt lat="59.09077" lon="17.91811">
        <ele>71.3</ele>
        <time>2014-10-11T13:30:18Z</time>
      </trkpt>
      <trkpt lat="59.09075" lon="17.918065">
        <ele>71.3</ele>
        <time>2014-10-11T13:30:19Z</time>
      </trkpt>
      <trkpt lat="59.090726" lon="17.918001">
        <ele>71.5</ele>
        <time>2014-10-11T13:30:20Z</time>
      </trkpt>
      <trkpt lat="59.090708" lon="17.917948">
        <ele>71.6</ele>
        <time>2014-10-11T13:30:21Z</time>
      </trkpt>
      <trkpt lat="59.090692" lon="17.917885">
        <ele>71.8</ele>
        <time>2014-10-11T13:30:22Z</time>
      </trkpt>
      <trkpt lat="59.090677" lon="17.917816">
        <ele>72</ele>
        <time>2014-10-11T13:30:23Z</time>
      </trkpt>
      <trkpt lat="59.090661" lon="17.917742">
        <ele>72.2</ele>
        <time>2014-10-11T13:30:24Z</time>
      </trkpt>
      <trkpt lat="59.090641" lon="17.917659">
        <ele>72.4</ele>
        <time>2014-10-11T13:30:25Z</time>
      </trkpt>
      <trkpt lat="59.090601" lon="17.917489">
        <ele>72.9</ele>
        <time>2014-10-11T13:30:26Z</time>
      </trkpt>
      <trkpt lat="59.090593" lon="17.917398">
        <ele>73.3</ele>
        <time>2014-10-11T13:30:27Z</time>
      </trkpt>
      <trkpt lat="59.090582" lon="17.917313">
        <ele>73.6</ele>
        <time>2014-10-11T13:30:28Z</time>
      </trkpt>
      <trkpt lat="59.09055" lon="17.917205">
        <ele>73.9</ele>
        <time>2014-10-11T13:30:29Z</time>
      </trkpt>
      <trkpt lat="59.090539" lon="17.91714">
        <ele>74.2</ele>
        <time>2014-10-11T13:30:30Z</time>
      </trkpt>
      <trkpt lat="59.090516" lon="17.917051">
        <ele>74.4</ele>
        <time>2014-10-11T13:30:31Z</time>
      </trkpt>
      <trkpt lat="59.090488" lon="17.916937">
        <ele>74.4</ele>
        <time>2014-10-11T13:30:32Z</time>
      </trkpt>
      <trkpt lat="59.090439" lon="17.916834">
        <ele>74.4</ele>
        <time>2014-10-11T13:30:33Z</time>
      </trkpt>
      <trkpt lat="59.090392" lon="17.916751">
        <ele>74.1</ele>
        <time>2014-10-11T13:30:34Z</time>
      </trkpt>
      <trkpt lat="59.090335" lon="17.91667">
        <ele>73.4</ele>
        <time>2014-10-11T13:30:35Z</time>
      </trkpt>
      <trkpt lat="59.090287" lon="17.916595">
        <ele>72.8</ele>
        <time>2014-10-11T13:30:36Z</time>
      </trkpt>
      <trkpt lat="59.090241" lon="17.916537">
        <ele>72.3</ele>
        <time>2014-10-11T13:30:37Z</time>
      </trkpt>
      <trkpt lat="59.090192" lon="17.916474">
        <ele>71.7</ele>
        <time>2014-10-11T13:30:38Z</time>
      </trkpt>
      <trkpt lat="59.090135" lon="17.91638">
        <ele>71.1</ele>
        <time>2014-10-11T13:30:39Z</time>
      </trkpt>
      <trkpt lat="59.090078" lon="17.916294">
        <ele>70.5</ele>
        <time>2014-10-11T13:30:40Z</time>
      </trkpt>
      <trkpt lat="59.090026" lon="17.916231">
        <ele>69.9</ele>
        <time>2014-10-11T13:30:41Z</time>
      </trkpt>
      <trkpt lat="59.08998" lon="17.916135">
        <ele>69.4</ele>
        <time>2014-10-11T13:30:42Z</time>
      </trkpt>
      <trkpt lat="59.089935" lon="17.916047">
        <ele>68.9</ele>
        <time>2014-10-11T13:30:43Z</time>
      </trkpt>
      <trkpt lat="59.089893" lon="17.915971">
        <ele>68.4</ele>
        <time>2014-10-11T13:30:44Z</time>
      </trkpt>
      <trkpt lat="59.089833" lon="17.915835">
        <ele>67.8</ele>
        <time>2014-10-11T13:30:45Z</time>
      </trkpt>
      <trkpt lat="59.089776" lon="17.915725">
        <ele>67.2</ele>
        <time>2014-10-11T13:30:46Z</time>
      </trkpt>
      <trkpt lat="59.089719" lon="17.915609">
        <ele>66.6</ele>
        <time>2014-10-11T13:30:47Z</time>
      </trkpt>
      <trkpt lat="59.08966" lon="17.9155">
        <ele>65.9</ele>
        <time>2014-10-11T13:30:48Z</time>
      </trkpt>
      <trkpt lat="59.089582" lon="17.915366">
        <ele>65.2</ele>
        <time>2014-10-11T13:30:49Z</time>
      </trkpt>
      <trkpt lat="59.089519" lon="17.915254">
        <ele>64.6</ele>
        <time>2014-10-11T13:30:50Z</time>
      </trkpt>
      <trkpt lat="59.089441" lon="17.91512">
        <ele>63.9</ele>
        <time>2014-10-11T13:30:51Z</time>
      </trkpt>
      <trkpt lat="59.089367" lon="17.914997">
        <ele>63.3</ele>
        <time>2014-10-11T13:30:52Z</time>
      </trkpt>
      <trkpt lat="59.089265" lon="17.914936">
        <ele>62</ele>
        <time>2014-10-11T13:30:53Z</time>
      </trkpt>
      <trkpt lat="59.089179" lon="17.914872">
        <ele>61</ele>
        <time>2014-10-11T13:30:54Z</time>
      </trkpt>
      <trkpt lat="59.089088" lon="17.914782">
        <ele>60</ele>
        <time>2014-10-11T13:30:55Z</time>
      </trkpt>
      <trkpt lat="59.088986" lon="17.914668">
        <ele>59</ele>
        <time>2014-10-11T13:30:56Z</time>
      </trkpt>
      <trkpt lat="59.088901" lon="17.914544">
        <ele>58.4</ele>
        <time>2014-10-11T13:30:57Z</time>
      </trkpt>
      <trkpt lat="59.088825" lon="17.914423">
        <ele>57.8</ele>
        <time>2014-10-11T13:30:58Z</time>
      </trkpt>
      <trkpt lat="59.08875" lon="17.91428">
        <ele>57.5</ele>
        <time>2014-10-11T13:30:59Z</time>
      </trkpt>
      <trkpt lat="59.088675" lon="17.914131">
        <ele>57.3</ele>
        <time>2014-10-11T13:31:00Z</time>
      </trkpt>
      <trkpt lat="59.088606" lon="17.913959">
        <ele>57.3</ele>
        <time>2014-10-11T13:31:01Z</time>
      </trkpt>
      <trkpt lat="59.088543" lon="17.913797">
        <ele>57.3</ele>
        <time>2014-10-11T13:31:02Z</time>
      </trkpt>
      <trkpt lat="59.088481" lon="17.913645">
        <ele>57.1</ele>
        <time>2014-10-11T13:31:03Z</time>
      </trkpt>
      <trkpt lat="59.088438" lon="17.913462">
        <ele>57</ele>
        <time>2014-10-11T13:31:04Z</time>
      </trkpt>
      <trkpt lat="59.088398" lon="17.913296">
        <ele>57</ele>
        <time>2014-10-11T13:31:05Z</time>
      </trkpt>
      <trkpt lat="59.088352" lon="17.913125">
        <ele>56.8</ele>
        <time>2014-10-11T13:31:06Z</time>
      </trkpt>
      <trkpt lat="59.08831" lon="17.912964">
        <ele>56.6</ele>
        <time>2014-10-11T13:31:07Z</time>
      </trkpt>
      <trkpt lat="59.088298" lon="17.912855">
        <ele>56.6</ele>
        <time>2014-10-11T13:31:08Z</time>
      </trkpt>
      <trkpt lat="59.088272" lon="17.912697">
        <ele>56.5</ele>
        <time>2014-10-11T13:31:09Z</time>
      </trkpt>
      <trkpt lat="59.088237" lon="17.912521">
        <ele>56.3</ele>
        <time>2014-10-11T13:31:10Z</time>
      </trkpt>
      <trkpt lat="59.088234" lon="17.912367">
        <ele>56.5</ele>
        <time>2014-10-11T13:31:11Z</time>
      </trkpt>
      <trkpt lat="59.088227" lon="17.912257">
        <ele>56.6</ele>
        <time>2014-10-11T13:31:12Z</time>
      </trkpt>
      <trkpt lat="59.088214" lon="17.912115">
        <ele>56.6</ele>
        <time>2014-10-11T13:31:13Z</time>
      </trkpt>
      <trkpt lat="59.088179" lon="17.911948">
        <ele>56.9</ele>
        <time>2014-10-11T13:31:14Z</time>
      </trkpt>
      <trkpt lat="59.088148" lon="17.911786">
        <ele>57.4</ele>
        <time>2014-10-11T13:31:15Z</time>
      </trkpt>
      <trkpt lat="59.088117" lon="17.911638">
        <ele>57.8</ele>
        <time>2014-10-11T13:31:16Z</time>
      </trkpt>
      <trkpt lat="59.088056" lon="17.91147">
        <ele>57.9</ele>
        <time>2014-10-11T13:31:17Z</time>
      </trkpt>
      <trkpt lat="59.088006" lon="17.911351">
        <ele>57.8</ele>
        <time>2014-10-11T13:31:18Z</time>
      </trkpt>
      <trkpt lat="59.087947" lon="17.911232">
        <ele>57.6</ele>
        <time>2014-10-11T13:31:19Z</time>
      </trkpt>
      <trkpt lat="59.08786" lon="17.911084">
        <ele>57</ele>
        <time>2014-10-11T13:31:20Z</time>
      </trkpt>
      <trkpt lat="59.087805" lon="17.91099">
        <ele>56.6</ele>
        <time>2014-10-11T13:31:21Z</time>
      </trkpt>
      <trkpt lat="59.087732" lon="17.910872">
        <ele>56</ele>
        <time>2014-10-11T13:31:22Z</time>
      </trkpt>
      <trkpt lat="59.087652" lon="17.910763">
        <ele>55.1</ele>
        <time>2014-10-11T13:31:23Z</time>
      </trkpt>
      <trkpt lat="59.087581" lon="17.910651">
        <ele>54.4</ele>
        <time>2014-10-11T13:31:24Z</time>
      </trkpt>
      <trkpt lat="59.08752" lon="17.910541">
        <ele>53.8</ele>
        <time>2014-10-11T13:31:25Z</time>
      </trkpt>
      <trkpt lat="59.087475" lon="17.910392">
        <ele>53.6</ele>
        <time>2014-10-11T13:31:26Z</time>
      </trkpt>
      <trkpt lat="59.087427" lon="17.910272">
        <ele>53.1</ele>
        <time>2014-10-11T13:31:27Z</time>
      </trkpt>
      <trkpt lat="59.0874" lon="17.910119">
        <ele>53.2</ele>
        <time>2014-10-11T13:31:28Z</time>
      </trkpt>
      <trkpt lat="59.087369" lon="17.909985">
        <ele>53</ele>
        <time>2014-10-11T13:31:29Z</time>
      </trkpt>
      <trkpt lat="59.087359" lon="17.909811">
        <ele>53.5</ele>
        <time>2014-10-11T13:31:30Z</time>
      </trkpt>
      <trkpt lat="59.087338" lon="17.909626">
        <ele>53.7</ele>
        <time>2014-10-11T13:31:31Z</time>
      </trkpt>
      <trkpt lat="59.087323" lon="17.909467">
        <ele>54</ele>
        <time>2014-10-11T13:31:32Z</time>
      </trkpt>
      <trkpt lat="59.087302" lon="17.909303">
        <ele>54.2</ele>
        <time>2014-10-11T13:31:33Z</time>
      </trkpt>
      <trkpt lat="59.087278" lon="17.909148">
        <ele>54.3</ele>
        <time>2014-10-11T13:31:34Z</time>
      </trkpt>
      <trkpt lat="59.087258" lon="17.909002">
        <ele>54.4</ele>
        <time>2014-10-11T13:31:35Z</time>
      </trkpt>
      <trkpt lat="59.087239" lon="17.908845">
        <ele>54.6</ele>
        <time>2014-10-11T13:31:36Z</time>
      </trkpt>
      <trkpt lat="59.087212" lon="17.90868">
        <ele>54.6</ele>
        <time>2014-10-11T13:31:37Z</time>
      </trkpt>
      <trkpt lat="59.087181" lon="17.908537">
        <ele>54.4</ele>
        <time>2014-10-11T13:31:38Z</time>
      </trkpt>
      <trkpt lat="59.08714" lon="17.908381">
        <ele>54</ele>
        <time>2014-10-11T13:31:39Z</time>
      </trkpt>
      <trkpt lat="59.087103" lon="17.908237">
        <ele>53.6</ele>
        <time>2014-10-11T13:31:40Z</time>
      </trkpt>
      <trkpt lat="59.087054" lon="17.908111">
        <ele>53.1</ele>
        <time>2014-10-11T13:31:41Z</time>
      </trkpt>
      <trkpt lat="59.087013" lon="17.907975">
        <ele>52.9</ele>
        <time>2014-10-11T13:31:42Z</time>
      </trkpt>
      <trkpt lat="59.086971" lon="17.907853">
        <ele>52.7</ele>
        <time>2014-10-11T13:31:43Z</time>
      </trkpt>
      <trkpt lat="59.086928" lon="17.907724">
        <ele>52.4</ele>
        <time>2014-10-11T13:31:44Z</time>
      </trkpt>
      <trkpt lat="59.086892" lon="17.907596">
        <ele>52.2</ele>
        <time>2014-10-11T13:31:45Z</time>
      </trkpt>
      <trkpt lat="59.08686" lon="17.907473">
        <ele>52.1</ele>
        <time>2014-10-11T13:31:46Z</time>
      </trkpt>
      <trkpt lat="59.086835" lon="17.907363">
        <ele>52.1</ele>
        <time>2014-10-11T13:31:47Z</time>
      </trkpt>
      <trkpt lat="59.086802" lon="17.907252">
        <ele>51.9</ele>
        <time>2014-10-11T13:31:48Z</time>
      </trkpt>
      <trkpt lat="59.086795" lon="17.907187">
        <ele>51.9</ele>
        <time>2014-10-11T13:31:49Z</time>
      </trkpt>
      <trkpt lat="59.086776" lon="17.907101">
        <ele>51.9</ele>
        <time>2014-10-11T13:31:50Z</time>
      </trkpt>
      <trkpt lat="59.086756" lon="17.90698">
        <ele>52.3</ele>
        <time>2014-10-11T13:31:51Z</time>
      </trkpt>
      <trkpt lat="59.086737" lon="17.906863">
        <ele>52.8</ele>
        <time>2014-10-11T13:31:52Z</time>
      </trkpt>
      <trkpt lat="59.086725" lon="17.906745">
        <ele>53.3</ele>
        <time>2014-10-11T13:31:53Z</time>
      </trkpt>
      <trkpt lat="59.086728" lon="17.906625">
        <ele>54.1</ele>
        <time>2014-10-11T13:31:54Z</time>
      </trkpt>
      <trkpt lat="59.08672" lon="17.906508">
        <ele>54.7</ele>
        <time>2014-10-11T13:31:55Z</time>
      </trkpt>
      <trkpt lat="59.086721" lon="17.906415">
        <ele>55.2</ele>
        <time>2014-10-11T13:31:56Z</time>
      </trkpt>
      <trkpt lat="59.08672" lon="17.906317">
        <ele>55.8</ele>
        <time>2014-10-11T13:31:57Z</time>
      </trkpt>
      <trkpt lat="59.086715" lon="17.906216">
        <ele>56.3</ele>
        <time>2014-10-11T13:31:58Z</time>
      </trkpt>
      <trkpt lat="59.086709" lon="17.906117">
        <ele>56.8</ele>
        <time>2014-10-11T13:31:59Z</time>
      </trkpt>
      <trkpt lat="59.086704" lon="17.906014">
        <ele>57.3</ele>
        <time>2014-10-11T13:32:00Z</time>
      </trkpt>
      <trkpt lat="59.08671" lon="17.905925">
        <ele>57.8</ele>
        <time>2014-10-11T13:32:01Z</time>
      </trkpt>
      <trkpt lat="59.0867" lon="17.905823">
        <ele>58.3</ele>
        <time>2014-10-11T13:32:02Z</time>
      </trkpt>
      <trkpt lat="59.086696" lon="17.905744">
        <ele>58.6</ele>
        <time>2014-10-11T13:32:03Z</time>
      </trkpt>
      <trkpt lat="59.086699" lon="17.905659">
        <ele>59.1</ele>
        <time>2014-10-11T13:32:04Z</time>
      </trkpt>
      <trkpt lat="59.0867" lon="17.90557">
        <ele>59.6</ele>
        <time>2014-10-11T13:32:05Z</time>
      </trkpt>
      <trkpt lat="59.086708" lon="17.90551">
        <ele>60.1</ele>
        <time>2014-10-11T13:32:06Z</time>
      </trkpt>
      <trkpt lat="59.086713" lon="17.905441">
        <ele>60.5</ele>
        <time>2014-10-11T13:32:07Z</time>
      </trkpt>
      <trkpt lat="59.086706" lon="17.905352">
        <ele>60.7</ele>
        <time>2014-10-11T13:32:08Z</time>
      </trkpt>
      <trkpt lat="59.086699" lon="17.90528">
        <ele>60.9</ele>
        <time>2014-10-11T13:32:09Z</time>
      </trkpt>
      <trkpt lat="59.0867" lon="17.905204">
        <ele>61.1</ele>
        <time>2014-10-11T13:32:10Z</time>
      </trkpt>
      <trkpt lat="59.086697" lon="17.905129">
        <ele>61.3</ele>
        <time>2014-10-11T13:32:11Z</time>
      </trkpt>
      <trkpt lat="59.086698" lon="17.90506">
        <ele>61.5</ele>
        <time>2014-10-11T13:32:12Z</time>
      </trkpt>
      <trkpt lat="59.086699" lon="17.905007">
        <ele>61.6</ele>
        <time>2014-10-11T13:32:13Z</time>
      </trkpt>
      <trkpt lat="59.086702" lon="17.904936">
        <ele>61.9</ele>
        <time>2014-10-11T13:32:14Z</time>
      </trkpt>
      <trkpt lat="59.08671" lon="17.904866">
        <ele>62.2</ele>
        <time>2014-10-11T13:32:15Z</time>
      </trkpt>
      <trkpt lat="59.086714" lon="17.904795">
        <ele>62.4</ele>
        <time>2014-10-11T13:32:16Z</time>
      </trkpt>
      <trkpt lat="59.086716" lon="17.904723">
        <ele>62.6</ele>
        <time>2014-10-11T13:32:17Z</time>
      </trkpt>
      <trkpt lat="59.086717" lon="17.904657">
        <ele>62.8</ele>
        <time>2014-10-11T13:32:18Z</time>
      </trkpt>
      <trkpt lat="59.086715" lon="17.904584">
        <ele>63</ele>
        <time>2014-10-11T13:32:19Z</time>
      </trkpt>
      <trkpt lat="59.086715" lon="17.904518">
        <ele>63.1</ele>
        <time>2014-10-11T13:32:20Z</time>
      </trkpt>
      <trkpt lat="59.086709" lon="17.90444">
        <ele>63.2</ele>
        <time>2014-10-11T13:32:21Z</time>
      </trkpt>
      <trkpt lat="59.086703" lon="17.904374">
        <ele>63.2</ele>
        <time>2014-10-11T13:32:22Z</time>
      </trkpt>
      <trkpt lat="59.086695" lon="17.904305">
        <ele>63.3</ele>
        <time>2014-10-11T13:32:23Z</time>
      </trkpt>
      <trkpt lat="59.086688" lon="17.904237">
        <ele>63.3</ele>
        <time>2014-10-11T13:32:24Z</time>
      </trkpt>
      <trkpt lat="59.08667" lon="17.904169">
        <ele>63.3</ele>
        <time>2014-10-11T13:32:25Z</time>
      </trkpt>
      <trkpt lat="59.086655" lon="17.904103">
        <ele>63.3</ele>
        <time>2014-10-11T13:32:26Z</time>
      </trkpt>
      <trkpt lat="59.086637" lon="17.904037">
        <ele>63.2</ele>
        <time>2014-10-11T13:32:27Z</time>
      </trkpt>
      <trkpt lat="59.086615" lon="17.903967">
        <ele>63.2</ele>
        <time>2014-10-11T13:32:28Z</time>
      </trkpt>
      <trkpt lat="59.08659" lon="17.903904">
        <ele>63.1</ele>
        <time>2014-10-11T13:32:29Z</time>
      </trkpt>
      <trkpt lat="59.08652" lon="17.903801">
        <ele>62.8</ele>
        <time>2014-10-11T13:32:30Z</time>
      </trkpt>
      <trkpt lat="59.086478" lon="17.903725">
        <ele>62.7</ele>
        <time>2014-10-11T13:32:31Z</time>
      </trkpt>
      <trkpt lat="59.086427" lon="17.903621">
        <ele>62.6</ele>
        <time>2014-10-11T13:32:32Z</time>
      </trkpt>
      <trkpt lat="59.086358" lon="17.903488">
        <ele>62.4</ele>
        <time>2014-10-11T13:32:33Z</time>
      </trkpt>
      <trkpt lat="59.086321" lon="17.90339">
        <ele>62.3</ele>
        <time>2014-10-11T13:32:34Z</time>
      </trkpt>
      <trkpt lat="59.08628" lon="17.903287">
        <ele>62.3</ele>
        <time>2014-10-11T13:32:35Z</time>
      </trkpt>
      <trkpt lat="59.08624" lon="17.903182">
        <ele>62.3</ele>
        <time>2014-10-11T13:32:36Z</time>
      </trkpt>
      <trkpt lat="59.086198" lon="17.903075">
        <ele>62.4</ele>
        <time>2014-10-11T13:32:37Z</time>
      </trkpt>
      <trkpt lat="59.086152" lon="17.902984">
        <ele>62.5</ele>
        <time>2014-10-11T13:32:38Z</time>
      </trkpt>
      <trkpt lat="59.086124" lon="17.902911">
        <ele>62.6</ele>
        <time>2014-10-11T13:32:39Z</time>
      </trkpt>
      <trkpt lat="59.086087" lon="17.90281">
        <ele>62.6</ele>
        <time>2014-10-11T13:32:40Z</time>
      </trkpt>
      <trkpt lat="59.086055" lon="17.902715">
        <ele>62.6</ele>
        <time>2014-10-11T13:32:41Z</time>
      </trkpt>
      <trkpt lat="59.08603" lon="17.902636">
        <ele>62.6</ele>
        <time>2014-10-11T13:32:42Z</time>
      </trkpt>
      <trkpt lat="59.085994" lon="17.902551">
        <ele>62.7</ele>
        <time>2014-10-11T13:32:43Z</time>
      </trkpt>
      <trkpt lat="59.085961" lon="17.902466">
        <ele>62.7</ele>
        <time>2014-10-11T13:32:44Z</time>
      </trkpt>
      <trkpt lat="59.085936" lon="17.9024">
        <ele>62.7</ele>
        <time>2014-10-11T13:32:45Z</time>
      </trkpt>
      <trkpt lat="59.085905" lon="17.902322">
        <ele>62.8</ele>
        <time>2014-10-11T13:32:46Z</time>
      </trkpt>
      <trkpt lat="59.08589" lon="17.902253">
        <ele>62.8</ele>
        <time>2014-10-11T13:32:47Z</time>
      </trkpt>
      <trkpt lat="59.085875" lon="17.902203">
        <ele>62.9</ele>
        <time>2014-10-11T13:32:48Z</time>
      </trkpt>
      <trkpt lat="59.08585" lon="17.902179">
        <ele>62.9</ele>
        <time>2014-10-11T13:33:04Z</time>
      </trkpt>
      <trkpt lat="59.085823" lon="17.902152">
        <ele>62.9</ele>
        <time>2014-10-11T13:33:14Z</time>
      </trkpt>
      <trkpt lat="59.08577" lon="17.902124">
        <ele>62.8</ele>
        <time>2014-10-11T13:33:16Z</time>
      </trkpt>
      <trkpt lat="59.085742" lon="17.902108">
        <ele>62.7</ele>
        <time>2014-10-11T13:33:17Z</time>
      </trkpt>
      <trkpt lat="59.08571" lon="17.902089">
        <ele>62.7</ele>
        <time>2014-10-11T13:33:18Z</time>
      </trkpt>
      <trkpt lat="59.085673" lon="17.902062">
        <ele>62.7</ele>
        <time>2014-10-11T13:33:19Z</time>
      </trkpt>
      <trkpt lat="59.08561" lon="17.901992">
        <ele>63</ele>
        <time>2014-10-11T13:33:20Z</time>
      </trkpt>
      <trkpt lat="59.085566" lon="17.901951">
        <ele>63.2</ele>
        <time>2014-10-11T13:33:21Z</time>
      </trkpt>
      <trkpt lat="59.085523" lon="17.901896">
        <ele>63.4</ele>
        <time>2014-10-11T13:33:22Z</time>
      </trkpt>
      <trkpt lat="59.085477" lon="17.901847">
        <ele>63.6</ele>
        <time>2014-10-11T13:33:23Z</time>
      </trkpt>
      <trkpt lat="59.085431" lon="17.901801">
        <ele>63.7</ele>
        <time>2014-10-11T13:33:24Z</time>
      </trkpt>
      <trkpt lat="59.085387" lon="17.901734">
        <ele>63.8</ele>
        <time>2014-10-11T13:33:25Z</time>
      </trkpt>
      <trkpt lat="59.085345" lon="17.901649">
        <ele>63.8</ele>
        <time>2014-10-11T13:33:26Z</time>
      </trkpt>
      <trkpt lat="59.085308" lon="17.901585">
        <ele>63.8</ele>
        <time>2014-10-11T13:33:27Z</time>
      </trkpt>
      <trkpt lat="59.085266" lon="17.901496">
        <ele>63.8</ele>
        <time>2014-10-11T13:33:28Z</time>
      </trkpt>
      <trkpt lat="59.085229" lon="17.901396">
        <ele>64</ele>
        <time>2014-10-11T13:33:29Z</time>
      </trkpt>
      <trkpt lat="59.085187" lon="17.901308">
        <ele>63.9</ele>
        <time>2014-10-11T13:33:30Z</time>
      </trkpt>
      <trkpt lat="59.085143" lon="17.901247">
        <ele>63.7</ele>
        <time>2014-10-11T13:33:31Z</time>
      </trkpt>
      <trkpt lat="59.085097" lon="17.901139">
        <ele>63.7</ele>
        <time>2014-10-11T13:33:32Z</time>
      </trkpt>
      <trkpt lat="59.085053" lon="17.901048">
        <ele>63.6</ele>
        <time>2014-10-11T13:33:33Z</time>
      </trkpt>
      <trkpt lat="59.085004" lon="17.900949">
        <ele>63.5</ele>
        <time>2014-10-11T13:33:34Z</time>
      </trkpt>
      <trkpt lat="59.08495" lon="17.90086">
        <ele>63.2</ele>
        <time>2014-10-11T13:33:35Z</time>
      </trkpt>
      <trkpt lat="59.084905" lon="17.900765">
        <ele>63.1</ele>
        <time>2014-10-11T13:33:36Z</time>
      </trkpt>
      <trkpt lat="59.084853" lon="17.900665">
        <ele>62.8</ele>
        <time>2014-10-11T13:33:37Z</time>
      </trkpt>
      <trkpt lat="59.084813" lon="17.900574">
        <ele>62.6</ele>
        <time>2014-10-11T13:33:38Z</time>
      </trkpt>
      <trkpt lat="59.084774" lon="17.900471">
        <ele>62.5</ele>
        <time>2014-10-11T13:33:39Z</time>
      </trkpt>
      <trkpt lat="59.084735" lon="17.900369">
        <ele>62.3</ele>
        <time>2014-10-11T13:33:40Z</time>
      </trkpt>
      <trkpt lat="59.084693" lon="17.900272">
        <ele>62.1</ele>
        <time>2014-10-11T13:33:41Z</time>
      </trkpt>
      <trkpt lat="59.084652" lon="17.900176">
        <ele>61.8</ele>
        <time>2014-10-11T13:33:42Z</time>
      </trkpt>
      <trkpt lat="59.08461" lon="17.900088">
        <ele>61.5</ele>
        <time>2014-10-11T13:33:43Z</time>
      </trkpt>
      <trkpt lat="59.084566" lon="17.899994">
        <ele>61.4</ele>
        <time>2014-10-11T13:33:44Z</time>
      </trkpt>
      <trkpt lat="59.084514" lon="17.899898">
        <ele>61.3</ele>
        <time>2014-10-11T13:33:45Z</time>
      </trkpt>
      <trkpt lat="59.084467" lon="17.899813">
        <ele>61.2</ele>
        <time>2014-10-11T13:33:46Z</time>
      </trkpt>
      <trkpt lat="59.084419" lon="17.899736">
        <ele>61</ele>
        <time>2014-10-11T13:33:47Z</time>
      </trkpt>
      <trkpt lat="59.084364" lon="17.899643">
        <ele>60.9</ele>
        <time>2014-10-11T13:33:48Z</time>
      </trkpt>
      <trkpt lat="59.084312" lon="17.899568">
        <ele>60.8</ele>
        <time>2014-10-11T13:33:49Z</time>
      </trkpt>
      <trkpt lat="59.084256" lon="17.899485">
        <ele>60.7</ele>
        <time>2014-10-11T13:33:50Z</time>
      </trkpt>
      <trkpt lat="59.0842" lon="17.899395">
        <ele>60.6</ele>
        <time>2014-10-11T13:33:51Z</time>
      </trkpt>
      <trkpt lat="59.084143" lon="17.899299">
        <ele>60.5</ele>
        <time>2014-10-11T13:33:52Z</time>
      </trkpt>
      <trkpt lat="59.084088" lon="17.899221">
        <ele>60.4</ele>
        <time>2014-10-11T13:33:53Z</time>
      </trkpt>
      <trkpt lat="59.084038" lon="17.899152">
        <ele>60.3</ele>
        <time>2014-10-11T13:33:54Z</time>
      </trkpt>
      <trkpt lat="59.083994" lon="17.899055">
        <ele>60.4</ele>
        <time>2014-10-11T13:33:55Z</time>
      </trkpt>
      <trkpt lat="59.083936" lon="17.898979">
        <ele>60.3</ele>
        <time>2014-10-11T13:33:56Z</time>
      </trkpt>
      <trkpt lat="59.083878" lon="17.898882">
        <ele>60.3</ele>
        <time>2014-10-11T13:33:57Z</time>
      </trkpt>
      <trkpt lat="59.083823" lon="17.898805">
        <ele>60.3</ele>
        <time>2014-10-11T13:33:58Z</time>
      </trkpt>
      <trkpt lat="59.08377" lon="17.898722">
        <ele>60.3</ele>
        <time>2014-10-11T13:33:59Z</time>
      </trkpt>
      <trkpt lat="59.083709" lon="17.898624">
        <ele>60.5</ele>
        <time>2014-10-11T13:34:00Z</time>
      </trkpt>
      <trkpt lat="59.083643" lon="17.898536">
        <ele>60.6</ele>
        <time>2014-10-11T13:34:01Z</time>
      </trkpt>
      <trkpt lat="59.083589" lon="17.898449">
        <ele>60.8</ele>
        <time>2014-10-11T13:34:02Z</time>
      </trkpt>
      <trkpt lat="59.083532" lon="17.898353">
        <ele>61.1</ele>
        <time>2014-10-11T13:34:03Z</time>
      </trkpt>
      <trkpt lat="59.083477" lon="17.898258">
        <ele>61.3</ele>
        <time>2014-10-11T13:34:04Z</time>
      </trkpt>
      <trkpt lat="59.083425" lon="17.898188">
        <ele>61.4</ele>
        <time>2014-10-11T13:34:05Z</time>
      </trkpt>
      <trkpt lat="59.083365" lon="17.898099">
        <ele>61.6</ele>
        <time>2014-10-11T13:34:06Z</time>
      </trkpt>
      <trkpt lat="59.083318" lon="17.898024">
        <ele>61.8</ele>
        <time>2014-10-11T13:34:07Z</time>
      </trkpt>
      <trkpt lat="59.083261" lon="17.897936">
        <ele>61.9</ele>
        <time>2014-10-11T13:34:08Z</time>
      </trkpt>
      <trkpt lat="59.083208" lon="17.897869">
        <ele>62</ele>
        <time>2014-10-11T13:34:09Z</time>
      </trkpt>
      <trkpt lat="59.083151" lon="17.897789">
        <ele>62.1</ele>
        <time>2014-10-11T13:34:10Z</time>
      </trkpt>
      <trkpt lat="59.083094" lon="17.897701">
        <ele>62.2</ele>
        <time>2014-10-11T13:34:11Z</time>
      </trkpt>
      <trkpt lat="59.083042" lon="17.897637">
        <ele>62.1</ele>
        <time>2014-10-11T13:34:12Z</time>
      </trkpt>
      <trkpt lat="59.082985" lon="17.897548">
        <ele>62.2</ele>
        <time>2014-10-11T13:34:13Z</time>
      </trkpt>
      <trkpt lat="59.082926" lon="17.897477">
        <ele>62.2</ele>
        <time>2014-10-11T13:34:14Z</time>
      </trkpt>
      <trkpt lat="59.082882" lon="17.897395">
        <ele>62.6</ele>
        <time>2014-10-11T13:34:15Z</time>
      </trkpt>
      <trkpt lat="59.082839" lon="17.897318">
        <ele>63</ele>
        <time>2014-10-11T13:34:16Z</time>
      </trkpt>
      <trkpt lat="59.082804" lon="17.897245">
        <ele>63.4</ele>
        <time>2014-10-11T13:34:17Z</time>
      </trkpt>
      <trkpt lat="59.082756" lon="17.897161">
        <ele>64</ele>
        <time>2014-10-11T13:34:18Z</time>
      </trkpt>
      <trkpt lat="59.082709" lon="17.897077">
        <ele>64.5</ele>
        <time>2014-10-11T13:34:19Z</time>
      </trkpt>
      <trkpt lat="59.082673" lon="17.896988">
        <ele>65</ele>
        <time>2014-10-11T13:34:20Z</time>
      </trkpt>
      <trkpt lat="59.082649" lon="17.896897">
        <ele>65.4</ele>
        <time>2014-10-11T13:34:21Z</time>
      </trkpt>
      <trkpt lat="59.082628" lon="17.896798">
        <ele>65.8</ele>
        <time>2014-10-11T13:34:22Z</time>
      </trkpt>
      <trkpt lat="59.082617" lon="17.896693">
        <ele>66.3</ele>
        <time>2014-10-11T13:34:23Z</time>
      </trkpt>
      <trkpt lat="59.082609" lon="17.896572">
        <ele>66.8</ele>
        <time>2014-10-11T13:34:24Z</time>
      </trkpt>
      <trkpt lat="59.082629" lon="17.896455">
        <ele>67.2</ele>
        <time>2014-10-11T13:34:25Z</time>
      </trkpt>
      <trkpt lat="59.082641" lon="17.896323">
        <ele>67.7</ele>
        <time>2014-10-11T13:34:26Z</time>
      </trkpt>
      <trkpt lat="59.082654" lon="17.896229">
        <ele>68</ele>
        <time>2014-10-11T13:34:27Z</time>
      </trkpt>
      <trkpt lat="59.08267" lon="17.896125">
        <ele>68.4</ele>
        <time>2014-10-11T13:34:28Z</time>
      </trkpt>
      <trkpt lat="59.082682" lon="17.89603">
        <ele>68.7</ele>
        <time>2014-10-11T13:34:29Z</time>
      </trkpt>
      <trkpt lat="59.082687" lon="17.895914">
        <ele>69.1</ele>
        <time>2014-10-11T13:34:30Z</time>
      </trkpt>
      <trkpt lat="59.082697" lon="17.895797">
        <ele>69.6</ele>
        <time>2014-10-11T13:34:31Z</time>
      </trkpt>
      <trkpt lat="59.082726" lon="17.895696">
        <ele>69.8</ele>
        <time>2014-10-11T13:34:32Z</time>
      </trkpt>
      <trkpt lat="59.082763" lon="17.895579">
        <ele>70.1</ele>
        <time>2014-10-11T13:34:33Z</time>
      </trkpt>
      <trkpt lat="59.082778" lon="17.895493">
        <ele>70.4</ele>
        <time>2014-10-11T13:34:34Z</time>
      </trkpt>
      <trkpt lat="59.082821" lon="17.895429">
        <ele>70.4</ele>
        <time>2014-10-11T13:34:35Z</time>
      </trkpt>
      <trkpt lat="59.082855" lon="17.895353">
        <ele>70.4</ele>
        <time>2014-10-11T13:34:36Z</time>
      </trkpt>
      <trkpt lat="59.082891" lon="17.895261">
        <ele>70.3</ele>
        <time>2014-10-11T13:34:37Z</time>
      </trkpt>
      <trkpt lat="59.082938" lon="17.895188">
        <ele>70.3</ele>
        <time>2014-10-11T13:34:38Z</time>
      </trkpt>
      <trkpt lat="59.082989" lon="17.895123">
        <ele>70.4</ele>
        <time>2014-10-11T13:34:39Z</time>
      </trkpt>
      <trkpt lat="59.08304" lon="17.895053">
        <ele>70.5</ele>
        <time>2014-10-11T13:34:40Z</time>
      </trkpt>
      <trkpt lat="59.083091" lon="17.895002">
        <ele>70.5</ele>
        <time>2014-10-11T13:34:41Z</time>
      </trkpt>
      <trkpt lat="59.083135" lon="17.894954">
        <ele>70.5</ele>
        <time>2014-10-11T13:34:42Z</time>
      </trkpt>
      <trkpt lat="59.083195" lon="17.894899">
        <ele>70.5</ele>
        <time>2014-10-11T13:34:43Z</time>
      </trkpt>
      <trkpt lat="59.083266" lon="17.894844">
        <ele>70.5</ele>
        <time>2014-10-11T13:34:44Z</time>
      </trkpt>
      <trkpt lat="59.083334" lon="17.894799">
        <ele>70.5</ele>
        <time>2014-10-11T13:34:45Z</time>
      </trkpt>
      <trkpt lat="59.083404" lon="17.894761">
        <ele>70.5</ele>
        <time>2014-10-11T13:34:46Z</time>
      </trkpt>
      <trkpt lat="59.083484" lon="17.894724">
        <ele>70.4</ele>
        <time>2014-10-11T13:34:47Z</time>
      </trkpt>
      <trkpt lat="59.083562" lon="17.894679">
        <ele>70.3</ele>
        <time>2014-10-11T13:34:48Z</time>
      </trkpt>
      <trkpt lat="59.083643" lon="17.894604">
        <ele>70.1</ele>
        <time>2014-10-11T13:34:49Z</time>
      </trkpt>
      <trkpt lat="59.083704" lon="17.89453">
        <ele>70.1</ele>
        <time>2014-10-11T13:34:50Z</time>
      </trkpt>
      <trkpt lat="59.083786" lon="17.89446">
        <ele>69.7</ele>
        <time>2014-10-11T13:34:51Z</time>
      </trkpt>
      <trkpt lat="59.083867" lon="17.89437">
        <ele>69</ele>
        <time>2014-10-11T13:34:52Z</time>
      </trkpt>
      <trkpt lat="59.083931" lon="17.89426">
        <ele>68.4</ele>
        <time>2014-10-11T13:34:53Z</time>
      </trkpt>
      <trkpt lat="59.083985" lon="17.894107">
        <ele>67.9</ele>
        <time>2014-10-11T13:34:54Z</time>
      </trkpt>
      <trkpt lat="59.084032" lon="17.893943">
        <ele>67.4</ele>
        <time>2014-10-11T13:34:55Z</time>
      </trkpt>
      <trkpt lat="59.084071" lon="17.893777">
        <ele>66.9</ele>
        <time>2014-10-11T13:34:56Z</time>
      </trkpt>
      <trkpt lat="59.084073" lon="17.893616">
        <ele>66.1</ele>
        <time>2014-10-11T13:34:57Z</time>
      </trkpt>
      <trkpt lat="59.084104" lon="17.893458">
        <ele>64.8</ele>
        <time>2014-10-11T13:34:58Z</time>
      </trkpt>
      <trkpt lat="59.084085" lon="17.893287">
        <ele>64</ele>
        <time>2014-10-11T13:34:59Z</time>
      </trkpt>
      <trkpt lat="59.08405" lon="17.893117">
        <ele>63.3</ele>
        <time>2014-10-11T13:35:00Z</time>
      </trkpt>
      <trkpt lat="59.084022" lon="17.892958">
        <ele>62.6</ele>
        <time>2014-10-11T13:35:01Z</time>
      </trkpt>
      <trkpt lat="59.083993" lon="17.89278">
        <ele>61.9</ele>
        <time>2014-10-11T13:35:02Z</time>
      </trkpt>
      <trkpt lat="59.083959" lon="17.892592">
        <ele>61.1</ele>
        <time>2014-10-11T13:35:03Z</time>
      </trkpt>
      <trkpt lat="59.083933" lon="17.892435">
        <ele>60.5</ele>
        <time>2014-10-11T13:35:04Z</time>
      </trkpt>
      <trkpt lat="59.083887" lon="17.892258">
        <ele>59.9</ele>
        <time>2014-10-11T13:35:05Z</time>
      </trkpt>
      <trkpt lat="59.083849" lon="17.892126">
        <ele>59.4</ele>
        <time>2014-10-11T13:35:06Z</time>
      </trkpt>
      <trkpt lat="59.083796" lon="17.891976">
        <ele>58.7</ele>
        <time>2014-10-11T13:35:07Z</time>
      </trkpt>
      <trkpt lat="59.083736" lon="17.891826">
        <ele>57.9</ele>
        <time>2014-10-11T13:35:08Z</time>
      </trkpt>
      <trkpt lat="59.083678" lon="17.891638">
        <ele>56.7</ele>
        <time>2014-10-11T13:35:09Z</time>
      </trkpt>
      <trkpt lat="59.083623" lon="17.891471">
        <ele>55.7</ele>
        <time>2014-10-11T13:35:10Z</time>
      </trkpt>
      <trkpt lat="59.083554" lon="17.891304">
        <ele>54.6</ele>
        <time>2014-10-11T13:35:11Z</time>
      </trkpt>
      <trkpt lat="59.083494" lon="17.891149">
        <ele>53.7</ele>
        <time>2014-10-11T13:35:12Z</time>
      </trkpt>
      <trkpt lat="59.083427" lon="17.890981">
        <ele>52.7</ele>
        <time>2014-10-11T13:35:13Z</time>
      </trkpt>
      <trkpt lat="59.083372" lon="17.890865">
        <ele>52</ele>
        <time>2014-10-11T13:35:14Z</time>
      </trkpt>
      <trkpt lat="59.083302" lon="17.890761">
        <ele>51.6</ele>
        <time>2014-10-11T13:35:15Z</time>
      </trkpt>
      <trkpt lat="59.083226" lon="17.890675">
        <ele>51.3</ele>
        <time>2014-10-11T13:35:16Z</time>
      </trkpt>
      <trkpt lat="59.083137" lon="17.890562">
        <ele>50.9</ele>
        <time>2014-10-11T13:35:17Z</time>
      </trkpt>
      <trkpt lat="59.083057" lon="17.890461">
        <ele>50.5</ele>
        <time>2014-10-11T13:35:18Z</time>
      </trkpt>
      <trkpt lat="59.082965" lon="17.890357">
        <ele>50.3</ele>
        <time>2014-10-11T13:35:19Z</time>
      </trkpt>
      <trkpt lat="59.082883" lon="17.890275">
        <ele>50.3</ele>
        <time>2014-10-11T13:35:20Z</time>
      </trkpt>
      <trkpt lat="59.082796" lon="17.890191">
        <ele>50.3</ele>
        <time>2014-10-11T13:35:21Z</time>
      </trkpt>
      <trkpt lat="59.08271" lon="17.890075">
        <ele>49.9</ele>
        <time>2014-10-11T13:35:22Z</time>
      </trkpt>
      <trkpt lat="59.08263" lon="17.88997">
        <ele>49.5</ele>
        <time>2014-10-11T13:35:23Z</time>
      </trkpt>
      <trkpt lat="59.082547" lon="17.889858">
        <ele>49</ele>
        <time>2014-10-11T13:35:24Z</time>
      </trkpt>
      <trkpt lat="59.082472" lon="17.889762">
        <ele>48.5</ele>
        <time>2014-10-11T13:35:25Z</time>
      </trkpt>
      <trkpt lat="59.082389" lon="17.889643">
        <ele>47.8</ele>
        <time>2014-10-11T13:35:26Z</time>
      </trkpt>
      <trkpt lat="59.082308" lon="17.889544">
        <ele>47.2</ele>
        <time>2014-10-11T13:35:27Z</time>
      </trkpt>
      <trkpt lat="59.08223" lon="17.889442">
        <ele>46.5</ele>
        <time>2014-10-11T13:35:28Z</time>
      </trkpt>
      <trkpt lat="59.082155" lon="17.889334">
        <ele>45.8</ele>
        <time>2014-10-11T13:35:29Z</time>
      </trkpt>
      <trkpt lat="59.082073" lon="17.889226">
        <ele>45</ele>
        <time>2014-10-11T13:35:30Z</time>
      </trkpt>
      <trkpt lat="59.081987" lon="17.889118">
        <ele>44.4</ele>
        <time>2014-10-11T13:35:31Z</time>
      </trkpt>
      <trkpt lat="59.081899" lon="17.889022">
        <ele>43.8</ele>
        <time>2014-10-11T13:35:32Z</time>
      </trkpt>
      <trkpt lat="59.081813" lon="17.888898">
        <ele>42.9</ele>
        <time>2014-10-11T13:35:33Z</time>
      </trkpt>
      <trkpt lat="59.081726" lon="17.88878">
        <ele>42.1</ele>
        <time>2014-10-11T13:35:34Z</time>
      </trkpt>
      <trkpt lat="59.081633" lon="17.888669">
        <ele>42.2</ele>
        <time>2014-10-11T13:35:35Z</time>
      </trkpt>
      <trkpt lat="59.081531" lon="17.888547">
        <ele>42.7</ele>
        <time>2014-10-11T13:35:36Z</time>
      </trkpt>
      <trkpt lat="59.081443" lon="17.888452">
        <ele>43</ele>
        <time>2014-10-11T13:35:37Z</time>
      </trkpt>
      <trkpt lat="59.081352" lon="17.888351">
        <ele>43.3</ele>
        <time>2014-10-11T13:35:38Z</time>
      </trkpt>
      <trkpt lat="59.08127" lon="17.888261">
        <ele>43.6</ele>
        <time>2014-10-11T13:35:39Z</time>
      </trkpt>
      <trkpt lat="59.081184" lon="17.88816">
        <ele>43.7</ele>
        <time>2014-10-11T13:35:40Z</time>
      </trkpt>
      <trkpt lat="59.081103" lon="17.888067">
        <ele>43.8</ele>
        <time>2014-10-11T13:35:41Z</time>
      </trkpt>
      <trkpt lat="59.081022" lon="17.887982">
        <ele>43.9</ele>
        <time>2014-10-11T13:35:42Z</time>
      </trkpt>
      <trkpt lat="59.080948" lon="17.887914">
        <ele>44</ele>
        <time>2014-10-11T13:35:43Z</time>
      </trkpt>
      <trkpt lat="59.080867" lon="17.887835">
        <ele>44.1</ele>
        <time>2014-10-11T13:35:44Z</time>
      </trkpt>
      <trkpt lat="59.080795" lon="17.887776">
        <ele>44.2</ele>
        <time>2014-10-11T13:35:45Z</time>
      </trkpt>
      <trkpt lat="59.080728" lon="17.887716">
        <ele>44.2</ele>
        <time>2014-10-11T13:35:46Z</time>
      </trkpt>
      <trkpt lat="59.080668" lon="17.887661">
        <ele>44.3</ele>
        <time>2014-10-11T13:35:47Z</time>
      </trkpt>
      <trkpt lat="59.080609" lon="17.887598">
        <ele>44.4</ele>
        <time>2014-10-11T13:35:48Z</time>
      </trkpt>
      <trkpt lat="59.080547" lon="17.887516">
        <ele>44.5</ele>
        <time>2014-10-11T13:35:49Z</time>
      </trkpt>
      <trkpt lat="59.08049" lon="17.88744">
        <ele>44.6</ele>
        <time>2014-10-11T13:35:50Z</time>
      </trkpt>
      <trkpt lat="59.080433" lon="17.887349">
        <ele>44.7</ele>
        <time>2014-10-11T13:35:51Z</time>
      </trkpt>
      <trkpt lat="59.08038" lon="17.887251">
        <ele>44.6</ele>
        <time>2014-10-11T13:35:52Z</time>
      </trkpt>
      <trkpt lat="59.080332" lon="17.887144">
        <ele>44.4</ele>
        <time>2014-10-11T13:35:53Z</time>
      </trkpt>
      <trkpt lat="59.080303" lon="17.887041">
        <ele>44.5</ele>
        <time>2014-10-11T13:35:54Z</time>
      </trkpt>
      <trkpt lat="59.080255" lon="17.88693">
        <ele>44.7</ele>
        <time>2014-10-11T13:35:55Z</time>
      </trkpt>
      <trkpt lat="59.080212" lon="17.886828">
        <ele>44.8</ele>
        <time>2014-10-11T13:35:56Z</time>
      </trkpt>
      <trkpt lat="59.080169" lon="17.886722">
        <ele>44.9</ele>
        <time>2014-10-11T13:35:57Z</time>
      </trkpt>
      <trkpt lat="59.080123" lon="17.886606">
        <ele>44.9</ele>
        <time>2014-10-11T13:35:58Z</time>
      </trkpt>
      <trkpt lat="59.080073" lon="17.886487">
        <ele>44.9</ele>
        <time>2014-10-11T13:35:59Z</time>
      </trkpt>
      <trkpt lat="59.080029" lon="17.886381">
        <ele>44.9</ele>
        <time>2014-10-11T13:36:00Z</time>
      </trkpt>
      <trkpt lat="59.079972" lon="17.886288">
        <ele>44.6</ele>
        <time>2014-10-11T13:36:01Z</time>
      </trkpt>
      <trkpt lat="59.079918" lon="17.886185">
        <ele>44.4</ele>
        <time>2014-10-11T13:36:02Z</time>
      </trkpt>
      <trkpt lat="59.079862" lon="17.886084">
        <ele>44</ele>
        <time>2014-10-11T13:36:03Z</time>
      </trkpt>
      <trkpt lat="59.079816" lon="17.885992">
        <ele>43.7</ele>
        <time>2014-10-11T13:36:04Z</time>
      </trkpt>
      <trkpt lat="59.079772" lon="17.88589">
        <ele>43.4</ele>
        <time>2014-10-11T13:36:05Z</time>
      </trkpt>
      <trkpt lat="59.079731" lon="17.885798">
        <ele>43.2</ele>
        <time>2014-10-11T13:36:06Z</time>
      </trkpt>
      <trkpt lat="59.079705" lon="17.885697">
        <ele>43</ele>
        <time>2014-10-11T13:36:07Z</time>
      </trkpt>
      <trkpt lat="59.079678" lon="17.885597">
        <ele>42.9</ele>
        <time>2014-10-11T13:36:08Z</time>
      </trkpt>
      <trkpt lat="59.079651" lon="17.88549">
        <ele>42.7</ele>
        <time>2014-10-11T13:36:09Z</time>
      </trkpt>
      <trkpt lat="59.079632" lon="17.885381">
        <ele>42.7</ele>
        <time>2014-10-11T13:36:10Z</time>
      </trkpt>
      <trkpt lat="59.079623" lon="17.885243">
        <ele>42.8</ele>
        <time>2014-10-11T13:36:11Z</time>
      </trkpt>
      <trkpt lat="59.079612" lon="17.885114">
        <ele>43</ele>
        <time>2014-10-11T13:36:12Z</time>
      </trkpt>
      <trkpt lat="59.079634" lon="17.884947">
        <ele>43.5</ele>
        <time>2014-10-11T13:36:13Z</time>
      </trkpt>
      <trkpt lat="59.079646" lon="17.884794">
        <ele>43.9</ele>
        <time>2014-10-11T13:36:14Z</time>
      </trkpt>
      <trkpt lat="59.07971" lon="17.884647">
        <ele>44.5</ele>
        <time>2014-10-11T13:36:15Z</time>
      </trkpt>
      <trkpt lat="59.079763" lon="17.884508">
        <ele>44.9</ele>
        <time>2014-10-11T13:36:16Z</time>
      </trkpt>
      <trkpt lat="59.079831" lon="17.884412">
        <ele>45.1</ele>
        <time>2014-10-11T13:36:17Z</time>
      </trkpt>
      <trkpt lat="59.079921" lon="17.884264">
        <ele>45.2</ele>
        <time>2014-10-11T13:36:18Z</time>
      </trkpt>
      <trkpt lat="59.08" lon="17.884172">
        <ele>45.3</ele>
        <time>2014-10-11T13:36:19Z</time>
      </trkpt>
      <trkpt lat="59.080076" lon="17.884064">
        <ele>45.1</ele>
        <time>2014-10-11T13:36:20Z</time>
      </trkpt>
      <trkpt lat="59.080146" lon="17.883895">
        <ele>44.7</ele>
        <time>2014-10-11T13:36:21Z</time>
      </trkpt>
      <trkpt lat="59.080211" lon="17.883712">
        <ele>44.3</ele>
        <time>2014-10-11T13:36:22Z</time>
      </trkpt>
      <trkpt lat="59.080259" lon="17.883502">
        <ele>44.7</ele>
        <time>2014-10-11T13:36:23Z</time>
      </trkpt>
      <trkpt lat="59.080294" lon="17.883295">
        <ele>45.2</ele>
        <time>2014-10-11T13:36:24Z</time>
      </trkpt>
      <trkpt lat="59.080294" lon="17.883084">
        <ele>45.6</ele>
        <time>2014-10-11T13:36:25Z</time>
      </trkpt>
      <trkpt lat="59.080297" lon="17.88289">
        <ele>46.1</ele>
        <time>2014-10-11T13:36:26Z</time>
      </trkpt>
      <trkpt lat="59.080274" lon="17.882753">
        <ele>46.3</ele>
        <time>2014-10-11T13:36:27Z</time>
      </trkpt>
      <trkpt lat="59.080239" lon="17.882596">
        <ele>46.6</ele>
        <time>2014-10-11T13:36:28Z</time>
      </trkpt>
      <trkpt lat="59.080203" lon="17.88246">
        <ele>46.8</ele>
        <time>2014-10-11T13:36:29Z</time>
      </trkpt>
      <trkpt lat="59.08017" lon="17.882304">
        <ele>47</ele>
        <time>2014-10-11T13:36:30Z</time>
      </trkpt>
      <trkpt lat="59.080144" lon="17.882184">
        <ele>47.2</ele>
        <time>2014-10-11T13:36:31Z</time>
      </trkpt>
      <trkpt lat="59.080111" lon="17.882057">
        <ele>47.4</ele>
        <time>2014-10-11T13:36:32Z</time>
      </trkpt>
      <trkpt lat="59.080081" lon="17.881924">
        <ele>48.2</ele>
        <time>2014-10-11T13:36:33Z</time>
      </trkpt>
      <trkpt lat="59.080067" lon="17.881832">
        <ele>48.7</ele>
        <time>2014-10-11T13:36:34Z</time>
      </trkpt>
      <trkpt lat="59.080051" lon="17.881722">
        <ele>49.3</ele>
        <time>2014-10-11T13:36:35Z</time>
      </trkpt>
      <trkpt lat="59.080063" lon="17.881658">
        <ele>49.7</ele>
        <time>2014-10-11T13:36:36Z</time>
      </trkpt>
      <trkpt lat="59.080053" lon="17.881562">
        <ele>50.3</ele>
        <time>2014-10-11T13:36:37Z</time>
      </trkpt>
      <trkpt lat="59.080032" lon="17.881481">
        <ele>50.7</ele>
        <time>2014-10-11T13:36:38Z</time>
      </trkpt>
      <trkpt lat="59.080018" lon="17.881392">
        <ele>51.2</ele>
        <time>2014-10-11T13:36:39Z</time>
      </trkpt>
      <trkpt lat="59.080003" lon="17.881303">
        <ele>51.7</ele>
        <time>2014-10-11T13:36:40Z</time>
      </trkpt>
      <trkpt lat="59.079977" lon="17.881215">
        <ele>52.1</ele>
        <time>2014-10-11T13:36:41Z</time>
      </trkpt>
      <trkpt lat="59.079957" lon="17.881135">
        <ele>52.4</ele>
        <time>2014-10-11T13:36:42Z</time>
      </trkpt>
      <trkpt lat="59.079931" lon="17.881048">
        <ele>52.8</ele>
        <time>2014-10-11T13:36:43Z</time>
      </trkpt>
      <trkpt lat="59.07991" lon="17.880944">
        <ele>53.3</ele>
        <time>2014-10-11T13:36:44Z</time>
      </trkpt>
      <trkpt lat="59.079891" lon="17.880863">
        <ele>53.6</ele>
        <time>2014-10-11T13:36:45Z</time>
      </trkpt>
      <trkpt lat="59.079858" lon="17.880769">
        <ele>54</ele>
        <time>2014-10-11T13:36:46Z</time>
      </trkpt>
      <trkpt lat="59.079841" lon="17.880704">
        <ele>54.2</ele>
        <time>2014-10-11T13:36:47Z</time>
      </trkpt>
      <trkpt lat="59.079815" lon="17.880625">
        <ele>54.6</ele>
        <time>2014-10-11T13:36:48Z</time>
      </trkpt>
      <trkpt lat="59.07979" lon="17.880547">
        <ele>54.9</ele>
        <time>2014-10-11T13:36:49Z</time>
      </trkpt>
      <trkpt lat="59.079766" lon="17.880457">
        <ele>55.2</ele>
        <time>2014-10-11T13:36:50Z</time>
      </trkpt>
      <trkpt lat="59.079735" lon="17.880371">
        <ele>55.9</ele>
        <time>2014-10-11T13:36:51Z</time>
      </trkpt>
      <trkpt lat="59.079703" lon="17.880291">
        <ele>56.7</ele>
        <time>2014-10-11T13:36:52Z</time>
      </trkpt>
      <trkpt lat="59.079662" lon="17.880202">
        <ele>57.7</ele>
        <time>2014-10-11T13:36:53Z</time>
      </trkpt>
      <trkpt lat="59.07963" lon="17.880118">
        <ele>58.6</ele>
        <time>2014-10-11T13:36:54Z</time>
      </trkpt>
      <trkpt lat="59.079594" lon="17.880043">
        <ele>59.5</ele>
        <time>2014-10-11T13:36:55Z</time>
      </trkpt>
      <trkpt lat="59.07956" lon="17.879972">
        <ele>60.2</ele>
        <time>2014-10-11T13:36:56Z</time>
      </trkpt>
      <trkpt lat="59.079515" lon="17.879919">
        <ele>60.7</ele>
        <time>2014-10-11T13:36:57Z</time>
      </trkpt>
      <trkpt lat="59.079478" lon="17.87984">
        <ele>61.5</ele>
        <time>2014-10-11T13:36:58Z</time>
      </trkpt>
      <trkpt lat="59.079439" lon="17.879802">
        <ele>61.7</ele>
        <time>2014-10-11T13:36:59Z</time>
      </trkpt>
      <trkpt lat="59.079389" lon="17.879759">
        <ele>62</ele>
        <time>2014-10-11T13:37:00Z</time>
      </trkpt>
      <trkpt lat="59.079331" lon="17.879723">
        <ele>62.2</ele>
        <time>2014-10-11T13:37:01Z</time>
      </trkpt>
      <trkpt lat="59.079283" lon="17.879699">
        <ele>62.2</ele>
        <time>2014-10-11T13:37:02Z</time>
      </trkpt>
      <trkpt lat="59.079232" lon="17.879662">
        <ele>62.4</ele>
        <time>2014-10-11T13:37:03Z</time>
      </trkpt>
      <trkpt lat="59.079175" lon="17.879628">
        <ele>62.5</ele>
        <time>2014-10-11T13:37:04Z</time>
      </trkpt>
      <trkpt lat="59.07912" lon="17.879597">
        <ele>62.6</ele>
        <time>2014-10-11T13:37:05Z</time>
      </trkpt>
      <trkpt lat="59.079071" lon="17.879577">
        <ele>62.6</ele>
        <time>2014-10-11T13:37:06Z</time>
      </trkpt>
      <trkpt lat="59.079023" lon="17.879557">
        <ele>62.6</ele>
        <time>2014-10-11T13:37:07Z</time>
      </trkpt>
      <trkpt lat="59.078982" lon="17.879542">
        <ele>62.5</ele>
        <time>2014-10-11T13:37:08Z</time>
      </trkpt>
      <trkpt lat="59.078936" lon="17.879525">
        <ele>62.5</ele>
        <time>2014-10-11T13:37:09Z</time>
      </trkpt>
      <trkpt lat="59.078886" lon="17.879513">
        <ele>62.3</ele>
        <time>2014-10-11T13:37:10Z</time>
      </trkpt>
      <trkpt lat="59.078839" lon="17.879491">
        <ele>62.3</ele>
        <time>2014-10-11T13:37:11Z</time>
      </trkpt>
      <trkpt lat="59.078784" lon="17.879467">
        <ele>62.3</ele>
        <time>2014-10-11T13:37:12Z</time>
      </trkpt>
      <trkpt lat="59.07873" lon="17.879448">
        <ele>62.3</ele>
        <time>2014-10-11T13:37:13Z</time>
      </trkpt>
      <trkpt lat="59.078677" lon="17.87943">
        <ele>62.3</ele>
        <time>2014-10-11T13:37:14Z</time>
      </trkpt>
      <trkpt lat="59.078628" lon="17.879417">
        <ele>62.3</ele>
        <time>2014-10-11T13:37:15Z</time>
      </trkpt>
      <trkpt lat="59.078572" lon="17.879395">
        <ele>62.4</ele>
        <time>2014-10-11T13:37:16Z</time>
      </trkpt>
      <trkpt lat="59.078517" lon="17.879367">
        <ele>62.5</ele>
        <time>2014-10-11T13:37:17Z</time>
      </trkpt>
      <trkpt lat="59.078454" lon="17.879328">
        <ele>62.7</ele>
        <time>2014-10-11T13:37:18Z</time>
      </trkpt>
      <trkpt lat="59.0784" lon="17.879297">
        <ele>62.9</ele>
        <time>2014-10-11T13:37:19Z</time>
      </trkpt>
      <trkpt lat="59.078341" lon="17.879257">
        <ele>63.2</ele>
        <time>2014-10-11T13:37:20Z</time>
      </trkpt>
      <trkpt lat="59.07828" lon="17.879208">
        <ele>63.5</ele>
        <time>2014-10-11T13:37:21Z</time>
      </trkpt>
      <trkpt lat="59.078225" lon="17.879166">
        <ele>63.7</ele>
        <time>2014-10-11T13:37:22Z</time>
      </trkpt>
      <trkpt lat="59.078165" lon="17.879123">
        <ele>64</ele>
        <time>2014-10-11T13:37:23Z</time>
      </trkpt>
      <trkpt lat="59.07811" lon="17.879085">
        <ele>64.2</ele>
        <time>2014-10-11T13:37:24Z</time>
      </trkpt>
      <trkpt lat="59.078052" lon="17.879051">
        <ele>64.4</ele>
        <time>2014-10-11T13:37:25Z</time>
      </trkpt>
      <trkpt lat="59.07799" lon="17.879011">
        <ele>64.7</ele>
        <time>2014-10-11T13:37:26Z</time>
      </trkpt>
      <trkpt lat="59.07793" lon="17.878986">
        <ele>64.8</ele>
        <time>2014-10-11T13:37:27Z</time>
      </trkpt>
      <trkpt lat="59.07787" lon="17.878972">
        <ele>64.7</ele>
        <time>2014-10-11T13:37:28Z</time>
      </trkpt>
      <trkpt lat="59.077805" lon="17.878951">
        <ele>64.6</ele>
        <time>2014-10-11T13:37:29Z</time>
      </trkpt>
      <trkpt lat="59.077749" lon="17.878935">
        <ele>64.5</ele>
        <time>2014-10-11T13:37:30Z</time>
      </trkpt>
      <trkpt lat="59.077687" lon="17.878924">
        <ele>64.3</ele>
        <time>2014-10-11T13:37:31Z</time>
      </trkpt>
      <trkpt lat="59.077611" lon="17.878924">
        <ele>64</ele>
        <time>2014-10-11T13:37:32Z</time>
      </trkpt>
      <trkpt lat="59.077547" lon="17.878937">
        <ele>63.6</ele>
        <time>2014-10-11T13:37:33Z</time>
      </trkpt>
      <trkpt lat="59.077477" lon="17.878937">
        <ele>63.3</ele>
        <time>2014-10-11T13:37:34Z</time>
      </trkpt>
      <trkpt lat="59.077399" lon="17.878917">
        <ele>63.2</ele>
        <time>2014-10-11T13:37:35Z</time>
      </trkpt>
      <trkpt lat="59.07733" lon="17.878922">
        <ele>62.8</ele>
        <time>2014-10-11T13:37:36Z</time>
      </trkpt>
      <trkpt lat="59.077255" lon="17.878924">
        <ele>62.5</ele>
        <time>2014-10-11T13:37:37Z</time>
      </trkpt>
      <trkpt lat="59.07717" lon="17.878879">
        <ele>62.5</ele>
        <time>2014-10-11T13:37:38Z</time>
      </trkpt>
      <trkpt lat="59.077114" lon="17.878887">
        <ele>62.1</ele>
        <time>2014-10-11T13:37:39Z</time>
      </trkpt>
      <trkpt lat="59.077054" lon="17.878847">
        <ele>62.2</ele>
        <time>2014-10-11T13:37:40Z</time>
      </trkpt>
      <trkpt lat="59.07698" lon="17.878831">
        <ele>61.9</ele>
        <time>2014-10-11T13:37:41Z</time>
      </trkpt>
      <trkpt lat="59.076925" lon="17.878811">
        <ele>61.8</ele>
        <time>2014-10-11T13:37:42Z</time>
      </trkpt>
      <trkpt lat="59.076863" lon="17.878792">
        <ele>61.6</ele>
        <time>2014-10-11T13:37:43Z</time>
      </trkpt>
      <trkpt lat="59.076772" lon="17.878725">
        <ele>61.8</ele>
        <time>2014-10-11T13:37:44Z</time>
      </trkpt>
      <trkpt lat="59.076706" lon="17.878681">
        <ele>62.1</ele>
        <time>2014-10-11T13:37:45Z</time>
      </trkpt>
      <trkpt lat="59.076635" lon="17.878622">
        <ele>62.6</ele>
        <time>2014-10-11T13:37:46Z</time>
      </trkpt>
      <trkpt lat="59.076558" lon="17.878558">
        <ele>63.2</ele>
        <time>2014-10-11T13:37:47Z</time>
      </trkpt>
      <trkpt lat="59.076476" lon="17.878493">
        <ele>63.7</ele>
        <time>2014-10-11T13:37:48Z</time>
      </trkpt>
      <trkpt lat="59.076417" lon="17.878474">
        <ele>63.7</ele>
        <time>2014-10-11T13:37:49Z</time>
      </trkpt>
      <trkpt lat="59.076341" lon="17.878428">
        <ele>64</ele>
        <time>2014-10-11T13:37:50Z</time>
      </trkpt>
      <trkpt lat="59.07627" lon="17.878398">
        <ele>64.2</ele>
        <time>2014-10-11T13:37:51Z</time>
      </trkpt>
      <trkpt lat="59.076198" lon="17.878369">
        <ele>64.6</ele>
        <time>2014-10-11T13:37:52Z</time>
      </trkpt>
      <trkpt lat="59.076124" lon="17.87835">
        <ele>64.9</ele>
        <time>2014-10-11T13:37:53Z</time>
      </trkpt>
      <trkpt lat="59.076044" lon="17.878364">
        <ele>64.8</ele>
        <time>2014-10-11T13:37:54Z</time>
      </trkpt>
      <trkpt lat="59.075971" lon="17.878357">
        <ele>65</ele>
        <time>2014-10-11T13:37:55Z</time>
      </trkpt>
      <trkpt lat="59.075389" lon="17.878492">
        <ele>64</ele>
        <time>2014-10-11T13:38:02Z</time>
      </trkpt>
      <trkpt lat="59.075307" lon="17.878528">
        <ele>63.3</ele>
        <time>2014-10-11T13:38:03Z</time>
      </trkpt>
      <trkpt lat="59.075217" lon="17.87856">
        <ele>62.7</ele>
        <time>2014-10-11T13:38:04Z</time>
      </trkpt>
      <trkpt lat="59.075169" lon="17.878536">
        <ele>62.8</ele>
        <time>2014-10-11T13:38:05Z</time>
      </trkpt>
      <trkpt lat="59.075083" lon="17.878567">
        <ele>62.2</ele>
        <time>2014-10-11T13:38:06Z</time>
      </trkpt>
      <trkpt lat="59.074998" lon="17.878561">
        <ele>62</ele>
        <time>2014-10-11T13:38:07Z</time>
      </trkpt>
      <trkpt lat="59.074915" lon="17.87858">
        <ele>61.6</ele>
        <time>2014-10-11T13:38:08Z</time>
      </trkpt>
      <trkpt lat="59.074844" lon="17.878577">
        <ele>61.4</ele>
        <time>2014-10-11T13:38:09Z</time>
      </trkpt>
      <trkpt lat="59.07477" lon="17.878592">
        <ele>61</ele>
        <time>2014-10-11T13:38:10Z</time>
      </trkpt>
      <trkpt lat="59.074687" lon="17.878581">
        <ele>60.9</ele>
        <time>2014-10-11T13:38:11Z</time>
      </trkpt>
      <trkpt lat="59.074615" lon="17.878578">
        <ele>60.7</ele>
        <time>2014-10-11T13:38:12Z</time>
      </trkpt>
      <trkpt lat="59.074537" lon="17.878577">
        <ele>60.6</ele>
        <time>2014-10-11T13:38:13Z</time>
      </trkpt>
      <trkpt lat="59.074467" lon="17.878572">
        <ele>60.5</ele>
        <time>2014-10-11T13:38:14Z</time>
      </trkpt>
      <trkpt lat="59.074408" lon="17.878561">
        <ele>60.5</ele>
        <time>2014-10-11T13:38:15Z</time>
      </trkpt>
      <trkpt lat="59.074328" lon="17.878536">
        <ele>60.5</ele>
        <time>2014-10-11T13:38:16Z</time>
      </trkpt>
      <trkpt lat="59.074258" lon="17.87852">
        <ele>60.5</ele>
        <time>2014-10-11T13:38:17Z</time>
      </trkpt>
      <trkpt lat="59.074189" lon="17.878485">
        <ele>60.6</ele>
        <time>2014-10-11T13:38:18Z</time>
      </trkpt>
      <trkpt lat="59.074126" lon="17.878446">
        <ele>60.8</ele>
        <time>2014-10-11T13:38:19Z</time>
      </trkpt>
      <trkpt lat="59.074067" lon="17.878423">
        <ele>60.8</ele>
        <time>2014-10-11T13:38:20Z</time>
      </trkpt>
      <trkpt lat="59.074015" lon="17.87838">
        <ele>61</ele>
        <time>2014-10-11T13:38:21Z</time>
      </trkpt>
      <trkpt lat="59.073958" lon="17.87835">
        <ele>61</ele>
        <time>2014-10-11T13:38:22Z</time>
      </trkpt>
      <trkpt lat="59.073894" lon="17.878317">
        <ele>61</ele>
        <time>2014-10-11T13:38:23Z</time>
      </trkpt>
      <trkpt lat="59.073838" lon="17.87828">
        <ele>61.1</ele>
        <time>2014-10-11T13:38:24Z</time>
      </trkpt>
      <trkpt lat="59.073778" lon="17.878243">
        <ele>61.1</ele>
        <time>2014-10-11T13:38:25Z</time>
      </trkpt>
      <trkpt lat="59.073717" lon="17.878199">
        <ele>61.3</ele>
        <time>2014-10-11T13:38:26Z</time>
      </trkpt>
      <trkpt lat="59.073657" lon="17.878175">
        <ele>61.5</ele>
        <time>2014-10-11T13:38:27Z</time>
      </trkpt>
      <trkpt lat="59.073596" lon="17.878154">
        <ele>61.6</ele>
        <time>2014-10-11T13:38:28Z</time>
      </trkpt>
      <trkpt lat="59.073531" lon="17.878129">
        <ele>61.7</ele>
        <time>2014-10-11T13:38:29Z</time>
      </trkpt>
      <trkpt lat="59.073465" lon="17.878115">
        <ele>61.8</ele>
        <time>2014-10-11T13:38:30Z</time>
      </trkpt>
      <trkpt lat="59.073396" lon="17.8781">
        <ele>61.8</ele>
        <time>2014-10-11T13:38:31Z</time>
      </trkpt>
      <trkpt lat="59.073328" lon="17.878071">
        <ele>61.9</ele>
        <time>2014-10-11T13:38:32Z</time>
      </trkpt>
      <trkpt lat="59.07325" lon="17.87804">
        <ele>62</ele>
        <time>2014-10-11T13:38:33Z</time>
      </trkpt>
      <trkpt lat="59.073182" lon="17.878032">
        <ele>62</ele>
        <time>2014-10-11T13:38:34Z</time>
      </trkpt>
      <trkpt lat="59.073115" lon="17.878016">
        <ele>62</ele>
        <time>2014-10-11T13:38:35Z</time>
      </trkpt>
      <trkpt lat="59.073034" lon="17.878016">
        <ele>62</ele>
        <time>2014-10-11T13:38:36Z</time>
      </trkpt>
      <trkpt lat="59.072966" lon="17.878012">
        <ele>61.9</ele>
        <time>2014-10-11T13:38:37Z</time>
      </trkpt>
      <trkpt lat="59.072887" lon="17.878">
        <ele>61.7</ele>
        <time>2014-10-11T13:38:38Z</time>
      </trkpt>
      <trkpt lat="59.072821" lon="17.878024">
        <ele>61.1</ele>
        <time>2014-10-11T13:38:39Z</time>
      </trkpt>
      <trkpt lat="59.072743" lon="17.878036">
        <ele>60.5</ele>
        <time>2014-10-11T13:38:40Z</time>
      </trkpt>
      <trkpt lat="59.072674" lon="17.878078">
        <ele>60</ele>
        <time>2014-10-11T13:38:41Z</time>
      </trkpt>
      <trkpt lat="59.072607" lon="17.878087">
        <ele>59.5</ele>
        <time>2014-10-11T13:38:42Z</time>
      </trkpt>
      <trkpt lat="59.072539" lon="17.878117">
        <ele>59</ele>
        <time>2014-10-11T13:38:43Z</time>
      </trkpt>
      <trkpt lat="59.072473" lon="17.878143">
        <ele>58.6</ele>
        <time>2014-10-11T13:38:44Z</time>
      </trkpt>
      <trkpt lat="59.072402" lon="17.878143">
        <ele>58.1</ele>
        <time>2014-10-11T13:38:45Z</time>
      </trkpt>
      <trkpt lat="59.072344" lon="17.878168">
        <ele>57.7</ele>
        <time>2014-10-11T13:38:46Z</time>
      </trkpt>
      <trkpt lat="59.072276" lon="17.878186">
        <ele>57.3</ele>
        <time>2014-10-11T13:38:47Z</time>
      </trkpt>
      <trkpt lat="59.072215" lon="17.878212">
        <ele>56.9</ele>
        <time>2014-10-11T13:38:48Z</time>
      </trkpt>
      <trkpt lat="59.072153" lon="17.87823">
        <ele>56.6</ele>
        <time>2014-10-11T13:38:49Z</time>
      </trkpt>
      <trkpt lat="59.072089" lon="17.878254">
        <ele>56.3</ele>
        <time>2014-10-11T13:38:50Z</time>
      </trkpt>
      <trkpt lat="59.072021" lon="17.878269">
        <ele>56</ele>
        <time>2014-10-11T13:38:51Z</time>
      </trkpt>
      <trkpt lat="59.07195" lon="17.878295">
        <ele>55.9</ele>
        <time>2014-10-11T13:38:52Z</time>
      </trkpt>
      <trkpt lat="59.071886" lon="17.878295">
        <ele>55.7</ele>
        <time>2014-10-11T13:38:53Z</time>
      </trkpt>
      <trkpt lat="59.07182" lon="17.878299">
        <ele>55.4</ele>
        <time>2014-10-11T13:38:54Z</time>
      </trkpt>
      <trkpt lat="59.071762" lon="17.878298">
        <ele>55.2</ele>
        <time>2014-10-11T13:38:55Z</time>
      </trkpt>
      <trkpt lat="59.071703" lon="17.87831">
        <ele>55</ele>
        <time>2014-10-11T13:38:56Z</time>
      </trkpt>
      <trkpt lat="59.071635" lon="17.878337">
        <ele>54.9</ele>
        <time>2014-10-11T13:38:57Z</time>
      </trkpt>
      <trkpt lat="59.071559" lon="17.878357">
        <ele>54.7</ele>
        <time>2014-10-11T13:38:58Z</time>
      </trkpt>
      <trkpt lat="59.071489" lon="17.878393">
        <ele>54.6</ele>
        <time>2014-10-11T13:38:59Z</time>
      </trkpt>
      <trkpt lat="59.071425" lon="17.878429">
        <ele>54.5</ele>
        <time>2014-10-11T13:39:00Z</time>
      </trkpt>
      <trkpt lat="59.071357" lon="17.878464">
        <ele>54.4</ele>
        <time>2014-10-11T13:39:01Z</time>
      </trkpt>
      <trkpt lat="59.071287" lon="17.878507">
        <ele>54.3</ele>
        <time>2014-10-11T13:39:02Z</time>
      </trkpt>
      <trkpt lat="59.071219" lon="17.878523">
        <ele>54.1</ele>
        <time>2014-10-11T13:39:03Z</time>
      </trkpt>
      <trkpt lat="59.071158" lon="17.878531">
        <ele>53.8</ele>
        <time>2014-10-11T13:39:04Z</time>
      </trkpt>
      <trkpt lat="59.071097" lon="17.878529">
        <ele>53.6</ele>
        <time>2014-10-11T13:39:05Z</time>
      </trkpt>
      <trkpt lat="59.07103" lon="17.878508">
        <ele>53.2</ele>
        <time>2014-10-11T13:39:06Z</time>
      </trkpt>
      <trkpt lat="59.070957" lon="17.878483">
        <ele>52.9</ele>
        <time>2014-10-11T13:39:07Z</time>
      </trkpt>
      <trkpt lat="59.070892" lon="17.878457">
        <ele>52.5</ele>
        <time>2014-10-11T13:39:08Z</time>
      </trkpt>
      <trkpt lat="59.07083" lon="17.878407">
        <ele>52.2</ele>
        <time>2014-10-11T13:39:09Z</time>
      </trkpt>
      <trkpt lat="59.070769" lon="17.878357">
        <ele>51.8</ele>
        <time>2014-10-11T13:39:10Z</time>
      </trkpt>
      <trkpt lat="59.070691" lon="17.878288">
        <ele>51.4</ele>
        <time>2014-10-11T13:39:11Z</time>
      </trkpt>
      <trkpt lat="59.070622" lon="17.87823">
        <ele>51.1</ele>
        <time>2014-10-11T13:39:12Z</time>
      </trkpt>
      <trkpt lat="59.070544" lon="17.878167">
        <ele>50.7</ele>
        <time>2014-10-11T13:39:13Z</time>
      </trkpt>
      <trkpt lat="59.070468" lon="17.878106">
        <ele>50.4</ele>
        <time>2014-10-11T13:39:14Z</time>
      </trkpt>
      <trkpt lat="59.070392" lon="17.878031">
        <ele>50.2</ele>
        <time>2014-10-11T13:39:15Z</time>
      </trkpt>
      <trkpt lat="59.070321" lon="17.877961">
        <ele>50.4</ele>
        <time>2014-10-11T13:39:16Z</time>
      </trkpt>
      <trkpt lat="59.07026" lon="17.877868">
        <ele>50.6</ele>
        <time>2014-10-11T13:39:17Z</time>
      </trkpt>
      <trkpt lat="59.070188" lon="17.877806">
        <ele>50.8</ele>
        <time>2014-10-11T13:39:18Z</time>
      </trkpt>
      <trkpt lat="59.070119" lon="17.877737">
        <ele>51.1</ele>
        <time>2014-10-11T13:39:19Z</time>
      </trkpt>
      <trkpt lat="59.070049" lon="17.877668">
        <ele>51.3</ele>
        <time>2014-10-11T13:39:20Z</time>
      </trkpt>
      <trkpt lat="59.069981" lon="17.877579">
        <ele>51.6</ele>
        <time>2014-10-11T13:39:21Z</time>
      </trkpt>
      <trkpt lat="59.069915" lon="17.877489">
        <ele>51.8</ele>
        <time>2014-10-11T13:39:22Z</time>
      </trkpt>
      <trkpt lat="59.069851" lon="17.877414">
        <ele>52</ele>
        <time>2014-10-11T13:39:23Z</time>
      </trkpt>
      <trkpt lat="59.069781" lon="17.877332">
        <ele>52.3</ele>
        <time>2014-10-11T13:39:24Z</time>
      </trkpt>
      <trkpt lat="59.069712" lon="17.877252">
        <ele>52.5</ele>
        <time>2014-10-11T13:39:25Z</time>
      </trkpt>
      <trkpt lat="59.069635" lon="17.87716">
        <ele>52.8</ele>
        <time>2014-10-11T13:39:26Z</time>
      </trkpt>
      <trkpt lat="59.069569" lon="17.877083">
        <ele>53</ele>
        <time>2014-10-11T13:39:27Z</time>
      </trkpt>
      <trkpt lat="59.06951" lon="17.876992">
        <ele>53.2</ele>
        <time>2014-10-11T13:39:28Z</time>
      </trkpt>
      <trkpt lat="59.069446" lon="17.876902">
        <ele>53.4</ele>
        <time>2014-10-11T13:39:29Z</time>
      </trkpt>
      <trkpt lat="59.06938" lon="17.876824">
        <ele>53.6</ele>
        <time>2014-10-11T13:39:30Z</time>
      </trkpt>
      <trkpt lat="59.069323" lon="17.876764">
        <ele>53.9</ele>
        <time>2014-10-11T13:39:31Z</time>
      </trkpt>
      <trkpt lat="59.069269" lon="17.876705">
        <ele>54.1</ele>
        <time>2014-10-11T13:39:32Z</time>
      </trkpt>
      <trkpt lat="59.069198" lon="17.876638">
        <ele>54.4</ele>
        <time>2014-10-11T13:39:33Z</time>
      </trkpt>
      <trkpt lat="59.069141" lon="17.876559">
        <ele>54.7</ele>
        <time>2014-10-11T13:39:34Z</time>
      </trkpt>
      <trkpt lat="59.069079" lon="17.87648">
        <ele>55.1</ele>
        <time>2014-10-11T13:39:35Z</time>
      </trkpt>
      <trkpt lat="59.069015" lon="17.876409">
        <ele>55.5</ele>
        <time>2014-10-11T13:39:36Z</time>
      </trkpt>
      <trkpt lat="59.068952" lon="17.876348">
        <ele>55.9</ele>
        <time>2014-10-11T13:39:37Z</time>
      </trkpt>
      <trkpt lat="59.068888" lon="17.87629">
        <ele>56.3</ele>
        <time>2014-10-11T13:39:38Z</time>
      </trkpt>
      <trkpt lat="59.068826" lon="17.87623">
        <ele>56.7</ele>
        <time>2014-10-11T13:39:39Z</time>
      </trkpt>
      <trkpt lat="59.068756" lon="17.876178">
        <ele>57.1</ele>
        <time>2014-10-11T13:39:40Z</time>
      </trkpt>
      <trkpt lat="59.068702" lon="17.876125">
        <ele>57.5</ele>
        <time>2014-10-11T13:39:41Z</time>
      </trkpt>
      <trkpt lat="59.068642" lon="17.876076">
        <ele>57.8</ele>
        <time>2014-10-11T13:39:42Z</time>
      </trkpt>
      <trkpt lat="59.06858" lon="17.876033">
        <ele>58.1</ele>
        <time>2014-10-11T13:39:43Z</time>
      </trkpt>
      <trkpt lat="59.068532" lon="17.875999">
        <ele>58.4</ele>
        <time>2014-10-11T13:39:44Z</time>
      </trkpt>
      <trkpt lat="59.068475" lon="17.875958">
        <ele>58.7</ele>
        <time>2014-10-11T13:39:45Z</time>
      </trkpt>
      <trkpt lat="59.068419" lon="17.875924">
        <ele>59</ele>
        <time>2014-10-11T13:39:46Z</time>
      </trkpt>
      <trkpt lat="59.068362" lon="17.875888">
        <ele>59.3</ele>
        <time>2014-10-11T13:39:47Z</time>
      </trkpt>
      <trkpt lat="59.068313" lon="17.875856">
        <ele>59.5</ele>
        <time>2014-10-11T13:39:48Z</time>
      </trkpt>
      <trkpt lat="59.068264" lon="17.875814">
        <ele>59.8</ele>
        <time>2014-10-11T13:39:49Z</time>
      </trkpt>
      <trkpt lat="59.068211" lon="17.87578">
        <ele>60.1</ele>
        <time>2014-10-11T13:39:50Z</time>
      </trkpt>
      <trkpt lat="59.068152" lon="17.875759">
        <ele>60.3</ele>
        <time>2014-10-11T13:39:51Z</time>
      </trkpt>
      <trkpt lat="59.068097" lon="17.875745">
        <ele>60.6</ele>
        <time>2014-10-11T13:39:52Z</time>
      </trkpt>
      <trkpt lat="59.068035" lon="17.875731">
        <ele>60.8</ele>
        <time>2014-10-11T13:39:53Z</time>
      </trkpt>
      <trkpt lat="59.067979" lon="17.87571">
        <ele>61.1</ele>
        <time>2014-10-11T13:39:54Z</time>
      </trkpt>
      <trkpt lat="59.067923" lon="17.875705">
        <ele>61.3</ele>
        <time>2014-10-11T13:39:55Z</time>
      </trkpt>
      <trkpt lat="59.067869" lon="17.875671">
        <ele>61.4</ele>
        <time>2014-10-11T13:39:56Z</time>
      </trkpt>
      <trkpt lat="59.06781" lon="17.875646">
        <ele>61.6</ele>
        <time>2014-10-11T13:39:57Z</time>
      </trkpt>
      <trkpt lat="59.067749" lon="17.875618">
        <ele>61.7</ele>
        <time>2014-10-11T13:39:58Z</time>
      </trkpt>
      <trkpt lat="59.067688" lon="17.875605">
        <ele>61.8</ele>
        <time>2014-10-11T13:39:59Z</time>
      </trkpt>
      <trkpt lat="59.067622" lon="17.875594">
        <ele>61.9</ele>
        <time>2014-10-11T13:40:00Z</time>
      </trkpt>
      <trkpt lat="59.067564" lon="17.875575">
        <ele>62</ele>
        <time>2014-10-11T13:40:01Z</time>
      </trkpt>
      <trkpt lat="59.067503" lon="17.875565">
        <ele>62.1</ele>
        <time>2014-10-11T13:40:02Z</time>
      </trkpt>
      <trkpt lat="59.067446" lon="17.875551">
        <ele>62.2</ele>
        <time>2014-10-11T13:40:03Z</time>
      </trkpt>
      <trkpt lat="59.067392" lon="17.875548">
        <ele>62.3</ele>
        <time>2014-10-11T13:40:04Z</time>
      </trkpt>
      <trkpt lat="59.067335" lon="17.875545">
        <ele>62.4</ele>
        <time>2014-10-11T13:40:05Z</time>
      </trkpt>
      <trkpt lat="59.067294" lon="17.875543">
        <ele>62.4</ele>
        <time>2014-10-11T13:40:06Z</time>
      </trkpt>
      <trkpt lat="59.067243" lon="17.875546">
        <ele>62.5</ele>
        <time>2014-10-11T13:40:07Z</time>
      </trkpt>
      <trkpt lat="59.067198" lon="17.87554">
        <ele>62.6</ele>
        <time>2014-10-11T13:40:08Z</time>
      </trkpt>
      <trkpt lat="59.06716" lon="17.875532">
        <ele>62.6</ele>
        <time>2014-10-11T13:40:09Z</time>
      </trkpt>
      <trkpt lat="59.06711" lon="17.875524">
        <ele>62.7</ele>
        <time>2014-10-11T13:40:10Z</time>
      </trkpt>
      <trkpt lat="59.06706" lon="17.875522">
        <ele>62.8</ele>
        <time>2014-10-11T13:40:11Z</time>
      </trkpt>
      <trkpt lat="59.067005" lon="17.875511">
        <ele>62.9</ele>
        <time>2014-10-11T13:40:12Z</time>
      </trkpt>
      <trkpt lat="59.066948" lon="17.875508">
        <ele>63</ele>
        <time>2014-10-11T13:40:13Z</time>
      </trkpt>
      <trkpt lat="59.066906" lon="17.875526">
        <ele>63</ele>
        <time>2014-10-11T13:40:14Z</time>
      </trkpt>
      <trkpt lat="59.06685" lon="17.875526">
        <ele>63.1</ele>
        <time>2014-10-11T13:40:15Z</time>
      </trkpt>
      <trkpt lat="59.066792" lon="17.875523">
        <ele>63.2</ele>
        <time>2014-10-11T13:40:16Z</time>
      </trkpt>
      <trkpt lat="59.066732" lon="17.875508">
        <ele>63.3</ele>
        <time>2014-10-11T13:40:17Z</time>
      </trkpt>
      <trkpt lat="59.066676" lon="17.875503">
        <ele>63.4</ele>
        <time>2014-10-11T13:40:18Z</time>
      </trkpt>
      <trkpt lat="59.066618" lon="17.875493">
        <ele>63.5</ele>
        <time>2014-10-11T13:40:19Z</time>
      </trkpt>
      <trkpt lat="59.066563" lon="17.875485">
        <ele>63.6</ele>
        <time>2014-10-11T13:40:20Z</time>
      </trkpt>
      <trkpt lat="59.066502" lon="17.875507">
        <ele>63.7</ele>
        <time>2014-10-11T13:40:21Z</time>
      </trkpt>
      <trkpt lat="59.066427" lon="17.875497">
        <ele>63.8</ele>
        <time>2014-10-11T13:40:22Z</time>
      </trkpt>
      <trkpt lat="59.066359" lon="17.875497">
        <ele>63.9</ele>
        <time>2014-10-11T13:40:23Z</time>
      </trkpt>
      <trkpt lat="59.066295" lon="17.875489">
        <ele>64</ele>
        <time>2014-10-11T13:40:24Z</time>
      </trkpt>
      <trkpt lat="59.066217" lon="17.875496">
        <ele>64.3</ele>
        <time>2014-10-11T13:40:25Z</time>
      </trkpt>
      <trkpt lat="59.06615" lon="17.875486">
        <ele>64.6</ele>
        <time>2014-10-11T13:40:26Z</time>
      </trkpt>
      <trkpt lat="59.066079" lon="17.875475">
        <ele>64.9</ele>
        <time>2014-10-11T13:40:27Z</time>
      </trkpt>
      <trkpt lat="59.065995" lon="17.875453">
        <ele>65.3</ele>
        <time>2014-10-11T13:40:28Z</time>
      </trkpt>
      <trkpt lat="59.065927" lon="17.875438">
        <ele>65.6</ele>
        <time>2014-10-11T13:40:29Z</time>
      </trkpt>
      <trkpt lat="59.065853" lon="17.875407">
        <ele>65.9</ele>
        <time>2014-10-11T13:40:30Z</time>
      </trkpt>
      <trkpt lat="59.06578" lon="17.875383">
        <ele>66.2</ele>
        <time>2014-10-11T13:40:31Z</time>
      </trkpt>
      <trkpt lat="59.065706" lon="17.875352">
        <ele>66.5</ele>
        <time>2014-10-11T13:40:32Z</time>
      </trkpt>
      <trkpt lat="59.065632" lon="17.875325">
        <ele>66.8</ele>
        <time>2014-10-11T13:40:33Z</time>
      </trkpt>
      <trkpt lat="59.065552" lon="17.8753">
        <ele>67.1</ele>
        <time>2014-10-11T13:40:34Z</time>
      </trkpt>
      <trkpt lat="59.065484" lon="17.875283">
        <ele>67.4</ele>
        <time>2014-10-11T13:40:35Z</time>
      </trkpt>
      <trkpt lat="59.065423" lon="17.875275">
        <ele>67.6</ele>
        <time>2014-10-11T13:40:36Z</time>
      </trkpt>
      <trkpt lat="59.065361" lon="17.875267">
        <ele>67.8</ele>
        <time>2014-10-11T13:40:37Z</time>
      </trkpt>
      <trkpt lat="59.065282" lon="17.875178">
        <ele>67.8</ele>
        <time>2014-10-11T13:40:38Z</time>
      </trkpt>
      <trkpt lat="59.065207" lon="17.875133">
        <ele>67.9</ele>
        <time>2014-10-11T13:40:39Z</time>
      </trkpt>
      <trkpt lat="59.065132" lon="17.875077">
        <ele>68</ele>
        <time>2014-10-11T13:40:40Z</time>
      </trkpt>
      <trkpt lat="59.065077" lon="17.875047">
        <ele>68.1</ele>
        <time>2014-10-11T13:40:41Z</time>
      </trkpt>
      <trkpt lat="59.065022" lon="17.87505">
        <ele>68.3</ele>
        <time>2014-10-11T13:40:42Z</time>
      </trkpt>
      <trkpt lat="59.064967" lon="17.875018">
        <ele>68.4</ele>
        <time>2014-10-11T13:40:43Z</time>
      </trkpt>
      <trkpt lat="59.064902" lon="17.875003">
        <ele>68.5</ele>
        <time>2014-10-11T13:40:44Z</time>
      </trkpt>
      <trkpt lat="59.064842" lon="17.874988">
        <ele>68.7</ele>
        <time>2014-10-11T13:40:45Z</time>
      </trkpt>
      <trkpt lat="59.064774" lon="17.874859">
        <ele>68.7</ele>
        <time>2014-10-11T13:40:46Z</time>
      </trkpt>
      <trkpt lat="59.064704" lon="17.874841">
        <ele>68.9</ele>
        <time>2014-10-11T13:40:47Z</time>
      </trkpt>
      <trkpt lat="59.064626" lon="17.874802">
        <ele>69.1</ele>
        <time>2014-10-11T13:40:48Z</time>
      </trkpt>
      <trkpt lat="59.064556" lon="17.87478">
        <ele>69.2</ele>
        <time>2014-10-11T13:40:49Z</time>
      </trkpt>
      <trkpt lat="59.064484" lon="17.874745">
        <ele>69.1</ele>
        <time>2014-10-11T13:40:50Z</time>
      </trkpt>
      <trkpt lat="59.064415" lon="17.874723">
        <ele>69.1</ele>
        <time>2014-10-11T13:40:51Z</time>
      </trkpt>
      <trkpt lat="59.064358" lon="17.874723">
        <ele>69</ele>
        <time>2014-10-11T13:40:52Z</time>
      </trkpt>
      <trkpt lat="59.064291" lon="17.874719">
        <ele>69</ele>
        <time>2014-10-11T13:40:53Z</time>
      </trkpt>
      <trkpt lat="59.064225" lon="17.874703">
        <ele>69</ele>
        <time>2014-10-11T13:40:54Z</time>
      </trkpt>
      <trkpt lat="59.06417" lon="17.874689">
        <ele>68.9</ele>
        <time>2014-10-11T13:40:55Z</time>
      </trkpt>
      <trkpt lat="59.0641" lon="17.874679">
        <ele>68.9</ele>
        <time>2014-10-11T13:40:56Z</time>
      </trkpt>
      <trkpt lat="59.06404" lon="17.874679">
        <ele>68.9</ele>
        <time>2014-10-11T13:40:57Z</time>
      </trkpt>
      <trkpt lat="59.06399" lon="17.874662">
        <ele>68.9</ele>
        <time>2014-10-11T13:40:58Z</time>
      </trkpt>
      <trkpt lat="59.063934" lon="17.874641">
        <ele>68.9</ele>
        <time>2014-10-11T13:40:59Z</time>
      </trkpt>
      <trkpt lat="59.063873" lon="17.874636">
        <ele>68.9</ele>
        <time>2014-10-11T13:41:00Z</time>
      </trkpt>
      <trkpt lat="59.063818" lon="17.874625">
        <ele>68.9</ele>
        <time>2014-10-11T13:41:01Z</time>
      </trkpt>
      <trkpt lat="59.063767" lon="17.874609">
        <ele>68.9</ele>
        <time>2014-10-11T13:41:02Z</time>
      </trkpt>
      <trkpt lat="59.063708" lon="17.874602">
        <ele>69</ele>
        <time>2014-10-11T13:41:03Z</time>
      </trkpt>
      <trkpt lat="59.063652" lon="17.874596">
        <ele>69</ele>
        <time>2014-10-11T13:41:04Z</time>
      </trkpt>
      <trkpt lat="59.063592" lon="17.874589">
        <ele>69</ele>
        <time>2014-10-11T13:41:05Z</time>
      </trkpt>
      <trkpt lat="59.063539" lon="17.874587">
        <ele>69</ele>
        <time>2014-10-11T13:41:06Z</time>
      </trkpt>
      <trkpt lat="59.063487" lon="17.874554">
        <ele>69.1</ele>
        <time>2014-10-11T13:41:07Z</time>
      </trkpt>
      <trkpt lat="59.063427" lon="17.874523">
        <ele>69.1</ele>
        <time>2014-10-11T13:41:08Z</time>
      </trkpt>
      <trkpt lat="59.063365" lon="17.874504">
        <ele>69.2</ele>
        <time>2014-10-11T13:41:09Z</time>
      </trkpt>
      <trkpt lat="59.063304" lon="17.874485">
        <ele>69.2</ele>
        <time>2014-10-11T13:41:10Z</time>
      </trkpt>
      <trkpt lat="59.063246" lon="17.874462">
        <ele>69.3</ele>
        <time>2014-10-11T13:41:11Z</time>
      </trkpt>
      <trkpt lat="59.063183" lon="17.874421">
        <ele>69.4</ele>
        <time>2014-10-11T13:41:12Z</time>
      </trkpt>
      <trkpt lat="59.063119" lon="17.874394">
        <ele>69.5</ele>
        <time>2014-10-11T13:41:13Z</time>
      </trkpt>
      <trkpt lat="59.06307" lon="17.874377">
        <ele>69.5</ele>
        <time>2014-10-11T13:41:14Z</time>
      </trkpt>
      <trkpt lat="59.063006" lon="17.874362">
        <ele>69.5</ele>
        <time>2014-10-11T13:41:15Z</time>
      </trkpt>
      <trkpt lat="59.062952" lon="17.874323">
        <ele>69.6</ele>
        <time>2014-10-11T13:41:16Z</time>
      </trkpt>
      <trkpt lat="59.062905" lon="17.874307">
        <ele>69.7</ele>
        <time>2014-10-11T13:41:17Z</time>
      </trkpt>
      <trkpt lat="59.062854" lon="17.87426">
        <ele>69.8</ele>
        <time>2014-10-11T13:41:18Z</time>
      </trkpt>
      <trkpt lat="59.062794" lon="17.874217">
        <ele>69.9</ele>
        <time>2014-10-11T13:41:19Z</time>
      </trkpt>
      <trkpt lat="59.062736" lon="17.874181">
        <ele>70</ele>
        <time>2014-10-11T13:41:20Z</time>
      </trkpt>
      <trkpt lat="59.062687" lon="17.874156">
        <ele>70</ele>
        <time>2014-10-11T13:41:21Z</time>
      </trkpt>
      <trkpt lat="59.062632" lon="17.874138">
        <ele>70</ele>
        <time>2014-10-11T13:41:22Z</time>
      </trkpt>
      <trkpt lat="59.062587" lon="17.874114">
        <ele>70.1</ele>
        <time>2014-10-11T13:41:23Z</time>
      </trkpt>
      <trkpt lat="59.062533" lon="17.874086">
        <ele>70.1</ele>
        <time>2014-10-11T13:41:24Z</time>
      </trkpt>
      <trkpt lat="59.062488" lon="17.874081">
        <ele>70.1</ele>
        <time>2014-10-11T13:41:25Z</time>
      </trkpt>
      <trkpt lat="59.062435" lon="17.874025">
        <ele>70.1</ele>
        <time>2014-10-11T13:41:26Z</time>
      </trkpt>
      <trkpt lat="59.062383" lon="17.873988">
        <ele>70.2</ele>
        <time>2014-10-11T13:41:27Z</time>
      </trkpt>
      <trkpt lat="59.06233" lon="17.87395">
        <ele>70.2</ele>
        <time>2014-10-11T13:41:28Z</time>
      </trkpt>
      <trkpt lat="59.062284" lon="17.873919">
        <ele>70.1</ele>
        <time>2014-10-11T13:41:29Z</time>
      </trkpt>
      <trkpt lat="59.06223" lon="17.873882">
        <ele>70.1</ele>
        <time>2014-10-11T13:41:30Z</time>
      </trkpt>
      <trkpt lat="59.062175" lon="17.873842">
        <ele>70.1</ele>
        <time>2014-10-11T13:41:31Z</time>
      </trkpt>
      <trkpt lat="59.062125" lon="17.873809">
        <ele>70</ele>
        <time>2014-10-11T13:41:32Z</time>
      </trkpt>
      <trkpt lat="59.062074" lon="17.873771">
        <ele>70</ele>
        <time>2014-10-11T13:41:33Z</time>
      </trkpt>
      <trkpt lat="59.062022" lon="17.873749">
        <ele>70.3</ele>
        <time>2014-10-11T13:41:34Z</time>
      </trkpt>
      <trkpt lat="59.061975" lon="17.873721">
        <ele>70.6</ele>
        <time>2014-10-11T13:41:35Z</time>
      </trkpt>
      <trkpt lat="59.061929" lon="17.873685">
        <ele>70.9</ele>
        <time>2014-10-11T13:41:36Z</time>
      </trkpt>
      <trkpt lat="59.061872" lon="17.873651">
        <ele>71.2</ele>
        <time>2014-10-11T13:41:37Z</time>
      </trkpt>
      <trkpt lat="59.061826" lon="17.873617">
        <ele>71.5</ele>
        <time>2014-10-11T13:41:38Z</time>
      </trkpt>
      <trkpt lat="59.061776" lon="17.873591">
        <ele>71.8</ele>
        <time>2014-10-11T13:41:39Z</time>
      </trkpt>
      <trkpt lat="59.061724" lon="17.873547">
        <ele>72.1</ele>
        <time>2014-10-11T13:41:40Z</time>
      </trkpt>
      <trkpt lat="59.061665" lon="17.873502">
        <ele>72.5</ele>
        <time>2014-10-11T13:41:41Z</time>
      </trkpt>
      <trkpt lat="59.061613" lon="17.873469">
        <ele>72.7</ele>
        <time>2014-10-11T13:41:42Z</time>
      </trkpt>
      <trkpt lat="59.061556" lon="17.873415">
        <ele>73.1</ele>
        <time>2014-10-11T13:41:43Z</time>
      </trkpt>
      <trkpt lat="59.061502" lon="17.873383">
        <ele>73.4</ele>
        <time>2014-10-11T13:41:44Z</time>
      </trkpt>
      <trkpt lat="59.061444" lon="17.873332">
        <ele>73.7</ele>
        <time>2014-10-11T13:41:45Z</time>
      </trkpt>
      <trkpt lat="59.061383" lon="17.873292">
        <ele>74</ele>
        <time>2014-10-11T13:41:46Z</time>
      </trkpt>
      <trkpt lat="59.061322" lon="17.873264">
        <ele>74.3</ele>
        <time>2014-10-11T13:41:47Z</time>
      </trkpt>
      <trkpt lat="59.061265" lon="17.873212">
        <ele>74.6</ele>
        <time>2014-10-11T13:41:48Z</time>
      </trkpt>
      <trkpt lat="59.061207" lon="17.873176">
        <ele>74.9</ele>
        <time>2014-10-11T13:41:49Z</time>
      </trkpt>
      <trkpt lat="59.061154" lon="17.873132">
        <ele>75.3</ele>
        <time>2014-10-11T13:41:50Z</time>
      </trkpt>
      <trkpt lat="59.061097" lon="17.873078">
        <ele>75.6</ele>
        <time>2014-10-11T13:41:51Z</time>
      </trkpt>
      <trkpt lat="59.061038" lon="17.87302">
        <ele>76</ele>
        <time>2014-10-11T13:41:52Z</time>
      </trkpt>
      <trkpt lat="59.060979" lon="17.872961">
        <ele>76.3</ele>
        <time>2014-10-11T13:41:53Z</time>
      </trkpt>
      <trkpt lat="59.06092" lon="17.872899">
        <ele>76.6</ele>
        <time>2014-10-11T13:41:54Z</time>
      </trkpt>
      <trkpt lat="59.060862" lon="17.872836">
        <ele>76.9</ele>
        <time>2014-10-11T13:41:55Z</time>
      </trkpt>
      <trkpt lat="59.060804" lon="17.872784">
        <ele>77.1</ele>
        <time>2014-10-11T13:41:56Z</time>
      </trkpt>
      <trkpt lat="59.060754" lon="17.872721">
        <ele>77.4</ele>
        <time>2014-10-11T13:41:57Z</time>
      </trkpt>
      <trkpt lat="59.060696" lon="17.872656">
        <ele>77.7</ele>
        <time>2014-10-11T13:41:58Z</time>
      </trkpt>
      <trkpt lat="59.06064" lon="17.872589">
        <ele>77.9</ele>
        <time>2014-10-11T13:41:59Z</time>
      </trkpt>
      <trkpt lat="59.060581" lon="17.872525">
        <ele>78.2</ele>
        <time>2014-10-11T13:42:00Z</time>
      </trkpt>
      <trkpt lat="59.060522" lon="17.872461">
        <ele>78.5</ele>
        <time>2014-10-11T13:42:01Z</time>
      </trkpt>
      <trkpt lat="59.060477" lon="17.872442">
        <ele>78.7</ele>
        <time>2014-10-11T13:42:02Z</time>
      </trkpt>
      <trkpt lat="59.060427" lon="17.872409">
        <ele>79</ele>
        <time>2014-10-11T13:42:03Z</time>
      </trkpt>
      <trkpt lat="59.060359" lon="17.872351">
        <ele>78.8</ele>
        <time>2014-10-11T13:42:04Z</time>
      </trkpt>
      <trkpt lat="59.0603" lon="17.872309">
        <ele>78.6</ele>
        <time>2014-10-11T13:42:05Z</time>
      </trkpt>
      <trkpt lat="59.060232" lon="17.872258">
        <ele>78.3</ele>
        <time>2014-10-11T13:42:06Z</time>
      </trkpt>
      <trkpt lat="59.060162" lon="17.872218">
        <ele>77.9</ele>
        <time>2014-10-11T13:42:07Z</time>
      </trkpt>
      <trkpt lat="59.060103" lon="17.872163">
        <ele>77.6</ele>
        <time>2014-10-11T13:42:08Z</time>
      </trkpt>
      <trkpt lat="59.060037" lon="17.872108">
        <ele>77.2</ele>
        <time>2014-10-11T13:42:09Z</time>
      </trkpt>
      <trkpt lat="59.059974" lon="17.872068">
        <ele>76.9</ele>
        <time>2014-10-11T13:42:10Z</time>
      </trkpt>
      <trkpt lat="59.05991" lon="17.87201">
        <ele>76.6</ele>
        <time>2014-10-11T13:42:11Z</time>
      </trkpt>
      <trkpt lat="59.059847" lon="17.871966">
        <ele>76.3</ele>
        <time>2014-10-11T13:42:12Z</time>
      </trkpt>
      <trkpt lat="59.059784" lon="17.871902">
        <ele>76.1</ele>
        <time>2014-10-11T13:42:13Z</time>
      </trkpt>
      <trkpt lat="59.05972" lon="17.871839">
        <ele>75.9</ele>
        <time>2014-10-11T13:42:14Z</time>
      </trkpt>
      <trkpt lat="59.059668" lon="17.871775">
        <ele>75.7</ele>
        <time>2014-10-11T13:42:15Z</time>
      </trkpt>
      <trkpt lat="59.059607" lon="17.871714">
        <ele>75.5</ele>
        <time>2014-10-11T13:42:16Z</time>
      </trkpt>
      <trkpt lat="59.05954" lon="17.871641">
        <ele>75.6</ele>
        <time>2014-10-11T13:42:17Z</time>
      </trkpt>
      <trkpt lat="59.059467" lon="17.871563">
        <ele>75.7</ele>
        <time>2014-10-11T13:42:18Z</time>
      </trkpt>
      <trkpt lat="59.059404" lon="17.871505">
        <ele>75.8</ele>
        <time>2014-10-11T13:42:19Z</time>
      </trkpt>
      <trkpt lat="59.059348" lon="17.871436">
        <ele>75.9</ele>
        <time>2014-10-11T13:42:20Z</time>
      </trkpt>
      <trkpt lat="59.059291" lon="17.87138">
        <ele>76</ele>
        <time>2014-10-11T13:42:21Z</time>
      </trkpt>
      <trkpt lat="59.059231" lon="17.871314">
        <ele>76</ele>
        <time>2014-10-11T13:42:22Z</time>
      </trkpt>
      <trkpt lat="59.05917" lon="17.871309">
        <ele>76</ele>
        <time>2014-10-11T13:42:23Z</time>
      </trkpt>
      <trkpt lat="59.059099" lon="17.871241">
        <ele>76</ele>
        <time>2014-10-11T13:42:24Z</time>
      </trkpt>
      <trkpt lat="59.059034" lon="17.871184">
        <ele>76</ele>
        <time>2014-10-11T13:42:25Z</time>
      </trkpt>
      <trkpt lat="59.058967" lon="17.871132">
        <ele>76</ele>
        <time>2014-10-11T13:42:26Z</time>
      </trkpt>
      <trkpt lat="59.058895" lon="17.871106">
        <ele>76</ele>
        <time>2014-10-11T13:42:27Z</time>
      </trkpt>
      <trkpt lat="59.058816" lon="17.871059">
        <ele>76</ele>
        <time>2014-10-11T13:42:28Z</time>
      </trkpt>
      <trkpt lat="59.058727" lon="17.871018">
        <ele>76</ele>
        <time>2014-10-11T13:42:29Z</time>
      </trkpt>
      <trkpt lat="59.058659" lon="17.871012">
        <ele>76</ele>
        <time>2014-10-11T13:42:30Z</time>
      </trkpt>
      <trkpt lat="59.058581" lon="17.870983">
        <ele>76</ele>
        <time>2014-10-11T13:42:31Z</time>
      </trkpt>
      <trkpt lat="59.058501" lon="17.870941">
        <ele>76</ele>
        <time>2014-10-11T13:42:32Z</time>
      </trkpt>
      <trkpt lat="59.058428" lon="17.870903">
        <ele>76</ele>
        <time>2014-10-11T13:42:33Z</time>
      </trkpt>
      <trkpt lat="59.058355" lon="17.870879">
        <ele>76</ele>
        <time>2014-10-11T13:42:34Z</time>
      </trkpt>
      <trkpt lat="59.058277" lon="17.870847">
        <ele>76</ele>
        <time>2014-10-11T13:42:35Z</time>
      </trkpt>
      <trkpt lat="59.058196" lon="17.870829">
        <ele>76</ele>
        <time>2014-10-11T13:42:36Z</time>
      </trkpt>
      <trkpt lat="59.058128" lon="17.870809">
        <ele>76</ele>
        <time>2014-10-11T13:42:37Z</time>
      </trkpt>
      <trkpt lat="59.058042" lon="17.870782">
        <ele>76</ele>
        <time>2014-10-11T13:42:38Z</time>
      </trkpt>
      <trkpt lat="59.057976" lon="17.870804">
        <ele>76</ele>
        <time>2014-10-11T13:42:39Z</time>
      </trkpt>
      <trkpt lat="59.057899" lon="17.870802">
        <ele>75.9</ele>
        <time>2014-10-11T13:42:40Z</time>
      </trkpt>
      <trkpt lat="59.057822" lon="17.870793">
        <ele>75.5</ele>
        <time>2014-10-11T13:42:41Z</time>
      </trkpt>
      <trkpt lat="59.057739" lon="17.870821">
        <ele>75.1</ele>
        <time>2014-10-11T13:42:42Z</time>
      </trkpt>
      <trkpt lat="59.057661" lon="17.870833">
        <ele>74.8</ele>
        <time>2014-10-11T13:42:43Z</time>
      </trkpt>
      <trkpt lat="59.057578" lon="17.870856">
        <ele>74.4</ele>
        <time>2014-10-11T13:42:44Z</time>
      </trkpt>
      <trkpt lat="59.057486" lon="17.870895">
        <ele>73.9</ele>
        <time>2014-10-11T13:42:45Z</time>
      </trkpt>
      <trkpt lat="59.0574" lon="17.87092">
        <ele>73.5</ele>
        <time>2014-10-11T13:42:46Z</time>
      </trkpt>
      <trkpt lat="59.057327" lon="17.870944">
        <ele>73.2</ele>
        <time>2014-10-11T13:42:47Z</time>
      </trkpt>
      <trkpt lat="59.057237" lon="17.870971">
        <ele>72.7</ele>
        <time>2014-10-11T13:42:48Z</time>
      </trkpt>
      <trkpt lat="59.057156" lon="17.870991">
        <ele>72.3</ele>
        <time>2014-10-11T13:42:49Z</time>
      </trkpt>
      <trkpt lat="59.05707" lon="17.871017">
        <ele>72</ele>
        <time>2014-10-11T13:42:50Z</time>
      </trkpt>
      <trkpt lat="59.056979" lon="17.871033">
        <ele>71.6</ele>
        <time>2014-10-11T13:42:51Z</time>
      </trkpt>
      <trkpt lat="59.056886" lon="17.871034">
        <ele>71.3</ele>
        <time>2014-10-11T13:42:52Z</time>
      </trkpt>
      <trkpt lat="59.056805" lon="17.871031">
        <ele>71</ele>
        <time>2014-10-11T13:42:53Z</time>
      </trkpt>
      <trkpt lat="59.056723" lon="17.871017">
        <ele>70.7</ele>
        <time>2014-10-11T13:42:54Z</time>
      </trkpt>
      <trkpt lat="59.056637" lon="17.871015">
        <ele>70.4</ele>
        <time>2014-10-11T13:42:55Z</time>
      </trkpt>
      <trkpt lat="59.056039" lon="17.871001">
        <ele>66.6</ele>
        <time>2014-10-11T13:43:02Z</time>
      </trkpt>
      <trkpt lat="59.055967" lon="17.870978">
        <ele>65.8</ele>
        <time>2014-10-11T13:43:03Z</time>
      </trkpt>
      <trkpt lat="59.055871" lon="17.871005">
        <ele>64.8</ele>
        <time>2014-10-11T13:43:04Z</time>
      </trkpt>
      <trkpt lat="59.055777" lon="17.871066">
        <ele>63.8</ele>
        <time>2014-10-11T13:43:05Z</time>
      </trkpt>
      <trkpt lat="59.055691" lon="17.8711">
        <ele>62.8</ele>
        <time>2014-10-11T13:43:06Z</time>
      </trkpt>
      <trkpt lat="59.055588" lon="17.871112">
        <ele>61.7</ele>
        <time>2014-10-11T13:43:07Z</time>
      </trkpt>
      <trkpt lat="59.055509" lon="17.871151">
        <ele>60.9</ele>
        <time>2014-10-11T13:43:08Z</time>
      </trkpt>
      <trkpt lat="59.055421" lon="17.871156">
        <ele>59.9</ele>
        <time>2014-10-11T13:43:09Z</time>
      </trkpt>
      <trkpt lat="59.055335" lon="17.871148">
        <ele>59.2</ele>
        <time>2014-10-11T13:43:10Z</time>
      </trkpt>
      <trkpt lat="59.055244" lon="17.871128">
        <ele>58.4</ele>
        <time>2014-10-11T13:43:11Z</time>
      </trkpt>
      <trkpt lat="59.055159" lon="17.87112">
        <ele>57.7</ele>
        <time>2014-10-11T13:43:12Z</time>
      </trkpt>
      <trkpt lat="59.055071" lon="17.871117">
        <ele>57</ele>
        <time>2014-10-11T13:43:13Z</time>
      </trkpt>
      <trkpt lat="59.054971" lon="17.871118">
        <ele>56.2</ele>
        <time>2014-10-11T13:43:14Z</time>
      </trkpt>
      <trkpt lat="59.054879" lon="17.871158">
        <ele>55.4</ele>
        <time>2014-10-11T13:43:15Z</time>
      </trkpt>
      <trkpt lat="59.054787" lon="17.871211">
        <ele>54.7</ele>
        <time>2014-10-11T13:43:16Z</time>
      </trkpt>
      <trkpt lat="59.054698" lon="17.871271">
        <ele>54</ele>
        <time>2014-10-11T13:43:17Z</time>
      </trkpt>
      <trkpt lat="59.054599" lon="17.871299">
        <ele>53.2</ele>
        <time>2014-10-11T13:43:18Z</time>
      </trkpt>
      <trkpt lat="59.054514" lon="17.871301">
        <ele>53.2</ele>
        <time>2014-10-11T13:43:19Z</time>
      </trkpt>
      <trkpt lat="59.054423" lon="17.871323">
        <ele>53.5</ele>
        <time>2014-10-11T13:43:20Z</time>
      </trkpt>
      <trkpt lat="59.054328" lon="17.871317">
        <ele>53.7</ele>
        <time>2014-10-11T13:43:21Z</time>
      </trkpt>
      <trkpt lat="59.054237" lon="17.871338">
        <ele>53.9</ele>
        <time>2014-10-11T13:43:22Z</time>
      </trkpt>
      <trkpt lat="59.054146" lon="17.871331">
        <ele>54.1</ele>
        <time>2014-10-11T13:43:23Z</time>
      </trkpt>
      <trkpt lat="59.054045" lon="17.871316">
        <ele>54.4</ele>
        <time>2014-10-11T13:43:24Z</time>
      </trkpt>
      <trkpt lat="59.053955" lon="17.871289">
        <ele>54.6</ele>
        <time>2014-10-11T13:43:25Z</time>
      </trkpt>
      <trkpt lat="59.05387" lon="17.871253">
        <ele>54.7</ele>
        <time>2014-10-11T13:43:26Z</time>
      </trkpt>
      <trkpt lat="59.053781" lon="17.871186">
        <ele>54.9</ele>
        <time>2014-10-11T13:43:27Z</time>
      </trkpt>
      <trkpt lat="59.053716" lon="17.871063">
        <ele>55.1</ele>
        <time>2014-10-11T13:43:28Z</time>
      </trkpt>
      <trkpt lat="59.053684" lon="17.870911">
        <ele>55.2</ele>
        <time>2014-10-11T13:43:29Z</time>
      </trkpt>
      <trkpt lat="59.053663" lon="17.870745">
        <ele>55.2</ele>
        <time>2014-10-11T13:43:30Z</time>
      </trkpt>
      <trkpt lat="59.053652" lon="17.870578">
        <ele>55.3</ele>
        <time>2014-10-11T13:43:31Z</time>
      </trkpt>
      <trkpt lat="59.053641" lon="17.870425">
        <ele>55.3</ele>
        <time>2014-10-11T13:43:32Z</time>
      </trkpt>
      <trkpt lat="59.053619" lon="17.87027">
        <ele>55.1</ele>
        <time>2014-10-11T13:43:33Z</time>
      </trkpt>
      <trkpt lat="59.053607" lon="17.870115">
        <ele>55</ele>
        <time>2014-10-11T13:43:34Z</time>
      </trkpt>
      <trkpt lat="59.053592" lon="17.869964">
        <ele>54.8</ele>
        <time>2014-10-11T13:43:35Z</time>
      </trkpt>
      <trkpt lat="59.053596" lon="17.869821">
        <ele>54.7</ele>
        <time>2014-10-11T13:43:36Z</time>
      </trkpt>
      <trkpt lat="59.053591" lon="17.869683">
        <ele>54.5</ele>
        <time>2014-10-11T13:43:37Z</time>
      </trkpt>
      <trkpt lat="59.053581" lon="17.869541">
        <ele>54.4</ele>
        <time>2014-10-11T13:43:38Z</time>
      </trkpt>
      <trkpt lat="59.053574" lon="17.869408">
        <ele>54.4</ele>
        <time>2014-10-11T13:43:39Z</time>
      </trkpt>
      <trkpt lat="59.053563" lon="17.869258">
        <ele>54.4</ele>
        <time>2014-10-11T13:43:40Z</time>
      </trkpt>
      <trkpt lat="59.053555" lon="17.869117">
        <ele>54.5</ele>
        <time>2014-10-11T13:43:41Z</time>
      </trkpt>
      <trkpt lat="59.053543" lon="17.868969">
        <ele>54.5</ele>
        <time>2014-10-11T13:43:42Z</time>
      </trkpt>
      <trkpt lat="59.053532" lon="17.868825">
        <ele>54.5</ele>
        <time>2014-10-11T13:43:43Z</time>
      </trkpt>
      <trkpt lat="59.053526" lon="17.86869">
        <ele>54.4</ele>
        <time>2014-10-11T13:43:44Z</time>
      </trkpt>
      <trkpt lat="59.053522" lon="17.86855">
        <ele>54.2</ele>
        <time>2014-10-11T13:43:45Z</time>
      </trkpt>
      <trkpt lat="59.053513" lon="17.868413">
        <ele>54</ele>
        <time>2014-10-11T13:43:46Z</time>
      </trkpt>
      <trkpt lat="59.05351" lon="17.868274">
        <ele>53.8</ele>
        <time>2014-10-11T13:43:47Z</time>
      </trkpt>
      <trkpt lat="59.053519" lon="17.868146">
        <ele>53.6</ele>
        <time>2014-10-11T13:43:48Z</time>
      </trkpt>
      <trkpt lat="59.053533" lon="17.867992">
        <ele>53.4</ele>
        <time>2014-10-11T13:43:49Z</time>
      </trkpt>
      <trkpt lat="59.053548" lon="17.867855">
        <ele>53.2</ele>
        <time>2014-10-11T13:43:50Z</time>
      </trkpt>
      <trkpt lat="59.053572" lon="17.86771">
        <ele>53</ele>
        <time>2014-10-11T13:43:51Z</time>
      </trkpt>
      <trkpt lat="59.053591" lon="17.867579">
        <ele>52.8</ele>
        <time>2014-10-11T13:43:52Z</time>
      </trkpt>
      <trkpt lat="59.053619" lon="17.867455">
        <ele>52.6</ele>
        <time>2014-10-11T13:43:53Z</time>
      </trkpt>
      <trkpt lat="59.053652" lon="17.867335">
        <ele>52.4</ele>
        <time>2014-10-11T13:43:54Z</time>
      </trkpt>
      <trkpt lat="59.053687" lon="17.867204">
        <ele>52.2</ele>
        <time>2014-10-11T13:43:55Z</time>
      </trkpt>
      <trkpt lat="59.053734" lon="17.867065">
        <ele>52.1</ele>
        <time>2014-10-11T13:43:56Z</time>
      </trkpt>
      <trkpt lat="59.053768" lon="17.866936">
        <ele>52.5</ele>
        <time>2014-10-11T13:43:57Z</time>
      </trkpt>
      <trkpt lat="59.053802" lon="17.8668">
        <ele>53</ele>
        <time>2014-10-11T13:43:58Z</time>
      </trkpt>
      <trkpt lat="59.053824" lon="17.866641">
        <ele>53.5</ele>
        <time>2014-10-11T13:43:59Z</time>
      </trkpt>
      <trkpt lat="59.053838" lon="17.866477">
        <ele>54</ele>
        <time>2014-10-11T13:44:00Z</time>
      </trkpt>
      <trkpt lat="59.053843" lon="17.866322">
        <ele>54.4</ele>
        <time>2014-10-11T13:44:01Z</time>
      </trkpt>
      <trkpt lat="59.05384" lon="17.86617">
        <ele>54.6</ele>
        <time>2014-10-11T13:44:02Z</time>
      </trkpt>
      <trkpt lat="59.05382" lon="17.866005">
        <ele>54.7</ele>
        <time>2014-10-11T13:44:03Z</time>
      </trkpt>
      <trkpt lat="59.053805" lon="17.865857">
        <ele>54.8</ele>
        <time>2014-10-11T13:44:04Z</time>
      </trkpt>
      <trkpt lat="59.053789" lon="17.865722">
        <ele>54.9</ele>
        <time>2014-10-11T13:44:05Z</time>
      </trkpt>
      <trkpt lat="59.053792" lon="17.865572">
        <ele>55.1</ele>
        <time>2014-10-11T13:44:06Z</time>
      </trkpt>
      <trkpt lat="59.053774" lon="17.86543">
        <ele>55.2</ele>
        <time>2014-10-11T13:44:07Z</time>
      </trkpt>
      <trkpt lat="59.053764" lon="17.865272">
        <ele>55.4</ele>
        <time>2014-10-11T13:44:08Z</time>
      </trkpt>
      <trkpt lat="59.053746" lon="17.865119">
        <ele>55.7</ele>
        <time>2014-10-11T13:44:09Z</time>
      </trkpt>
      <trkpt lat="59.053718" lon="17.864997">
        <ele>55.8</ele>
        <time>2014-10-11T13:44:10Z</time>
      </trkpt>
      <trkpt lat="59.053697" lon="17.864862">
        <ele>55.9</ele>
        <time>2014-10-11T13:44:11Z</time>
      </trkpt>
      <trkpt lat="59.053638" lon="17.864705">
        <ele>55.7</ele>
        <time>2014-10-11T13:44:12Z</time>
      </trkpt>
      <trkpt lat="59.0536" lon="17.864559">
        <ele>55.6</ele>
        <time>2014-10-11T13:44:13Z</time>
      </trkpt>
      <trkpt lat="59.053557" lon="17.864438">
        <ele>55.3</ele>
        <time>2014-10-11T13:44:14Z</time>
      </trkpt>
      <trkpt lat="59.053508" lon="17.864303">
        <ele>54.9</ele>
        <time>2014-10-11T13:44:15Z</time>
      </trkpt>
      <trkpt lat="59.053462" lon="17.864168">
        <ele>54.6</ele>
        <time>2014-10-11T13:44:16Z</time>
      </trkpt>
      <trkpt lat="59.053425" lon="17.864022">
        <ele>54.3</ele>
        <time>2014-10-11T13:44:17Z</time>
      </trkpt>
      <trkpt lat="59.053371" lon="17.863879">
        <ele>53.8</ele>
        <time>2014-10-11T13:44:18Z</time>
      </trkpt>
      <trkpt lat="59.053317" lon="17.863752">
        <ele>53.3</ele>
        <time>2014-10-11T13:44:19Z</time>
      </trkpt>
      <trkpt lat="59.053262" lon="17.863637">
        <ele>53.2</ele>
        <time>2014-10-11T13:44:20Z</time>
      </trkpt>
      <trkpt lat="59.053208" lon="17.86352">
        <ele>53.1</ele>
        <time>2014-10-11T13:44:21Z</time>
      </trkpt>
      <trkpt lat="59.053138" lon="17.863365">
        <ele>53</ele>
        <time>2014-10-11T13:44:22Z</time>
      </trkpt>
      <trkpt lat="59.053091" lon="17.863257">
        <ele>53</ele>
        <time>2014-10-11T13:44:23Z</time>
      </trkpt>
      <trkpt lat="59.053037" lon="17.863128">
        <ele>53.1</ele>
        <time>2014-10-11T13:44:24Z</time>
      </trkpt>
      <trkpt lat="59.052975" lon="17.862976">
        <ele>53.2</ele>
        <time>2014-10-11T13:44:25Z</time>
      </trkpt>
      <trkpt lat="59.052922" lon="17.862849">
        <ele>53.3</ele>
        <time>2014-10-11T13:44:26Z</time>
      </trkpt>
      <trkpt lat="59.052869" lon="17.862705">
        <ele>54</ele>
        <time>2014-10-11T13:44:27Z</time>
      </trkpt>
      <trkpt lat="59.052822" lon="17.862562">
        <ele>54.6</ele>
        <time>2014-10-11T13:44:28Z</time>
      </trkpt>
      <trkpt lat="59.052777" lon="17.862442">
        <ele>55.2</ele>
        <time>2014-10-11T13:44:29Z</time>
      </trkpt>
      <trkpt lat="59.052732" lon="17.862315">
        <ele>55.7</ele>
        <time>2014-10-11T13:44:30Z</time>
      </trkpt>
      <trkpt lat="59.052699" lon="17.862204">
        <ele>56.2</ele>
        <time>2014-10-11T13:44:31Z</time>
      </trkpt>
      <trkpt lat="59.052658" lon="17.862084">
        <ele>56.6</ele>
        <time>2014-10-11T13:44:32Z</time>
      </trkpt>
      <trkpt lat="59.052619" lon="17.861959">
        <ele>57</ele>
        <time>2014-10-11T13:44:33Z</time>
      </trkpt>
      <trkpt lat="59.052571" lon="17.86183">
        <ele>57.3</ele>
        <time>2014-10-11T13:44:34Z</time>
      </trkpt>
      <trkpt lat="59.052544" lon="17.861716">
        <ele>57.6</ele>
        <time>2014-10-11T13:44:35Z</time>
      </trkpt>
      <trkpt lat="59.052506" lon="17.861606">
        <ele>57.8</ele>
        <time>2014-10-11T13:44:36Z</time>
      </trkpt>
      <trkpt lat="59.052475" lon="17.861498">
        <ele>58.1</ele>
        <time>2014-10-11T13:44:37Z</time>
      </trkpt>
      <trkpt lat="59.052431" lon="17.861371">
        <ele>58.4</ele>
        <time>2014-10-11T13:44:38Z</time>
      </trkpt>
      <trkpt lat="59.052396" lon="17.861254">
        <ele>58.6</ele>
        <time>2014-10-11T13:44:39Z</time>
      </trkpt>
      <trkpt lat="59.052345" lon="17.861126">
        <ele>58.8</ele>
        <time>2014-10-11T13:44:40Z</time>
      </trkpt>
      <trkpt lat="59.052305" lon="17.860997">
        <ele>59</ele>
        <time>2014-10-11T13:44:41Z</time>
      </trkpt>
      <trkpt lat="59.052292" lon="17.860874">
        <ele>59.2</ele>
        <time>2014-10-11T13:44:42Z</time>
      </trkpt>
      <trkpt lat="59.052254" lon="17.860755">
        <ele>59.4</ele>
        <time>2014-10-11T13:44:43Z</time>
      </trkpt>
      <trkpt lat="59.052217" lon="17.860633">
        <ele>59.6</ele>
        <time>2014-10-11T13:44:44Z</time>
      </trkpt>
      <trkpt lat="59.0522" lon="17.860513">
        <ele>59.7</ele>
        <time>2014-10-11T13:44:45Z</time>
      </trkpt>
      <trkpt lat="59.052173" lon="17.860397">
        <ele>59.8</ele>
        <time>2014-10-11T13:44:46Z</time>
      </trkpt>
      <trkpt lat="59.052146" lon="17.860291">
        <ele>59.6</ele>
        <time>2014-10-11T13:44:47Z</time>
      </trkpt>
      <trkpt lat="59.052113" lon="17.860152">
        <ele>59.3</ele>
        <time>2014-10-11T13:44:48Z</time>
      </trkpt>
      <trkpt lat="59.052091" lon="17.860019">
        <ele>59</ele>
        <time>2014-10-11T13:44:49Z</time>
      </trkpt>
      <trkpt lat="59.052081" lon="17.859895">
        <ele>58.8</ele>
        <time>2014-10-11T13:44:50Z</time>
      </trkpt>
      <trkpt lat="59.052069" lon="17.859765">
        <ele>58.5</ele>
        <time>2014-10-11T13:44:51Z</time>
      </trkpt>
      <trkpt lat="59.052053" lon="17.859623">
        <ele>58.3</ele>
        <time>2014-10-11T13:44:52Z</time>
      </trkpt>
      <trkpt lat="59.052043" lon="17.859454">
        <ele>58.1</ele>
        <time>2014-10-11T13:44:53Z</time>
      </trkpt>
      <trkpt lat="59.052035" lon="17.859289">
        <ele>58</ele>
        <time>2014-10-11T13:44:54Z</time>
      </trkpt>
      <trkpt lat="59.051996" lon="17.859124">
        <ele>58.1</ele>
        <time>2014-10-11T13:44:55Z</time>
      </trkpt>
      <trkpt lat="59.051977" lon="17.858969">
        <ele>58.1</ele>
        <time>2014-10-11T13:44:56Z</time>
      </trkpt>
      <trkpt lat="59.051964" lon="17.858803">
        <ele>58</ele>
        <time>2014-10-11T13:44:57Z</time>
      </trkpt>
      <trkpt lat="59.051945" lon="17.858652">
        <ele>58.4</ele>
        <time>2014-10-11T13:44:58Z</time>
      </trkpt>
      <trkpt lat="59.05192" lon="17.858498">
        <ele>58.9</ele>
        <time>2014-10-11T13:44:59Z</time>
      </trkpt>
      <trkpt lat="59.051902" lon="17.85834">
        <ele>59.3</ele>
        <time>2014-10-11T13:45:00Z</time>
      </trkpt>
      <trkpt lat="59.051882" lon="17.858205">
        <ele>59.7</ele>
        <time>2014-10-11T13:45:01Z</time>
      </trkpt>
      <trkpt lat="59.051857" lon="17.858056">
        <ele>60.1</ele>
        <time>2014-10-11T13:45:02Z</time>
      </trkpt>
      <trkpt lat="59.051835" lon="17.857918">
        <ele>60.5</ele>
        <time>2014-10-11T13:45:03Z</time>
      </trkpt>
      <trkpt lat="59.051792" lon="17.857786">
        <ele>60.8</ele>
        <time>2014-10-11T13:45:04Z</time>
      </trkpt>
      <trkpt lat="59.051745" lon="17.857668">
        <ele>61.2</ele>
        <time>2014-10-11T13:45:05Z</time>
      </trkpt>
      <trkpt lat="59.051681" lon="17.857559">
        <ele>61.6</ele>
        <time>2014-10-11T13:45:06Z</time>
      </trkpt>
      <trkpt lat="59.051619" lon="17.857474">
        <ele>62</ele>
        <time>2014-10-11T13:45:07Z</time>
      </trkpt>
      <trkpt lat="59.051559" lon="17.857411">
        <ele>62.4</ele>
        <time>2014-10-11T13:45:08Z</time>
      </trkpt>
      <trkpt lat="59.051489" lon="17.857353">
        <ele>62.8</ele>
        <time>2014-10-11T13:45:09Z</time>
      </trkpt>
      <trkpt lat="59.051434" lon="17.857297">
        <ele>63.1</ele>
        <time>2014-10-11T13:45:10Z</time>
      </trkpt>
      <trkpt lat="59.051383" lon="17.85724">
        <ele>63.3</ele>
        <time>2014-10-11T13:45:11Z</time>
      </trkpt>
      <trkpt lat="59.051325" lon="17.857188">
        <ele>63.6</ele>
        <time>2014-10-11T13:45:12Z</time>
      </trkpt>
      <trkpt lat="59.051274" lon="17.857154">
        <ele>63.9</ele>
        <time>2014-10-11T13:45:13Z</time>
      </trkpt>
      <trkpt lat="59.051219" lon="17.857101">
        <ele>64</ele>
        <time>2014-10-11T13:45:14Z</time>
      </trkpt>
      <trkpt lat="59.051166" lon="17.857054">
        <ele>64</ele>
        <time>2014-10-11T13:45:15Z</time>
      </trkpt>
      <trkpt lat="59.051115" lon="17.857001">
        <ele>64.1</ele>
        <time>2014-10-11T13:45:16Z</time>
      </trkpt>
      <trkpt lat="59.051071" lon="17.856918">
        <ele>64.3</ele>
        <time>2014-10-11T13:45:17Z</time>
      </trkpt>
      <trkpt lat="59.051023" lon="17.856848">
        <ele>64.4</ele>
        <time>2014-10-11T13:45:18Z</time>
      </trkpt>
      <trkpt lat="59.050975" lon="17.856784">
        <ele>64.5</ele>
        <time>2014-10-11T13:45:19Z</time>
      </trkpt>
      <trkpt lat="59.050928" lon="17.856702">
        <ele>64.6</ele>
        <time>2014-10-11T13:45:20Z</time>
      </trkpt>
      <trkpt lat="59.050876" lon="17.85662">
        <ele>64.7</ele>
        <time>2014-10-11T13:45:21Z</time>
      </trkpt>
      <trkpt lat="59.05083" lon="17.856544">
        <ele>64.8</ele>
        <time>2014-10-11T13:45:22Z</time>
      </trkpt>
      <trkpt lat="59.050786" lon="17.856468">
        <ele>64.8</ele>
        <time>2014-10-11T13:45:23Z</time>
      </trkpt>
      <trkpt lat="59.050745" lon="17.856403">
        <ele>64.9</ele>
        <time>2014-10-11T13:45:24Z</time>
      </trkpt>
      <trkpt lat="59.050696" lon="17.856329">
        <ele>64.8</ele>
        <time>2014-10-11T13:45:25Z</time>
      </trkpt>
      <trkpt lat="59.050645" lon="17.856253">
        <ele>64.8</ele>
        <time>2014-10-11T13:45:26Z</time>
      </trkpt>
      <trkpt lat="59.050601" lon="17.856172">
        <ele>64.8</ele>
        <time>2014-10-11T13:45:27Z</time>
      </trkpt>
      <trkpt lat="59.050551" lon="17.856094">
        <ele>64.7</ele>
        <time>2014-10-11T13:45:28Z</time>
      </trkpt>
      <trkpt lat="59.0505" lon="17.856008">
        <ele>64.6</ele>
        <time>2014-10-11T13:45:29Z</time>
      </trkpt>
      <trkpt lat="59.050464" lon="17.855938">
        <ele>64.6</ele>
        <time>2014-10-11T13:45:30Z</time>
      </trkpt>
      <trkpt lat="59.050414" lon="17.855849">
        <ele>64.5</ele>
        <time>2014-10-11T13:45:31Z</time>
      </trkpt>
      <trkpt lat="59.050372" lon="17.855747">
        <ele>64.3</ele>
        <time>2014-10-11T13:45:32Z</time>
      </trkpt>
      <trkpt lat="59.050335" lon="17.855656">
        <ele>64.2</ele>
        <time>2014-10-11T13:45:33Z</time>
      </trkpt>
      <trkpt lat="59.050316" lon="17.85554">
        <ele>64.2</ele>
        <time>2014-10-11T13:45:34Z</time>
      </trkpt>
      <trkpt lat="59.050318" lon="17.855425">
        <ele>64.4</ele>
        <time>2014-10-11T13:45:35Z</time>
      </trkpt>
      <trkpt lat="59.05033" lon="17.85532">
        <ele>64.7</ele>
        <time>2014-10-11T13:45:36Z</time>
      </trkpt>
      <trkpt lat="59.050344" lon="17.855178">
        <ele>65.1</ele>
        <time>2014-10-11T13:45:37Z</time>
      </trkpt>
      <trkpt lat="59.050348" lon="17.855077">
        <ele>65.4</ele>
        <time>2014-10-11T13:45:38Z</time>
      </trkpt>
      <trkpt lat="59.050344" lon="17.854959">
        <ele>65.7</ele>
        <time>2014-10-11T13:45:39Z</time>
      </trkpt>
      <trkpt lat="59.050339" lon="17.854832">
        <ele>65.9</ele>
        <time>2014-10-11T13:45:40Z</time>
      </trkpt>
      <trkpt lat="59.050321" lon="17.854696">
        <ele>66.2</ele>
        <time>2014-10-11T13:45:41Z</time>
      </trkpt>
      <trkpt lat="59.050303" lon="17.854582">
        <ele>66.3</ele>
        <time>2014-10-11T13:45:42Z</time>
      </trkpt>
      <trkpt lat="59.050287" lon="17.85447">
        <ele>66.4</ele>
        <time>2014-10-11T13:45:43Z</time>
      </trkpt>
      <trkpt lat="59.050266" lon="17.854351">
        <ele>66.4</ele>
        <time>2014-10-11T13:45:44Z</time>
      </trkpt>
      <trkpt lat="59.050237" lon="17.854245">
        <ele>66.4</ele>
        <time>2014-10-11T13:45:45Z</time>
      </trkpt>
      <trkpt lat="59.050208" lon="17.854175">
        <ele>66.4</ele>
        <time>2014-10-11T13:45:46Z</time>
      </trkpt>
      <trkpt lat="59.050172" lon="17.854096">
        <ele>66.3</ele>
        <time>2014-10-11T13:45:47Z</time>
      </trkpt>
      <trkpt lat="59.050128" lon="17.854007">
        <ele>66.2</ele>
        <time>2014-10-11T13:45:48Z</time>
      </trkpt>
      <trkpt lat="59.050105" lon="17.853917">
        <ele>66.2</ele>
        <time>2014-10-11T13:45:50Z</time>
      </trkpt>
      <trkpt lat="59.050076" lon="17.853826">
        <ele>66.2</ele>
        <time>2014-10-11T13:45:51Z</time>
      </trkpt>
      <trkpt lat="59.050042" lon="17.853707">
        <ele>66.3</ele>
        <time>2014-10-11T13:45:52Z</time>
      </trkpt>
      <trkpt lat="59.050013" lon="17.853599">
        <ele>66.4</ele>
        <time>2014-10-11T13:45:53Z</time>
      </trkpt>
      <trkpt lat="59.049986" lon="17.853467">
        <ele>66.6</ele>
        <time>2014-10-11T13:45:54Z</time>
      </trkpt>
      <trkpt lat="59.049966" lon="17.853343">
        <ele>66.8</ele>
        <time>2014-10-11T13:45:55Z</time>
      </trkpt>
      <trkpt lat="59.049941" lon="17.853201">
        <ele>67</ele>
        <time>2014-10-11T13:45:56Z</time>
      </trkpt>
      <trkpt lat="59.049911" lon="17.853075">
        <ele>67.2</ele>
        <time>2014-10-11T13:45:57Z</time>
      </trkpt>
      <trkpt lat="59.049889" lon="17.852945">
        <ele>67.4</ele>
        <time>2014-10-11T13:45:58Z</time>
      </trkpt>
      <trkpt lat="59.049867" lon="17.852832">
        <ele>67.5</ele>
        <time>2014-10-11T13:45:59Z</time>
      </trkpt>
      <trkpt lat="59.049842" lon="17.852712">
        <ele>67.7</ele>
        <time>2014-10-11T13:46:00Z</time>
      </trkpt>
      <trkpt lat="59.049807" lon="17.852608">
        <ele>67.7</ele>
        <time>2014-10-11T13:46:01Z</time>
      </trkpt>
      <trkpt lat="59.049781" lon="17.852479">
        <ele>67.9</ele>
        <time>2014-10-11T13:46:02Z</time>
      </trkpt>
      <trkpt lat="59.049746" lon="17.852333">
        <ele>68</ele>
        <time>2014-10-11T13:46:03Z</time>
      </trkpt>
      <trkpt lat="59.049706" lon="17.852215">
        <ele>68.1</ele>
        <time>2014-10-11T13:46:04Z</time>
      </trkpt>
      <trkpt lat="59.049663" lon="17.85212">
        <ele>68.2</ele>
        <time>2014-10-11T13:46:05Z</time>
      </trkpt>
      <trkpt lat="59.049619" lon="17.852012">
        <ele>68.2</ele>
        <time>2014-10-11T13:46:06Z</time>
      </trkpt>
      <trkpt lat="59.049572" lon="17.851895">
        <ele>68.2</ele>
        <time>2014-10-11T13:46:07Z</time>
      </trkpt>
      <trkpt lat="59.04952" lon="17.851786">
        <ele>68.2</ele>
        <time>2014-10-11T13:46:08Z</time>
      </trkpt>
      <trkpt lat="59.049478" lon="17.851684">
        <ele>68.2</ele>
        <time>2014-10-11T13:46:09Z</time>
      </trkpt>
      <trkpt lat="59.049429" lon="17.851604">
        <ele>68.1</ele>
        <time>2014-10-11T13:46:10Z</time>
      </trkpt>
      <trkpt lat="59.049388" lon="17.851506">
        <ele>68.2</ele>
        <time>2014-10-11T13:46:11Z</time>
      </trkpt>
      <trkpt lat="59.04934" lon="17.851389">
        <ele>68.2</ele>
        <time>2014-10-11T13:46:12Z</time>
      </trkpt>
      <trkpt lat="59.049299" lon="17.851282">
        <ele>68.3</ele>
        <time>2014-10-11T13:46:13Z</time>
      </trkpt>
      <trkpt lat="59.049246" lon="17.851182">
        <ele>68.3</ele>
        <time>2014-10-11T13:46:14Z</time>
      </trkpt>
      <trkpt lat="59.049196" lon="17.851074">
        <ele>68.3</ele>
        <time>2014-10-11T13:46:15Z</time>
      </trkpt>
      <trkpt lat="59.049151" lon="17.850959">
        <ele>68.3</ele>
        <time>2014-10-11T13:46:16Z</time>
      </trkpt>
      <trkpt lat="59.049106" lon="17.850863">
        <ele>68.3</ele>
        <time>2014-10-11T13:46:17Z</time>
      </trkpt>
      <trkpt lat="59.049069" lon="17.850746">
        <ele>68.4</ele>
        <time>2014-10-11T13:46:18Z</time>
      </trkpt>
      <trkpt lat="59.049038" lon="17.850636">
        <ele>68.4</ele>
        <time>2014-10-11T13:46:19Z</time>
      </trkpt>
      <trkpt lat="59.048997" lon="17.85053">
        <ele>68.5</ele>
        <time>2014-10-11T13:46:20Z</time>
      </trkpt>
      <trkpt lat="59.048969" lon="17.850436">
        <ele>68.5</ele>
        <time>2014-10-11T13:46:21Z</time>
      </trkpt>
      <trkpt lat="59.048937" lon="17.850326">
        <ele>68.5</ele>
        <time>2014-10-11T13:46:22Z</time>
      </trkpt>
      <trkpt lat="59.048903" lon="17.850238">
        <ele>68.5</ele>
        <time>2014-10-11T13:46:23Z</time>
      </trkpt>
      <trkpt lat="59.04887" lon="17.850143">
        <ele>68.6</ele>
        <time>2014-10-11T13:46:24Z</time>
      </trkpt>
      <trkpt lat="59.048827" lon="17.850052">
        <ele>68.6</ele>
        <time>2014-10-11T13:46:25Z</time>
      </trkpt>
      <trkpt lat="59.048795" lon="17.849975">
        <ele>68.6</ele>
        <time>2014-10-11T13:46:26Z</time>
      </trkpt>
      <trkpt lat="59.048765" lon="17.849903">
        <ele>68.6</ele>
        <time>2014-10-11T13:46:27Z</time>
      </trkpt>
      <trkpt lat="59.048733" lon="17.849808">
        <ele>68.6</ele>
        <time>2014-10-11T13:46:28Z</time>
      </trkpt>
      <trkpt lat="59.048687" lon="17.849712">
        <ele>68.4</ele>
        <time>2014-10-11T13:46:29Z</time>
      </trkpt>
      <trkpt lat="59.048638" lon="17.849609">
        <ele>68.2</ele>
        <time>2014-10-11T13:46:30Z</time>
      </trkpt>
      <trkpt lat="59.048593" lon="17.849511">
        <ele>67.9</ele>
        <time>2014-10-11T13:46:31Z</time>
      </trkpt>
      <trkpt lat="59.048556" lon="17.849423">
        <ele>67.7</ele>
        <time>2014-10-11T13:46:32Z</time>
      </trkpt>
      <trkpt lat="59.048504" lon="17.849317">
        <ele>67.4</ele>
        <time>2014-10-11T13:46:33Z</time>
      </trkpt>
      <trkpt lat="59.048473" lon="17.849212">
        <ele>67.2</ele>
        <time>2014-10-11T13:46:34Z</time>
      </trkpt>
      <trkpt lat="59.048433" lon="17.849119">
        <ele>66.9</ele>
        <time>2014-10-11T13:46:35Z</time>
      </trkpt>
      <trkpt lat="59.048403" lon="17.849045">
        <ele>66.6</ele>
        <time>2014-10-11T13:46:36Z</time>
      </trkpt>
      <trkpt lat="59.048375" lon="17.848966">
        <ele>66.4</ele>
        <time>2014-10-11T13:46:37Z</time>
      </trkpt>
      <trkpt lat="59.048331" lon="17.848875">
        <ele>66</ele>
        <time>2014-10-11T13:46:38Z</time>
      </trkpt>
      <trkpt lat="59.048298" lon="17.848803">
        <ele>65.7</ele>
        <time>2014-10-11T13:46:39Z</time>
      </trkpt>
      <trkpt lat="59.048258" lon="17.848717">
        <ele>65.4</ele>
        <time>2014-10-11T13:46:40Z</time>
      </trkpt>
      <trkpt lat="59.048229" lon="17.848649">
        <ele>65.4</ele>
        <time>2014-10-11T13:46:41Z</time>
      </trkpt>
      <trkpt lat="59.0482" lon="17.848567">
        <ele>65.4</ele>
        <time>2014-10-11T13:46:42Z</time>
      </trkpt>
      <trkpt lat="59.04817" lon="17.848482">
        <ele>65.5</ele>
        <time>2014-10-11T13:46:43Z</time>
      </trkpt>
      <trkpt lat="59.048125" lon="17.848385">
        <ele>65.5</ele>
        <time>2014-10-11T13:46:44Z</time>
      </trkpt>
      <trkpt lat="59.04809" lon="17.8483">
        <ele>65.6</ele>
        <time>2014-10-11T13:46:45Z</time>
      </trkpt>
      <trkpt lat="59.048054" lon="17.848231">
        <ele>65.6</ele>
        <time>2014-10-11T13:46:46Z</time>
      </trkpt>
      <trkpt lat="59.047996" lon="17.848149">
        <ele>65.5</ele>
        <time>2014-10-11T13:46:47Z</time>
      </trkpt>
      <trkpt lat="59.047957" lon="17.848047">
        <ele>65.7</ele>
        <time>2014-10-11T13:46:48Z</time>
      </trkpt>
      <trkpt lat="59.047912" lon="17.84793">
        <ele>65.9</ele>
        <time>2014-10-11T13:46:49Z</time>
      </trkpt>
      <trkpt lat="59.047883" lon="17.847857">
        <ele>66.1</ele>
        <time>2014-10-11T13:46:50Z</time>
      </trkpt>
      <trkpt lat="59.047859" lon="17.847774">
        <ele>66.3</ele>
        <time>2014-10-11T13:46:51Z</time>
      </trkpt>
      <trkpt lat="59.047832" lon="17.847694">
        <ele>66.4</ele>
        <time>2014-10-11T13:46:52Z</time>
      </trkpt>
      <trkpt lat="59.047798" lon="17.847612">
        <ele>66.6</ele>
        <time>2014-10-11T13:46:53Z</time>
      </trkpt>
      <trkpt lat="59.047762" lon="17.847517">
        <ele>66.9</ele>
        <time>2014-10-11T13:46:54Z</time>
      </trkpt>
      <trkpt lat="59.04773" lon="17.847431">
        <ele>67.1</ele>
        <time>2014-10-11T13:46:55Z</time>
      </trkpt>
      <trkpt lat="59.047713" lon="17.847371">
        <ele>67.3</ele>
        <time>2014-10-11T13:46:56Z</time>
      </trkpt>
      <trkpt lat="59.047703" lon="17.84729">
        <ele>67.6</ele>
        <time>2014-10-11T13:46:57Z</time>
      </trkpt>
      <trkpt lat="59.047652" lon="17.84718">
        <ele>67.9</ele>
        <time>2014-10-11T13:46:58Z</time>
      </trkpt>
      <trkpt lat="59.047624" lon="17.847074">
        <ele>68.3</ele>
        <time>2014-10-11T13:46:59Z</time>
      </trkpt>
      <trkpt lat="59.047581" lon="17.846976">
        <ele>68.4</ele>
        <time>2014-10-11T13:47:00Z</time>
      </trkpt>
      <trkpt lat="59.047539" lon="17.846872">
        <ele>68.6</ele>
        <time>2014-10-11T13:47:01Z</time>
      </trkpt>
      <trkpt lat="59.047483" lon="17.846762">
        <ele>68.7</ele>
        <time>2014-10-11T13:47:02Z</time>
      </trkpt>
      <trkpt lat="59.047452" lon="17.846657">
        <ele>69</ele>
        <time>2014-10-11T13:47:03Z</time>
      </trkpt>
      <trkpt lat="59.047419" lon="17.846544">
        <ele>69.2</ele>
        <time>2014-10-11T13:47:04Z</time>
      </trkpt>
      <trkpt lat="59.047392" lon="17.846426">
        <ele>69.5</ele>
        <time>2014-10-11T13:47:05Z</time>
      </trkpt>
      <trkpt lat="59.047354" lon="17.846314">
        <ele>69.8</ele>
        <time>2014-10-11T13:47:06Z</time>
      </trkpt>
      <trkpt lat="59.047326" lon="17.846189">
        <ele>70.2</ele>
        <time>2014-10-11T13:47:07Z</time>
      </trkpt>
      <trkpt lat="59.047299" lon="17.846088">
        <ele>70.5</ele>
        <time>2014-10-11T13:47:08Z</time>
      </trkpt>
      <trkpt lat="59.047276" lon="17.845988">
        <ele>70.8</ele>
        <time>2014-10-11T13:47:09Z</time>
      </trkpt>
      <trkpt lat="59.047246" lon="17.845865">
        <ele>71.2</ele>
        <time>2014-10-11T13:47:10Z</time>
      </trkpt>
      <trkpt lat="59.04723" lon="17.845769">
        <ele>71.5</ele>
        <time>2014-10-11T13:47:11Z</time>
      </trkpt>
      <trkpt lat="59.047211" lon="17.845652">
        <ele>71.9</ele>
        <time>2014-10-11T13:47:12Z</time>
      </trkpt>
      <trkpt lat="59.047184" lon="17.845513">
        <ele>72.4</ele>
        <time>2014-10-11T13:47:13Z</time>
      </trkpt>
      <trkpt lat="59.04716" lon="17.845393">
        <ele>72.8</ele>
        <time>2014-10-11T13:47:14Z</time>
      </trkpt>
      <trkpt lat="59.04713" lon="17.845273">
        <ele>72.5</ele>
        <time>2014-10-11T13:47:15Z</time>
      </trkpt>
      <trkpt lat="59.04711" lon="17.845167">
        <ele>72.3</ele>
        <time>2014-10-11T13:47:16Z</time>
      </trkpt>
      <trkpt lat="59.047085" lon="17.845031">
        <ele>72.1</ele>
        <time>2014-10-11T13:47:17Z</time>
      </trkpt>
      <trkpt lat="59.047076" lon="17.844908">
        <ele>71.8</ele>
        <time>2014-10-11T13:47:18Z</time>
      </trkpt>
      <trkpt lat="59.047057" lon="17.84477">
        <ele>71.5</ele>
        <time>2014-10-11T13:47:19Z</time>
      </trkpt>
      <trkpt lat="59.047041" lon="17.844627">
        <ele>71.2</ele>
        <time>2014-10-11T13:47:20Z</time>
      </trkpt>
      <trkpt lat="59.047018" lon="17.844474">
        <ele>70.8</ele>
        <time>2014-10-11T13:47:21Z</time>
      </trkpt>
      <trkpt lat="59.047003" lon="17.844318">
        <ele>70.5</ele>
        <time>2014-10-11T13:47:22Z</time>
      </trkpt>
      <trkpt lat="59.04699" lon="17.844173">
        <ele>70.2</ele>
        <time>2014-10-11T13:47:23Z</time>
      </trkpt>
      <trkpt lat="59.046989" lon="17.844034">
        <ele>69.9</ele>
        <time>2014-10-11T13:47:24Z</time>
      </trkpt>
      <trkpt lat="59.047" lon="17.843899">
        <ele>69.5</ele>
        <time>2014-10-11T13:47:25Z</time>
      </trkpt>
      <trkpt lat="59.047016" lon="17.843742">
        <ele>69.1</ele>
        <time>2014-10-11T13:47:26Z</time>
      </trkpt>
      <trkpt lat="59.047015" lon="17.843586">
        <ele>68.8</ele>
        <time>2014-10-11T13:47:27Z</time>
      </trkpt>
      <trkpt lat="59.04702" lon="17.843433">
        <ele>68.4</ele>
        <time>2014-10-11T13:47:28Z</time>
      </trkpt>
      <trkpt lat="59.047031" lon="17.843292">
        <ele>68</ele>
        <time>2014-10-11T13:47:29Z</time>
      </trkpt>
      <trkpt lat="59.047035" lon="17.843128">
        <ele>67.6</ele>
        <time>2014-10-11T13:47:30Z</time>
      </trkpt>
      <trkpt lat="59.047039" lon="17.842962">
        <ele>67.2</ele>
        <time>2014-10-11T13:47:31Z</time>
      </trkpt>
      <trkpt lat="59.047042" lon="17.842812">
        <ele>67</ele>
        <time>2014-10-11T13:47:32Z</time>
      </trkpt>
      <trkpt lat="59.047046" lon="17.842677">
        <ele>66.8</ele>
        <time>2014-10-11T13:47:33Z</time>
      </trkpt>
      <trkpt lat="59.047051" lon="17.842519">
        <ele>66.6</ele>
        <time>2014-10-11T13:47:34Z</time>
      </trkpt>
      <trkpt lat="59.047054" lon="17.842365">
        <ele>66.4</ele>
        <time>2014-10-11T13:47:35Z</time>
      </trkpt>
      <trkpt lat="59.04705" lon="17.842209">
        <ele>66.2</ele>
        <time>2014-10-11T13:47:36Z</time>
      </trkpt>
      <trkpt lat="59.047044" lon="17.84204">
        <ele>66</ele>
        <time>2014-10-11T13:47:37Z</time>
      </trkpt>
      <trkpt lat="59.047029" lon="17.841876">
        <ele>65.9</ele>
        <time>2014-10-11T13:47:38Z</time>
      </trkpt>
      <trkpt lat="59.047007" lon="17.841702">
        <ele>65.7</ele>
        <time>2014-10-11T13:47:39Z</time>
      </trkpt>
      <trkpt lat="59.046972" lon="17.841539">
        <ele>65.5</ele>
        <time>2014-10-11T13:47:40Z</time>
      </trkpt>
      <trkpt lat="59.046942" lon="17.841395">
        <ele>65.4</ele>
        <time>2014-10-11T13:47:41Z</time>
      </trkpt>
      <trkpt lat="59.046907" lon="17.841228">
        <ele>65.2</ele>
        <time>2014-10-11T13:47:42Z</time>
      </trkpt>
      <trkpt lat="59.046871" lon="17.841074">
        <ele>65.2</ele>
        <time>2014-10-11T13:47:43Z</time>
      </trkpt>
      <trkpt lat="59.046819" lon="17.840928">
        <ele>65.2</ele>
        <time>2014-10-11T13:47:44Z</time>
      </trkpt>
      <trkpt lat="59.046777" lon="17.840779">
        <ele>65.2</ele>
        <time>2014-10-11T13:47:45Z</time>
      </trkpt>
      <trkpt lat="59.046736" lon="17.840637">
        <ele>65.1</ele>
        <time>2014-10-11T13:47:46Z</time>
      </trkpt>
      <trkpt lat="59.046692" lon="17.840488">
        <ele>65</ele>
        <time>2014-10-11T13:47:47Z</time>
      </trkpt>
      <trkpt lat="59.046649" lon="17.840369">
        <ele>64.8</ele>
        <time>2014-10-11T13:47:48Z</time>
      </trkpt>
      <trkpt lat="59.046599" lon="17.840231">
        <ele>64.3</ele>
        <time>2014-10-11T13:47:49Z</time>
      </trkpt>
      <trkpt lat="59.046559" lon="17.840085">
        <ele>63.8</ele>
        <time>2014-10-11T13:47:50Z</time>
      </trkpt>
      <trkpt lat="59.046517" lon="17.839939">
        <ele>63.3</ele>
        <time>2014-10-11T13:47:51Z</time>
      </trkpt>
      <trkpt lat="59.046474" lon="17.839789">
        <ele>62.9</ele>
        <time>2014-10-11T13:47:52Z</time>
      </trkpt>
      <trkpt lat="59.046447" lon="17.83965">
        <ele>62.5</ele>
        <time>2014-10-11T13:47:53Z</time>
      </trkpt>
      <trkpt lat="59.046427" lon="17.839519">
        <ele>62.2</ele>
        <time>2014-10-11T13:47:54Z</time>
      </trkpt>
      <trkpt lat="59.046413" lon="17.839359">
        <ele>62</ele>
        <time>2014-10-11T13:47:55Z</time>
      </trkpt>
      <trkpt lat="59.046508" lon="17.838151">
        <ele>59.9</ele>
        <time>2014-10-11T13:48:02Z</time>
      </trkpt>
      <trkpt lat="59.046518" lon="17.837933">
        <ele>59.7</ele>
        <time>2014-10-11T13:48:03Z</time>
      </trkpt>
      <trkpt lat="59.046557" lon="17.837766">
        <ele>59.4</ele>
        <time>2014-10-11T13:48:04Z</time>
      </trkpt>
      <trkpt lat="59.046576" lon="17.837598">
        <ele>59.2</ele>
        <time>2014-10-11T13:48:05Z</time>
      </trkpt>
      <trkpt lat="59.046604" lon="17.837422">
        <ele>59</ele>
        <time>2014-10-11T13:48:06Z</time>
      </trkpt>
      <trkpt lat="59.046574" lon="17.837239">
        <ele>58.9</ele>
        <time>2014-10-11T13:48:07Z</time>
      </trkpt>
      <trkpt lat="59.046549" lon="17.837079">
        <ele>58.9</ele>
        <time>2014-10-11T13:48:08Z</time>
      </trkpt>
      <trkpt lat="59.046508" lon="17.83691">
        <ele>58.9</ele>
        <time>2014-10-11T13:48:09Z</time>
      </trkpt>
      <trkpt lat="59.04646" lon="17.836775">
        <ele>58.9</ele>
        <time>2014-10-11T13:48:10Z</time>
      </trkpt>
      <trkpt lat="59.046405" lon="17.836632">
        <ele>58.9</ele>
        <time>2014-10-11T13:48:11Z</time>
      </trkpt>
      <trkpt lat="59.046352" lon="17.836486">
        <ele>58.9</ele>
        <time>2014-10-11T13:48:12Z</time>
      </trkpt>
      <trkpt lat="59.046306" lon="17.836365">
        <ele>58.9</ele>
        <time>2014-10-11T13:48:13Z</time>
      </trkpt>
      <trkpt lat="59.046254" lon="17.836226">
        <ele>59</ele>
        <time>2014-10-11T13:48:14Z</time>
      </trkpt>
      <trkpt lat="59.046217" lon="17.836085">
        <ele>59</ele>
        <time>2014-10-11T13:48:15Z</time>
      </trkpt>
      <trkpt lat="59.046172" lon="17.835952">
        <ele>59.1</ele>
        <time>2014-10-11T13:48:16Z</time>
      </trkpt>
      <trkpt lat="59.046126" lon="17.835818">
        <ele>59.2</ele>
        <time>2014-10-11T13:48:17Z</time>
      </trkpt>
      <trkpt lat="59.046091" lon="17.835724">
        <ele>59.3</ele>
        <time>2014-10-11T13:48:18Z</time>
      </trkpt>
      <trkpt lat="59.046054" lon="17.835618">
        <ele>59.4</ele>
        <time>2014-10-11T13:48:19Z</time>
      </trkpt>
      <trkpt lat="59.046037" lon="17.835457">
        <ele>59.3</ele>
        <time>2014-10-11T13:48:20Z</time>
      </trkpt>
      <trkpt lat="59.04602" lon="17.835315">
        <ele>59.6</ele>
        <time>2014-10-11T13:48:21Z</time>
      </trkpt>
      <trkpt lat="59.046" lon="17.835162">
        <ele>60</ele>
        <time>2014-10-11T13:48:22Z</time>
      </trkpt>
      <trkpt lat="59.045998" lon="17.835022">
        <ele>60.3</ele>
        <time>2014-10-11T13:48:23Z</time>
      </trkpt>
      <trkpt lat="59.045993" lon="17.83489">
        <ele>60.6</ele>
        <time>2014-10-11T13:48:24Z</time>
      </trkpt>
      <trkpt lat="59.04599" lon="17.834729">
        <ele>61</ele>
        <time>2014-10-11T13:48:25Z</time>
      </trkpt>
      <trkpt lat="59.046005" lon="17.83459">
        <ele>61.2</ele>
        <time>2014-10-11T13:48:26Z</time>
      </trkpt>
      <trkpt lat="59.046011" lon="17.834453">
        <ele>61.4</ele>
        <time>2014-10-11T13:48:27Z</time>
      </trkpt>
      <trkpt lat="59.046019" lon="17.834297">
        <ele>61.6</ele>
        <time>2014-10-11T13:48:28Z</time>
      </trkpt>
      <trkpt lat="59.046039" lon="17.834158">
        <ele>61.8</ele>
        <time>2014-10-11T13:48:29Z</time>
      </trkpt>
      <trkpt lat="59.046058" lon="17.833995">
        <ele>62</ele>
        <time>2014-10-11T13:48:30Z</time>
      </trkpt>
      <trkpt lat="59.046077" lon="17.833842">
        <ele>62.2</ele>
        <time>2014-10-11T13:48:31Z</time>
      </trkpt>
      <trkpt lat="59.046096" lon="17.833685">
        <ele>62.2</ele>
        <time>2014-10-11T13:48:32Z</time>
      </trkpt>
      <trkpt lat="59.046116" lon="17.833539">
        <ele>61.8</ele>
        <time>2014-10-11T13:48:33Z</time>
      </trkpt>
      <trkpt lat="59.046131" lon="17.83339">
        <ele>61.4</ele>
        <time>2014-10-11T13:48:34Z</time>
      </trkpt>
      <trkpt lat="59.046144" lon="17.833245">
        <ele>61</ele>
        <time>2014-10-11T13:48:35Z</time>
      </trkpt>
      <trkpt lat="59.046155" lon="17.833103">
        <ele>60.6</ele>
        <time>2014-10-11T13:48:36Z</time>
      </trkpt>
      <trkpt lat="59.046163" lon="17.832957">
        <ele>60.2</ele>
        <time>2014-10-11T13:48:37Z</time>
      </trkpt>
      <trkpt lat="59.046163" lon="17.832811">
        <ele>59.9</ele>
        <time>2014-10-11T13:48:38Z</time>
      </trkpt>
      <trkpt lat="59.046163" lon="17.832659">
        <ele>59.5</ele>
        <time>2014-10-11T13:48:39Z</time>
      </trkpt>
      <trkpt lat="59.046153" lon="17.83253">
        <ele>59.2</ele>
        <time>2014-10-11T13:48:40Z</time>
      </trkpt>
      <trkpt lat="59.046136" lon="17.832386">
        <ele>58.9</ele>
        <time>2014-10-11T13:48:41Z</time>
      </trkpt>
      <trkpt lat="59.046118" lon="17.832246">
        <ele>58.5</ele>
        <time>2014-10-11T13:48:42Z</time>
      </trkpt>
      <trkpt lat="59.046086" lon="17.832098">
        <ele>58.2</ele>
        <time>2014-10-11T13:48:43Z</time>
      </trkpt>
      <trkpt lat="59.04605" lon="17.831941">
        <ele>57.6</ele>
        <time>2014-10-11T13:48:44Z</time>
      </trkpt>
      <trkpt lat="59.046023" lon="17.831819">
        <ele>57.2</ele>
        <time>2014-10-11T13:48:45Z</time>
      </trkpt>
      <trkpt lat="59.045991" lon="17.831691">
        <ele>56.7</ele>
        <time>2014-10-11T13:48:46Z</time>
      </trkpt>
      <trkpt lat="59.045963" lon="17.831591">
        <ele>56.4</ele>
        <time>2014-10-11T13:48:47Z</time>
      </trkpt>
      <trkpt lat="59.045908" lon="17.831453">
        <ele>56</ele>
        <time>2014-10-11T13:48:48Z</time>
      </trkpt>
      <trkpt lat="59.045861" lon="17.831344">
        <ele>55.7</ele>
        <time>2014-10-11T13:48:49Z</time>
      </trkpt>
      <trkpt lat="59.04582" lon="17.831247">
        <ele>55.5</ele>
        <time>2014-10-11T13:48:50Z</time>
      </trkpt>
      <trkpt lat="59.045767" lon="17.831138">
        <ele>55.4</ele>
        <time>2014-10-11T13:48:51Z</time>
      </trkpt>
      <trkpt lat="59.045722" lon="17.831036">
        <ele>55.4</ele>
        <time>2014-10-11T13:48:52Z</time>
      </trkpt>
      <trkpt lat="59.045677" lon="17.830916">
        <ele>55.3</ele>
        <time>2014-10-11T13:48:53Z</time>
      </trkpt>
      <trkpt lat="59.04564" lon="17.830807">
        <ele>55.2</ele>
        <time>2014-10-11T13:48:54Z</time>
      </trkpt>
      <trkpt lat="59.045595" lon="17.830713">
        <ele>55.3</ele>
        <time>2014-10-11T13:48:55Z</time>
      </trkpt>
      <trkpt lat="59.045551" lon="17.8306">
        <ele>55.4</ele>
        <time>2014-10-11T13:48:56Z</time>
      </trkpt>
      <trkpt lat="59.045524" lon="17.83051">
        <ele>55.4</ele>
        <time>2014-10-11T13:48:57Z</time>
      </trkpt>
      <trkpt lat="59.045473" lon="17.830411">
        <ele>55.6</ele>
        <time>2014-10-11T13:48:58Z</time>
      </trkpt>
      <trkpt lat="59.045429" lon="17.830292">
        <ele>55.8</ele>
        <time>2014-10-11T13:48:59Z</time>
      </trkpt>
      <trkpt lat="59.045382" lon="17.830156">
        <ele>55.9</ele>
        <time>2014-10-11T13:49:00Z</time>
      </trkpt>
      <trkpt lat="59.045344" lon="17.830047">
        <ele>55.9</ele>
        <time>2014-10-11T13:49:01Z</time>
      </trkpt>
      <trkpt lat="59.045311" lon="17.829936">
        <ele>56</ele>
        <time>2014-10-11T13:49:02Z</time>
      </trkpt>
      <trkpt lat="59.045276" lon="17.829823">
        <ele>56.2</ele>
        <time>2014-10-11T13:49:03Z</time>
      </trkpt>
      <trkpt lat="59.045239" lon="17.829718">
        <ele>56.3</ele>
        <time>2014-10-11T13:49:04Z</time>
      </trkpt>
      <trkpt lat="59.045194" lon="17.829617">
        <ele>56.6</ele>
        <time>2014-10-11T13:49:05Z</time>
      </trkpt>
      <trkpt lat="59.045157" lon="17.829512">
        <ele>56.9</ele>
        <time>2014-10-11T13:49:06Z</time>
      </trkpt>
      <trkpt lat="59.045122" lon="17.829411">
        <ele>57.2</ele>
        <time>2014-10-11T13:49:07Z</time>
      </trkpt>
      <trkpt lat="59.045079" lon="17.829311">
        <ele>57.6</ele>
        <time>2014-10-11T13:49:08Z</time>
      </trkpt>
      <trkpt lat="59.045033" lon="17.829203">
        <ele>58</ele>
        <time>2014-10-11T13:49:09Z</time>
      </trkpt>
      <trkpt lat="59.045001" lon="17.829102">
        <ele>58.3</ele>
        <time>2014-10-11T13:49:10Z</time>
      </trkpt>
      <trkpt lat="59.04497" lon="17.828983">
        <ele>58.6</ele>
        <time>2014-10-11T13:49:11Z</time>
      </trkpt>
      <trkpt lat="59.044943" lon="17.82885">
        <ele>58.9</ele>
        <time>2014-10-11T13:49:12Z</time>
      </trkpt>
      <trkpt lat="59.044911" lon="17.828716">
        <ele>59.2</ele>
        <time>2014-10-11T13:49:13Z</time>
      </trkpt>
      <trkpt lat="59.044884" lon="17.828587">
        <ele>59.5</ele>
        <time>2014-10-11T13:49:14Z</time>
      </trkpt>
      <trkpt lat="59.044853" lon="17.82845">
        <ele>59.7</ele>
        <time>2014-10-11T13:49:15Z</time>
      </trkpt>
      <trkpt lat="59.044836" lon="17.828319">
        <ele>59.9</ele>
        <time>2014-10-11T13:49:16Z</time>
      </trkpt>
      <trkpt lat="59.044825" lon="17.828213">
        <ele>60</ele>
        <time>2014-10-11T13:49:17Z</time>
      </trkpt>
      <trkpt lat="59.044812" lon="17.828073">
        <ele>60.1</ele>
        <time>2014-10-11T13:49:18Z</time>
      </trkpt>
      <trkpt lat="59.044802" lon="17.827943">
        <ele>60.2</ele>
        <time>2014-10-11T13:49:19Z</time>
      </trkpt>
      <trkpt lat="59.044785" lon="17.827818">
        <ele>60.3</ele>
        <time>2014-10-11T13:49:20Z</time>
      </trkpt>
      <trkpt lat="59.044774" lon="17.827707">
        <ele>60.4</ele>
        <time>2014-10-11T13:49:21Z</time>
      </trkpt>
      <trkpt lat="59.044764" lon="17.82758">
        <ele>60.5</ele>
        <time>2014-10-11T13:49:22Z</time>
      </trkpt>
      <trkpt lat="59.044765" lon="17.827446">
        <ele>60.5</ele>
        <time>2014-10-11T13:49:23Z</time>
      </trkpt>
      <trkpt lat="59.044768" lon="17.827326">
        <ele>60.4</ele>
        <time>2014-10-11T13:49:24Z</time>
      </trkpt>
      <trkpt lat="59.044775" lon="17.827218">
        <ele>60.4</ele>
        <time>2014-10-11T13:49:25Z</time>
      </trkpt>
      <trkpt lat="59.044797" lon="17.82709">
        <ele>60.2</ele>
        <time>2014-10-11T13:49:26Z</time>
      </trkpt>
      <trkpt lat="59.044807" lon="17.826957">
        <ele>59.6</ele>
        <time>2014-10-11T13:49:27Z</time>
      </trkpt>
      <trkpt lat="59.044825" lon="17.826802">
        <ele>58.8</ele>
        <time>2014-10-11T13:49:28Z</time>
      </trkpt>
      <trkpt lat="59.044848" lon="17.826674">
        <ele>58.1</ele>
        <time>2014-10-11T13:49:29Z</time>
      </trkpt>
      <trkpt lat="59.044867" lon="17.826547">
        <ele>57.5</ele>
        <time>2014-10-11T13:49:30Z</time>
      </trkpt>
      <trkpt lat="59.044897" lon="17.826412">
        <ele>56.7</ele>
        <time>2014-10-11T13:49:31Z</time>
      </trkpt>
      <trkpt lat="59.044937" lon="17.826261">
        <ele>55.9</ele>
        <time>2014-10-11T13:49:32Z</time>
      </trkpt>
      <trkpt lat="59.044961" lon="17.826134">
        <ele>55.4</ele>
        <time>2014-10-11T13:49:33Z</time>
      </trkpt>
      <trkpt lat="59.044998" lon="17.826004">
        <ele>54.8</ele>
        <time>2014-10-11T13:49:34Z</time>
      </trkpt>
      <trkpt lat="59.045037" lon="17.825896">
        <ele>54.3</ele>
        <time>2014-10-11T13:49:35Z</time>
      </trkpt>
      <trkpt lat="59.045082" lon="17.825779">
        <ele>53.8</ele>
        <time>2014-10-11T13:49:36Z</time>
      </trkpt>
      <trkpt lat="59.045133" lon="17.825658">
        <ele>53.3</ele>
        <time>2014-10-11T13:49:37Z</time>
      </trkpt>
      <trkpt lat="59.045182" lon="17.825546">
        <ele>52.8</ele>
        <time>2014-10-11T13:49:38Z</time>
      </trkpt>
      <trkpt lat="59.045235" lon="17.825447">
        <ele>52.5</ele>
        <time>2014-10-11T13:49:39Z</time>
      </trkpt>
      <trkpt lat="59.04529" lon="17.825337">
        <ele>52.1</ele>
        <time>2014-10-11T13:49:40Z</time>
      </trkpt>
      <trkpt lat="59.045326" lon="17.825222">
        <ele>51.7</ele>
        <time>2014-10-11T13:49:41Z</time>
      </trkpt>
      <trkpt lat="59.045358" lon="17.82508">
        <ele>51.3</ele>
        <time>2014-10-11T13:49:42Z</time>
      </trkpt>
      <trkpt lat="59.045371" lon="17.824939">
        <ele>50.9</ele>
        <time>2014-10-11T13:49:43Z</time>
      </trkpt>
      <trkpt lat="59.045374" lon="17.824796">
        <ele>50.6</ele>
        <time>2014-10-11T13:49:44Z</time>
      </trkpt>
      <trkpt lat="59.045372" lon="17.824634">
        <ele>50.2</ele>
        <time>2014-10-11T13:49:45Z</time>
      </trkpt>
      <trkpt lat="59.045364" lon="17.824494">
        <ele>49.9</ele>
        <time>2014-10-11T13:49:46Z</time>
      </trkpt>
      <trkpt lat="59.04535" lon="17.824351">
        <ele>49.8</ele>
        <time>2014-10-11T13:49:47Z</time>
      </trkpt>
      <trkpt lat="59.045343" lon="17.824192">
        <ele>49.5</ele>
        <time>2014-10-11T13:49:48Z</time>
      </trkpt>
      <trkpt lat="59.045338" lon="17.824045">
        <ele>49.3</ele>
        <time>2014-10-11T13:49:49Z</time>
      </trkpt>
      <trkpt lat="59.04533" lon="17.823887">
        <ele>49.1</ele>
        <time>2014-10-11T13:49:50Z</time>
      </trkpt>
      <trkpt lat="59.045325" lon="17.823746">
        <ele>48.9</ele>
        <time>2014-10-11T13:49:51Z</time>
      </trkpt>
      <trkpt lat="59.045323" lon="17.82359">
        <ele>48.5</ele>
        <time>2014-10-11T13:49:52Z</time>
      </trkpt>
      <trkpt lat="59.045322" lon="17.823429">
        <ele>48</ele>
        <time>2014-10-11T13:49:53Z</time>
      </trkpt>
      <trkpt lat="59.045321" lon="17.823295">
        <ele>47.7</ele>
        <time>2014-10-11T13:49:54Z</time>
      </trkpt>
      <trkpt lat="59.045318" lon="17.823169">
        <ele>47.3</ele>
        <time>2014-10-11T13:49:55Z</time>
      </trkpt>
      <trkpt lat="59.045301" lon="17.823042">
        <ele>46.9</ele>
        <time>2014-10-11T13:49:56Z</time>
      </trkpt>
      <trkpt lat="59.045276" lon="17.8229">
        <ele>46.5</ele>
        <time>2014-10-11T13:49:57Z</time>
      </trkpt>
      <trkpt lat="59.045243" lon="17.822747">
        <ele>46</ele>
        <time>2014-10-11T13:49:58Z</time>
      </trkpt>
      <trkpt lat="59.045223" lon="17.82262">
        <ele>45.7</ele>
        <time>2014-10-11T13:49:59Z</time>
      </trkpt>
      <trkpt lat="59.045198" lon="17.822466">
        <ele>45.2</ele>
        <time>2014-10-11T13:50:00Z</time>
      </trkpt>
      <trkpt lat="59.045176" lon="17.822317">
        <ele>44.8</ele>
        <time>2014-10-11T13:50:01Z</time>
      </trkpt>
      <trkpt lat="59.045145" lon="17.822158">
        <ele>44.2</ele>
        <time>2014-10-11T13:50:02Z</time>
      </trkpt>
      <trkpt lat="59.045116" lon="17.821989">
        <ele>43.5</ele>
        <time>2014-10-11T13:50:03Z</time>
      </trkpt>
      <trkpt lat="59.045087" lon="17.821839">
        <ele>42.6</ele>
        <time>2014-10-11T13:50:04Z</time>
      </trkpt>
      <trkpt lat="59.045051" lon="17.821679">
        <ele>41.7</ele>
        <time>2014-10-11T13:50:05Z</time>
      </trkpt>
      <trkpt lat="59.045019" lon="17.821512">
        <ele>40.8</ele>
        <time>2014-10-11T13:50:06Z</time>
      </trkpt>
      <trkpt lat="59.045004" lon="17.821348">
        <ele>39.9</ele>
        <time>2014-10-11T13:50:07Z</time>
      </trkpt>
      <trkpt lat="59.044986" lon="17.821159">
        <ele>39.1</ele>
        <time>2014-10-11T13:50:08Z</time>
      </trkpt>
      <trkpt lat="59.044969" lon="17.82096">
        <ele>38.4</ele>
        <time>2014-10-11T13:50:09Z</time>
      </trkpt>
      <trkpt lat="59.044963" lon="17.820792">
        <ele>37.8</ele>
        <time>2014-10-11T13:50:10Z</time>
      </trkpt>
      <trkpt lat="59.044959" lon="17.820593">
        <ele>37.1</ele>
        <time>2014-10-11T13:50:11Z</time>
      </trkpt>
      <trkpt lat="59.044982" lon="17.820434">
        <ele>36.9</ele>
        <time>2014-10-11T13:50:12Z</time>
      </trkpt>
      <trkpt lat="59.044995" lon="17.820269">
        <ele>37.1</ele>
        <time>2014-10-11T13:50:13Z</time>
      </trkpt>
      <trkpt lat="59.045" lon="17.820083">
        <ele>37.4</ele>
        <time>2014-10-11T13:50:14Z</time>
      </trkpt>
      <trkpt lat="59.045014" lon="17.819901">
        <ele>37.7</ele>
        <time>2014-10-11T13:50:15Z</time>
      </trkpt>
      <trkpt lat="59.045042" lon="17.819745">
        <ele>38</ele>
        <time>2014-10-11T13:50:16Z</time>
      </trkpt>
      <trkpt lat="59.045066" lon="17.81957">
        <ele>38.3</ele>
        <time>2014-10-11T13:50:17Z</time>
      </trkpt>
      <trkpt lat="59.045099" lon="17.819424">
        <ele>38.6</ele>
        <time>2014-10-11T13:50:18Z</time>
      </trkpt>
      <trkpt lat="59.045131" lon="17.819273">
        <ele>38.8</ele>
        <time>2014-10-11T13:50:19Z</time>
      </trkpt>
      <trkpt lat="59.04517" lon="17.819114">
        <ele>38.9</ele>
        <time>2014-10-11T13:50:20Z</time>
      </trkpt>
      <trkpt lat="59.045206" lon="17.818955">
        <ele>39</ele>
        <time>2014-10-11T13:50:21Z</time>
      </trkpt>
      <trkpt lat="59.045234" lon="17.818803">
        <ele>39</ele>
        <time>2014-10-11T13:50:22Z</time>
      </trkpt>
      <trkpt lat="59.045269" lon="17.818659">
        <ele>38.9</ele>
        <time>2014-10-11T13:50:23Z</time>
      </trkpt>
      <trkpt lat="59.045298" lon="17.818527">
        <ele>38.7</ele>
        <time>2014-10-11T13:50:24Z</time>
      </trkpt>
      <trkpt lat="59.045319" lon="17.818378">
        <ele>38.6</ele>
        <time>2014-10-11T13:50:25Z</time>
      </trkpt>
      <trkpt lat="59.045324" lon="17.818226">
        <ele>38.4</ele>
        <time>2014-10-11T13:50:26Z</time>
      </trkpt>
      <trkpt lat="59.045315" lon="17.818069">
        <ele>38.2</ele>
        <time>2014-10-11T13:50:27Z</time>
      </trkpt>
      <trkpt lat="59.045297" lon="17.817926">
        <ele>38</ele>
        <time>2014-10-11T13:50:28Z</time>
      </trkpt>
      <trkpt lat="59.045274" lon="17.817782">
        <ele>37.9</ele>
        <time>2014-10-11T13:50:29Z</time>
      </trkpt>
      <trkpt lat="59.045261" lon="17.81762">
        <ele>37.7</ele>
        <time>2014-10-11T13:50:30Z</time>
      </trkpt>
      <trkpt lat="59.045249" lon="17.817491">
        <ele>37.6</ele>
        <time>2014-10-11T13:50:31Z</time>
      </trkpt>
      <trkpt lat="59.04523" lon="17.817329">
        <ele>37.5</ele>
        <time>2014-10-11T13:50:32Z</time>
      </trkpt>
      <trkpt lat="59.045211" lon="17.81716">
        <ele>37.3</ele>
        <time>2014-10-11T13:50:33Z</time>
      </trkpt>
      <trkpt lat="59.045189" lon="17.816996">
        <ele>37.1</ele>
        <time>2014-10-11T13:50:34Z</time>
      </trkpt>
      <trkpt lat="59.045171" lon="17.81686">
        <ele>36.8</ele>
        <time>2014-10-11T13:50:35Z</time>
      </trkpt>
      <trkpt lat="59.04515" lon="17.816691">
        <ele>36.4</ele>
        <time>2014-10-11T13:50:36Z</time>
      </trkpt>
      <trkpt lat="59.045137" lon="17.816537">
        <ele>36</ele>
        <time>2014-10-11T13:50:37Z</time>
      </trkpt>
      <trkpt lat="59.045122" lon="17.816384">
        <ele>35.6</ele>
        <time>2014-10-11T13:50:38Z</time>
      </trkpt>
      <trkpt lat="59.045096" lon="17.816218">
        <ele>35.2</ele>
        <time>2014-10-11T13:50:39Z</time>
      </trkpt>
      <trkpt lat="59.045061" lon="17.816059">
        <ele>34.9</ele>
        <time>2014-10-11T13:50:40Z</time>
      </trkpt>
      <trkpt lat="59.045022" lon="17.815927">
        <ele>34.5</ele>
        <time>2014-10-11T13:50:41Z</time>
      </trkpt>
      <trkpt lat="59.044972" lon="17.8158">
        <ele>34.1</ele>
        <time>2014-10-11T13:50:42Z</time>
      </trkpt>
      <trkpt lat="59.044904" lon="17.81569">
        <ele>33.5</ele>
        <time>2014-10-11T13:50:43Z</time>
      </trkpt>
      <trkpt lat="59.044836" lon="17.81561">
        <ele>33</ele>
        <time>2014-10-11T13:50:44Z</time>
      </trkpt>
      <trkpt lat="59.044767" lon="17.815542">
        <ele>32.5</ele>
        <time>2014-10-11T13:50:45Z</time>
      </trkpt>
      <trkpt lat="59.044695" lon="17.815468">
        <ele>31.8</ele>
        <time>2014-10-11T13:50:46Z</time>
      </trkpt>
      <trkpt lat="59.044622" lon="17.815401">
        <ele>31.2</ele>
        <time>2014-10-11T13:50:47Z</time>
      </trkpt>
      <trkpt lat="59.044557" lon="17.815299">
        <ele>30.8</ele>
        <time>2014-10-11T13:50:48Z</time>
      </trkpt>
      <trkpt lat="59.044499" lon="17.815185">
        <ele>30.6</ele>
        <time>2014-10-11T13:50:49Z</time>
      </trkpt>
      <trkpt lat="59.044452" lon="17.815041">
        <ele>30.5</ele>
        <time>2014-10-11T13:50:50Z</time>
      </trkpt>
      <trkpt lat="59.044412" lon="17.814923">
        <ele>30.5</ele>
        <time>2014-10-11T13:50:51Z</time>
      </trkpt>
      <trkpt lat="59.044376" lon="17.814773">
        <ele>30.6</ele>
        <time>2014-10-11T13:50:52Z</time>
      </trkpt>
      <trkpt lat="59.044344" lon="17.814626">
        <ele>30.8</ele>
        <time>2014-10-11T13:50:53Z</time>
      </trkpt>
      <trkpt lat="59.044324" lon="17.814477">
        <ele>31.1</ele>
        <time>2014-10-11T13:50:54Z</time>
      </trkpt>
      <trkpt lat="59.044305" lon="17.814307">
        <ele>31.6</ele>
        <time>2014-10-11T13:50:55Z</time>
      </trkpt>
      <trkpt lat="59.044296" lon="17.814137">
        <ele>32</ele>
        <time>2014-10-11T13:50:56Z</time>
      </trkpt>
      <trkpt lat="59.044289" lon="17.813943">
        <ele>32.4</ele>
        <time>2014-10-11T13:50:57Z</time>
      </trkpt>
      <trkpt lat="59.044295" lon="17.81376">
        <ele>32.7</ele>
        <time>2014-10-11T13:50:58Z</time>
      </trkpt>
      <trkpt lat="59.044298" lon="17.813569">
        <ele>31.9</ele>
        <time>2014-10-11T13:50:59Z</time>
      </trkpt>
      <trkpt lat="59.044302" lon="17.813398">
        <ele>31</ele>
        <time>2014-10-11T13:51:00Z</time>
      </trkpt>
      <trkpt lat="59.044309" lon="17.813188">
        <ele>29.9</ele>
        <time>2014-10-11T13:51:01Z</time>
      </trkpt>
      <trkpt lat="59.044323" lon="17.812996">
        <ele>28.9</ele>
        <time>2014-10-11T13:51:02Z</time>
      </trkpt>
      <trkpt lat="59.04434" lon="17.812808">
        <ele>28</ele>
        <time>2014-10-11T13:51:03Z</time>
      </trkpt>
      <trkpt lat="59.044345" lon="17.812624">
        <ele>27.2</ele>
        <time>2014-10-11T13:51:04Z</time>
      </trkpt>
      <trkpt lat="59.044353" lon="17.812431">
        <ele>26.3</ele>
        <time>2014-10-11T13:51:05Z</time>
      </trkpt>
      <trkpt lat="59.044355" lon="17.812246">
        <ele>25.5</ele>
        <time>2014-10-11T13:51:06Z</time>
      </trkpt>
      <trkpt lat="59.044361" lon="17.812061">
        <ele>24.8</ele>
        <time>2014-10-11T13:51:07Z</time>
      </trkpt>
      <trkpt lat="59.044367" lon="17.811917">
        <ele>24.5</ele>
        <time>2014-10-11T13:51:08Z</time>
      </trkpt>
      <trkpt lat="59.044377" lon="17.811771">
        <ele>24.2</ele>
        <time>2014-10-11T13:51:09Z</time>
      </trkpt>
      <trkpt lat="59.044383" lon="17.8116">
        <ele>23.9</ele>
        <time>2014-10-11T13:51:10Z</time>
      </trkpt>
      <trkpt lat="59.044391" lon="17.811432">
        <ele>23.6</ele>
        <time>2014-10-11T13:51:11Z</time>
      </trkpt>
      <trkpt lat="59.044398" lon="17.811269">
        <ele>23.3</ele>
        <time>2014-10-11T13:51:12Z</time>
      </trkpt>
      <trkpt lat="59.044395" lon="17.811091">
        <ele>23</ele>
        <time>2014-10-11T13:51:13Z</time>
      </trkpt>
      <trkpt lat="59.044397" lon="17.810903">
        <ele>22.7</ele>
        <time>2014-10-11T13:51:14Z</time>
      </trkpt>
      <trkpt lat="59.0444" lon="17.810737">
        <ele>22.5</ele>
        <time>2014-10-11T13:51:15Z</time>
      </trkpt>
      <trkpt lat="59.044411" lon="17.81057">
        <ele>22.2</ele>
        <time>2014-10-11T13:51:16Z</time>
      </trkpt>
      <trkpt lat="59.04442" lon="17.810396">
        <ele>22</ele>
        <time>2014-10-11T13:51:17Z</time>
      </trkpt>
      <trkpt lat="59.044426" lon="17.810233">
        <ele>21.9</ele>
        <time>2014-10-11T13:51:18Z</time>
      </trkpt>
      <trkpt lat="59.044435" lon="17.81007">
        <ele>21.7</ele>
        <time>2014-10-11T13:51:19Z</time>
      </trkpt>
      <trkpt lat="59.044444" lon="17.809903">
        <ele>21.6</ele>
        <time>2014-10-11T13:51:20Z</time>
      </trkpt>
      <trkpt lat="59.044447" lon="17.809721">
        <ele>21.4</ele>
        <time>2014-10-11T13:51:21Z</time>
      </trkpt>
      <trkpt lat="59.044453" lon="17.809561">
        <ele>21.3</ele>
        <time>2014-10-11T13:51:22Z</time>
      </trkpt>
      <trkpt lat="59.04446" lon="17.809397">
        <ele>21.3</ele>
        <time>2014-10-11T13:51:23Z</time>
      </trkpt>
      <trkpt lat="59.044459" lon="17.809224">
        <ele>21.3</ele>
        <time>2014-10-11T13:51:24Z</time>
      </trkpt>
      <trkpt lat="59.044463" lon="17.809075">
        <ele>21.3</ele>
        <time>2014-10-11T13:51:25Z</time>
      </trkpt>
      <trkpt lat="59.04447" lon="17.808927">
        <ele>21.3</ele>
        <time>2014-10-11T13:51:26Z</time>
      </trkpt>
      <trkpt lat="59.044482" lon="17.808799">
        <ele>21.2</ele>
        <time>2014-10-11T13:51:27Z</time>
      </trkpt>
      <trkpt lat="59.044487" lon="17.808655">
        <ele>21.1</ele>
        <time>2014-10-11T13:51:28Z</time>
      </trkpt>
      <trkpt lat="59.044498" lon="17.808528">
        <ele>20.9</ele>
        <time>2014-10-11T13:51:29Z</time>
      </trkpt>
      <trkpt lat="59.044509" lon="17.808401">
        <ele>20.8</ele>
        <time>2014-10-11T13:51:30Z</time>
      </trkpt>
      <trkpt lat="59.044512" lon="17.808276">
        <ele>20.6</ele>
        <time>2014-10-11T13:51:31Z</time>
      </trkpt>
      <trkpt lat="59.04452" lon="17.808166">
        <ele>20.5</ele>
        <time>2014-10-11T13:51:32Z</time>
      </trkpt>
      <trkpt lat="59.044532" lon="17.808047">
        <ele>20.3</ele>
        <time>2014-10-11T13:51:33Z</time>
      </trkpt>
      <trkpt lat="59.04454" lon="17.807931">
        <ele>20.1</ele>
        <time>2014-10-11T13:51:34Z</time>
      </trkpt>
      <trkpt lat="59.044555" lon="17.807819">
        <ele>20.1</ele>
        <time>2014-10-11T13:51:35Z</time>
      </trkpt>
      <trkpt lat="59.044552" lon="17.80775">
        <ele>20.1</ele>
        <time>2014-10-11T13:51:36Z</time>
      </trkpt>
      <trkpt lat="59.044565" lon="17.807639">
        <ele>20</ele>
        <time>2014-10-11T13:51:37Z</time>
      </trkpt>
      <trkpt lat="59.044571" lon="17.807568">
        <ele>20</ele>
        <time>2014-10-11T13:51:38Z</time>
      </trkpt>
      <trkpt lat="59.044581" lon="17.80748">
        <ele>20</ele>
        <time>2014-10-11T13:51:39Z</time>
      </trkpt>
      <trkpt lat="59.044593" lon="17.807402">
        <ele>20</ele>
        <time>2014-10-11T13:51:40Z</time>
      </trkpt>
      <trkpt lat="59.044605" lon="17.807326">
        <ele>20.1</ele>
        <time>2014-10-11T13:51:41Z</time>
      </trkpt>
      <trkpt lat="59.044615" lon="17.807261">
        <ele>20.1</ele>
        <time>2014-10-11T13:51:42Z</time>
      </trkpt>
      <trkpt lat="59.044625" lon="17.807185">
        <ele>20.1</ele>
        <time>2014-10-11T13:51:43Z</time>
      </trkpt>
      <trkpt lat="59.044635" lon="17.807071">
        <ele>20.1</ele>
        <time>2014-10-11T13:51:45Z</time>
      </trkpt>
      <trkpt lat="59.044667" lon="17.806975">
        <ele>20.2</ele>
        <time>2014-10-11T13:51:47Z</time>
      </trkpt>
      <trkpt lat="59.044691" lon="17.806945">
        <ele>20.3</ele>
        <time>2014-10-11T13:51:48Z</time>
      </trkpt>
      <trkpt lat="59.044754" lon="17.806914">
        <ele>20.4</ele>
        <time>2014-10-11T13:52:41Z</time>
      </trkpt>
      <trkpt lat="59.044787" lon="17.806919">
        <ele>20.5</ele>
        <time>2014-10-11T13:52:43Z</time>
      </trkpt>
      <trkpt lat="59.044834" lon="17.806943">
        <ele>20.6</ele>
        <time>2014-10-11T13:52:45Z</time>
      </trkpt>
      <trkpt lat="59.044866" lon="17.806959">
        <ele>20.7</ele>
        <time>2014-10-11T13:52:46Z</time>
      </trkpt>
      <trkpt lat="59.044902" lon="17.806976">
        <ele>20.8</ele>
        <time>2014-10-11T13:52:47Z</time>
      </trkpt>
      <trkpt lat="59.044941" lon="17.806991">
        <ele>20.9</ele>
        <time>2014-10-11T13:52:48Z</time>
      </trkpt>
      <trkpt lat="59.044984" lon="17.807008">
        <ele>21</ele>
        <time>2014-10-11T13:52:49Z</time>
      </trkpt>
      <trkpt lat="59.045025" lon="17.807026">
        <ele>21.1</ele>
        <time>2014-10-11T13:52:50Z</time>
      </trkpt>
      <trkpt lat="59.04507" lon="17.807046">
        <ele>21.2</ele>
        <time>2014-10-11T13:52:51Z</time>
      </trkpt>
      <trkpt lat="59.045152" lon="17.807075">
        <ele>21.4</ele>
        <time>2014-10-11T13:52:52Z</time>
      </trkpt>
      <trkpt lat="59.045203" lon="17.807087">
        <ele>21.5</ele>
        <time>2014-10-11T13:52:53Z</time>
      </trkpt>
      <trkpt lat="59.045254" lon="17.807121">
        <ele>21.6</ele>
        <time>2014-10-11T13:52:54Z</time>
      </trkpt>
      <trkpt lat="59.045299" lon="17.807131">
        <ele>21.7</ele>
        <time>2014-10-11T13:52:55Z</time>
      </trkpt>
      <trkpt lat="59.045343" lon="17.807136">
        <ele>21.8</ele>
        <time>2014-10-11T13:52:56Z</time>
      </trkpt>
      <trkpt lat="59.04549" lon="17.80719">
        <ele>22.4</ele>
        <time>2014-10-11T13:52:59Z</time>
      </trkpt>
      <trkpt lat="59.045542" lon="17.807218">
        <ele>22.8</ele>
        <time>2014-10-11T13:53:00Z</time>
      </trkpt>
      <trkpt lat="59.045599" lon="17.807244">
        <ele>23.1</ele>
        <time>2014-10-11T13:53:01Z</time>
      </trkpt>
      <trkpt lat="59.045647" lon="17.807253">
        <ele>23.4</ele>
        <time>2014-10-11T13:53:02Z</time>
      </trkpt>
      <trkpt lat="59.045697" lon="17.807257">
        <ele>23.7</ele>
        <time>2014-10-11T13:53:03Z</time>
      </trkpt>
      <trkpt lat="59.04575" lon="17.80726">
        <ele>24</ele>
        <time>2014-10-11T13:53:04Z</time>
      </trkpt>
      <trkpt lat="59.045794" lon="17.807275">
        <ele>24.3</ele>
        <time>2014-10-11T13:53:05Z</time>
      </trkpt>
      <trkpt lat="59.045846" lon="17.807297">
        <ele>24.6</ele>
        <time>2014-10-11T13:53:06Z</time>
      </trkpt>
      <trkpt lat="59.045898" lon="17.807309">
        <ele>24.9</ele>
        <time>2014-10-11T13:53:07Z</time>
      </trkpt>
      <trkpt lat="59.045942" lon="17.807318">
        <ele>25.2</ele>
        <time>2014-10-11T13:53:08Z</time>
      </trkpt>
      <trkpt lat="59.045999" lon="17.807328">
        <ele>25.5</ele>
        <time>2014-10-11T13:53:09Z</time>
      </trkpt>
      <trkpt lat="59.046052" lon="17.807327">
        <ele>25.8</ele>
        <time>2014-10-11T13:53:10Z</time>
      </trkpt>
      <trkpt lat="59.046101" lon="17.807333">
        <ele>26.1</ele>
        <time>2014-10-11T13:53:11Z</time>
      </trkpt>
      <trkpt lat="59.046147" lon="17.807336">
        <ele>26.4</ele>
        <time>2014-10-11T13:53:12Z</time>
      </trkpt>
      <trkpt lat="59.046198" lon="17.80734">
        <ele>26.7</ele>
        <time>2014-10-11T13:53:13Z</time>
      </trkpt>
      <trkpt lat="59.046245" lon="17.807343">
        <ele>27</ele>
        <time>2014-10-11T13:53:14Z</time>
      </trkpt>
      <trkpt lat="59.046296" lon="17.807333">
        <ele>27.3</ele>
        <time>2014-10-11T13:53:15Z</time>
      </trkpt>
      <trkpt lat="59.046349" lon="17.807333">
        <ele>27.6</ele>
        <time>2014-10-11T13:53:16Z</time>
      </trkpt>
      <trkpt lat="59.046396" lon="17.807327">
        <ele>27.9</ele>
        <time>2014-10-11T13:53:17Z</time>
      </trkpt>
      <trkpt lat="59.046451" lon="17.807338">
        <ele>28.2</ele>
        <time>2014-10-11T13:53:18Z</time>
      </trkpt>
      <trkpt lat="59.046509" lon="17.807332">
        <ele>28.6</ele>
        <time>2014-10-11T13:53:19Z</time>
      </trkpt>
      <trkpt lat="59.046565" lon="17.807339">
        <ele>28.9</ele>
        <time>2014-10-11T13:53:20Z</time>
      </trkpt>
      <trkpt lat="59.04662" lon="17.807352">
        <ele>29.2</ele>
        <time>2014-10-11T13:53:21Z</time>
      </trkpt>
      <trkpt lat="59.04667" lon="17.807363">
        <ele>29.5</ele>
        <time>2014-10-11T13:53:22Z</time>
      </trkpt>
      <trkpt lat="59.046717" lon="17.807372">
        <ele>29.8</ele>
        <time>2014-10-11T13:53:23Z</time>
      </trkpt>
      <trkpt lat="59.046775" lon="17.807376">
        <ele>30.2</ele>
        <time>2014-10-11T13:53:24Z</time>
      </trkpt>
      <trkpt lat="59.046838" lon="17.807362">
        <ele>30.5</ele>
        <time>2014-10-11T13:53:25Z</time>
      </trkpt>
      <trkpt lat="59.046895" lon="17.807354">
        <ele>30.9</ele>
        <time>2014-10-11T13:53:26Z</time>
      </trkpt>
      <trkpt lat="59.046957" lon="17.807362">
        <ele>31.2</ele>
        <time>2014-10-11T13:53:27Z</time>
      </trkpt>
      <trkpt lat="59.047019" lon="17.807372">
        <ele>31.6</ele>
        <time>2014-10-11T13:53:28Z</time>
      </trkpt>
      <trkpt lat="59.047084" lon="17.807433">
        <ele>32</ele>
        <time>2014-10-11T13:53:29Z</time>
      </trkpt>
      <trkpt lat="59.047155" lon="17.807435">
        <ele>31.9</ele>
        <time>2014-10-11T13:53:30Z</time>
      </trkpt>
      <trkpt lat="59.047212" lon="17.807429">
        <ele>31.7</ele>
        <time>2014-10-11T13:53:31Z</time>
      </trkpt>
      <trkpt lat="59.047285" lon="17.80743">
        <ele>31.6</ele>
        <time>2014-10-11T13:53:32Z</time>
      </trkpt>
      <trkpt lat="59.047354" lon="17.807432">
        <ele>31.4</ele>
        <time>2014-10-11T13:53:33Z</time>
      </trkpt>
      <trkpt lat="59.047426" lon="17.807429">
        <ele>31.3</ele>
        <time>2014-10-11T13:53:34Z</time>
      </trkpt>
      <trkpt lat="59.047498" lon="17.807432">
        <ele>31.1</ele>
        <time>2014-10-11T13:53:35Z</time>
      </trkpt>
      <trkpt lat="59.047574" lon="17.807431">
        <ele>31</ele>
        <time>2014-10-11T13:53:36Z</time>
      </trkpt>
      <trkpt lat="59.047651" lon="17.807433">
        <ele>30.8</ele>
        <time>2014-10-11T13:53:37Z</time>
      </trkpt>
      <trkpt lat="59.047723" lon="17.807431">
        <ele>30.7</ele>
        <time>2014-10-11T13:53:38Z</time>
      </trkpt>
      <trkpt lat="59.047799" lon="17.807433">
        <ele>30.5</ele>
        <time>2014-10-11T13:53:39Z</time>
      </trkpt>
      <trkpt lat="59.047871" lon="17.80744">
        <ele>30.4</ele>
        <time>2014-10-11T13:53:40Z</time>
      </trkpt>
      <trkpt lat="59.047954" lon="17.807458">
        <ele>30.3</ele>
        <time>2014-10-11T13:53:41Z</time>
      </trkpt>
      <trkpt lat="59.048037" lon="17.807457">
        <ele>30.1</ele>
        <time>2014-10-11T13:53:42Z</time>
      </trkpt>
      <trkpt lat="59.048121" lon="17.807446">
        <ele>29.9</ele>
        <time>2014-10-11T13:53:43Z</time>
      </trkpt>
      <trkpt lat="59.04821" lon="17.807427">
        <ele>29.7</ele>
        <time>2014-10-11T13:53:44Z</time>
      </trkpt>
      <trkpt lat="59.048282" lon="17.807396">
        <ele>29.4</ele>
        <time>2014-10-11T13:53:45Z</time>
      </trkpt>
      <trkpt lat="59.048363" lon="17.80738">
        <ele>29.2</ele>
        <time>2014-10-11T13:53:46Z</time>
      </trkpt>
      <trkpt lat="59.048438" lon="17.807376">
        <ele>29</ele>
        <time>2014-10-11T13:53:47Z</time>
      </trkpt>
      <trkpt lat="59.048514" lon="17.807343">
        <ele>28.7</ele>
        <time>2014-10-11T13:53:48Z</time>
      </trkpt>
      <trkpt lat="59.048602" lon="17.80732">
        <ele>28.4</ele>
        <time>2014-10-11T13:53:49Z</time>
      </trkpt>
      <trkpt lat="59.048678" lon="17.807293">
        <ele>28.2</ele>
        <time>2014-10-11T13:53:50Z</time>
      </trkpt>
      <trkpt lat="59.048758" lon="17.807263">
        <ele>27.9</ele>
        <time>2014-10-11T13:53:51Z</time>
      </trkpt>
      <trkpt lat="59.048836" lon="17.807253">
        <ele>27.9</ele>
        <time>2014-10-11T13:53:52Z</time>
      </trkpt>
      <trkpt lat="59.048906" lon="17.807216">
        <ele>27.8</ele>
        <time>2014-10-11T13:53:53Z</time>
      </trkpt>
      <trkpt lat="59.048978" lon="17.807185">
        <ele>27.7</ele>
        <time>2014-10-11T13:53:54Z</time>
      </trkpt>
      <trkpt lat="59.049053" lon="17.807152">
        <ele>27.6</ele>
        <time>2014-10-11T13:53:55Z</time>
      </trkpt>
      <trkpt lat="59.049135" lon="17.807149">
        <ele>27.7</ele>
        <time>2014-10-11T13:53:56Z</time>
      </trkpt>
      <trkpt lat="59.049213" lon="17.807107">
        <ele>27.6</ele>
        <time>2014-10-11T13:53:57Z</time>
      </trkpt>
      <trkpt lat="59.04927" lon="17.807054">
        <ele>27.6</ele>
        <time>2014-10-11T13:53:58Z</time>
      </trkpt>
      <trkpt lat="59.049336" lon="17.807008">
        <ele>27.7</ele>
        <time>2014-10-11T13:53:59Z</time>
      </trkpt>
      <trkpt lat="59.04941" lon="17.806958">
        <ele>27.8</ele>
        <time>2014-10-11T13:54:00Z</time>
      </trkpt>
      <trkpt lat="59.049477" lon="17.806902">
        <ele>27.9</ele>
        <time>2014-10-11T13:54:01Z</time>
      </trkpt>
      <trkpt lat="59.049541" lon="17.806837">
        <ele>27.9</ele>
        <time>2014-10-11T13:54:02Z</time>
      </trkpt>
      <trkpt lat="59.049601" lon="17.80677">
        <ele>28</ele>
        <time>2014-10-11T13:54:03Z</time>
      </trkpt>
      <trkpt lat="59.049669" lon="17.806686">
        <ele>28.1</ele>
        <time>2014-10-11T13:54:04Z</time>
      </trkpt>
      <trkpt lat="59.049721" lon="17.806603">
        <ele>28.1</ele>
        <time>2014-10-11T13:54:05Z</time>
      </trkpt>
      <trkpt lat="59.049773" lon="17.806525">
        <ele>28.1</ele>
        <time>2014-10-11T13:54:06Z</time>
      </trkpt>
      <trkpt lat="59.049833" lon="17.806432">
        <ele>28.1</ele>
        <time>2014-10-11T13:54:07Z</time>
      </trkpt>
      <trkpt lat="59.049901" lon="17.806344">
        <ele>28</ele>
        <time>2014-10-11T13:54:08Z</time>
      </trkpt>
      <trkpt lat="59.049955" lon="17.806241">
        <ele>28</ele>
        <time>2014-10-11T13:54:09Z</time>
      </trkpt>
      <trkpt lat="59.05001" lon="17.806145">
        <ele>28</ele>
        <time>2014-10-11T13:54:10Z</time>
      </trkpt>
      <trkpt lat="59.050059" lon="17.806037">
        <ele>28</ele>
        <time>2014-10-11T13:54:11Z</time>
      </trkpt>
      <trkpt lat="59.050102" lon="17.805932">
        <ele>28</ele>
        <time>2014-10-11T13:54:12Z</time>
      </trkpt>
      <trkpt lat="59.05013" lon="17.805815">
        <ele>28</ele>
        <time>2014-10-11T13:54:13Z</time>
      </trkpt>
      <trkpt lat="59.050163" lon="17.805693">
        <ele>28</ele>
        <time>2014-10-11T13:54:14Z</time>
      </trkpt>
      <trkpt lat="59.050207" lon="17.805566">
        <ele>28</ele>
        <time>2014-10-11T13:54:15Z</time>
      </trkpt>
      <trkpt lat="59.050248" lon="17.805451">
        <ele>28</ele>
        <time>2014-10-11T13:54:16Z</time>
      </trkpt>
      <trkpt lat="59.050287" lon="17.805342">
        <ele>28.1</ele>
        <time>2014-10-11T13:54:17Z</time>
      </trkpt>
      <trkpt lat="59.050322" lon="17.805225">
        <ele>28.2</ele>
        <time>2014-10-11T13:54:18Z</time>
      </trkpt>
      <trkpt lat="59.050365" lon="17.805107">
        <ele>28.3</ele>
        <time>2014-10-11T13:54:19Z</time>
      </trkpt>
      <trkpt lat="59.050411" lon="17.804985">
        <ele>28.5</ele>
        <time>2014-10-11T13:54:20Z</time>
      </trkpt>
      <trkpt lat="59.050456" lon="17.804861">
        <ele>28.7</ele>
        <time>2014-10-11T13:54:21Z</time>
      </trkpt>
      <trkpt lat="59.05051" lon="17.804726">
        <ele>28.8</ele>
        <time>2014-10-11T13:54:22Z</time>
      </trkpt>
      <trkpt lat="59.050563" lon="17.804593">
        <ele>29</ele>
        <time>2014-10-11T13:54:23Z</time>
      </trkpt>
      <trkpt lat="59.050613" lon="17.804456">
        <ele>29</ele>
        <time>2014-10-11T13:54:24Z</time>
      </trkpt>
      <trkpt lat="59.050669" lon="17.804332">
        <ele>29</ele>
        <time>2014-10-11T13:54:25Z</time>
      </trkpt>
      <trkpt lat="59.050723" lon="17.804234">
        <ele>29</ele>
        <time>2014-10-11T13:54:26Z</time>
      </trkpt>
      <trkpt lat="59.050789" lon="17.804124">
        <ele>29</ele>
        <time>2014-10-11T13:54:27Z</time>
      </trkpt>
      <trkpt lat="59.050847" lon="17.804005">
        <ele>29</ele>
        <time>2014-10-11T13:54:28Z</time>
      </trkpt>
      <trkpt lat="59.050907" lon="17.803902">
        <ele>29</ele>
        <time>2014-10-11T13:54:29Z</time>
      </trkpt>
      <trkpt lat="59.050969" lon="17.803811">
        <ele>29</ele>
        <time>2014-10-11T13:54:30Z</time>
      </trkpt>
      <trkpt lat="59.05103" lon="17.80373">
        <ele>29.2</ele>
        <time>2014-10-11T13:54:31Z</time>
      </trkpt>
      <trkpt lat="59.051083" lon="17.803634">
        <ele>29.9</ele>
        <time>2014-10-11T13:54:32Z</time>
      </trkpt>
      <trkpt lat="59.051146" lon="17.803542">
        <ele>30.8</ele>
        <time>2014-10-11T13:54:33Z</time>
      </trkpt>
      <trkpt lat="59.051206" lon="17.80345">
        <ele>31.8</ele>
        <time>2014-10-11T13:54:34Z</time>
      </trkpt>
      <trkpt lat="59.051272" lon="17.80336">
        <ele>32.8</ele>
        <time>2014-10-11T13:54:35Z</time>
      </trkpt>
      <trkpt lat="59.05134" lon="17.803267">
        <ele>34</ele>
        <time>2014-10-11T13:54:36Z</time>
      </trkpt>
      <trkpt lat="59.051395" lon="17.803198">
        <ele>34.9</ele>
        <time>2014-10-11T13:54:37Z</time>
      </trkpt>
      <trkpt lat="59.05146" lon="17.803134">
        <ele>35.9</ele>
        <time>2014-10-11T13:54:38Z</time>
      </trkpt>
      <trkpt lat="59.051532" lon="17.803063">
        <ele>37</ele>
        <time>2014-10-11T13:54:39Z</time>
      </trkpt>
      <trkpt lat="59.051606" lon="17.803007">
        <ele>38.1</ele>
        <time>2014-10-11T13:54:40Z</time>
      </trkpt>
      <trkpt lat="59.051683" lon="17.802972">
        <ele>38.9</ele>
        <time>2014-10-11T13:54:41Z</time>
      </trkpt>
      <trkpt lat="59.05176" lon="17.80295">
        <ele>39.6</ele>
        <time>2014-10-11T13:54:42Z</time>
      </trkpt>
      <trkpt lat="59.051838" lon="17.802945">
        <ele>40.2</ele>
        <time>2014-10-11T13:54:43Z</time>
      </trkpt>
      <trkpt lat="59.051919" lon="17.802938">
        <ele>40.7</ele>
        <time>2014-10-11T13:54:44Z</time>
      </trkpt>
      <trkpt lat="59.051999" lon="17.802956">
        <ele>40.9</ele>
        <time>2014-10-11T13:54:45Z</time>
      </trkpt>
      <trkpt lat="59.052075" lon="17.80297">
        <ele>41.2</ele>
        <time>2014-10-11T13:54:46Z</time>
      </trkpt>
      <trkpt lat="59.052151" lon="17.802988">
        <ele>41.3</ele>
        <time>2014-10-11T13:54:47Z</time>
      </trkpt>
      <trkpt lat="59.052227" lon="17.803013">
        <ele>41.3</ele>
        <time>2014-10-11T13:54:48Z</time>
      </trkpt>
      <trkpt lat="59.052298" lon="17.803039">
        <ele>41.2</ele>
        <time>2014-10-11T13:54:49Z</time>
      </trkpt>
      <trkpt lat="59.052372" lon="17.803052">
        <ele>41.4</ele>
        <time>2014-10-11T13:54:50Z</time>
      </trkpt>
      <trkpt lat="59.052445" lon="17.803078">
        <ele>41.3</ele>
        <time>2014-10-11T13:54:51Z</time>
      </trkpt>
      <trkpt lat="59.05252" lon="17.8031">
        <ele>41.3</ele>
        <time>2014-10-11T13:54:52Z</time>
      </trkpt>
      <trkpt lat="59.052593" lon="17.803115">
        <ele>41.4</ele>
        <time>2014-10-11T13:54:53Z</time>
      </trkpt>
      <trkpt lat="59.052653" lon="17.803138">
        <ele>41.4</ele>
        <time>2014-10-11T13:54:54Z</time>
      </trkpt>
      <trkpt lat="59.052728" lon="17.803168">
        <ele>41.2</ele>
        <time>2014-10-11T13:54:55Z</time>
      </trkpt>
      <trkpt lat="59.052798" lon="17.803202">
        <ele>41</ele>
        <time>2014-10-11T13:54:56Z</time>
      </trkpt>
      <trkpt lat="59.052883" lon="17.803238">
        <ele>40.8</ele>
        <time>2014-10-11T13:54:57Z</time>
      </trkpt>
      <trkpt lat="59.052954" lon="17.803274">
        <ele>40.5</ele>
        <time>2014-10-11T13:54:58Z</time>
      </trkpt>
      <trkpt lat="59.053023" lon="17.803324">
        <ele>39.9</ele>
        <time>2014-10-11T13:54:59Z</time>
      </trkpt>
      <trkpt lat="59.05309" lon="17.803378">
        <ele>39.2</ele>
        <time>2014-10-11T13:55:00Z</time>
      </trkpt>
      <trkpt lat="59.053161" lon="17.803435">
        <ele>38.5</ele>
        <time>2014-10-11T13:55:01Z</time>
      </trkpt>
      <trkpt lat="59.053222" lon="17.803495">
        <ele>37.7</ele>
        <time>2014-10-11T13:55:02Z</time>
      </trkpt>
      <trkpt lat="59.053291" lon="17.80356">
        <ele>36.9</ele>
        <time>2014-10-11T13:55:03Z</time>
      </trkpt>
      <trkpt lat="59.053348" lon="17.803625">
        <ele>36</ele>
        <time>2014-10-11T13:55:04Z</time>
      </trkpt>
      <trkpt lat="59.05341" lon="17.803696">
        <ele>35</ele>
        <time>2014-10-11T13:55:05Z</time>
      </trkpt>
      <trkpt lat="59.053469" lon="17.803754">
        <ele>34.3</ele>
        <time>2014-10-11T13:55:06Z</time>
      </trkpt>
      <trkpt lat="59.053534" lon="17.803811">
        <ele>34.3</ele>
        <time>2014-10-11T13:55:07Z</time>
      </trkpt>
      <trkpt lat="59.053604" lon="17.803876">
        <ele>34.2</ele>
        <time>2014-10-11T13:55:08Z</time>
      </trkpt>
      <trkpt lat="59.053675" lon="17.80392">
        <ele>34.2</ele>
        <time>2014-10-11T13:55:09Z</time>
      </trkpt>
      <trkpt lat="59.053751" lon="17.803968">
        <ele>34.2</ele>
        <time>2014-10-11T13:55:10Z</time>
      </trkpt>
      <trkpt lat="59.053825" lon="17.804011">
        <ele>34.2</ele>
        <time>2014-10-11T13:55:11Z</time>
      </trkpt>
      <trkpt lat="59.053894" lon="17.804059">
        <ele>34.2</ele>
        <time>2014-10-11T13:55:12Z</time>
      </trkpt>
      <trkpt lat="59.053977" lon="17.804108">
        <ele>34.1</ele>
        <time>2014-10-11T13:55:13Z</time>
      </trkpt>
      <trkpt lat="59.054055" lon="17.804158">
        <ele>34.1</ele>
        <time>2014-10-11T13:55:14Z</time>
      </trkpt>
      <trkpt lat="59.054142" lon="17.804195">
        <ele>34.1</ele>
        <time>2014-10-11T13:55:15Z</time>
      </trkpt>
      <trkpt lat="59.054223" lon="17.804239">
        <ele>34</ele>
        <time>2014-10-11T13:55:16Z</time>
      </trkpt>
      <trkpt lat="59.054308" lon="17.804275">
        <ele>34</ele>
        <time>2014-10-11T13:55:17Z</time>
      </trkpt>
      <trkpt lat="59.054391" lon="17.804314">
        <ele>34</ele>
        <time>2014-10-11T13:55:18Z</time>
      </trkpt>
      <trkpt lat="59.054472" lon="17.804363">
        <ele>33.9</ele>
        <time>2014-10-11T13:55:19Z</time>
      </trkpt>
      <trkpt lat="59.054554" lon="17.804413">
        <ele>33.8</ele>
        <time>2014-10-11T13:55:20Z</time>
      </trkpt>
      <trkpt lat="59.054637" lon="17.804457">
        <ele>33.5</ele>
        <time>2014-10-11T13:55:21Z</time>
      </trkpt>
      <trkpt lat="59.054715" lon="17.804491">
        <ele>33.3</ele>
        <time>2014-10-11T13:55:22Z</time>
      </trkpt>
      <trkpt lat="59.054806" lon="17.804533">
        <ele>33</ele>
        <time>2014-10-11T13:55:23Z</time>
      </trkpt>
      <trkpt lat="59.054895" lon="17.80457">
        <ele>32.7</ele>
        <time>2014-10-11T13:55:24Z</time>
      </trkpt>
      <trkpt lat="59.054968" lon="17.804608">
        <ele>32.4</ele>
        <time>2014-10-11T13:55:25Z</time>
      </trkpt>
      <trkpt lat="59.055054" lon="17.804648">
        <ele>32.1</ele>
        <time>2014-10-11T13:55:26Z</time>
      </trkpt>
      <trkpt lat="59.055137" lon="17.804686">
        <ele>31.9</ele>
        <time>2014-10-11T13:55:27Z</time>
      </trkpt>
      <trkpt lat="59.055206" lon="17.804728">
        <ele>31.6</ele>
        <time>2014-10-11T13:55:28Z</time>
      </trkpt>
      <trkpt lat="59.055283" lon="17.804764">
        <ele>31.4</ele>
        <time>2014-10-11T13:55:29Z</time>
      </trkpt>
      <trkpt lat="59.05536" lon="17.8048">
        <ele>31.3</ele>
        <time>2014-10-11T13:55:30Z</time>
      </trkpt>
      <trkpt lat="59.055434" lon="17.80484">
        <ele>31.1</ele>
        <time>2014-10-11T13:55:31Z</time>
      </trkpt>
      <trkpt lat="59.055508" lon="17.804875">
        <ele>31.1</ele>
        <time>2014-10-11T13:55:32Z</time>
      </trkpt>
      <trkpt lat="59.055586" lon="17.804915">
        <ele>31</ele>
        <time>2014-10-11T13:55:33Z</time>
      </trkpt>
      <trkpt lat="59.055667" lon="17.804954">
        <ele>31</ele>
        <time>2014-10-11T13:55:34Z</time>
      </trkpt>
      <trkpt lat="59.055749" lon="17.804988">
        <ele>30.9</ele>
        <time>2014-10-11T13:55:35Z</time>
      </trkpt>
      <trkpt lat="59.05583" lon="17.805018">
        <ele>30.9</ele>
        <time>2014-10-11T13:55:36Z</time>
      </trkpt>
      <trkpt lat="59.055909" lon="17.805044">
        <ele>30.9</ele>
        <time>2014-10-11T13:55:37Z</time>
      </trkpt>
      <trkpt lat="59.055984" lon="17.805081">
        <ele>30.9</ele>
        <time>2014-10-11T13:55:38Z</time>
      </trkpt>
      <trkpt lat="59.056056" lon="17.805108">
        <ele>30.9</ele>
        <time>2014-10-11T13:55:39Z</time>
      </trkpt>
      <trkpt lat="59.056136" lon="17.805148">
        <ele>30.8</ele>
        <time>2014-10-11T13:55:40Z</time>
      </trkpt>
      <trkpt lat="59.056209" lon="17.805176">
        <ele>30.8</ele>
        <time>2014-10-11T13:55:41Z</time>
      </trkpt>
      <trkpt lat="59.056285" lon="17.805201">
        <ele>30.8</ele>
        <time>2014-10-11T13:55:42Z</time>
      </trkpt>
      <trkpt lat="59.056362" lon="17.805248">
        <ele>30.6</ele>
        <time>2014-10-11T13:55:43Z</time>
      </trkpt>
      <trkpt lat="59.056442" lon="17.805275">
        <ele>30.5</ele>
        <time>2014-10-11T13:55:44Z</time>
      </trkpt>
      <trkpt lat="59.056515" lon="17.805311">
        <ele>30.4</ele>
        <time>2014-10-11T13:55:45Z</time>
      </trkpt>
      <trkpt lat="59.056583" lon="17.805309">
        <ele>30.4</ele>
        <time>2014-10-11T13:55:46Z</time>
      </trkpt>
      <trkpt lat="59.056666" lon="17.805366">
        <ele>30.2</ele>
        <time>2014-10-11T13:55:47Z</time>
      </trkpt>
      <trkpt lat="59.05674" lon="17.805397">
        <ele>30.1</ele>
        <time>2014-10-11T13:55:48Z</time>
      </trkpt>
      <trkpt lat="59.05682" lon="17.805431">
        <ele>30</ele>
        <time>2014-10-11T13:55:49Z</time>
      </trkpt>
      <trkpt lat="59.056896" lon="17.805458">
        <ele>30</ele>
        <time>2014-10-11T13:55:50Z</time>
      </trkpt>
      <trkpt lat="59.056969" lon="17.805457">
        <ele>30</ele>
        <time>2014-10-11T13:55:51Z</time>
      </trkpt>
      <trkpt lat="59.057039" lon="17.805469">
        <ele>30</ele>
        <time>2014-10-11T13:55:52Z</time>
      </trkpt>
      <trkpt lat="59.057118" lon="17.805459">
        <ele>30</ele>
        <time>2014-10-11T13:55:53Z</time>
      </trkpt>
      <trkpt lat="59.057193" lon="17.805459">
        <ele>30.1</ele>
        <time>2014-10-11T13:55:54Z</time>
      </trkpt>
      <trkpt lat="59.057259" lon="17.805451">
        <ele>30.2</ele>
        <time>2014-10-11T13:55:55Z</time>
      </trkpt>
      <trkpt lat="59.057345" lon="17.805456">
        <ele>30.3</ele>
        <time>2014-10-11T13:55:56Z</time>
      </trkpt>
      <trkpt lat="59.057423" lon="17.80544">
        <ele>30.4</ele>
        <time>2014-10-11T13:55:57Z</time>
      </trkpt>
      <trkpt lat="59.057499" lon="17.805427">
        <ele>30.5</ele>
        <time>2014-10-11T13:55:58Z</time>
      </trkpt>
      <trkpt lat="59.05757" lon="17.805416">
        <ele>30.6</ele>
        <time>2014-10-11T13:55:59Z</time>
      </trkpt>
      <trkpt lat="59.057636" lon="17.805411">
        <ele>30.7</ele>
        <time>2014-10-11T13:56:00Z</time>
      </trkpt>
      <trkpt lat="59.057709" lon="17.805407">
        <ele>30.8</ele>
        <time>2014-10-11T13:56:01Z</time>
      </trkpt>
      <trkpt lat="59.057785" lon="17.805412">
        <ele>30.8</ele>
        <time>2014-10-11T13:56:02Z</time>
      </trkpt>
      <trkpt lat="59.057861" lon="17.805414">
        <ele>30.9</ele>
        <time>2014-10-11T13:56:03Z</time>
      </trkpt>
      <trkpt lat="59.057939" lon="17.805417">
        <ele>31</ele>
        <time>2014-10-11T13:56:04Z</time>
      </trkpt>
      <trkpt lat="59.058013" lon="17.805422">
        <ele>31.1</ele>
        <time>2014-10-11T13:56:05Z</time>
      </trkpt>
      <trkpt lat="59.058086" lon="17.805431">
        <ele>31.2</ele>
        <time>2014-10-11T13:56:06Z</time>
      </trkpt>
      <trkpt lat="59.058164" lon="17.80545">
        <ele>31.3</ele>
        <time>2014-10-11T13:56:07Z</time>
      </trkpt>
      <trkpt lat="59.05824" lon="17.805471">
        <ele>31.4</ele>
        <time>2014-10-11T13:56:08Z</time>
      </trkpt>
      <trkpt lat="59.058312" lon="17.805482">
        <ele>31.5</ele>
        <time>2014-10-11T13:56:09Z</time>
      </trkpt>
      <trkpt lat="59.058382" lon="17.805493">
        <ele>31.6</ele>
        <time>2014-10-11T13:56:10Z</time>
      </trkpt>
      <trkpt lat="59.058448" lon="17.805512">
        <ele>31.6</ele>
        <time>2014-10-11T13:56:11Z</time>
      </trkpt>
      <trkpt lat="59.058525" lon="17.805534">
        <ele>31.7</ele>
        <time>2014-10-11T13:56:12Z</time>
      </trkpt>
      <trkpt lat="59.058591" lon="17.805546">
        <ele>31.8</ele>
        <time>2014-10-11T13:56:13Z</time>
      </trkpt>
      <trkpt lat="59.058661" lon="17.805548">
        <ele>31.9</ele>
        <time>2014-10-11T13:56:14Z</time>
      </trkpt>
      <trkpt lat="59.058729" lon="17.805569">
        <ele>32</ele>
        <time>2014-10-11T13:56:15Z</time>
      </trkpt>
      <trkpt lat="59.058799" lon="17.805568">
        <ele>31.9</ele>
        <time>2014-10-11T13:56:16Z</time>
      </trkpt>
      <trkpt lat="59.058862" lon="17.805584">
        <ele>31.9</ele>
        <time>2014-10-11T13:56:17Z</time>
      </trkpt>
      <trkpt lat="59.058933" lon="17.805589">
        <ele>31.8</ele>
        <time>2014-10-11T13:56:18Z</time>
      </trkpt>
      <trkpt lat="59.059007" lon="17.805607">
        <ele>31.7</ele>
        <time>2014-10-11T13:56:19Z</time>
      </trkpt>
      <trkpt lat="59.059077" lon="17.805611">
        <ele>31.6</ele>
        <time>2014-10-11T13:56:20Z</time>
      </trkpt>
      <trkpt lat="59.059149" lon="17.805625">
        <ele>31.5</ele>
        <time>2014-10-11T13:56:21Z</time>
      </trkpt>
      <trkpt lat="59.059224" lon="17.805637">
        <ele>31.4</ele>
        <time>2014-10-11T13:56:22Z</time>
      </trkpt>
      <trkpt lat="59.059295" lon="17.805648">
        <ele>31.3</ele>
        <time>2014-10-11T13:56:23Z</time>
      </trkpt>
      <trkpt lat="59.05937" lon="17.805654">
        <ele>31.3</ele>
        <time>2014-10-11T13:56:24Z</time>
      </trkpt>
      <trkpt lat="59.059443" lon="17.805659">
        <ele>31.2</ele>
        <time>2014-10-11T13:56:25Z</time>
      </trkpt>
      <trkpt lat="59.059506" lon="17.805666">
        <ele>31.1</ele>
        <time>2014-10-11T13:56:26Z</time>
      </trkpt>
      <trkpt lat="59.059575" lon="17.805686">
        <ele>31</ele>
        <time>2014-10-11T13:56:27Z</time>
      </trkpt>
      <trkpt lat="59.059646" lon="17.805703">
        <ele>31</ele>
        <time>2014-10-11T13:56:28Z</time>
      </trkpt>
      <trkpt lat="59.059711" lon="17.805707">
        <ele>31</ele>
        <time>2014-10-11T13:56:29Z</time>
      </trkpt>
      <trkpt lat="59.059779" lon="17.805721">
        <ele>31</ele>
        <time>2014-10-11T13:56:30Z</time>
      </trkpt>
      <trkpt lat="59.059837" lon="17.805729">
        <ele>31</ele>
        <time>2014-10-11T13:56:31Z</time>
      </trkpt>
      <trkpt lat="59.059907" lon="17.805737">
        <ele>31</ele>
        <time>2014-10-11T13:56:32Z</time>
      </trkpt>
      <trkpt lat="59.059977" lon="17.805732">
        <ele>31</ele>
        <time>2014-10-11T13:56:33Z</time>
      </trkpt>
      <trkpt lat="59.060046" lon="17.805734">
        <ele>31</ele>
        <time>2014-10-11T13:56:34Z</time>
      </trkpt>
      <trkpt lat="59.060112" lon="17.805751">
        <ele>31</ele>
        <time>2014-10-11T13:56:35Z</time>
      </trkpt>
      <trkpt lat="59.06018" lon="17.805763">
        <ele>31</ele>
        <time>2014-10-11T13:56:36Z</time>
      </trkpt>
      <trkpt lat="59.060253" lon="17.805774">
        <ele>31</ele>
        <time>2014-10-11T13:56:37Z</time>
      </trkpt>
      <trkpt lat="59.060324" lon="17.805782">
        <ele>31</ele>
        <time>2014-10-11T13:56:38Z</time>
      </trkpt>
      <trkpt lat="59.060399" lon="17.805788">
        <ele>31</ele>
        <time>2014-10-11T13:56:39Z</time>
      </trkpt>
      <trkpt lat="59.060466" lon="17.805776">
        <ele>31.1</ele>
        <time>2014-10-11T13:56:40Z</time>
      </trkpt>
      <trkpt lat="59.06054" lon="17.80577">
        <ele>31.1</ele>
        <time>2014-10-11T13:56:41Z</time>
      </trkpt>
      <trkpt lat="59.060612" lon="17.805747">
        <ele>31.2</ele>
        <time>2014-10-11T13:56:42Z</time>
      </trkpt>
      <trkpt lat="59.060681" lon="17.805736">
        <ele>31.3</ele>
        <time>2014-10-11T13:56:43Z</time>
      </trkpt>
      <trkpt lat="59.060749" lon="17.805712">
        <ele>31.4</ele>
        <time>2014-10-11T13:56:44Z</time>
      </trkpt>
      <trkpt lat="59.060791" lon="17.805719">
        <ele>31.4</ele>
        <time>2014-10-11T13:56:45Z</time>
      </trkpt>
      <trkpt lat="59.060856" lon="17.8057">
        <ele>31.5</ele>
        <time>2014-10-11T13:56:46Z</time>
      </trkpt>
      <trkpt lat="59.060918" lon="17.805683">
        <ele>31.6</ele>
        <time>2014-10-11T13:56:47Z</time>
      </trkpt>
      <trkpt lat="59.060982" lon="17.805675">
        <ele>31.7</ele>
        <time>2014-10-11T13:56:48Z</time>
      </trkpt>
      <trkpt lat="59.061045" lon="17.80567">
        <ele>31.8</ele>
        <time>2014-10-11T13:56:49Z</time>
      </trkpt>
      <trkpt lat="59.061093" lon="17.805655">
        <ele>31.8</ele>
        <time>2014-10-11T13:56:50Z</time>
      </trkpt>
      <trkpt lat="59.061153" lon="17.805664">
        <ele>31.9</ele>
        <time>2014-10-11T13:56:51Z</time>
      </trkpt>
      <trkpt lat="59.061211" lon="17.80567">
        <ele>32</ele>
        <time>2014-10-11T13:56:52Z</time>
      </trkpt>
      <trkpt lat="59.061268" lon="17.805675">
        <ele>32.2</ele>
        <time>2014-10-11T13:56:53Z</time>
      </trkpt>
      <trkpt lat="59.061325" lon="17.805681">
        <ele>32.7</ele>
        <time>2014-10-11T13:56:54Z</time>
      </trkpt>
      <trkpt lat="59.061376" lon="17.805698">
        <ele>33.1</ele>
        <time>2014-10-11T13:56:55Z</time>
      </trkpt>
      <trkpt lat="59.06143" lon="17.805742">
        <ele>33.6</ele>
        <time>2014-10-11T13:56:56Z</time>
      </trkpt>
      <trkpt lat="59.061484" lon="17.80578">
        <ele>34</ele>
        <time>2014-10-11T13:56:57Z</time>
      </trkpt>
      <trkpt lat="59.061543" lon="17.805812">
        <ele>34.5</ele>
        <time>2014-10-11T13:56:58Z</time>
      </trkpt>
      <trkpt lat="59.061599" lon="17.805844">
        <ele>34.9</ele>
        <time>2014-10-11T13:56:59Z</time>
      </trkpt>
      <trkpt lat="59.061656" lon="17.805869">
        <ele>35.4</ele>
        <time>2014-10-11T13:57:00Z</time>
      </trkpt>
      <trkpt lat="59.061709" lon="17.805899">
        <ele>35.8</ele>
        <time>2014-10-11T13:57:01Z</time>
      </trkpt>
      <trkpt lat="59.061762" lon="17.805931">
        <ele>36.2</ele>
        <time>2014-10-11T13:57:02Z</time>
      </trkpt>
      <trkpt lat="59.061817" lon="17.805968">
        <ele>36.5</ele>
        <time>2014-10-11T13:57:03Z</time>
      </trkpt>
      <trkpt lat="59.061873" lon="17.805996">
        <ele>36.9</ele>
        <time>2014-10-11T13:57:04Z</time>
      </trkpt>
      <trkpt lat="59.061929" lon="17.806024">
        <ele>37.3</ele>
        <time>2014-10-11T13:57:05Z</time>
      </trkpt>
      <trkpt lat="59.061973" lon="17.806049">
        <ele>37.6</ele>
        <time>2014-10-11T13:57:06Z</time>
      </trkpt>
      <trkpt lat="59.062034" lon="17.806081">
        <ele>38</ele>
        <time>2014-10-11T13:57:07Z</time>
      </trkpt>
      <trkpt lat="59.062093" lon="17.806087">
        <ele>38.4</ele>
        <time>2014-10-11T13:57:08Z</time>
      </trkpt>
      <trkpt lat="59.062151" lon="17.806103">
        <ele>38.7</ele>
        <time>2014-10-11T13:57:09Z</time>
      </trkpt>
      <trkpt lat="59.062197" lon="17.80613">
        <ele>38.9</ele>
        <time>2014-10-11T13:57:10Z</time>
      </trkpt>
      <trkpt lat="59.062253" lon="17.806148">
        <ele>39.2</ele>
        <time>2014-10-11T13:57:11Z</time>
      </trkpt>
      <trkpt lat="59.062304" lon="17.806166">
        <ele>39.5</ele>
        <time>2014-10-11T13:57:12Z</time>
      </trkpt>
      <trkpt lat="59.062345" lon="17.80619">
        <ele>39.7</ele>
        <time>2014-10-11T13:57:13Z</time>
      </trkpt>
      <trkpt lat="59.062392" lon="17.806187">
        <ele>39.9</ele>
        <time>2014-10-11T13:57:14Z</time>
      </trkpt>
      <trkpt lat="59.062444" lon="17.806194">
        <ele>40.2</ele>
        <time>2014-10-11T13:57:15Z</time>
      </trkpt>
      <trkpt lat="59.062495" lon="17.806235">
        <ele>40.5</ele>
        <time>2014-10-11T13:57:16Z</time>
      </trkpt>
      <trkpt lat="59.062537" lon="17.806247">
        <ele>40.7</ele>
        <time>2014-10-11T13:57:17Z</time>
      </trkpt>
      <trkpt lat="59.062587" lon="17.806289">
        <ele>40.9</ele>
        <time>2014-10-11T13:57:18Z</time>
      </trkpt>
      <trkpt lat="59.062623" lon="17.806312">
        <ele>41.1</ele>
        <time>2014-10-11T13:57:19Z</time>
      </trkpt>
      <trkpt lat="59.062672" lon="17.80633">
        <ele>41.4</ele>
        <time>2014-10-11T13:57:20Z</time>
      </trkpt>
      <trkpt lat="59.062718" lon="17.806345">
        <ele>41.6</ele>
        <time>2014-10-11T13:57:21Z</time>
      </trkpt>
      <trkpt lat="59.062761" lon="17.806359">
        <ele>41.9</ele>
        <time>2014-10-11T13:57:22Z</time>
      </trkpt>
      <trkpt lat="59.062805" lon="17.806375">
        <ele>42.1</ele>
        <time>2014-10-11T13:57:23Z</time>
      </trkpt>
      <trkpt lat="59.06286" lon="17.806387">
        <ele>42.5</ele>
        <time>2014-10-11T13:57:24Z</time>
      </trkpt>
      <trkpt lat="59.062911" lon="17.806382">
        <ele>42.8</ele>
        <time>2014-10-11T13:57:25Z</time>
      </trkpt>
      <trkpt lat="59.062952" lon="17.806366">
        <ele>43.2</ele>
        <time>2014-10-11T13:57:26Z</time>
      </trkpt>
      <trkpt lat="59.06299" lon="17.806375">
        <ele>43.6</ele>
        <time>2014-10-11T13:57:27Z</time>
      </trkpt>
      <trkpt lat="59.063025" lon="17.806373">
        <ele>44</ele>
        <time>2014-10-11T13:57:28Z</time>
      </trkpt>
      <trkpt lat="59.063055" lon="17.806353">
        <ele>44.3</ele>
        <time>2014-10-11T13:57:29Z</time>
      </trkpt>
      <trkpt lat="59.063089" lon="17.806341">
        <ele>44.7</ele>
        <time>2014-10-11T13:57:30Z</time>
      </trkpt>
      <trkpt lat="59.063123" lon="17.806323">
        <ele>45</ele>
        <time>2014-10-11T13:57:31Z</time>
      </trkpt>
      <trkpt lat="59.063156" lon="17.806304">
        <ele>45.3</ele>
        <time>2014-10-11T13:57:32Z</time>
      </trkpt>
      <trkpt lat="59.063188" lon="17.806281">
        <ele>45.6</ele>
        <time>2014-10-11T13:57:33Z</time>
      </trkpt>
      <trkpt lat="59.06322" lon="17.806247">
        <ele>45.9</ele>
        <time>2014-10-11T13:57:34Z</time>
      </trkpt>
      <trkpt lat="59.06325" lon="17.806219">
        <ele>46.1</ele>
        <time>2014-10-11T13:57:35Z</time>
      </trkpt>
      <trkpt lat="59.063277" lon="17.806178">
        <ele>46.3</ele>
        <time>2014-10-11T13:57:36Z</time>
      </trkpt>
      <trkpt lat="59.063302" lon="17.806143">
        <ele>46.5</ele>
        <time>2014-10-11T13:57:37Z</time>
      </trkpt>
      <trkpt lat="59.063325" lon="17.806106">
        <ele>46.6</ele>
        <time>2014-10-11T13:57:38Z</time>
      </trkpt>
      <trkpt lat="59.063349" lon="17.806073">
        <ele>46.7</ele>
        <time>2014-10-11T13:57:39Z</time>
      </trkpt>
      <trkpt lat="59.063377" lon="17.806041">
        <ele>46.9</ele>
        <time>2014-10-11T13:57:40Z</time>
      </trkpt>
      <trkpt lat="59.063404" lon="17.80601">
        <ele>47</ele>
        <time>2014-10-11T13:57:41Z</time>
      </trkpt>
      <trkpt lat="59.063432" lon="17.805981">
        <ele>47.1</ele>
        <time>2014-10-11T13:57:42Z</time>
      </trkpt>
      <trkpt lat="59.063459" lon="17.805951">
        <ele>47.3</ele>
        <time>2014-10-11T13:57:43Z</time>
      </trkpt>
      <trkpt lat="59.063489" lon="17.805923">
        <ele>47.4</ele>
        <time>2014-10-11T13:57:44Z</time>
      </trkpt>
      <trkpt lat="59.063518" lon="17.80589">
        <ele>47.5</ele>
        <time>2014-10-11T13:57:45Z</time>
      </trkpt>
      <trkpt lat="59.063549" lon="17.80586">
        <ele>47.6</ele>
        <time>2014-10-11T13:57:46Z</time>
      </trkpt>
      <trkpt lat="59.063582" lon="17.805829">
        <ele>47.8</ele>
        <time>2014-10-11T13:57:47Z</time>
      </trkpt>
      <trkpt lat="59.063616" lon="17.805799">
        <ele>47.9</ele>
        <time>2014-10-11T13:57:48Z</time>
      </trkpt>
      <trkpt lat="59.063646" lon="17.805772">
        <ele>48</ele>
        <time>2014-10-11T13:57:49Z</time>
      </trkpt>
      <trkpt lat="59.063676" lon="17.805744">
        <ele>48.1</ele>
        <time>2014-10-11T13:57:50Z</time>
      </trkpt>
      <trkpt lat="59.063706" lon="17.805703">
        <ele>48.1</ele>
        <time>2014-10-11T13:57:51Z</time>
      </trkpt>
      <trkpt lat="59.063737" lon="17.805663">
        <ele>48.1</ele>
        <time>2014-10-11T13:57:52Z</time>
      </trkpt>
      <trkpt lat="59.063768" lon="17.80562">
        <ele>48.2</ele>
        <time>2014-10-11T13:57:53Z</time>
      </trkpt>
      <trkpt lat="59.063801" lon="17.805574">
        <ele>48.4</ele>
        <time>2014-10-11T13:57:54Z</time>
      </trkpt>
      <trkpt lat="59.063837" lon="17.805519">
        <ele>48.5</ele>
        <time>2014-10-11T13:57:55Z</time>
      </trkpt>
      <trkpt lat="59.063882" lon="17.805425">
        <ele>48.6</ele>
        <time>2014-10-11T13:57:56Z</time>
      </trkpt>
      <trkpt lat="59.064049" lon="17.804973">
        <ele>49.3</ele>
        <time>2014-10-11T13:58:01Z</time>
      </trkpt>
      <trkpt lat="59.06406" lon="17.804884">
        <ele>49.2</ele>
        <time>2014-10-11T13:58:02Z</time>
      </trkpt>
      <trkpt lat="59.064083" lon="17.804779">
        <ele>49.2</ele>
        <time>2014-10-11T13:58:03Z</time>
      </trkpt>
      <trkpt lat="59.064089" lon="17.804662">
        <ele>48.9</ele>
        <time>2014-10-11T13:58:04Z</time>
      </trkpt>
      <trkpt lat="59.06409" lon="17.804545">
        <ele>48.6</ele>
        <time>2014-10-11T13:58:05Z</time>
      </trkpt>
      <trkpt lat="59.06409" lon="17.804414">
        <ele>48.3</ele>
        <time>2014-10-11T13:58:06Z</time>
      </trkpt>
      <trkpt lat="59.064092" lon="17.804284">
        <ele>48</ele>
        <time>2014-10-11T13:58:07Z</time>
      </trkpt>
      <trkpt lat="59.064089" lon="17.804147">
        <ele>47.7</ele>
        <time>2014-10-11T13:58:08Z</time>
      </trkpt>
      <trkpt lat="59.064082" lon="17.803992">
        <ele>47.3</ele>
        <time>2014-10-11T13:58:09Z</time>
      </trkpt>
      <trkpt lat="59.064075" lon="17.803867">
        <ele>47</ele>
        <time>2014-10-11T13:58:10Z</time>
      </trkpt>
      <trkpt lat="59.064071" lon="17.803737">
        <ele>46.7</ele>
        <time>2014-10-11T13:58:11Z</time>
      </trkpt>
      <trkpt lat="59.064077" lon="17.803621">
        <ele>46.5</ele>
        <time>2014-10-11T13:58:12Z</time>
      </trkpt>
      <trkpt lat="59.064079" lon="17.803469">
        <ele>46.3</ele>
        <time>2014-10-11T13:58:13Z</time>
      </trkpt>
      <trkpt lat="59.064088" lon="17.803344">
        <ele>46.2</ele>
        <time>2014-10-11T13:58:14Z</time>
      </trkpt>
      <trkpt lat="59.064088" lon="17.803203">
        <ele>45.9</ele>
        <time>2014-10-11T13:58:15Z</time>
      </trkpt>
      <trkpt lat="59.064114" lon="17.803083">
        <ele>45.9</ele>
        <time>2014-10-11T13:58:16Z</time>
      </trkpt>
      <trkpt lat="59.064135" lon="17.802973">
        <ele>45.9</ele>
        <time>2014-10-11T13:58:17Z</time>
      </trkpt>
      <trkpt lat="59.064154" lon="17.80284">
        <ele>45.9</ele>
        <time>2014-10-11T13:58:18Z</time>
      </trkpt>
      <trkpt lat="59.064174" lon="17.802709">
        <ele>45.9</ele>
        <time>2014-10-11T13:58:19Z</time>
      </trkpt>
      <trkpt lat="59.064193" lon="17.802567">
        <ele>46</ele>
        <time>2014-10-11T13:58:20Z</time>
      </trkpt>
      <trkpt lat="59.064208" lon="17.80243">
        <ele>46</ele>
        <time>2014-10-11T13:58:21Z</time>
      </trkpt>
      <trkpt lat="59.064223" lon="17.80231">
        <ele>46</ele>
        <time>2014-10-11T13:58:22Z</time>
      </trkpt>
      <trkpt lat="59.064246" lon="17.802188">
        <ele>46.1</ele>
        <time>2014-10-11T13:58:23Z</time>
      </trkpt>
      <trkpt lat="59.064271" lon="17.802064">
        <ele>46.1</ele>
        <time>2014-10-11T13:58:24Z</time>
      </trkpt>
      <trkpt lat="59.064299" lon="17.801927">
        <ele>46.1</ele>
        <time>2014-10-11T13:58:25Z</time>
      </trkpt>
      <trkpt lat="59.064324" lon="17.801805">
        <ele>46.1</ele>
        <time>2014-10-11T13:58:26Z</time>
      </trkpt>
      <trkpt lat="59.064345" lon="17.801667">
        <ele>46.1</ele>
        <time>2014-10-11T13:58:27Z</time>
      </trkpt>
      <trkpt lat="59.06437" lon="17.801555">
        <ele>46.1</ele>
        <time>2014-10-11T13:58:28Z</time>
      </trkpt>
      <trkpt lat="59.064402" lon="17.801448">
        <ele>46.1</ele>
        <time>2014-10-11T13:58:29Z</time>
      </trkpt>
      <trkpt lat="59.064438" lon="17.801303">
        <ele>46.2</ele>
        <time>2014-10-11T13:58:30Z</time>
      </trkpt>
      <trkpt lat="59.064473" lon="17.801181">
        <ele>46.3</ele>
        <time>2014-10-11T13:58:31Z</time>
      </trkpt>
      <trkpt lat="59.064502" lon="17.801071">
        <ele>46.3</ele>
        <time>2014-10-11T13:58:32Z</time>
      </trkpt>
      <trkpt lat="59.06454" lon="17.800949">
        <ele>46.4</ele>
        <time>2014-10-11T13:58:33Z</time>
      </trkpt>
      <trkpt lat="59.06457" lon="17.80085">
        <ele>46.4</ele>
        <time>2014-10-11T13:58:34Z</time>
      </trkpt>
      <trkpt lat="59.064608" lon="17.800755">
        <ele>46.7</ele>
        <time>2014-10-11T13:58:35Z</time>
      </trkpt>
      <trkpt lat="59.064643" lon="17.80064">
        <ele>46.9</ele>
        <time>2014-10-11T13:58:36Z</time>
      </trkpt>
      <trkpt lat="59.064678" lon="17.800544">
        <ele>47.2</ele>
        <time>2014-10-11T13:58:37Z</time>
      </trkpt>
      <trkpt lat="59.064717" lon="17.800431">
        <ele>47.5</ele>
        <time>2014-10-11T13:58:38Z</time>
      </trkpt>
      <trkpt lat="59.064749" lon="17.800336">
        <ele>48</ele>
        <time>2014-10-11T13:58:39Z</time>
      </trkpt>
      <trkpt lat="59.064784" lon="17.80022">
        <ele>48.6</ele>
        <time>2014-10-11T13:58:40Z</time>
      </trkpt>
      <trkpt lat="59.064818" lon="17.800105">
        <ele>49.3</ele>
        <time>2014-10-11T13:58:41Z</time>
      </trkpt>
      <trkpt lat="59.064844" lon="17.800007">
        <ele>49.8</ele>
        <time>2014-10-11T13:58:42Z</time>
      </trkpt>
      <trkpt lat="59.06487" lon="17.79991">
        <ele>50.3</ele>
        <time>2014-10-11T13:58:43Z</time>
      </trkpt>
      <trkpt lat="59.064898" lon="17.799811">
        <ele>50.9</ele>
        <time>2014-10-11T13:58:44Z</time>
      </trkpt>
      <trkpt lat="59.064928" lon="17.799715">
        <ele>51.4</ele>
        <time>2014-10-11T13:58:45Z</time>
      </trkpt>
      <trkpt lat="59.064962" lon="17.799591">
        <ele>52.1</ele>
        <time>2014-10-11T13:58:46Z</time>
      </trkpt>
      <trkpt lat="59.064993" lon="17.799491">
        <ele>52.5</ele>
        <time>2014-10-11T13:58:47Z</time>
      </trkpt>
      <trkpt lat="59.065023" lon="17.799385">
        <ele>53</ele>
        <time>2014-10-11T13:58:48Z</time>
      </trkpt>
      <trkpt lat="59.065057" lon="17.799253">
        <ele>53.5</ele>
        <time>2014-10-11T13:58:49Z</time>
      </trkpt>
      <trkpt lat="59.065083" lon="17.79914">
        <ele>53.9</ele>
        <time>2014-10-11T13:58:50Z</time>
      </trkpt>
      <trkpt lat="59.065111" lon="17.799026">
        <ele>54.4</ele>
        <time>2014-10-11T13:58:51Z</time>
      </trkpt>
      <trkpt lat="59.065136" lon="17.798901">
        <ele>54.8</ele>
        <time>2014-10-11T13:58:52Z</time>
      </trkpt>
      <trkpt lat="59.065165" lon="17.798789">
        <ele>55.2</ele>
        <time>2014-10-11T13:58:53Z</time>
      </trkpt>
      <trkpt lat="59.065196" lon="17.798685">
        <ele>55.9</ele>
        <time>2014-10-11T13:58:54Z</time>
      </trkpt>
      <trkpt lat="59.065216" lon="17.798566">
        <ele>56.5</ele>
        <time>2014-10-11T13:58:55Z</time>
      </trkpt>
      <trkpt lat="59.065239" lon="17.798443">
        <ele>57.2</ele>
        <time>2014-10-11T13:58:56Z</time>
      </trkpt>
      <trkpt lat="59.065259" lon="17.79833">
        <ele>57.8</ele>
        <time>2014-10-11T13:58:57Z</time>
      </trkpt>
      <trkpt lat="59.065289" lon="17.798226">
        <ele>58.5</ele>
        <time>2014-10-11T13:58:58Z</time>
      </trkpt>
      <trkpt lat="59.065323" lon="17.798093">
        <ele>59.4</ele>
        <time>2014-10-11T13:58:59Z</time>
      </trkpt>
      <trkpt lat="59.065343" lon="17.79798">
        <ele>60</ele>
        <time>2014-10-11T13:59:00Z</time>
      </trkpt>
      <trkpt lat="59.065354" lon="17.797878">
        <ele>60.5</ele>
        <time>2014-10-11T13:59:01Z</time>
      </trkpt>
      <trkpt lat="59.065372" lon="17.797766">
        <ele>61.1</ele>
        <time>2014-10-11T13:59:02Z</time>
      </trkpt>
      <trkpt lat="59.065383" lon="17.797661">
        <ele>61.6</ele>
        <time>2014-10-11T13:59:03Z</time>
      </trkpt>
      <trkpt lat="59.065406" lon="17.797553">
        <ele>62.2</ele>
        <time>2014-10-11T13:59:04Z</time>
      </trkpt>
      <trkpt lat="59.065424" lon="17.797457">
        <ele>62.7</ele>
        <time>2014-10-11T13:59:05Z</time>
      </trkpt>
      <trkpt lat="59.065441" lon="17.797363">
        <ele>63.2</ele>
        <time>2014-10-11T13:59:06Z</time>
      </trkpt>
      <trkpt lat="59.065451" lon="17.797286">
        <ele>63.6</ele>
        <time>2014-10-11T13:59:07Z</time>
      </trkpt>
      <trkpt lat="59.065466" lon="17.797209">
        <ele>64</ele>
        <time>2014-10-11T13:59:08Z</time>
      </trkpt>
      <trkpt lat="59.065485" lon="17.797138">
        <ele>64.4</ele>
        <time>2014-10-11T13:59:09Z</time>
      </trkpt>
      <trkpt lat="59.065496" lon="17.79706">
        <ele>64.6</ele>
        <time>2014-10-11T13:59:10Z</time>
      </trkpt>
      <trkpt lat="59.065511" lon="17.796998">
        <ele>64.7</ele>
        <time>2014-10-11T13:59:11Z</time>
      </trkpt>
      <trkpt lat="59.06553" lon="17.79692">
        <ele>64.8</ele>
        <time>2014-10-11T13:59:12Z</time>
      </trkpt>
      <trkpt lat="59.065545" lon="17.796837">
        <ele>64.8</ele>
        <time>2014-10-11T13:59:13Z</time>
      </trkpt>
      <trkpt lat="59.065565" lon="17.796768">
        <ele>64.9</ele>
        <time>2014-10-11T13:59:14Z</time>
      </trkpt>
      <trkpt lat="59.065576" lon="17.796701">
        <ele>65</ele>
        <time>2014-10-11T13:59:15Z</time>
      </trkpt>
      <trkpt lat="59.065595" lon="17.796637">
        <ele>65.1</ele>
        <time>2014-10-11T13:59:16Z</time>
      </trkpt>
      <trkpt lat="59.065614" lon="17.796561">
        <ele>65.2</ele>
        <time>2014-10-11T13:59:17Z</time>
      </trkpt>
      <trkpt lat="59.065635" lon="17.796477">
        <ele>65.3</ele>
        <time>2014-10-11T13:59:18Z</time>
      </trkpt>
      <trkpt lat="59.065651" lon="17.796404">
        <ele>65.4</ele>
        <time>2014-10-11T13:59:19Z</time>
      </trkpt>
      <trkpt lat="59.065662" lon="17.796335">
        <ele>65.4</ele>
        <time>2014-10-11T13:59:20Z</time>
      </trkpt>
      <trkpt lat="59.065674" lon="17.796261">
        <ele>65.5</ele>
        <time>2014-10-11T13:59:21Z</time>
      </trkpt>
      <trkpt lat="59.065688" lon="17.796187">
        <ele>65.6</ele>
        <time>2014-10-11T13:59:22Z</time>
      </trkpt>
      <trkpt lat="59.065701" lon="17.796113">
        <ele>65.7</ele>
        <time>2014-10-11T13:59:23Z</time>
      </trkpt>
      <trkpt lat="59.065719" lon="17.796039">
        <ele>65.9</ele>
        <time>2014-10-11T13:59:24Z</time>
      </trkpt>
      <trkpt lat="59.065737" lon="17.795977">
        <ele>66.1</ele>
        <time>2014-10-11T13:59:25Z</time>
      </trkpt>
      <trkpt lat="59.065756" lon="17.795913">
        <ele>66.3</ele>
        <time>2014-10-11T13:59:26Z</time>
      </trkpt>
      <trkpt lat="59.065774" lon="17.795853">
        <ele>66.4</ele>
        <time>2014-10-11T13:59:27Z</time>
      </trkpt>
      <trkpt lat="59.065795" lon="17.795798">
        <ele>66.6</ele>
        <time>2014-10-11T13:59:28Z</time>
      </trkpt>
      <trkpt lat="59.065816" lon="17.795746">
        <ele>66.8</ele>
        <time>2014-10-11T13:59:29Z</time>
      </trkpt>
      <trkpt lat="59.065833" lon="17.795692">
        <ele>67</ele>
        <time>2014-10-11T13:59:30Z</time>
      </trkpt>
      <trkpt lat="59.065852" lon="17.795639">
        <ele>67.2</ele>
        <time>2014-10-11T13:59:31Z</time>
      </trkpt>
      <trkpt lat="59.06587" lon="17.79559">
        <ele>67.4</ele>
        <time>2014-10-11T13:59:32Z</time>
      </trkpt>
      <trkpt lat="59.065886" lon="17.795542">
        <ele>67.5</ele>
        <time>2014-10-11T13:59:33Z</time>
      </trkpt>
      <trkpt lat="59.065916" lon="17.795451">
        <ele>67.8</ele>
        <time>2014-10-11T13:59:35Z</time>
      </trkpt>
      <trkpt lat="59.065937" lon="17.795394">
        <ele>68</ele>
        <time>2014-10-11T13:59:36Z</time>
      </trkpt>
      <trkpt lat="59.065957" lon="17.795351">
        <ele>68.2</ele>
        <time>2014-10-11T13:59:37Z</time>
      </trkpt>
      <trkpt lat="59.065975" lon="17.795304">
        <ele>68.4</ele>
        <time>2014-10-11T13:59:38Z</time>
      </trkpt>
      <trkpt lat="59.065996" lon="17.795257">
        <ele>68.6</ele>
        <time>2014-10-11T13:59:39Z</time>
      </trkpt>
      <trkpt lat="59.066017" lon="17.795206">
        <ele>68.8</ele>
        <time>2014-10-11T13:59:40Z</time>
      </trkpt>
      <trkpt lat="59.066034" lon="17.795158">
        <ele>68.9</ele>
        <time>2014-10-11T13:59:41Z</time>
      </trkpt>
      <trkpt lat="59.066052" lon="17.795108">
        <ele>69.1</ele>
        <time>2014-10-11T13:59:42Z</time>
      </trkpt>
      <trkpt lat="59.066072" lon="17.795058">
        <ele>69.3</ele>
        <time>2014-10-11T13:59:43Z</time>
      </trkpt>
      <trkpt lat="59.066089" lon="17.795006">
        <ele>69.5</ele>
        <time>2014-10-11T13:59:44Z</time>
      </trkpt>
      <trkpt lat="59.06611" lon="17.794953">
        <ele>69.7</ele>
        <time>2014-10-11T13:59:45Z</time>
      </trkpt>
      <trkpt lat="59.066129" lon="17.794906">
        <ele>69.8</ele>
        <time>2014-10-11T13:59:46Z</time>
      </trkpt>
      <trkpt lat="59.066149" lon="17.794851">
        <ele>70</ele>
        <time>2014-10-11T13:59:47Z</time>
      </trkpt>
      <trkpt lat="59.066169" lon="17.794803">
        <ele>70.2</ele>
        <time>2014-10-11T13:59:48Z</time>
      </trkpt>
      <trkpt lat="59.066191" lon="17.794752">
        <ele>70.4</ele>
        <time>2014-10-11T13:59:49Z</time>
      </trkpt>
      <trkpt lat="59.066212" lon="17.794704">
        <ele>70.6</ele>
        <time>2014-10-11T13:59:50Z</time>
      </trkpt>
      <trkpt lat="59.066232" lon="17.794655">
        <ele>70.8</ele>
        <time>2014-10-11T13:59:51Z</time>
      </trkpt>
      <trkpt lat="59.066252" lon="17.79461">
        <ele>71</ele>
        <time>2014-10-11T13:59:52Z</time>
      </trkpt>
      <trkpt lat="59.066275" lon="17.794569">
        <ele>71.1</ele>
        <time>2014-10-11T13:59:53Z</time>
      </trkpt>
      <trkpt lat="59.066296" lon="17.794523">
        <ele>71.3</ele>
        <time>2014-10-11T13:59:54Z</time>
      </trkpt>
      <trkpt lat="59.066317" lon="17.794473">
        <ele>71.4</ele>
        <time>2014-10-11T13:59:55Z</time>
      </trkpt>
      <trkpt lat="59.066338" lon="17.794419">
        <ele>71.5</ele>
        <time>2014-10-11T13:59:56Z</time>
      </trkpt>
      <trkpt lat="59.06636" lon="17.794376">
        <ele>71.6</ele>
        <time>2014-10-11T13:59:57Z</time>
      </trkpt>
      <trkpt lat="59.066386" lon="17.794336">
        <ele>71.8</ele>
        <time>2014-10-11T13:59:58Z</time>
      </trkpt>
      <trkpt lat="59.066413" lon="17.7943">
        <ele>71.9</ele>
        <time>2014-10-11T13:59:59Z</time>
      </trkpt>
      <trkpt lat="59.066442" lon="17.794264">
        <ele>72.1</ele>
        <time>2014-10-11T14:00:00Z</time>
      </trkpt>
      <trkpt lat="59.066469" lon="17.794228">
        <ele>72.2</ele>
        <time>2014-10-11T14:00:01Z</time>
      </trkpt>
      <trkpt lat="59.066497" lon="17.794188">
        <ele>72.3</ele>
        <time>2014-10-11T14:00:02Z</time>
      </trkpt>
      <trkpt lat="59.066527" lon="17.794147">
        <ele>72.5</ele>
        <time>2014-10-11T14:00:03Z</time>
      </trkpt>
      <trkpt lat="59.066558" lon="17.794107">
        <ele>72.6</ele>
        <time>2014-10-11T14:00:04Z</time>
      </trkpt>
      <trkpt lat="59.066589" lon="17.79407">
        <ele>72.8</ele>
        <time>2014-10-11T14:00:05Z</time>
      </trkpt>
      <trkpt lat="59.066622" lon="17.794032">
        <ele>72.9</ele>
        <time>2014-10-11T14:00:06Z</time>
      </trkpt>
      <trkpt lat="59.066657" lon="17.793998">
        <ele>73.1</ele>
        <time>2014-10-11T14:00:07Z</time>
      </trkpt>
      <trkpt lat="59.066691" lon="17.793966">
        <ele>73.3</ele>
        <time>2014-10-11T14:00:08Z</time>
      </trkpt>
      <trkpt lat="59.066728" lon="17.793934">
        <ele>73.4</ele>
        <time>2014-10-11T14:00:09Z</time>
      </trkpt>
      <trkpt lat="59.066764" lon="17.793905">
        <ele>73.6</ele>
        <time>2014-10-11T14:00:10Z</time>
      </trkpt>
      <trkpt lat="59.0668" lon="17.793872">
        <ele>73.7</ele>
        <time>2014-10-11T14:00:11Z</time>
      </trkpt>
      <trkpt lat="59.066838" lon="17.793839">
        <ele>73.9</ele>
        <time>2014-10-11T14:00:12Z</time>
      </trkpt>
      <trkpt lat="59.066874" lon="17.793813">
        <ele>74.1</ele>
        <time>2014-10-11T14:00:13Z</time>
      </trkpt>
      <trkpt lat="59.066915" lon="17.793792">
        <ele>74.2</ele>
        <time>2014-10-11T14:00:14Z</time>
      </trkpt>
      <trkpt lat="59.066956" lon="17.793774">
        <ele>74.4</ele>
        <time>2014-10-11T14:00:15Z</time>
      </trkpt>
      <trkpt lat="59.067041" lon="17.793745">
        <ele>74.8</ele>
        <time>2014-10-11T14:00:16Z</time>
      </trkpt>
      <trkpt lat="59.06708" lon="17.793719">
        <ele>74.9</ele>
        <time>2014-10-11T14:00:17Z</time>
      </trkpt>
      <trkpt lat="59.067112" lon="17.793673">
        <ele>74.8</ele>
        <time>2014-10-11T14:00:18Z</time>
      </trkpt>
      <trkpt lat="59.067154" lon="17.793648">
        <ele>74.8</ele>
        <time>2014-10-11T14:00:19Z</time>
      </trkpt>
      <trkpt lat="59.067189" lon="17.793624">
        <ele>74.8</ele>
        <time>2014-10-11T14:00:20Z</time>
      </trkpt>
      <trkpt lat="59.067241" lon="17.793594">
        <ele>74.8</ele>
        <time>2014-10-11T14:00:21Z</time>
      </trkpt>
      <trkpt lat="59.067293" lon="17.793565">
        <ele>74.8</ele>
        <time>2014-10-11T14:00:22Z</time>
      </trkpt>
      <trkpt lat="59.06734" lon="17.793528">
        <ele>74.8</ele>
        <time>2014-10-11T14:00:23Z</time>
      </trkpt>
      <trkpt lat="59.067393" lon="17.793488">
        <ele>74.7</ele>
        <time>2014-10-11T14:00:24Z</time>
      </trkpt>
      <trkpt lat="59.067439" lon="17.793451">
        <ele>74.7</ele>
        <time>2014-10-11T14:00:25Z</time>
      </trkpt>
      <trkpt lat="59.067495" lon="17.793426">
        <ele>74.7</ele>
        <time>2014-10-11T14:00:26Z</time>
      </trkpt>
      <trkpt lat="59.067547" lon="17.793398">
        <ele>74.7</ele>
        <time>2014-10-11T14:00:27Z</time>
      </trkpt>
      <trkpt lat="59.067598" lon="17.793358">
        <ele>74.7</ele>
        <time>2014-10-11T14:00:28Z</time>
      </trkpt>
      <trkpt lat="59.067642" lon="17.79333">
        <ele>74.7</ele>
        <time>2014-10-11T14:00:29Z</time>
      </trkpt>
      <trkpt lat="59.06769" lon="17.793307">
        <ele>74.7</ele>
        <time>2014-10-11T14:00:30Z</time>
      </trkpt>
      <trkpt lat="59.067728" lon="17.793274">
        <ele>74.6</ele>
        <time>2014-10-11T14:00:31Z</time>
      </trkpt>
      <trkpt lat="59.067771" lon="17.793233">
        <ele>74.6</ele>
        <time>2014-10-11T14:00:32Z</time>
      </trkpt>
      <trkpt lat="59.067822" lon="17.793187">
        <ele>74.5</ele>
        <time>2014-10-11T14:00:33Z</time>
      </trkpt>
      <trkpt lat="59.067863" lon="17.793139">
        <ele>74.5</ele>
        <time>2014-10-11T14:00:34Z</time>
      </trkpt>
      <trkpt lat="59.067892" lon="17.793079">
        <ele>74.4</ele>
        <time>2014-10-11T14:00:35Z</time>
      </trkpt>
      <trkpt lat="59.067943" lon="17.793026">
        <ele>74.3</ele>
        <time>2014-10-11T14:00:36Z</time>
      </trkpt>
      <trkpt lat="59.067984" lon="17.792978">
        <ele>74.3</ele>
        <time>2014-10-11T14:00:37Z</time>
      </trkpt>
      <trkpt lat="59.068033" lon="17.79292">
        <ele>74.3</ele>
        <time>2014-10-11T14:00:38Z</time>
      </trkpt>
      <trkpt lat="59.068065" lon="17.792856">
        <ele>74.3</ele>
        <time>2014-10-11T14:00:39Z</time>
      </trkpt>
      <trkpt lat="59.068117" lon="17.792797">
        <ele>74.3</ele>
        <time>2014-10-11T14:00:40Z</time>
      </trkpt>
      <trkpt lat="59.06816" lon="17.792738">
        <ele>74.3</ele>
        <time>2014-10-11T14:00:41Z</time>
      </trkpt>
      <trkpt lat="59.068204" lon="17.792664">
        <ele>74.3</ele>
        <time>2014-10-11T14:00:42Z</time>
      </trkpt>
      <trkpt lat="59.06824" lon="17.792599">
        <ele>74.2</ele>
        <time>2014-10-11T14:00:43Z</time>
      </trkpt>
      <trkpt lat="59.068289" lon="17.792538">
        <ele>74.2</ele>
        <time>2014-10-11T14:00:44Z</time>
      </trkpt>
      <trkpt lat="59.068335" lon="17.792483">
        <ele>74.2</ele>
        <time>2014-10-11T14:00:45Z</time>
      </trkpt>
      <trkpt lat="59.068383" lon="17.792424">
        <ele>74.2</ele>
        <time>2014-10-11T14:00:46Z</time>
      </trkpt>
      <trkpt lat="59.068432" lon="17.792368">
        <ele>74.2</ele>
        <time>2014-10-11T14:00:47Z</time>
      </trkpt>
      <trkpt lat="59.068477" lon="17.792312">
        <ele>74.1</ele>
        <time>2014-10-11T14:00:48Z</time>
      </trkpt>
      <trkpt lat="59.068525" lon="17.792255">
        <ele>74.1</ele>
        <time>2014-10-11T14:00:49Z</time>
      </trkpt>
      <trkpt lat="59.068571" lon="17.7922">
        <ele>74</ele>
        <time>2014-10-11T14:00:50Z</time>
      </trkpt>
      <trkpt lat="59.068624" lon="17.792143">
        <ele>74</ele>
        <time>2014-10-11T14:00:51Z</time>
      </trkpt>
      <trkpt lat="59.068679" lon="17.79208">
        <ele>73.9</ele>
        <time>2014-10-11T14:00:52Z</time>
      </trkpt>
      <trkpt lat="59.068728" lon="17.792019">
        <ele>73.7</ele>
        <time>2014-10-11T14:00:53Z</time>
      </trkpt>
      <trkpt lat="59.068781" lon="17.791953">
        <ele>73.6</ele>
        <time>2014-10-11T14:00:54Z</time>
      </trkpt>
      <trkpt lat="59.068825" lon="17.791893">
        <ele>73.5</ele>
        <time>2014-10-11T14:00:55Z</time>
      </trkpt>
      <trkpt lat="59.068881" lon="17.791833">
        <ele>73.4</ele>
        <time>2014-10-11T14:00:56Z</time>
      </trkpt>
      <trkpt lat="59.068943" lon="17.791763">
        <ele>73.3</ele>
        <time>2014-10-11T14:00:57Z</time>
      </trkpt>
      <trkpt lat="59.069003" lon="17.791705">
        <ele>73.2</ele>
        <time>2014-10-11T14:00:58Z</time>
      </trkpt>
      <trkpt lat="59.069062" lon="17.791652">
        <ele>73.2</ele>
        <time>2014-10-11T14:00:59Z</time>
      </trkpt>
      <trkpt lat="59.069125" lon="17.791601">
        <ele>73.2</ele>
        <time>2014-10-11T14:01:00Z</time>
      </trkpt>
      <trkpt lat="59.069184" lon="17.79154">
        <ele>73.1</ele>
        <time>2014-10-11T14:01:01Z</time>
      </trkpt>
      <trkpt lat="59.069228" lon="17.791478">
        <ele>73</ele>
        <time>2014-10-11T14:01:02Z</time>
      </trkpt>
      <trkpt lat="59.069275" lon="17.791427">
        <ele>72.9</ele>
        <time>2014-10-11T14:01:03Z</time>
      </trkpt>
      <trkpt lat="59.069326" lon="17.791366">
        <ele>72.8</ele>
        <time>2014-10-11T14:01:04Z</time>
      </trkpt>
      <trkpt lat="59.069375" lon="17.791292">
        <ele>72.7</ele>
        <time>2014-10-11T14:01:05Z</time>
      </trkpt>
      <trkpt lat="59.069421" lon="17.791244">
        <ele>72.6</ele>
        <time>2014-10-11T14:01:06Z</time>
      </trkpt>
      <trkpt lat="59.069461" lon="17.79117">
        <ele>72.5</ele>
        <time>2014-10-11T14:01:07Z</time>
      </trkpt>
      <trkpt lat="59.069509" lon="17.791107">
        <ele>72.5</ele>
        <time>2014-10-11T14:01:08Z</time>
      </trkpt>
      <trkpt lat="59.069568" lon="17.791039">
        <ele>72.5</ele>
        <time>2014-10-11T14:01:09Z</time>
      </trkpt>
      <trkpt lat="59.069619" lon="17.790966">
        <ele>72.5</ele>
        <time>2014-10-11T14:01:10Z</time>
      </trkpt>
      <trkpt lat="59.069666" lon="17.790898">
        <ele>72.5</ele>
        <time>2014-10-11T14:01:11Z</time>
      </trkpt>
      <trkpt lat="59.069705" lon="17.790792">
        <ele>72.5</ele>
        <time>2014-10-11T14:01:12Z</time>
      </trkpt>
      <trkpt lat="59.069766" lon="17.790683">
        <ele>72.6</ele>
        <time>2014-10-11T14:01:13Z</time>
      </trkpt>
      <trkpt lat="59.069805" lon="17.790604">
        <ele>72.7</ele>
        <time>2014-10-11T14:01:14Z</time>
      </trkpt>
      <trkpt lat="59.069851" lon="17.790535">
        <ele>72.8</ele>
        <time>2014-10-11T14:01:15Z</time>
      </trkpt>
      <trkpt lat="59.069903" lon="17.790455">
        <ele>73</ele>
        <time>2014-10-11T14:01:16Z</time>
      </trkpt>
      <trkpt lat="59.06994" lon="17.790359">
        <ele>73</ele>
        <time>2014-10-11T14:01:17Z</time>
      </trkpt>
      <trkpt lat="59.069991" lon="17.790273">
        <ele>73</ele>
        <time>2014-10-11T14:01:18Z</time>
      </trkpt>
      <trkpt lat="59.070036" lon="17.790176">
        <ele>73</ele>
        <time>2014-10-11T14:01:19Z</time>
      </trkpt>
      <trkpt lat="59.070084" lon="17.790077">
        <ele>72.9</ele>
        <time>2014-10-11T14:01:20Z</time>
      </trkpt>
      <trkpt lat="59.07013" lon="17.789982">
        <ele>72.9</ele>
        <time>2014-10-11T14:01:21Z</time>
      </trkpt>
      <trkpt lat="59.070173" lon="17.789904">
        <ele>72.9</ele>
        <time>2014-10-11T14:01:22Z</time>
      </trkpt>
      <trkpt lat="59.070216" lon="17.789817">
        <ele>72.8</ele>
        <time>2014-10-11T14:01:23Z</time>
      </trkpt>
      <trkpt lat="59.070262" lon="17.789728">
        <ele>72.7</ele>
        <time>2014-10-11T14:01:24Z</time>
      </trkpt>
      <trkpt lat="59.070307" lon="17.789618">
        <ele>72.6</ele>
        <time>2014-10-11T14:01:25Z</time>
      </trkpt>
      <trkpt lat="59.07034" lon="17.789506">
        <ele>72.4</ele>
        <time>2014-10-11T14:01:26Z</time>
      </trkpt>
      <trkpt lat="59.07039" lon="17.789408">
        <ele>72.2</ele>
        <time>2014-10-11T14:01:27Z</time>
      </trkpt>
      <trkpt lat="59.070441" lon="17.789314">
        <ele>72.2</ele>
        <time>2014-10-11T14:01:28Z</time>
      </trkpt>
      <trkpt lat="59.070474" lon="17.789194">
        <ele>71.9</ele>
        <time>2014-10-11T14:01:29Z</time>
      </trkpt>
      <trkpt lat="59.070524" lon="17.789103">
        <ele>71.9</ele>
        <time>2014-10-11T14:01:30Z</time>
      </trkpt>
      <trkpt lat="59.070559" lon="17.788998">
        <ele>71.8</ele>
        <time>2014-10-11T14:01:31Z</time>
      </trkpt>
      <trkpt lat="59.070604" lon="17.788903">
        <ele>71.8</ele>
        <time>2014-10-11T14:01:32Z</time>
      </trkpt>
      <trkpt lat="59.070652" lon="17.788797">
        <ele>71.8</ele>
        <time>2014-10-11T14:01:33Z</time>
      </trkpt>
      <trkpt lat="59.070691" lon="17.788685">
        <ele>72</ele>
        <time>2014-10-11T14:01:34Z</time>
      </trkpt>
      <trkpt lat="59.070741" lon="17.788591">
        <ele>72.3</ele>
        <time>2014-10-11T14:01:35Z</time>
      </trkpt>
      <trkpt lat="59.070791" lon="17.788487">
        <ele>72.6</ele>
        <time>2014-10-11T14:01:36Z</time>
      </trkpt>
      <trkpt lat="59.070856" lon="17.788366">
        <ele>72.9</ele>
        <time>2014-10-11T14:01:37Z</time>
      </trkpt>
      <trkpt lat="59.0709" lon="17.788255">
        <ele>73</ele>
        <time>2014-10-11T14:01:38Z</time>
      </trkpt>
      <trkpt lat="59.070953" lon="17.788124">
        <ele>73.2</ele>
        <time>2014-10-11T14:01:39Z</time>
      </trkpt>
      <trkpt lat="59.070991" lon="17.78803">
        <ele>73.2</ele>
        <time>2014-10-11T14:01:40Z</time>
      </trkpt>
      <trkpt lat="59.071055" lon="17.787889">
        <ele>73.3</ele>
        <time>2014-10-11T14:01:41Z</time>
      </trkpt>
      <trkpt lat="59.071098" lon="17.787787">
        <ele>73.3</ele>
        <time>2014-10-11T14:01:42Z</time>
      </trkpt>
      <trkpt lat="59.071147" lon="17.787693">
        <ele>73.4</ele>
        <time>2014-10-11T14:01:43Z</time>
      </trkpt>
      <trkpt lat="59.071204" lon="17.787587">
        <ele>73.5</ele>
        <time>2014-10-11T14:01:44Z</time>
      </trkpt>
      <trkpt lat="59.071253" lon="17.787495">
        <ele>73.5</ele>
        <time>2014-10-11T14:01:45Z</time>
      </trkpt>
      <trkpt lat="59.071295" lon="17.787411">
        <ele>73.6</ele>
        <time>2014-10-11T14:01:46Z</time>
      </trkpt>
      <trkpt lat="59.071333" lon="17.787324">
        <ele>73.7</ele>
        <time>2014-10-11T14:01:47Z</time>
      </trkpt>
      <trkpt lat="59.071365" lon="17.787254">
        <ele>73.7</ele>
        <time>2014-10-11T14:01:48Z</time>
      </trkpt>
      <trkpt lat="59.071392" lon="17.78721">
        <ele>73.8</ele>
        <time>2014-10-11T14:01:49Z</time>
      </trkpt>
      <trkpt lat="59.071376" lon="17.787137">
        <ele>73.7</ele>
        <time>2014-10-11T14:01:51Z</time>
      </trkpt>
      <trkpt lat="59.071338" lon="17.787195">
        <ele>73.5</ele>
        <time>2014-10-11T14:01:53Z</time>
      </trkpt>
      <trkpt lat="59.071322" lon="17.787247">
        <ele>73.5</ele>
        <time>2014-10-11T14:01:54Z</time>
      </trkpt>
      <trkpt lat="59.071296" lon="17.787285">
        <ele>73.4</ele>
        <time>2014-10-11T14:01:55Z</time>
      </trkpt>
      <trkpt lat="59.071272" lon="17.787324">
        <ele>73.4</ele>
        <time>2014-10-11T14:01:56Z</time>
      </trkpt>
      <trkpt lat="59.071245" lon="17.787379">
        <ele>73.3</ele>
        <time>2014-10-11T14:01:57Z</time>
      </trkpt>
      <trkpt lat="59.07121" lon="17.78743">
        <ele>73.3</ele>
        <time>2014-10-11T14:01:58Z</time>
      </trkpt>
      <trkpt lat="59.071178" lon="17.787484">
        <ele>73.3</ele>
        <time>2014-10-11T14:01:59Z</time>
      </trkpt>
      <trkpt lat="59.071144" lon="17.787533">
        <ele>73.2</ele>
        <time>2014-10-11T14:02:00Z</time>
      </trkpt>
      <trkpt lat="59.071109" lon="17.787588">
        <ele>73.2</ele>
        <time>2014-10-11T14:02:01Z</time>
      </trkpt>
      <trkpt lat="59.071075" lon="17.787633">
        <ele>73.1</ele>
        <time>2014-10-11T14:02:02Z</time>
      </trkpt>
      <trkpt lat="59.071039" lon="17.78767">
        <ele>73</ele>
        <time>2014-10-11T14:02:03Z</time>
      </trkpt>
      <trkpt lat="59.071003" lon="17.787694">
        <ele>72.9</ele>
        <time>2014-10-11T14:02:04Z</time>
      </trkpt>
      <trkpt lat="59.070967" lon="17.787703">
        <ele>72.8</ele>
        <time>2014-10-11T14:02:05Z</time>
      </trkpt>
      <trkpt lat="59.070936" lon="17.7877">
        <ele>72.7</ele>
        <time>2014-10-11T14:02:06Z</time>
      </trkpt>
      <trkpt lat="59.070901" lon="17.787685">
        <ele>72.6</ele>
        <time>2014-10-11T14:02:08Z</time>
      </trkpt>
      <trkpt lat="59.070918" lon="17.787635">
        <ele>72.6</ele>
        <time>2014-10-11T14:02:49Z</time>
      </trkpt>
      <trkpt lat="59.070927" lon="17.787717">
        <ele>72.7</ele>
        <time>2014-10-11T14:03:04Z</time>
      </trkpt>
      <trkpt lat="59.070942" lon="17.787763">
        <ele>72.8</ele>
        <time>2014-10-11T14:03:05Z</time>
      </trkpt>
      <trkpt lat="59.070962" lon="17.787799">
        <ele>72.9</ele>
        <time>2014-10-11T14:03:06Z</time>
      </trkpt>
      <trkpt lat="59.070994" lon="17.787821">
        <ele>73</ele>
        <time>2014-10-11T14:03:07Z</time>
      </trkpt>
      <trkpt lat="59.071025" lon="17.787817">
        <ele>73.1</ele>
        <time>2014-10-11T14:03:08Z</time>
      </trkpt>
      <trkpt lat="59.071052" lon="17.787784">
        <ele>73.2</ele>
        <time>2014-10-11T14:03:09Z</time>
      </trkpt>
      <trkpt lat="59.071082" lon="17.787745">
        <ele>73.2</ele>
        <time>2014-10-11T14:03:10Z</time>
      </trkpt>
      <trkpt lat="59.071135" lon="17.787637">
        <ele>73.3</ele>
        <time>2014-10-11T14:03:11Z</time>
      </trkpt>
      <trkpt lat="59.071184" lon="17.787563">
        <ele>73.4</ele>
        <time>2014-10-11T14:03:12Z</time>
      </trkpt>
      <trkpt lat="59.071229" lon="17.787485">
        <ele>73.4</ele>
        <time>2014-10-11T14:03:13Z</time>
      </trkpt>
      <trkpt lat="59.071269" lon="17.787402">
        <ele>73.5</ele>
        <time>2014-10-11T14:03:14Z</time>
      </trkpt>
      <trkpt lat="59.07131" lon="17.787309">
        <ele>73.5</ele>
        <time>2014-10-11T14:03:15Z</time>
      </trkpt>
      <trkpt lat="59.071361" lon="17.787224">
        <ele>73.7</ele>
        <time>2014-10-11T14:03:16Z</time>
      </trkpt>
      <trkpt lat="59.071406" lon="17.78715">
        <ele>73.8</ele>
        <time>2014-10-11T14:03:17Z</time>
      </trkpt>
      <trkpt lat="59.071451" lon="17.787065">
        <ele>73.9</ele>
        <time>2014-10-11T14:03:18Z</time>
      </trkpt>
      <trkpt lat="59.071494" lon="17.786981">
        <ele>74</ele>
        <time>2014-10-11T14:03:19Z</time>
      </trkpt>
      <trkpt lat="59.071529" lon="17.786916">
        <ele>74.1</ele>
        <time>2014-10-11T14:03:20Z</time>
      </trkpt>
      <trkpt lat="59.071582" lon="17.78683">
        <ele>74.2</ele>
        <time>2014-10-11T14:03:21Z</time>
      </trkpt>
      <trkpt lat="59.071628" lon="17.786755">
        <ele>74.4</ele>
        <time>2014-10-11T14:03:22Z</time>
      </trkpt>
      <trkpt lat="59.071669" lon="17.78665">
        <ele>74.5</ele>
        <time>2014-10-11T14:03:23Z</time>
      </trkpt>
      <trkpt lat="59.07172" lon="17.786571">
        <ele>74.7</ele>
        <time>2014-10-11T14:03:24Z</time>
      </trkpt>
      <trkpt lat="59.071763" lon="17.786496">
        <ele>74.9</ele>
        <time>2014-10-11T14:03:25Z</time>
      </trkpt>
      <trkpt lat="59.071816" lon="17.786431">
        <ele>75.2</ele>
        <time>2014-10-11T14:03:26Z</time>
      </trkpt>
      <trkpt lat="59.071879" lon="17.78634">
        <ele>75.6</ele>
        <time>2014-10-11T14:03:27Z</time>
      </trkpt>
      <trkpt lat="59.071937" lon="17.786284">
        <ele>76</ele>
        <time>2014-10-11T14:03:28Z</time>
      </trkpt>
      <trkpt lat="59.071989" lon="17.786235">
        <ele>76.3</ele>
        <time>2014-10-11T14:03:29Z</time>
      </trkpt>
      <trkpt lat="59.072045" lon="17.786188">
        <ele>76.7</ele>
        <time>2014-10-11T14:03:30Z</time>
      </trkpt>
      <trkpt lat="59.072112" lon="17.786128">
        <ele>77</ele>
        <time>2014-10-11T14:03:31Z</time>
      </trkpt>
      <trkpt lat="59.072179" lon="17.786072">
        <ele>76.9</ele>
        <time>2014-10-11T14:03:32Z</time>
      </trkpt>
      <trkpt lat="59.07225" lon="17.786024">
        <ele>76.8</ele>
        <time>2014-10-11T14:03:33Z</time>
      </trkpt>
      <trkpt lat="59.072323" lon="17.785981">
        <ele>76.7</ele>
        <time>2014-10-11T14:03:34Z</time>
      </trkpt>
      <trkpt lat="59.072396" lon="17.785947">
        <ele>76.6</ele>
        <time>2014-10-11T14:03:35Z</time>
      </trkpt>
      <trkpt lat="59.07247" lon="17.785904">
        <ele>76.5</ele>
        <time>2014-10-11T14:03:36Z</time>
      </trkpt>
      <trkpt lat="59.072543" lon="17.785872">
        <ele>76.4</ele>
        <time>2014-10-11T14:03:37Z</time>
      </trkpt>
      <trkpt lat="59.072606" lon="17.785864">
        <ele>76.4</ele>
        <time>2014-10-11T14:03:38Z</time>
      </trkpt>
      <trkpt lat="59.072682" lon="17.785863">
        <ele>76.3</ele>
        <time>2014-10-11T14:03:39Z</time>
      </trkpt>
      <trkpt lat="59.072766" lon="17.785842">
        <ele>76.2</ele>
        <time>2014-10-11T14:03:40Z</time>
      </trkpt>
      <trkpt lat="59.072837" lon="17.785827">
        <ele>76.1</ele>
        <time>2014-10-11T14:03:41Z</time>
      </trkpt>
      <trkpt lat="59.072912" lon="17.785814">
        <ele>76</ele>
        <time>2014-10-11T14:03:42Z</time>
      </trkpt>
      <trkpt lat="59.072996" lon="17.78578">
        <ele>75.8</ele>
        <time>2014-10-11T14:03:43Z</time>
      </trkpt>
      <trkpt lat="59.073066" lon="17.785769">
        <ele>75.6</ele>
        <time>2014-10-11T14:03:44Z</time>
      </trkpt>
      <trkpt lat="59.07314" lon="17.785735">
        <ele>75.5</ele>
        <time>2014-10-11T14:03:45Z</time>
      </trkpt>
      <trkpt lat="59.073216" lon="17.78571">
        <ele>75.3</ele>
        <time>2014-10-11T14:03:46Z</time>
      </trkpt>
      <trkpt lat="59.073282" lon="17.785689">
        <ele>75.1</ele>
        <time>2014-10-11T14:03:47Z</time>
      </trkpt>
      <trkpt lat="59.073355" lon="17.78566">
        <ele>74.9</ele>
        <time>2014-10-11T14:03:48Z</time>
      </trkpt>
      <trkpt lat="59.073433" lon="17.785647">
        <ele>74.8</ele>
        <time>2014-10-11T14:03:49Z</time>
      </trkpt>
      <trkpt lat="59.073515" lon="17.785631">
        <ele>74.6</ele>
        <time>2014-10-11T14:03:50Z</time>
      </trkpt>
      <trkpt lat="59.073581" lon="17.785603">
        <ele>74.4</ele>
        <time>2014-10-11T14:03:51Z</time>
      </trkpt>
      <trkpt lat="59.073657" lon="17.78558">
        <ele>74.2</ele>
        <time>2014-10-11T14:03:52Z</time>
      </trkpt>
      <trkpt lat="59.073734" lon="17.785554">
        <ele>74</ele>
        <time>2014-10-11T14:03:53Z</time>
      </trkpt>
      <trkpt lat="59.073803" lon="17.785535">
        <ele>74.1</ele>
        <time>2014-10-11T14:03:54Z</time>
      </trkpt>
      <trkpt lat="59.073875" lon="17.785504">
        <ele>74.3</ele>
        <time>2014-10-11T14:03:55Z</time>
      </trkpt>
      <trkpt lat="59.073953" lon="17.785489">
        <ele>74.5</ele>
        <time>2014-10-11T14:03:56Z</time>
      </trkpt>
      <trkpt lat="59.07403" lon="17.785463">
        <ele>74.7</ele>
        <time>2014-10-11T14:03:57Z</time>
      </trkpt>
      <trkpt lat="59.074113" lon="17.785454">
        <ele>74.9</ele>
        <time>2014-10-11T14:03:58Z</time>
      </trkpt>
      <trkpt lat="59.074192" lon="17.78542">
        <ele>75.1</ele>
        <time>2014-10-11T14:03:59Z</time>
      </trkpt>
      <trkpt lat="59.074271" lon="17.785405">
        <ele>75.2</ele>
        <time>2014-10-11T14:04:00Z</time>
      </trkpt>
      <trkpt lat="59.074355" lon="17.785403">
        <ele>75.4</ele>
        <time>2014-10-11T14:04:01Z</time>
      </trkpt>
      <trkpt lat="59.074427" lon="17.78539">
        <ele>75.5</ele>
        <time>2014-10-11T14:04:02Z</time>
      </trkpt>
      <trkpt lat="59.074511" lon="17.785384">
        <ele>75.7</ele>
        <time>2014-10-11T14:04:03Z</time>
      </trkpt>
      <trkpt lat="59.074582" lon="17.785389">
        <ele>75.9</ele>
        <time>2014-10-11T14:04:04Z</time>
      </trkpt>
      <trkpt lat="59.074669" lon="17.785398">
        <ele>75.9</ele>
        <time>2014-10-11T14:04:05Z</time>
      </trkpt>
      <trkpt lat="59.074742" lon="17.785415">
        <ele>76</ele>
        <time>2014-10-11T14:04:06Z</time>
      </trkpt>
      <trkpt lat="59.074825" lon="17.785429">
        <ele>76</ele>
        <time>2014-10-11T14:04:07Z</time>
      </trkpt>
      <trkpt lat="59.0749" lon="17.785445">
        <ele>76</ele>
        <time>2014-10-11T14:04:08Z</time>
      </trkpt>
      <trkpt lat="59.074992" lon="17.785471">
        <ele>76.1</ele>
        <time>2014-10-11T14:04:09Z</time>
      </trkpt>
      <trkpt lat="59.075073" lon="17.785504">
        <ele>76.1</ele>
        <time>2014-10-11T14:04:10Z</time>
      </trkpt>
      <trkpt lat="59.075152" lon="17.785534">
        <ele>76.2</ele>
        <time>2014-10-11T14:04:11Z</time>
      </trkpt>
      <trkpt lat="59.075234" lon="17.785556">
        <ele>76.3</ele>
        <time>2014-10-11T14:04:12Z</time>
      </trkpt>
      <trkpt lat="59.075298" lon="17.785579">
        <ele>76.3</ele>
        <time>2014-10-11T14:04:13Z</time>
      </trkpt>
      <trkpt lat="59.075364" lon="17.785608">
        <ele>76.4</ele>
        <time>2014-10-11T14:04:14Z</time>
      </trkpt>
      <trkpt lat="59.075441" lon="17.785641">
        <ele>76.4</ele>
        <time>2014-10-11T14:04:15Z</time>
      </trkpt>
      <trkpt lat="59.075522" lon="17.785669">
        <ele>76.1</ele>
        <time>2014-10-11T14:04:16Z</time>
      </trkpt>
      <trkpt lat="59.075596" lon="17.785698">
        <ele>75.7</ele>
        <time>2014-10-11T14:04:17Z</time>
      </trkpt>
      <trkpt lat="59.075679" lon="17.785723">
        <ele>75.4</ele>
        <time>2014-10-11T14:04:18Z</time>
      </trkpt>
      <trkpt lat="59.07575" lon="17.78575">
        <ele>75.1</ele>
        <time>2014-10-11T14:04:19Z</time>
      </trkpt>
      <trkpt lat="59.075816" lon="17.785776">
        <ele>74.9</ele>
        <time>2014-10-11T14:04:20Z</time>
      </trkpt>
      <trkpt lat="59.075889" lon="17.785802">
        <ele>74.6</ele>
        <time>2014-10-11T14:04:21Z</time>
      </trkpt>
      <trkpt lat="59.075961" lon="17.785845">
        <ele>74.4</ele>
        <time>2014-10-11T14:04:22Z</time>
      </trkpt>
      <trkpt lat="59.076038" lon="17.785875">
        <ele>74.2</ele>
        <time>2014-10-11T14:04:23Z</time>
      </trkpt>
      <trkpt lat="59.076116" lon="17.7859">
        <ele>73.9</ele>
        <time>2014-10-11T14:04:24Z</time>
      </trkpt>
      <trkpt lat="59.076194" lon="17.785926">
        <ele>73.7</ele>
        <time>2014-10-11T14:04:25Z</time>
      </trkpt>
      <trkpt lat="59.076275" lon="17.785964">
        <ele>73.6</ele>
        <time>2014-10-11T14:04:26Z</time>
      </trkpt>
      <trkpt lat="59.07635" lon="17.785995">
        <ele>73.7</ele>
        <time>2014-10-11T14:04:27Z</time>
      </trkpt>
      <trkpt lat="59.076436" lon="17.786032">
        <ele>73.7</ele>
        <time>2014-10-11T14:04:28Z</time>
      </trkpt>
      <trkpt lat="59.076502" lon="17.786057">
        <ele>73.8</ele>
        <time>2014-10-11T14:04:29Z</time>
      </trkpt>
      <trkpt lat="59.076579" lon="17.786093">
        <ele>73.9</ele>
        <time>2014-10-11T14:04:30Z</time>
      </trkpt>
      <trkpt lat="59.07666" lon="17.78614">
        <ele>74</ele>
        <time>2014-10-11T14:04:31Z</time>
      </trkpt>
      <trkpt lat="59.076732" lon="17.786172">
        <ele>74</ele>
        <time>2014-10-11T14:04:32Z</time>
      </trkpt>
      <trkpt lat="59.076796" lon="17.786205">
        <ele>74.1</ele>
        <time>2014-10-11T14:04:33Z</time>
      </trkpt>
      <trkpt lat="59.076862" lon="17.786245">
        <ele>74.2</ele>
        <time>2014-10-11T14:04:34Z</time>
      </trkpt>
      <trkpt lat="59.076932" lon="17.786282">
        <ele>74.4</ele>
        <time>2014-10-11T14:04:35Z</time>
      </trkpt>
      <trkpt lat="59.076995" lon="17.786336">
        <ele>74.6</ele>
        <time>2014-10-11T14:04:36Z</time>
      </trkpt>
      <trkpt lat="59.077062" lon="17.786388">
        <ele>74.8</ele>
        <time>2014-10-11T14:04:37Z</time>
      </trkpt>
      <trkpt lat="59.077127" lon="17.786408">
        <ele>75.2</ele>
        <time>2014-10-11T14:04:38Z</time>
      </trkpt>
      <trkpt lat="59.077195" lon="17.786456">
        <ele>75.8</ele>
        <time>2014-10-11T14:04:39Z</time>
      </trkpt>
      <trkpt lat="59.077262" lon="17.786508">
        <ele>76.5</ele>
        <time>2014-10-11T14:04:40Z</time>
      </trkpt>
      <trkpt lat="59.077341" lon="17.786566">
        <ele>77.2</ele>
        <time>2014-10-11T14:04:41Z</time>
      </trkpt>
      <trkpt lat="59.077409" lon="17.786612">
        <ele>77.8</ele>
        <time>2014-10-11T14:04:42Z</time>
      </trkpt>
      <trkpt lat="59.077468" lon="17.786656">
        <ele>78.3</ele>
        <time>2014-10-11T14:04:43Z</time>
      </trkpt>
      <trkpt lat="59.077543" lon="17.786682">
        <ele>78.8</ele>
        <time>2014-10-11T14:04:44Z</time>
      </trkpt>
      <trkpt lat="59.077601" lon="17.786728">
        <ele>79.3</ele>
        <time>2014-10-11T14:04:45Z</time>
      </trkpt>
      <trkpt lat="59.077674" lon="17.786764">
        <ele>79.8</ele>
        <time>2014-10-11T14:04:46Z</time>
      </trkpt>
      <trkpt lat="59.077735" lon="17.786806">
        <ele>80.2</ele>
        <time>2014-10-11T14:04:47Z</time>
      </trkpt>
      <trkpt lat="59.077799" lon="17.786857">
        <ele>80.7</ele>
        <time>2014-10-11T14:04:48Z</time>
      </trkpt>
      <trkpt lat="59.077864" lon="17.786908">
        <ele>81.2</ele>
        <time>2014-10-11T14:04:49Z</time>
      </trkpt>
      <trkpt lat="59.077935" lon="17.786944">
        <ele>81.5</ele>
        <time>2014-10-11T14:04:50Z</time>
      </trkpt>
      <trkpt lat="59.078009" lon="17.786973">
        <ele>81.5</ele>
        <time>2014-10-11T14:04:51Z</time>
      </trkpt>
      <trkpt lat="59.078081" lon="17.786992">
        <ele>81.5</ele>
        <time>2014-10-11T14:04:52Z</time>
      </trkpt>
      <trkpt lat="59.078156" lon="17.787021">
        <ele>81.5</ele>
        <time>2014-10-11T14:04:53Z</time>
      </trkpt>
      <trkpt lat="59.078232" lon="17.787044">
        <ele>81.5</ele>
        <time>2014-10-11T14:04:54Z</time>
      </trkpt>
      <trkpt lat="59.078314" lon="17.787063">
        <ele>81.5</ele>
        <time>2014-10-11T14:04:55Z</time>
      </trkpt>
      <trkpt lat="59.0784" lon="17.787088">
        <ele>81.4</ele>
        <time>2014-10-11T14:04:56Z</time>
      </trkpt>
      <trkpt lat="59.078487" lon="17.787114">
        <ele>81.3</ele>
        <time>2014-10-11T14:04:57Z</time>
      </trkpt>
      <trkpt lat="59.078563" lon="17.787141">
        <ele>81.2</ele>
        <time>2014-10-11T14:04:58Z</time>
      </trkpt>
      <trkpt lat="59.078645" lon="17.787168">
        <ele>81.1</ele>
        <time>2014-10-11T14:04:59Z</time>
      </trkpt>
      <trkpt lat="59.078742" lon="17.787161">
        <ele>81</ele>
        <time>2014-10-11T14:05:00Z</time>
      </trkpt>
      <trkpt lat="59.078826" lon="17.787175">
        <ele>80.7</ele>
        <time>2014-10-11T14:05:01Z</time>
      </trkpt>
      <trkpt lat="59.078916" lon="17.78719">
        <ele>80.4</ele>
        <time>2014-10-11T14:05:02Z</time>
      </trkpt>
      <trkpt lat="59.078984" lon="17.787182">
        <ele>80.2</ele>
        <time>2014-10-11T14:05:03Z</time>
      </trkpt>
      <trkpt lat="59.079064" lon="17.787185">
        <ele>79.9</ele>
        <time>2014-10-11T14:05:04Z</time>
      </trkpt>
      <trkpt lat="59.079161" lon="17.78719">
        <ele>79.6</ele>
        <time>2014-10-11T14:05:05Z</time>
      </trkpt>
      <trkpt lat="59.079252" lon="17.787172">
        <ele>79.3</ele>
        <time>2014-10-11T14:05:06Z</time>
      </trkpt>
      <trkpt lat="59.079337" lon="17.787157">
        <ele>78.9</ele>
        <time>2014-10-11T14:05:07Z</time>
      </trkpt>
      <trkpt lat="59.079416" lon="17.787145">
        <ele>78.7</ele>
        <time>2014-10-11T14:05:08Z</time>
      </trkpt>
      <trkpt lat="59.079508" lon="17.787122">
        <ele>78.3</ele>
        <time>2014-10-11T14:05:09Z</time>
      </trkpt>
      <trkpt lat="59.079584" lon="17.7871">
        <ele>78</ele>
        <time>2014-10-11T14:05:10Z</time>
      </trkpt>
      <trkpt lat="59.079672" lon="17.787071">
        <ele>77.7</ele>
        <time>2014-10-11T14:05:11Z</time>
      </trkpt>
      <trkpt lat="59.07976" lon="17.787042">
        <ele>77.3</ele>
        <time>2014-10-11T14:05:12Z</time>
      </trkpt>
      <trkpt lat="59.079845" lon="17.787005">
        <ele>77</ele>
        <time>2014-10-11T14:05:13Z</time>
      </trkpt>
      <trkpt lat="59.079924" lon="17.786983">
        <ele>76.7</ele>
        <time>2014-10-11T14:05:14Z</time>
      </trkpt>
      <trkpt lat="59.080001" lon="17.786953">
        <ele>76.4</ele>
        <time>2014-10-11T14:05:15Z</time>
      </trkpt>
      <trkpt lat="59.080092" lon="17.786914">
        <ele>76.1</ele>
        <time>2014-10-11T14:05:16Z</time>
      </trkpt>
      <trkpt lat="59.080171" lon="17.786883">
        <ele>75.8</ele>
        <time>2014-10-11T14:05:17Z</time>
      </trkpt>
      <trkpt lat="59.080251" lon="17.786835">
        <ele>75.5</ele>
        <time>2014-10-11T14:05:18Z</time>
      </trkpt>
      <trkpt lat="59.080344" lon="17.786804">
        <ele>75.2</ele>
        <time>2014-10-11T14:05:19Z</time>
      </trkpt>
      <trkpt lat="59.080438" lon="17.786773">
        <ele>75</ele>
        <time>2014-10-11T14:05:20Z</time>
      </trkpt>
      <trkpt lat="59.080529" lon="17.78675">
        <ele>75</ele>
        <time>2014-10-11T14:05:21Z</time>
      </trkpt>
      <trkpt lat="59.080607" lon="17.786716">
        <ele>75</ele>
        <time>2014-10-11T14:05:22Z</time>
      </trkpt>
      <trkpt lat="59.080686" lon="17.786695">
        <ele>75</ele>
        <time>2014-10-11T14:05:23Z</time>
      </trkpt>
      <trkpt lat="59.08077" lon="17.786675">
        <ele>75</ele>
        <time>2014-10-11T14:05:24Z</time>
      </trkpt>
      <trkpt lat="59.08086" lon="17.786647">
        <ele>75</ele>
        <time>2014-10-11T14:05:25Z</time>
      </trkpt>
      <trkpt lat="59.080936" lon="17.786629">
        <ele>75</ele>
        <time>2014-10-11T14:05:26Z</time>
      </trkpt>
      <trkpt lat="59.081011" lon="17.78661">
        <ele>75</ele>
        <time>2014-10-11T14:05:27Z</time>
      </trkpt>
      <trkpt lat="59.081097" lon="17.7866">
        <ele>75</ele>
        <time>2014-10-11T14:05:28Z</time>
      </trkpt>
      <trkpt lat="59.081183" lon="17.786593">
        <ele>75</ele>
        <time>2014-10-11T14:05:29Z</time>
      </trkpt>
      <trkpt lat="59.081284" lon="17.786583">
        <ele>75</ele>
        <time>2014-10-11T14:05:30Z</time>
      </trkpt>
      <trkpt lat="59.081367" lon="17.786588">
        <ele>75.1</ele>
        <time>2014-10-11T14:05:31Z</time>
      </trkpt>
      <trkpt lat="59.081459" lon="17.786584">
        <ele>75.3</ele>
        <time>2014-10-11T14:05:32Z</time>
      </trkpt>
      <trkpt lat="59.081536" lon="17.786584">
        <ele>75.3</ele>
        <time>2014-10-11T14:05:33Z</time>
      </trkpt>
      <trkpt lat="59.081619" lon="17.786595">
        <ele>75.4</ele>
        <time>2014-10-11T14:05:34Z</time>
      </trkpt>
      <trkpt lat="59.081695" lon="17.786616">
        <ele>75.5</ele>
        <time>2014-10-11T14:05:35Z</time>
      </trkpt>
      <trkpt lat="59.081769" lon="17.786642">
        <ele>75.6</ele>
        <time>2014-10-11T14:05:36Z</time>
      </trkpt>
      <trkpt lat="59.081853" lon="17.786645">
        <ele>75.7</ele>
        <time>2014-10-11T14:05:37Z</time>
      </trkpt>
      <trkpt lat="59.081925" lon="17.786665">
        <ele>75.8</ele>
        <time>2014-10-11T14:05:38Z</time>
      </trkpt>
      <trkpt lat="59.082005" lon="17.786699">
        <ele>75.9</ele>
        <time>2014-10-11T14:05:39Z</time>
      </trkpt>
      <trkpt lat="59.082086" lon="17.786718">
        <ele>76</ele>
        <time>2014-10-11T14:05:40Z</time>
      </trkpt>
      <trkpt lat="59.082165" lon="17.786737">
        <ele>76.3</ele>
        <time>2014-10-11T14:05:41Z</time>
      </trkpt>
      <trkpt lat="59.082238" lon="17.78677">
        <ele>76.6</ele>
        <time>2014-10-11T14:05:42Z</time>
      </trkpt>
      <trkpt lat="59.082312" lon="17.786811">
        <ele>76.9</ele>
        <time>2014-10-11T14:05:43Z</time>
      </trkpt>
      <trkpt lat="59.082384" lon="17.786849">
        <ele>77.2</ele>
        <time>2014-10-11T14:05:44Z</time>
      </trkpt>
      <trkpt lat="59.082453" lon="17.786875">
        <ele>77.6</ele>
        <time>2014-10-11T14:05:45Z</time>
      </trkpt>
      <trkpt lat="59.082525" lon="17.786909">
        <ele>77.9</ele>
        <time>2014-10-11T14:05:46Z</time>
      </trkpt>
      <trkpt lat="59.082594" lon="17.786948">
        <ele>78.3</ele>
        <time>2014-10-11T14:05:47Z</time>
      </trkpt>
      <trkpt lat="59.082672" lon="17.78698">
        <ele>78.7</ele>
        <time>2014-10-11T14:05:48Z</time>
      </trkpt>
      <trkpt lat="59.08273" lon="17.787023">
        <ele>79</ele>
        <time>2014-10-11T14:05:49Z</time>
      </trkpt>
      <trkpt lat="59.0828" lon="17.787051">
        <ele>79.4</ele>
        <time>2014-10-11T14:05:50Z</time>
      </trkpt>
      <trkpt lat="59.082861" lon="17.787092">
        <ele>79.7</ele>
        <time>2014-10-11T14:05:51Z</time>
      </trkpt>
      <trkpt lat="59.082932" lon="17.787127">
        <ele>80.1</ele>
        <time>2014-10-11T14:05:52Z</time>
      </trkpt>
      <trkpt lat="59.083013" lon="17.787159">
        <ele>80.3</ele>
        <time>2014-10-11T14:05:53Z</time>
      </trkpt>
      <trkpt lat="59.083085" lon="17.787199">
        <ele>80.6</ele>
        <time>2014-10-11T14:05:54Z</time>
      </trkpt>
      <trkpt lat="59.083156" lon="17.787235">
        <ele>80.9</ele>
        <time>2014-10-11T14:05:55Z</time>
      </trkpt>
      <trkpt lat="59.083223" lon="17.787268">
        <ele>81.1</ele>
        <time>2014-10-11T14:05:56Z</time>
      </trkpt>
      <trkpt lat="59.083296" lon="17.787278">
        <ele>81.4</ele>
        <time>2014-10-11T14:05:57Z</time>
      </trkpt>
      <trkpt lat="59.083364" lon="17.787322">
        <ele>81.6</ele>
        <time>2014-10-11T14:05:58Z</time>
      </trkpt>
      <trkpt lat="59.08344" lon="17.787345">
        <ele>81.9</ele>
        <time>2014-10-11T14:05:59Z</time>
      </trkpt>
      <trkpt lat="59.083513" lon="17.787374">
        <ele>82.1</ele>
        <time>2014-10-11T14:06:00Z</time>
      </trkpt>
      <trkpt lat="59.083588" lon="17.787411">
        <ele>82.4</ele>
        <time>2014-10-11T14:06:01Z</time>
      </trkpt>
      <trkpt lat="59.083661" lon="17.787422">
        <ele>82.7</ele>
        <time>2014-10-11T14:06:02Z</time>
      </trkpt>
      <trkpt lat="59.083718" lon="17.787441">
        <ele>82.9</ele>
        <time>2014-10-11T14:06:03Z</time>
      </trkpt>
      <trkpt lat="59.083787" lon="17.78747">
        <ele>83.1</ele>
        <time>2014-10-11T14:06:04Z</time>
      </trkpt>
      <trkpt lat="59.083856" lon="17.787493">
        <ele>83.2</ele>
        <time>2014-10-11T14:06:05Z</time>
      </trkpt>
      <trkpt lat="59.083921" lon="17.787517">
        <ele>83.3</ele>
        <time>2014-10-11T14:06:06Z</time>
      </trkpt>
      <trkpt lat="59.083996" lon="17.787535">
        <ele>83.4</ele>
        <time>2014-10-11T14:06:07Z</time>
      </trkpt>
      <trkpt lat="59.084063" lon="17.787555">
        <ele>83.5</ele>
        <time>2014-10-11T14:06:08Z</time>
      </trkpt>
      <trkpt lat="59.084135" lon="17.787564">
        <ele>83.6</ele>
        <time>2014-10-11T14:06:09Z</time>
      </trkpt>
      <trkpt lat="59.084213" lon="17.787575">
        <ele>83.7</ele>
        <time>2014-10-11T14:06:10Z</time>
      </trkpt>
      <trkpt lat="59.084288" lon="17.787598">
        <ele>83.7</ele>
        <time>2014-10-11T14:06:11Z</time>
      </trkpt>
      <trkpt lat="59.084356" lon="17.787628">
        <ele>83.8</ele>
        <time>2014-10-11T14:06:12Z</time>
      </trkpt>
      <trkpt lat="59.084434" lon="17.787659">
        <ele>83.8</ele>
        <time>2014-10-11T14:06:13Z</time>
      </trkpt>
      <trkpt lat="59.084511" lon="17.787689">
        <ele>83.7</ele>
        <time>2014-10-11T14:06:14Z</time>
      </trkpt>
      <trkpt lat="59.084586" lon="17.787709">
        <ele>83.7</ele>
        <time>2014-10-11T14:06:15Z</time>
      </trkpt>
      <trkpt lat="59.084655" lon="17.787744">
        <ele>83.6</ele>
        <time>2014-10-11T14:06:16Z</time>
      </trkpt>
      <trkpt lat="59.084724" lon="17.787772">
        <ele>83.5</ele>
        <time>2014-10-11T14:06:17Z</time>
      </trkpt>
      <trkpt lat="59.0848" lon="17.787796">
        <ele>83.4</ele>
        <time>2014-10-11T14:06:18Z</time>
      </trkpt>
      <trkpt lat="59.084874" lon="17.7878">
        <ele>83.4</ele>
        <time>2014-10-11T14:06:19Z</time>
      </trkpt>
      <trkpt lat="59.08495" lon="17.787819">
        <ele>83.3</ele>
        <time>2014-10-11T14:06:20Z</time>
      </trkpt>
      <trkpt lat="59.085018" lon="17.787833">
        <ele>83.2</ele>
        <time>2014-10-11T14:06:21Z</time>
      </trkpt>
      <trkpt lat="59.085079" lon="17.78783">
        <ele>83.3</ele>
        <time>2014-10-11T14:06:22Z</time>
      </trkpt>
      <trkpt lat="59.085155" lon="17.787844">
        <ele>83.2</ele>
        <time>2014-10-11T14:06:23Z</time>
      </trkpt>
      <trkpt lat="59.085226" lon="17.787855">
        <ele>83.2</ele>
        <time>2014-10-11T14:06:24Z</time>
      </trkpt>
      <trkpt lat="59.085288" lon="17.787875">
        <ele>83.1</ele>
        <time>2014-10-11T14:06:25Z</time>
      </trkpt>
      <trkpt lat="59.085373" lon="17.787903">
        <ele>83</ele>
        <time>2014-10-11T14:06:26Z</time>
      </trkpt>
      <trkpt lat="59.085443" lon="17.787924">
        <ele>82.8</ele>
        <time>2014-10-11T14:06:27Z</time>
      </trkpt>
      <trkpt lat="59.085516" lon="17.787959">
        <ele>82.4</ele>
        <time>2014-10-11T14:06:28Z</time>
      </trkpt>
      <trkpt lat="59.085589" lon="17.787969">
        <ele>82</ele>
        <time>2014-10-11T14:06:29Z</time>
      </trkpt>
      <trkpt lat="59.085658" lon="17.787982">
        <ele>81.6</ele>
        <time>2014-10-11T14:06:30Z</time>
      </trkpt>
      <trkpt lat="59.085726" lon="17.788014">
        <ele>81.2</ele>
        <time>2014-10-11T14:06:31Z</time>
      </trkpt>
      <trkpt lat="59.0858" lon="17.788023">
        <ele>80.8</ele>
        <time>2014-10-11T14:06:32Z</time>
      </trkpt>
      <trkpt lat="59.085887" lon="17.788055">
        <ele>80.3</ele>
        <time>2014-10-11T14:06:33Z</time>
      </trkpt>
      <trkpt lat="59.085969" lon="17.788069">
        <ele>79.9</ele>
        <time>2014-10-11T14:06:34Z</time>
      </trkpt>
      <trkpt lat="59.086065" lon="17.788092">
        <ele>79.4</ele>
        <time>2014-10-11T14:06:35Z</time>
      </trkpt>
      <trkpt lat="59.086162" lon="17.788118">
        <ele>78.9</ele>
        <time>2014-10-11T14:06:36Z</time>
      </trkpt>
      <trkpt lat="59.086261" lon="17.788146">
        <ele>78.4</ele>
        <time>2014-10-11T14:06:37Z</time>
      </trkpt>
      <trkpt lat="59.086364" lon="17.788171">
        <ele>77.8</ele>
        <time>2014-10-11T14:06:38Z</time>
      </trkpt>
      <trkpt lat="59.086464" lon="17.788182">
        <ele>77.2</ele>
        <time>2014-10-11T14:06:39Z</time>
      </trkpt>
      <trkpt lat="59.086564" lon="17.78819">
        <ele>76.7</ele>
        <time>2014-10-11T14:06:40Z</time>
      </trkpt>
      <trkpt lat="59.086668" lon="17.788202">
        <ele>76.2</ele>
        <time>2014-10-11T14:06:41Z</time>
      </trkpt>
      <trkpt lat="59.08677" lon="17.788219">
        <ele>75.7</ele>
        <time>2014-10-11T14:06:42Z</time>
      </trkpt>
      <trkpt lat="59.08687" lon="17.78823">
        <ele>75.2</ele>
        <time>2014-10-11T14:06:43Z</time>
      </trkpt>
      <trkpt lat="59.086969" lon="17.788224">
        <ele>74.7</ele>
        <time>2014-10-11T14:06:44Z</time>
      </trkpt>
      <trkpt lat="59.087076" lon="17.788244">
        <ele>74.2</ele>
        <time>2014-10-11T14:06:45Z</time>
      </trkpt>
      <trkpt lat="59.087182" lon="17.788229">
        <ele>73.5</ele>
        <time>2014-10-11T14:06:46Z</time>
      </trkpt>
      <trkpt lat="59.08729" lon="17.788211">
        <ele>72.8</ele>
        <time>2014-10-11T14:06:47Z</time>
      </trkpt>
      <trkpt lat="59.087397" lon="17.788198">
        <ele>72</ele>
        <time>2014-10-11T14:06:48Z</time>
      </trkpt>
      <trkpt lat="59.087506" lon="17.788205">
        <ele>71.4</ele>
        <time>2014-10-11T14:06:49Z</time>
      </trkpt>
      <trkpt lat="59.087621" lon="17.788216">
        <ele>70.7</ele>
        <time>2014-10-11T14:06:50Z</time>
      </trkpt>
      <trkpt lat="59.087731" lon="17.788218">
        <ele>70</ele>
        <time>2014-10-11T14:06:51Z</time>
      </trkpt>
      <trkpt lat="59.087841" lon="17.788212">
        <ele>69.3</ele>
        <time>2014-10-11T14:06:52Z</time>
      </trkpt>
      <trkpt lat="59.087938" lon="17.788199">
        <ele>68.7</ele>
        <time>2014-10-11T14:06:53Z</time>
      </trkpt>
      <trkpt lat="59.08805" lon="17.788175">
        <ele>68.4</ele>
        <time>2014-10-11T14:06:54Z</time>
      </trkpt>
      <trkpt lat="59.088161" lon="17.78817">
        <ele>68.4</ele>
        <time>2014-10-11T14:06:55Z</time>
      </trkpt>
      <trkpt lat="59.088262" lon="17.788148">
        <ele>68.2</ele>
        <time>2014-10-11T14:06:56Z</time>
      </trkpt>
      <trkpt lat="59.088372" lon="17.788143">
        <ele>68.1</ele>
        <time>2014-10-11T14:06:57Z</time>
      </trkpt>
      <trkpt lat="59.088473" lon="17.788135">
        <ele>68.1</ele>
        <time>2014-10-11T14:06:58Z</time>
      </trkpt>
      <trkpt lat="59.088584" lon="17.788133">
        <ele>68</ele>
        <time>2014-10-11T14:06:59Z</time>
      </trkpt>
      <trkpt lat="59.088688" lon="17.78815">
        <ele>68.1</ele>
        <time>2014-10-11T14:07:00Z</time>
      </trkpt>
      <trkpt lat="59.0888" lon="17.788184">
        <ele>68.2</ele>
        <time>2014-10-11T14:07:01Z</time>
      </trkpt>
      <trkpt lat="59.088904" lon="17.788218">
        <ele>68.2</ele>
        <time>2014-10-11T14:07:02Z</time>
      </trkpt>
      <trkpt lat="59.089002" lon="17.788271">
        <ele>68.3</ele>
        <time>2014-10-11T14:07:03Z</time>
      </trkpt>
      <trkpt lat="59.089111" lon="17.788319">
        <ele>68.3</ele>
        <time>2014-10-11T14:07:04Z</time>
      </trkpt>
      <trkpt lat="59.089222" lon="17.788367">
        <ele>68.2</ele>
        <time>2014-10-11T14:07:05Z</time>
      </trkpt>
      <trkpt lat="59.089328" lon="17.788405">
        <ele>68.1</ele>
        <time>2014-10-11T14:07:06Z</time>
      </trkpt>
      <trkpt lat="59.089432" lon="17.788447">
        <ele>68</ele>
        <time>2014-10-11T14:07:07Z</time>
      </trkpt>
      <trkpt lat="59.089543" lon="17.788492">
        <ele>67.8</ele>
        <time>2014-10-11T14:07:08Z</time>
      </trkpt>
      <trkpt lat="59.089645" lon="17.788528">
        <ele>67.6</ele>
        <time>2014-10-11T14:07:09Z</time>
      </trkpt>
      <trkpt lat="59.089744" lon="17.788597">
        <ele>67.4</ele>
        <time>2014-10-11T14:07:10Z</time>
      </trkpt>
      <trkpt lat="59.089844" lon="17.788665">
        <ele>67.3</ele>
        <time>2014-10-11T14:07:11Z</time>
      </trkpt>
      <trkpt lat="59.089945" lon="17.788757">
        <ele>67.2</ele>
        <time>2014-10-11T14:07:12Z</time>
      </trkpt>
      <trkpt lat="59.090046" lon="17.78886">
        <ele>67.1</ele>
        <time>2014-10-11T14:07:13Z</time>
      </trkpt>
      <trkpt lat="59.090129" lon="17.788987">
        <ele>67.1</ele>
        <time>2014-10-11T14:07:14Z</time>
      </trkpt>
      <trkpt lat="59.090222" lon="17.789122">
        <ele>66.9</ele>
        <time>2014-10-11T14:07:15Z</time>
      </trkpt>
      <trkpt lat="59.090302" lon="17.789261">
        <ele>66.6</ele>
        <time>2014-10-11T14:07:16Z</time>
      </trkpt>
      <trkpt lat="59.090398" lon="17.789403">
        <ele>66.1</ele>
        <time>2014-10-11T14:07:17Z</time>
      </trkpt>
      <trkpt lat="59.090494" lon="17.789526">
        <ele>65.8</ele>
        <time>2014-10-11T14:07:18Z</time>
      </trkpt>
      <trkpt lat="59.090583" lon="17.789645">
        <ele>65.5</ele>
        <time>2014-10-11T14:07:19Z</time>
      </trkpt>
      <trkpt lat="59.090672" lon="17.789756">
        <ele>65.2</ele>
        <time>2014-10-11T14:07:20Z</time>
      </trkpt>
      <trkpt lat="59.090773" lon="17.789839">
        <ele>64.8</ele>
        <time>2014-10-11T14:07:21Z</time>
      </trkpt>
      <trkpt lat="59.090879" lon="17.789942">
        <ele>64.5</ele>
        <time>2014-10-11T14:07:22Z</time>
      </trkpt>
      <trkpt lat="59.090971" lon="17.790022">
        <ele>64.1</ele>
        <time>2014-10-11T14:07:23Z</time>
      </trkpt>
      <trkpt lat="59.091078" lon="17.790111">
        <ele>63.8</ele>
        <time>2014-10-11T14:07:24Z</time>
      </trkpt>
      <trkpt lat="59.091175" lon="17.790165">
        <ele>63.5</ele>
        <time>2014-10-11T14:07:25Z</time>
      </trkpt>
      <trkpt lat="59.091282" lon="17.790214">
        <ele>63.1</ele>
        <time>2014-10-11T14:07:26Z</time>
      </trkpt>
      <trkpt lat="59.091388" lon="17.790272">
        <ele>62.6</ele>
        <time>2014-10-11T14:07:27Z</time>
      </trkpt>
      <trkpt lat="59.091493" lon="17.790318">
        <ele>62.2</ele>
        <time>2014-10-11T14:07:28Z</time>
      </trkpt>
      <trkpt lat="59.0916" lon="17.790353">
        <ele>61.8</ele>
        <time>2014-10-11T14:07:29Z</time>
      </trkpt>
      <trkpt lat="59.091716" lon="17.79039">
        <ele>61.3</ele>
        <time>2014-10-11T14:07:30Z</time>
      </trkpt>
      <trkpt lat="59.091828" lon="17.79043">
        <ele>60.9</ele>
        <time>2014-10-11T14:07:31Z</time>
      </trkpt>
      <trkpt lat="59.091932" lon="17.790467">
        <ele>60.5</ele>
        <time>2014-10-11T14:07:32Z</time>
      </trkpt>
      <trkpt lat="59.092034" lon="17.790578">
        <ele>59.8</ele>
        <time>2014-10-11T14:07:33Z</time>
      </trkpt>
      <trkpt lat="59.092152" lon="17.790655">
        <ele>59.3</ele>
        <time>2014-10-11T14:07:34Z</time>
      </trkpt>
      <trkpt lat="59.09225" lon="17.790719">
        <ele>59</ele>
        <time>2014-10-11T14:07:35Z</time>
      </trkpt>
      <trkpt lat="59.092355" lon="17.790773">
        <ele>58.8</ele>
        <time>2014-10-11T14:07:36Z</time>
      </trkpt>
      <trkpt lat="59.092466" lon="17.790827">
        <ele>58.5</ele>
        <time>2014-10-11T14:07:37Z</time>
      </trkpt>
      <trkpt lat="59.092564" lon="17.790875">
        <ele>58.4</ele>
        <time>2014-10-11T14:07:38Z</time>
      </trkpt>
      <trkpt lat="59.092666" lon="17.790908">
        <ele>58.2</ele>
        <time>2014-10-11T14:07:39Z</time>
      </trkpt>
      <trkpt lat="59.092781" lon="17.790962">
        <ele>58.1</ele>
        <time>2014-10-11T14:07:40Z</time>
      </trkpt>
      <trkpt lat="59.092881" lon="17.791015">
        <ele>58</ele>
        <time>2014-10-11T14:07:41Z</time>
      </trkpt>
      <trkpt lat="59.09299" lon="17.791057">
        <ele>57.9</ele>
        <time>2014-10-11T14:07:42Z</time>
      </trkpt>
      <trkpt lat="59.093101" lon="17.791104">
        <ele>57.7</ele>
        <time>2014-10-11T14:07:43Z</time>
      </trkpt>
      <trkpt lat="59.093204" lon="17.791144">
        <ele>57.6</ele>
        <time>2014-10-11T14:07:44Z</time>
      </trkpt>
      <trkpt lat="59.093297" lon="17.791189">
        <ele>57.5</ele>
        <time>2014-10-11T14:07:45Z</time>
      </trkpt>
      <trkpt lat="59.093393" lon="17.791235">
        <ele>57.4</ele>
        <time>2014-10-11T14:07:46Z</time>
      </trkpt>
      <trkpt lat="59.093491" lon="17.791289">
        <ele>57.4</ele>
        <time>2014-10-11T14:07:47Z</time>
      </trkpt>
      <trkpt lat="59.093585" lon="17.791316">
        <ele>57.3</ele>
        <time>2014-10-11T14:07:48Z</time>
      </trkpt>
      <trkpt lat="59.093675" lon="17.791361">
        <ele>57.3</ele>
        <time>2014-10-11T14:07:49Z</time>
      </trkpt>
      <trkpt lat="59.093755" lon="17.79142">
        <ele>57.4</ele>
        <time>2014-10-11T14:07:50Z</time>
      </trkpt>
      <trkpt lat="59.09384" lon="17.791485">
        <ele>57.5</ele>
        <time>2014-10-11T14:07:51Z</time>
      </trkpt>
      <trkpt lat="59.093931" lon="17.791545">
        <ele>57.6</ele>
        <time>2014-10-11T14:07:52Z</time>
      </trkpt>
      <trkpt lat="59.094016" lon="17.791601">
        <ele>57.7</ele>
        <time>2014-10-11T14:07:53Z</time>
      </trkpt>
      <trkpt lat="59.094095" lon="17.791653">
        <ele>57.8</ele>
        <time>2014-10-11T14:07:54Z</time>
      </trkpt>
      <trkpt lat="59.094177" lon="17.791722">
        <ele>57.9</ele>
        <time>2014-10-11T14:07:55Z</time>
      </trkpt>
      <trkpt lat="59.094259" lon="17.791783">
        <ele>58.1</ele>
        <time>2014-10-11T14:07:56Z</time>
      </trkpt>
      <trkpt lat="59.094327" lon="17.791844">
        <ele>58.2</ele>
        <time>2014-10-11T14:07:57Z</time>
      </trkpt>
      <trkpt lat="59.094626" lon="17.792128">
        <ele>59.2</ele>
        <time>2014-10-11T14:08:01Z</time>
      </trkpt>
      <trkpt lat="59.094691" lon="17.792203">
        <ele>59.5</ele>
        <time>2014-10-11T14:08:02Z</time>
      </trkpt>
      <trkpt lat="59.094765" lon="17.792279">
        <ele>59.8</ele>
        <time>2014-10-11T14:08:03Z</time>
      </trkpt>
      <trkpt lat="59.094831" lon="17.792347">
        <ele>60</ele>
        <time>2014-10-11T14:08:04Z</time>
      </trkpt>
      <trkpt lat="59.0949" lon="17.792426">
        <ele>60.3</ele>
        <time>2014-10-11T14:08:05Z</time>
      </trkpt>
      <trkpt lat="59.094976" lon="17.792503">
        <ele>60.5</ele>
        <time>2014-10-11T14:08:06Z</time>
      </trkpt>
      <trkpt lat="59.095044" lon="17.792582">
        <ele>60.6</ele>
        <time>2014-10-11T14:08:07Z</time>
      </trkpt>
      <trkpt lat="59.09511" lon="17.792665">
        <ele>60.8</ele>
        <time>2014-10-11T14:08:08Z</time>
      </trkpt>
      <trkpt lat="59.095178" lon="17.792756">
        <ele>60.9</ele>
        <time>2014-10-11T14:08:09Z</time>
      </trkpt>
      <trkpt lat="59.095245" lon="17.792838">
        <ele>61</ele>
        <time>2014-10-11T14:08:10Z</time>
      </trkpt>
      <trkpt lat="59.095325" lon="17.792927">
        <ele>61</ele>
        <time>2014-10-11T14:08:11Z</time>
      </trkpt>
      <trkpt lat="59.095391" lon="17.793026">
        <ele>60.9</ele>
        <time>2014-10-11T14:08:12Z</time>
      </trkpt>
      <trkpt lat="59.095469" lon="17.793095">
        <ele>60.7</ele>
        <time>2014-10-11T14:08:13Z</time>
      </trkpt>
      <trkpt lat="59.095541" lon="17.793177">
        <ele>60.5</ele>
        <time>2014-10-11T14:08:14Z</time>
      </trkpt>
      <trkpt lat="59.095614" lon="17.793257">
        <ele>60.4</ele>
        <time>2014-10-11T14:08:15Z</time>
      </trkpt>
      <trkpt lat="59.095691" lon="17.793317">
        <ele>60.3</ele>
        <time>2014-10-11T14:08:16Z</time>
      </trkpt>
      <trkpt lat="59.095768" lon="17.793379">
        <ele>60.3</ele>
        <time>2014-10-11T14:08:17Z</time>
      </trkpt>
      <trkpt lat="59.095854" lon="17.793399">
        <ele>60.3</ele>
        <time>2014-10-11T14:08:18Z</time>
      </trkpt>
      <trkpt lat="59.095935" lon="17.793421">
        <ele>60.3</ele>
        <time>2014-10-11T14:08:19Z</time>
      </trkpt>
      <trkpt lat="59.096009" lon="17.793462">
        <ele>60.3</ele>
        <time>2014-10-11T14:08:20Z</time>
      </trkpt>
      <trkpt lat="59.096087" lon="17.793487">
        <ele>60.4</ele>
        <time>2014-10-11T14:08:21Z</time>
      </trkpt>
      <trkpt lat="59.096172" lon="17.793507">
        <ele>60.4</ele>
        <time>2014-10-11T14:08:22Z</time>
      </trkpt>
      <trkpt lat="59.096246" lon="17.793543">
        <ele>60.5</ele>
        <time>2014-10-11T14:08:23Z</time>
      </trkpt>
      <trkpt lat="59.096321" lon="17.793575">
        <ele>60.6</ele>
        <time>2014-10-11T14:08:24Z</time>
      </trkpt>
      <trkpt lat="59.096401" lon="17.7936">
        <ele>60.7</ele>
        <time>2014-10-11T14:08:25Z</time>
      </trkpt>
      <trkpt lat="59.096476" lon="17.793643">
        <ele>60.9</ele>
        <time>2014-10-11T14:08:26Z</time>
      </trkpt>
      <trkpt lat="59.096549" lon="17.793686">
        <ele>61.1</ele>
        <time>2014-10-11T14:08:27Z</time>
      </trkpt>
      <trkpt lat="59.096637" lon="17.79374">
        <ele>61.4</ele>
        <time>2014-10-11T14:08:28Z</time>
      </trkpt>
      <trkpt lat="59.096703" lon="17.793779">
        <ele>61.6</ele>
        <time>2014-10-11T14:08:29Z</time>
      </trkpt>
      <trkpt lat="59.096783" lon="17.793842">
        <ele>61.8</ele>
        <time>2014-10-11T14:08:30Z</time>
      </trkpt>
      <trkpt lat="59.096871" lon="17.793881">
        <ele>61.9</ele>
        <time>2014-10-11T14:08:31Z</time>
      </trkpt>
      <trkpt lat="59.096951" lon="17.793927">
        <ele>62.1</ele>
        <time>2014-10-11T14:08:32Z</time>
      </trkpt>
      <trkpt lat="59.097035" lon="17.793998">
        <ele>62.3</ele>
        <time>2014-10-11T14:08:33Z</time>
      </trkpt>
      <trkpt lat="59.097111" lon="17.794052">
        <ele>62.3</ele>
        <time>2014-10-11T14:08:34Z</time>
      </trkpt>
      <trkpt lat="59.097177" lon="17.794109">
        <ele>62.4</ele>
        <time>2014-10-11T14:08:35Z</time>
      </trkpt>
      <trkpt lat="59.097251" lon="17.794162">
        <ele>62.4</ele>
        <time>2014-10-11T14:08:36Z</time>
      </trkpt>
      <trkpt lat="59.097329" lon="17.794219">
        <ele>62.4</ele>
        <time>2014-10-11T14:08:37Z</time>
      </trkpt>
      <trkpt lat="59.09741" lon="17.794281">
        <ele>62.5</ele>
        <time>2014-10-11T14:08:38Z</time>
      </trkpt>
      <trkpt lat="59.097477" lon="17.794334">
        <ele>62.6</ele>
        <time>2014-10-11T14:08:39Z</time>
      </trkpt>
      <trkpt lat="59.097559" lon="17.794391">
        <ele>62.6</ele>
        <time>2014-10-11T14:08:40Z</time>
      </trkpt>
      <trkpt lat="59.09764" lon="17.794449">
        <ele>62.7</ele>
        <time>2014-10-11T14:08:41Z</time>
      </trkpt>
      <trkpt lat="59.097728" lon="17.794509">
        <ele>62.8</ele>
        <time>2014-10-11T14:08:42Z</time>
      </trkpt>
      <trkpt lat="59.097815" lon="17.794554">
        <ele>62.9</ele>
        <time>2014-10-11T14:08:43Z</time>
      </trkpt>
      <trkpt lat="59.097899" lon="17.794622">
        <ele>63.1</ele>
        <time>2014-10-11T14:08:44Z</time>
      </trkpt>
      <trkpt lat="59.097983" lon="17.794672">
        <ele>62.9</ele>
        <time>2014-10-11T14:08:45Z</time>
      </trkpt>
      <trkpt lat="59.098078" lon="17.794728">
        <ele>62.6</ele>
        <time>2014-10-11T14:08:46Z</time>
      </trkpt>
      <trkpt lat="59.098162" lon="17.794773">
        <ele>62.3</ele>
        <time>2014-10-11T14:08:47Z</time>
      </trkpt>
      <trkpt lat="59.098252" lon="17.794821">
        <ele>62.1</ele>
        <time>2014-10-11T14:08:48Z</time>
      </trkpt>
      <trkpt lat="59.09835" lon="17.794873">
        <ele>61.8</ele>
        <time>2014-10-11T14:08:49Z</time>
      </trkpt>
      <trkpt lat="59.098428" lon="17.79492">
        <ele>61.6</ele>
        <time>2014-10-11T14:08:50Z</time>
      </trkpt>
      <trkpt lat="59.098523" lon="17.794919">
        <ele>61.2</ele>
        <time>2014-10-11T14:08:51Z</time>
      </trkpt>
      <trkpt lat="59.098606" lon="17.794945">
        <ele>60.9</ele>
        <time>2014-10-11T14:08:52Z</time>
      </trkpt>
      <trkpt lat="59.098693" lon="17.794972">
        <ele>60.6</ele>
        <time>2014-10-11T14:08:53Z</time>
      </trkpt>
      <trkpt lat="59.098787" lon="17.794966">
        <ele>60.2</ele>
        <time>2014-10-11T14:08:54Z</time>
      </trkpt>
      <trkpt lat="59.098864" lon="17.794955">
        <ele>59.8</ele>
        <time>2014-10-11T14:08:55Z</time>
      </trkpt>
      <trkpt lat="59.098945" lon="17.794946">
        <ele>59.4</ele>
        <time>2014-10-11T14:08:56Z</time>
      </trkpt>
      <trkpt lat="59.099044" lon="17.794943">
        <ele>59</ele>
        <time>2014-10-11T14:08:57Z</time>
      </trkpt>
      <trkpt lat="59.099142" lon="17.794924">
        <ele>58.5</ele>
        <time>2014-10-11T14:08:58Z</time>
      </trkpt>
      <trkpt lat="59.099229" lon="17.794898">
        <ele>57.9</ele>
        <time>2014-10-11T14:08:59Z</time>
      </trkpt>
      <trkpt lat="59.099316" lon="17.794868">
        <ele>57.3</ele>
        <time>2014-10-11T14:09:00Z</time>
      </trkpt>
      <trkpt lat="59.099403" lon="17.794849">
        <ele>56.8</ele>
        <time>2014-10-11T14:09:01Z</time>
      </trkpt>
      <trkpt lat="59.09949" lon="17.794848">
        <ele>56.4</ele>
        <time>2014-10-11T14:09:02Z</time>
      </trkpt>
      <trkpt lat="59.099574" lon="17.794868">
        <ele>56.1</ele>
        <time>2014-10-11T14:09:03Z</time>
      </trkpt>
      <trkpt lat="59.099659" lon="17.794907">
        <ele>55.1</ele>
        <time>2014-10-11T14:09:04Z</time>
      </trkpt>
      <trkpt lat="59.099755" lon="17.794949">
        <ele>54</ele>
        <time>2014-10-11T14:09:05Z</time>
      </trkpt>
      <trkpt lat="59.099842" lon="17.795016">
        <ele>53.1</ele>
        <time>2014-10-11T14:09:06Z</time>
      </trkpt>
      <trkpt lat="59.099926" lon="17.795093">
        <ele>52.3</ele>
        <time>2014-10-11T14:09:07Z</time>
      </trkpt>
      <trkpt lat="59.1" lon="17.795189">
        <ele>51.9</ele>
        <time>2014-10-11T14:09:08Z</time>
      </trkpt>
      <trkpt lat="59.100076" lon="17.795295">
        <ele>51.4</ele>
        <time>2014-10-11T14:09:09Z</time>
      </trkpt>
      <trkpt lat="59.100138" lon="17.795423">
        <ele>51.4</ele>
        <time>2014-10-11T14:09:10Z</time>
      </trkpt>
      <trkpt lat="59.100205" lon="17.795557">
        <ele>51</ele>
        <time>2014-10-11T14:09:11Z</time>
      </trkpt>
      <trkpt lat="59.100267" lon="17.795691">
        <ele>50.8</ele>
        <time>2014-10-11T14:09:12Z</time>
      </trkpt>
      <trkpt lat="59.100332" lon="17.79582">
        <ele>50.6</ele>
        <time>2014-10-11T14:09:13Z</time>
      </trkpt>
      <trkpt lat="59.100385" lon="17.795954">
        <ele>50.6</ele>
        <time>2014-10-11T14:09:14Z</time>
      </trkpt>
      <trkpt lat="59.100444" lon="17.796086">
        <ele>50.4</ele>
        <time>2014-10-11T14:09:15Z</time>
      </trkpt>
      <trkpt lat="59.100501" lon="17.796221">
        <ele>50.1</ele>
        <time>2014-10-11T14:09:16Z</time>
      </trkpt>
      <trkpt lat="59.100561" lon="17.796342">
        <ele>49.7</ele>
        <time>2014-10-11T14:09:17Z</time>
      </trkpt>
      <trkpt lat="59.100629" lon="17.796465">
        <ele>49.2</ele>
        <time>2014-10-11T14:09:18Z</time>
      </trkpt>
      <trkpt lat="59.100701" lon="17.796566">
        <ele>48.5</ele>
        <time>2014-10-11T14:09:19Z</time>
      </trkpt>
      <trkpt lat="59.100773" lon="17.796674">
        <ele>47.9</ele>
        <time>2014-10-11T14:09:20Z</time>
      </trkpt>
      <trkpt lat="59.10085" lon="17.796778">
        <ele>47.3</ele>
        <time>2014-10-11T14:09:21Z</time>
      </trkpt>
      <trkpt lat="59.100937" lon="17.796843">
        <ele>46.3</ele>
        <time>2014-10-11T14:09:22Z</time>
      </trkpt>
      <trkpt lat="59.101028" lon="17.796926">
        <ele>45.4</ele>
        <time>2014-10-11T14:09:23Z</time>
      </trkpt>
      <trkpt lat="59.101112" lon="17.797023">
        <ele>44.8</ele>
        <time>2014-10-11T14:09:24Z</time>
      </trkpt>
      <trkpt lat="59.10119" lon="17.797123">
        <ele>44.1</ele>
        <time>2014-10-11T14:09:25Z</time>
      </trkpt>
      <trkpt lat="59.101261" lon="17.797239">
        <ele>43.3</ele>
        <time>2014-10-11T14:09:26Z</time>
      </trkpt>
      <trkpt lat="59.101315" lon="17.797382">
        <ele>42.3</ele>
        <time>2014-10-11T14:09:27Z</time>
      </trkpt>
      <trkpt lat="59.101348" lon="17.797563">
        <ele>42</ele>
        <time>2014-10-11T14:09:28Z</time>
      </trkpt>
      <trkpt lat="59.101352" lon="17.797771">
        <ele>42.7</ele>
        <time>2014-10-11T14:09:29Z</time>
      </trkpt>
      <trkpt lat="59.10135" lon="17.797952">
        <ele>43.4</ele>
        <time>2014-10-11T14:09:30Z</time>
      </trkpt>
      <trkpt lat="59.101337" lon="17.798142">
        <ele>44.7</ele>
        <time>2014-10-11T14:09:31Z</time>
      </trkpt>
      <trkpt lat="59.101327" lon="17.798315">
        <ele>45.7</ele>
        <time>2014-10-11T14:09:32Z</time>
      </trkpt>
      <trkpt lat="59.1013" lon="17.798516">
        <ele>47.5</ele>
        <time>2014-10-11T14:09:33Z</time>
      </trkpt>
      <trkpt lat="59.10128" lon="17.798706">
        <ele>48.9</ele>
        <time>2014-10-11T14:09:34Z</time>
      </trkpt>
      <trkpt lat="59.101245" lon="17.798919">
        <ele>49.9</ele>
        <time>2014-10-11T14:09:35Z</time>
      </trkpt>
      <trkpt lat="59.101238" lon="17.799115">
        <ele>49.7</ele>
        <time>2014-10-11T14:09:36Z</time>
      </trkpt>
      <trkpt lat="59.101241" lon="17.799335">
        <ele>49.4</ele>
        <time>2014-10-11T14:09:37Z</time>
      </trkpt>
      <trkpt lat="59.101264" lon="17.799502">
        <ele>48.7</ele>
        <time>2014-10-11T14:09:38Z</time>
      </trkpt>
      <trkpt lat="59.10129" lon="17.799706">
        <ele>47.7</ele>
        <time>2014-10-11T14:09:39Z</time>
      </trkpt>
      <trkpt lat="59.101315" lon="17.799913">
        <ele>46.7</ele>
        <time>2014-10-11T14:09:40Z</time>
      </trkpt>
      <trkpt lat="59.101343" lon="17.800113">
        <ele>45.7</ele>
        <time>2014-10-11T14:09:41Z</time>
      </trkpt>
      <trkpt lat="59.101372" lon="17.800313">
        <ele>44.7</ele>
        <time>2014-10-11T14:09:42Z</time>
      </trkpt>
      <trkpt lat="59.101394" lon="17.800494">
        <ele>44.1</ele>
        <time>2014-10-11T14:09:43Z</time>
      </trkpt>
      <trkpt lat="59.101437" lon="17.80068">
        <ele>43.4</ele>
        <time>2014-10-11T14:09:44Z</time>
      </trkpt>
      <trkpt lat="59.1015" lon="17.800818">
        <ele>42.3</ele>
        <time>2014-10-11T14:09:45Z</time>
      </trkpt>
      <trkpt lat="59.10157" lon="17.800934">
        <ele>41.2</ele>
        <time>2014-10-11T14:09:46Z</time>
      </trkpt>
      <trkpt lat="59.101665" lon="17.801007">
        <ele>39.6</ele>
        <time>2014-10-11T14:09:47Z</time>
      </trkpt>
      <trkpt lat="59.101762" lon="17.801034">
        <ele>37.9</ele>
        <time>2014-10-11T14:09:48Z</time>
      </trkpt>
      <trkpt lat="59.101856" lon="17.801021">
        <ele>36.2</ele>
        <time>2014-10-11T14:09:49Z</time>
      </trkpt>
      <trkpt lat="59.101949" lon="17.800981">
        <ele>34.4</ele>
        <time>2014-10-11T14:09:50Z</time>
      </trkpt>
      <trkpt lat="59.102053" lon="17.800963">
        <ele>32.5</ele>
        <time>2014-10-11T14:09:51Z</time>
      </trkpt>
      <trkpt lat="59.102166" lon="17.80093">
        <ele>30.9</ele>
        <time>2014-10-11T14:09:52Z</time>
      </trkpt>
      <trkpt lat="59.102274" lon="17.800896">
        <ele>29.5</ele>
        <time>2014-10-11T14:09:53Z</time>
      </trkpt>
      <trkpt lat="59.102375" lon="17.800857">
        <ele>28.1</ele>
        <time>2014-10-11T14:09:54Z</time>
      </trkpt>
      <trkpt lat="59.102483" lon="17.800816">
        <ele>26.6</ele>
        <time>2014-10-11T14:09:55Z</time>
      </trkpt>
      <trkpt lat="59.102613" lon="17.800711">
        <ele>24.5</ele>
        <time>2014-10-11T14:09:56Z</time>
      </trkpt>
      <trkpt lat="59.102731" lon="17.800612">
        <ele>22.5</ele>
        <time>2014-10-11T14:09:57Z</time>
      </trkpt>
      <trkpt lat="59.102837" lon="17.80052">
        <ele>20.6</ele>
        <time>2014-10-11T14:09:58Z</time>
      </trkpt>
      <trkpt lat="59.102924" lon="17.800426">
        <ele>19.1</ele>
        <time>2014-10-11T14:09:59Z</time>
      </trkpt>
      <trkpt lat="59.103025" lon="17.800322">
        <ele>19.1</ele>
        <time>2014-10-11T14:10:00Z</time>
      </trkpt>
      <trkpt lat="59.103133" lon="17.80021">
        <ele>19</ele>
        <time>2014-10-11T14:10:01Z</time>
      </trkpt>
      <trkpt lat="59.103227" lon="17.800113">
        <ele>18.9</ele>
        <time>2014-10-11T14:10:02Z</time>
      </trkpt>
      <trkpt lat="59.103326" lon="17.80001">
        <ele>18.8</ele>
        <time>2014-10-11T14:10:03Z</time>
      </trkpt>
      <trkpt lat="59.103423" lon="17.799895">
        <ele>18.5</ele>
        <time>2014-10-11T14:10:04Z</time>
      </trkpt>
      <trkpt lat="59.103519" lon="17.799794">
        <ele>18.4</ele>
        <time>2014-10-11T14:10:05Z</time>
      </trkpt>
      <trkpt lat="59.103608" lon="17.799698">
        <ele>18.2</ele>
        <time>2014-10-11T14:10:06Z</time>
      </trkpt>
      <trkpt lat="59.103709" lon="17.799613">
        <ele>18</ele>
        <time>2014-10-11T14:10:07Z</time>
      </trkpt>
      <trkpt lat="59.103799" lon="17.799523">
        <ele>17.8</ele>
        <time>2014-10-11T14:10:08Z</time>
      </trkpt>
      <trkpt lat="59.103898" lon="17.799428">
        <ele>17.6</ele>
        <time>2014-10-11T14:10:09Z</time>
      </trkpt>
      <trkpt lat="59.10399" lon="17.799347">
        <ele>17.4</ele>
        <time>2014-10-11T14:10:10Z</time>
      </trkpt>
      <trkpt lat="59.104094" lon="17.799269">
        <ele>17.3</ele>
        <time>2014-10-11T14:10:11Z</time>
      </trkpt>
      <trkpt lat="59.10419" lon="17.799213">
        <ele>17.3</ele>
        <time>2014-10-11T14:10:12Z</time>
      </trkpt>
      <trkpt lat="59.10429" lon="17.799152">
        <ele>17.2</ele>
        <time>2014-10-11T14:10:13Z</time>
      </trkpt>
      <trkpt lat="59.104399" lon="17.799122">
        <ele>17.3</ele>
        <time>2014-10-11T14:10:14Z</time>
      </trkpt>
      <trkpt lat="59.10451" lon="17.799099">
        <ele>17.5</ele>
        <time>2014-10-11T14:10:15Z</time>
      </trkpt>
      <trkpt lat="59.104607" lon="17.799106">
        <ele>17.6</ele>
        <time>2014-10-11T14:10:16Z</time>
      </trkpt>
      <trkpt lat="59.104706" lon="17.799129">
        <ele>17.5</ele>
        <time>2014-10-11T14:10:17Z</time>
      </trkpt>
      <trkpt lat="59.104811" lon="17.799172">
        <ele>17.3</ele>
        <time>2014-10-11T14:10:18Z</time>
      </trkpt>
      <trkpt lat="59.104913" lon="17.799215">
        <ele>17.2</ele>
        <time>2014-10-11T14:10:19Z</time>
      </trkpt>
      <trkpt lat="59.105028" lon="17.799273">
        <ele>17.1</ele>
        <time>2014-10-11T14:10:20Z</time>
      </trkpt>
      <trkpt lat="59.105123" lon="17.799313">
        <ele>17</ele>
        <time>2014-10-11T14:10:21Z</time>
      </trkpt>
      <trkpt lat="59.105234" lon="17.799359">
        <ele>16.8</ele>
        <time>2014-10-11T14:10:22Z</time>
      </trkpt>
      <trkpt lat="59.105344" lon="17.799408">
        <ele>16.6</ele>
        <time>2014-10-11T14:10:23Z</time>
      </trkpt>
      <trkpt lat="59.105451" lon="17.799466">
        <ele>16.5</ele>
        <time>2014-10-11T14:10:24Z</time>
      </trkpt>
      <trkpt lat="59.105555" lon="17.799554">
        <ele>16.6</ele>
        <time>2014-10-11T14:10:25Z</time>
      </trkpt>
      <trkpt lat="59.105657" lon="17.799649">
        <ele>16.7</ele>
        <time>2014-10-11T14:10:26Z</time>
      </trkpt>
      <trkpt lat="59.105748" lon="17.79974">
        <ele>16.8</ele>
        <time>2014-10-11T14:10:27Z</time>
      </trkpt>
      <trkpt lat="59.105842" lon="17.799832">
        <ele>16.9</ele>
        <time>2014-10-11T14:10:28Z</time>
      </trkpt>
      <trkpt lat="59.105936" lon="17.799921">
        <ele>16.9</ele>
        <time>2014-10-11T14:10:29Z</time>
      </trkpt>
      <trkpt lat="59.106025" lon="17.800011">
        <ele>16.8</ele>
        <time>2014-10-11T14:10:30Z</time>
      </trkpt>
      <trkpt lat="59.106108" lon="17.800094">
        <ele>16.8</ele>
        <time>2014-10-11T14:10:31Z</time>
      </trkpt>
      <trkpt lat="59.106194" lon="17.800191">
        <ele>16.7</ele>
        <time>2014-10-11T14:10:32Z</time>
      </trkpt>
      <trkpt lat="59.106277" lon="17.800276">
        <ele>16.6</ele>
        <time>2014-10-11T14:10:33Z</time>
      </trkpt>
      <trkpt lat="59.106365" lon="17.800339">
        <ele>16.5</ele>
        <time>2014-10-11T14:10:34Z</time>
      </trkpt>
      <trkpt lat="59.106437" lon="17.800412">
        <ele>16.5</ele>
        <time>2014-10-11T14:10:35Z</time>
      </trkpt>
      <trkpt lat="59.106527" lon="17.800514">
        <ele>16.3</ele>
        <time>2014-10-11T14:10:36Z</time>
      </trkpt>
      <trkpt lat="59.106602" lon="17.80057">
        <ele>16.2</ele>
        <time>2014-10-11T14:10:37Z</time>
      </trkpt>
      <trkpt lat="59.106674" lon="17.800644">
        <ele>16</ele>
        <time>2014-10-11T14:10:38Z</time>
      </trkpt>
      <trkpt lat="59.106755" lon="17.800707">
        <ele>15.8</ele>
        <time>2014-10-11T14:10:39Z</time>
      </trkpt>
      <trkpt lat="59.106831" lon="17.800791">
        <ele>15.6</ele>
        <time>2014-10-11T14:10:40Z</time>
      </trkpt>
      <trkpt lat="59.10691" lon="17.800882">
        <ele>15.4</ele>
        <time>2014-10-11T14:10:41Z</time>
      </trkpt>
      <trkpt lat="59.106977" lon="17.800959">
        <ele>15.3</ele>
        <time>2014-10-11T14:10:42Z</time>
      </trkpt>
      <trkpt lat="59.107044" lon="17.801054">
        <ele>15.1</ele>
        <time>2014-10-11T14:10:43Z</time>
      </trkpt>
      <trkpt lat="59.107106" lon="17.801148">
        <ele>14.9</ele>
        <time>2014-10-11T14:10:44Z</time>
      </trkpt>
      <trkpt lat="59.107176" lon="17.80125">
        <ele>14.8</ele>
        <time>2014-10-11T14:10:45Z</time>
      </trkpt>
      <trkpt lat="59.107241" lon="17.801337">
        <ele>14.7</ele>
        <time>2014-10-11T14:10:46Z</time>
      </trkpt>
      <trkpt lat="59.107303" lon="17.801435">
        <ele>14.7</ele>
        <time>2014-10-11T14:10:47Z</time>
      </trkpt>
      <trkpt lat="59.107374" lon="17.801551">
        <ele>14.7</ele>
        <time>2014-10-11T14:10:48Z</time>
      </trkpt>
      <trkpt lat="59.10744" lon="17.801645">
        <ele>14.6</ele>
        <time>2014-10-11T14:10:49Z</time>
      </trkpt>
      <trkpt lat="59.107507" lon="17.801744">
        <ele>14.6</ele>
        <time>2014-10-11T14:10:50Z</time>
      </trkpt>
      <trkpt lat="59.107573" lon="17.801846">
        <ele>14.5</ele>
        <time>2014-10-11T14:10:51Z</time>
      </trkpt>
      <trkpt lat="59.107641" lon="17.801959">
        <ele>14.5</ele>
        <time>2014-10-11T14:10:52Z</time>
      </trkpt>
      <trkpt lat="59.107704" lon="17.802045">
        <ele>14.5</ele>
        <time>2014-10-11T14:10:53Z</time>
      </trkpt>
      <trkpt lat="59.107772" lon="17.802142">
        <ele>14.6</ele>
        <time>2014-10-11T14:10:54Z</time>
      </trkpt>
      <trkpt lat="59.107839" lon="17.802253">
        <ele>14.8</ele>
        <time>2014-10-11T14:10:55Z</time>
      </trkpt>
      <trkpt lat="59.107897" lon="17.802362">
        <ele>15.1</ele>
        <time>2014-10-11T14:10:56Z</time>
      </trkpt>
      <trkpt lat="59.107963" lon="17.802487">
        <ele>15.2</ele>
        <time>2014-10-11T14:10:57Z</time>
      </trkpt>
      <trkpt lat="59.108016" lon="17.802611">
        <ele>15.4</ele>
        <time>2014-10-11T14:10:58Z</time>
      </trkpt>
      <trkpt lat="59.108074" lon="17.802724">
        <ele>15.6</ele>
        <time>2014-10-11T14:10:59Z</time>
      </trkpt>
      <trkpt lat="59.108129" lon="17.802843">
        <ele>15.7</ele>
        <time>2014-10-11T14:11:00Z</time>
      </trkpt>
      <trkpt lat="59.10818" lon="17.802965">
        <ele>15.9</ele>
        <time>2014-10-11T14:11:01Z</time>
      </trkpt>
      <trkpt lat="59.108229" lon="17.803088">
        <ele>16.2</ele>
        <time>2014-10-11T14:11:02Z</time>
      </trkpt>
      <trkpt lat="59.108263" lon="17.803207">
        <ele>16.6</ele>
        <time>2014-10-11T14:11:03Z</time>
      </trkpt>
      <trkpt lat="59.108303" lon="17.803321">
        <ele>16.9</ele>
        <time>2014-10-11T14:11:04Z</time>
      </trkpt>
      <trkpt lat="59.108341" lon="17.80345">
        <ele>17.2</ele>
        <time>2014-10-11T14:11:05Z</time>
      </trkpt>
      <trkpt lat="59.108376" lon="17.803559">
        <ele>17.5</ele>
        <time>2014-10-11T14:11:06Z</time>
      </trkpt>
      <trkpt lat="59.108414" lon="17.803672">
        <ele>17.7</ele>
        <time>2014-10-11T14:11:07Z</time>
      </trkpt>
      <trkpt lat="59.108459" lon="17.803781">
        <ele>18.2</ele>
        <time>2014-10-11T14:11:08Z</time>
      </trkpt>
      <trkpt lat="59.108506" lon="17.803875">
        <ele>19.1</ele>
        <time>2014-10-11T14:11:09Z</time>
      </trkpt>
      <trkpt lat="59.108559" lon="17.803969">
        <ele>20</ele>
        <time>2014-10-11T14:11:10Z</time>
      </trkpt>
      <trkpt lat="59.108609" lon="17.804042">
        <ele>20.7</ele>
        <time>2014-10-11T14:11:11Z</time>
      </trkpt>
      <trkpt lat="59.108656" lon="17.804124">
        <ele>21.5</ele>
        <time>2014-10-11T14:11:12Z</time>
      </trkpt>
      <trkpt lat="59.108715" lon="17.804201">
        <ele>22.2</ele>
        <time>2014-10-11T14:11:13Z</time>
      </trkpt>
      <trkpt lat="59.108767" lon="17.804258">
        <ele>22.6</ele>
        <time>2014-10-11T14:11:14Z</time>
      </trkpt>
      <trkpt lat="59.108831" lon="17.804311">
        <ele>23</ele>
        <time>2014-10-11T14:11:15Z</time>
      </trkpt>
      <trkpt lat="59.10888" lon="17.804376">
        <ele>23.7</ele>
        <time>2014-10-11T14:11:16Z</time>
      </trkpt>
      <trkpt lat="59.108944" lon="17.804432">
        <ele>24.1</ele>
        <time>2014-10-11T14:11:17Z</time>
      </trkpt>
      <trkpt lat="59.109022" lon="17.804481">
        <ele>24.4</ele>
        <time>2014-10-11T14:11:18Z</time>
      </trkpt>
      <trkpt lat="59.10909" lon="17.80452">
        <ele>24.6</ele>
        <time>2014-10-11T14:11:19Z</time>
      </trkpt>
      <trkpt lat="59.109164" lon="17.804544">
        <ele>24.5</ele>
        <time>2014-10-11T14:11:20Z</time>
      </trkpt>
      <trkpt lat="59.109241" lon="17.804578">
        <ele>24.6</ele>
        <time>2014-10-11T14:11:21Z</time>
      </trkpt>
      <trkpt lat="59.109317" lon="17.804595">
        <ele>24.4</ele>
        <time>2014-10-11T14:11:22Z</time>
      </trkpt>
      <trkpt lat="59.109391" lon="17.804618">
        <ele>24.3</ele>
        <time>2014-10-11T14:11:23Z</time>
      </trkpt>
      <trkpt lat="59.109465" lon="17.804636">
        <ele>24.2</ele>
        <time>2014-10-11T14:11:24Z</time>
      </trkpt>
      <trkpt lat="59.10953" lon="17.804666">
        <ele>24.3</ele>
        <time>2014-10-11T14:11:25Z</time>
      </trkpt>
      <trkpt lat="59.109619" lon="17.804716">
        <ele>24.3</ele>
        <time>2014-10-11T14:11:26Z</time>
      </trkpt>
      <trkpt lat="59.109707" lon="17.80474">
        <ele>23.9</ele>
        <time>2014-10-11T14:11:27Z</time>
      </trkpt>
      <trkpt lat="59.109781" lon="17.804765">
        <ele>23.7</ele>
        <time>2014-10-11T14:11:28Z</time>
      </trkpt>
      <trkpt lat="59.109859" lon="17.804772">
        <ele>23.1</ele>
        <time>2014-10-11T14:11:29Z</time>
      </trkpt>
      <trkpt lat="59.109942" lon="17.804801">
        <ele>22.8</ele>
        <time>2014-10-11T14:11:30Z</time>
      </trkpt>
      <trkpt lat="59.110018" lon="17.804817">
        <ele>22.4</ele>
        <time>2014-10-11T14:11:31Z</time>
      </trkpt>
      <trkpt lat="59.110098" lon="17.804873">
        <ele>22.3</ele>
        <time>2014-10-11T14:11:32Z</time>
      </trkpt>
      <trkpt lat="59.110174" lon="17.804911">
        <ele>22.1</ele>
        <time>2014-10-11T14:11:33Z</time>
      </trkpt>
      <trkpt lat="59.110241" lon="17.804953">
        <ele>22</ele>
        <time>2014-10-11T14:11:34Z</time>
      </trkpt>
      <trkpt lat="59.110342" lon="17.805002">
        <ele>21.6</ele>
        <time>2014-10-11T14:11:35Z</time>
      </trkpt>
      <trkpt lat="59.110409" lon="17.80505">
        <ele>21.5</ele>
        <time>2014-10-11T14:11:36Z</time>
      </trkpt>
      <trkpt lat="59.110486" lon="17.805103">
        <ele>21.4</ele>
        <time>2014-10-11T14:11:37Z</time>
      </trkpt>
      <trkpt lat="59.110558" lon="17.805143">
        <ele>21.1</ele>
        <time>2014-10-11T14:11:38Z</time>
      </trkpt>
      <trkpt lat="59.110637" lon="17.805205">
        <ele>20.9</ele>
        <time>2014-10-11T14:11:39Z</time>
      </trkpt>
      <trkpt lat="59.110721" lon="17.805283">
        <ele>20.7</ele>
        <time>2014-10-11T14:11:40Z</time>
      </trkpt>
      <trkpt lat="59.110791" lon="17.805313">
        <ele>20.2</ele>
        <time>2014-10-11T14:11:41Z</time>
      </trkpt>
      <trkpt lat="59.11087" lon="17.805345">
        <ele>19.6</ele>
        <time>2014-10-11T14:11:42Z</time>
      </trkpt>
      <trkpt lat="59.11094" lon="17.805387">
        <ele>19.2</ele>
        <time>2014-10-11T14:11:43Z</time>
      </trkpt>
      <trkpt lat="59.111022" lon="17.80542">
        <ele>18.5</ele>
        <time>2014-10-11T14:11:44Z</time>
      </trkpt>
      <trkpt lat="59.111109" lon="17.805454">
        <ele>18</ele>
        <time>2014-10-11T14:11:45Z</time>
      </trkpt>
      <trkpt lat="59.111189" lon="17.805486">
        <ele>17.5</ele>
        <time>2014-10-11T14:11:46Z</time>
      </trkpt>
      <trkpt lat="59.111272" lon="17.805516">
        <ele>17.1</ele>
        <time>2014-10-11T14:11:47Z</time>
      </trkpt>
      <trkpt lat="59.111366" lon="17.805538">
        <ele>17.2</ele>
        <time>2014-10-11T14:11:48Z</time>
      </trkpt>
      <trkpt lat="59.111454" lon="17.80556">
        <ele>17.2</ele>
        <time>2014-10-11T14:11:49Z</time>
      </trkpt>
      <trkpt lat="59.111534" lon="17.805585">
        <ele>17.3</ele>
        <time>2014-10-11T14:11:50Z</time>
      </trkpt>
      <trkpt lat="59.111617" lon="17.805607">
        <ele>17.4</ele>
        <time>2014-10-11T14:11:51Z</time>
      </trkpt>
      <trkpt lat="59.111703" lon="17.80563">
        <ele>17.5</ele>
        <time>2014-10-11T14:11:52Z</time>
      </trkpt>
      <trkpt lat="59.111787" lon="17.80565">
        <ele>17.5</ele>
        <time>2014-10-11T14:11:53Z</time>
      </trkpt>
      <trkpt lat="59.111868" lon="17.805672">
        <ele>17.6</ele>
        <time>2014-10-11T14:11:54Z</time>
      </trkpt>
      <trkpt lat="59.111954" lon="17.805681">
        <ele>17.5</ele>
        <time>2014-10-11T14:11:55Z</time>
      </trkpt>
      <trkpt lat="59.112047" lon="17.805689">
        <ele>17.4</ele>
        <time>2014-10-11T14:11:56Z</time>
      </trkpt>
      <trkpt lat="59.112134" lon="17.805686">
        <ele>17.1</ele>
        <time>2014-10-11T14:11:57Z</time>
      </trkpt>
      <trkpt lat="59.112205" lon="17.805676">
        <ele>16.8</ele>
        <time>2014-10-11T14:11:58Z</time>
      </trkpt>
      <trkpt lat="59.112279" lon="17.805673">
        <ele>16.5</ele>
        <time>2014-10-11T14:11:59Z</time>
      </trkpt>
      <trkpt lat="59.112369" lon="17.805685">
        <ele>16.4</ele>
        <time>2014-10-11T14:12:00Z</time>
      </trkpt>
      <trkpt lat="59.112466" lon="17.8057">
        <ele>16.3</ele>
        <time>2014-10-11T14:12:01Z</time>
      </trkpt>
      <trkpt lat="59.112546" lon="17.805705">
        <ele>16.2</ele>
        <time>2014-10-11T14:12:02Z</time>
      </trkpt>
      <trkpt lat="59.112632" lon="17.805701">
        <ele>15.9</ele>
        <time>2014-10-11T14:12:03Z</time>
      </trkpt>
      <trkpt lat="59.112719" lon="17.805699">
        <ele>15.6</ele>
        <time>2014-10-11T14:12:04Z</time>
      </trkpt>
      <trkpt lat="59.112825" lon="17.805717">
        <ele>15.5</ele>
        <time>2014-10-11T14:12:05Z</time>
      </trkpt>
      <trkpt lat="59.112927" lon="17.80572">
        <ele>15.2</ele>
        <time>2014-10-11T14:12:06Z</time>
      </trkpt>
      <trkpt lat="59.113022" lon="17.805729">
        <ele>14.8</ele>
        <time>2014-10-11T14:12:07Z</time>
      </trkpt>
      <trkpt lat="59.113115" lon="17.805735">
        <ele>14.4</ele>
        <time>2014-10-11T14:12:08Z</time>
      </trkpt>
      <trkpt lat="59.113205" lon="17.805738">
        <ele>13.9</ele>
        <time>2014-10-11T14:12:09Z</time>
      </trkpt>
      <trkpt lat="59.11329" lon="17.805779">
        <ele>13.8</ele>
        <time>2014-10-11T14:12:10Z</time>
      </trkpt>
      <trkpt lat="59.11338" lon="17.805789">
        <ele>13.4</ele>
        <time>2014-10-11T14:12:11Z</time>
      </trkpt>
      <trkpt lat="59.113473" lon="17.805784">
        <ele>12.8</ele>
        <time>2014-10-11T14:12:12Z</time>
      </trkpt>
      <trkpt lat="59.113563" lon="17.805779">
        <ele>12.2</ele>
        <time>2014-10-11T14:12:13Z</time>
      </trkpt>
      <trkpt lat="59.113654" lon="17.805783">
        <ele>11.7</ele>
        <time>2014-10-11T14:12:14Z</time>
      </trkpt>
      <trkpt lat="59.113745" lon="17.805788">
        <ele>11.3</ele>
        <time>2014-10-11T14:12:15Z</time>
      </trkpt>
      <trkpt lat="59.113837" lon="17.805808">
        <ele>11</ele>
        <time>2014-10-11T14:12:16Z</time>
      </trkpt>
      <trkpt lat="59.113934" lon="17.805804">
        <ele>10.7</ele>
        <time>2014-10-11T14:12:17Z</time>
      </trkpt>
      <trkpt lat="59.114008" lon="17.805823">
        <ele>10.5</ele>
        <time>2014-10-11T14:12:18Z</time>
      </trkpt>
      <trkpt lat="59.114097" lon="17.805811">
        <ele>10.1</ele>
        <time>2014-10-11T14:12:19Z</time>
      </trkpt>
      <trkpt lat="59.114178" lon="17.805821">
        <ele>9.9</ele>
        <time>2014-10-11T14:12:20Z</time>
      </trkpt>
      <trkpt lat="59.114259" lon="17.805835">
        <ele>9.7</ele>
        <time>2014-10-11T14:12:21Z</time>
      </trkpt>
      <trkpt lat="59.114344" lon="17.805865">
        <ele>9.5</ele>
        <time>2014-10-11T14:12:22Z</time>
      </trkpt>
      <trkpt lat="59.114433" lon="17.805854">
        <ele>9.1</ele>
        <time>2014-10-11T14:12:23Z</time>
      </trkpt>
      <trkpt lat="59.114519" lon="17.805877">
        <ele>8.9</ele>
        <time>2014-10-11T14:12:24Z</time>
      </trkpt>
      <trkpt lat="59.114609" lon="17.805863">
        <ele>8.6</ele>
        <time>2014-10-11T14:12:25Z</time>
      </trkpt>
      <trkpt lat="59.114697" lon="17.805853">
        <ele>8.6</ele>
        <time>2014-10-11T14:12:26Z</time>
      </trkpt>
      <trkpt lat="59.114784" lon="17.805839">
        <ele>8.5</ele>
        <time>2014-10-11T14:12:27Z</time>
      </trkpt>
      <trkpt lat="59.114877" lon="17.805813">
        <ele>8.4</ele>
        <time>2014-10-11T14:12:28Z</time>
      </trkpt>
      <trkpt lat="59.114959" lon="17.805781">
        <ele>8.4</ele>
        <time>2014-10-11T14:12:29Z</time>
      </trkpt>
      <trkpt lat="59.115048" lon="17.80573">
        <ele>8.3</ele>
        <time>2014-10-11T14:12:30Z</time>
      </trkpt>
      <trkpt lat="59.115137" lon="17.805688">
        <ele>8.2</ele>
        <time>2014-10-11T14:12:31Z</time>
      </trkpt>
      <trkpt lat="59.115225" lon="17.805634">
        <ele>8.2</ele>
        <time>2014-10-11T14:12:32Z</time>
      </trkpt>
      <trkpt lat="59.115315" lon="17.805584">
        <ele>8.1</ele>
        <time>2014-10-11T14:12:33Z</time>
      </trkpt>
      <trkpt lat="59.115402" lon="17.805537">
        <ele>8.1</ele>
        <time>2014-10-11T14:12:34Z</time>
      </trkpt>
      <trkpt lat="59.115489" lon="17.805469">
        <ele>8.3</ele>
        <time>2014-10-11T14:12:35Z</time>
      </trkpt>
      <trkpt lat="59.11558" lon="17.805413">
        <ele>8.6</ele>
        <time>2014-10-11T14:12:36Z</time>
      </trkpt>
      <trkpt lat="59.115668" lon="17.805344">
        <ele>9.4</ele>
        <time>2014-10-11T14:12:37Z</time>
      </trkpt>
      <trkpt lat="59.115739" lon="17.80529">
        <ele>10.1</ele>
        <time>2014-10-11T14:12:38Z</time>
      </trkpt>
      <trkpt lat="59.115812" lon="17.805219">
        <ele>10.9</ele>
        <time>2014-10-11T14:12:39Z</time>
      </trkpt>
      <trkpt lat="59.115889" lon="17.805149">
        <ele>11.9</ele>
        <time>2014-10-11T14:12:40Z</time>
      </trkpt>
      <trkpt lat="59.11597" lon="17.805076">
        <ele>12.9</ele>
        <time>2014-10-11T14:12:41Z</time>
      </trkpt>
      <trkpt lat="59.116036" lon="17.805005">
        <ele>13.8</ele>
        <time>2014-10-11T14:12:42Z</time>
      </trkpt>
      <trkpt lat="59.116104" lon="17.804923">
        <ele>14.9</ele>
        <time>2014-10-11T14:12:43Z</time>
      </trkpt>
      <trkpt lat="59.116176" lon="17.80485">
        <ele>16</ele>
        <time>2014-10-11T14:12:44Z</time>
      </trkpt>
      <trkpt lat="59.116243" lon="17.804779">
        <ele>17.1</ele>
        <time>2014-10-11T14:12:45Z</time>
      </trkpt>
      <trkpt lat="59.116308" lon="17.804702">
        <ele>17.6</ele>
        <time>2014-10-11T14:12:46Z</time>
      </trkpt>
      <trkpt lat="59.116405" lon="17.804638">
        <ele>17.6</ele>
        <time>2014-10-11T14:12:47Z</time>
      </trkpt>
      <trkpt lat="59.116475" lon="17.804567">
        <ele>17.8</ele>
        <time>2014-10-11T14:12:48Z</time>
      </trkpt>
      <trkpt lat="59.116543" lon="17.804495">
        <ele>17.9</ele>
        <time>2014-10-11T14:12:49Z</time>
      </trkpt>
      <trkpt lat="59.11661" lon="17.804427">
        <ele>18</ele>
        <time>2014-10-11T14:12:50Z</time>
      </trkpt>
      <trkpt lat="59.116679" lon="17.804358">
        <ele>18</ele>
        <time>2014-10-11T14:12:51Z</time>
      </trkpt>
      <trkpt lat="59.116744" lon="17.804299">
        <ele>18</ele>
        <time>2014-10-11T14:12:52Z</time>
      </trkpt>
      <trkpt lat="59.116813" lon="17.804226">
        <ele>17.9</ele>
        <time>2014-10-11T14:12:53Z</time>
      </trkpt>
      <trkpt lat="59.116881" lon="17.804165">
        <ele>17.7</ele>
        <time>2014-10-11T14:12:54Z</time>
      </trkpt>
      <trkpt lat="59.116945" lon="17.804108">
        <ele>17.5</ele>
        <time>2014-10-11T14:12:55Z</time>
      </trkpt>
      <trkpt lat="59.117022" lon="17.804088">
        <ele>16.9</ele>
        <time>2014-10-11T14:12:56Z</time>
      </trkpt>
      <trkpt lat="59.1171" lon="17.804032">
        <ele>16.6</ele>
        <time>2014-10-11T14:12:57Z</time>
      </trkpt>
      <trkpt lat="59.117367" lon="17.803869">
        <ele>15.8</ele>
        <time>2014-10-11T14:13:01Z</time>
      </trkpt>
      <trkpt lat="59.117435" lon="17.803823">
        <ele>15.6</ele>
        <time>2014-10-11T14:13:02Z</time>
      </trkpt>
      <trkpt lat="59.1175" lon="17.803794">
        <ele>15.3</ele>
        <time>2014-10-11T14:13:03Z</time>
      </trkpt>
      <trkpt lat="59.117567" lon="17.803773">
        <ele>15</ele>
        <time>2014-10-11T14:13:04Z</time>
      </trkpt>
      <trkpt lat="59.117637" lon="17.803742">
        <ele>14.7</ele>
        <time>2014-10-11T14:13:05Z</time>
      </trkpt>
      <trkpt lat="59.117707" lon="17.8037">
        <ele>14.6</ele>
        <time>2014-10-11T14:13:06Z</time>
      </trkpt>
      <trkpt lat="59.117775" lon="17.803679">
        <ele>14.4</ele>
        <time>2014-10-11T14:13:07Z</time>
      </trkpt>
      <trkpt lat="59.117842" lon="17.803664">
        <ele>14</ele>
        <time>2014-10-11T14:13:08Z</time>
      </trkpt>
      <trkpt lat="59.117912" lon="17.803639">
        <ele>13.7</ele>
        <time>2014-10-11T14:13:09Z</time>
      </trkpt>
      <trkpt lat="59.117984" lon="17.803623">
        <ele>13.8</ele>
        <time>2014-10-11T14:13:10Z</time>
      </trkpt>
      <trkpt lat="59.118055" lon="17.803621">
        <ele>13.9</ele>
        <time>2014-10-11T14:13:11Z</time>
      </trkpt>
      <trkpt lat="59.118122" lon="17.803608">
        <ele>14</ele>
        <time>2014-10-11T14:13:12Z</time>
      </trkpt>
      <trkpt lat="59.118179" lon="17.803608">
        <ele>14.1</ele>
        <time>2014-10-11T14:13:13Z</time>
      </trkpt>
      <trkpt lat="59.118246" lon="17.803608">
        <ele>14.1</ele>
        <time>2014-10-11T14:13:14Z</time>
      </trkpt>
      <trkpt lat="59.118311" lon="17.803618">
        <ele>14.1</ele>
        <time>2014-10-11T14:13:15Z</time>
      </trkpt>
      <trkpt lat="59.118378" lon="17.803636">
        <ele>14.1</ele>
        <time>2014-10-11T14:13:16Z</time>
      </trkpt>
      <trkpt lat="59.11844" lon="17.803651">
        <ele>14.1</ele>
        <time>2014-10-11T14:13:17Z</time>
      </trkpt>
      <trkpt lat="59.118507" lon="17.803663">
        <ele>14.1</ele>
        <time>2014-10-11T14:13:18Z</time>
      </trkpt>
      <trkpt lat="59.118576" lon="17.803657">
        <ele>14.2</ele>
        <time>2014-10-11T14:13:19Z</time>
      </trkpt>
      <trkpt lat="59.118648" lon="17.803656">
        <ele>14.2</ele>
        <time>2014-10-11T14:13:20Z</time>
      </trkpt>
      <trkpt lat="59.118713" lon="17.803665">
        <ele>14.3</ele>
        <time>2014-10-11T14:13:21Z</time>
      </trkpt>
      <trkpt lat="59.118788" lon="17.803679">
        <ele>14.3</ele>
        <time>2014-10-11T14:13:22Z</time>
      </trkpt>
      <trkpt lat="59.118864" lon="17.803699">
        <ele>14.3</ele>
        <time>2014-10-11T14:13:23Z</time>
      </trkpt>
      <trkpt lat="59.118942" lon="17.803697">
        <ele>14.5</ele>
        <time>2014-10-11T14:13:24Z</time>
      </trkpt>
      <trkpt lat="59.119014" lon="17.803706">
        <ele>14.5</ele>
        <time>2014-10-11T14:13:25Z</time>
      </trkpt>
      <trkpt lat="59.119084" lon="17.803713">
        <ele>14.6</ele>
        <time>2014-10-11T14:13:26Z</time>
      </trkpt>
      <trkpt lat="59.119154" lon="17.803728">
        <ele>14.6</ele>
        <time>2014-10-11T14:13:27Z</time>
      </trkpt>
      <trkpt lat="59.119222" lon="17.80373">
        <ele>14.7</ele>
        <time>2014-10-11T14:13:28Z</time>
      </trkpt>
      <trkpt lat="59.119291" lon="17.803717">
        <ele>14.8</ele>
        <time>2014-10-11T14:13:29Z</time>
      </trkpt>
      <trkpt lat="59.11936" lon="17.803719">
        <ele>14.9</ele>
        <time>2014-10-11T14:13:30Z</time>
      </trkpt>
      <trkpt lat="59.119421" lon="17.803729">
        <ele>14.9</ele>
        <time>2014-10-11T14:13:31Z</time>
      </trkpt>
      <trkpt lat="59.119494" lon="17.80372">
        <ele>15.1</ele>
        <time>2014-10-11T14:13:32Z</time>
      </trkpt>
      <trkpt lat="59.119563" lon="17.803733">
        <ele>15.1</ele>
        <time>2014-10-11T14:13:33Z</time>
      </trkpt>
      <trkpt lat="59.119626" lon="17.80374">
        <ele>15.2</ele>
        <time>2014-10-11T14:13:34Z</time>
      </trkpt>
      <trkpt lat="59.119694" lon="17.803749">
        <ele>15.3</ele>
        <time>2014-10-11T14:13:35Z</time>
      </trkpt>
      <trkpt lat="59.119762" lon="17.803758">
        <ele>15.4</ele>
        <time>2014-10-11T14:13:36Z</time>
      </trkpt>
      <trkpt lat="59.119834" lon="17.803775">
        <ele>15.5</ele>
        <time>2014-10-11T14:13:37Z</time>
      </trkpt>
      <trkpt lat="59.119898" lon="17.803799">
        <ele>15.6</ele>
        <time>2014-10-11T14:13:38Z</time>
      </trkpt>
      <trkpt lat="59.119957" lon="17.80382">
        <ele>15.7</ele>
        <time>2014-10-11T14:13:39Z</time>
      </trkpt>
      <trkpt lat="59.12002" lon="17.803848">
        <ele>15.8</ele>
        <time>2014-10-11T14:13:40Z</time>
      </trkpt>
      <trkpt lat="59.120078" lon="17.803869">
        <ele>15.9</ele>
        <time>2014-10-11T14:13:41Z</time>
      </trkpt>
      <trkpt lat="59.120146" lon="17.8039">
        <ele>16</ele>
        <time>2014-10-11T14:13:42Z</time>
      </trkpt>
      <trkpt lat="59.120203" lon="17.803939">
        <ele>16</ele>
        <time>2014-10-11T14:13:43Z</time>
      </trkpt>
      <trkpt lat="59.120267" lon="17.803998">
        <ele>16</ele>
        <time>2014-10-11T14:13:44Z</time>
      </trkpt>
      <trkpt lat="59.120327" lon="17.804022">
        <ele>16.1</ele>
        <time>2014-10-11T14:13:45Z</time>
      </trkpt>
      <trkpt lat="59.120391" lon="17.804076">
        <ele>16.2</ele>
        <time>2014-10-11T14:13:46Z</time>
      </trkpt>
      <trkpt lat="59.120449" lon="17.804089">
        <ele>16.3</ele>
        <time>2014-10-11T14:13:47Z</time>
      </trkpt>
      <trkpt lat="59.120507" lon="17.80412">
        <ele>16.3</ele>
        <time>2014-10-11T14:13:48Z</time>
      </trkpt>
      <trkpt lat="59.12056" lon="17.804153">
        <ele>16.4</ele>
        <time>2014-10-11T14:13:49Z</time>
      </trkpt>
      <trkpt lat="59.120618" lon="17.8042">
        <ele>16.4</ele>
        <time>2014-10-11T14:13:50Z</time>
      </trkpt>
      <trkpt lat="59.120679" lon="17.804239">
        <ele>16.5</ele>
        <time>2014-10-11T14:13:51Z</time>
      </trkpt>
      <trkpt lat="59.120736" lon="17.804279">
        <ele>16.5</ele>
        <time>2014-10-11T14:13:52Z</time>
      </trkpt>
      <trkpt lat="59.120801" lon="17.804328">
        <ele>16.5</ele>
        <time>2014-10-11T14:13:53Z</time>
      </trkpt>
      <trkpt lat="59.120858" lon="17.804355">
        <ele>16.6</ele>
        <time>2014-10-11T14:13:54Z</time>
      </trkpt>
      <trkpt lat="59.120914" lon="17.804395">
        <ele>16.6</ele>
        <time>2014-10-11T14:13:55Z</time>
      </trkpt>
      <trkpt lat="59.120962" lon="17.804452">
        <ele>16.6</ele>
        <time>2014-10-11T14:13:56Z</time>
      </trkpt>
      <trkpt lat="59.121019" lon="17.80451">
        <ele>16.6</ele>
        <time>2014-10-11T14:13:57Z</time>
      </trkpt>
      <trkpt lat="59.121078" lon="17.804579">
        <ele>16.6</ele>
        <time>2014-10-11T14:13:58Z</time>
      </trkpt>
      <trkpt lat="59.121131" lon="17.804653">
        <ele>16.5</ele>
        <time>2014-10-11T14:13:59Z</time>
      </trkpt>
      <trkpt lat="59.121184" lon="17.804731">
        <ele>16.3</ele>
        <time>2014-10-11T14:14:00Z</time>
      </trkpt>
      <trkpt lat="59.121238" lon="17.804792">
        <ele>16.2</ele>
        <time>2014-10-11T14:14:01Z</time>
      </trkpt>
      <trkpt lat="59.121291" lon="17.804877">
        <ele>16.1</ele>
        <time>2014-10-11T14:14:02Z</time>
      </trkpt>
      <trkpt lat="59.121367" lon="17.804959">
        <ele>16.1</ele>
        <time>2014-10-11T14:14:03Z</time>
      </trkpt>
      <trkpt lat="59.12141" lon="17.805065">
        <ele>15.8</ele>
        <time>2014-10-11T14:14:04Z</time>
      </trkpt>
      <trkpt lat="59.121461" lon="17.805162">
        <ele>15.7</ele>
        <time>2014-10-11T14:14:05Z</time>
      </trkpt>
      <trkpt lat="59.121504" lon="17.805256">
        <ele>15.5</ele>
        <time>2014-10-11T14:14:06Z</time>
      </trkpt>
      <trkpt lat="59.121554" lon="17.805353">
        <ele>15.3</ele>
        <time>2014-10-11T14:14:07Z</time>
      </trkpt>
      <trkpt lat="59.121597" lon="17.805467">
        <ele>15.2</ele>
        <time>2014-10-11T14:14:08Z</time>
      </trkpt>
      <trkpt lat="59.12164" lon="17.805565">
        <ele>15.1</ele>
        <time>2014-10-11T14:14:09Z</time>
      </trkpt>
      <trkpt lat="59.121677" lon="17.805686">
        <ele>15.1</ele>
        <time>2014-10-11T14:14:10Z</time>
      </trkpt>
      <trkpt lat="59.121714" lon="17.805797">
        <ele>15</ele>
        <time>2014-10-11T14:14:11Z</time>
      </trkpt>
      <trkpt lat="59.121761" lon="17.805922">
        <ele>15</ele>
        <time>2014-10-11T14:14:12Z</time>
      </trkpt>
      <trkpt lat="59.121797" lon="17.806044">
        <ele>15</ele>
        <time>2014-10-11T14:14:13Z</time>
      </trkpt>
      <trkpt lat="59.121834" lon="17.806168">
        <ele>14.9</ele>
        <time>2014-10-11T14:14:14Z</time>
      </trkpt>
      <trkpt lat="59.121867" lon="17.806288">
        <ele>14.9</ele>
        <time>2014-10-11T14:14:15Z</time>
      </trkpt>
      <trkpt lat="59.121907" lon="17.806414">
        <ele>14.8</ele>
        <time>2014-10-11T14:14:16Z</time>
      </trkpt>
      <trkpt lat="59.12195" lon="17.806552">
        <ele>14.6</ele>
        <time>2014-10-11T14:14:17Z</time>
      </trkpt>
      <trkpt lat="59.121994" lon="17.80668">
        <ele>14.5</ele>
        <time>2014-10-11T14:14:18Z</time>
      </trkpt>
      <trkpt lat="59.122046" lon="17.806843">
        <ele>14.4</ele>
        <time>2014-10-11T14:14:19Z</time>
      </trkpt>
      <trkpt lat="59.122088" lon="17.806967">
        <ele>14.3</ele>
        <time>2014-10-11T14:14:20Z</time>
      </trkpt>
      <trkpt lat="59.122135" lon="17.807126">
        <ele>14.6</ele>
        <time>2014-10-11T14:14:21Z</time>
      </trkpt>
      <trkpt lat="59.122173" lon="17.80725">
        <ele>14.8</ele>
        <time>2014-10-11T14:14:22Z</time>
      </trkpt>
      <trkpt lat="59.122211" lon="17.807374">
        <ele>14.9</ele>
        <time>2014-10-11T14:14:23Z</time>
      </trkpt>
      <trkpt lat="59.122242" lon="17.807526">
        <ele>14.9</ele>
        <time>2014-10-11T14:14:24Z</time>
      </trkpt>
      <trkpt lat="59.122278" lon="17.807667">
        <ele>15</ele>
        <time>2014-10-11T14:14:25Z</time>
      </trkpt>
      <trkpt lat="59.122311" lon="17.807795">
        <ele>15.1</ele>
        <time>2014-10-11T14:14:26Z</time>
      </trkpt>
      <trkpt lat="59.122351" lon="17.807923">
        <ele>15.2</ele>
        <time>2014-10-11T14:14:27Z</time>
      </trkpt>
      <trkpt lat="59.12239" lon="17.80805">
        <ele>15.2</ele>
        <time>2014-10-11T14:14:28Z</time>
      </trkpt>
      <trkpt lat="59.122432" lon="17.808176">
        <ele>15.3</ele>
        <time>2014-10-11T14:14:29Z</time>
      </trkpt>
      <trkpt lat="59.122488" lon="17.808326">
        <ele>15.4</ele>
        <time>2014-10-11T14:14:30Z</time>
      </trkpt>
      <trkpt lat="59.122516" lon="17.808477">
        <ele>15.1</ele>
        <time>2014-10-11T14:14:31Z</time>
      </trkpt>
      <trkpt lat="59.122563" lon="17.808623">
        <ele>15.1</ele>
        <time>2014-10-11T14:14:32Z</time>
      </trkpt>
      <trkpt lat="59.12261" lon="17.808768">
        <ele>15</ele>
        <time>2014-10-11T14:14:33Z</time>
      </trkpt>
      <trkpt lat="59.122645" lon="17.808922">
        <ele>15.1</ele>
        <time>2014-10-11T14:14:34Z</time>
      </trkpt>
      <trkpt lat="59.122688" lon="17.809053">
        <ele>15.3</ele>
        <time>2014-10-11T14:14:35Z</time>
      </trkpt>
      <trkpt lat="59.122735" lon="17.809195">
        <ele>15.4</ele>
        <time>2014-10-11T14:14:36Z</time>
      </trkpt>
      <trkpt lat="59.122774" lon="17.809343">
        <ele>15.5</ele>
        <time>2014-10-11T14:14:37Z</time>
      </trkpt>
      <trkpt lat="59.122819" lon="17.809484">
        <ele>15.5</ele>
        <time>2014-10-11T14:14:38Z</time>
      </trkpt>
      <trkpt lat="59.122853" lon="17.809656">
        <ele>15.3</ele>
        <time>2014-10-11T14:14:39Z</time>
      </trkpt>
      <trkpt lat="59.122882" lon="17.809812">
        <ele>15</ele>
        <time>2014-10-11T14:14:40Z</time>
      </trkpt>
      <trkpt lat="59.122912" lon="17.809954">
        <ele>14.6</ele>
        <time>2014-10-11T14:14:41Z</time>
      </trkpt>
      <trkpt lat="59.122937" lon="17.810106">
        <ele>14.5</ele>
        <time>2014-10-11T14:14:42Z</time>
      </trkpt>
      <trkpt lat="59.122963" lon="17.81025">
        <ele>14.4</ele>
        <time>2014-10-11T14:14:43Z</time>
      </trkpt>
      <trkpt lat="59.122981" lon="17.810395">
        <ele>14.2</ele>
        <time>2014-10-11T14:14:44Z</time>
      </trkpt>
      <trkpt lat="59.123001" lon="17.810559">
        <ele>14.4</ele>
        <time>2014-10-11T14:14:45Z</time>
      </trkpt>
      <trkpt lat="59.123014" lon="17.810718">
        <ele>14.6</ele>
        <time>2014-10-11T14:14:46Z</time>
      </trkpt>
      <trkpt lat="59.123028" lon="17.810869">
        <ele>14.7</ele>
        <time>2014-10-11T14:14:47Z</time>
      </trkpt>
      <trkpt lat="59.12304" lon="17.811007">
        <ele>14.8</ele>
        <time>2014-10-11T14:14:48Z</time>
      </trkpt>
      <trkpt lat="59.123032" lon="17.811169">
        <ele>14.6</ele>
        <time>2014-10-11T14:14:49Z</time>
      </trkpt>
      <trkpt lat="59.123049" lon="17.811311">
        <ele>14.8</ele>
        <time>2014-10-11T14:14:50Z</time>
      </trkpt>
      <trkpt lat="59.123062" lon="17.811454">
        <ele>14.9</ele>
        <time>2014-10-11T14:14:51Z</time>
      </trkpt>
      <trkpt lat="59.123082" lon="17.811605">
        <ele>15.2</ele>
        <time>2014-10-11T14:14:52Z</time>
      </trkpt>
      <trkpt lat="59.123088" lon="17.81175">
        <ele>15.2</ele>
        <time>2014-10-11T14:14:53Z</time>
      </trkpt>
      <trkpt lat="59.123101" lon="17.811913">
        <ele>15.3</ele>
        <time>2014-10-11T14:14:54Z</time>
      </trkpt>
      <trkpt lat="59.123134" lon="17.812043">
        <ele>15.6</ele>
        <time>2014-10-11T14:14:55Z</time>
      </trkpt>
      <trkpt lat="59.123154" lon="17.812206">
        <ele>16</ele>
        <time>2014-10-11T14:14:56Z</time>
      </trkpt>
      <trkpt lat="59.123192" lon="17.812347">
        <ele>16.6</ele>
        <time>2014-10-11T14:14:57Z</time>
      </trkpt>
      <trkpt lat="59.123243" lon="17.812466">
        <ele>17.2</ele>
        <time>2014-10-11T14:14:58Z</time>
      </trkpt>
      <trkpt lat="59.123299" lon="17.812603">
        <ele>17.8</ele>
        <time>2014-10-11T14:14:59Z</time>
      </trkpt>
      <trkpt lat="59.12336" lon="17.812707">
        <ele>18.2</ele>
        <time>2014-10-11T14:15:00Z</time>
      </trkpt>
      <trkpt lat="59.123433" lon="17.812793">
        <ele>18.7</ele>
        <time>2014-10-11T14:15:01Z</time>
      </trkpt>
      <trkpt lat="59.123503" lon="17.812884">
        <ele>19.1</ele>
        <time>2014-10-11T14:15:02Z</time>
      </trkpt>
      <trkpt lat="59.123583" lon="17.812972">
        <ele>19.4</ele>
        <time>2014-10-11T14:15:03Z</time>
      </trkpt>
      <trkpt lat="59.123666" lon="17.813074">
        <ele>19.8</ele>
        <time>2014-10-11T14:15:04Z</time>
      </trkpt>
      <trkpt lat="59.123747" lon="17.813152">
        <ele>20</ele>
        <time>2014-10-11T14:15:05Z</time>
      </trkpt>
      <trkpt lat="59.123812" lon="17.813255">
        <ele>20.4</ele>
        <time>2014-10-11T14:15:06Z</time>
      </trkpt>
      <trkpt lat="59.123884" lon="17.813365">
        <ele>20.9</ele>
        <time>2014-10-11T14:15:07Z</time>
      </trkpt>
      <trkpt lat="59.12393" lon="17.81347">
        <ele>21</ele>
        <time>2014-10-11T14:15:08Z</time>
      </trkpt>
      <trkpt lat="59.123982" lon="17.813575">
        <ele>21.1</ele>
        <time>2014-10-11T14:15:09Z</time>
      </trkpt>
      <trkpt lat="59.124033" lon="17.813708">
        <ele>21.1</ele>
        <time>2014-10-11T14:15:10Z</time>
      </trkpt>
      <trkpt lat="59.12408" lon="17.813835">
        <ele>21.1</ele>
        <time>2014-10-11T14:15:11Z</time>
      </trkpt>
      <trkpt lat="59.12413" lon="17.81396">
        <ele>21.1</ele>
        <time>2014-10-11T14:15:12Z</time>
      </trkpt>
      <trkpt lat="59.124178" lon="17.814103">
        <ele>21.1</ele>
        <time>2014-10-11T14:15:13Z</time>
      </trkpt>
      <trkpt lat="59.124219" lon="17.814196">
        <ele>21.1</ele>
        <time>2014-10-11T14:15:14Z</time>
      </trkpt>
      <trkpt lat="59.124262" lon="17.814291">
        <ele>21</ele>
        <time>2014-10-11T14:15:15Z</time>
      </trkpt>
      <trkpt lat="59.124306" lon="17.814404">
        <ele>21</ele>
        <time>2014-10-11T14:15:16Z</time>
      </trkpt>
      <trkpt lat="59.124351" lon="17.814517">
        <ele>20.8</ele>
        <time>2014-10-11T14:15:17Z</time>
      </trkpt>
      <trkpt lat="59.12441" lon="17.814624">
        <ele>20.7</ele>
        <time>2014-10-11T14:15:18Z</time>
      </trkpt>
      <trkpt lat="59.124467" lon="17.814737">
        <ele>20.4</ele>
        <time>2014-10-11T14:15:19Z</time>
      </trkpt>
      <trkpt lat="59.124518" lon="17.814844">
        <ele>20.1</ele>
        <time>2014-10-11T14:15:20Z</time>
      </trkpt>
      <trkpt lat="59.124568" lon="17.81495">
        <ele>19.7</ele>
        <time>2014-10-11T14:15:21Z</time>
      </trkpt>
      <trkpt lat="59.124625" lon="17.815039">
        <ele>19.5</ele>
        <time>2014-10-11T14:15:22Z</time>
      </trkpt>
      <trkpt lat="59.124674" lon="17.815132">
        <ele>19.4</ele>
        <time>2014-10-11T14:15:23Z</time>
      </trkpt>
      <trkpt lat="59.124717" lon="17.815243">
        <ele>19.1</ele>
        <time>2014-10-11T14:15:24Z</time>
      </trkpt>
      <trkpt lat="59.124763" lon="17.815328">
        <ele>19</ele>
        <time>2014-10-11T14:15:25Z</time>
      </trkpt>
      <trkpt lat="59.124816" lon="17.815412">
        <ele>18.9</ele>
        <time>2014-10-11T14:15:26Z</time>
      </trkpt>
      <trkpt lat="59.124876" lon="17.815482">
        <ele>19.1</ele>
        <time>2014-10-11T14:15:27Z</time>
      </trkpt>
      <trkpt lat="59.124936" lon="17.815563">
        <ele>19.3</ele>
        <time>2014-10-11T14:15:28Z</time>
      </trkpt>
      <trkpt lat="59.124993" lon="17.815653">
        <ele>19.5</ele>
        <time>2014-10-11T14:15:29Z</time>
      </trkpt>
      <trkpt lat="59.125042" lon="17.815756">
        <ele>19.6</ele>
        <time>2014-10-11T14:15:30Z</time>
      </trkpt>
      <trkpt lat="59.1251" lon="17.815866">
        <ele>19.7</ele>
        <time>2014-10-11T14:15:31Z</time>
      </trkpt>
      <trkpt lat="59.125155" lon="17.815967">
        <ele>19.8</ele>
        <time>2014-10-11T14:15:32Z</time>
      </trkpt>
      <trkpt lat="59.125217" lon="17.816063">
        <ele>19.9</ele>
        <time>2014-10-11T14:15:33Z</time>
      </trkpt>
      <trkpt lat="59.125279" lon="17.816185">
        <ele>19.9</ele>
        <time>2014-10-11T14:15:34Z</time>
      </trkpt>
      <trkpt lat="59.125332" lon="17.816297">
        <ele>19.9</ele>
        <time>2014-10-11T14:15:35Z</time>
      </trkpt>
      <trkpt lat="59.125397" lon="17.816416">
        <ele>19.8</ele>
        <time>2014-10-11T14:15:36Z</time>
      </trkpt>
      <trkpt lat="59.125454" lon="17.816523">
        <ele>19.9</ele>
        <time>2014-10-11T14:15:37Z</time>
      </trkpt>
      <trkpt lat="59.125517" lon="17.816632">
        <ele>20.2</ele>
        <time>2014-10-11T14:15:38Z</time>
      </trkpt>
      <trkpt lat="59.125585" lon="17.81674">
        <ele>20.3</ele>
        <time>2014-10-11T14:15:39Z</time>
      </trkpt>
      <trkpt lat="59.125653" lon="17.816855">
        <ele>20.3</ele>
        <time>2014-10-11T14:15:40Z</time>
      </trkpt>
      <trkpt lat="59.125707" lon="17.816968">
        <ele>20.1</ele>
        <time>2014-10-11T14:15:41Z</time>
      </trkpt>
      <trkpt lat="59.125764" lon="17.817065">
        <ele>19.9</ele>
        <time>2014-10-11T14:15:42Z</time>
      </trkpt>
      <trkpt lat="59.125829" lon="17.817166">
        <ele>20.1</ele>
        <time>2014-10-11T14:15:43Z</time>
      </trkpt>
      <trkpt lat="59.125891" lon="17.817274">
        <ele>20.3</ele>
        <time>2014-10-11T14:15:44Z</time>
      </trkpt>
      <trkpt lat="59.125956" lon="17.817363">
        <ele>20.5</ele>
        <time>2014-10-11T14:15:45Z</time>
      </trkpt>
      <trkpt lat="59.126013" lon="17.81747">
        <ele>20.7</ele>
        <time>2014-10-11T14:15:46Z</time>
      </trkpt>
      <trkpt lat="59.12608" lon="17.817574">
        <ele>20.8</ele>
        <time>2014-10-11T14:15:47Z</time>
      </trkpt>
      <trkpt lat="59.126145" lon="17.817672">
        <ele>20.9</ele>
        <time>2014-10-11T14:15:48Z</time>
      </trkpt>
      <trkpt lat="59.126199" lon="17.817779">
        <ele>21</ele>
        <time>2014-10-11T14:15:49Z</time>
      </trkpt>
      <trkpt lat="59.126274" lon="17.81789">
        <ele>21.1</ele>
        <time>2014-10-11T14:15:50Z</time>
      </trkpt>
      <trkpt lat="59.126336" lon="17.817989">
        <ele>21.5</ele>
        <time>2014-10-11T14:15:51Z</time>
      </trkpt>
      <trkpt lat="59.12639" lon="17.818099">
        <ele>21.7</ele>
        <time>2014-10-11T14:15:52Z</time>
      </trkpt>
      <trkpt lat="59.126451" lon="17.818206">
        <ele>21.8</ele>
        <time>2014-10-11T14:15:53Z</time>
      </trkpt>
      <trkpt lat="59.126505" lon="17.818307">
        <ele>21.8</ele>
        <time>2014-10-11T14:15:54Z</time>
      </trkpt>
      <trkpt lat="59.126567" lon="17.818414">
        <ele>21.8</ele>
        <time>2014-10-11T14:15:55Z</time>
      </trkpt>
      <trkpt lat="59.126621" lon="17.818538">
        <ele>21.6</ele>
        <time>2014-10-11T14:15:56Z</time>
      </trkpt>
      <trkpt lat="59.126675" lon="17.818652">
        <ele>21.3</ele>
        <time>2014-10-11T14:15:57Z</time>
      </trkpt>
      <trkpt lat="59.126735" lon="17.818763">
        <ele>21</ele>
        <time>2014-10-11T14:15:58Z</time>
      </trkpt>
      <trkpt lat="59.126798" lon="17.818864">
        <ele>21</ele>
        <time>2014-10-11T14:15:59Z</time>
      </trkpt>
      <trkpt lat="59.126858" lon="17.818963">
        <ele>21.1</ele>
        <time>2014-10-11T14:16:00Z</time>
      </trkpt>
      <trkpt lat="59.126917" lon="17.819061">
        <ele>21.1</ele>
        <time>2014-10-11T14:16:01Z</time>
      </trkpt>
      <trkpt lat="59.126985" lon="17.819188">
        <ele>21.1</ele>
        <time>2014-10-11T14:16:02Z</time>
      </trkpt>
      <trkpt lat="59.127046" lon="17.81929">
        <ele>21</ele>
        <time>2014-10-11T14:16:03Z</time>
      </trkpt>
      <trkpt lat="59.127103" lon="17.819398">
        <ele>21.2</ele>
        <time>2014-10-11T14:16:04Z</time>
      </trkpt>
      <trkpt lat="59.127164" lon="17.81952">
        <ele>21.7</ele>
        <time>2014-10-11T14:16:05Z</time>
      </trkpt>
      <trkpt lat="59.127229" lon="17.819636">
        <ele>22.2</ele>
        <time>2014-10-11T14:16:06Z</time>
      </trkpt>
      <trkpt lat="59.127287" lon="17.819746">
        <ele>22.6</ele>
        <time>2014-10-11T14:16:07Z</time>
      </trkpt>
      <trkpt lat="59.127345" lon="17.819881">
        <ele>22.8</ele>
        <time>2014-10-11T14:16:08Z</time>
      </trkpt>
      <trkpt lat="59.12741" lon="17.820004">
        <ele>22.9</ele>
        <time>2014-10-11T14:16:09Z</time>
      </trkpt>
      <trkpt lat="59.127476" lon="17.820129">
        <ele>22.8</ele>
        <time>2014-10-11T14:16:10Z</time>
      </trkpt>
      <trkpt lat="59.127548" lon="17.820235">
        <ele>22.6</ele>
        <time>2014-10-11T14:16:11Z</time>
      </trkpt>
      <trkpt lat="59.127615" lon="17.82035">
        <ele>22.3</ele>
        <time>2014-10-11T14:16:12Z</time>
      </trkpt>
      <trkpt lat="59.127684" lon="17.820474">
        <ele>22</ele>
        <time>2014-10-11T14:16:13Z</time>
      </trkpt>
      <trkpt lat="59.127745" lon="17.820585">
        <ele>22</ele>
        <time>2014-10-11T14:16:14Z</time>
      </trkpt>
      <trkpt lat="59.127811" lon="17.820711">
        <ele>22</ele>
        <time>2014-10-11T14:16:15Z</time>
      </trkpt>
      <trkpt lat="59.12788" lon="17.820821">
        <ele>22</ele>
        <time>2014-10-11T14:16:16Z</time>
      </trkpt>
      <trkpt lat="59.127952" lon="17.820935">
        <ele>22.3</ele>
        <time>2014-10-11T14:16:17Z</time>
      </trkpt>
      <trkpt lat="59.128017" lon="17.821031">
        <ele>22.8</ele>
        <time>2014-10-11T14:16:18Z</time>
      </trkpt>
      <trkpt lat="59.128088" lon="17.821128">
        <ele>23.2</ele>
        <time>2014-10-11T14:16:19Z</time>
      </trkpt>
      <trkpt lat="59.12815" lon="17.821241">
        <ele>23.4</ele>
        <time>2014-10-11T14:16:20Z</time>
      </trkpt>
      <trkpt lat="59.128216" lon="17.821341">
        <ele>23.6</ele>
        <time>2014-10-11T14:16:21Z</time>
      </trkpt>
      <trkpt lat="59.12829" lon="17.821447">
        <ele>23.6</ele>
        <time>2014-10-11T14:16:22Z</time>
      </trkpt>
      <trkpt lat="59.128361" lon="17.821547">
        <ele>23.5</ele>
        <time>2014-10-11T14:16:23Z</time>
      </trkpt>
      <trkpt lat="59.128435" lon="17.821642">
        <ele>23.4</ele>
        <time>2014-10-11T14:16:24Z</time>
      </trkpt>
      <trkpt lat="59.128504" lon="17.821741">
        <ele>23</ele>
        <time>2014-10-11T14:16:25Z</time>
      </trkpt>
      <trkpt lat="59.128568" lon="17.821842">
        <ele>22.6</ele>
        <time>2014-10-11T14:16:26Z</time>
      </trkpt>
      <trkpt lat="59.128648" lon="17.821933">
        <ele>22.1</ele>
        <time>2014-10-11T14:16:27Z</time>
      </trkpt>
      <trkpt lat="59.128724" lon="17.822035">
        <ele>21.4</ele>
        <time>2014-10-11T14:16:28Z</time>
      </trkpt>
      <trkpt lat="59.128795" lon="17.822135">
        <ele>21.9</ele>
        <time>2014-10-11T14:16:29Z</time>
      </trkpt>
      <trkpt lat="59.128866" lon="17.822244">
        <ele>23.2</ele>
        <time>2014-10-11T14:16:30Z</time>
      </trkpt>
      <trkpt lat="59.128935" lon="17.822344">
        <ele>24.3</ele>
        <time>2014-10-11T14:16:31Z</time>
      </trkpt>
      <trkpt lat="59.129011" lon="17.822461">
        <ele>25.3</ele>
        <time>2014-10-11T14:16:32Z</time>
      </trkpt>
      <trkpt lat="59.129082" lon="17.822562">
        <ele>26.2</ele>
        <time>2014-10-11T14:16:33Z</time>
      </trkpt>
      <trkpt lat="59.129151" lon="17.822659">
        <ele>26.9</ele>
        <time>2014-10-11T14:16:34Z</time>
      </trkpt>
      <trkpt lat="59.129214" lon="17.822771">
        <ele>27.2</ele>
        <time>2014-10-11T14:16:35Z</time>
      </trkpt>
      <trkpt lat="59.129288" lon="17.82287">
        <ele>27.7</ele>
        <time>2014-10-11T14:16:36Z</time>
      </trkpt>
      <trkpt lat="59.129354" lon="17.822981">
        <ele>27.9</ele>
        <time>2014-10-11T14:16:37Z</time>
      </trkpt>
      <trkpt lat="59.129427" lon="17.823059">
        <ele>28.2</ele>
        <time>2014-10-11T14:16:38Z</time>
      </trkpt>
      <trkpt lat="59.129491" lon="17.823145">
        <ele>28.2</ele>
        <time>2014-10-11T14:16:39Z</time>
      </trkpt>
      <trkpt lat="59.12955" lon="17.823236">
        <ele>28</ele>
        <time>2014-10-11T14:16:40Z</time>
      </trkpt>
      <trkpt lat="59.129619" lon="17.823322">
        <ele>28</ele>
        <time>2014-10-11T14:16:41Z</time>
      </trkpt>
      <trkpt lat="59.129691" lon="17.823408">
        <ele>27.9</ele>
        <time>2014-10-11T14:16:42Z</time>
      </trkpt>
      <trkpt lat="59.129757" lon="17.82347">
        <ele>27.8</ele>
        <time>2014-10-11T14:16:43Z</time>
      </trkpt>
      <trkpt lat="59.129833" lon="17.823536">
        <ele>27.7</ele>
        <time>2014-10-11T14:16:44Z</time>
      </trkpt>
      <trkpt lat="59.129893" lon="17.823599">
        <ele>27.4</ele>
        <time>2014-10-11T14:16:45Z</time>
      </trkpt>
      <trkpt lat="59.129956" lon="17.823661">
        <ele>27</ele>
        <time>2014-10-11T14:16:46Z</time>
      </trkpt>
      <trkpt lat="59.130027" lon="17.823712">
        <ele>26.7</ele>
        <time>2014-10-11T14:16:47Z</time>
      </trkpt>
      <trkpt lat="59.130088" lon="17.823765">
        <ele>26.4</ele>
        <time>2014-10-11T14:16:48Z</time>
      </trkpt>
      <trkpt lat="59.130145" lon="17.82381">
        <ele>26.5</ele>
        <time>2014-10-11T14:16:49Z</time>
      </trkpt>
      <trkpt lat="59.130207" lon="17.82385">
        <ele>26.7</ele>
        <time>2014-10-11T14:16:50Z</time>
      </trkpt>
      <trkpt lat="59.130256" lon="17.823903">
        <ele>26.7</ele>
        <time>2014-10-11T14:16:51Z</time>
      </trkpt>
      <trkpt lat="59.130315" lon="17.823954">
        <ele>26.8</ele>
        <time>2014-10-11T14:16:52Z</time>
      </trkpt>
      <trkpt lat="59.130375" lon="17.824006">
        <ele>26.9</ele>
        <time>2014-10-11T14:16:53Z</time>
      </trkpt>
      <trkpt lat="59.130426" lon="17.824076">
        <ele>26.9</ele>
        <time>2014-10-11T14:16:54Z</time>
      </trkpt>
      <trkpt lat="59.130487" lon="17.824126">
        <ele>27.4</ele>
        <time>2014-10-11T14:16:55Z</time>
      </trkpt>
      <trkpt lat="59.130535" lon="17.824204">
        <ele>27.6</ele>
        <time>2014-10-11T14:16:56Z</time>
      </trkpt>
      <trkpt lat="59.130575" lon="17.824283">
        <ele>27.7</ele>
        <time>2014-10-11T14:16:57Z</time>
      </trkpt>
      <trkpt lat="59.130634" lon="17.824357">
        <ele>27.9</ele>
        <time>2014-10-11T14:16:58Z</time>
      </trkpt>
      <trkpt lat="59.130692" lon="17.824437">
        <ele>28.1</ele>
        <time>2014-10-11T14:16:59Z</time>
      </trkpt>
      <trkpt lat="59.130749" lon="17.824521">
        <ele>28.1</ele>
        <time>2014-10-11T14:17:00Z</time>
      </trkpt>
      <trkpt lat="59.130797" lon="17.824577">
        <ele>28.2</ele>
        <time>2014-10-11T14:17:01Z</time>
      </trkpt>
      <trkpt lat="59.13086" lon="17.824652">
        <ele>28.3</ele>
        <time>2014-10-11T14:17:02Z</time>
      </trkpt>
      <trkpt lat="59.130917" lon="17.824736">
        <ele>28.1</ele>
        <time>2014-10-11T14:17:03Z</time>
      </trkpt>
      <trkpt lat="59.130974" lon="17.82482">
        <ele>27.9</ele>
        <time>2014-10-11T14:17:04Z</time>
      </trkpt>
      <trkpt lat="59.131026" lon="17.824911">
        <ele>27.5</ele>
        <time>2014-10-11T14:17:05Z</time>
      </trkpt>
      <trkpt lat="59.131069" lon="17.825019">
        <ele>26.9</ele>
        <time>2014-10-11T14:17:06Z</time>
      </trkpt>
      <trkpt lat="59.131125" lon="17.825096">
        <ele>26.5</ele>
        <time>2014-10-11T14:17:07Z</time>
      </trkpt>
      <trkpt lat="59.131178" lon="17.825171">
        <ele>26.1</ele>
        <time>2014-10-11T14:17:08Z</time>
      </trkpt>
      <trkpt lat="59.131238" lon="17.82528">
        <ele>25.3</ele>
        <time>2014-10-11T14:17:09Z</time>
      </trkpt>
      <trkpt lat="59.131298" lon="17.82537">
        <ele>25.2</ele>
        <time>2014-10-11T14:17:10Z</time>
      </trkpt>
      <trkpt lat="59.131357" lon="17.825458">
        <ele>25.6</ele>
        <time>2014-10-11T14:17:11Z</time>
      </trkpt>
      <trkpt lat="59.131406" lon="17.825579">
        <ele>26.3</ele>
        <time>2014-10-11T14:17:12Z</time>
      </trkpt>
      <trkpt lat="59.131462" lon="17.825686">
        <ele>26.9</ele>
        <time>2014-10-11T14:17:13Z</time>
      </trkpt>
      <trkpt lat="59.131503" lon="17.825826">
        <ele>27.2</ele>
        <time>2014-10-11T14:17:14Z</time>
      </trkpt>
      <trkpt lat="59.131554" lon="17.825936">
        <ele>27.6</ele>
        <time>2014-10-11T14:17:15Z</time>
      </trkpt>
      <trkpt lat="59.131599" lon="17.82605">
        <ele>27.9</ele>
        <time>2014-10-11T14:17:16Z</time>
      </trkpt>
      <trkpt lat="59.131646" lon="17.826185">
        <ele>28</ele>
        <time>2014-10-11T14:17:17Z</time>
      </trkpt>
      <trkpt lat="59.131698" lon="17.826318">
        <ele>28</ele>
        <time>2014-10-11T14:17:18Z</time>
      </trkpt>
      <trkpt lat="59.13175" lon="17.826418">
        <ele>28.1</ele>
        <time>2014-10-11T14:17:19Z</time>
      </trkpt>
      <trkpt lat="59.131803" lon="17.826532">
        <ele>28.1</ele>
        <time>2014-10-11T14:17:20Z</time>
      </trkpt>
      <trkpt lat="59.131851" lon="17.826639">
        <ele>28</ele>
        <time>2014-10-11T14:17:21Z</time>
      </trkpt>
      <trkpt lat="59.131911" lon="17.826746">
        <ele>27.9</ele>
        <time>2014-10-11T14:17:22Z</time>
      </trkpt>
      <trkpt lat="59.131964" lon="17.826844">
        <ele>27.7</ele>
        <time>2014-10-11T14:17:23Z</time>
      </trkpt>
      <trkpt lat="59.132009" lon="17.826937">
        <ele>27.5</ele>
        <time>2014-10-11T14:17:24Z</time>
      </trkpt>
      <trkpt lat="59.13205" lon="17.827053">
        <ele>27</ele>
        <time>2014-10-11T14:17:25Z</time>
      </trkpt>
      <trkpt lat="59.132107" lon="17.827155">
        <ele>27.1</ele>
        <time>2014-10-11T14:17:26Z</time>
      </trkpt>
      <trkpt lat="59.132164" lon="17.827254">
        <ele>27.6</ele>
        <time>2014-10-11T14:17:27Z</time>
      </trkpt>
      <trkpt lat="59.132213" lon="17.827346">
        <ele>27.9</ele>
        <time>2014-10-11T14:17:28Z</time>
      </trkpt>
      <trkpt lat="59.13227" lon="17.827446">
        <ele>28.2</ele>
        <time>2014-10-11T14:17:29Z</time>
      </trkpt>
      <trkpt lat="59.132336" lon="17.827537">
        <ele>28.6</ele>
        <time>2014-10-11T14:17:30Z</time>
      </trkpt>
      <trkpt lat="59.132397" lon="17.827642">
        <ele>28.7</ele>
        <time>2014-10-11T14:17:31Z</time>
      </trkpt>
      <trkpt lat="59.132458" lon="17.827743">
        <ele>28.6</ele>
        <time>2014-10-11T14:17:32Z</time>
      </trkpt>
      <trkpt lat="59.132515" lon="17.827837">
        <ele>28.5</ele>
        <time>2014-10-11T14:17:33Z</time>
      </trkpt>
      <trkpt lat="59.132584" lon="17.827829">
        <ele>29.6</ele>
        <time>2014-10-11T14:17:34Z</time>
      </trkpt>
      <trkpt lat="59.132638" lon="17.827918">
        <ele>29.3</ele>
        <time>2014-10-11T14:17:35Z</time>
      </trkpt>
      <trkpt lat="59.132705" lon="17.82803">
        <ele>28.8</ele>
        <time>2014-10-11T14:17:36Z</time>
      </trkpt>
      <trkpt lat="59.132776" lon="17.828126">
        <ele>28.4</ele>
        <time>2014-10-11T14:17:37Z</time>
      </trkpt>
      <trkpt lat="59.132838" lon="17.82822">
        <ele>27.8</ele>
        <time>2014-10-11T14:17:38Z</time>
      </trkpt>
      <trkpt lat="59.132898" lon="17.828324">
        <ele>27</ele>
        <time>2014-10-11T14:17:39Z</time>
      </trkpt>
      <trkpt lat="59.132948" lon="17.828418">
        <ele>26.4</ele>
        <time>2014-10-11T14:17:40Z</time>
      </trkpt>
      <trkpt lat="59.133012" lon="17.828493">
        <ele>26.5</ele>
        <time>2014-10-11T14:17:41Z</time>
      </trkpt>
      <trkpt lat="59.133069" lon="17.82858">
        <ele>26.3</ele>
        <time>2014-10-11T14:17:42Z</time>
      </trkpt>
      <trkpt lat="59.133132" lon="17.828672">
        <ele>26.1</ele>
        <time>2014-10-11T14:17:43Z</time>
      </trkpt>
      <trkpt lat="59.133192" lon="17.828761">
        <ele>25.9</ele>
        <time>2014-10-11T14:17:44Z</time>
      </trkpt>
      <trkpt lat="59.133256" lon="17.828879">
        <ele>26.4</ele>
        <time>2014-10-11T14:17:45Z</time>
      </trkpt>
      <trkpt lat="59.133311" lon="17.828968">
        <ele>26.7</ele>
        <time>2014-10-11T14:17:46Z</time>
      </trkpt>
      <trkpt lat="59.133368" lon="17.829066">
        <ele>26.9</ele>
        <time>2014-10-11T14:17:47Z</time>
      </trkpt>
      <trkpt lat="59.133419" lon="17.829154">
        <ele>27</ele>
        <time>2014-10-11T14:17:48Z</time>
      </trkpt>
      <trkpt lat="59.13348" lon="17.829236">
        <ele>27.2</ele>
        <time>2014-10-11T14:17:49Z</time>
      </trkpt>
      <trkpt lat="59.133537" lon="17.82932">
        <ele>27.2</ele>
        <time>2014-10-11T14:17:50Z</time>
      </trkpt>
      <trkpt lat="59.133599" lon="17.82941">
        <ele>27.2</ele>
        <time>2014-10-11T14:17:51Z</time>
      </trkpt>
      <trkpt lat="59.133655" lon="17.829503">
        <ele>26.9</ele>
        <time>2014-10-11T14:17:52Z</time>
      </trkpt>
      <trkpt lat="59.133717" lon="17.829571">
        <ele>26.8</ele>
        <time>2014-10-11T14:17:53Z</time>
      </trkpt>
      <trkpt lat="59.133789" lon="17.829631">
        <ele>27.1</ele>
        <time>2014-10-11T14:17:54Z</time>
      </trkpt>
      <trkpt lat="59.133846" lon="17.829715">
        <ele>27</ele>
        <time>2014-10-11T14:17:55Z</time>
      </trkpt>
      <trkpt lat="59.133901" lon="17.829789">
        <ele>27</ele>
        <time>2014-10-11T14:17:56Z</time>
      </trkpt>
      <trkpt lat="59.13397" lon="17.829863">
        <ele>27.2</ele>
        <time>2014-10-11T14:17:57Z</time>
      </trkpt>
      <trkpt lat="59.134025" lon="17.829942">
        <ele>27.1</ele>
        <time>2014-10-11T14:17:58Z</time>
      </trkpt>
      <trkpt lat="59.134416" lon="17.830413">
        <ele>26.8</ele>
        <time>2014-10-11T14:18:05Z</time>
      </trkpt>
      <trkpt lat="59.134491" lon="17.830447">
        <ele>27.7</ele>
        <time>2014-10-11T14:18:06Z</time>
      </trkpt>
      <trkpt lat="59.134544" lon="17.830498">
        <ele>28.2</ele>
        <time>2014-10-11T14:18:07Z</time>
      </trkpt>
      <trkpt lat="59.134612" lon="17.830538">
        <ele>28.8</ele>
        <time>2014-10-11T14:18:08Z</time>
      </trkpt>
      <trkpt lat="59.134682" lon="17.830594">
        <ele>29.3</ele>
        <time>2014-10-11T14:18:09Z</time>
      </trkpt>
      <trkpt lat="59.13474" lon="17.830653">
        <ele>29.5</ele>
        <time>2014-10-11T14:18:10Z</time>
      </trkpt>
      <trkpt lat="59.134801" lon="17.830711">
        <ele>29.8</ele>
        <time>2014-10-11T14:18:11Z</time>
      </trkpt>
      <trkpt lat="59.134863" lon="17.830755">
        <ele>30.2</ele>
        <time>2014-10-11T14:18:12Z</time>
      </trkpt>
      <trkpt lat="59.13493" lon="17.830816">
        <ele>30.5</ele>
        <time>2014-10-11T14:18:13Z</time>
      </trkpt>
      <trkpt lat="59.13499" lon="17.830867">
        <ele>30.8</ele>
        <time>2014-10-11T14:18:14Z</time>
      </trkpt>
      <trkpt lat="59.135046" lon="17.830919">
        <ele>31</ele>
        <time>2014-10-11T14:18:15Z</time>
      </trkpt>
      <trkpt lat="59.135099" lon="17.830993">
        <ele>31</ele>
        <time>2014-10-11T14:18:16Z</time>
      </trkpt>
      <trkpt lat="59.135175" lon="17.831033">
        <ele>31.4</ele>
        <time>2014-10-11T14:18:17Z</time>
      </trkpt>
      <trkpt lat="59.135246" lon="17.831069">
        <ele>31.8</ele>
        <time>2014-10-11T14:18:18Z</time>
      </trkpt>
      <trkpt lat="59.135314" lon="17.831117">
        <ele>32</ele>
        <time>2014-10-11T14:18:19Z</time>
      </trkpt>
      <trkpt lat="59.135374" lon="17.831169">
        <ele>32.2</ele>
        <time>2014-10-11T14:18:20Z</time>
      </trkpt>
      <trkpt lat="59.1354" lon="17.831231">
        <ele>32</ele>
        <time>2014-10-11T14:18:21Z</time>
      </trkpt>
      <trkpt lat="59.135479" lon="17.831274">
        <ele>32.1</ele>
        <time>2014-10-11T14:18:22Z</time>
      </trkpt>
      <trkpt lat="59.135555" lon="17.831317">
        <ele>32.1</ele>
        <time>2014-10-11T14:18:23Z</time>
      </trkpt>
      <trkpt lat="59.135631" lon="17.831365">
        <ele>32</ele>
        <time>2014-10-11T14:18:24Z</time>
      </trkpt>
      <trkpt lat="59.135706" lon="17.831399">
        <ele>32</ele>
        <time>2014-10-11T14:18:25Z</time>
      </trkpt>
      <trkpt lat="59.135786" lon="17.831436">
        <ele>31.9</ele>
        <time>2014-10-11T14:18:26Z</time>
      </trkpt>
      <trkpt lat="59.135864" lon="17.831473">
        <ele>31.8</ele>
        <time>2014-10-11T14:18:27Z</time>
      </trkpt>
      <trkpt lat="59.135944" lon="17.831517">
        <ele>31.7</ele>
        <time>2014-10-11T14:18:28Z</time>
      </trkpt>
      <trkpt lat="59.136026" lon="17.831553">
        <ele>31.6</ele>
        <time>2014-10-11T14:18:29Z</time>
      </trkpt>
      <trkpt lat="59.136099" lon="17.831602">
        <ele>31.3</ele>
        <time>2014-10-11T14:18:30Z</time>
      </trkpt>
      <trkpt lat="59.136177" lon="17.831639">
        <ele>31.1</ele>
        <time>2014-10-11T14:18:31Z</time>
      </trkpt>
      <trkpt lat="59.136258" lon="17.831671">
        <ele>30.9</ele>
        <time>2014-10-11T14:18:32Z</time>
      </trkpt>
      <trkpt lat="59.136336" lon="17.831694">
        <ele>30.3</ele>
        <time>2014-10-11T14:18:33Z</time>
      </trkpt>
      <trkpt lat="59.136421" lon="17.831713">
        <ele>29.8</ele>
        <time>2014-10-11T14:18:34Z</time>
      </trkpt>
      <trkpt lat="59.136515" lon="17.831747">
        <ele>29</ele>
        <time>2014-10-11T14:18:35Z</time>
      </trkpt>
      <trkpt lat="59.136613" lon="17.831776">
        <ele>28.3</ele>
        <time>2014-10-11T14:18:36Z</time>
      </trkpt>
      <trkpt lat="59.136698" lon="17.831787">
        <ele>27.8</ele>
        <time>2014-10-11T14:18:37Z</time>
      </trkpt>
      <trkpt lat="59.136785" lon="17.831815">
        <ele>27.2</ele>
        <time>2014-10-11T14:18:38Z</time>
      </trkpt>
      <trkpt lat="59.136887" lon="17.831834">
        <ele>26.6</ele>
        <time>2014-10-11T14:18:39Z</time>
      </trkpt>
      <trkpt lat="59.136975" lon="17.831835">
        <ele>26.3</ele>
        <time>2014-10-11T14:18:40Z</time>
      </trkpt>
      <trkpt lat="59.137059" lon="17.831841">
        <ele>25.8</ele>
        <time>2014-10-11T14:18:41Z</time>
      </trkpt>
      <trkpt lat="59.137144" lon="17.831853">
        <ele>25.5</ele>
        <time>2014-10-11T14:18:42Z</time>
      </trkpt>
      <trkpt lat="59.137238" lon="17.831871">
        <ele>25</ele>
        <time>2014-10-11T14:18:43Z</time>
      </trkpt>
      <trkpt lat="59.137323" lon="17.831883">
        <ele>24.6</ele>
        <time>2014-10-11T14:18:44Z</time>
      </trkpt>
      <trkpt lat="59.13741" lon="17.8319">
        <ele>24.2</ele>
        <time>2014-10-11T14:18:45Z</time>
      </trkpt>
      <trkpt lat="59.137501" lon="17.831911">
        <ele>23.8</ele>
        <time>2014-10-11T14:18:46Z</time>
      </trkpt>
      <trkpt lat="59.137587" lon="17.831913">
        <ele>23.5</ele>
        <time>2014-10-11T14:18:47Z</time>
      </trkpt>
      <trkpt lat="59.137666" lon="17.83193">
        <ele>23.1</ele>
        <time>2014-10-11T14:18:48Z</time>
      </trkpt>
      <trkpt lat="59.137755" lon="17.831931">
        <ele>22.8</ele>
        <time>2014-10-11T14:18:49Z</time>
      </trkpt>
      <trkpt lat="59.137831" lon="17.831934">
        <ele>22.5</ele>
        <time>2014-10-11T14:18:50Z</time>
      </trkpt>
      <trkpt lat="59.137911" lon="17.831932">
        <ele>22.3</ele>
        <time>2014-10-11T14:18:51Z</time>
      </trkpt>
      <trkpt lat="59.137992" lon="17.831924">
        <ele>22.1</ele>
        <time>2014-10-11T14:18:52Z</time>
      </trkpt>
      <trkpt lat="59.138071" lon="17.831935">
        <ele>21.8</ele>
        <time>2014-10-11T14:18:53Z</time>
      </trkpt>
      <trkpt lat="59.13815" lon="17.831932">
        <ele>21.7</ele>
        <time>2014-10-11T14:18:54Z</time>
      </trkpt>
      <trkpt lat="59.138226" lon="17.831938">
        <ele>21.4</ele>
        <time>2014-10-11T14:18:55Z</time>
      </trkpt>
      <trkpt lat="59.138303" lon="17.831944">
        <ele>21.2</ele>
        <time>2014-10-11T14:18:56Z</time>
      </trkpt>
      <trkpt lat="59.13838" lon="17.831936">
        <ele>21</ele>
        <time>2014-10-11T14:18:57Z</time>
      </trkpt>
      <trkpt lat="59.13846" lon="17.831928">
        <ele>20.9</ele>
        <time>2014-10-11T14:18:58Z</time>
      </trkpt>
      <trkpt lat="59.13854" lon="17.831941">
        <ele>20.6</ele>
        <time>2014-10-11T14:18:59Z</time>
      </trkpt>
      <trkpt lat="59.138608" lon="17.83194">
        <ele>20.4</ele>
        <time>2014-10-11T14:19:00Z</time>
      </trkpt>
      <trkpt lat="59.138687" lon="17.831971">
        <ele>20</ele>
        <time>2014-10-11T14:19:01Z</time>
      </trkpt>
      <trkpt lat="59.138762" lon="17.831971">
        <ele>19.8</ele>
        <time>2014-10-11T14:19:02Z</time>
      </trkpt>
      <trkpt lat="59.13884" lon="17.831975">
        <ele>19.9</ele>
        <time>2014-10-11T14:19:03Z</time>
      </trkpt>
      <trkpt lat="59.138916" lon="17.831986">
        <ele>19.9</ele>
        <time>2014-10-11T14:19:04Z</time>
      </trkpt>
      <trkpt lat="59.138988" lon="17.832008">
        <ele>19.8</ele>
        <time>2014-10-11T14:19:05Z</time>
      </trkpt>
      <trkpt lat="59.139055" lon="17.832011">
        <ele>19.9</ele>
        <time>2014-10-11T14:19:06Z</time>
      </trkpt>
      <trkpt lat="59.139127" lon="17.832014">
        <ele>19.9</ele>
        <time>2014-10-11T14:19:07Z</time>
      </trkpt>
      <trkpt lat="59.139202" lon="17.831976">
        <ele>20.2</ele>
        <time>2014-10-11T14:19:08Z</time>
      </trkpt>
      <trkpt lat="59.139262" lon="17.831973">
        <ele>20.3</ele>
        <time>2014-10-11T14:19:09Z</time>
      </trkpt>
      <trkpt lat="59.139339" lon="17.83197">
        <ele>20.4</ele>
        <time>2014-10-11T14:19:10Z</time>
      </trkpt>
      <trkpt lat="59.13941" lon="17.83197">
        <ele>20.5</ele>
        <time>2014-10-11T14:19:11Z</time>
      </trkpt>
      <trkpt lat="59.139479" lon="17.831983">
        <ele>20.5</ele>
        <time>2014-10-11T14:19:12Z</time>
      </trkpt>
      <trkpt lat="59.139535" lon="17.832045">
        <ele>20.2</ele>
        <time>2014-10-11T14:19:13Z</time>
      </trkpt>
      <trkpt lat="59.139574" lon="17.832127">
        <ele>20</ele>
        <time>2014-10-11T14:19:14Z</time>
      </trkpt>
      <trkpt lat="59.139589" lon="17.832217">
        <ele>20</ele>
        <time>2014-10-11T14:19:15Z</time>
      </trkpt>
      <trkpt lat="59.139577" lon="17.83232">
        <ele>20</ele>
        <time>2014-10-11T14:19:16Z</time>
      </trkpt>
      <trkpt lat="59.139569" lon="17.832402">
        <ele>20</ele>
        <time>2014-10-11T14:19:17Z</time>
      </trkpt>
      <trkpt lat="59.139541" lon="17.832487">
        <ele>19.9</ele>
        <time>2014-10-11T14:19:18Z</time>
      </trkpt>
      <trkpt lat="59.139502" lon="17.832513">
        <ele>19.9</ele>
        <time>2014-10-11T14:19:19Z</time>
      </trkpt>
      <trkpt lat="59.139456" lon="17.832528">
        <ele>19.8</ele>
        <time>2014-10-11T14:19:20Z</time>
      </trkpt>
      <trkpt lat="59.139399" lon="17.832539">
        <ele>19.8</ele>
        <time>2014-10-11T14:19:21Z</time>
      </trkpt>
      <trkpt lat="59.139341" lon="17.832552">
        <ele>19.7</ele>
        <time>2014-10-11T14:19:22Z</time>
      </trkpt>
      <trkpt lat="59.139281" lon="17.8326">
        <ele>19.6</ele>
        <time>2014-10-11T14:19:23Z</time>
      </trkpt>
      <trkpt lat="59.139239" lon="17.832672">
        <ele>19.6</ele>
        <time>2014-10-11T14:19:24Z</time>
      </trkpt>
      <trkpt lat="59.139219" lon="17.832772">
        <ele>19.6</ele>
        <time>2014-10-11T14:19:25Z</time>
      </trkpt>
      <trkpt lat="59.139189" lon="17.832916">
        <ele>19.5</ele>
        <time>2014-10-11T14:19:26Z</time>
      </trkpt>
      <trkpt lat="59.139176" lon="17.833085">
        <ele>19.4</ele>
        <time>2014-10-11T14:19:27Z</time>
      </trkpt>
      <trkpt lat="59.139158" lon="17.833283">
        <ele>19.3</ele>
        <time>2014-10-11T14:19:28Z</time>
      </trkpt>
      <trkpt lat="59.139145" lon="17.833475">
        <ele>19.2</ele>
        <time>2014-10-11T14:19:29Z</time>
      </trkpt>
      <trkpt lat="59.139129" lon="17.833669">
        <ele>19</ele>
        <time>2014-10-11T14:19:30Z</time>
      </trkpt>
      <trkpt lat="59.139108" lon="17.833849">
        <ele>19.1</ele>
        <time>2014-10-11T14:19:31Z</time>
      </trkpt>
      <trkpt lat="59.139095" lon="17.834034">
        <ele>19.2</ele>
        <time>2014-10-11T14:19:32Z</time>
      </trkpt>
      <trkpt lat="59.139077" lon="17.834211">
        <ele>19.3</ele>
        <time>2014-10-11T14:19:33Z</time>
      </trkpt>
      <trkpt lat="59.139059" lon="17.834381">
        <ele>19.5</ele>
        <time>2014-10-11T14:19:34Z</time>
      </trkpt>
      <trkpt lat="59.139045" lon="17.834553">
        <ele>19.6</ele>
        <time>2014-10-11T14:19:35Z</time>
      </trkpt>
      <trkpt lat="59.139009" lon="17.834699">
        <ele>19.9</ele>
        <time>2014-10-11T14:19:36Z</time>
      </trkpt>
      <trkpt lat="59.138959" lon="17.834842">
        <ele>20.3</ele>
        <time>2014-10-11T14:19:37Z</time>
      </trkpt>
      <trkpt lat="59.138902" lon="17.834984">
        <ele>20.7</ele>
        <time>2014-10-11T14:19:38Z</time>
      </trkpt>
      <trkpt lat="59.138825" lon="17.8351">
        <ele>21.1</ele>
        <time>2014-10-11T14:19:39Z</time>
      </trkpt>
      <trkpt lat="59.138752" lon="17.835211">
        <ele>21.5</ele>
        <time>2014-10-11T14:19:40Z</time>
      </trkpt>
      <trkpt lat="59.138656" lon="17.835257">
        <ele>21.8</ele>
        <time>2014-10-11T14:19:41Z</time>
      </trkpt>
      <trkpt lat="59.138565" lon="17.835327">
        <ele>22</ele>
        <time>2014-10-11T14:19:42Z</time>
      </trkpt>
      <trkpt lat="59.138492" lon="17.835397">
        <ele>22.3</ele>
        <time>2014-10-11T14:19:43Z</time>
      </trkpt>
      <trkpt lat="59.138408" lon="17.835458">
        <ele>22.3</ele>
        <time>2014-10-11T14:19:44Z</time>
      </trkpt>
      <trkpt lat="59.138324" lon="17.835519">
        <ele>22.3</ele>
        <time>2014-10-11T14:19:45Z</time>
      </trkpt>
      <trkpt lat="59.138268" lon="17.835581">
        <ele>22.3</ele>
        <time>2014-10-11T14:19:46Z</time>
      </trkpt>
      <trkpt lat="59.138177" lon="17.835651">
        <ele>22.3</ele>
        <time>2014-10-11T14:19:47Z</time>
      </trkpt>
      <trkpt lat="59.138092" lon="17.835717">
        <ele>22.4</ele>
        <time>2014-10-11T14:19:48Z</time>
      </trkpt>
      <trkpt lat="59.138" lon="17.835806">
        <ele>22.4</ele>
        <time>2014-10-11T14:19:49Z</time>
      </trkpt>
      <trkpt lat="59.137916" lon="17.835862">
        <ele>22.5</ele>
        <time>2014-10-11T14:19:50Z</time>
      </trkpt>
      <trkpt lat="59.137835" lon="17.835916">
        <ele>22.4</ele>
        <time>2014-10-11T14:19:51Z</time>
      </trkpt>
      <trkpt lat="59.137743" lon="17.83599">
        <ele>22.4</ele>
        <time>2014-10-11T14:19:52Z</time>
      </trkpt>
      <trkpt lat="59.137662" lon="17.836062">
        <ele>22.3</ele>
        <time>2014-10-11T14:19:53Z</time>
      </trkpt>
      <trkpt lat="59.13759" lon="17.836142">
        <ele>22.2</ele>
        <time>2014-10-11T14:19:54Z</time>
      </trkpt>
      <trkpt lat="59.137513" lon="17.836238">
        <ele>22</ele>
        <time>2014-10-11T14:19:55Z</time>
      </trkpt>
      <trkpt lat="59.137437" lon="17.836326">
        <ele>21.8</ele>
        <time>2014-10-11T14:19:56Z</time>
      </trkpt>
      <trkpt lat="59.137378" lon="17.836405">
        <ele>21.5</ele>
        <time>2014-10-11T14:19:57Z</time>
      </trkpt>
      <trkpt lat="59.137307" lon="17.836525">
        <ele>21.1</ele>
        <time>2014-10-11T14:19:58Z</time>
      </trkpt>
      <trkpt lat="59.137243" lon="17.836628">
        <ele>20.7</ele>
        <time>2014-10-11T14:19:59Z</time>
      </trkpt>
      <trkpt lat="59.137178" lon="17.836726">
        <ele>20.4</ele>
        <time>2014-10-11T14:20:00Z</time>
      </trkpt>
      <trkpt lat="59.137124" lon="17.83684">
        <ele>19.9</ele>
        <time>2014-10-11T14:20:01Z</time>
      </trkpt>
      <trkpt lat="59.137067" lon="17.836969">
        <ele>19.4</ele>
        <time>2014-10-11T14:20:02Z</time>
      </trkpt>
      <trkpt lat="59.137015" lon="17.837095">
        <ele>18.9</ele>
        <time>2014-10-11T14:20:03Z</time>
      </trkpt>
      <trkpt lat="59.136966" lon="17.837223">
        <ele>18.7</ele>
        <time>2014-10-11T14:20:04Z</time>
      </trkpt>
      <trkpt lat="59.136918" lon="17.837373">
        <ele>18.5</ele>
        <time>2014-10-11T14:20:05Z</time>
      </trkpt>
      <trkpt lat="59.136876" lon="17.837515">
        <ele>18.4</ele>
        <time>2014-10-11T14:20:06Z</time>
      </trkpt>
      <trkpt lat="59.136837" lon="17.837668">
        <ele>18.2</ele>
        <time>2014-10-11T14:20:07Z</time>
      </trkpt>
      <trkpt lat="59.136788" lon="17.837834">
        <ele>18.1</ele>
        <time>2014-10-11T14:20:08Z</time>
      </trkpt>
      <trkpt lat="59.136742" lon="17.837982">
        <ele>17.9</ele>
        <time>2014-10-11T14:20:09Z</time>
      </trkpt>
      <trkpt lat="59.136702" lon="17.838113">
        <ele>17.8</ele>
        <time>2014-10-11T14:20:10Z</time>
      </trkpt>
      <trkpt lat="59.136659" lon="17.838252">
        <ele>17.6</ele>
        <time>2014-10-11T14:20:11Z</time>
      </trkpt>
      <trkpt lat="59.136613" lon="17.838397">
        <ele>17.4</ele>
        <time>2014-10-11T14:20:12Z</time>
      </trkpt>
      <trkpt lat="59.136573" lon="17.838541">
        <ele>17.3</ele>
        <time>2014-10-11T14:20:13Z</time>
      </trkpt>
      <trkpt lat="59.13653" lon="17.838678">
        <ele>17.1</ele>
        <time>2014-10-11T14:20:14Z</time>
      </trkpt>
      <trkpt lat="59.136489" lon="17.838819">
        <ele>17.1</ele>
        <time>2014-10-11T14:20:15Z</time>
      </trkpt>
      <trkpt lat="59.136448" lon="17.838955">
        <ele>17.2</ele>
        <time>2014-10-11T14:20:16Z</time>
      </trkpt>
      <trkpt lat="59.136398" lon="17.839098">
        <ele>17.4</ele>
        <time>2014-10-11T14:20:17Z</time>
      </trkpt>
      <trkpt lat="59.136355" lon="17.839225">
        <ele>17.6</ele>
        <time>2014-10-11T14:20:18Z</time>
      </trkpt>
      <trkpt lat="59.136313" lon="17.839351">
        <ele>17.7</ele>
        <time>2014-10-11T14:20:19Z</time>
      </trkpt>
      <trkpt lat="59.136271" lon="17.839459">
        <ele>17.9</ele>
        <time>2014-10-11T14:20:20Z</time>
      </trkpt>
      <trkpt lat="59.136223" lon="17.839589">
        <ele>18</ele>
        <time>2014-10-11T14:20:21Z</time>
      </trkpt>
      <trkpt lat="59.136185" lon="17.839707">
        <ele>18.4</ele>
        <time>2014-10-11T14:20:22Z</time>
      </trkpt>
      <trkpt lat="59.136138" lon="17.83983">
        <ele>18.8</ele>
        <time>2014-10-11T14:20:23Z</time>
      </trkpt>
      <trkpt lat="59.136102" lon="17.839918">
        <ele>19.1</ele>
        <time>2014-10-11T14:20:24Z</time>
      </trkpt>
      <trkpt lat="59.136055" lon="17.840035">
        <ele>19.4</ele>
        <time>2014-10-11T14:20:25Z</time>
      </trkpt>
      <trkpt lat="59.136011" lon="17.840119">
        <ele>19.8</ele>
        <time>2014-10-11T14:20:26Z</time>
      </trkpt>
      <trkpt lat="59.135971" lon="17.840198">
        <ele>20.1</ele>
        <time>2014-10-11T14:20:27Z</time>
      </trkpt>
      <trkpt lat="59.135927" lon="17.840301">
        <ele>20.4</ele>
        <time>2014-10-11T14:20:28Z</time>
      </trkpt>
      <trkpt lat="59.135882" lon="17.840396">
        <ele>20.8</ele>
        <time>2014-10-11T14:20:29Z</time>
      </trkpt>
      <trkpt lat="59.13584" lon="17.840474">
        <ele>21.1</ele>
        <time>2014-10-11T14:20:30Z</time>
      </trkpt>
      <trkpt lat="59.135796" lon="17.840554">
        <ele>21.3</ele>
        <time>2014-10-11T14:20:31Z</time>
      </trkpt>
      <trkpt lat="59.135747" lon="17.840625">
        <ele>21.5</ele>
        <time>2014-10-11T14:20:32Z</time>
      </trkpt>
      <trkpt lat="59.135695" lon="17.840727">
        <ele>21.7</ele>
        <time>2014-10-11T14:20:33Z</time>
      </trkpt>
      <trkpt lat="59.135639" lon="17.84081">
        <ele>21.9</ele>
        <time>2014-10-11T14:20:34Z</time>
      </trkpt>
      <trkpt lat="59.135594" lon="17.840894">
        <ele>22.1</ele>
        <time>2014-10-11T14:20:35Z</time>
      </trkpt>
      <trkpt lat="59.135552" lon="17.840961">
        <ele>22.3</ele>
        <time>2014-10-11T14:20:36Z</time>
      </trkpt>
      <trkpt lat="59.135508" lon="17.841036">
        <ele>22.5</ele>
        <time>2014-10-11T14:20:37Z</time>
      </trkpt>
      <trkpt lat="59.135475" lon="17.841119">
        <ele>22.7</ele>
        <time>2014-10-11T14:20:38Z</time>
      </trkpt>
      <trkpt lat="59.135428" lon="17.841185">
        <ele>22.9</ele>
        <time>2014-10-11T14:20:39Z</time>
      </trkpt>
      <trkpt lat="59.135386" lon="17.841242">
        <ele>23</ele>
        <time>2014-10-11T14:20:40Z</time>
      </trkpt>
      <trkpt lat="59.135353" lon="17.841305">
        <ele>23.1</ele>
        <time>2014-10-11T14:20:41Z</time>
      </trkpt>
      <trkpt lat="59.135317" lon="17.841352">
        <ele>23.3</ele>
        <time>2014-10-11T14:20:42Z</time>
      </trkpt>
      <trkpt lat="59.135279" lon="17.841404">
        <ele>23.4</ele>
        <time>2014-10-11T14:20:43Z</time>
      </trkpt>
      <trkpt lat="59.135243" lon="17.841447">
        <ele>23.5</ele>
        <time>2014-10-11T14:20:44Z</time>
      </trkpt>
      <trkpt lat="59.135212" lon="17.841507">
        <ele>23.6</ele>
        <time>2014-10-11T14:20:45Z</time>
      </trkpt>
      <trkpt lat="59.135178" lon="17.841553">
        <ele>23.8</ele>
        <time>2014-10-11T14:20:46Z</time>
      </trkpt>
      <trkpt lat="59.135144" lon="17.841605">
        <ele>23.9</ele>
        <time>2014-10-11T14:20:47Z</time>
      </trkpt>
      <trkpt lat="59.135109" lon="17.841663">
        <ele>24</ele>
        <time>2014-10-11T14:20:48Z</time>
      </trkpt>
      <trkpt lat="59.135076" lon="17.84171">
        <ele>24.2</ele>
        <time>2014-10-11T14:20:49Z</time>
      </trkpt>
      <trkpt lat="59.135041" lon="17.841775">
        <ele>24.4</ele>
        <time>2014-10-11T14:20:50Z</time>
      </trkpt>
      <trkpt lat="59.135005" lon="17.841824">
        <ele>24.5</ele>
        <time>2014-10-11T14:20:51Z</time>
      </trkpt>
      <trkpt lat="59.134973" lon="17.841873">
        <ele>24.7</ele>
        <time>2014-10-11T14:20:52Z</time>
      </trkpt>
      <trkpt lat="59.134946" lon="17.84192">
        <ele>24.8</ele>
        <time>2014-10-11T14:20:53Z</time>
      </trkpt>
      <trkpt lat="59.134912" lon="17.841972">
        <ele>25</ele>
        <time>2014-10-11T14:20:54Z</time>
      </trkpt>
      <trkpt lat="59.134872" lon="17.842032">
        <ele>25.2</ele>
        <time>2014-10-11T14:20:55Z</time>
      </trkpt>
      <trkpt lat="59.134851" lon="17.842069">
        <ele>25.3</ele>
        <time>2014-10-11T14:20:56Z</time>
      </trkpt>
      <trkpt lat="59.134819" lon="17.84214">
        <ele>25.6</ele>
        <time>2014-10-11T14:20:57Z</time>
      </trkpt>
      <trkpt lat="59.134787" lon="17.842188">
        <ele>25.8</ele>
        <time>2014-10-11T14:20:58Z</time>
      </trkpt>
      <trkpt lat="59.134751" lon="17.842248">
        <ele>26.1</ele>
        <time>2014-10-11T14:20:59Z</time>
      </trkpt>
      <trkpt lat="59.13472" lon="17.842314">
        <ele>26.4</ele>
        <time>2014-10-11T14:21:00Z</time>
      </trkpt>
      <trkpt lat="59.134688" lon="17.842366">
        <ele>26.7</ele>
        <time>2014-10-11T14:21:01Z</time>
      </trkpt>
      <trkpt lat="59.134655" lon="17.842418">
        <ele>27</ele>
        <time>2014-10-11T14:21:02Z</time>
      </trkpt>
      <trkpt lat="59.13462" lon="17.842473">
        <ele>27.3</ele>
        <time>2014-10-11T14:21:03Z</time>
      </trkpt>
      <trkpt lat="59.134588" lon="17.842526">
        <ele>27.6</ele>
        <time>2014-10-11T14:21:04Z</time>
      </trkpt>
      <trkpt lat="59.134555" lon="17.842581">
        <ele>27.9</ele>
        <time>2014-10-11T14:21:05Z</time>
      </trkpt>
      <trkpt lat="59.134523" lon="17.842631">
        <ele>28.2</ele>
        <time>2014-10-11T14:21:06Z</time>
      </trkpt>
      <trkpt lat="59.134488" lon="17.842681">
        <ele>28.5</ele>
        <time>2014-10-11T14:21:07Z</time>
      </trkpt>
      <trkpt lat="59.134453" lon="17.842729">
        <ele>28.8</ele>
        <time>2014-10-11T14:21:08Z</time>
      </trkpt>
      <trkpt lat="59.13442" lon="17.842779">
        <ele>29.1</ele>
        <time>2014-10-11T14:21:09Z</time>
      </trkpt>
      <trkpt lat="59.134386" lon="17.842829">
        <ele>29.4</ele>
        <time>2014-10-11T14:21:10Z</time>
      </trkpt>
      <trkpt lat="59.134352" lon="17.842878">
        <ele>29.7</ele>
        <time>2014-10-11T14:21:11Z</time>
      </trkpt>
      <trkpt lat="59.134317" lon="17.842926">
        <ele>30</ele>
        <time>2014-10-11T14:21:12Z</time>
      </trkpt>
      <trkpt lat="59.13428" lon="17.842974">
        <ele>30.4</ele>
        <time>2014-10-11T14:21:13Z</time>
      </trkpt>
      <trkpt lat="59.134243" lon="17.84302">
        <ele>30.7</ele>
        <time>2014-10-11T14:21:14Z</time>
      </trkpt>
      <trkpt lat="59.134208" lon="17.843068">
        <ele>31.1</ele>
        <time>2014-10-11T14:21:15Z</time>
      </trkpt>
      <trkpt lat="59.134169" lon="17.843118">
        <ele>31.5</ele>
        <time>2014-10-11T14:21:16Z</time>
      </trkpt>
      <trkpt lat="59.134135" lon="17.843156">
        <ele>31.8</ele>
        <time>2014-10-11T14:21:17Z</time>
      </trkpt>
      <trkpt lat="59.134098" lon="17.843191">
        <ele>32.1</ele>
        <time>2014-10-11T14:21:18Z</time>
      </trkpt>
      <trkpt lat="59.134061" lon="17.843223">
        <ele>32.4</ele>
        <time>2014-10-11T14:21:19Z</time>
      </trkpt>
      <trkpt lat="59.134024" lon="17.843252">
        <ele>32.6</ele>
        <time>2014-10-11T14:21:20Z</time>
      </trkpt>
      <trkpt lat="59.133988" lon="17.843271">
        <ele>32.8</ele>
        <time>2014-10-11T14:21:21Z</time>
      </trkpt>
      <trkpt lat="59.133951" lon="17.843283">
        <ele>33</ele>
        <time>2014-10-11T14:21:22Z</time>
      </trkpt>
      <trkpt lat="59.133914" lon="17.843296">
        <ele>33.2</ele>
        <time>2014-10-11T14:21:23Z</time>
      </trkpt>
      <trkpt lat="59.133877" lon="17.843305">
        <ele>33.4</ele>
        <time>2014-10-11T14:21:24Z</time>
      </trkpt>
      <trkpt lat="59.133838" lon="17.843312">
        <ele>33.6</ele>
        <time>2014-10-11T14:21:25Z</time>
      </trkpt>
      <trkpt lat="59.133801" lon="17.843319">
        <ele>33.7</ele>
        <time>2014-10-11T14:21:26Z</time>
      </trkpt>
      <trkpt lat="59.133765" lon="17.843328">
        <ele>33.9</ele>
        <time>2014-10-11T14:21:27Z</time>
      </trkpt>
      <trkpt lat="59.133729" lon="17.84334">
        <ele>34.1</ele>
        <time>2014-10-11T14:21:28Z</time>
      </trkpt>
      <trkpt lat="59.133694" lon="17.843353">
        <ele>34.2</ele>
        <time>2014-10-11T14:21:29Z</time>
      </trkpt>
      <trkpt lat="59.133658" lon="17.843363">
        <ele>34.4</ele>
        <time>2014-10-11T14:21:30Z</time>
      </trkpt>
      <trkpt lat="59.133621" lon="17.843368">
        <ele>34.5</ele>
        <time>2014-10-11T14:21:31Z</time>
      </trkpt>
      <trkpt lat="59.133581" lon="17.843372">
        <ele>34.6</ele>
        <time>2014-10-11T14:21:32Z</time>
      </trkpt>
      <trkpt lat="59.133545" lon="17.843375">
        <ele>34.7</ele>
        <time>2014-10-11T14:21:33Z</time>
      </trkpt>
      <trkpt lat="59.133507" lon="17.84338">
        <ele>34.8</ele>
        <time>2014-10-11T14:21:34Z</time>
      </trkpt>
      <trkpt lat="59.13347" lon="17.843386">
        <ele>34.9</ele>
        <time>2014-10-11T14:21:35Z</time>
      </trkpt>
      <trkpt lat="59.133432" lon="17.843396">
        <ele>35</ele>
        <time>2014-10-11T14:21:36Z</time>
      </trkpt>
      <trkpt lat="59.133394" lon="17.84341">
        <ele>35.1</ele>
        <time>2014-10-11T14:21:37Z</time>
      </trkpt>
      <trkpt lat="59.13336" lon="17.843424">
        <ele>35.3</ele>
        <time>2014-10-11T14:21:38Z</time>
      </trkpt>
      <trkpt lat="59.133325" lon="17.843441">
        <ele>35.4</ele>
        <time>2014-10-11T14:21:39Z</time>
      </trkpt>
      <trkpt lat="59.133293" lon="17.843463">
        <ele>35.5</ele>
        <time>2014-10-11T14:21:40Z</time>
      </trkpt>
      <trkpt lat="59.133257" lon="17.843494">
        <ele>35.7</ele>
        <time>2014-10-11T14:21:41Z</time>
      </trkpt>
      <trkpt lat="59.133224" lon="17.843524">
        <ele>35.9</ele>
        <time>2014-10-11T14:21:42Z</time>
      </trkpt>
      <trkpt lat="59.133185" lon="17.843549">
        <ele>36</ele>
        <time>2014-10-11T14:21:43Z</time>
      </trkpt>
      <trkpt lat="59.133146" lon="17.843564">
        <ele>36.2</ele>
        <time>2014-10-11T14:21:44Z</time>
      </trkpt>
      <trkpt lat="59.133104" lon="17.843582">
        <ele>36.3</ele>
        <time>2014-10-11T14:21:45Z</time>
      </trkpt>
      <trkpt lat="59.133064" lon="17.843607">
        <ele>36.4</ele>
        <time>2014-10-11T14:21:46Z</time>
      </trkpt>
      <trkpt lat="59.133013" lon="17.843663">
        <ele>36.7</ele>
        <time>2014-10-11T14:21:47Z</time>
      </trkpt>
      <trkpt lat="59.132975" lon="17.843712">
        <ele>36.8</ele>
        <time>2014-10-11T14:21:48Z</time>
      </trkpt>
      <trkpt lat="59.132937" lon="17.843744">
        <ele>37</ele>
        <time>2014-10-11T14:21:49Z</time>
      </trkpt>
      <trkpt lat="59.132898" lon="17.84379">
        <ele>37.3</ele>
        <time>2014-10-11T14:21:50Z</time>
      </trkpt>
      <trkpt lat="59.132861" lon="17.843831">
        <ele>37.6</ele>
        <time>2014-10-11T14:21:51Z</time>
      </trkpt>
      <trkpt lat="59.132824" lon="17.843862">
        <ele>38</ele>
        <time>2014-10-11T14:21:52Z</time>
      </trkpt>
      <trkpt lat="59.132776" lon="17.843904">
        <ele>38.5</ele>
        <time>2014-10-11T14:21:53Z</time>
      </trkpt>
      <trkpt lat="59.132737" lon="17.843943">
        <ele>38.9</ele>
        <time>2014-10-11T14:21:54Z</time>
      </trkpt>
      <trkpt lat="59.132689" lon="17.843986">
        <ele>39.4</ele>
        <time>2014-10-11T14:21:55Z</time>
      </trkpt>
      <trkpt lat="59.132649" lon="17.844037">
        <ele>39.9</ele>
        <time>2014-10-11T14:21:56Z</time>
      </trkpt>
      <trkpt lat="59.132595" lon="17.84408">
        <ele>40.4</ele>
        <time>2014-10-11T14:21:57Z</time>
      </trkpt>
      <trkpt lat="59.132555" lon="17.844117">
        <ele>40.9</ele>
        <time>2014-10-11T14:21:58Z</time>
      </trkpt>
      <trkpt lat="59.132512" lon="17.844172">
        <ele>41.4</ele>
        <time>2014-10-11T14:21:59Z</time>
      </trkpt>
      <trkpt lat="59.132473" lon="17.844197">
        <ele>41.8</ele>
        <time>2014-10-11T14:22:00Z</time>
      </trkpt>
      <trkpt lat="59.132432" lon="17.844224">
        <ele>42.3</ele>
        <time>2014-10-11T14:22:01Z</time>
      </trkpt>
      <trkpt lat="59.132385" lon="17.844238">
        <ele>42.7</ele>
        <time>2014-10-11T14:22:02Z</time>
      </trkpt>
      <trkpt lat="59.132339" lon="17.844245">
        <ele>43.1</ele>
        <time>2014-10-11T14:22:03Z</time>
      </trkpt>
      <trkpt lat="59.132293" lon="17.844265">
        <ele>43.5</ele>
        <time>2014-10-11T14:22:04Z</time>
      </trkpt>
      <trkpt lat="59.132246" lon="17.844277">
        <ele>43.9</ele>
        <time>2014-10-11T14:22:05Z</time>
      </trkpt>
      <trkpt lat="59.132206" lon="17.844286">
        <ele>44.3</ele>
        <time>2014-10-11T14:22:06Z</time>
      </trkpt>
      <trkpt lat="59.132166" lon="17.844275">
        <ele>44.5</ele>
        <time>2014-10-11T14:22:07Z</time>
      </trkpt>
      <trkpt lat="59.132118" lon="17.844259">
        <ele>44.8</ele>
        <time>2014-10-11T14:22:08Z</time>
      </trkpt>
      <trkpt lat="59.13208" lon="17.844241">
        <ele>45</ele>
        <time>2014-10-11T14:22:09Z</time>
      </trkpt>
      <trkpt lat="59.132041" lon="17.844232">
        <ele>45.7</ele>
        <time>2014-10-11T14:22:10Z</time>
      </trkpt>
      <trkpt lat="59.132001" lon="17.844221">
        <ele>46.3</ele>
        <time>2014-10-11T14:22:11Z</time>
      </trkpt>
      <trkpt lat="59.131963" lon="17.844225">
        <ele>47</ele>
        <time>2014-10-11T14:22:12Z</time>
      </trkpt>
      <trkpt lat="59.131926" lon="17.844213">
        <ele>47.6</ele>
        <time>2014-10-11T14:22:13Z</time>
      </trkpt>
      <trkpt lat="59.131891" lon="17.844193">
        <ele>48.1</ele>
        <time>2014-10-11T14:22:14Z</time>
      </trkpt>
      <trkpt lat="59.131853" lon="17.844165">
        <ele>48.6</ele>
        <time>2014-10-11T14:22:15Z</time>
      </trkpt>
      <trkpt lat="59.131813" lon="17.844146">
        <ele>49.2</ele>
        <time>2014-10-11T14:22:16Z</time>
      </trkpt>
      <trkpt lat="59.131775" lon="17.844116">
        <ele>49.7</ele>
        <time>2014-10-11T14:22:17Z</time>
      </trkpt>
      <trkpt lat="59.131741" lon="17.84409">
        <ele>50.1</ele>
        <time>2014-10-11T14:22:18Z</time>
      </trkpt>
      <trkpt lat="59.131706" lon="17.844062">
        <ele>50.6</ele>
        <time>2014-10-11T14:22:19Z</time>
      </trkpt>
      <trkpt lat="59.13167" lon="17.844035">
        <ele>51</ele>
        <time>2014-10-11T14:22:20Z</time>
      </trkpt>
      <trkpt lat="59.131633" lon="17.84401">
        <ele>51.5</ele>
        <time>2014-10-11T14:22:21Z</time>
      </trkpt>
      <trkpt lat="59.131598" lon="17.843988">
        <ele>51.9</ele>
        <time>2014-10-11T14:22:22Z</time>
      </trkpt>
      <trkpt lat="59.131563" lon="17.843962">
        <ele>52.3</ele>
        <time>2014-10-11T14:22:23Z</time>
      </trkpt>
      <trkpt lat="59.131529" lon="17.843938">
        <ele>52.7</ele>
        <time>2014-10-11T14:22:24Z</time>
      </trkpt>
      <trkpt lat="59.131494" lon="17.843915">
        <ele>53.2</ele>
        <time>2014-10-11T14:22:25Z</time>
      </trkpt>
      <trkpt lat="59.131459" lon="17.843895">
        <ele>53.6</ele>
        <time>2014-10-11T14:22:26Z</time>
      </trkpt>
      <trkpt lat="59.131424" lon="17.843877">
        <ele>54.1</ele>
        <time>2014-10-11T14:22:27Z</time>
      </trkpt>
      <trkpt lat="59.131388" lon="17.843856">
        <ele>54.5</ele>
        <time>2014-10-11T14:22:28Z</time>
      </trkpt>
      <trkpt lat="59.131351" lon="17.843834">
        <ele>55</ele>
        <time>2014-10-11T14:22:29Z</time>
      </trkpt>
      <trkpt lat="59.131314" lon="17.843813">
        <ele>55.4</ele>
        <time>2014-10-11T14:22:30Z</time>
      </trkpt>
      <trkpt lat="59.131277" lon="17.843797">
        <ele>55.9</ele>
        <time>2014-10-11T14:22:31Z</time>
      </trkpt>
      <trkpt lat="59.131239" lon="17.843783">
        <ele>56.5</ele>
        <time>2014-10-11T14:22:32Z</time>
      </trkpt>
      <trkpt lat="59.1312" lon="17.843771">
        <ele>57.1</ele>
        <time>2014-10-11T14:22:33Z</time>
      </trkpt>
      <trkpt lat="59.131162" lon="17.84376">
        <ele>57.7</ele>
        <time>2014-10-11T14:22:34Z</time>
      </trkpt>
      <trkpt lat="59.131123" lon="17.843753">
        <ele>58.3</ele>
        <time>2014-10-11T14:22:35Z</time>
      </trkpt>
      <trkpt lat="59.131082" lon="17.843752">
        <ele>59</ele>
        <time>2014-10-11T14:22:36Z</time>
      </trkpt>
      <trkpt lat="59.131047" lon="17.843753">
        <ele>59.7</ele>
        <time>2014-10-11T14:22:37Z</time>
      </trkpt>
      <trkpt lat="59.131008" lon="17.843755">
        <ele>60.4</ele>
        <time>2014-10-11T14:22:38Z</time>
      </trkpt>
      <trkpt lat="59.130969" lon="17.843758">
        <ele>61.1</ele>
        <time>2014-10-11T14:22:39Z</time>
      </trkpt>
      <trkpt lat="59.130929" lon="17.843762">
        <ele>61.8</ele>
        <time>2014-10-11T14:22:40Z</time>
      </trkpt>
      <trkpt lat="59.13089" lon="17.843766">
        <ele>62.6</ele>
        <time>2014-10-11T14:22:41Z</time>
      </trkpt>
      <trkpt lat="59.130852" lon="17.843775">
        <ele>63.3</ele>
        <time>2014-10-11T14:22:42Z</time>
      </trkpt>
      <trkpt lat="59.130814" lon="17.843788">
        <ele>64</ele>
        <time>2014-10-11T14:22:43Z</time>
      </trkpt>
      <trkpt lat="59.130776" lon="17.843807">
        <ele>64.8</ele>
        <time>2014-10-11T14:22:44Z</time>
      </trkpt>
      <trkpt lat="59.130738" lon="17.843833">
        <ele>65.5</ele>
        <time>2014-10-11T14:22:45Z</time>
      </trkpt>
      <trkpt lat="59.1307" lon="17.843862">
        <ele>66.3</ele>
        <time>2014-10-11T14:22:46Z</time>
      </trkpt>
      <trkpt lat="59.130664" lon="17.843896">
        <ele>67</ele>
        <time>2014-10-11T14:22:47Z</time>
      </trkpt>
      <trkpt lat="59.130628" lon="17.843926">
        <ele>67.7</ele>
        <time>2014-10-11T14:22:48Z</time>
      </trkpt>
      <trkpt lat="59.130585" lon="17.843966">
        <ele>68.5</ele>
        <time>2014-10-11T14:22:49Z</time>
      </trkpt>
      <trkpt lat="59.130547" lon="17.843997">
        <ele>69.2</ele>
        <time>2014-10-11T14:22:50Z</time>
      </trkpt>
      <trkpt lat="59.130508" lon="17.844027">
        <ele>69.9</ele>
        <time>2014-10-11T14:22:51Z</time>
      </trkpt>
      <trkpt lat="59.130467" lon="17.844058">
        <ele>70.6</ele>
        <time>2014-10-11T14:22:52Z</time>
      </trkpt>
      <trkpt lat="59.130426" lon="17.844089">
        <ele>71.3</ele>
        <time>2014-10-11T14:22:53Z</time>
      </trkpt>
      <trkpt lat="59.130385" lon="17.844115">
        <ele>71.7</ele>
        <time>2014-10-11T14:22:54Z</time>
      </trkpt>
      <trkpt lat="59.130344" lon="17.844142">
        <ele>72.1</ele>
        <time>2014-10-11T14:22:55Z</time>
      </trkpt>
      <trkpt lat="59.130306" lon="17.844169">
        <ele>72.4</ele>
        <time>2014-10-11T14:22:56Z</time>
      </trkpt>
      <trkpt lat="59.13026" lon="17.844196">
        <ele>72.8</ele>
        <time>2014-10-11T14:22:57Z</time>
      </trkpt>
      <trkpt lat="59.130221" lon="17.844227">
        <ele>73.2</ele>
        <time>2014-10-11T14:22:58Z</time>
      </trkpt>
      <trkpt lat="59.129942" lon="17.844469">
        <ele>75.4</ele>
        <time>2014-10-11T14:23:05Z</time>
      </trkpt>
      <trkpt lat="59.12991" lon="17.844487">
        <ele>75.7</ele>
        <time>2014-10-11T14:23:06Z</time>
      </trkpt>
      <trkpt lat="59.129861" lon="17.844513">
        <ele>76</ele>
        <time>2014-10-11T14:23:07Z</time>
      </trkpt>
      <trkpt lat="59.129815" lon="17.844538">
        <ele>76.4</ele>
        <time>2014-10-11T14:23:08Z</time>
      </trkpt>
      <trkpt lat="59.129772" lon="17.844558">
        <ele>76.7</ele>
        <time>2014-10-11T14:23:09Z</time>
      </trkpt>
      <trkpt lat="59.129727" lon="17.844575">
        <ele>77</ele>
        <time>2014-10-11T14:23:10Z</time>
      </trkpt>
      <trkpt lat="59.129683" lon="17.844591">
        <ele>77.3</ele>
        <time>2014-10-11T14:23:11Z</time>
      </trkpt>
      <trkpt lat="59.129638" lon="17.844607">
        <ele>77.6</ele>
        <time>2014-10-11T14:23:12Z</time>
      </trkpt>
      <trkpt lat="59.129591" lon="17.844622">
        <ele>77.9</ele>
        <time>2014-10-11T14:23:13Z</time>
      </trkpt>
      <trkpt lat="59.129547" lon="17.844631">
        <ele>78</ele>
        <time>2014-10-11T14:23:14Z</time>
      </trkpt>
      <trkpt lat="59.129474" lon="17.844623">
        <ele>78.2</ele>
        <time>2014-10-11T14:23:15Z</time>
      </trkpt>
      <trkpt lat="59.129435" lon="17.844635">
        <ele>78.3</ele>
        <time>2014-10-11T14:23:16Z</time>
      </trkpt>
      <trkpt lat="59.129396" lon="17.844632">
        <ele>78.4</ele>
        <time>2014-10-11T14:23:17Z</time>
      </trkpt>
      <trkpt lat="59.129354" lon="17.844648">
        <ele>78.4</ele>
        <time>2014-10-11T14:23:18Z</time>
      </trkpt>
      <trkpt lat="59.129317" lon="17.844657">
        <ele>78.5</ele>
        <time>2014-10-11T14:23:19Z</time>
      </trkpt>
      <trkpt lat="59.129271" lon="17.844669">
        <ele>78.6</ele>
        <time>2014-10-11T14:23:20Z</time>
      </trkpt>
      <trkpt lat="59.129223" lon="17.844671">
        <ele>78.7</ele>
        <time>2014-10-11T14:23:21Z</time>
      </trkpt>
      <trkpt lat="59.129181" lon="17.844676">
        <ele>78.9</ele>
        <time>2014-10-11T14:23:22Z</time>
      </trkpt>
      <trkpt lat="59.129139" lon="17.844692">
        <ele>78.9</ele>
        <time>2014-10-11T14:23:23Z</time>
      </trkpt>
      <trkpt lat="59.12909" lon="17.844693">
        <ele>79.1</ele>
        <time>2014-10-11T14:23:24Z</time>
      </trkpt>
      <trkpt lat="59.12905" lon="17.844708">
        <ele>79.2</ele>
        <time>2014-10-11T14:23:25Z</time>
      </trkpt>
      <trkpt lat="59.129006" lon="17.844717">
        <ele>79.3</ele>
        <time>2014-10-11T14:23:26Z</time>
      </trkpt>
      <trkpt lat="59.128968" lon="17.844724">
        <ele>79.4</ele>
        <time>2014-10-11T14:23:27Z</time>
      </trkpt>
      <trkpt lat="59.128928" lon="17.844725">
        <ele>79.5</ele>
        <time>2014-10-11T14:23:28Z</time>
      </trkpt>
      <trkpt lat="59.128892" lon="17.844728">
        <ele>79.6</ele>
        <time>2014-10-11T14:23:29Z</time>
      </trkpt>
      <trkpt lat="59.128857" lon="17.84473">
        <ele>79.7</ele>
        <time>2014-10-11T14:23:30Z</time>
      </trkpt>
      <trkpt lat="59.128816" lon="17.844734">
        <ele>79.8</ele>
        <time>2014-10-11T14:23:31Z</time>
      </trkpt>
      <trkpt lat="59.12878" lon="17.844738">
        <ele>79.9</ele>
        <time>2014-10-11T14:23:32Z</time>
      </trkpt>
      <trkpt lat="59.128743" lon="17.844744">
        <ele>80</ele>
        <time>2014-10-11T14:23:33Z</time>
      </trkpt>
      <trkpt lat="59.128702" lon="17.844751">
        <ele>80</ele>
        <time>2014-10-11T14:23:34Z</time>
      </trkpt>
      <trkpt lat="59.128665" lon="17.844755">
        <ele>79.9</ele>
        <time>2014-10-11T14:23:35Z</time>
      </trkpt>
      <trkpt lat="59.128626" lon="17.844761">
        <ele>79.9</ele>
        <time>2014-10-11T14:23:36Z</time>
      </trkpt>
      <trkpt lat="59.128586" lon="17.844768">
        <ele>79.9</ele>
        <time>2014-10-11T14:23:37Z</time>
      </trkpt>
      <trkpt lat="59.128551" lon="17.844775">
        <ele>79.9</ele>
        <time>2014-10-11T14:23:38Z</time>
      </trkpt>
      <trkpt lat="59.128519" lon="17.844777">
        <ele>79.9</ele>
        <time>2014-10-11T14:23:39Z</time>
      </trkpt>
      <trkpt lat="59.128485" lon="17.844774">
        <ele>79.8</ele>
        <time>2014-10-11T14:23:40Z</time>
      </trkpt>
      <trkpt lat="59.128453" lon="17.84477">
        <ele>79.8</ele>
        <time>2014-10-11T14:23:41Z</time>
      </trkpt>
      <trkpt lat="59.128411" lon="17.844762">
        <ele>79.8</ele>
        <time>2014-10-11T14:23:42Z</time>
      </trkpt>
      <trkpt lat="59.128377" lon="17.844752">
        <ele>79.7</ele>
        <time>2014-10-11T14:23:43Z</time>
      </trkpt>
      <trkpt lat="59.128338" lon="17.844735">
        <ele>79.7</ele>
        <time>2014-10-11T14:23:44Z</time>
      </trkpt>
      <trkpt lat="59.128303" lon="17.844719">
        <ele>79.6</ele>
        <time>2014-10-11T14:23:45Z</time>
      </trkpt>
      <trkpt lat="59.128271" lon="17.844688">
        <ele>79.6</ele>
        <time>2014-10-11T14:23:46Z</time>
      </trkpt>
      <trkpt lat="59.128234" lon="17.844646">
        <ele>79.5</ele>
        <time>2014-10-11T14:23:47Z</time>
      </trkpt>
      <trkpt lat="59.128202" lon="17.844595">
        <ele>79.4</ele>
        <time>2014-10-11T14:23:48Z</time>
      </trkpt>
      <trkpt lat="59.128142" lon="17.844477">
        <ele>79.2</ele>
        <time>2014-10-11T14:23:49Z</time>
      </trkpt>
      <trkpt lat="59.128105" lon="17.844381">
        <ele>79</ele>
        <time>2014-10-11T14:23:50Z</time>
      </trkpt>
      <trkpt lat="59.12807" lon="17.844282">
        <ele>78.9</ele>
        <time>2014-10-11T14:23:51Z</time>
      </trkpt>
      <trkpt lat="59.128037" lon="17.84418">
        <ele>78.7</ele>
        <time>2014-10-11T14:23:52Z</time>
      </trkpt>
      <trkpt lat="59.128012" lon="17.844058">
        <ele>78.6</ele>
        <time>2014-10-11T14:23:53Z</time>
      </trkpt>
      <trkpt lat="59.127987" lon="17.843942">
        <ele>78.4</ele>
        <time>2014-10-11T14:23:54Z</time>
      </trkpt>
      <trkpt lat="59.127955" lon="17.843826">
        <ele>78.2</ele>
        <time>2014-10-11T14:23:55Z</time>
      </trkpt>
      <trkpt lat="59.127934" lon="17.843702">
        <ele>77.9</ele>
        <time>2014-10-11T14:23:56Z</time>
      </trkpt>
      <trkpt lat="59.127909" lon="17.84358">
        <ele>77.4</ele>
        <time>2014-10-11T14:23:57Z</time>
      </trkpt>
      <trkpt lat="59.127885" lon="17.843438">
        <ele>76.9</ele>
        <time>2014-10-11T14:23:58Z</time>
      </trkpt>
      <trkpt lat="59.127864" lon="17.843315">
        <ele>76.6</ele>
        <time>2014-10-11T14:23:59Z</time>
      </trkpt>
      <trkpt lat="59.12784" lon="17.843174">
        <ele>76.1</ele>
        <time>2014-10-11T14:24:00Z</time>
      </trkpt>
      <trkpt lat="59.127811" lon="17.843038">
        <ele>75.8</ele>
        <time>2014-10-11T14:24:01Z</time>
      </trkpt>
      <trkpt lat="59.127789" lon="17.842916">
        <ele>75.5</ele>
        <time>2014-10-11T14:24:02Z</time>
      </trkpt>
      <trkpt lat="59.127745" lon="17.842792">
        <ele>75.3</ele>
        <time>2014-10-11T14:24:03Z</time>
      </trkpt>
      <trkpt lat="59.127708" lon="17.842672">
        <ele>75.2</ele>
        <time>2014-10-11T14:24:04Z</time>
      </trkpt>
      <trkpt lat="59.127669" lon="17.842568">
        <ele>75.2</ele>
        <time>2014-10-11T14:24:05Z</time>
      </trkpt>
      <trkpt lat="59.127618" lon="17.842475">
        <ele>75.2</ele>
        <time>2014-10-11T14:24:06Z</time>
      </trkpt>
      <trkpt lat="59.12756" lon="17.842387">
        <ele>75.3</ele>
        <time>2014-10-11T14:24:07Z</time>
      </trkpt>
      <trkpt lat="59.1275" lon="17.842296">
        <ele>75.4</ele>
        <time>2014-10-11T14:24:08Z</time>
      </trkpt>
      <trkpt lat="59.127436" lon="17.842231">
        <ele>75.6</ele>
        <time>2014-10-11T14:24:09Z</time>
      </trkpt>
      <trkpt lat="59.12737" lon="17.842197">
        <ele>75.8</ele>
        <time>2014-10-11T14:24:10Z</time>
      </trkpt>
      <trkpt lat="59.127314" lon="17.842165">
        <ele>76</ele>
        <time>2014-10-11T14:24:11Z</time>
      </trkpt>
      <trkpt lat="59.127248" lon="17.842125">
        <ele>76.3</ele>
        <time>2014-10-11T14:24:12Z</time>
      </trkpt>
      <trkpt lat="59.127164" lon="17.84212">
        <ele>76.7</ele>
        <time>2014-10-11T14:24:13Z</time>
      </trkpt>
      <trkpt lat="59.127094" lon="17.842143">
        <ele>77</ele>
        <time>2014-10-11T14:24:14Z</time>
      </trkpt>
      <trkpt lat="59.127035" lon="17.842169">
        <ele>77.5</ele>
        <time>2014-10-11T14:24:15Z</time>
      </trkpt>
      <trkpt lat="59.126968" lon="17.842218">
        <ele>78.1</ele>
        <time>2014-10-11T14:24:16Z</time>
      </trkpt>
      <trkpt lat="59.126914" lon="17.842297">
        <ele>78.6</ele>
        <time>2014-10-11T14:24:17Z</time>
      </trkpt>
      <trkpt lat="59.126858" lon="17.842373">
        <ele>79.1</ele>
        <time>2014-10-11T14:24:18Z</time>
      </trkpt>
      <trkpt lat="59.126798" lon="17.842458">
        <ele>79.7</ele>
        <time>2014-10-11T14:24:19Z</time>
      </trkpt>
      <trkpt lat="59.126745" lon="17.842525">
        <ele>80.2</ele>
        <time>2014-10-11T14:24:20Z</time>
      </trkpt>
      <trkpt lat="59.126688" lon="17.84261">
        <ele>80.7</ele>
        <time>2014-10-11T14:24:21Z</time>
      </trkpt>
      <trkpt lat="59.12663" lon="17.842704">
        <ele>81.1</ele>
        <time>2014-10-11T14:24:22Z</time>
      </trkpt>
      <trkpt lat="59.126573" lon="17.842785">
        <ele>81.6</ele>
        <time>2014-10-11T14:24:23Z</time>
      </trkpt>
      <trkpt lat="59.126502" lon="17.84289">
        <ele>82.2</ele>
        <time>2014-10-11T14:24:24Z</time>
      </trkpt>
      <trkpt lat="59.126465" lon="17.843003">
        <ele>82.5</ele>
        <time>2014-10-11T14:24:25Z</time>
      </trkpt>
      <trkpt lat="59.126417" lon="17.843105">
        <ele>82.8</ele>
        <time>2014-10-11T14:24:26Z</time>
      </trkpt>
      <trkpt lat="59.126371" lon="17.843233">
        <ele>83.2</ele>
        <time>2014-10-11T14:24:27Z</time>
      </trkpt>
      <trkpt lat="59.126324" lon="17.843362">
        <ele>83.5</ele>
        <time>2014-10-11T14:24:28Z</time>
      </trkpt>
      <trkpt lat="59.126278" lon="17.843476">
        <ele>83.8</ele>
        <time>2014-10-11T14:24:29Z</time>
      </trkpt>
      <trkpt lat="59.126234" lon="17.843614">
        <ele>84.1</ele>
        <time>2014-10-11T14:24:30Z</time>
      </trkpt>
      <trkpt lat="59.126202" lon="17.84373">
        <ele>84.2</ele>
        <time>2014-10-11T14:24:31Z</time>
      </trkpt>
      <trkpt lat="59.126175" lon="17.84386">
        <ele>84</ele>
        <time>2014-10-11T14:24:32Z</time>
      </trkpt>
      <trkpt lat="59.126135" lon="17.84399">
        <ele>83.7</ele>
        <time>2014-10-11T14:24:33Z</time>
      </trkpt>
      <trkpt lat="59.126105" lon="17.844111">
        <ele>83.4</ele>
        <time>2014-10-11T14:24:34Z</time>
      </trkpt>
      <trkpt lat="59.126072" lon="17.844254">
        <ele>83</ele>
        <time>2014-10-11T14:24:35Z</time>
      </trkpt>
      <trkpt lat="59.126034" lon="17.844369">
        <ele>82.8</ele>
        <time>2014-10-11T14:24:36Z</time>
      </trkpt>
      <trkpt lat="59.125989" lon="17.84448">
        <ele>82.6</ele>
        <time>2014-10-11T14:24:37Z</time>
      </trkpt>
      <trkpt lat="59.125943" lon="17.844598">
        <ele>82.4</ele>
        <time>2014-10-11T14:24:38Z</time>
      </trkpt>
      <trkpt lat="59.1259" lon="17.844683">
        <ele>82.3</ele>
        <time>2014-10-11T14:24:39Z</time>
      </trkpt>
      <trkpt lat="59.125847" lon="17.844771">
        <ele>82.3</ele>
        <time>2014-10-11T14:24:40Z</time>
      </trkpt>
      <trkpt lat="59.125786" lon="17.844856">
        <ele>82.2</ele>
        <time>2014-10-11T14:24:41Z</time>
      </trkpt>
      <trkpt lat="59.12573" lon="17.844944">
        <ele>82.2</ele>
        <time>2014-10-11T14:24:42Z</time>
      </trkpt>
      <trkpt lat="59.125677" lon="17.845032">
        <ele>82.1</ele>
        <time>2014-10-11T14:24:43Z</time>
      </trkpt>
      <trkpt lat="59.125627" lon="17.845121">
        <ele>82.1</ele>
        <time>2014-10-11T14:24:44Z</time>
      </trkpt>
      <trkpt lat="59.125583" lon="17.845202">
        <ele>82</ele>
        <time>2014-10-11T14:24:45Z</time>
      </trkpt>
      <trkpt lat="59.125525" lon="17.845298">
        <ele>81.9</ele>
        <time>2014-10-11T14:24:46Z</time>
      </trkpt>
      <trkpt lat="59.125479" lon="17.845379">
        <ele>81.8</ele>
        <time>2014-10-11T14:24:47Z</time>
      </trkpt>
      <trkpt lat="59.125426" lon="17.845462">
        <ele>81.7</ele>
        <time>2014-10-11T14:24:48Z</time>
      </trkpt>
      <trkpt lat="59.125368" lon="17.845557">
        <ele>80.8</ele>
        <time>2014-10-11T14:24:49Z</time>
      </trkpt>
      <trkpt lat="59.125316" lon="17.845644">
        <ele>79.8</ele>
        <time>2014-10-11T14:24:50Z</time>
      </trkpt>
      <trkpt lat="59.125254" lon="17.845746">
        <ele>78.7</ele>
        <time>2014-10-11T14:24:51Z</time>
      </trkpt>
      <trkpt lat="59.125216" lon="17.845861">
        <ele>77.7</ele>
        <time>2014-10-11T14:24:52Z</time>
      </trkpt>
      <trkpt lat="59.125176" lon="17.845972">
        <ele>76.7</ele>
        <time>2014-10-11T14:24:53Z</time>
      </trkpt>
      <trkpt lat="59.125133" lon="17.846105">
        <ele>75.6</ele>
        <time>2014-10-11T14:24:54Z</time>
      </trkpt>
      <trkpt lat="59.125091" lon="17.846211">
        <ele>74.7</ele>
        <time>2014-10-11T14:24:55Z</time>
      </trkpt>
      <trkpt lat="59.125043" lon="17.846337">
        <ele>73.5</ele>
        <time>2014-10-11T14:24:56Z</time>
      </trkpt>
      <trkpt lat="59.124995" lon="17.846466">
        <ele>72.3</ele>
        <time>2014-10-11T14:24:57Z</time>
      </trkpt>
      <trkpt lat="59.124949" lon="17.846584">
        <ele>71.1</ele>
        <time>2014-10-11T14:24:58Z</time>
      </trkpt>
      <trkpt lat="59.124897" lon="17.846725">
        <ele>69.8</ele>
        <time>2014-10-11T14:24:59Z</time>
      </trkpt>
      <trkpt lat="59.124853" lon="17.846859">
        <ele>68.5</ele>
        <time>2014-10-11T14:25:00Z</time>
      </trkpt>
      <trkpt lat="59.124811" lon="17.84698">
        <ele>67.3</ele>
        <time>2014-10-11T14:25:01Z</time>
      </trkpt>
      <trkpt lat="59.12476" lon="17.847115">
        <ele>66.1</ele>
        <time>2014-10-11T14:25:02Z</time>
      </trkpt>
      <trkpt lat="59.12472" lon="17.84723">
        <ele>65.6</ele>
        <time>2014-10-11T14:25:03Z</time>
      </trkpt>
      <trkpt lat="59.124673" lon="17.847356">
        <ele>65.1</ele>
        <time>2014-10-11T14:25:04Z</time>
      </trkpt>
      <trkpt lat="59.124624" lon="17.847488">
        <ele>64.5</ele>
        <time>2014-10-11T14:25:05Z</time>
      </trkpt>
      <trkpt lat="59.124572" lon="17.847606">
        <ele>63.9</ele>
        <time>2014-10-11T14:25:06Z</time>
      </trkpt>
      <trkpt lat="59.124519" lon="17.847714">
        <ele>63.5</ele>
        <time>2014-10-11T14:25:07Z</time>
      </trkpt>
      <trkpt lat="59.124457" lon="17.847827">
        <ele>62.9</ele>
        <time>2014-10-11T14:25:08Z</time>
      </trkpt>
      <trkpt lat="59.124397" lon="17.847938">
        <ele>62.4</ele>
        <time>2014-10-11T14:25:09Z</time>
      </trkpt>
      <trkpt lat="59.12434" lon="17.848045">
        <ele>61.9</ele>
        <time>2014-10-11T14:25:10Z</time>
      </trkpt>
      <trkpt lat="59.124273" lon="17.848131">
        <ele>61.3</ele>
        <time>2014-10-11T14:25:11Z</time>
      </trkpt>
      <trkpt lat="59.124205" lon="17.848216">
        <ele>60.8</ele>
        <time>2014-10-11T14:25:12Z</time>
      </trkpt>
      <trkpt lat="59.124144" lon="17.848308">
        <ele>60.3</ele>
        <time>2014-10-11T14:25:13Z</time>
      </trkpt>
      <trkpt lat="59.124073" lon="17.848388">
        <ele>59.8</ele>
        <time>2014-10-11T14:25:14Z</time>
      </trkpt>
      <trkpt lat="59.124006" lon="17.848471">
        <ele>59.4</ele>
        <time>2014-10-11T14:25:15Z</time>
      </trkpt>
      <trkpt lat="59.123932" lon="17.848551">
        <ele>59</ele>
        <time>2014-10-11T14:25:16Z</time>
      </trkpt>
      <trkpt lat="59.123853" lon="17.848623">
        <ele>58.5</ele>
        <time>2014-10-11T14:25:17Z</time>
      </trkpt>
      <trkpt lat="59.123779" lon="17.848691">
        <ele>58.1</ele>
        <time>2014-10-11T14:25:18Z</time>
      </trkpt>
      <trkpt lat="59.123708" lon="17.848763">
        <ele>57.8</ele>
        <time>2014-10-11T14:25:19Z</time>
      </trkpt>
      <trkpt lat="59.123637" lon="17.848825">
        <ele>57.7</ele>
        <time>2014-10-11T14:25:20Z</time>
      </trkpt>
      <trkpt lat="59.123563" lon="17.848888">
        <ele>57.5</ele>
        <time>2014-10-11T14:25:21Z</time>
      </trkpt>
      <trkpt lat="59.123499" lon="17.848971">
        <ele>57.4</ele>
        <time>2014-10-11T14:25:22Z</time>
      </trkpt>
      <trkpt lat="59.12343" lon="17.849057">
        <ele>57.3</ele>
        <time>2014-10-11T14:25:23Z</time>
      </trkpt>
      <trkpt lat="59.123361" lon="17.849119">
        <ele>57</ele>
        <time>2014-10-11T14:25:24Z</time>
      </trkpt>
      <trkpt lat="59.123289" lon="17.849199">
        <ele>56.8</ele>
        <time>2014-10-11T14:25:25Z</time>
      </trkpt>
      <trkpt lat="59.123214" lon="17.849278">
        <ele>56.5</ele>
        <time>2014-10-11T14:25:26Z</time>
      </trkpt>
      <trkpt lat="59.123157" lon="17.849394">
        <ele>56.4</ele>
        <time>2014-10-11T14:25:27Z</time>
      </trkpt>
      <trkpt lat="59.123086" lon="17.84947">
        <ele>56</ele>
        <time>2014-10-11T14:25:28Z</time>
      </trkpt>
      <trkpt lat="59.123011" lon="17.849552">
        <ele>55.6</ele>
        <time>2014-10-11T14:25:29Z</time>
      </trkpt>
      <trkpt lat="59.122944" lon="17.849631">
        <ele>55.3</ele>
        <time>2014-10-11T14:25:30Z</time>
      </trkpt>
      <trkpt lat="59.12288" lon="17.849726">
        <ele>55.1</ele>
        <time>2014-10-11T14:25:31Z</time>
      </trkpt>
      <trkpt lat="59.12281" lon="17.849817">
        <ele>54.9</ele>
        <time>2014-10-11T14:25:32Z</time>
      </trkpt>
      <trkpt lat="59.122747" lon="17.8499">
        <ele>54.7</ele>
        <time>2014-10-11T14:25:33Z</time>
      </trkpt>
      <trkpt lat="59.12268" lon="17.849989">
        <ele>54.4</ele>
        <time>2014-10-11T14:25:34Z</time>
      </trkpt>
      <trkpt lat="59.122606" lon="17.850077">
        <ele>54</ele>
        <time>2014-10-11T14:25:35Z</time>
      </trkpt>
      <trkpt lat="59.122538" lon="17.850197">
        <ele>53.7</ele>
        <time>2014-10-11T14:25:36Z</time>
      </trkpt>
      <trkpt lat="59.12249" lon="17.850337">
        <ele>53.4</ele>
        <time>2014-10-11T14:25:37Z</time>
      </trkpt>
      <trkpt lat="59.122461" lon="17.850491">
        <ele>53.2</ele>
        <time>2014-10-11T14:25:38Z</time>
      </trkpt>
      <trkpt lat="59.122451" lon="17.850653">
        <ele>53.1</ele>
        <time>2014-10-11T14:25:39Z</time>
      </trkpt>
      <trkpt lat="59.122457" lon="17.850833">
        <ele>53.1</ele>
        <time>2014-10-11T14:25:40Z</time>
      </trkpt>
      <trkpt lat="59.122469" lon="17.850998">
        <ele>53.2</ele>
        <time>2014-10-11T14:25:41Z</time>
      </trkpt>
      <trkpt lat="59.122501" lon="17.851174">
        <ele>53.5</ele>
        <time>2014-10-11T14:25:42Z</time>
      </trkpt>
      <trkpt lat="59.122504" lon="17.851347">
        <ele>53.5</ele>
        <time>2014-10-11T14:25:43Z</time>
      </trkpt>
      <trkpt lat="59.122507" lon="17.85153">
        <ele>53.4</ele>
        <time>2014-10-11T14:25:44Z</time>
      </trkpt>
      <trkpt lat="59.122507" lon="17.851718">
        <ele>53.3</ele>
        <time>2014-10-11T14:25:45Z</time>
      </trkpt>
      <trkpt lat="59.122505" lon="17.851901">
        <ele>53.1</ele>
        <time>2014-10-11T14:25:46Z</time>
      </trkpt>
      <trkpt lat="59.122507" lon="17.852085">
        <ele>53.1</ele>
        <time>2014-10-11T14:25:47Z</time>
      </trkpt>
      <trkpt lat="59.122511" lon="17.852272">
        <ele>53.2</ele>
        <time>2014-10-11T14:25:48Z</time>
      </trkpt>
      <trkpt lat="59.122512" lon="17.852451">
        <ele>53.3</ele>
        <time>2014-10-11T14:25:49Z</time>
      </trkpt>
      <trkpt lat="59.122519" lon="17.852637">
        <ele>53.5</ele>
        <time>2014-10-11T14:25:50Z</time>
      </trkpt>
      <trkpt lat="59.122527" lon="17.852812">
        <ele>53.6</ele>
        <time>2014-10-11T14:25:51Z</time>
      </trkpt>
      <trkpt lat="59.122542" lon="17.852994">
        <ele>53.8</ele>
        <time>2014-10-11T14:25:52Z</time>
      </trkpt>
      <trkpt lat="59.122556" lon="17.853178">
        <ele>54.1</ele>
        <time>2014-10-11T14:25:53Z</time>
      </trkpt>
      <trkpt lat="59.122581" lon="17.85335">
        <ele>54.4</ele>
        <time>2014-10-11T14:25:54Z</time>
      </trkpt>
      <trkpt lat="59.122607" lon="17.853518">
        <ele>54.7</ele>
        <time>2014-10-11T14:25:55Z</time>
      </trkpt>
      <trkpt lat="59.122634" lon="17.853682">
        <ele>54.9</ele>
        <time>2014-10-11T14:25:56Z</time>
      </trkpt>
      <trkpt lat="59.12266" lon="17.853861">
        <ele>55.1</ele>
        <time>2014-10-11T14:25:57Z</time>
      </trkpt>
      <trkpt lat="59.122684" lon="17.854048">
        <ele>55.3</ele>
        <time>2014-10-11T14:25:58Z</time>
      </trkpt>
      <trkpt lat="59.122706" lon="17.854225">
        <ele>55.4</ele>
        <time>2014-10-11T14:25:59Z</time>
      </trkpt>
      <trkpt lat="59.122718" lon="17.854398">
        <ele>55.5</ele>
        <time>2014-10-11T14:26:00Z</time>
      </trkpt>
      <trkpt lat="59.122721" lon="17.854595">
        <ele>55.5</ele>
        <time>2014-10-11T14:26:01Z</time>
      </trkpt>
      <trkpt lat="59.122722" lon="17.854791">
        <ele>55.6</ele>
        <time>2014-10-11T14:26:02Z</time>
      </trkpt>
      <trkpt lat="59.122709" lon="17.85499">
        <ele>55.6</ele>
        <time>2014-10-11T14:26:03Z</time>
      </trkpt>
      <trkpt lat="59.122682" lon="17.855202">
        <ele>55.6</ele>
        <time>2014-10-11T14:26:04Z</time>
      </trkpt>
      <trkpt lat="59.122656" lon="17.855373">
        <ele>55.7</ele>
        <time>2014-10-11T14:26:05Z</time>
      </trkpt>
      <trkpt lat="59.122623" lon="17.855569">
        <ele>55.1</ele>
        <time>2014-10-11T14:26:06Z</time>
      </trkpt>
      <trkpt lat="59.122587" lon="17.855751">
        <ele>54.4</ele>
        <time>2014-10-11T14:26:07Z</time>
      </trkpt>
      <trkpt lat="59.122544" lon="17.855943">
        <ele>53.7</ele>
        <time>2014-10-11T14:26:08Z</time>
      </trkpt>
      <trkpt lat="59.12251" lon="17.856133">
        <ele>52.9</ele>
        <time>2014-10-11T14:26:09Z</time>
      </trkpt>
      <trkpt lat="59.122476" lon="17.856305">
        <ele>52.2</ele>
        <time>2014-10-11T14:26:10Z</time>
      </trkpt>
      <trkpt lat="59.122462" lon="17.856505">
        <ele>51.4</ele>
        <time>2014-10-11T14:26:11Z</time>
      </trkpt>
      <trkpt lat="59.122452" lon="17.856687">
        <ele>50.6</ele>
        <time>2014-10-11T14:26:12Z</time>
      </trkpt>
      <trkpt lat="59.122434" lon="17.856892">
        <ele>49.8</ele>
        <time>2014-10-11T14:26:13Z</time>
      </trkpt>
      <trkpt lat="59.122416" lon="17.857087">
        <ele>49</ele>
        <time>2014-10-11T14:26:14Z</time>
      </trkpt>
      <trkpt lat="59.122401" lon="17.857269">
        <ele>48.6</ele>
        <time>2014-10-11T14:26:15Z</time>
      </trkpt>
      <trkpt lat="59.122384" lon="17.857459">
        <ele>48.3</ele>
        <time>2014-10-11T14:26:16Z</time>
      </trkpt>
      <trkpt lat="59.12237" lon="17.857646">
        <ele>47.9</ele>
        <time>2014-10-11T14:26:17Z</time>
      </trkpt>
      <trkpt lat="59.122354" lon="17.85784">
        <ele>47.5</ele>
        <time>2014-10-11T14:26:18Z</time>
      </trkpt>
      <trkpt lat="59.122342" lon="17.858026">
        <ele>47.1</ele>
        <time>2014-10-11T14:26:19Z</time>
      </trkpt>
      <trkpt lat="59.122309" lon="17.858245">
        <ele>46.6</ele>
        <time>2014-10-11T14:26:20Z</time>
      </trkpt>
      <trkpt lat="59.122274" lon="17.858447">
        <ele>46.1</ele>
        <time>2014-10-11T14:26:21Z</time>
      </trkpt>
      <trkpt lat="59.122236" lon="17.858657">
        <ele>45.6</ele>
        <time>2014-10-11T14:26:22Z</time>
      </trkpt>
      <trkpt lat="59.122197" lon="17.858856">
        <ele>45.3</ele>
        <time>2014-10-11T14:26:23Z</time>
      </trkpt>
      <trkpt lat="59.122149" lon="17.859045">
        <ele>45.2</ele>
        <time>2014-10-11T14:26:24Z</time>
      </trkpt>
      <trkpt lat="59.122101" lon="17.859232">
        <ele>45</ele>
        <time>2014-10-11T14:26:25Z</time>
      </trkpt>
      <trkpt lat="59.122047" lon="17.859409">
        <ele>45</ele>
        <time>2014-10-11T14:26:26Z</time>
      </trkpt>
      <trkpt lat="59.122004" lon="17.859581">
        <ele>45</ele>
        <time>2014-10-11T14:26:27Z</time>
      </trkpt>
      <trkpt lat="59.121959" lon="17.859759">
        <ele>45</ele>
        <time>2014-10-11T14:26:28Z</time>
      </trkpt>
      <trkpt lat="59.121906" lon="17.859931">
        <ele>45.1</ele>
        <time>2014-10-11T14:26:29Z</time>
      </trkpt>
      <trkpt lat="59.121856" lon="17.860099">
        <ele>45.2</ele>
        <time>2014-10-11T14:26:30Z</time>
      </trkpt>
      <trkpt lat="59.121807" lon="17.860331">
        <ele>45.3</ele>
        <time>2014-10-11T14:26:31Z</time>
      </trkpt>
      <trkpt lat="59.121767" lon="17.860509">
        <ele>45.6</ele>
        <time>2014-10-11T14:26:32Z</time>
      </trkpt>
      <trkpt lat="59.121735" lon="17.860703">
        <ele>46.1</ele>
        <time>2014-10-11T14:26:33Z</time>
      </trkpt>
      <trkpt lat="59.12171" lon="17.860874">
        <ele>46.7</ele>
        <time>2014-10-11T14:26:34Z</time>
      </trkpt>
      <trkpt lat="59.121696" lon="17.861054">
        <ele>47.2</ele>
        <time>2014-10-11T14:26:35Z</time>
      </trkpt>
      <trkpt lat="59.121673" lon="17.861263">
        <ele>48</ele>
        <time>2014-10-11T14:26:36Z</time>
      </trkpt>
      <trkpt lat="59.121654" lon="17.861443">
        <ele>48.7</ele>
        <time>2014-10-11T14:26:37Z</time>
      </trkpt>
      <trkpt lat="59.121639" lon="17.861635">
        <ele>49.4</ele>
        <time>2014-10-11T14:26:38Z</time>
      </trkpt>
      <trkpt lat="59.121624" lon="17.861814">
        <ele>50.2</ele>
        <time>2014-10-11T14:26:39Z</time>
      </trkpt>
      <trkpt lat="59.121617" lon="17.861983">
        <ele>50.8</ele>
        <time>2014-10-11T14:26:40Z</time>
      </trkpt>
      <trkpt lat="59.121598" lon="17.862129">
        <ele>51.5</ele>
        <time>2014-10-11T14:26:41Z</time>
      </trkpt>
      <trkpt lat="59.121571" lon="17.862277">
        <ele>52.1</ele>
        <time>2014-10-11T14:26:42Z</time>
      </trkpt>
      <trkpt lat="59.121542" lon="17.862441">
        <ele>52.9</ele>
        <time>2014-10-11T14:26:43Z</time>
      </trkpt>
      <trkpt lat="59.121514" lon="17.86261">
        <ele>53.6</ele>
        <time>2014-10-11T14:26:44Z</time>
      </trkpt>
      <trkpt lat="59.121494" lon="17.862755">
        <ele>54.2</ele>
        <time>2014-10-11T14:26:45Z</time>
      </trkpt>
      <trkpt lat="59.121478" lon="17.862916">
        <ele>54.7</ele>
        <time>2014-10-11T14:26:46Z</time>
      </trkpt>
      <trkpt lat="59.121442" lon="17.863077">
        <ele>55.6</ele>
        <time>2014-10-11T14:26:47Z</time>
      </trkpt>
      <trkpt lat="59.121412" lon="17.863243">
        <ele>56.5</ele>
        <time>2014-10-11T14:26:48Z</time>
      </trkpt>
      <trkpt lat="59.121388" lon="17.863389">
        <ele>57.1</ele>
        <time>2014-10-11T14:26:49Z</time>
      </trkpt>
      <trkpt lat="59.121365" lon="17.863529">
        <ele>57.8</ele>
        <time>2014-10-11T14:26:50Z</time>
      </trkpt>
      <trkpt lat="59.121339" lon="17.863672">
        <ele>58.5</ele>
        <time>2014-10-11T14:26:51Z</time>
      </trkpt>
      <trkpt lat="59.121326" lon="17.86383">
        <ele>59.2</ele>
        <time>2014-10-11T14:26:52Z</time>
      </trkpt>
      <trkpt lat="59.121318" lon="17.863982">
        <ele>59.9</ele>
        <time>2014-10-11T14:26:53Z</time>
      </trkpt>
      <trkpt lat="59.121318" lon="17.864127">
        <ele>60.4</ele>
        <time>2014-10-11T14:26:54Z</time>
      </trkpt>
      <trkpt lat="59.121313" lon="17.864281">
        <ele>61</ele>
        <time>2014-10-11T14:26:55Z</time>
      </trkpt>
      <trkpt lat="59.121312" lon="17.864424">
        <ele>61.5</ele>
        <time>2014-10-11T14:26:56Z</time>
      </trkpt>
      <trkpt lat="59.121312" lon="17.864565">
        <ele>62</ele>
        <time>2014-10-11T14:26:57Z</time>
      </trkpt>
      <trkpt lat="59.121313" lon="17.864702">
        <ele>62.5</ele>
        <time>2014-10-11T14:26:58Z</time>
      </trkpt>
      <trkpt lat="59.121312" lon="17.864826">
        <ele>63</ele>
        <time>2014-10-11T14:26:59Z</time>
      </trkpt>
      <trkpt lat="59.12132" lon="17.864965">
        <ele>63.4</ele>
        <time>2014-10-11T14:27:00Z</time>
      </trkpt>
      <trkpt lat="59.121333" lon="17.865093">
        <ele>63.7</ele>
        <time>2014-10-11T14:27:01Z</time>
      </trkpt>
      <trkpt lat="59.121353" lon="17.865191">
        <ele>63.8</ele>
        <time>2014-10-11T14:27:02Z</time>
      </trkpt>
      <trkpt lat="59.12136" lon="17.865312">
        <ele>64.2</ele>
        <time>2014-10-11T14:27:03Z</time>
      </trkpt>
      <trkpt lat="59.121369" lon="17.865431">
        <ele>64.5</ele>
        <time>2014-10-11T14:27:04Z</time>
      </trkpt>
      <trkpt lat="59.121385" lon="17.865537">
        <ele>64.6</ele>
        <time>2014-10-11T14:27:05Z</time>
      </trkpt>
      <trkpt lat="59.121394" lon="17.865628">
        <ele>64.8</ele>
        <time>2014-10-11T14:27:06Z</time>
      </trkpt>
      <trkpt lat="59.121393" lon="17.865728">
        <ele>65.1</ele>
        <time>2014-10-11T14:27:07Z</time>
      </trkpt>
      <trkpt lat="59.121408" lon="17.865815">
        <ele>65.2</ele>
        <time>2014-10-11T14:27:08Z</time>
      </trkpt>
      <trkpt lat="59.12141" lon="17.865892">
        <ele>65.5</ele>
        <time>2014-10-11T14:27:09Z</time>
      </trkpt>
      <trkpt lat="59.121414" lon="17.865979">
        <ele>65.7</ele>
        <time>2014-10-11T14:27:10Z</time>
      </trkpt>
      <trkpt lat="59.121413" lon="17.86605">
        <ele>66</ele>
        <time>2014-10-11T14:27:11Z</time>
      </trkpt>
      <trkpt lat="59.121421" lon="17.866134">
        <ele>66.2</ele>
        <time>2014-10-11T14:27:12Z</time>
      </trkpt>
      <trkpt lat="59.121431" lon="17.866221">
        <ele>66.4</ele>
        <time>2014-10-11T14:27:13Z</time>
      </trkpt>
      <trkpt lat="59.121437" lon="17.866301">
        <ele>66.7</ele>
        <time>2014-10-11T14:27:14Z</time>
      </trkpt>
      <trkpt lat="59.121445" lon="17.866384">
        <ele>67</ele>
        <time>2014-10-11T14:27:15Z</time>
      </trkpt>
      <trkpt lat="59.121447" lon="17.866472">
        <ele>67.3</ele>
        <time>2014-10-11T14:27:16Z</time>
      </trkpt>
      <trkpt lat="59.121449" lon="17.866546">
        <ele>67.6</ele>
        <time>2014-10-11T14:27:17Z</time>
      </trkpt>
      <trkpt lat="59.12145" lon="17.866623">
        <ele>68</ele>
        <time>2014-10-11T14:27:18Z</time>
      </trkpt>
      <trkpt lat="59.121445" lon="17.8667">
        <ele>68.4</ele>
        <time>2014-10-11T14:27:19Z</time>
      </trkpt>
      <trkpt lat="59.121456" lon="17.866783">
        <ele>68.7</ele>
        <time>2014-10-11T14:27:20Z</time>
      </trkpt>
      <trkpt lat="59.121467" lon="17.866889">
        <ele>69.1</ele>
        <time>2014-10-11T14:27:21Z</time>
      </trkpt>
      <trkpt lat="59.121478" lon="17.866988">
        <ele>69.5</ele>
        <time>2014-10-11T14:27:22Z</time>
      </trkpt>
      <trkpt lat="59.121495" lon="17.867085">
        <ele>69.8</ele>
        <time>2014-10-11T14:27:23Z</time>
      </trkpt>
      <trkpt lat="59.12151" lon="17.867202">
        <ele>69.7</ele>
        <time>2014-10-11T14:27:24Z</time>
      </trkpt>
      <trkpt lat="59.121525" lon="17.867304">
        <ele>69.6</ele>
        <time>2014-10-11T14:27:25Z</time>
      </trkpt>
      <trkpt lat="59.121538" lon="17.867427">
        <ele>69.5</ele>
        <time>2014-10-11T14:27:26Z</time>
      </trkpt>
      <trkpt lat="59.121559" lon="17.867524">
        <ele>69.4</ele>
        <time>2014-10-11T14:27:27Z</time>
      </trkpt>
      <trkpt lat="59.121573" lon="17.867647">
        <ele>69.3</ele>
        <time>2014-10-11T14:27:28Z</time>
      </trkpt>
      <trkpt lat="59.121594" lon="17.867755">
        <ele>69.2</ele>
        <time>2014-10-11T14:27:29Z</time>
      </trkpt>
      <trkpt lat="59.121611" lon="17.867864">
        <ele>69.1</ele>
        <time>2014-10-11T14:27:30Z</time>
      </trkpt>
      <trkpt lat="59.121637" lon="17.867987">
        <ele>69.1</ele>
        <time>2014-10-11T14:27:31Z</time>
      </trkpt>
      <trkpt lat="59.121654" lon="17.868108">
        <ele>69.1</ele>
        <time>2014-10-11T14:27:32Z</time>
      </trkpt>
      <trkpt lat="59.121672" lon="17.868231">
        <ele>69.2</ele>
        <time>2014-10-11T14:27:33Z</time>
      </trkpt>
      <trkpt lat="59.121679" lon="17.868338">
        <ele>69.2</ele>
        <time>2014-10-11T14:27:34Z</time>
      </trkpt>
      <trkpt lat="59.121688" lon="17.868479">
        <ele>69.3</ele>
        <time>2014-10-11T14:27:35Z</time>
      </trkpt>
      <trkpt lat="59.121696" lon="17.868631">
        <ele>69.4</ele>
        <time>2014-10-11T14:27:36Z</time>
      </trkpt>
      <trkpt lat="59.121693" lon="17.86877">
        <ele>69.5</ele>
        <time>2014-10-11T14:27:37Z</time>
      </trkpt>
      <trkpt lat="59.121689" lon="17.86891">
        <ele>69.2</ele>
        <time>2014-10-11T14:27:38Z</time>
      </trkpt>
      <trkpt lat="59.12168" lon="17.869043">
        <ele>69</ele>
        <time>2014-10-11T14:27:39Z</time>
      </trkpt>
      <trkpt lat="59.121674" lon="17.869193">
        <ele>68.7</ele>
        <time>2014-10-11T14:27:40Z</time>
      </trkpt>
      <trkpt lat="59.121657" lon="17.869311">
        <ele>68.5</ele>
        <time>2014-10-11T14:27:41Z</time>
      </trkpt>
      <trkpt lat="59.121636" lon="17.869413">
        <ele>68.2</ele>
        <time>2014-10-11T14:27:42Z</time>
      </trkpt>
      <trkpt lat="59.12162" lon="17.86954">
        <ele>68</ele>
        <time>2014-10-11T14:27:43Z</time>
      </trkpt>
      <trkpt lat="59.121599" lon="17.869664">
        <ele>67.6</ele>
        <time>2014-10-11T14:27:44Z</time>
      </trkpt>
      <trkpt lat="59.121574" lon="17.869779">
        <ele>67.2</ele>
        <time>2014-10-11T14:27:45Z</time>
      </trkpt>
      <trkpt lat="59.121566" lon="17.869894">
        <ele>66.8</ele>
        <time>2014-10-11T14:27:46Z</time>
      </trkpt>
      <trkpt lat="59.121546" lon="17.870026">
        <ele>66.3</ele>
        <time>2014-10-11T14:27:47Z</time>
      </trkpt>
      <trkpt lat="59.121561" lon="17.870148">
        <ele>66</ele>
        <time>2014-10-11T14:27:48Z</time>
      </trkpt>
      <trkpt lat="59.121588" lon="17.870289">
        <ele>65.6</ele>
        <time>2014-10-11T14:27:49Z</time>
      </trkpt>
      <trkpt lat="59.121578" lon="17.870411">
        <ele>65.2</ele>
        <time>2014-10-11T14:27:50Z</time>
      </trkpt>
      <trkpt lat="59.121585" lon="17.870522">
        <ele>65.2</ele>
        <time>2014-10-11T14:27:51Z</time>
      </trkpt>
      <trkpt lat="59.121574" lon="17.870639">
        <ele>65.1</ele>
        <time>2014-10-11T14:27:52Z</time>
      </trkpt>
      <trkpt lat="59.121578" lon="17.870766">
        <ele>65</ele>
        <time>2014-10-11T14:27:53Z</time>
      </trkpt>
      <trkpt lat="59.121581" lon="17.87089">
        <ele>65</ele>
        <time>2014-10-11T14:27:54Z</time>
      </trkpt>
      <trkpt lat="59.121597" lon="17.871014">
        <ele>65</ele>
        <time>2014-10-11T14:27:55Z</time>
      </trkpt>
      <trkpt lat="59.121605" lon="17.871153">
        <ele>64.9</ele>
        <time>2014-10-11T14:27:56Z</time>
      </trkpt>
      <trkpt lat="59.121619" lon="17.871273">
        <ele>64.9</ele>
        <time>2014-10-11T14:27:57Z</time>
      </trkpt>
      <trkpt lat="59.12164" lon="17.871423">
        <ele>64.9</ele>
        <time>2014-10-11T14:27:58Z</time>
      </trkpt>
      <trkpt lat="59.12167" lon="17.871555">
        <ele>64.8</ele>
        <time>2014-10-11T14:27:59Z</time>
      </trkpt>
      <trkpt lat="59.121831" lon="17.872084">
        <ele>64.3</ele>
        <time>2014-10-11T14:28:03Z</time>
      </trkpt>
      <trkpt lat="59.121865" lon="17.872218">
        <ele>64.4</ele>
        <time>2014-10-11T14:28:04Z</time>
      </trkpt>
      <trkpt lat="59.121908" lon="17.872341">
        <ele>64.4</ele>
        <time>2014-10-11T14:28:05Z</time>
      </trkpt>
      <trkpt lat="59.121949" lon="17.872471">
        <ele>64.4</ele>
        <time>2014-10-11T14:28:06Z</time>
      </trkpt>
      <trkpt lat="59.121979" lon="17.872603">
        <ele>64.4</ele>
        <time>2014-10-11T14:28:07Z</time>
      </trkpt>
      <trkpt lat="59.122018" lon="17.872741">
        <ele>64.3</ele>
        <time>2014-10-11T14:28:08Z</time>
      </trkpt>
      <trkpt lat="59.122057" lon="17.872886">
        <ele>64.1</ele>
        <time>2014-10-11T14:28:09Z</time>
      </trkpt>
      <trkpt lat="59.122093" lon="17.873001">
        <ele>64.1</ele>
        <time>2014-10-11T14:28:10Z</time>
      </trkpt>
      <trkpt lat="59.122134" lon="17.873154">
        <ele>64.5</ele>
        <time>2014-10-11T14:28:11Z</time>
      </trkpt>
      <trkpt lat="59.12217" lon="17.873285">
        <ele>64.8</ele>
        <time>2014-10-11T14:28:12Z</time>
      </trkpt>
      <trkpt lat="59.122213" lon="17.873429">
        <ele>65.1</ele>
        <time>2014-10-11T14:28:13Z</time>
      </trkpt>
      <trkpt lat="59.122257" lon="17.873577">
        <ele>65.4</ele>
        <time>2014-10-11T14:28:14Z</time>
      </trkpt>
      <trkpt lat="59.122285" lon="17.87373">
        <ele>65.5</ele>
        <time>2014-10-11T14:28:15Z</time>
      </trkpt>
      <trkpt lat="59.122312" lon="17.873884">
        <ele>65.4</ele>
        <time>2014-10-11T14:28:16Z</time>
      </trkpt>
      <trkpt lat="59.12234" lon="17.874034">
        <ele>65.3</ele>
        <time>2014-10-11T14:28:17Z</time>
      </trkpt>
      <trkpt lat="59.122372" lon="17.87419">
        <ele>65.2</ele>
        <time>2014-10-11T14:28:18Z</time>
      </trkpt>
      <trkpt lat="59.122404" lon="17.874343">
        <ele>64.9</ele>
        <time>2014-10-11T14:28:19Z</time>
      </trkpt>
      <trkpt lat="59.122432" lon="17.874503">
        <ele>64.6</ele>
        <time>2014-10-11T14:28:20Z</time>
      </trkpt>
      <trkpt lat="59.122461" lon="17.874655">
        <ele>64.3</ele>
        <time>2014-10-11T14:28:21Z</time>
      </trkpt>
      <trkpt lat="59.122496" lon="17.874815">
        <ele>63.9</ele>
        <time>2014-10-11T14:28:22Z</time>
      </trkpt>
      <trkpt lat="59.122535" lon="17.87495">
        <ele>63.6</ele>
        <time>2014-10-11T14:28:23Z</time>
      </trkpt>
      <trkpt lat="59.122575" lon="17.875098">
        <ele>63</ele>
        <time>2014-10-11T14:28:24Z</time>
      </trkpt>
      <trkpt lat="59.12263" lon="17.875244">
        <ele>62.3</ele>
        <time>2014-10-11T14:28:25Z</time>
      </trkpt>
      <trkpt lat="59.122698" lon="17.875363">
        <ele>61.5</ele>
        <time>2014-10-11T14:28:26Z</time>
      </trkpt>
      <trkpt lat="59.122752" lon="17.875483">
        <ele>61.2</ele>
        <time>2014-10-11T14:28:27Z</time>
      </trkpt>
      <trkpt lat="59.122823" lon="17.875597">
        <ele>61.2</ele>
        <time>2014-10-11T14:28:28Z</time>
      </trkpt>
      <trkpt lat="59.122904" lon="17.875673">
        <ele>61</ele>
        <time>2014-10-11T14:28:29Z</time>
      </trkpt>
      <trkpt lat="59.122983" lon="17.875744">
        <ele>61.3</ele>
        <time>2014-10-11T14:28:30Z</time>
      </trkpt>
      <trkpt lat="59.123061" lon="17.875829">
        <ele>61.7</ele>
        <time>2014-10-11T14:28:31Z</time>
      </trkpt>
      <trkpt lat="59.123151" lon="17.875901">
        <ele>61.9</ele>
        <time>2014-10-11T14:28:32Z</time>
      </trkpt>
      <trkpt lat="59.123235" lon="17.875952">
        <ele>62</ele>
        <time>2014-10-11T14:28:33Z</time>
      </trkpt>
      <trkpt lat="59.123312" lon="17.87603">
        <ele>62</ele>
        <time>2014-10-11T14:28:34Z</time>
      </trkpt>
      <trkpt lat="59.123396" lon="17.876115">
        <ele>61.9</ele>
        <time>2014-10-11T14:28:35Z</time>
      </trkpt>
      <trkpt lat="59.123463" lon="17.876184">
        <ele>61.8</ele>
        <time>2014-10-11T14:28:36Z</time>
      </trkpt>
      <trkpt lat="59.123551" lon="17.87625">
        <ele>61.5</ele>
        <time>2014-10-11T14:28:37Z</time>
      </trkpt>
      <trkpt lat="59.123636" lon="17.876344">
        <ele>60.9</ele>
        <time>2014-10-11T14:28:38Z</time>
      </trkpt>
      <trkpt lat="59.123706" lon="17.87646">
        <ele>60.2</ele>
        <time>2014-10-11T14:28:39Z</time>
      </trkpt>
      <trkpt lat="59.123774" lon="17.876595">
        <ele>59.3</ele>
        <time>2014-10-11T14:28:40Z</time>
      </trkpt>
      <trkpt lat="59.123838" lon="17.876805">
        <ele>58.3</ele>
        <time>2014-10-11T14:28:41Z</time>
      </trkpt>
      <trkpt lat="59.123887" lon="17.87695">
        <ele>57.6</ele>
        <time>2014-10-11T14:28:42Z</time>
      </trkpt>
      <trkpt lat="59.123926" lon="17.877112">
        <ele>57</ele>
        <time>2014-10-11T14:28:43Z</time>
      </trkpt>
      <trkpt lat="59.12395" lon="17.877285">
        <ele>57.1</ele>
        <time>2014-10-11T14:28:44Z</time>
      </trkpt>
      <trkpt lat="59.123964" lon="17.877471">
        <ele>57.2</ele>
        <time>2014-10-11T14:28:45Z</time>
      </trkpt>
      <trkpt lat="59.123976" lon="17.877656">
        <ele>57.3</ele>
        <time>2014-10-11T14:28:46Z</time>
      </trkpt>
      <trkpt lat="59.123981" lon="17.87783">
        <ele>57.4</ele>
        <time>2014-10-11T14:28:47Z</time>
      </trkpt>
      <trkpt lat="59.123988" lon="17.878012">
        <ele>57.5</ele>
        <time>2014-10-11T14:28:48Z</time>
      </trkpt>
      <trkpt lat="59.123986" lon="17.87819">
        <ele>57.6</ele>
        <time>2014-10-11T14:28:49Z</time>
      </trkpt>
      <trkpt lat="59.123981" lon="17.878366">
        <ele>57.7</ele>
        <time>2014-10-11T14:28:50Z</time>
      </trkpt>
      <trkpt lat="59.123985" lon="17.878512">
        <ele>57.7</ele>
        <time>2014-10-11T14:28:51Z</time>
      </trkpt>
      <trkpt lat="59.123977" lon="17.878661">
        <ele>57.9</ele>
        <time>2014-10-11T14:28:52Z</time>
      </trkpt>
      <trkpt lat="59.123972" lon="17.878811">
        <ele>58.2</ele>
        <time>2014-10-11T14:28:53Z</time>
      </trkpt>
      <trkpt lat="59.123965" lon="17.878969">
        <ele>59</ele>
        <time>2014-10-11T14:28:54Z</time>
      </trkpt>
      <trkpt lat="59.123957" lon="17.87912">
        <ele>59.7</ele>
        <time>2014-10-11T14:28:55Z</time>
      </trkpt>
      <trkpt lat="59.123948" lon="17.879247">
        <ele>60.3</ele>
        <time>2014-10-11T14:28:56Z</time>
      </trkpt>
      <trkpt lat="59.123939" lon="17.879383">
        <ele>60.9</ele>
        <time>2014-10-11T14:28:57Z</time>
      </trkpt>
      <trkpt lat="59.123934" lon="17.879469">
        <ele>61.3</ele>
        <time>2014-10-11T14:28:58Z</time>
      </trkpt>
      <trkpt lat="59.123918" lon="17.879593">
        <ele>61.8</ele>
        <time>2014-10-11T14:28:59Z</time>
      </trkpt>
      <trkpt lat="59.123898" lon="17.879706">
        <ele>62.3</ele>
        <time>2014-10-11T14:29:00Z</time>
      </trkpt>
      <trkpt lat="59.123883" lon="17.879816">
        <ele>62.8</ele>
        <time>2014-10-11T14:29:01Z</time>
      </trkpt>
      <trkpt lat="59.123844" lon="17.879914">
        <ele>63.2</ele>
        <time>2014-10-11T14:29:02Z</time>
      </trkpt>
      <trkpt lat="59.123817" lon="17.880005">
        <ele>63.6</ele>
        <time>2014-10-11T14:29:03Z</time>
      </trkpt>
      <trkpt lat="59.123809" lon="17.880108">
        <ele>64</ele>
        <time>2014-10-11T14:29:04Z</time>
      </trkpt>
      <trkpt lat="59.123795" lon="17.880211">
        <ele>64.3</ele>
        <time>2014-10-11T14:29:05Z</time>
      </trkpt>
      <trkpt lat="59.123775" lon="17.880304">
        <ele>64.6</ele>
        <time>2014-10-11T14:29:06Z</time>
      </trkpt>
      <trkpt lat="59.123766" lon="17.880424">
        <ele>65.1</ele>
        <time>2014-10-11T14:29:07Z</time>
      </trkpt>
      <trkpt lat="59.123753" lon="17.880521">
        <ele>65.4</ele>
        <time>2014-10-11T14:29:08Z</time>
      </trkpt>
      <trkpt lat="59.123736" lon="17.880629">
        <ele>65.7</ele>
        <time>2014-10-11T14:29:09Z</time>
      </trkpt>
      <trkpt lat="59.123702" lon="17.880728">
        <ele>66.1</ele>
        <time>2014-10-11T14:29:10Z</time>
      </trkpt>
      <trkpt lat="59.12368" lon="17.880827">
        <ele>66.4</ele>
        <time>2014-10-11T14:29:11Z</time>
      </trkpt>
      <trkpt lat="59.123662" lon="17.88095">
        <ele>66.9</ele>
        <time>2014-10-11T14:29:12Z</time>
      </trkpt>
      <trkpt lat="59.123639" lon="17.881056">
        <ele>67.3</ele>
        <time>2014-10-11T14:29:13Z</time>
      </trkpt>
      <trkpt lat="59.123621" lon="17.881204">
        <ele>68</ele>
        <time>2014-10-11T14:29:15Z</time>
      </trkpt>
      <trkpt lat="59.123608" lon="17.881323">
        <ele>68.6</ele>
        <time>2014-10-11T14:29:16Z</time>
      </trkpt>
      <trkpt lat="59.123592" lon="17.88141">
        <ele>69</ele>
        <time>2014-10-11T14:29:17Z</time>
      </trkpt>
      <trkpt lat="59.123573" lon="17.881516">
        <ele>69.6</ele>
        <time>2014-10-11T14:29:18Z</time>
      </trkpt>
      <trkpt lat="59.123551" lon="17.881634">
        <ele>70.3</ele>
        <time>2014-10-11T14:29:19Z</time>
      </trkpt>
      <trkpt lat="59.123507" lon="17.881764">
        <ele>71.1</ele>
        <time>2014-10-11T14:29:20Z</time>
      </trkpt>
      <trkpt lat="59.123482" lon="17.881881">
        <ele>71.8</ele>
        <time>2014-10-11T14:29:21Z</time>
      </trkpt>
      <trkpt lat="59.123456" lon="17.881989">
        <ele>72.5</ele>
        <time>2014-10-11T14:29:22Z</time>
      </trkpt>
      <trkpt lat="59.12345" lon="17.882075">
        <ele>73</ele>
        <time>2014-10-11T14:29:23Z</time>
      </trkpt>
      <trkpt lat="59.123441" lon="17.882192">
        <ele>73.3</ele>
        <time>2014-10-11T14:29:24Z</time>
      </trkpt>
      <trkpt lat="59.123421" lon="17.882284">
        <ele>73.6</ele>
        <time>2014-10-11T14:29:25Z</time>
      </trkpt>
      <trkpt lat="59.123397" lon="17.882387">
        <ele>73.8</ele>
        <time>2014-10-11T14:29:26Z</time>
      </trkpt>
      <trkpt lat="59.123374" lon="17.882491">
        <ele>74.1</ele>
        <time>2014-10-11T14:29:27Z</time>
      </trkpt>
      <trkpt lat="59.123365" lon="17.882605">
        <ele>74.3</ele>
        <time>2014-10-11T14:29:28Z</time>
      </trkpt>
      <trkpt lat="59.12335" lon="17.882701">
        <ele>74.6</ele>
        <time>2014-10-11T14:29:29Z</time>
      </trkpt>
      <trkpt lat="59.123342" lon="17.882806">
        <ele>74.8</ele>
        <time>2014-10-11T14:29:30Z</time>
      </trkpt>
      <trkpt lat="59.123334" lon="17.882933">
        <ele>75</ele>
        <time>2014-10-11T14:29:31Z</time>
      </trkpt>
      <trkpt lat="59.123312" lon="17.883052">
        <ele>75.4</ele>
        <time>2014-10-11T14:29:32Z</time>
      </trkpt>
      <trkpt lat="59.12329" lon="17.883172">
        <ele>75.7</ele>
        <time>2014-10-11T14:29:33Z</time>
      </trkpt>
      <trkpt lat="59.123275" lon="17.883283">
        <ele>76</ele>
        <time>2014-10-11T14:29:34Z</time>
      </trkpt>
      <trkpt lat="59.123262" lon="17.883406">
        <ele>76.3</ele>
        <time>2014-10-11T14:29:35Z</time>
      </trkpt>
      <trkpt lat="59.123251" lon="17.883542">
        <ele>76.7</ele>
        <time>2014-10-11T14:29:36Z</time>
      </trkpt>
      <trkpt lat="59.12325" lon="17.883679">
        <ele>77</ele>
        <time>2014-10-11T14:29:37Z</time>
      </trkpt>
      <trkpt lat="59.123244" lon="17.883813">
        <ele>77.2</ele>
        <time>2014-10-11T14:29:38Z</time>
      </trkpt>
      <trkpt lat="59.123245" lon="17.88394">
        <ele>77.1</ele>
        <time>2014-10-11T14:29:39Z</time>
      </trkpt>
      <trkpt lat="59.12325" lon="17.884067">
        <ele>77</ele>
        <time>2014-10-11T14:29:40Z</time>
      </trkpt>
      <trkpt lat="59.123253" lon="17.884198">
        <ele>76.9</ele>
        <time>2014-10-11T14:29:41Z</time>
      </trkpt>
      <trkpt lat="59.123248" lon="17.884319">
        <ele>76.8</ele>
        <time>2014-10-11T14:29:42Z</time>
      </trkpt>
      <trkpt lat="59.123241" lon="17.884457">
        <ele>76.7</ele>
        <time>2014-10-11T14:29:43Z</time>
      </trkpt>
      <trkpt lat="59.123241" lon="17.884572">
        <ele>76.6</ele>
        <time>2014-10-11T14:29:44Z</time>
      </trkpt>
      <trkpt lat="59.123242" lon="17.884709">
        <ele>76.4</ele>
        <time>2014-10-11T14:29:45Z</time>
      </trkpt>
      <trkpt lat="59.123242" lon="17.884815">
        <ele>76.3</ele>
        <time>2014-10-11T14:29:46Z</time>
      </trkpt>
      <trkpt lat="59.123239" lon="17.884927">
        <ele>76.1</ele>
        <time>2014-10-11T14:29:47Z</time>
      </trkpt>
      <trkpt lat="59.123252" lon="17.885034">
        <ele>76</ele>
        <time>2014-10-11T14:29:48Z</time>
      </trkpt>
      <trkpt lat="59.123256" lon="17.885149">
        <ele>75.8</ele>
        <time>2014-10-11T14:29:49Z</time>
      </trkpt>
      <trkpt lat="59.12328" lon="17.885281">
        <ele>75.6</ele>
        <time>2014-10-11T14:29:50Z</time>
      </trkpt>
      <trkpt lat="59.123298" lon="17.885383">
        <ele>75.5</ele>
        <time>2014-10-11T14:29:51Z</time>
      </trkpt>
      <trkpt lat="59.123318" lon="17.885485">
        <ele>75.5</ele>
        <time>2014-10-11T14:29:52Z</time>
      </trkpt>
      <trkpt lat="59.123333" lon="17.885607">
        <ele>75.5</ele>
        <time>2014-10-11T14:29:53Z</time>
      </trkpt>
      <trkpt lat="59.123355" lon="17.885694">
        <ele>75.5</ele>
        <time>2014-10-11T14:29:54Z</time>
      </trkpt>
      <trkpt lat="59.123376" lon="17.885798">
        <ele>75.6</ele>
        <time>2014-10-11T14:29:55Z</time>
      </trkpt>
      <trkpt lat="59.123396" lon="17.885901">
        <ele>75.6</ele>
        <time>2014-10-11T14:29:56Z</time>
      </trkpt>
      <trkpt lat="59.123405" lon="17.886042">
        <ele>75.6</ele>
        <time>2014-10-11T14:29:57Z</time>
      </trkpt>
      <trkpt lat="59.123414" lon="17.886186">
        <ele>75.6</ele>
        <time>2014-10-11T14:29:58Z</time>
      </trkpt>
      <trkpt lat="59.123418" lon="17.886304">
        <ele>75.5</ele>
        <time>2014-10-11T14:29:59Z</time>
      </trkpt>
      <trkpt lat="59.123427" lon="17.886459">
        <ele>75.4</ele>
        <time>2014-10-11T14:30:00Z</time>
      </trkpt>
      <trkpt lat="59.123427" lon="17.886605">
        <ele>75.2</ele>
        <time>2014-10-11T14:30:01Z</time>
      </trkpt>
      <trkpt lat="59.123422" lon="17.886712">
        <ele>75.1</ele>
        <time>2014-10-11T14:30:02Z</time>
      </trkpt>
      <trkpt lat="59.123422" lon="17.886834">
        <ele>74.9</ele>
        <time>2014-10-11T14:30:03Z</time>
      </trkpt>
      <trkpt lat="59.123409" lon="17.88692">
        <ele>74.8</ele>
        <time>2014-10-11T14:30:04Z</time>
      </trkpt>
      <trkpt lat="59.123398" lon="17.887031">
        <ele>74.6</ele>
        <time>2014-10-11T14:30:05Z</time>
      </trkpt>
      <trkpt lat="59.123393" lon="17.88714">
        <ele>74.6</ele>
        <time>2014-10-11T14:30:06Z</time>
      </trkpt>
      <trkpt lat="59.123382" lon="17.887215">
        <ele>74.7</ele>
        <time>2014-10-11T14:30:07Z</time>
      </trkpt>
      <trkpt lat="59.123359" lon="17.887328">
        <ele>74.8</ele>
        <time>2014-10-11T14:30:08Z</time>
      </trkpt>
      <trkpt lat="59.123336" lon="17.887438">
        <ele>74.9</ele>
        <time>2014-10-11T14:30:09Z</time>
      </trkpt>
      <trkpt lat="59.123315" lon="17.887542">
        <ele>75</ele>
        <time>2014-10-11T14:30:10Z</time>
      </trkpt>
      <trkpt lat="59.123292" lon="17.887671">
        <ele>75.2</ele>
        <time>2014-10-11T14:30:11Z</time>
      </trkpt>
      <trkpt lat="59.123267" lon="17.887767">
        <ele>75.2</ele>
        <time>2014-10-11T14:30:12Z</time>
      </trkpt>
      <trkpt lat="59.123247" lon="17.887857">
        <ele>75.3</ele>
        <time>2014-10-11T14:30:13Z</time>
      </trkpt>
      <trkpt lat="59.123222" lon="17.887944">
        <ele>75.4</ele>
        <time>2014-10-11T14:30:14Z</time>
      </trkpt>
      <trkpt lat="59.123194" lon="17.888029">
        <ele>75.5</ele>
        <time>2014-10-11T14:30:15Z</time>
      </trkpt>
      <trkpt lat="59.123159" lon="17.888125">
        <ele>75.5</ele>
        <time>2014-10-11T14:30:16Z</time>
      </trkpt>
      <trkpt lat="59.123124" lon="17.888211">
        <ele>75.6</ele>
        <time>2014-10-11T14:30:17Z</time>
      </trkpt>
      <trkpt lat="59.12309" lon="17.888299">
        <ele>75.7</ele>
        <time>2014-10-11T14:30:18Z</time>
      </trkpt>
      <trkpt lat="59.123054" lon="17.888393">
        <ele>75.7</ele>
        <time>2014-10-11T14:30:19Z</time>
      </trkpt>
      <trkpt lat="59.123012" lon="17.888483">
        <ele>75.8</ele>
        <time>2014-10-11T14:30:20Z</time>
      </trkpt>
      <trkpt lat="59.122964" lon="17.888569">
        <ele>75.8</ele>
        <time>2014-10-11T14:30:21Z</time>
      </trkpt>
      <trkpt lat="59.122902" lon="17.888656">
        <ele>75.9</ele>
        <time>2014-10-11T14:30:22Z</time>
      </trkpt>
      <trkpt lat="59.122863" lon="17.888765">
        <ele>75.9</ele>
        <time>2014-10-11T14:30:23Z</time>
      </trkpt>
      <trkpt lat="59.122822" lon="17.888854">
        <ele>75.9</ele>
        <time>2014-10-11T14:30:24Z</time>
      </trkpt>
      <trkpt lat="59.122781" lon="17.888947">
        <ele>75.9</ele>
        <time>2014-10-11T14:30:25Z</time>
      </trkpt>
      <trkpt lat="59.122742" lon="17.889039">
        <ele>75.9</ele>
        <time>2014-10-11T14:30:26Z</time>
      </trkpt>
      <trkpt lat="59.122696" lon="17.889144">
        <ele>75.9</ele>
        <time>2014-10-11T14:30:27Z</time>
      </trkpt>
      <trkpt lat="59.122667" lon="17.889258">
        <ele>76</ele>
        <time>2014-10-11T14:30:28Z</time>
      </trkpt>
      <trkpt lat="59.122639" lon="17.889379">
        <ele>76.1</ele>
        <time>2014-10-11T14:30:29Z</time>
      </trkpt>
      <trkpt lat="59.122608" lon="17.889512">
        <ele>76.2</ele>
        <time>2014-10-11T14:30:30Z</time>
      </trkpt>
      <trkpt lat="59.12258" lon="17.889635">
        <ele>76.3</ele>
        <time>2014-10-11T14:30:31Z</time>
      </trkpt>
      <trkpt lat="59.122577" lon="17.889768">
        <ele>76.4</ele>
        <time>2014-10-11T14:30:32Z</time>
      </trkpt>
      <trkpt lat="59.122558" lon="17.889902">
        <ele>76.5</ele>
        <time>2014-10-11T14:30:33Z</time>
      </trkpt>
      <trkpt lat="59.122547" lon="17.890022">
        <ele>76.6</ele>
        <time>2014-10-11T14:30:34Z</time>
      </trkpt>
      <trkpt lat="59.122538" lon="17.89015">
        <ele>76.8</ele>
        <time>2014-10-11T14:30:35Z</time>
      </trkpt>
      <trkpt lat="59.122522" lon="17.890277">
        <ele>76.9</ele>
        <time>2014-10-11T14:30:36Z</time>
      </trkpt>
      <trkpt lat="59.122505" lon="17.8904">
        <ele>77</ele>
        <time>2014-10-11T14:30:37Z</time>
      </trkpt>
      <trkpt lat="59.122493" lon="17.890541">
        <ele>77.1</ele>
        <time>2014-10-11T14:30:38Z</time>
      </trkpt>
      <trkpt lat="59.122485" lon="17.890648">
        <ele>77.1</ele>
        <time>2014-10-11T14:30:39Z</time>
      </trkpt>
      <trkpt lat="59.122469" lon="17.890769">
        <ele>77.2</ele>
        <time>2014-10-11T14:30:40Z</time>
      </trkpt>
      <trkpt lat="59.122462" lon="17.890882">
        <ele>77.2</ele>
        <time>2014-10-11T14:30:41Z</time>
      </trkpt>
      <trkpt lat="59.122455" lon="17.891002">
        <ele>77.3</ele>
        <time>2014-10-11T14:30:42Z</time>
      </trkpt>
      <trkpt lat="59.122441" lon="17.89113">
        <ele>77.3</ele>
        <time>2014-10-11T14:30:43Z</time>
      </trkpt>
      <trkpt lat="59.122433" lon="17.891234">
        <ele>77.4</ele>
        <time>2014-10-11T14:30:44Z</time>
      </trkpt>
      <trkpt lat="59.122424" lon="17.891363">
        <ele>77.6</ele>
        <time>2014-10-11T14:30:45Z</time>
      </trkpt>
      <trkpt lat="59.122416" lon="17.891503">
        <ele>77.9</ele>
        <time>2014-10-11T14:30:46Z</time>
      </trkpt>
      <trkpt lat="59.122416" lon="17.89163">
        <ele>78.1</ele>
        <time>2014-10-11T14:30:47Z</time>
      </trkpt>
      <trkpt lat="59.122408" lon="17.891785">
        <ele>78.4</ele>
        <time>2014-10-11T14:30:48Z</time>
      </trkpt>
      <trkpt lat="59.122409" lon="17.891926">
        <ele>78.7</ele>
        <time>2014-10-11T14:30:49Z</time>
      </trkpt>
      <trkpt lat="59.122405" lon="17.892055">
        <ele>78.9</ele>
        <time>2014-10-11T14:30:50Z</time>
      </trkpt>
      <trkpt lat="59.122404" lon="17.892206">
        <ele>79.1</ele>
        <time>2014-10-11T14:30:51Z</time>
      </trkpt>
      <trkpt lat="59.122408" lon="17.892332">
        <ele>79.1</ele>
        <time>2014-10-11T14:30:52Z</time>
      </trkpt>
      <trkpt lat="59.122412" lon="17.892465">
        <ele>79.2</ele>
        <time>2014-10-11T14:30:53Z</time>
      </trkpt>
      <trkpt lat="59.122418" lon="17.892616">
        <ele>79.3</ele>
        <time>2014-10-11T14:30:54Z</time>
      </trkpt>
      <trkpt lat="59.12243" lon="17.892751">
        <ele>79.3</ele>
        <time>2014-10-11T14:30:55Z</time>
      </trkpt>
      <trkpt lat="59.122439" lon="17.892903">
        <ele>79.4</ele>
        <time>2014-10-11T14:30:56Z</time>
      </trkpt>
      <trkpt lat="59.122457" lon="17.893045">
        <ele>79.4</ele>
        <time>2014-10-11T14:30:57Z</time>
      </trkpt>
      <trkpt lat="59.122475" lon="17.893176">
        <ele>79.5</ele>
        <time>2014-10-11T14:30:58Z</time>
      </trkpt>
      <trkpt lat="59.122491" lon="17.893327">
        <ele>79.5</ele>
        <time>2014-10-11T14:30:59Z</time>
      </trkpt>
      <trkpt lat="59.122513" lon="17.893457">
        <ele>79.5</ele>
        <time>2014-10-11T14:31:00Z</time>
      </trkpt>
      <trkpt lat="59.122535" lon="17.893586">
        <ele>79.6</ele>
        <time>2014-10-11T14:31:01Z</time>
      </trkpt>
      <trkpt lat="59.122559" lon="17.893727">
        <ele>79.7</ele>
        <time>2014-10-11T14:31:02Z</time>
      </trkpt>
      <trkpt lat="59.122588" lon="17.893853">
        <ele>79.8</ele>
        <time>2014-10-11T14:31:03Z</time>
      </trkpt>
      <trkpt lat="59.122618" lon="17.893992">
        <ele>79.8</ele>
        <time>2014-10-11T14:31:04Z</time>
      </trkpt>
      <trkpt lat="59.122648" lon="17.894117">
        <ele>79.9</ele>
        <time>2014-10-11T14:31:05Z</time>
      </trkpt>
      <trkpt lat="59.122679" lon="17.894239">
        <ele>80</ele>
        <time>2014-10-11T14:31:06Z</time>
      </trkpt>
      <trkpt lat="59.122714" lon="17.89438">
        <ele>80.1</ele>
        <time>2014-10-11T14:31:07Z</time>
      </trkpt>
      <trkpt lat="59.12275" lon="17.894507">
        <ele>80.2</ele>
        <time>2014-10-11T14:31:08Z</time>
      </trkpt>
      <trkpt lat="59.122776" lon="17.894634">
        <ele>80.3</ele>
        <time>2014-10-11T14:31:09Z</time>
      </trkpt>
      <trkpt lat="59.122803" lon="17.894787">
        <ele>80.4</ele>
        <time>2014-10-11T14:31:10Z</time>
      </trkpt>
      <trkpt lat="59.122828" lon="17.894917">
        <ele>80.5</ele>
        <time>2014-10-11T14:31:11Z</time>
      </trkpt>
      <trkpt lat="59.122855" lon="17.895065">
        <ele>80.7</ele>
        <time>2014-10-11T14:31:12Z</time>
      </trkpt>
      <trkpt lat="59.122872" lon="17.895204">
        <ele>80.7</ele>
        <time>2014-10-11T14:31:13Z</time>
      </trkpt>
      <trkpt lat="59.122888" lon="17.895336">
        <ele>80.8</ele>
        <time>2014-10-11T14:31:14Z</time>
      </trkpt>
      <trkpt lat="59.122904" lon="17.895494">
        <ele>80.9</ele>
        <time>2014-10-11T14:31:15Z</time>
      </trkpt>
      <trkpt lat="59.122913" lon="17.895646">
        <ele>81</ele>
        <time>2014-10-11T14:31:16Z</time>
      </trkpt>
      <trkpt lat="59.122926" lon="17.895804">
        <ele>80.9</ele>
        <time>2014-10-11T14:31:17Z</time>
      </trkpt>
      <trkpt lat="59.122934" lon="17.895969">
        <ele>80.8</ele>
        <time>2014-10-11T14:31:18Z</time>
      </trkpt>
      <trkpt lat="59.122942" lon="17.896104">
        <ele>80.7</ele>
        <time>2014-10-11T14:31:19Z</time>
      </trkpt>
      <trkpt lat="59.122945" lon="17.896277">
        <ele>80.6</ele>
        <time>2014-10-11T14:31:20Z</time>
      </trkpt>
      <trkpt lat="59.122944" lon="17.896443">
        <ele>80.4</ele>
        <time>2014-10-11T14:31:21Z</time>
      </trkpt>
      <trkpt lat="59.122939" lon="17.896604">
        <ele>80.3</ele>
        <time>2014-10-11T14:31:22Z</time>
      </trkpt>
      <trkpt lat="59.122931" lon="17.896784">
        <ele>80.2</ele>
        <time>2014-10-11T14:31:23Z</time>
      </trkpt>
      <trkpt lat="59.122921" lon="17.896959">
        <ele>80.1</ele>
        <time>2014-10-11T14:31:24Z</time>
      </trkpt>
      <trkpt lat="59.122908" lon="17.89712">
        <ele>79.9</ele>
        <time>2014-10-11T14:31:25Z</time>
      </trkpt>
      <trkpt lat="59.122893" lon="17.897306">
        <ele>79.4</ele>
        <time>2014-10-11T14:31:26Z</time>
      </trkpt>
      <trkpt lat="59.122879" lon="17.897454">
        <ele>79</ele>
        <time>2014-10-11T14:31:27Z</time>
      </trkpt>
      <trkpt lat="59.122861" lon="17.897633">
        <ele>78.6</ele>
        <time>2014-10-11T14:31:28Z</time>
      </trkpt>
      <trkpt lat="59.12284" lon="17.8978">
        <ele>78.2</ele>
        <time>2014-10-11T14:31:29Z</time>
      </trkpt>
      <trkpt lat="59.122826" lon="17.897958">
        <ele>77.8</ele>
        <time>2014-10-11T14:31:30Z</time>
      </trkpt>
      <trkpt lat="59.122801" lon="17.898138">
        <ele>77.4</ele>
        <time>2014-10-11T14:31:31Z</time>
      </trkpt>
      <trkpt lat="59.122779" lon="17.898303">
        <ele>77.1</ele>
        <time>2014-10-11T14:31:32Z</time>
      </trkpt>
      <trkpt lat="59.122762" lon="17.898465">
        <ele>76.7</ele>
        <time>2014-10-11T14:31:33Z</time>
      </trkpt>
      <trkpt lat="59.122746" lon="17.898626">
        <ele>76.4</ele>
        <time>2014-10-11T14:31:34Z</time>
      </trkpt>
      <trkpt lat="59.12273" lon="17.898789">
        <ele>76.2</ele>
        <time>2014-10-11T14:31:35Z</time>
      </trkpt>
      <trkpt lat="59.122709" lon="17.898949">
        <ele>76.1</ele>
        <time>2014-10-11T14:31:36Z</time>
      </trkpt>
      <trkpt lat="59.122681" lon="17.899103">
        <ele>76</ele>
        <time>2014-10-11T14:31:37Z</time>
      </trkpt>
      <trkpt lat="59.12267" lon="17.89928">
        <ele>75.8</ele>
        <time>2014-10-11T14:31:38Z</time>
      </trkpt>
      <trkpt lat="59.122643" lon="17.899451">
        <ele>75.8</ele>
        <time>2014-10-11T14:31:39Z</time>
      </trkpt>
      <trkpt lat="59.122639" lon="17.899636">
        <ele>75.6</ele>
        <time>2014-10-11T14:31:40Z</time>
      </trkpt>
      <trkpt lat="59.122626" lon="17.899808">
        <ele>75.6</ele>
        <time>2014-10-11T14:31:41Z</time>
      </trkpt>
      <trkpt lat="59.122607" lon="17.899978">
        <ele>75.6</ele>
        <time>2014-10-11T14:31:42Z</time>
      </trkpt>
      <trkpt lat="59.122603" lon="17.900146">
        <ele>75.6</ele>
        <time>2014-10-11T14:31:43Z</time>
      </trkpt>
      <trkpt lat="59.122605" lon="17.900322">
        <ele>75.5</ele>
        <time>2014-10-11T14:31:44Z</time>
      </trkpt>
      <trkpt lat="59.122617" lon="17.900486">
        <ele>75.4</ele>
        <time>2014-10-11T14:31:45Z</time>
      </trkpt>
      <trkpt lat="59.12263" lon="17.900643">
        <ele>75.4</ele>
        <time>2014-10-11T14:31:46Z</time>
      </trkpt>
      <trkpt lat="59.122662" lon="17.900784">
        <ele>75.2</ele>
        <time>2014-10-11T14:31:47Z</time>
      </trkpt>
      <trkpt lat="59.122686" lon="17.900945">
        <ele>75.1</ele>
        <time>2014-10-11T14:31:48Z</time>
      </trkpt>
      <trkpt lat="59.122712" lon="17.901115">
        <ele>75</ele>
        <time>2014-10-11T14:31:49Z</time>
      </trkpt>
      <trkpt lat="59.122743" lon="17.901273">
        <ele>74.8</ele>
        <time>2014-10-11T14:31:50Z</time>
      </trkpt>
      <trkpt lat="59.122779" lon="17.901424">
        <ele>74.7</ele>
        <time>2014-10-11T14:31:51Z</time>
      </trkpt>
      <trkpt lat="59.122821" lon="17.901567">
        <ele>74.5</ele>
        <time>2014-10-11T14:31:52Z</time>
      </trkpt>
      <trkpt lat="59.122866" lon="17.901719">
        <ele>74.3</ele>
        <time>2014-10-11T14:31:53Z</time>
      </trkpt>
      <trkpt lat="59.122916" lon="17.901845">
        <ele>74</ele>
        <time>2014-10-11T14:31:54Z</time>
      </trkpt>
      <trkpt lat="59.122965" lon="17.901971">
        <ele>73.6</ele>
        <time>2014-10-11T14:31:55Z</time>
      </trkpt>
      <trkpt lat="59.123014" lon="17.902105">
        <ele>73.2</ele>
        <time>2014-10-11T14:31:56Z</time>
      </trkpt>
      <trkpt lat="59.123057" lon="17.902229">
        <ele>72.9</ele>
        <time>2014-10-11T14:31:57Z</time>
      </trkpt>
      <trkpt lat="59.123103" lon="17.902369">
        <ele>72.6</ele>
        <time>2014-10-11T14:31:58Z</time>
      </trkpt>
      <trkpt lat="59.123175" lon="17.902476">
        <ele>72.1</ele>
        <time>2014-10-11T14:31:59Z</time>
      </trkpt>
      <trkpt lat="59.123227" lon="17.902618">
        <ele>71.9</ele>
        <time>2014-10-11T14:32:00Z</time>
      </trkpt>
      <trkpt lat="59.123277" lon="17.902784">
        <ele>71.7</ele>
        <time>2014-10-11T14:32:01Z</time>
      </trkpt>
      <trkpt lat="59.12333" lon="17.902911">
        <ele>71.5</ele>
        <time>2014-10-11T14:32:02Z</time>
      </trkpt>
      <trkpt lat="59.123385" lon="17.903034">
        <ele>71.3</ele>
        <time>2014-10-11T14:32:03Z</time>
      </trkpt>
      <trkpt lat="59.123444" lon="17.90316">
        <ele>71.1</ele>
        <time>2014-10-11T14:32:04Z</time>
      </trkpt>
      <trkpt lat="59.123488" lon="17.903276">
        <ele>71</ele>
        <time>2014-10-11T14:32:05Z</time>
      </trkpt>
      <trkpt lat="59.123546" lon="17.90338">
        <ele>70.9</ele>
        <time>2014-10-11T14:32:06Z</time>
      </trkpt>
      <trkpt lat="59.123608" lon="17.9035">
        <ele>70.9</ele>
        <time>2014-10-11T14:32:07Z</time>
      </trkpt>
      <trkpt lat="59.123676" lon="17.90362">
        <ele>70.9</ele>
        <time>2014-10-11T14:32:08Z</time>
      </trkpt>
      <trkpt lat="59.123743" lon="17.903752">
        <ele>71</ele>
        <time>2014-10-11T14:32:09Z</time>
      </trkpt>
      <trkpt lat="59.123808" lon="17.903888">
        <ele>70.5</ele>
        <time>2014-10-11T14:32:10Z</time>
      </trkpt>
      <trkpt lat="59.123884" lon="17.904027">
        <ele>69.9</ele>
        <time>2014-10-11T14:32:11Z</time>
      </trkpt>
      <trkpt lat="59.123958" lon="17.904163">
        <ele>69.4</ele>
        <time>2014-10-11T14:32:12Z</time>
      </trkpt>
      <trkpt lat="59.124024" lon="17.904285">
        <ele>69</ele>
        <time>2014-10-11T14:32:13Z</time>
      </trkpt>
      <trkpt lat="59.124097" lon="17.904444">
        <ele>68.7</ele>
        <time>2014-10-11T14:32:14Z</time>
      </trkpt>
      <trkpt lat="59.124169" lon="17.904595">
        <ele>68.5</ele>
        <time>2014-10-11T14:32:15Z</time>
      </trkpt>
      <trkpt lat="59.124247" lon="17.90475">
        <ele>68.6</ele>
        <time>2014-10-11T14:32:16Z</time>
      </trkpt>
      <trkpt lat="59.124317" lon="17.90491">
        <ele>68.8</ele>
        <time>2014-10-11T14:32:17Z</time>
      </trkpt>
      <trkpt lat="59.124383" lon="17.9051">
        <ele>69.3</ele>
        <time>2014-10-11T14:32:18Z</time>
      </trkpt>
      <trkpt lat="59.124457" lon="17.905246">
        <ele>69.7</ele>
        <time>2014-10-11T14:32:19Z</time>
      </trkpt>
      <trkpt lat="59.124525" lon="17.905376">
        <ele>70</ele>
        <time>2014-10-11T14:32:20Z</time>
      </trkpt>
      <trkpt lat="59.124597" lon="17.905514">
        <ele>70.3</ele>
        <time>2014-10-11T14:32:21Z</time>
      </trkpt>
      <trkpt lat="59.124666" lon="17.905656">
        <ele>70.3</ele>
        <time>2014-10-11T14:32:22Z</time>
      </trkpt>
      <trkpt lat="59.12473" lon="17.90578">
        <ele>70.3</ele>
        <time>2014-10-11T14:32:23Z</time>
      </trkpt>
      <trkpt lat="59.124793" lon="17.905913">
        <ele>70.4</ele>
        <time>2014-10-11T14:32:24Z</time>
      </trkpt>
      <trkpt lat="59.124848" lon="17.906061">
        <ele>70.7</ele>
        <time>2014-10-11T14:32:25Z</time>
      </trkpt>
      <trkpt lat="59.124899" lon="17.906169">
        <ele>70.8</ele>
        <time>2014-10-11T14:32:26Z</time>
      </trkpt>
      <trkpt lat="59.124962" lon="17.906305">
        <ele>71</ele>
        <time>2014-10-11T14:32:27Z</time>
      </trkpt>
      <trkpt lat="59.125016" lon="17.906444">
        <ele>71.3</ele>
        <time>2014-10-11T14:32:28Z</time>
      </trkpt>
      <trkpt lat="59.125062" lon="17.906582">
        <ele>71.8</ele>
        <time>2014-10-11T14:32:29Z</time>
      </trkpt>
      <trkpt lat="59.125111" lon="17.906747">
        <ele>72.4</ele>
        <time>2014-10-11T14:32:30Z</time>
      </trkpt>
      <trkpt lat="59.125146" lon="17.906909">
        <ele>73.1</ele>
        <time>2014-10-11T14:32:31Z</time>
      </trkpt>
      <trkpt lat="59.12519" lon="17.907071">
        <ele>73.8</ele>
        <time>2014-10-11T14:32:32Z</time>
      </trkpt>
      <trkpt lat="59.125221" lon="17.907234">
        <ele>73.8</ele>
        <time>2014-10-11T14:32:33Z</time>
      </trkpt>
      <trkpt lat="59.125247" lon="17.907397">
        <ele>73.8</ele>
        <time>2014-10-11T14:32:34Z</time>
      </trkpt>
      <trkpt lat="59.125286" lon="17.907562">
        <ele>73.9</ele>
        <time>2014-10-11T14:32:35Z</time>
      </trkpt>
      <trkpt lat="59.125326" lon="17.90771">
        <ele>73.9</ele>
        <time>2014-10-11T14:32:36Z</time>
      </trkpt>
      <trkpt lat="59.125377" lon="17.90788">
        <ele>74</ele>
        <time>2014-10-11T14:32:37Z</time>
      </trkpt>
      <trkpt lat="59.125424" lon="17.908052">
        <ele>74.3</ele>
        <time>2014-10-11T14:32:38Z</time>
      </trkpt>
      <trkpt lat="59.125458" lon="17.908214">
        <ele>74.5</ele>
        <time>2014-10-11T14:32:39Z</time>
      </trkpt>
      <trkpt lat="59.125517" lon="17.908362">
        <ele>74.5</ele>
        <time>2014-10-11T14:32:40Z</time>
      </trkpt>
      <trkpt lat="59.125578" lon="17.908497">
        <ele>74.4</ele>
        <time>2014-10-11T14:32:41Z</time>
      </trkpt>
      <trkpt lat="59.125635" lon="17.908643">
        <ele>74.4</ele>
        <time>2014-10-11T14:32:42Z</time>
      </trkpt>
      <trkpt lat="59.125685" lon="17.90879">
        <ele>74.3</ele>
        <time>2014-10-11T14:32:43Z</time>
      </trkpt>
      <trkpt lat="59.125751" lon="17.908935">
        <ele>73.8</ele>
        <time>2014-10-11T14:32:44Z</time>
      </trkpt>
      <trkpt lat="59.125812" lon="17.909046">
        <ele>73.4</ele>
        <time>2014-10-11T14:32:45Z</time>
      </trkpt>
      <trkpt lat="59.125898" lon="17.909167">
        <ele>73</ele>
        <time>2014-10-11T14:32:46Z</time>
      </trkpt>
      <trkpt lat="59.125968" lon="17.90927">
        <ele>72.7</ele>
        <time>2014-10-11T14:32:47Z</time>
      </trkpt>
      <trkpt lat="59.126053" lon="17.909347">
        <ele>72.4</ele>
        <time>2014-10-11T14:32:48Z</time>
      </trkpt>
      <trkpt lat="59.126141" lon="17.9094">
        <ele>72.1</ele>
        <time>2014-10-11T14:32:49Z</time>
      </trkpt>
      <trkpt lat="59.12623" lon="17.909446">
        <ele>71.9</ele>
        <time>2014-10-11T14:32:50Z</time>
      </trkpt>
      <trkpt lat="59.126326" lon="17.909494">
        <ele>71.7</ele>
        <time>2014-10-11T14:32:51Z</time>
      </trkpt>
      <trkpt lat="59.126418" lon="17.90954">
        <ele>71.6</ele>
        <time>2014-10-11T14:32:52Z</time>
      </trkpt>
      <trkpt lat="59.12651" lon="17.90957">
        <ele>71.4</ele>
        <time>2014-10-11T14:32:53Z</time>
      </trkpt>
      <trkpt lat="59.126599" lon="17.909586">
        <ele>71.2</ele>
        <time>2014-10-11T14:32:54Z</time>
      </trkpt>
      <trkpt lat="59.12669" lon="17.909614">
        <ele>71</ele>
        <time>2014-10-11T14:32:55Z</time>
      </trkpt>
      <trkpt lat="59.12678" lon="17.909638">
        <ele>70.8</ele>
        <time>2014-10-11T14:32:56Z</time>
      </trkpt>
      <trkpt lat="59.126873" lon="17.909664">
        <ele>70.6</ele>
        <time>2014-10-11T14:32:57Z</time>
      </trkpt>
      <trkpt lat="59.126956" lon="17.909706">
        <ele>70.5</ele>
        <time>2014-10-11T14:32:58Z</time>
      </trkpt>
      <trkpt lat="59.12704" lon="17.909753">
        <ele>70.3</ele>
        <time>2014-10-11T14:32:59Z</time>
      </trkpt>
      <trkpt lat="59.127513" lon="17.910454">
        <ele>67.8</ele>
        <time>2014-10-11T14:33:06Z</time>
      </trkpt>
      <trkpt lat="59.127556" lon="17.910587">
        <ele>67.3</ele>
        <time>2014-10-11T14:33:07Z</time>
      </trkpt>
      <trkpt lat="59.127603" lon="17.910704">
        <ele>66.9</ele>
        <time>2014-10-11T14:33:08Z</time>
      </trkpt>
      <trkpt lat="59.12765" lon="17.910828">
        <ele>66.4</ele>
        <time>2014-10-11T14:33:09Z</time>
      </trkpt>
      <trkpt lat="59.127694" lon="17.91095">
        <ele>66.1</ele>
        <time>2014-10-11T14:33:10Z</time>
      </trkpt>
      <trkpt lat="59.127718" lon="17.911077">
        <ele>65.9</ele>
        <time>2014-10-11T14:33:11Z</time>
      </trkpt>
      <trkpt lat="59.127746" lon="17.911205">
        <ele>65.6</ele>
        <time>2014-10-11T14:33:12Z</time>
      </trkpt>
      <trkpt lat="59.127777" lon="17.911337">
        <ele>65.5</ele>
        <time>2014-10-11T14:33:13Z</time>
      </trkpt>
      <trkpt lat="59.127795" lon="17.911449">
        <ele>65.5</ele>
        <time>2014-10-11T14:33:14Z</time>
      </trkpt>
      <trkpt lat="59.127816" lon="17.911583">
        <ele>65.6</ele>
        <time>2014-10-11T14:33:15Z</time>
      </trkpt>
      <trkpt lat="59.127826" lon="17.911721">
        <ele>65.6</ele>
        <time>2014-10-11T14:33:16Z</time>
      </trkpt>
      <trkpt lat="59.127836" lon="17.911835">
        <ele>65.7</ele>
        <time>2014-10-11T14:33:17Z</time>
      </trkpt>
      <trkpt lat="59.127841" lon="17.911961">
        <ele>65.8</ele>
        <time>2014-10-11T14:33:18Z</time>
      </trkpt>
      <trkpt lat="59.127842" lon="17.912069">
        <ele>65.9</ele>
        <time>2014-10-11T14:33:19Z</time>
      </trkpt>
      <trkpt lat="59.127847" lon="17.912197">
        <ele>65.9</ele>
        <time>2014-10-11T14:33:20Z</time>
      </trkpt>
      <trkpt lat="59.127847" lon="17.912312">
        <ele>65.9</ele>
        <time>2014-10-11T14:33:21Z</time>
      </trkpt>
      <trkpt lat="59.127841" lon="17.912427">
        <ele>65.8</ele>
        <time>2014-10-11T14:33:22Z</time>
      </trkpt>
      <trkpt lat="59.127831" lon="17.912551">
        <ele>65.8</ele>
        <time>2014-10-11T14:33:23Z</time>
      </trkpt>
      <trkpt lat="59.127831" lon="17.912647">
        <ele>65.8</ele>
        <time>2014-10-11T14:33:24Z</time>
      </trkpt>
      <trkpt lat="59.127824" lon="17.912766">
        <ele>65.7</ele>
        <time>2014-10-11T14:33:25Z</time>
      </trkpt>
      <trkpt lat="59.127823" lon="17.912894">
        <ele>65.7</ele>
        <time>2014-10-11T14:33:26Z</time>
      </trkpt>
      <trkpt lat="59.127819" lon="17.913005">
        <ele>65.7</ele>
        <time>2014-10-11T14:33:27Z</time>
      </trkpt>
      <trkpt lat="59.127812" lon="17.913128">
        <ele>65.7</ele>
        <time>2014-10-11T14:33:28Z</time>
      </trkpt>
      <trkpt lat="59.127811" lon="17.91325">
        <ele>65.8</ele>
        <time>2014-10-11T14:33:29Z</time>
      </trkpt>
      <trkpt lat="59.127813" lon="17.913357">
        <ele>65.9</ele>
        <time>2014-10-11T14:33:30Z</time>
      </trkpt>
      <trkpt lat="59.12781" lon="17.91348">
        <ele>65.9</ele>
        <time>2014-10-11T14:33:31Z</time>
      </trkpt>
      <trkpt lat="59.127806" lon="17.9136">
        <ele>66</ele>
        <time>2014-10-11T14:33:32Z</time>
      </trkpt>
      <trkpt lat="59.127809" lon="17.913714">
        <ele>66.1</ele>
        <time>2014-10-11T14:33:33Z</time>
      </trkpt>
      <trkpt lat="59.127812" lon="17.91385">
        <ele>66.1</ele>
        <time>2014-10-11T14:33:34Z</time>
      </trkpt>
      <trkpt lat="59.127813" lon="17.91398">
        <ele>66.1</ele>
        <time>2014-10-11T14:33:35Z</time>
      </trkpt>
      <trkpt lat="59.127807" lon="17.914099">
        <ele>66.1</ele>
        <time>2014-10-11T14:33:36Z</time>
      </trkpt>
      <trkpt lat="59.127814" lon="17.914233">
        <ele>66.1</ele>
        <time>2014-10-11T14:33:37Z</time>
      </trkpt>
      <trkpt lat="59.127819" lon="17.914348">
        <ele>66.2</ele>
        <time>2014-10-11T14:33:38Z</time>
      </trkpt>
      <trkpt lat="59.127821" lon="17.914469">
        <ele>66.2</ele>
        <time>2014-10-11T14:33:39Z</time>
      </trkpt>
      <trkpt lat="59.127818" lon="17.914584">
        <ele>66.2</ele>
        <time>2014-10-11T14:33:40Z</time>
      </trkpt>
      <trkpt lat="59.12781" lon="17.914704">
        <ele>66.1</ele>
        <time>2014-10-11T14:33:41Z</time>
      </trkpt>
      <trkpt lat="59.127806" lon="17.914827">
        <ele>66.1</ele>
        <time>2014-10-11T14:33:42Z</time>
      </trkpt>
      <trkpt lat="59.127812" lon="17.91495">
        <ele>66.1</ele>
        <time>2014-10-11T14:33:43Z</time>
      </trkpt>
      <trkpt lat="59.127811" lon="17.915092">
        <ele>66.1</ele>
        <time>2014-10-11T14:33:44Z</time>
      </trkpt>
      <trkpt lat="59.127828" lon="17.915228">
        <ele>66.3</ele>
        <time>2014-10-11T14:33:45Z</time>
      </trkpt>
      <trkpt lat="59.127836" lon="17.915352">
        <ele>66.3</ele>
        <time>2014-10-11T14:33:46Z</time>
      </trkpt>
      <trkpt lat="59.127854" lon="17.915463">
        <ele>66.5</ele>
        <time>2014-10-11T14:33:47Z</time>
      </trkpt>
      <trkpt lat="59.127854" lon="17.915594">
        <ele>66.7</ele>
        <time>2014-10-11T14:33:48Z</time>
      </trkpt>
      <trkpt lat="59.127868" lon="17.91569">
        <ele>66.9</ele>
        <time>2014-10-11T14:33:49Z</time>
      </trkpt>
      <trkpt lat="59.127882" lon="17.915799">
        <ele>67.1</ele>
        <time>2014-10-11T14:33:50Z</time>
      </trkpt>
      <trkpt lat="59.127884" lon="17.915918">
        <ele>67.3</ele>
        <time>2014-10-11T14:33:51Z</time>
      </trkpt>
      <trkpt lat="59.127891" lon="17.916045">
        <ele>67.5</ele>
        <time>2014-10-11T14:33:52Z</time>
      </trkpt>
      <trkpt lat="59.127895" lon="17.916175">
        <ele>67.7</ele>
        <time>2014-10-11T14:33:53Z</time>
      </trkpt>
      <trkpt lat="59.127915" lon="17.916299">
        <ele>68</ele>
        <time>2014-10-11T14:33:54Z</time>
      </trkpt>
      <trkpt lat="59.127917" lon="17.916413">
        <ele>68.2</ele>
        <time>2014-10-11T14:33:55Z</time>
      </trkpt>
      <trkpt lat="59.127924" lon="17.91653">
        <ele>68.4</ele>
        <time>2014-10-11T14:33:56Z</time>
      </trkpt>
      <trkpt lat="59.127924" lon="17.916657">
        <ele>68.6</ele>
        <time>2014-10-11T14:33:57Z</time>
      </trkpt>
      <trkpt lat="59.12793" lon="17.916781">
        <ele>68.8</ele>
        <time>2014-10-11T14:33:58Z</time>
      </trkpt>
      <trkpt lat="59.127936" lon="17.91691">
        <ele>69</ele>
        <time>2014-10-11T14:33:59Z</time>
      </trkpt>
      <trkpt lat="59.127951" lon="17.917033">
        <ele>69.3</ele>
        <time>2014-10-11T14:34:00Z</time>
      </trkpt>
      <trkpt lat="59.127961" lon="17.917148">
        <ele>69.5</ele>
        <time>2014-10-11T14:34:01Z</time>
      </trkpt>
      <trkpt lat="59.127969" lon="17.917263">
        <ele>69.6</ele>
        <time>2014-10-11T14:34:02Z</time>
      </trkpt>
      <trkpt lat="59.127976" lon="17.917367">
        <ele>69.7</ele>
        <time>2014-10-11T14:34:03Z</time>
      </trkpt>
      <trkpt lat="59.127983" lon="17.917467">
        <ele>69.8</ele>
        <time>2014-10-11T14:34:04Z</time>
      </trkpt>
      <trkpt lat="59.127993" lon="17.917591">
        <ele>69.9</ele>
        <time>2014-10-11T14:34:05Z</time>
      </trkpt>
      <trkpt lat="59.127996" lon="17.917702">
        <ele>70</ele>
        <time>2014-10-11T14:34:06Z</time>
      </trkpt>
      <trkpt lat="59.128" lon="17.917806">
        <ele>70</ele>
        <time>2014-10-11T14:34:07Z</time>
      </trkpt>
      <trkpt lat="59.128007" lon="17.917919">
        <ele>70.1</ele>
        <time>2014-10-11T14:34:08Z</time>
      </trkpt>
      <trkpt lat="59.128011" lon="17.918025">
        <ele>70.2</ele>
        <time>2014-10-11T14:34:09Z</time>
      </trkpt>
      <trkpt lat="59.12801" lon="17.918154">
        <ele>70.3</ele>
        <time>2014-10-11T14:34:10Z</time>
      </trkpt>
      <trkpt lat="59.128009" lon="17.918289">
        <ele>70.5</ele>
        <time>2014-10-11T14:34:11Z</time>
      </trkpt>
      <trkpt lat="59.128015" lon="17.918404">
        <ele>70.6</ele>
        <time>2014-10-11T14:34:12Z</time>
      </trkpt>
      <trkpt lat="59.128018" lon="17.918519">
        <ele>70.8</ele>
        <time>2014-10-11T14:34:13Z</time>
      </trkpt>
      <trkpt lat="59.128021" lon="17.918633">
        <ele>70.9</ele>
        <time>2014-10-11T14:34:14Z</time>
      </trkpt>
      <trkpt lat="59.12803" lon="17.918719">
        <ele>71.1</ele>
        <time>2014-10-11T14:34:15Z</time>
      </trkpt>
      <trkpt lat="59.128033" lon="17.91883">
        <ele>71.2</ele>
        <time>2014-10-11T14:34:16Z</time>
      </trkpt>
      <trkpt lat="59.128041" lon="17.918941">
        <ele>71.4</ele>
        <time>2014-10-11T14:34:17Z</time>
      </trkpt>
      <trkpt lat="59.128051" lon="17.919052">
        <ele>71.5</ele>
        <time>2014-10-11T14:34:18Z</time>
      </trkpt>
      <trkpt lat="59.128061" lon="17.919163">
        <ele>71.7</ele>
        <time>2014-10-11T14:34:19Z</time>
      </trkpt>
      <trkpt lat="59.128061" lon="17.919284">
        <ele>71.8</ele>
        <time>2014-10-11T14:34:20Z</time>
      </trkpt>
      <trkpt lat="59.128071" lon="17.919375">
        <ele>72</ele>
        <time>2014-10-11T14:34:21Z</time>
      </trkpt>
      <trkpt lat="59.128073" lon="17.919457">
        <ele>72</ele>
        <time>2014-10-11T14:34:22Z</time>
      </trkpt>
      <trkpt lat="59.128072" lon="17.919557">
        <ele>72.1</ele>
        <time>2014-10-11T14:34:23Z</time>
      </trkpt>
      <trkpt lat="59.128071" lon="17.919661">
        <ele>72.2</ele>
        <time>2014-10-11T14:34:24Z</time>
      </trkpt>
      <trkpt lat="59.128068" lon="17.919741">
        <ele>72.4</ele>
        <time>2014-10-11T14:34:25Z</time>
      </trkpt>
      <trkpt lat="59.128067" lon="17.91983">
        <ele>72.5</ele>
        <time>2014-10-11T14:34:26Z</time>
      </trkpt>
      <trkpt lat="59.128058" lon="17.919918">
        <ele>72.6</ele>
        <time>2014-10-11T14:34:27Z</time>
      </trkpt>
      <trkpt lat="59.128067" lon="17.920002">
        <ele>72.8</ele>
        <time>2014-10-11T14:34:28Z</time>
      </trkpt>
      <trkpt lat="59.128065" lon="17.920101">
        <ele>73</ele>
        <time>2014-10-11T14:34:29Z</time>
      </trkpt>
      <trkpt lat="59.128065" lon="17.920188">
        <ele>73.1</ele>
        <time>2014-10-11T14:34:30Z</time>
      </trkpt>
      <trkpt lat="59.128066" lon="17.920265">
        <ele>73.3</ele>
        <time>2014-10-11T14:34:31Z</time>
      </trkpt>
      <trkpt lat="59.128052" lon="17.920344">
        <ele>73.4</ele>
        <time>2014-10-11T14:34:32Z</time>
      </trkpt>
      <trkpt lat="59.128051" lon="17.920433">
        <ele>73.5</ele>
        <time>2014-10-11T14:34:33Z</time>
      </trkpt>
      <trkpt lat="59.128044" lon="17.920518">
        <ele>73.7</ele>
        <time>2014-10-11T14:34:34Z</time>
      </trkpt>
      <trkpt lat="59.12804" lon="17.920599">
        <ele>73.8</ele>
        <time>2014-10-11T14:34:35Z</time>
      </trkpt>
      <trkpt lat="59.12804" lon="17.920691">
        <ele>74.1</ele>
        <time>2014-10-11T14:34:36Z</time>
      </trkpt>
      <trkpt lat="59.128034" lon="17.920776">
        <ele>74.2</ele>
        <time>2014-10-11T14:34:37Z</time>
      </trkpt>
      <trkpt lat="59.128028" lon="17.920869">
        <ele>74.4</ele>
        <time>2014-10-11T14:34:38Z</time>
      </trkpt>
      <trkpt lat="59.128029" lon="17.920943">
        <ele>74.6</ele>
        <time>2014-10-11T14:34:39Z</time>
      </trkpt>
      <trkpt lat="59.128022" lon="17.92105">
        <ele>74.8</ele>
        <time>2014-10-11T14:34:40Z</time>
      </trkpt>
      <trkpt lat="59.128013" lon="17.921139">
        <ele>75</ele>
        <time>2014-10-11T14:34:41Z</time>
      </trkpt>
      <trkpt lat="59.127997" lon="17.921223">
        <ele>75.1</ele>
        <time>2014-10-11T14:34:42Z</time>
      </trkpt>
      <trkpt lat="59.127981" lon="17.921305">
        <ele>75.3</ele>
        <time>2014-10-11T14:34:43Z</time>
      </trkpt>
      <trkpt lat="59.127988" lon="17.921402">
        <ele>75.7</ele>
        <time>2014-10-11T14:34:44Z</time>
      </trkpt>
      <trkpt lat="59.12798" lon="17.92148">
        <ele>76</ele>
        <time>2014-10-11T14:34:45Z</time>
      </trkpt>
      <trkpt lat="59.127969" lon="17.921545">
        <ele>76.2</ele>
        <time>2014-10-11T14:34:46Z</time>
      </trkpt>
      <trkpt lat="59.127956" lon="17.92161">
        <ele>76.4</ele>
        <time>2014-10-11T14:34:47Z</time>
      </trkpt>
      <trkpt lat="59.127937" lon="17.921673">
        <ele>76.6</ele>
        <time>2014-10-11T14:34:48Z</time>
      </trkpt>
      <trkpt lat="59.127927" lon="17.921731">
        <ele>76.7</ele>
        <time>2014-10-11T14:34:49Z</time>
      </trkpt>
      <trkpt lat="59.127918" lon="17.92181">
        <ele>77</ele>
        <time>2014-10-11T14:34:50Z</time>
      </trkpt>
      <trkpt lat="59.127903" lon="17.921883">
        <ele>77.1</ele>
        <time>2014-10-11T14:34:51Z</time>
      </trkpt>
      <trkpt lat="59.127888" lon="17.922014">
        <ele>77.4</ele>
        <time>2014-10-11T14:34:53Z</time>
      </trkpt>
      <trkpt lat="59.12789" lon="17.922086">
        <ele>77.7</ele>
        <time>2014-10-11T14:34:54Z</time>
      </trkpt>
      <trkpt lat="59.127884" lon="17.922138">
        <ele>77.4</ele>
        <time>2014-10-11T14:34:55Z</time>
      </trkpt>
      <trkpt lat="59.127961" lon="17.922229">
        <ele>77.5</ele>
        <time>2014-10-11T14:35:53Z</time>
      </trkpt>
      <trkpt lat="59.127994" lon="17.922244">
        <ele>77.6</ele>
        <time>2014-10-11T14:35:54Z</time>
      </trkpt>
      <trkpt lat="59.128029" lon="17.922255">
        <ele>77.6</ele>
        <time>2014-10-11T14:35:55Z</time>
      </trkpt>
      <trkpt lat="59.128067" lon="17.922252">
        <ele>77.6</ele>
        <time>2014-10-11T14:35:56Z</time>
      </trkpt>
      <trkpt lat="59.1281" lon="17.922236">
        <ele>77.8</ele>
        <time>2014-10-11T14:35:57Z</time>
      </trkpt>
      <trkpt lat="59.128133" lon="17.922208">
        <ele>77.9</ele>
        <time>2014-10-11T14:35:58Z</time>
      </trkpt>
      <trkpt lat="59.128165" lon="17.922174">
        <ele>78</ele>
        <time>2014-10-11T14:35:59Z</time>
      </trkpt>
      <trkpt lat="59.128199" lon="17.922135">
        <ele>78.2</ele>
        <time>2014-10-11T14:36:00Z</time>
      </trkpt>
      <trkpt lat="59.128258" lon="17.922042">
        <ele>78.3</ele>
        <time>2014-10-11T14:36:01Z</time>
      </trkpt>
      <trkpt lat="59.128292" lon="17.92198">
        <ele>78.1</ele>
        <time>2014-10-11T14:36:02Z</time>
      </trkpt>
      <trkpt lat="59.128341" lon="17.92191">
        <ele>78</ele>
        <time>2014-10-11T14:36:03Z</time>
      </trkpt>
      <trkpt lat="59.128384" lon="17.921846">
        <ele>77.9</ele>
        <time>2014-10-11T14:36:04Z</time>
      </trkpt>
      <trkpt lat="59.128424" lon="17.921776">
        <ele>77.7</ele>
        <time>2014-10-11T14:36:05Z</time>
      </trkpt>
      <trkpt lat="59.128465" lon="17.921713">
        <ele>77.6</ele>
        <time>2014-10-11T14:36:06Z</time>
      </trkpt>
      <trkpt lat="59.128505" lon="17.921649">
        <ele>77.5</ele>
        <time>2014-10-11T14:36:07Z</time>
      </trkpt>
      <trkpt lat="59.128544" lon="17.921592">
        <ele>77.4</ele>
        <time>2014-10-11T14:36:08Z</time>
      </trkpt>
      <trkpt lat="59.128583" lon="17.921542">
        <ele>77.4</ele>
        <time>2014-10-11T14:36:09Z</time>
      </trkpt>
      <trkpt lat="59.128616" lon="17.9215">
        <ele>77.3</ele>
        <time>2014-10-11T14:36:10Z</time>
      </trkpt>
      <trkpt lat="59.128656" lon="17.921435">
        <ele>77.2</ele>
        <time>2014-10-11T14:36:11Z</time>
      </trkpt>
      <trkpt lat="59.128694" lon="17.921378">
        <ele>77.2</ele>
        <time>2014-10-11T14:36:12Z</time>
      </trkpt>
      <trkpt lat="59.128723" lon="17.921332">
        <ele>77.1</ele>
        <time>2014-10-11T14:36:13Z</time>
      </trkpt>
      <trkpt lat="59.128759" lon="17.921283">
        <ele>77.1</ele>
        <time>2014-10-11T14:36:14Z</time>
      </trkpt>
      <trkpt lat="59.128786" lon="17.921232">
        <ele>77.2</ele>
        <time>2014-10-11T14:36:15Z</time>
      </trkpt>
      <trkpt lat="59.128818" lon="17.92119">
        <ele>77.2</ele>
        <time>2014-10-11T14:36:16Z</time>
      </trkpt>
      <trkpt lat="59.12885" lon="17.921143">
        <ele>77.3</ele>
        <time>2014-10-11T14:36:17Z</time>
      </trkpt>
      <trkpt lat="59.128878" lon="17.9211">
        <ele>77.4</ele>
        <time>2014-10-11T14:36:18Z</time>
      </trkpt>
      <trkpt lat="59.128908" lon="17.92105">
        <ele>77.5</ele>
        <time>2014-10-11T14:36:19Z</time>
      </trkpt>
      <trkpt lat="59.128935" lon="17.921004">
        <ele>77.5</ele>
        <time>2014-10-11T14:36:20Z</time>
      </trkpt>
      <trkpt lat="59.128965" lon="17.920956">
        <ele>77.6</ele>
        <time>2014-10-11T14:36:21Z</time>
      </trkpt>
      <trkpt lat="59.128998" lon="17.920906">
        <ele>77.7</ele>
        <time>2014-10-11T14:36:22Z</time>
      </trkpt>
      <trkpt lat="59.129028" lon="17.920862">
        <ele>77.7</ele>
        <time>2014-10-11T14:36:23Z</time>
      </trkpt>
      <trkpt lat="59.129061" lon="17.920814">
        <ele>77.8</ele>
        <time>2014-10-11T14:36:24Z</time>
      </trkpt>
      <trkpt lat="59.129107" lon="17.920736">
        <ele>77.8</ele>
        <time>2014-10-11T14:36:25Z</time>
      </trkpt>
      <trkpt lat="59.129146" lon="17.920672">
        <ele>77.9</ele>
        <time>2014-10-11T14:36:26Z</time>
      </trkpt>
      <trkpt lat="59.129193" lon="17.920594">
        <ele>77.9</ele>
        <time>2014-10-11T14:36:27Z</time>
      </trkpt>
      <trkpt lat="59.129236" lon="17.920532">
        <ele>78</ele>
        <time>2014-10-11T14:36:28Z</time>
      </trkpt>
      <trkpt lat="59.129276" lon="17.920472">
        <ele>78</ele>
        <time>2014-10-11T14:36:29Z</time>
      </trkpt>
      <trkpt lat="59.12932" lon="17.920418">
        <ele>78.1</ele>
        <time>2014-10-11T14:36:30Z</time>
      </trkpt>
      <trkpt lat="59.129369" lon="17.920371">
        <ele>78.2</ele>
        <time>2014-10-11T14:36:31Z</time>
      </trkpt>
      <trkpt lat="59.129417" lon="17.920306">
        <ele>78.4</ele>
        <time>2014-10-11T14:36:32Z</time>
      </trkpt>
      <trkpt lat="59.129459" lon="17.920253">
        <ele>78.6</ele>
        <time>2014-10-11T14:36:33Z</time>
      </trkpt>
      <trkpt lat="59.129502" lon="17.920212">
        <ele>78.7</ele>
        <time>2014-10-11T14:36:34Z</time>
      </trkpt>
      <trkpt lat="59.129543" lon="17.920159">
        <ele>78.9</ele>
        <time>2014-10-11T14:36:35Z</time>
      </trkpt>
      <trkpt lat="59.129598" lon="17.920101">
        <ele>79.1</ele>
        <time>2014-10-11T14:36:36Z</time>
      </trkpt>
      <trkpt lat="59.129645" lon="17.920055">
        <ele>79.2</ele>
        <time>2014-10-11T14:36:37Z</time>
      </trkpt>
      <trkpt lat="59.129697" lon="17.920002">
        <ele>79.4</ele>
        <time>2014-10-11T14:36:38Z</time>
      </trkpt>
      <trkpt lat="59.129747" lon="17.919931">
        <ele>79.6</ele>
        <time>2014-10-11T14:36:39Z</time>
      </trkpt>
      <trkpt lat="59.129799" lon="17.919851">
        <ele>79.7</ele>
        <time>2014-10-11T14:36:40Z</time>
      </trkpt>
      <trkpt lat="59.129846" lon="17.919782">
        <ele>79.8</ele>
        <time>2014-10-11T14:36:41Z</time>
      </trkpt>
      <trkpt lat="59.129901" lon="17.919714">
        <ele>79.9</ele>
        <time>2014-10-11T14:36:42Z</time>
      </trkpt>
      <trkpt lat="59.129943" lon="17.919653">
        <ele>79.9</ele>
        <time>2014-10-11T14:36:43Z</time>
      </trkpt>
      <trkpt lat="59.129987" lon="17.919589">
        <ele>80</ele>
        <time>2014-10-11T14:36:44Z</time>
      </trkpt>
      <trkpt lat="59.130023" lon="17.919524">
        <ele>80</ele>
        <time>2014-10-11T14:36:45Z</time>
      </trkpt>
      <trkpt lat="59.130069" lon="17.919459">
        <ele>80</ele>
        <time>2014-10-11T14:36:46Z</time>
      </trkpt>
      <trkpt lat="59.130115" lon="17.919379">
        <ele>80</ele>
        <time>2014-10-11T14:36:47Z</time>
      </trkpt>
      <trkpt lat="59.130162" lon="17.91931">
        <ele>79.9</ele>
        <time>2014-10-11T14:36:48Z</time>
      </trkpt>
      <trkpt lat="59.130207" lon="17.919238">
        <ele>79.9</ele>
        <time>2014-10-11T14:36:49Z</time>
      </trkpt>
      <trkpt lat="59.130249" lon="17.919159">
        <ele>79.8</ele>
        <time>2014-10-11T14:36:50Z</time>
      </trkpt>
      <trkpt lat="59.130294" lon="17.919077">
        <ele>79.7</ele>
        <time>2014-10-11T14:36:51Z</time>
      </trkpt>
      <trkpt lat="59.130332" lon="17.919005">
        <ele>79.5</ele>
        <time>2014-10-11T14:36:52Z</time>
      </trkpt>
      <trkpt lat="59.130382" lon="17.918933">
        <ele>79.4</ele>
        <time>2014-10-11T14:36:53Z</time>
      </trkpt>
      <trkpt lat="59.130428" lon="17.918857">
        <ele>79.3</ele>
        <time>2014-10-11T14:36:54Z</time>
      </trkpt>
      <trkpt lat="59.130467" lon="17.91879">
        <ele>79.3</ele>
        <time>2014-10-11T14:36:55Z</time>
      </trkpt>
      <trkpt lat="59.130517" lon="17.918717">
        <ele>79.4</ele>
        <time>2014-10-11T14:36:56Z</time>
      </trkpt>
      <trkpt lat="59.130562" lon="17.918636">
        <ele>79.4</ele>
        <time>2014-10-11T14:36:57Z</time>
      </trkpt>
      <trkpt lat="59.130609" lon="17.918543">
        <ele>79.4</ele>
        <time>2014-10-11T14:36:58Z</time>
      </trkpt>
      <trkpt lat="59.130655" lon="17.918473">
        <ele>79.5</ele>
        <time>2014-10-11T14:36:59Z</time>
      </trkpt>
      <trkpt lat="59.130712" lon="17.918401">
        <ele>79.6</ele>
        <time>2014-10-11T14:37:00Z</time>
      </trkpt>
      <trkpt lat="59.130761" lon="17.91834">
        <ele>79.7</ele>
        <time>2014-10-11T14:37:01Z</time>
      </trkpt>
      <trkpt lat="59.130813" lon="17.918268">
        <ele>79.7</ele>
        <time>2014-10-11T14:37:02Z</time>
      </trkpt>
      <trkpt lat="59.130869" lon="17.918189">
        <ele>79.8</ele>
        <time>2014-10-11T14:37:03Z</time>
      </trkpt>
      <trkpt lat="59.130925" lon="17.918146">
        <ele>80</ele>
        <time>2014-10-11T14:37:04Z</time>
      </trkpt>
      <trkpt lat="59.130992" lon="17.918105">
        <ele>80.2</ele>
        <time>2014-10-11T14:37:05Z</time>
      </trkpt>
      <trkpt lat="59.131044" lon="17.918085">
        <ele>80.4</ele>
        <time>2014-10-11T14:37:06Z</time>
      </trkpt>
      <trkpt lat="59.131109" lon="17.918052">
        <ele>80.6</ele>
        <time>2014-10-11T14:37:07Z</time>
      </trkpt>
      <trkpt lat="59.131171" lon="17.918034">
        <ele>80.9</ele>
        <time>2014-10-11T14:37:08Z</time>
      </trkpt>
      <trkpt lat="59.131231" lon="17.918049">
        <ele>81.2</ele>
        <time>2014-10-11T14:37:09Z</time>
      </trkpt>
      <trkpt lat="59.131299" lon="17.918047">
        <ele>81.4</ele>
        <time>2014-10-11T14:37:10Z</time>
      </trkpt>
      <trkpt lat="59.131362" lon="17.918048">
        <ele>81.6</ele>
        <time>2014-10-11T14:37:11Z</time>
      </trkpt>
      <trkpt lat="59.131431" lon="17.918046">
        <ele>81.8</ele>
        <time>2014-10-11T14:37:12Z</time>
      </trkpt>
      <trkpt lat="59.131498" lon="17.918059">
        <ele>82</ele>
        <time>2014-10-11T14:37:13Z</time>
      </trkpt>
      <trkpt lat="59.131562" lon="17.918051">
        <ele>82.1</ele>
        <time>2014-10-11T14:37:14Z</time>
      </trkpt>
      <trkpt lat="59.131635" lon="17.918065">
        <ele>82.4</ele>
        <time>2014-10-11T14:37:15Z</time>
      </trkpt>
      <trkpt lat="59.131716" lon="17.918051">
        <ele>82.5</ele>
        <time>2014-10-11T14:37:16Z</time>
      </trkpt>
      <trkpt lat="59.131776" lon="17.918046">
        <ele>82.7</ele>
        <time>2014-10-11T14:37:17Z</time>
      </trkpt>
      <trkpt lat="59.131849" lon="17.918037">
        <ele>82.8</ele>
        <time>2014-10-11T14:37:18Z</time>
      </trkpt>
      <trkpt lat="59.131922" lon="17.918022">
        <ele>83</ele>
        <time>2014-10-11T14:37:19Z</time>
      </trkpt>
      <trkpt lat="59.132003" lon="17.918">
        <ele>83.1</ele>
        <time>2014-10-11T14:37:20Z</time>
      </trkpt>
      <trkpt lat="59.132074" lon="17.917996">
        <ele>83.3</ele>
        <time>2014-10-11T14:37:21Z</time>
      </trkpt>
      <trkpt lat="59.132151" lon="17.917983">
        <ele>83.3</ele>
        <time>2014-10-11T14:37:22Z</time>
      </trkpt>
      <trkpt lat="59.132232" lon="17.917967">
        <ele>83.3</ele>
        <time>2014-10-11T14:37:23Z</time>
      </trkpt>
      <trkpt lat="59.132311" lon="17.917959">
        <ele>83.4</ele>
        <time>2014-10-11T14:37:24Z</time>
      </trkpt>
      <trkpt lat="59.132395" lon="17.917949">
        <ele>83.5</ele>
        <time>2014-10-11T14:37:25Z</time>
      </trkpt>
      <trkpt lat="59.13247" lon="17.91795">
        <ele>83.5</ele>
        <time>2014-10-11T14:37:26Z</time>
      </trkpt>
      <trkpt lat="59.132546" lon="17.917965">
        <ele>83.7</ele>
        <time>2014-10-11T14:37:27Z</time>
      </trkpt>
      <trkpt lat="59.132624" lon="17.917959">
        <ele>83.7</ele>
        <time>2014-10-11T14:37:28Z</time>
      </trkpt>
      <trkpt lat="59.132707" lon="17.917966">
        <ele>83.8</ele>
        <time>2014-10-11T14:37:29Z</time>
      </trkpt>
      <trkpt lat="59.132787" lon="17.917982">
        <ele>83.9</ele>
        <time>2014-10-11T14:37:30Z</time>
      </trkpt>
      <trkpt lat="59.132874" lon="17.918009">
        <ele>84.1</ele>
        <time>2014-10-11T14:37:31Z</time>
      </trkpt>
      <trkpt lat="59.132958" lon="17.917999">
        <ele>84.1</ele>
        <time>2014-10-11T14:37:32Z</time>
      </trkpt>
      <trkpt lat="59.133056" lon="17.917997">
        <ele>84</ele>
        <time>2014-10-11T14:37:33Z</time>
      </trkpt>
      <trkpt lat="59.133135" lon="17.918001">
        <ele>83.9</ele>
        <time>2014-10-11T14:37:34Z</time>
      </trkpt>
      <trkpt lat="59.133229" lon="17.917992">
        <ele>83.8</ele>
        <time>2014-10-11T14:37:35Z</time>
      </trkpt>
      <trkpt lat="59.133312" lon="17.917983">
        <ele>83.7</ele>
        <time>2014-10-11T14:37:36Z</time>
      </trkpt>
      <trkpt lat="59.133387" lon="17.917973">
        <ele>83.6</ele>
        <time>2014-10-11T14:37:37Z</time>
      </trkpt>
      <trkpt lat="59.133466" lon="17.917967">
        <ele>83.5</ele>
        <time>2014-10-11T14:37:38Z</time>
      </trkpt>
      <trkpt lat="59.13354" lon="17.917976">
        <ele>83.4</ele>
        <time>2014-10-11T14:37:39Z</time>
      </trkpt>
      <trkpt lat="59.13362" lon="17.917957">
        <ele>83.3</ele>
        <time>2014-10-11T14:37:40Z</time>
      </trkpt>
      <trkpt lat="59.133698" lon="17.917944">
        <ele>83.2</ele>
        <time>2014-10-11T14:37:41Z</time>
      </trkpt>
      <trkpt lat="59.133781" lon="17.917944">
        <ele>83.1</ele>
        <time>2014-10-11T14:37:42Z</time>
      </trkpt>
      <trkpt lat="59.133863" lon="17.917948">
        <ele>83</ele>
        <time>2014-10-11T14:37:43Z</time>
      </trkpt>
      <trkpt lat="59.133926" lon="17.917998">
        <ele>83.1</ele>
        <time>2014-10-11T14:37:44Z</time>
      </trkpt>
      <trkpt lat="59.133997" lon="17.918041">
        <ele>83.2</ele>
        <time>2014-10-11T14:37:45Z</time>
      </trkpt>
      <trkpt lat="59.134076" lon="17.918093">
        <ele>83.2</ele>
        <time>2014-10-11T14:37:46Z</time>
      </trkpt>
      <trkpt lat="59.134156" lon="17.918138">
        <ele>83.3</ele>
        <time>2014-10-11T14:37:47Z</time>
      </trkpt>
      <trkpt lat="59.134236" lon="17.918209">
        <ele>83.5</ele>
        <time>2014-10-11T14:37:48Z</time>
      </trkpt>
      <trkpt lat="59.134305" lon="17.918263">
        <ele>83.6</ele>
        <time>2014-10-11T14:37:49Z</time>
      </trkpt>
      <trkpt lat="59.134369" lon="17.918358">
        <ele>83.8</ele>
        <time>2014-10-11T14:37:50Z</time>
      </trkpt>
      <trkpt lat="59.134435" lon="17.918443">
        <ele>84.1</ele>
        <time>2014-10-11T14:37:51Z</time>
      </trkpt>
      <trkpt lat="59.134498" lon="17.918567">
        <ele>84.4</ele>
        <time>2014-10-11T14:37:52Z</time>
      </trkpt>
      <trkpt lat="59.134556" lon="17.918702">
        <ele>84.9</ele>
        <time>2014-10-11T14:37:53Z</time>
      </trkpt>
      <trkpt lat="59.134607" lon="17.91883">
        <ele>85.1</ele>
        <time>2014-10-11T14:37:54Z</time>
      </trkpt>
      <trkpt lat="59.134651" lon="17.918973">
        <ele>85.3</ele>
        <time>2014-10-11T14:37:55Z</time>
      </trkpt>
      <trkpt lat="59.13469" lon="17.919114">
        <ele>85.5</ele>
        <time>2014-10-11T14:37:56Z</time>
      </trkpt>
      <trkpt lat="59.134731" lon="17.919253">
        <ele>85.7</ele>
        <time>2014-10-11T14:37:57Z</time>
      </trkpt>
      <trkpt lat="59.134783" lon="17.919385">
        <ele>85.8</ele>
        <time>2014-10-11T14:37:58Z</time>
      </trkpt>
      <trkpt lat="59.13483" lon="17.919532">
        <ele>86</ele>
        <time>2014-10-11T14:37:59Z</time>
      </trkpt>
      <trkpt lat="59.134889" lon="17.919668">
        <ele>86.1</ele>
        <time>2014-10-11T14:38:00Z</time>
      </trkpt>
      <trkpt lat="59.135139" lon="17.920144">
        <ele>86.7</ele>
        <time>2014-10-11T14:38:04Z</time>
      </trkpt>
      <trkpt lat="59.135192" lon="17.920255">
        <ele>86.8</ele>
        <time>2014-10-11T14:38:05Z</time>
      </trkpt>
      <trkpt lat="59.13525" lon="17.920375">
        <ele>86.9</ele>
        <time>2014-10-11T14:38:06Z</time>
      </trkpt>
      <trkpt lat="59.135311" lon="17.92047">
        <ele>87</ele>
        <time>2014-10-11T14:38:07Z</time>
      </trkpt>
      <trkpt lat="59.135369" lon="17.920556">
        <ele>87</ele>
        <time>2014-10-11T14:38:08Z</time>
      </trkpt>
      <trkpt lat="59.135429" lon="17.920698">
        <ele>87</ele>
        <time>2014-10-11T14:38:09Z</time>
      </trkpt>
      <trkpt lat="59.135487" lon="17.920801">
        <ele>87</ele>
        <time>2014-10-11T14:38:10Z</time>
      </trkpt>
      <trkpt lat="59.135532" lon="17.920925">
        <ele>86.9</ele>
        <time>2014-10-11T14:38:11Z</time>
      </trkpt>
      <trkpt lat="59.13558" lon="17.921021">
        <ele>86.9</ele>
        <time>2014-10-11T14:38:12Z</time>
      </trkpt>
      <trkpt lat="59.135634" lon="17.921145">
        <ele>86.8</ele>
        <time>2014-10-11T14:38:13Z</time>
      </trkpt>
      <trkpt lat="59.135688" lon="17.921281">
        <ele>86.7</ele>
        <time>2014-10-11T14:38:14Z</time>
      </trkpt>
      <trkpt lat="59.135741" lon="17.921382">
        <ele>86.5</ele>
        <time>2014-10-11T14:38:15Z</time>
      </trkpt>
      <trkpt lat="59.135791" lon="17.921497">
        <ele>86.4</ele>
        <time>2014-10-11T14:38:16Z</time>
      </trkpt>
      <trkpt lat="59.135845" lon="17.921615">
        <ele>86.3</ele>
        <time>2014-10-11T14:38:17Z</time>
      </trkpt>
      <trkpt lat="59.135885" lon="17.921752">
        <ele>86.1</ele>
        <time>2014-10-11T14:38:18Z</time>
      </trkpt>
      <trkpt lat="59.135944" lon="17.921874">
        <ele>85.9</ele>
        <time>2014-10-11T14:38:19Z</time>
      </trkpt>
      <trkpt lat="59.135991" lon="17.922009">
        <ele>85.7</ele>
        <time>2014-10-11T14:38:20Z</time>
      </trkpt>
      <trkpt lat="59.136059" lon="17.922146">
        <ele>85.5</ele>
        <time>2014-10-11T14:38:21Z</time>
      </trkpt>
      <trkpt lat="59.136121" lon="17.922295">
        <ele>85.3</ele>
        <time>2014-10-11T14:38:22Z</time>
      </trkpt>
      <trkpt lat="59.136176" lon="17.922448">
        <ele>85.2</ele>
        <time>2014-10-11T14:38:23Z</time>
      </trkpt>
      <trkpt lat="59.136244" lon="17.922591">
        <ele>85</ele>
        <time>2014-10-11T14:38:24Z</time>
      </trkpt>
      <trkpt lat="59.136307" lon="17.922746">
        <ele>84.8</ele>
        <time>2014-10-11T14:38:25Z</time>
      </trkpt>
      <trkpt lat="59.136374" lon="17.922881">
        <ele>84.6</ele>
        <time>2014-10-11T14:38:26Z</time>
      </trkpt>
      <trkpt lat="59.136442" lon="17.923021">
        <ele>84.3</ele>
        <time>2014-10-11T14:38:27Z</time>
      </trkpt>
      <trkpt lat="59.136501" lon="17.923162">
        <ele>83.9</ele>
        <time>2014-10-11T14:38:28Z</time>
      </trkpt>
      <trkpt lat="59.136567" lon="17.923303">
        <ele>83.5</ele>
        <time>2014-10-11T14:38:29Z</time>
      </trkpt>
      <trkpt lat="59.136633" lon="17.923457">
        <ele>83</ele>
        <time>2014-10-11T14:38:30Z</time>
      </trkpt>
      <trkpt lat="59.136681" lon="17.92361">
        <ele>82.6</ele>
        <time>2014-10-11T14:38:31Z</time>
      </trkpt>
      <trkpt lat="59.136752" lon="17.92377">
        <ele>82</ele>
        <time>2014-10-11T14:38:32Z</time>
      </trkpt>
      <trkpt lat="59.136827" lon="17.923924">
        <ele>81.7</ele>
        <time>2014-10-11T14:38:33Z</time>
      </trkpt>
      <trkpt lat="59.136892" lon="17.924081">
        <ele>81.5</ele>
        <time>2014-10-11T14:38:34Z</time>
      </trkpt>
      <trkpt lat="59.136962" lon="17.924254">
        <ele>81.2</ele>
        <time>2014-10-11T14:38:35Z</time>
      </trkpt>
      <trkpt lat="59.13703" lon="17.92444">
        <ele>81.1</ele>
        <time>2014-10-11T14:38:36Z</time>
      </trkpt>
      <trkpt lat="59.137096" lon="17.924609">
        <ele>81</ele>
        <time>2014-10-11T14:38:37Z</time>
      </trkpt>
      <trkpt lat="59.137173" lon="17.924785">
        <ele>80.8</ele>
        <time>2014-10-11T14:38:38Z</time>
      </trkpt>
      <trkpt lat="59.137242" lon="17.92496">
        <ele>80.6</ele>
        <time>2014-10-11T14:38:39Z</time>
      </trkpt>
      <trkpt lat="59.137309" lon="17.925159">
        <ele>80.4</ele>
        <time>2014-10-11T14:38:40Z</time>
      </trkpt>
      <trkpt lat="59.137379" lon="17.92536">
        <ele>80.1</ele>
        <time>2014-10-11T14:38:41Z</time>
      </trkpt>
      <trkpt lat="59.137448" lon="17.925553">
        <ele>79.6</ele>
        <time>2014-10-11T14:38:42Z</time>
      </trkpt>
      <trkpt lat="59.137537" lon="17.925741">
        <ele>78.9</ele>
        <time>2014-10-11T14:38:43Z</time>
      </trkpt>
      <trkpt lat="59.137611" lon="17.925941">
        <ele>78.3</ele>
        <time>2014-10-11T14:38:44Z</time>
      </trkpt>
      <trkpt lat="59.13769" lon="17.926155">
        <ele>77.8</ele>
        <time>2014-10-11T14:38:45Z</time>
      </trkpt>
      <trkpt lat="59.137777" lon="17.926405">
        <ele>77.3</ele>
        <time>2014-10-11T14:38:46Z</time>
      </trkpt>
      <trkpt lat="59.137857" lon="17.926615">
        <ele>76.9</ele>
        <time>2014-10-11T14:38:47Z</time>
      </trkpt>
      <trkpt lat="59.137949" lon="17.926801">
        <ele>76.4</ele>
        <time>2014-10-11T14:38:48Z</time>
      </trkpt>
      <trkpt lat="59.138046" lon="17.926996">
        <ele>75.9</ele>
        <time>2014-10-11T14:38:49Z</time>
      </trkpt>
      <trkpt lat="59.138149" lon="17.927178">
        <ele>75.4</ele>
        <time>2014-10-11T14:38:50Z</time>
      </trkpt>
      <trkpt lat="59.138254" lon="17.927341">
        <ele>74.8</ele>
        <time>2014-10-11T14:38:51Z</time>
      </trkpt>
      <trkpt lat="59.138372" lon="17.927503">
        <ele>74</ele>
        <time>2014-10-11T14:38:52Z</time>
      </trkpt>
      <trkpt lat="59.138469" lon="17.927662">
        <ele>73.3</ele>
        <time>2014-10-11T14:38:53Z</time>
      </trkpt>
      <trkpt lat="59.138572" lon="17.92786">
        <ele>72.5</ele>
        <time>2014-10-11T14:38:54Z</time>
      </trkpt>
      <trkpt lat="59.138667" lon="17.928027">
        <ele>71.6</ele>
        <time>2014-10-11T14:38:55Z</time>
      </trkpt>
      <trkpt lat="59.13876" lon="17.928199">
        <ele>70.6</ele>
        <time>2014-10-11T14:38:56Z</time>
      </trkpt>
      <trkpt lat="59.138862" lon="17.928384">
        <ele>70</ele>
        <time>2014-10-11T14:38:57Z</time>
      </trkpt>
      <trkpt lat="59.138973" lon="17.92854">
        <ele>69.2</ele>
        <time>2014-10-11T14:38:58Z</time>
      </trkpt>
      <trkpt lat="59.139064" lon="17.928725">
        <ele>68.5</ele>
        <time>2014-10-11T14:38:59Z</time>
      </trkpt>
      <trkpt lat="59.139158" lon="17.928891">
        <ele>67.6</ele>
        <time>2014-10-11T14:39:00Z</time>
      </trkpt>
      <trkpt lat="59.139249" lon="17.929057">
        <ele>66.5</ele>
        <time>2014-10-11T14:39:01Z</time>
      </trkpt>
      <trkpt lat="59.139334" lon="17.929219">
        <ele>65.2</ele>
        <time>2014-10-11T14:39:02Z</time>
      </trkpt>
      <trkpt lat="59.139422" lon="17.929375">
        <ele>63.8</ele>
        <time>2014-10-11T14:39:03Z</time>
      </trkpt>
      <trkpt lat="59.139505" lon="17.929557">
        <ele>62</ele>
        <time>2014-10-11T14:39:04Z</time>
      </trkpt>
      <trkpt lat="59.139594" lon="17.929765">
        <ele>60</ele>
        <time>2014-10-11T14:39:05Z</time>
      </trkpt>
      <trkpt lat="59.139685" lon="17.929901">
        <ele>59.6</ele>
        <time>2014-10-11T14:39:06Z</time>
      </trkpt>
      <trkpt lat="59.139786" lon="17.930016">
        <ele>59.4</ele>
        <time>2014-10-11T14:39:07Z</time>
      </trkpt>
      <trkpt lat="59.139886" lon="17.930133">
        <ele>59</ele>
        <time>2014-10-11T14:39:08Z</time>
      </trkpt>
      <trkpt lat="59.139984" lon="17.930216">
        <ele>58.9</ele>
        <time>2014-10-11T14:39:09Z</time>
      </trkpt>
      <trkpt lat="59.140089" lon="17.930283">
        <ele>58.8</ele>
        <time>2014-10-11T14:39:10Z</time>
      </trkpt>
      <trkpt lat="59.140183" lon="17.930382">
        <ele>58.4</ele>
        <time>2014-10-11T14:39:11Z</time>
      </trkpt>
      <trkpt lat="59.140284" lon="17.930464">
        <ele>58.5</ele>
        <time>2014-10-11T14:39:12Z</time>
      </trkpt>
      <trkpt lat="59.14038" lon="17.930541">
        <ele>58.7</ele>
        <time>2014-10-11T14:39:13Z</time>
      </trkpt>
      <trkpt lat="59.140478" lon="17.930619">
        <ele>59.5</ele>
        <time>2014-10-11T14:39:14Z</time>
      </trkpt>
      <trkpt lat="59.140579" lon="17.930727">
        <ele>60.4</ele>
        <time>2014-10-11T14:39:15Z</time>
      </trkpt>
      <trkpt lat="59.14068" lon="17.930802">
        <ele>61.3</ele>
        <time>2014-10-11T14:39:16Z</time>
      </trkpt>
      <trkpt lat="59.140782" lon="17.930894">
        <ele>62</ele>
        <time>2014-10-11T14:39:17Z</time>
      </trkpt>
      <trkpt lat="59.140883" lon="17.930999">
        <ele>62.5</ele>
        <time>2014-10-11T14:39:18Z</time>
      </trkpt>
      <trkpt lat="59.140982" lon="17.931104">
        <ele>62.8</ele>
        <time>2014-10-11T14:39:19Z</time>
      </trkpt>
      <trkpt lat="59.14108" lon="17.931234">
        <ele>62.9</ele>
        <time>2014-10-11T14:39:20Z</time>
      </trkpt>
      <trkpt lat="59.141173" lon="17.931379">
        <ele>62.6</ele>
        <time>2014-10-11T14:39:21Z</time>
      </trkpt>
      <trkpt lat="59.141253" lon="17.931512">
        <ele>62.2</ele>
        <time>2014-10-11T14:39:22Z</time>
      </trkpt>
      <trkpt lat="59.141333" lon="17.931661">
        <ele>62.2</ele>
        <time>2014-10-11T14:39:23Z</time>
      </trkpt>
      <trkpt lat="59.141415" lon="17.931832">
        <ele>62.1</ele>
        <time>2014-10-11T14:39:24Z</time>
      </trkpt>
      <trkpt lat="59.141484" lon="17.931989">
        <ele>62</ele>
        <time>2014-10-11T14:39:25Z</time>
      </trkpt>
      <trkpt lat="59.141563" lon="17.932126">
        <ele>62.4</ele>
        <time>2014-10-11T14:39:26Z</time>
      </trkpt>
      <trkpt lat="59.14187" lon="17.932724">
        <ele>64.6</ele>
        <time>2014-10-11T14:39:30Z</time>
      </trkpt>
      <trkpt lat="59.14196" lon="17.932865">
        <ele>65</ele>
        <time>2014-10-11T14:39:31Z</time>
      </trkpt>
      <trkpt lat="59.142048" lon="17.932988">
        <ele>65.3</ele>
        <time>2014-10-11T14:39:32Z</time>
      </trkpt>
      <trkpt lat="59.142139" lon="17.933108">
        <ele>65.3</ele>
        <time>2014-10-11T14:39:33Z</time>
      </trkpt>
      <trkpt lat="59.142242" lon="17.933226">
        <ele>65.5</ele>
        <time>2014-10-11T14:39:34Z</time>
      </trkpt>
      <trkpt lat="59.142333" lon="17.933329">
        <ele>65.5</ele>
        <time>2014-10-11T14:39:35Z</time>
      </trkpt>
      <trkpt lat="59.14242" lon="17.933417">
        <ele>65.5</ele>
        <time>2014-10-11T14:39:36Z</time>
      </trkpt>
      <trkpt lat="59.142506" lon="17.933511">
        <ele>65.4</ele>
        <time>2014-10-11T14:39:37Z</time>
      </trkpt>
      <trkpt lat="59.142579" lon="17.933574">
        <ele>65.4</ele>
        <time>2014-10-11T14:39:38Z</time>
      </trkpt>
      <trkpt lat="59.142655" lon="17.933641">
        <ele>65.4</ele>
        <time>2014-10-11T14:39:39Z</time>
      </trkpt>
      <trkpt lat="59.142733" lon="17.933716">
        <ele>65.2</ele>
        <time>2014-10-11T14:39:40Z</time>
      </trkpt>
      <trkpt lat="59.142795" lon="17.933789">
        <ele>65.1</ele>
        <time>2014-10-11T14:39:41Z</time>
      </trkpt>
      <trkpt lat="59.142868" lon="17.933839">
        <ele>65.4</ele>
        <time>2014-10-11T14:39:42Z</time>
      </trkpt>
      <trkpt lat="59.142927" lon="17.933886">
        <ele>65.5</ele>
        <time>2014-10-11T14:39:43Z</time>
      </trkpt>
      <trkpt lat="59.142979" lon="17.933949">
        <ele>65.4</ele>
        <time>2014-10-11T14:39:44Z</time>
      </trkpt>
      <trkpt lat="59.14304" lon="17.933995">
        <ele>65.4</ele>
        <time>2014-10-11T14:39:45Z</time>
      </trkpt>
      <trkpt lat="59.143093" lon="17.934045">
        <ele>65.3</ele>
        <time>2014-10-11T14:39:46Z</time>
      </trkpt>
      <trkpt lat="59.143154" lon="17.93409">
        <ele>65.2</ele>
        <time>2014-10-11T14:39:47Z</time>
      </trkpt>
      <trkpt lat="59.143216" lon="17.934129">
        <ele>65.2</ele>
        <time>2014-10-11T14:39:48Z</time>
      </trkpt>
      <trkpt lat="59.14328" lon="17.934161">
        <ele>65.2</ele>
        <time>2014-10-11T14:39:49Z</time>
      </trkpt>
      <trkpt lat="59.143345" lon="17.934196">
        <ele>65.1</ele>
        <time>2014-10-11T14:39:50Z</time>
      </trkpt>
      <trkpt lat="59.143404" lon="17.934222">
        <ele>65.1</ele>
        <time>2014-10-11T14:39:51Z</time>
      </trkpt>
      <trkpt lat="59.143467" lon="17.934252">
        <ele>65.1</ele>
        <time>2014-10-11T14:39:52Z</time>
      </trkpt>
      <trkpt lat="59.143536" lon="17.934285">
        <ele>65.1</ele>
        <time>2014-10-11T14:39:53Z</time>
      </trkpt>
      <trkpt lat="59.143606" lon="17.934305">
        <ele>65.1</ele>
        <time>2014-10-11T14:39:54Z</time>
      </trkpt>
      <trkpt lat="59.143683" lon="17.934331">
        <ele>65.1</ele>
        <time>2014-10-11T14:39:55Z</time>
      </trkpt>
      <trkpt lat="59.143758" lon="17.934352">
        <ele>65.1</ele>
        <time>2014-10-11T14:39:56Z</time>
      </trkpt>
      <trkpt lat="59.143826" lon="17.934359">
        <ele>64.8</ele>
        <time>2014-10-11T14:39:57Z</time>
      </trkpt>
      <trkpt lat="59.143901" lon="17.934369">
        <ele>64.6</ele>
        <time>2014-10-11T14:39:58Z</time>
      </trkpt>
      <trkpt lat="59.143967" lon="17.934379">
        <ele>64.3</ele>
        <time>2014-10-11T14:39:59Z</time>
      </trkpt>
      <trkpt lat="59.144048" lon="17.934369">
        <ele>64.1</ele>
        <time>2014-10-11T14:40:00Z</time>
      </trkpt>
      <trkpt lat="59.144133" lon="17.934359">
        <ele>63.9</ele>
        <time>2014-10-11T14:40:01Z</time>
      </trkpt>
      <trkpt lat="59.144182" lon="17.934353">
        <ele>63.8</ele>
        <time>2014-10-11T14:40:02Z</time>
      </trkpt>
      <trkpt lat="59.144255" lon="17.934343">
        <ele>63.6</ele>
        <time>2014-10-11T14:40:03Z</time>
      </trkpt>
      <trkpt lat="59.144347" lon="17.934304">
        <ele>63.4</ele>
        <time>2014-10-11T14:40:04Z</time>
      </trkpt>
      <trkpt lat="59.144434" lon="17.93427">
        <ele>63.2</ele>
        <time>2014-10-11T14:40:05Z</time>
      </trkpt>
      <trkpt lat="59.144514" lon="17.934257">
        <ele>63</ele>
        <time>2014-10-11T14:40:06Z</time>
      </trkpt>
      <trkpt lat="59.14459" lon="17.934232">
        <ele>62.8</ele>
        <time>2014-10-11T14:40:07Z</time>
      </trkpt>
      <trkpt lat="59.144677" lon="17.934219">
        <ele>62.8</ele>
        <time>2014-10-11T14:40:08Z</time>
      </trkpt>
      <trkpt lat="59.144765" lon="17.934175">
        <ele>62.9</ele>
        <time>2014-10-11T14:40:09Z</time>
      </trkpt>
      <trkpt lat="59.144838" lon="17.934154">
        <ele>62.9</ele>
        <time>2014-10-11T14:40:10Z</time>
      </trkpt>
      <trkpt lat="59.144917" lon="17.934105">
        <ele>63</ele>
        <time>2014-10-11T14:40:11Z</time>
      </trkpt>
      <trkpt lat="59.145012" lon="17.934058">
        <ele>63.1</ele>
        <time>2014-10-11T14:40:12Z</time>
      </trkpt>
      <trkpt lat="59.14511" lon="17.933999">
        <ele>63.2</ele>
        <time>2014-10-11T14:40:13Z</time>
      </trkpt>
      <trkpt lat="59.145191" lon="17.933944">
        <ele>63.4</ele>
        <time>2014-10-11T14:40:14Z</time>
      </trkpt>
      <trkpt lat="59.145266" lon="17.933899">
        <ele>63.5</ele>
        <time>2014-10-11T14:40:15Z</time>
      </trkpt>
      <trkpt lat="59.145349" lon="17.933843">
        <ele>63.7</ele>
        <time>2014-10-11T14:40:16Z</time>
      </trkpt>
      <trkpt lat="59.145429" lon="17.933779">
        <ele>63.9</ele>
        <time>2014-10-11T14:40:17Z</time>
      </trkpt>
      <trkpt lat="59.145505" lon="17.933716">
        <ele>64.4</ele>
        <time>2014-10-11T14:40:18Z</time>
      </trkpt>
      <trkpt lat="59.145583" lon="17.933648">
        <ele>64.9</ele>
        <time>2014-10-11T14:40:19Z</time>
      </trkpt>
      <trkpt lat="59.145649" lon="17.933573">
        <ele>65.4</ele>
        <time>2014-10-11T14:40:20Z</time>
      </trkpt>
      <trkpt lat="59.14572" lon="17.93349">
        <ele>65.9</ele>
        <time>2014-10-11T14:40:21Z</time>
      </trkpt>
      <trkpt lat="59.14579" lon="17.933406">
        <ele>66.4</ele>
        <time>2014-10-11T14:40:22Z</time>
      </trkpt>
      <trkpt lat="59.145868" lon="17.933324">
        <ele>66.9</ele>
        <time>2014-10-11T14:40:23Z</time>
      </trkpt>
      <trkpt lat="59.145949" lon="17.933259">
        <ele>67.3</ele>
        <time>2014-10-11T14:40:24Z</time>
      </trkpt>
      <trkpt lat="59.146014" lon="17.933131">
        <ele>67.8</ele>
        <time>2014-10-11T14:40:25Z</time>
      </trkpt>
      <trkpt lat="59.146078" lon="17.933018">
        <ele>68.3</ele>
        <time>2014-10-11T14:40:26Z</time>
      </trkpt>
      <trkpt lat="59.146127" lon="17.932943">
        <ele>68.6</ele>
        <time>2014-10-11T14:40:27Z</time>
      </trkpt>
      <trkpt lat="59.146182" lon="17.932828">
        <ele>69.1</ele>
        <time>2014-10-11T14:40:28Z</time>
      </trkpt>
      <trkpt lat="59.146244" lon="17.932738">
        <ele>69.4</ele>
        <time>2014-10-11T14:40:29Z</time>
      </trkpt>
      <trkpt lat="59.146329" lon="17.932656">
        <ele>69.4</ele>
        <time>2014-10-11T14:40:30Z</time>
      </trkpt>
      <trkpt lat="59.146391" lon="17.932543">
        <ele>69.5</ele>
        <time>2014-10-11T14:40:31Z</time>
      </trkpt>
      <trkpt lat="59.146455" lon="17.932438">
        <ele>69.5</ele>
        <time>2014-10-11T14:40:32Z</time>
      </trkpt>
      <trkpt lat="59.146506" lon="17.932329">
        <ele>69.6</ele>
        <time>2014-10-11T14:40:33Z</time>
      </trkpt>
      <trkpt lat="59.146574" lon="17.932207">
        <ele>69.6</ele>
        <time>2014-10-11T14:40:34Z</time>
      </trkpt>
      <trkpt lat="59.146641" lon="17.932098">
        <ele>69.6</ele>
        <time>2014-10-11T14:40:35Z</time>
      </trkpt>
      <trkpt lat="59.146699" lon="17.931991">
        <ele>69.6</ele>
        <time>2014-10-11T14:40:36Z</time>
      </trkpt>
      <trkpt lat="59.146761" lon="17.931879">
        <ele>69.7</ele>
        <time>2014-10-11T14:40:37Z</time>
      </trkpt>
      <trkpt lat="59.146818" lon="17.931767">
        <ele>69.9</ele>
        <time>2014-10-11T14:40:38Z</time>
      </trkpt>
      <trkpt lat="59.146873" lon="17.931658">
        <ele>70</ele>
        <time>2014-10-11T14:40:39Z</time>
      </trkpt>
      <trkpt lat="59.146929" lon="17.931583">
        <ele>70.1</ele>
        <time>2014-10-11T14:40:40Z</time>
      </trkpt>
      <trkpt lat="59.147" lon="17.931487">
        <ele>70.3</ele>
        <time>2014-10-11T14:40:41Z</time>
      </trkpt>
      <trkpt lat="59.147066" lon="17.931384">
        <ele>70.5</ele>
        <time>2014-10-11T14:40:42Z</time>
      </trkpt>
      <trkpt lat="59.147133" lon="17.931291">
        <ele>70.6</ele>
        <time>2014-10-11T14:40:43Z</time>
      </trkpt>
      <trkpt lat="59.147205" lon="17.931197">
        <ele>70.5</ele>
        <time>2014-10-11T14:40:44Z</time>
      </trkpt>
      <trkpt lat="59.147259" lon="17.931105">
        <ele>70.5</ele>
        <time>2014-10-11T14:40:45Z</time>
      </trkpt>
      <trkpt lat="59.147334" lon="17.931026">
        <ele>70.3</ele>
        <time>2014-10-11T14:40:46Z</time>
      </trkpt>
      <trkpt lat="59.147413" lon="17.930945">
        <ele>70</ele>
        <time>2014-10-11T14:40:47Z</time>
      </trkpt>
      <trkpt lat="59.14749" lon="17.930864">
        <ele>69.7</ele>
        <time>2014-10-11T14:40:48Z</time>
      </trkpt>
      <trkpt lat="59.147565" lon="17.930789">
        <ele>69.5</ele>
        <time>2014-10-11T14:40:49Z</time>
      </trkpt>
      <trkpt lat="59.147641" lon="17.930712">
        <ele>69.2</ele>
        <time>2014-10-11T14:40:50Z</time>
      </trkpt>
      <trkpt lat="59.147729" lon="17.930639">
        <ele>68.8</ele>
        <time>2014-10-11T14:40:51Z</time>
      </trkpt>
      <trkpt lat="59.147806" lon="17.930559">
        <ele>68.5</ele>
        <time>2014-10-11T14:40:52Z</time>
      </trkpt>
      <trkpt lat="59.147889" lon="17.930479">
        <ele>68.1</ele>
        <time>2014-10-11T14:40:53Z</time>
      </trkpt>
      <trkpt lat="59.147966" lon="17.930411">
        <ele>68</ele>
        <time>2014-10-11T14:40:54Z</time>
      </trkpt>
      <trkpt lat="59.148052" lon="17.930344">
        <ele>68.1</ele>
        <time>2014-10-11T14:40:55Z</time>
      </trkpt>
      <trkpt lat="59.14812" lon="17.930277">
        <ele>68.1</ele>
        <time>2014-10-11T14:40:56Z</time>
      </trkpt>
      <trkpt lat="59.148179" lon="17.93021">
        <ele>68.1</ele>
        <time>2014-10-11T14:40:57Z</time>
      </trkpt>
      <trkpt lat="59.14825" lon="17.930142">
        <ele>68.1</ele>
        <time>2014-10-11T14:40:58Z</time>
      </trkpt>
      <trkpt lat="59.148328" lon="17.930089">
        <ele>68</ele>
        <time>2014-10-11T14:40:59Z</time>
      </trkpt>
      <trkpt lat="59.148408" lon="17.930043">
        <ele>67.9</ele>
        <time>2014-10-11T14:41:00Z</time>
      </trkpt>
      <trkpt lat="59.148476" lon="17.930002">
        <ele>67.8</ele>
        <time>2014-10-11T14:41:01Z</time>
      </trkpt>
      <trkpt lat="59.148553" lon="17.929954">
        <ele>67.7</ele>
        <time>2014-10-11T14:41:02Z</time>
      </trkpt>
      <trkpt lat="59.14863" lon="17.929901">
        <ele>67.6</ele>
        <time>2014-10-11T14:41:03Z</time>
      </trkpt>
      <trkpt lat="59.148697" lon="17.92986">
        <ele>67.4</ele>
        <time>2014-10-11T14:41:04Z</time>
      </trkpt>
      <trkpt lat="59.148784" lon="17.929816">
        <ele>67.3</ele>
        <time>2014-10-11T14:41:05Z</time>
      </trkpt>
      <trkpt lat="59.148859" lon="17.929772">
        <ele>67.2</ele>
        <time>2014-10-11T14:41:06Z</time>
      </trkpt>
      <trkpt lat="59.148932" lon="17.929725">
        <ele>67.1</ele>
        <time>2014-10-11T14:41:07Z</time>
      </trkpt>
      <trkpt lat="59.149009" lon="17.92969">
        <ele>67</ele>
        <time>2014-10-11T14:41:08Z</time>
      </trkpt>
      <trkpt lat="59.149065" lon="17.929671">
        <ele>67</ele>
        <time>2014-10-11T14:41:09Z</time>
      </trkpt>
      <trkpt lat="59.149143" lon="17.929623">
        <ele>67</ele>
        <time>2014-10-11T14:41:10Z</time>
      </trkpt>
      <trkpt lat="59.149218" lon="17.929585">
        <ele>67</ele>
        <time>2014-10-11T14:41:11Z</time>
      </trkpt>
      <trkpt lat="59.14929" lon="17.929556">
        <ele>67</ele>
        <time>2014-10-11T14:41:12Z</time>
      </trkpt>
      <trkpt lat="59.14936" lon="17.929508">
        <ele>67</ele>
        <time>2014-10-11T14:41:13Z</time>
      </trkpt>
      <trkpt lat="59.149428" lon="17.929478">
        <ele>67</ele>
        <time>2014-10-11T14:41:14Z</time>
      </trkpt>
      <trkpt lat="59.149505" lon="17.929429">
        <ele>67</ele>
        <time>2014-10-11T14:41:15Z</time>
      </trkpt>
      <trkpt lat="59.14958" lon="17.929396">
        <ele>67</ele>
        <time>2014-10-11T14:41:16Z</time>
      </trkpt>
      <trkpt lat="59.149651" lon="17.929363">
        <ele>66.8</ele>
        <time>2014-10-11T14:41:17Z</time>
      </trkpt>
      <trkpt lat="59.149724" lon="17.929322">
        <ele>66.7</ele>
        <time>2014-10-11T14:41:18Z</time>
      </trkpt>
      <trkpt lat="59.149794" lon="17.929301">
        <ele>66.5</ele>
        <time>2014-10-11T14:41:19Z</time>
      </trkpt>
      <trkpt lat="59.149873" lon="17.929247">
        <ele>66.3</ele>
        <time>2014-10-11T14:41:20Z</time>
      </trkpt>
      <trkpt lat="59.149956" lon="17.92921">
        <ele>66.1</ele>
        <time>2014-10-11T14:41:21Z</time>
      </trkpt>
      <trkpt lat="59.150034" lon="17.929184">
        <ele>65.9</ele>
        <time>2014-10-11T14:41:22Z</time>
      </trkpt>
      <trkpt lat="59.150113" lon="17.929162">
        <ele>65.7</ele>
        <time>2014-10-11T14:41:23Z</time>
      </trkpt>
      <trkpt lat="59.150189" lon="17.929143">
        <ele>65.5</ele>
        <time>2014-10-11T14:41:24Z</time>
      </trkpt>
      <trkpt lat="59.150275" lon="17.929103">
        <ele>65.3</ele>
        <time>2014-10-11T14:41:25Z</time>
      </trkpt>
      <trkpt lat="59.150359" lon="17.929065">
        <ele>65.1</ele>
        <time>2014-10-11T14:41:26Z</time>
      </trkpt>
      <trkpt lat="59.150443" lon="17.929037">
        <ele>64.9</ele>
        <time>2014-10-11T14:41:27Z</time>
      </trkpt>
      <trkpt lat="59.150533" lon="17.929003">
        <ele>64.6</ele>
        <time>2014-10-11T14:41:28Z</time>
      </trkpt>
      <trkpt lat="59.15062" lon="17.928968">
        <ele>64.3</ele>
        <time>2014-10-11T14:41:29Z</time>
      </trkpt>
      <trkpt lat="59.1507" lon="17.928939">
        <ele>64</ele>
        <time>2014-10-11T14:41:30Z</time>
      </trkpt>
      <trkpt lat="59.150776" lon="17.928905">
        <ele>63.7</ele>
        <time>2014-10-11T14:41:31Z</time>
      </trkpt>
      <trkpt lat="59.150868" lon="17.928872">
        <ele>63.4</ele>
        <time>2014-10-11T14:41:32Z</time>
      </trkpt>
      <trkpt lat="59.150945" lon="17.92885">
        <ele>63.1</ele>
        <time>2014-10-11T14:41:33Z</time>
      </trkpt>
      <trkpt lat="59.15103" lon="17.928825">
        <ele>62.8</ele>
        <time>2014-10-11T14:41:34Z</time>
      </trkpt>
      <trkpt lat="59.151104" lon="17.928798">
        <ele>62.5</ele>
        <time>2014-10-11T14:41:35Z</time>
      </trkpt>
      <trkpt lat="59.151175" lon="17.928768">
        <ele>62.3</ele>
        <time>2014-10-11T14:41:36Z</time>
      </trkpt>
      <trkpt lat="59.151243" lon="17.92873">
        <ele>62.1</ele>
        <time>2014-10-11T14:41:37Z</time>
      </trkpt>
      <trkpt lat="59.151303" lon="17.928703">
        <ele>62.4</ele>
        <time>2014-10-11T14:41:38Z</time>
      </trkpt>
      <trkpt lat="59.151377" lon="17.92869">
        <ele>62.7</ele>
        <time>2014-10-11T14:41:39Z</time>
      </trkpt>
      <trkpt lat="59.151438" lon="17.928655">
        <ele>63</ele>
        <time>2014-10-11T14:41:40Z</time>
      </trkpt>
      <trkpt lat="59.151496" lon="17.928632">
        <ele>63.2</ele>
        <time>2014-10-11T14:41:41Z</time>
      </trkpt>
      <trkpt lat="59.15156" lon="17.928615">
        <ele>63.3</ele>
        <time>2014-10-11T14:41:42Z</time>
      </trkpt>
      <trkpt lat="59.151611" lon="17.928616">
        <ele>63.5</ele>
        <time>2014-10-11T14:41:43Z</time>
      </trkpt>
      <trkpt lat="59.151675" lon="17.928591">
        <ele>63.6</ele>
        <time>2014-10-11T14:41:44Z</time>
      </trkpt>
      <trkpt lat="59.151729" lon="17.928577">
        <ele>63.7</ele>
        <time>2014-10-11T14:41:45Z</time>
      </trkpt>
      <trkpt lat="59.151786" lon="17.928562">
        <ele>63.8</ele>
        <time>2014-10-11T14:41:46Z</time>
      </trkpt>
      <trkpt lat="59.15185" lon="17.928557">
        <ele>63.9</ele>
        <time>2014-10-11T14:41:47Z</time>
      </trkpt>
      <trkpt lat="59.151918" lon="17.928508">
        <ele>63.9</ele>
        <time>2014-10-11T14:41:48Z</time>
      </trkpt>
      <trkpt lat="59.15198" lon="17.928476">
        <ele>63.9</ele>
        <time>2014-10-11T14:41:49Z</time>
      </trkpt>
      <trkpt lat="59.152017" lon="17.92852">
        <ele>64.1</ele>
        <time>2014-10-11T14:41:50Z</time>
      </trkpt>
      <trkpt lat="59.152078" lon="17.92853">
        <ele>64.2</ele>
        <time>2014-10-11T14:41:51Z</time>
      </trkpt>
      <trkpt lat="59.152137" lon="17.928516">
        <ele>64.2</ele>
        <time>2014-10-11T14:41:52Z</time>
      </trkpt>
      <trkpt lat="59.15219" lon="17.928496">
        <ele>64.2</ele>
        <time>2014-10-11T14:41:53Z</time>
      </trkpt>
      <trkpt lat="59.152243" lon="17.92847">
        <ele>64.1</ele>
        <time>2014-10-11T14:41:54Z</time>
      </trkpt>
      <trkpt lat="59.152298" lon="17.928452">
        <ele>64.1</ele>
        <time>2014-10-11T14:41:55Z</time>
      </trkpt>
      <trkpt lat="59.152345" lon="17.928447">
        <ele>64.1</ele>
        <time>2014-10-11T14:41:56Z</time>
      </trkpt>
      <trkpt lat="59.152405" lon="17.928458">
        <ele>64.2</ele>
        <time>2014-10-11T14:41:57Z</time>
      </trkpt>
      <trkpt lat="59.152455" lon="17.928443">
        <ele>64.2</ele>
        <time>2014-10-11T14:41:58Z</time>
      </trkpt>
      <trkpt lat="59.152508" lon="17.928446">
        <ele>64.2</ele>
        <time>2014-10-11T14:41:59Z</time>
      </trkpt>
      <trkpt lat="59.152564" lon="17.92846">
        <ele>64.3</ele>
        <time>2014-10-11T14:42:00Z</time>
      </trkpt>
      <trkpt lat="59.152628" lon="17.928465">
        <ele>64.4</ele>
        <time>2014-10-11T14:42:01Z</time>
      </trkpt>
      <trkpt lat="59.152693" lon="17.928473">
        <ele>64.5</ele>
        <time>2014-10-11T14:42:02Z</time>
      </trkpt>
      <trkpt lat="59.152748" lon="17.928508">
        <ele>64.7</ele>
        <time>2014-10-11T14:42:03Z</time>
      </trkpt>
      <trkpt lat="59.152806" lon="17.928566">
        <ele>65</ele>
        <time>2014-10-11T14:42:04Z</time>
      </trkpt>
      <trkpt lat="59.152861" lon="17.928608">
        <ele>65.3</ele>
        <time>2014-10-11T14:42:05Z</time>
      </trkpt>
      <trkpt lat="59.152911" lon="17.928653">
        <ele>65.5</ele>
        <time>2014-10-11T14:42:06Z</time>
      </trkpt>
      <trkpt lat="59.152964" lon="17.928703">
        <ele>65.8</ele>
        <time>2014-10-11T14:42:07Z</time>
      </trkpt>
      <trkpt lat="59.15301" lon="17.928751">
        <ele>66</ele>
        <time>2014-10-11T14:42:08Z</time>
      </trkpt>
      <trkpt lat="59.153057" lon="17.92879">
        <ele>65.9</ele>
        <time>2014-10-11T14:42:09Z</time>
      </trkpt>
      <trkpt lat="59.153107" lon="17.928841">
        <ele>65.7</ele>
        <time>2014-10-11T14:42:10Z</time>
      </trkpt>
      <trkpt lat="59.153164" lon="17.9289">
        <ele>65.6</ele>
        <time>2014-10-11T14:42:11Z</time>
      </trkpt>
      <trkpt lat="59.153215" lon="17.928961">
        <ele>65.4</ele>
        <time>2014-10-11T14:42:12Z</time>
      </trkpt>
      <trkpt lat="59.153257" lon="17.929014">
        <ele>65.3</ele>
        <time>2014-10-11T14:42:13Z</time>
      </trkpt>
      <trkpt lat="59.153308" lon="17.929073">
        <ele>65.2</ele>
        <time>2014-10-11T14:42:14Z</time>
      </trkpt>
      <trkpt lat="59.15335" lon="17.929128">
        <ele>65.1</ele>
        <time>2014-10-11T14:42:15Z</time>
      </trkpt>
      <trkpt lat="59.153401" lon="17.929193">
        <ele>65</ele>
        <time>2014-10-11T14:42:16Z</time>
      </trkpt>
      <trkpt lat="59.153453" lon="17.929229">
        <ele>65</ele>
        <time>2014-10-11T14:42:17Z</time>
      </trkpt>
      <trkpt lat="59.153495" lon="17.92928">
        <ele>65</ele>
        <time>2014-10-11T14:42:18Z</time>
      </trkpt>
      <trkpt lat="59.153546" lon="17.929333">
        <ele>65</ele>
        <time>2014-10-11T14:42:19Z</time>
      </trkpt>
      <trkpt lat="59.153611" lon="17.929391">
        <ele>65</ele>
        <time>2014-10-11T14:42:20Z</time>
      </trkpt>
      <trkpt lat="59.153662" lon="17.929453">
        <ele>65</ele>
        <time>2014-10-11T14:42:21Z</time>
      </trkpt>
      <trkpt lat="59.153711" lon="17.929527">
        <ele>65</ele>
        <time>2014-10-11T14:42:22Z</time>
      </trkpt>
      <trkpt lat="59.153763" lon="17.929568">
        <ele>65</ele>
        <time>2014-10-11T14:42:23Z</time>
      </trkpt>
      <trkpt lat="59.153816" lon="17.929609">
        <ele>65.1</ele>
        <time>2014-10-11T14:42:24Z</time>
      </trkpt>
      <trkpt lat="59.153877" lon="17.929655">
        <ele>65.3</ele>
        <time>2014-10-11T14:42:25Z</time>
      </trkpt>
      <trkpt lat="59.153931" lon="17.929698">
        <ele>65.4</ele>
        <time>2014-10-11T14:42:26Z</time>
      </trkpt>
      <trkpt lat="59.153982" lon="17.929762">
        <ele>65.6</ele>
        <time>2014-10-11T14:42:27Z</time>
      </trkpt>
      <trkpt lat="59.154038" lon="17.929801">
        <ele>65.8</ele>
        <time>2014-10-11T14:42:28Z</time>
      </trkpt>
      <trkpt lat="59.154089" lon="17.92985">
        <ele>66</ele>
        <time>2014-10-11T14:42:29Z</time>
      </trkpt>
      <trkpt lat="59.15415" lon="17.929881">
        <ele>66.3</ele>
        <time>2014-10-11T14:42:30Z</time>
      </trkpt>
      <trkpt lat="59.154201" lon="17.929924">
        <ele>66.6</ele>
        <time>2014-10-11T14:42:31Z</time>
      </trkpt>
      <trkpt lat="59.154255" lon="17.929964">
        <ele>66.9</ele>
        <time>2014-10-11T14:42:32Z</time>
      </trkpt>
      <trkpt lat="59.154311" lon="17.929994">
        <ele>67.2</ele>
        <time>2014-10-11T14:42:33Z</time>
      </trkpt>
      <trkpt lat="59.15437" lon="17.930021">
        <ele>67.5</ele>
        <time>2014-10-11T14:42:34Z</time>
      </trkpt>
      <trkpt lat="59.154435" lon="17.930022">
        <ele>67.8</ele>
        <time>2014-10-11T14:42:35Z</time>
      </trkpt>
      <trkpt lat="59.154491" lon="17.930051">
        <ele>68.2</ele>
        <time>2014-10-11T14:42:36Z</time>
      </trkpt>
      <trkpt lat="59.154533" lon="17.930069">
        <ele>68.5</ele>
        <time>2014-10-11T14:42:37Z</time>
      </trkpt>
      <trkpt lat="59.154574" lon="17.930119">
        <ele>68.9</ele>
        <time>2014-10-11T14:42:38Z</time>
      </trkpt>
      <trkpt lat="59.154628" lon="17.930145">
        <ele>69.1</ele>
        <time>2014-10-11T14:42:39Z</time>
      </trkpt>
      <trkpt lat="59.154702" lon="17.93017">
        <ele>69.2</ele>
        <time>2014-10-11T14:42:40Z</time>
      </trkpt>
      <trkpt lat="59.154778" lon="17.930194">
        <ele>69.4</ele>
        <time>2014-10-11T14:42:41Z</time>
      </trkpt>
      <trkpt lat="59.154836" lon="17.930239">
        <ele>69.6</ele>
        <time>2014-10-11T14:42:42Z</time>
      </trkpt>
      <trkpt lat="59.154894" lon="17.930293">
        <ele>69.9</ele>
        <time>2014-10-11T14:42:43Z</time>
      </trkpt>
      <trkpt lat="59.154957" lon="17.93031">
        <ele>70</ele>
        <time>2014-10-11T14:42:44Z</time>
      </trkpt>
      <trkpt lat="59.155028" lon="17.930298">
        <ele>70</ele>
        <time>2014-10-11T14:42:45Z</time>
      </trkpt>
      <trkpt lat="59.155092" lon="17.930298">
        <ele>70.1</ele>
        <time>2014-10-11T14:42:46Z</time>
      </trkpt>
      <trkpt lat="59.155148" lon="17.93028">
        <ele>70.1</ele>
        <time>2014-10-11T14:42:47Z</time>
      </trkpt>
      <trkpt lat="59.155247" lon="17.93023">
        <ele>69.9</ele>
        <time>2014-10-11T14:42:48Z</time>
      </trkpt>
      <trkpt lat="59.155319" lon="17.93015">
        <ele>69.6</ele>
        <time>2014-10-11T14:42:49Z</time>
      </trkpt>
      <trkpt lat="59.155389" lon="17.930079">
        <ele>69.4</ele>
        <time>2014-10-11T14:42:50Z</time>
      </trkpt>
      <trkpt lat="59.155447" lon="17.930001">
        <ele>69</ele>
        <time>2014-10-11T14:42:51Z</time>
      </trkpt>
      <trkpt lat="59.155509" lon="17.929916">
        <ele>68.5</ele>
        <time>2014-10-11T14:42:52Z</time>
      </trkpt>
      <trkpt lat="59.155551" lon="17.929859">
        <ele>68.2</ele>
        <time>2014-10-11T14:42:53Z</time>
      </trkpt>
      <trkpt lat="59.15562" lon="17.929762">
        <ele>67.8</ele>
        <time>2014-10-11T14:42:54Z</time>
      </trkpt>
      <trkpt lat="59.155674" lon="17.929684">
        <ele>67.4</ele>
        <time>2014-10-11T14:42:55Z</time>
      </trkpt>
      <trkpt lat="59.155736" lon="17.929602">
        <ele>67.1</ele>
        <time>2014-10-11T14:42:56Z</time>
      </trkpt>
      <trkpt lat="59.1558" lon="17.929549">
        <ele>66.9</ele>
        <time>2014-10-11T14:42:57Z</time>
      </trkpt>
      <trkpt lat="59.155855" lon="17.92947">
        <ele>66.7</ele>
        <time>2014-10-11T14:42:58Z</time>
      </trkpt>
      <trkpt lat="59.155916" lon="17.929338">
        <ele>66.4</ele>
        <time>2014-10-11T14:42:59Z</time>
      </trkpt>
      <trkpt lat="59.155973" lon="17.929233">
        <ele>66.2</ele>
        <time>2014-10-11T14:43:00Z</time>
      </trkpt>
      <trkpt lat="59.156247" lon="17.928776">
        <ele>66</ele>
        <time>2014-10-11T14:43:04Z</time>
      </trkpt>
      <trkpt lat="59.156335" lon="17.928632">
        <ele>65.2</ele>
        <time>2014-10-11T14:43:05Z</time>
      </trkpt>
      <trkpt lat="59.156399" lon="17.928526">
        <ele>64.6</ele>
        <time>2014-10-11T14:43:06Z</time>
      </trkpt>
      <trkpt lat="59.156464" lon="17.928413">
        <ele>63.9</ele>
        <time>2014-10-11T14:43:07Z</time>
      </trkpt>
      <trkpt lat="59.156535" lon="17.928309">
        <ele>63.4</ele>
        <time>2014-10-11T14:43:08Z</time>
      </trkpt>
      <trkpt lat="59.156604" lon="17.928281">
        <ele>63.2</ele>
        <time>2014-10-11T14:43:09Z</time>
      </trkpt>
      <trkpt lat="59.156682" lon="17.928231">
        <ele>63</ele>
        <time>2014-10-11T14:43:10Z</time>
      </trkpt>
      <trkpt lat="59.156754" lon="17.928194">
        <ele>62.9</ele>
        <time>2014-10-11T14:43:11Z</time>
      </trkpt>
      <trkpt lat="59.156856" lon="17.928193">
        <ele>62.9</ele>
        <time>2014-10-11T14:43:12Z</time>
      </trkpt>
      <trkpt lat="59.15695" lon="17.928231">
        <ele>63.1</ele>
        <time>2014-10-11T14:43:13Z</time>
      </trkpt>
      <trkpt lat="59.157017" lon="17.928259">
        <ele>63.2</ele>
        <time>2014-10-11T14:43:14Z</time>
      </trkpt>
      <trkpt lat="59.157103" lon="17.928284">
        <ele>63.3</ele>
        <time>2014-10-11T14:43:15Z</time>
      </trkpt>
      <trkpt lat="59.157192" lon="17.928304">
        <ele>63.3</ele>
        <time>2014-10-11T14:43:16Z</time>
      </trkpt>
      <trkpt lat="59.15728" lon="17.928341">
        <ele>63.3</ele>
        <time>2014-10-11T14:43:17Z</time>
      </trkpt>
      <trkpt lat="59.15739" lon="17.928347">
        <ele>63.2</ele>
        <time>2014-10-11T14:43:18Z</time>
      </trkpt>
      <trkpt lat="59.157474" lon="17.928382">
        <ele>63.2</ele>
        <time>2014-10-11T14:43:19Z</time>
      </trkpt>
      <trkpt lat="59.157554" lon="17.928407">
        <ele>63.2</ele>
        <time>2014-10-11T14:43:20Z</time>
      </trkpt>
      <trkpt lat="59.157632" lon="17.928439">
        <ele>63.2</ele>
        <time>2014-10-11T14:43:21Z</time>
      </trkpt>
      <trkpt lat="59.15772" lon="17.928456">
        <ele>63.2</ele>
        <time>2014-10-11T14:43:22Z</time>
      </trkpt>
      <trkpt lat="59.157816" lon="17.928476">
        <ele>63.1</ele>
        <time>2014-10-11T14:43:23Z</time>
      </trkpt>
      <trkpt lat="59.157926" lon="17.92848">
        <ele>63</ele>
        <time>2014-10-11T14:43:24Z</time>
      </trkpt>
      <trkpt lat="59.157999" lon="17.9285">
        <ele>63.2</ele>
        <time>2014-10-11T14:43:25Z</time>
      </trkpt>
      <trkpt lat="59.158083" lon="17.92851">
        <ele>63.3</ele>
        <time>2014-10-11T14:43:26Z</time>
      </trkpt>
      <trkpt lat="59.158144" lon="17.928526">
        <ele>63.5</ele>
        <time>2014-10-11T14:43:27Z</time>
      </trkpt>
      <trkpt lat="59.15822" lon="17.928534">
        <ele>63.6</ele>
        <time>2014-10-11T14:43:28Z</time>
      </trkpt>
      <trkpt lat="59.158298" lon="17.928561">
        <ele>63.8</ele>
        <time>2014-10-11T14:43:29Z</time>
      </trkpt>
      <trkpt lat="59.158359" lon="17.928559">
        <ele>63.8</ele>
        <time>2014-10-11T14:43:30Z</time>
      </trkpt>
      <trkpt lat="59.15842" lon="17.928539">
        <ele>63.8</ele>
        <time>2014-10-11T14:43:31Z</time>
      </trkpt>
      <trkpt lat="59.158469" lon="17.928532">
        <ele>63.9</ele>
        <time>2014-10-11T14:43:32Z</time>
      </trkpt>
      <trkpt lat="59.158523" lon="17.928523">
        <ele>63.9</ele>
        <time>2014-10-11T14:43:33Z</time>
      </trkpt>
      <trkpt lat="59.158578" lon="17.928529">
        <ele>64</ele>
        <time>2014-10-11T14:43:34Z</time>
      </trkpt>
      <trkpt lat="59.158638" lon="17.928526">
        <ele>64.1</ele>
        <time>2014-10-11T14:43:35Z</time>
      </trkpt>
      <trkpt lat="59.158696" lon="17.928524">
        <ele>64.1</ele>
        <time>2014-10-11T14:43:36Z</time>
      </trkpt>
      <trkpt lat="59.158757" lon="17.928507">
        <ele>64.1</ele>
        <time>2014-10-11T14:43:37Z</time>
      </trkpt>
      <trkpt lat="59.15882" lon="17.928484">
        <ele>64.2</ele>
        <time>2014-10-11T14:43:38Z</time>
      </trkpt>
      <trkpt lat="59.158861" lon="17.928476">
        <ele>64.3</ele>
        <time>2014-10-11T14:43:39Z</time>
      </trkpt>
      <trkpt lat="59.15892" lon="17.92847">
        <ele>64.4</ele>
        <time>2014-10-11T14:43:40Z</time>
      </trkpt>
      <trkpt lat="59.158971" lon="17.928467">
        <ele>64.5</ele>
        <time>2014-10-11T14:43:41Z</time>
      </trkpt>
      <trkpt lat="59.159025" lon="17.928458">
        <ele>64.6</ele>
        <time>2014-10-11T14:43:42Z</time>
      </trkpt>
      <trkpt lat="59.159076" lon="17.928444">
        <ele>64.7</ele>
        <time>2014-10-11T14:43:43Z</time>
      </trkpt>
      <trkpt lat="59.159129" lon="17.92842">
        <ele>64.7</ele>
        <time>2014-10-11T14:43:44Z</time>
      </trkpt>
      <trkpt lat="59.159175" lon="17.928404">
        <ele>64.8</ele>
        <time>2014-10-11T14:43:45Z</time>
      </trkpt>
      <trkpt lat="59.159218" lon="17.928395">
        <ele>64.8</ele>
        <time>2014-10-11T14:43:46Z</time>
      </trkpt>
      <trkpt lat="59.159264" lon="17.928383">
        <ele>64.9</ele>
        <time>2014-10-11T14:43:47Z</time>
      </trkpt>
      <trkpt lat="59.159306" lon="17.928371">
        <ele>65</ele>
        <time>2014-10-11T14:43:48Z</time>
      </trkpt>
      <trkpt lat="59.159354" lon="17.928363">
        <ele>65.1</ele>
        <time>2014-10-11T14:43:49Z</time>
      </trkpt>
      <trkpt lat="59.159396" lon="17.928337">
        <ele>65.1</ele>
        <time>2014-10-11T14:43:50Z</time>
      </trkpt>
      <trkpt lat="59.159433" lon="17.928313">
        <ele>65.1</ele>
        <time>2014-10-11T14:43:51Z</time>
      </trkpt>
      <trkpt lat="59.159477" lon="17.928289">
        <ele>65.1</ele>
        <time>2014-10-11T14:43:52Z</time>
      </trkpt>
      <trkpt lat="59.159515" lon="17.928269">
        <ele>65.1</ele>
        <time>2014-10-11T14:43:53Z</time>
      </trkpt>
      <trkpt lat="59.159564" lon="17.928237">
        <ele>65.1</ele>
        <time>2014-10-11T14:43:54Z</time>
      </trkpt>
      <trkpt lat="59.159599" lon="17.928221">
        <ele>65.2</ele>
        <time>2014-10-11T14:43:55Z</time>
      </trkpt>
      <trkpt lat="59.159632" lon="17.928219">
        <ele>65.4</ele>
        <time>2014-10-11T14:43:56Z</time>
      </trkpt>
      <trkpt lat="59.159673" lon="17.928193">
        <ele>65.6</ele>
        <time>2014-10-11T14:43:57Z</time>
      </trkpt>
      <trkpt lat="59.159713" lon="17.928182">
        <ele>65.8</ele>
        <time>2014-10-11T14:43:58Z</time>
      </trkpt>
      <trkpt lat="59.15975" lon="17.928166">
        <ele>66</ele>
        <time>2014-10-11T14:43:59Z</time>
      </trkpt>
      <trkpt lat="59.159788" lon="17.928143">
        <ele>66.2</ele>
        <time>2014-10-11T14:44:00Z</time>
      </trkpt>
      <trkpt lat="59.159829" lon="17.928122">
        <ele>66.4</ele>
        <time>2014-10-11T14:44:01Z</time>
      </trkpt>
      <trkpt lat="59.159868" lon="17.928099">
        <ele>66.6</ele>
        <time>2014-10-11T14:44:02Z</time>
      </trkpt>
      <trkpt lat="59.159911" lon="17.928077">
        <ele>66.9</ele>
        <time>2014-10-11T14:44:03Z</time>
      </trkpt>
      <trkpt lat="59.159954" lon="17.928052">
        <ele>67.1</ele>
        <time>2014-10-11T14:44:04Z</time>
      </trkpt>
      <trkpt lat="59.16002" lon="17.928024">
        <ele>67.5</ele>
        <time>2014-10-11T14:44:05Z</time>
      </trkpt>
      <trkpt lat="59.160062" lon="17.927982">
        <ele>67.6</ele>
        <time>2014-10-11T14:44:06Z</time>
      </trkpt>
      <trkpt lat="59.160105" lon="17.927941">
        <ele>67.8</ele>
        <time>2014-10-11T14:44:07Z</time>
      </trkpt>
      <trkpt lat="59.160138" lon="17.927889">
        <ele>67.9</ele>
        <time>2014-10-11T14:44:08Z</time>
      </trkpt>
      <trkpt lat="59.16018" lon="17.927835">
        <ele>68.1</ele>
        <time>2014-10-11T14:44:09Z</time>
      </trkpt>
      <trkpt lat="59.16023" lon="17.927787">
        <ele>68.3</ele>
        <time>2014-10-11T14:44:10Z</time>
      </trkpt>
      <trkpt lat="59.160277" lon="17.927743">
        <ele>68.6</ele>
        <time>2014-10-11T14:44:11Z</time>
      </trkpt>
      <trkpt lat="59.160334" lon="17.927685">
        <ele>68.8</ele>
        <time>2014-10-11T14:44:12Z</time>
      </trkpt>
      <trkpt lat="59.160378" lon="17.927639">
        <ele>69.1</ele>
        <time>2014-10-11T14:44:13Z</time>
      </trkpt>
      <trkpt lat="59.160425" lon="17.927576">
        <ele>69.2</ele>
        <time>2014-10-11T14:44:14Z</time>
      </trkpt>
      <trkpt lat="59.160475" lon="17.927528">
        <ele>69.4</ele>
        <time>2014-10-11T14:44:15Z</time>
      </trkpt>
      <trkpt lat="59.16053" lon="17.927488">
        <ele>69.7</ele>
        <time>2014-10-11T14:44:16Z</time>
      </trkpt>
      <trkpt lat="59.160575" lon="17.927416">
        <ele>69.8</ele>
        <time>2014-10-11T14:44:17Z</time>
      </trkpt>
      <trkpt lat="59.160624" lon="17.927362">
        <ele>70</ele>
        <time>2014-10-11T14:44:18Z</time>
      </trkpt>
      <trkpt lat="59.160683" lon="17.9273">
        <ele>70.3</ele>
        <time>2014-10-11T14:44:19Z</time>
      </trkpt>
      <trkpt lat="59.160734" lon="17.92724">
        <ele>70.5</ele>
        <time>2014-10-11T14:44:20Z</time>
      </trkpt>
      <trkpt lat="59.160786" lon="17.927212">
        <ele>70.8</ele>
        <time>2014-10-11T14:44:21Z</time>
      </trkpt>
      <trkpt lat="59.160834" lon="17.927167">
        <ele>71.1</ele>
        <time>2014-10-11T14:44:22Z</time>
      </trkpt>
      <trkpt lat="59.160879" lon="17.927126">
        <ele>71.4</ele>
        <time>2014-10-11T14:44:23Z</time>
      </trkpt>
      <trkpt lat="59.160926" lon="17.927094">
        <ele>71.7</ele>
        <time>2014-10-11T14:44:24Z</time>
      </trkpt>
      <trkpt lat="59.160989" lon="17.927035">
        <ele>72</ele>
        <time>2014-10-11T14:44:25Z</time>
      </trkpt>
      <trkpt lat="59.161044" lon="17.926995">
        <ele>72.4</ele>
        <time>2014-10-11T14:44:26Z</time>
      </trkpt>
      <trkpt lat="59.161106" lon="17.926941">
        <ele>72.7</ele>
        <time>2014-10-11T14:44:27Z</time>
      </trkpt>
      <trkpt lat="59.161169" lon="17.926897">
        <ele>73.1</ele>
        <time>2014-10-11T14:44:28Z</time>
      </trkpt>
      <trkpt lat="59.161218" lon="17.926838">
        <ele>73.5</ele>
        <time>2014-10-11T14:44:29Z</time>
      </trkpt>
      <trkpt lat="59.161284" lon="17.9268">
        <ele>73.6</ele>
        <time>2014-10-11T14:44:30Z</time>
      </trkpt>
      <trkpt lat="59.161338" lon="17.926756">
        <ele>73.5</ele>
        <time>2014-10-11T14:44:31Z</time>
      </trkpt>
      <trkpt lat="59.161403" lon="17.926715">
        <ele>73.4</ele>
        <time>2014-10-11T14:44:32Z</time>
      </trkpt>
      <trkpt lat="59.161465" lon="17.926657">
        <ele>73.2</ele>
        <time>2014-10-11T14:44:33Z</time>
      </trkpt>
      <trkpt lat="59.161526" lon="17.926606">
        <ele>73.1</ele>
        <time>2014-10-11T14:44:34Z</time>
      </trkpt>
      <trkpt lat="59.161586" lon="17.926549">
        <ele>73.1</ele>
        <time>2014-10-11T14:44:35Z</time>
      </trkpt>
      <trkpt lat="59.161644" lon="17.92649">
        <ele>73</ele>
        <time>2014-10-11T14:44:36Z</time>
      </trkpt>
      <trkpt lat="59.161717" lon="17.92643">
        <ele>73</ele>
        <time>2014-10-11T14:44:37Z</time>
      </trkpt>
      <trkpt lat="59.161781" lon="17.926373">
        <ele>73</ele>
        <time>2014-10-11T14:44:38Z</time>
      </trkpt>
      <trkpt lat="59.161856" lon="17.926292">
        <ele>73</ele>
        <time>2014-10-11T14:44:39Z</time>
      </trkpt>
      <trkpt lat="59.161919" lon="17.926211">
        <ele>73</ele>
        <time>2014-10-11T14:44:40Z</time>
      </trkpt>
      <trkpt lat="59.161985" lon="17.926121">
        <ele>73.1</ele>
        <time>2014-10-11T14:44:41Z</time>
      </trkpt>
      <trkpt lat="59.162059" lon="17.926042">
        <ele>73.2</ele>
        <time>2014-10-11T14:44:42Z</time>
      </trkpt>
      <trkpt lat="59.162142" lon="17.925973">
        <ele>72.8</ele>
        <time>2014-10-11T14:44:43Z</time>
      </trkpt>
      <trkpt lat="59.162231" lon="17.925892">
        <ele>72.2</ele>
        <time>2014-10-11T14:44:44Z</time>
      </trkpt>
      <trkpt lat="59.162313" lon="17.925833">
        <ele>71.6</ele>
        <time>2014-10-11T14:44:45Z</time>
      </trkpt>
      <trkpt lat="59.162403" lon="17.925837">
        <ele>70.8</ele>
        <time>2014-10-11T14:44:46Z</time>
      </trkpt>
      <trkpt lat="59.16249" lon="17.925792">
        <ele>70.1</ele>
        <time>2014-10-11T14:44:47Z</time>
      </trkpt>
      <trkpt lat="59.162614" lon="17.925789">
        <ele>69.1</ele>
        <time>2014-10-11T14:44:48Z</time>
      </trkpt>
      <trkpt lat="59.162716" lon="17.925774">
        <ele>68.3</ele>
        <time>2014-10-11T14:44:49Z</time>
      </trkpt>
      <trkpt lat="59.162825" lon="17.925765">
        <ele>67.4</ele>
        <time>2014-10-11T14:44:50Z</time>
      </trkpt>
      <trkpt lat="59.162955" lon="17.925784">
        <ele>66</ele>
        <time>2014-10-11T14:44:51Z</time>
      </trkpt>
      <trkpt lat="59.163086" lon="17.925802">
        <ele>64.1</ele>
        <time>2014-10-11T14:44:52Z</time>
      </trkpt>
      <trkpt lat="59.16323" lon="17.925784">
        <ele>62</ele>
        <time>2014-10-11T14:44:53Z</time>
      </trkpt>
      <trkpt lat="59.163372" lon="17.925768">
        <ele>59.9</ele>
        <time>2014-10-11T14:44:54Z</time>
      </trkpt>
      <trkpt lat="59.163511" lon="17.925741">
        <ele>57.9</ele>
        <time>2014-10-11T14:44:55Z</time>
      </trkpt>
      <trkpt lat="59.163649" lon="17.925708">
        <ele>55.8</ele>
        <time>2014-10-11T14:44:56Z</time>
      </trkpt>
      <trkpt lat="59.16379" lon="17.925654">
        <ele>54</ele>
        <time>2014-10-11T14:44:57Z</time>
      </trkpt>
      <trkpt lat="59.163923" lon="17.925603">
        <ele>53.1</ele>
        <time>2014-10-11T14:44:58Z</time>
      </trkpt>
      <trkpt lat="59.164068" lon="17.925565">
        <ele>52.2</ele>
        <time>2014-10-11T14:44:59Z</time>
      </trkpt>
      <trkpt lat="59.164203" lon="17.925552">
        <ele>51.4</ele>
        <time>2014-10-11T14:45:00Z</time>
      </trkpt>
      <trkpt lat="59.164312" lon="17.925556">
        <ele>50.7</ele>
        <time>2014-10-11T14:45:01Z</time>
      </trkpt>
      <trkpt lat="59.164431" lon="17.925588">
        <ele>50</ele>
        <time>2014-10-11T14:45:02Z</time>
      </trkpt>
      <trkpt lat="59.164545" lon="17.925651">
        <ele>49.2</ele>
        <time>2014-10-11T14:45:03Z</time>
      </trkpt>
      <trkpt lat="59.16463" lon="17.92576">
        <ele>48.8</ele>
        <time>2014-10-11T14:45:04Z</time>
      </trkpt>
      <trkpt lat="59.164712" lon="17.925904">
        <ele>48.5</ele>
        <time>2014-10-11T14:45:05Z</time>
      </trkpt>
      <trkpt lat="59.164786" lon="17.926014">
        <ele>48.3</ele>
        <time>2014-10-11T14:45:06Z</time>
      </trkpt>
      <trkpt lat="59.164854" lon="17.926138">
        <ele>48.2</ele>
        <time>2014-10-11T14:45:07Z</time>
      </trkpt>
      <trkpt lat="59.164929" lon="17.926253">
        <ele>48.2</ele>
        <time>2014-10-11T14:45:08Z</time>
      </trkpt>
      <trkpt lat="59.165004" lon="17.926349">
        <ele>48.2</ele>
        <time>2014-10-11T14:45:09Z</time>
      </trkpt>
      <trkpt lat="59.165074" lon="17.92646">
        <ele>48.3</ele>
        <time>2014-10-11T14:45:10Z</time>
      </trkpt>
      <trkpt lat="59.165147" lon="17.926559">
        <ele>48.4</ele>
        <time>2014-10-11T14:45:11Z</time>
      </trkpt>
      <trkpt lat="59.165221" lon="17.926642">
        <ele>48.5</ele>
        <time>2014-10-11T14:45:12Z</time>
      </trkpt>
      <trkpt lat="59.165299" lon="17.926709">
        <ele>48.7</ele>
        <time>2014-10-11T14:45:13Z</time>
      </trkpt>
      <trkpt lat="59.165381" lon="17.926757">
        <ele>48.8</ele>
        <time>2014-10-11T14:45:14Z</time>
      </trkpt>
      <trkpt lat="59.165469" lon="17.926792">
        <ele>49</ele>
        <time>2014-10-11T14:45:15Z</time>
      </trkpt>
      <trkpt lat="59.165554" lon="17.926824">
        <ele>49.1</ele>
        <time>2014-10-11T14:45:16Z</time>
      </trkpt>
      <trkpt lat="59.165636" lon="17.926867">
        <ele>49.3</ele>
        <time>2014-10-11T14:45:17Z</time>
      </trkpt>
      <trkpt lat="59.165725" lon="17.926907">
        <ele>49.6</ele>
        <time>2014-10-11T14:45:18Z</time>
      </trkpt>
      <trkpt lat="59.165809" lon="17.926921">
        <ele>49.7</ele>
        <time>2014-10-11T14:45:19Z</time>
      </trkpt>
      <trkpt lat="59.165918" lon="17.926935">
        <ele>49.9</ele>
        <time>2014-10-11T14:45:20Z</time>
      </trkpt>
      <trkpt lat="59.166019" lon="17.926939">
        <ele>50</ele>
        <time>2014-10-11T14:45:21Z</time>
      </trkpt>
      <trkpt lat="59.16612" lon="17.926969">
        <ele>50.2</ele>
        <time>2014-10-11T14:45:22Z</time>
      </trkpt>
      <trkpt lat="59.166228" lon="17.926958">
        <ele>50.2</ele>
        <time>2014-10-11T14:45:23Z</time>
      </trkpt>
      <trkpt lat="59.166324" lon="17.926974">
        <ele>49.7</ele>
        <time>2014-10-11T14:45:24Z</time>
      </trkpt>
      <trkpt lat="59.166435" lon="17.927016">
        <ele>49.1</ele>
        <time>2014-10-11T14:45:25Z</time>
      </trkpt>
      <trkpt lat="59.166535" lon="17.926988">
        <ele>48.1</ele>
        <time>2014-10-11T14:45:26Z</time>
      </trkpt>
      <trkpt lat="59.166623" lon="17.926987">
        <ele>47.4</ele>
        <time>2014-10-11T14:45:27Z</time>
      </trkpt>
      <trkpt lat="59.166717" lon="17.926977">
        <ele>46.6</ele>
        <time>2014-10-11T14:45:28Z</time>
      </trkpt>
      <trkpt lat="59.166823" lon="17.92696">
        <ele>45.7</ele>
        <time>2014-10-11T14:45:29Z</time>
      </trkpt>
      <trkpt lat="59.166916" lon="17.926955">
        <ele>44.9</ele>
        <time>2014-10-11T14:45:30Z</time>
      </trkpt>
      <trkpt lat="59.167001" lon="17.926952">
        <ele>44.2</ele>
        <time>2014-10-11T14:45:31Z</time>
      </trkpt>
      <trkpt lat="59.167096" lon="17.926939">
        <ele>43.5</ele>
        <time>2014-10-11T14:45:32Z</time>
      </trkpt>
      <trkpt lat="59.16718" lon="17.926917">
        <ele>43.2</ele>
        <time>2014-10-11T14:45:33Z</time>
      </trkpt>
      <trkpt lat="59.167263" lon="17.926865">
        <ele>43</ele>
        <time>2014-10-11T14:45:34Z</time>
      </trkpt>
      <trkpt lat="59.167359" lon="17.926803">
        <ele>42.7</ele>
        <time>2014-10-11T14:45:35Z</time>
      </trkpt>
      <trkpt lat="59.167453" lon="17.926755">
        <ele>42.5</ele>
        <time>2014-10-11T14:45:36Z</time>
      </trkpt>
      <trkpt lat="59.167544" lon="17.926693">
        <ele>42.3</ele>
        <time>2014-10-11T14:45:37Z</time>
      </trkpt>
      <trkpt lat="59.16762" lon="17.926623">
        <ele>42.1</ele>
        <time>2014-10-11T14:45:38Z</time>
      </trkpt>
      <trkpt lat="59.167702" lon="17.926551">
        <ele>42</ele>
        <time>2014-10-11T14:45:39Z</time>
      </trkpt>
      <trkpt lat="59.167781" lon="17.926497">
        <ele>42</ele>
        <time>2014-10-11T14:45:40Z</time>
      </trkpt>
      <trkpt lat="59.167866" lon="17.926425">
        <ele>42</ele>
        <time>2014-10-11T14:45:41Z</time>
      </trkpt>
      <trkpt lat="59.167952" lon="17.926381">
        <ele>42</ele>
        <time>2014-10-11T14:45:42Z</time>
      </trkpt>
      <trkpt lat="59.168033" lon="17.92635">
        <ele>42.2</ele>
        <time>2014-10-11T14:45:43Z</time>
      </trkpt>
      <trkpt lat="59.168116" lon="17.926329">
        <ele>42.3</ele>
        <time>2014-10-11T14:45:44Z</time>
      </trkpt>
      <trkpt lat="59.168201" lon="17.926321">
        <ele>42.4</ele>
        <time>2014-10-11T14:45:45Z</time>
      </trkpt>
      <trkpt lat="59.168277" lon="17.926359">
        <ele>42.5</ele>
        <time>2014-10-11T14:45:46Z</time>
      </trkpt>
      <trkpt lat="59.16835" lon="17.92638">
        <ele>42.6</ele>
        <time>2014-10-11T14:45:47Z</time>
      </trkpt>
      <trkpt lat="59.168455" lon="17.926419">
        <ele>42.8</ele>
        <time>2014-10-11T14:45:48Z</time>
      </trkpt>
      <trkpt lat="59.168528" lon="17.926414">
        <ele>42.9</ele>
        <time>2014-10-11T14:45:49Z</time>
      </trkpt>
      <trkpt lat="59.1686" lon="17.926402">
        <ele>43</ele>
        <time>2014-10-11T14:45:50Z</time>
      </trkpt>
      <trkpt lat="59.168672" lon="17.926387">
        <ele>43.1</ele>
        <time>2014-10-11T14:45:51Z</time>
      </trkpt>
      <trkpt lat="59.168766" lon="17.926378">
        <ele>43.2</ele>
        <time>2014-10-11T14:45:52Z</time>
      </trkpt>
      <trkpt lat="59.168821" lon="17.926373">
        <ele>43.2</ele>
        <time>2014-10-11T14:45:53Z</time>
      </trkpt>
      <trkpt lat="59.168889" lon="17.926363">
        <ele>43.2</ele>
        <time>2014-10-11T14:45:54Z</time>
      </trkpt>
      <trkpt lat="59.168958" lon="17.926358">
        <ele>43.2</ele>
        <time>2014-10-11T14:45:55Z</time>
      </trkpt>
      <trkpt lat="59.169031" lon="17.926344">
        <ele>43.2</ele>
        <time>2014-10-11T14:45:56Z</time>
      </trkpt>
      <trkpt lat="59.169104" lon="17.926333">
        <ele>43.1</ele>
        <time>2014-10-11T14:45:57Z</time>
      </trkpt>
      <trkpt lat="59.169182" lon="17.926321">
        <ele>43.1</ele>
        <time>2014-10-11T14:45:58Z</time>
      </trkpt>
      <trkpt lat="59.169257" lon="17.926317">
        <ele>43.1</ele>
        <time>2014-10-11T14:45:59Z</time>
      </trkpt>
      <trkpt lat="59.169327" lon="17.926313">
        <ele>43.1</ele>
        <time>2014-10-11T14:46:00Z</time>
      </trkpt>
      <trkpt lat="59.169399" lon="17.926295">
        <ele>43.1</ele>
        <time>2014-10-11T14:46:01Z</time>
      </trkpt>
      <trkpt lat="59.16947" lon="17.926282">
        <ele>43.1</ele>
        <time>2014-10-11T14:46:02Z</time>
      </trkpt>
      <trkpt lat="59.169552" lon="17.926258">
        <ele>43</ele>
        <time>2014-10-11T14:46:03Z</time>
      </trkpt>
      <trkpt lat="59.169622" lon="17.926226">
        <ele>43</ele>
        <time>2014-10-11T14:46:04Z</time>
      </trkpt>
      <trkpt lat="59.169692" lon="17.926213">
        <ele>43.2</ele>
        <time>2014-10-11T14:46:05Z</time>
      </trkpt>
      <trkpt lat="59.169758" lon="17.926188">
        <ele>43.2</ele>
        <time>2014-10-11T14:46:06Z</time>
      </trkpt>
      <trkpt lat="59.169806" lon="17.926166">
        <ele>43.3</ele>
        <time>2014-10-11T14:46:07Z</time>
      </trkpt>
      <trkpt lat="59.169857" lon="17.926143">
        <ele>43.3</ele>
        <time>2014-10-11T14:46:08Z</time>
      </trkpt>
      <trkpt lat="59.16991" lon="17.926108">
        <ele>43.3</ele>
        <time>2014-10-11T14:46:09Z</time>
      </trkpt>
      <trkpt lat="59.169965" lon="17.926078">
        <ele>43.3</ele>
        <time>2014-10-11T14:46:10Z</time>
      </trkpt>
      <trkpt lat="59.170024" lon="17.926045">
        <ele>43.3</ele>
        <time>2014-10-11T14:46:11Z</time>
      </trkpt>
      <trkpt lat="59.170099" lon="17.925966">
        <ele>43.1</ele>
        <time>2014-10-11T14:46:12Z</time>
      </trkpt>
      <trkpt lat="59.170152" lon="17.925915">
        <ele>43</ele>
        <time>2014-10-11T14:46:13Z</time>
      </trkpt>
      <trkpt lat="59.170205" lon="17.925893">
        <ele>43</ele>
        <time>2014-10-11T14:46:14Z</time>
      </trkpt>
      <trkpt lat="59.17026" lon="17.925843">
        <ele>42.9</ele>
        <time>2014-10-11T14:46:15Z</time>
      </trkpt>
      <trkpt lat="59.170307" lon="17.925793">
        <ele>42.7</ele>
        <time>2014-10-11T14:46:16Z</time>
      </trkpt>
      <trkpt lat="59.17035" lon="17.925771">
        <ele>42.6</ele>
        <time>2014-10-11T14:46:17Z</time>
      </trkpt>
      <trkpt lat="59.170396" lon="17.925722">
        <ele>42.4</ele>
        <time>2014-10-11T14:46:18Z</time>
      </trkpt>
      <trkpt lat="59.170453" lon="17.925683">
        <ele>42.5</ele>
        <time>2014-10-11T14:46:19Z</time>
      </trkpt>
      <trkpt lat="59.170506" lon="17.925627">
        <ele>42.4</ele>
        <time>2014-10-11T14:46:20Z</time>
      </trkpt>
      <trkpt lat="59.170559" lon="17.925586">
        <ele>42.5</ele>
        <time>2014-10-11T14:46:21Z</time>
      </trkpt>
      <trkpt lat="59.170615" lon="17.925532">
        <ele>42.5</ele>
        <time>2014-10-11T14:46:22Z</time>
      </trkpt>
      <trkpt lat="59.170661" lon="17.925494">
        <ele>42.5</ele>
        <time>2014-10-11T14:46:23Z</time>
      </trkpt>
      <trkpt lat="59.170701" lon="17.925437">
        <ele>42.5</ele>
        <time>2014-10-11T14:46:24Z</time>
      </trkpt>
      <trkpt lat="59.170752" lon="17.925375">
        <ele>42.5</ele>
        <time>2014-10-11T14:46:25Z</time>
      </trkpt>
      <trkpt lat="59.170802" lon="17.925332">
        <ele>42.7</ele>
        <time>2014-10-11T14:46:26Z</time>
      </trkpt>
      <trkpt lat="59.170853" lon="17.925305">
        <ele>42.9</ele>
        <time>2014-10-11T14:46:27Z</time>
      </trkpt>
      <trkpt lat="59.170902" lon="17.925255">
        <ele>43</ele>
        <time>2014-10-11T14:46:28Z</time>
      </trkpt>
      <trkpt lat="59.170955" lon="17.925206">
        <ele>43.2</ele>
        <time>2014-10-11T14:46:29Z</time>
      </trkpt>
      <trkpt lat="59.171014" lon="17.925199">
        <ele>43.4</ele>
        <time>2014-10-11T14:46:30Z</time>
      </trkpt>
      <trkpt lat="59.171073" lon="17.925226">
        <ele>43.7</ele>
        <time>2014-10-11T14:46:31Z</time>
      </trkpt>
      <trkpt lat="59.171118" lon="17.925297">
        <ele>44.1</ele>
        <time>2014-10-11T14:46:32Z</time>
      </trkpt>
      <trkpt lat="59.171158" lon="17.925384">
        <ele>44.5</ele>
        <time>2014-10-11T14:46:33Z</time>
      </trkpt>
      <trkpt lat="59.171186" lon="17.925466">
        <ele>44.9</ele>
        <time>2014-10-11T14:46:34Z</time>
      </trkpt>
      <trkpt lat="59.171205" lon="17.925552">
        <ele>45.4</ele>
        <time>2014-10-11T14:46:35Z</time>
      </trkpt>
      <trkpt lat="59.171225" lon="17.925646">
        <ele>46</ele>
        <time>2014-10-11T14:46:36Z</time>
      </trkpt>
      <trkpt lat="59.171238" lon="17.925737">
        <ele>46.5</ele>
        <time>2014-10-11T14:46:37Z</time>
      </trkpt>
      <trkpt lat="59.171254" lon="17.925819">
        <ele>46.9</ele>
        <time>2014-10-11T14:46:38Z</time>
      </trkpt>
      <trkpt lat="59.171269" lon="17.92591">
        <ele>47.4</ele>
        <time>2014-10-11T14:46:39Z</time>
      </trkpt>
      <trkpt lat="59.171287" lon="17.926019">
        <ele>48</ele>
        <time>2014-10-11T14:46:40Z</time>
      </trkpt>
      <trkpt lat="59.171307" lon="17.926095">
        <ele>48.5</ele>
        <time>2014-10-11T14:46:41Z</time>
      </trkpt>
      <trkpt lat="59.171329" lon="17.926162">
        <ele>48.9</ele>
        <time>2014-10-11T14:46:42Z</time>
      </trkpt>
      <trkpt lat="59.171352" lon="17.926218">
        <ele>49.2</ele>
        <time>2014-10-11T14:46:43Z</time>
      </trkpt>
      <trkpt lat="59.171377" lon="17.926266">
        <ele>49.5</ele>
        <time>2014-10-11T14:46:44Z</time>
      </trkpt>
      <trkpt lat="59.171411" lon="17.926314">
        <ele>49.9</ele>
        <time>2014-10-11T14:46:45Z</time>
      </trkpt>
      <trkpt lat="59.17145" lon="17.926376">
        <ele>50.4</ele>
        <time>2014-10-11T14:46:46Z</time>
      </trkpt>
      <trkpt lat="59.171494" lon="17.92641">
        <ele>50.7</ele>
        <time>2014-10-11T14:46:47Z</time>
      </trkpt>
      <trkpt lat="59.171543" lon="17.926454">
        <ele>51.1</ele>
        <time>2014-10-11T14:46:48Z</time>
      </trkpt>
      <trkpt lat="59.171588" lon="17.926482">
        <ele>51.4</ele>
        <time>2014-10-11T14:46:49Z</time>
      </trkpt>
      <trkpt lat="59.171631" lon="17.926507">
        <ele>51.7</ele>
        <time>2014-10-11T14:46:50Z</time>
      </trkpt>
      <trkpt lat="59.171679" lon="17.926531">
        <ele>52.1</ele>
        <time>2014-10-11T14:46:51Z</time>
      </trkpt>
      <trkpt lat="59.171729" lon="17.926561">
        <ele>52.4</ele>
        <time>2014-10-11T14:46:52Z</time>
      </trkpt>
      <trkpt lat="59.17178" lon="17.926598">
        <ele>52.8</ele>
        <time>2014-10-11T14:46:53Z</time>
      </trkpt>
      <trkpt lat="59.171829" lon="17.926641">
        <ele>53.3</ele>
        <time>2014-10-11T14:46:54Z</time>
      </trkpt>
      <trkpt lat="59.171872" lon="17.926677">
        <ele>53.7</ele>
        <time>2014-10-11T14:46:55Z</time>
      </trkpt>
      <trkpt lat="59.171927" lon="17.926709">
        <ele>54.1</ele>
        <time>2014-10-11T14:46:56Z</time>
      </trkpt>
      <trkpt lat="59.171971" lon="17.926747">
        <ele>54.5</ele>
        <time>2014-10-11T14:46:57Z</time>
      </trkpt>
      <trkpt lat="59.172024" lon="17.926781">
        <ele>54.9</ele>
        <time>2014-10-11T14:46:58Z</time>
      </trkpt>
      <trkpt lat="59.172068" lon="17.926827">
        <ele>55.4</ele>
        <time>2014-10-11T14:46:59Z</time>
      </trkpt>
      <trkpt lat="59.172129" lon="17.926865">
        <ele>55.5</ele>
        <time>2014-10-11T14:47:00Z</time>
      </trkpt>
      <trkpt lat="59.172175" lon="17.926917">
        <ele>55.6</ele>
        <time>2014-10-11T14:47:01Z</time>
      </trkpt>
      <trkpt lat="59.172241" lon="17.926944">
        <ele>55.5</ele>
        <time>2014-10-11T14:47:02Z</time>
      </trkpt>
      <trkpt lat="59.172295" lon="17.926988">
        <ele>55.5</ele>
        <time>2014-10-11T14:47:03Z</time>
      </trkpt>
      <trkpt lat="59.172364" lon="17.927028">
        <ele>55.4</ele>
        <time>2014-10-11T14:47:04Z</time>
      </trkpt>
      <trkpt lat="59.172415" lon="17.927055">
        <ele>55.3</ele>
        <time>2014-10-11T14:47:05Z</time>
      </trkpt>
      <trkpt lat="59.172469" lon="17.927112">
        <ele>55.4</ele>
        <time>2014-10-11T14:47:06Z</time>
      </trkpt>
      <trkpt lat="59.172531" lon="17.927141">
        <ele>55.3</ele>
        <time>2014-10-11T14:47:07Z</time>
      </trkpt>
      <trkpt lat="59.172594" lon="17.92717">
        <ele>55.2</ele>
        <time>2014-10-11T14:47:08Z</time>
      </trkpt>
      <trkpt lat="59.172652" lon="17.927211">
        <ele>55.2</ele>
        <time>2014-10-11T14:47:09Z</time>
      </trkpt>
      <trkpt lat="59.172705" lon="17.927271">
        <ele>55.4</ele>
        <time>2014-10-11T14:47:10Z</time>
      </trkpt>
      <trkpt lat="59.172761" lon="17.927319">
        <ele>55.4</ele>
        <time>2014-10-11T14:47:11Z</time>
      </trkpt>
      <trkpt lat="59.17283" lon="17.927354">
        <ele>55.4</ele>
        <time>2014-10-11T14:47:12Z</time>
      </trkpt>
      <trkpt lat="59.172898" lon="17.92739">
        <ele>55.3</ele>
        <time>2014-10-11T14:47:13Z</time>
      </trkpt>
      <trkpt lat="59.172968" lon="17.927422">
        <ele>55.1</ele>
        <time>2014-10-11T14:47:14Z</time>
      </trkpt>
      <trkpt lat="59.173028" lon="17.927479">
        <ele>55.1</ele>
        <time>2014-10-11T14:47:15Z</time>
      </trkpt>
      <trkpt lat="59.17309" lon="17.927522">
        <ele>55</ele>
        <time>2014-10-11T14:47:16Z</time>
      </trkpt>
      <trkpt lat="59.173156" lon="17.927568">
        <ele>54.9</ele>
        <time>2014-10-11T14:47:17Z</time>
      </trkpt>
      <trkpt lat="59.173222" lon="17.927613">
        <ele>54.7</ele>
        <time>2014-10-11T14:47:18Z</time>
      </trkpt>
      <trkpt lat="59.173285" lon="17.927669">
        <ele>54.7</ele>
        <time>2014-10-11T14:47:19Z</time>
      </trkpt>
      <trkpt lat="59.173361" lon="17.927711">
        <ele>54.5</ele>
        <time>2014-10-11T14:47:20Z</time>
      </trkpt>
      <trkpt lat="59.173437" lon="17.927756">
        <ele>54.2</ele>
        <time>2014-10-11T14:47:21Z</time>
      </trkpt>
      <trkpt lat="59.173526" lon="17.927821">
        <ele>54</ele>
        <time>2014-10-11T14:47:22Z</time>
      </trkpt>
      <trkpt lat="59.173597" lon="17.92788">
        <ele>53.9</ele>
        <time>2014-10-11T14:47:23Z</time>
      </trkpt>
      <trkpt lat="59.173662" lon="17.927936">
        <ele>53.8</ele>
        <time>2014-10-11T14:47:24Z</time>
      </trkpt>
      <trkpt lat="59.173721" lon="17.927978">
        <ele>53.6</ele>
        <time>2014-10-11T14:47:25Z</time>
      </trkpt>
      <trkpt lat="59.173786" lon="17.928015">
        <ele>53.6</ele>
        <time>2014-10-11T14:47:26Z</time>
      </trkpt>
      <trkpt lat="59.173851" lon="17.928063">
        <ele>53.8</ele>
        <time>2014-10-11T14:47:27Z</time>
      </trkpt>
      <trkpt lat="59.173913" lon="17.928106">
        <ele>54</ele>
        <time>2014-10-11T14:47:28Z</time>
      </trkpt>
      <trkpt lat="59.173975" lon="17.928142">
        <ele>54.2</ele>
        <time>2014-10-11T14:47:29Z</time>
      </trkpt>
      <trkpt lat="59.174038" lon="17.928199">
        <ele>54.5</ele>
        <time>2014-10-11T14:47:30Z</time>
      </trkpt>
      <trkpt lat="59.174104" lon="17.928232">
        <ele>54.6</ele>
        <time>2014-10-11T14:47:31Z</time>
      </trkpt>
      <trkpt lat="59.174173" lon="17.92828">
        <ele>54.7</ele>
        <time>2014-10-11T14:47:32Z</time>
      </trkpt>
      <trkpt lat="59.174231" lon="17.928336">
        <ele>54.9</ele>
        <time>2014-10-11T14:47:33Z</time>
      </trkpt>
      <trkpt lat="59.174289" lon="17.928371">
        <ele>55</ele>
        <time>2014-10-11T14:47:34Z</time>
      </trkpt>
      <trkpt lat="59.174342" lon="17.928408">
        <ele>55.1</ele>
        <time>2014-10-11T14:47:35Z</time>
      </trkpt>
      <trkpt lat="59.174398" lon="17.92844">
        <ele>55.2</ele>
        <time>2014-10-11T14:47:36Z</time>
      </trkpt>
      <trkpt lat="59.17445" lon="17.928482">
        <ele>55.3</ele>
        <time>2014-10-11T14:47:37Z</time>
      </trkpt>
      <trkpt lat="59.174496" lon="17.928527">
        <ele>55.4</ele>
        <time>2014-10-11T14:47:38Z</time>
      </trkpt>
      <trkpt lat="59.174553" lon="17.92856">
        <ele>55.4</ele>
        <time>2014-10-11T14:47:39Z</time>
      </trkpt>
      <trkpt lat="59.174604" lon="17.928589">
        <ele>55.5</ele>
        <time>2014-10-11T14:47:40Z</time>
      </trkpt>
      <trkpt lat="59.174657" lon="17.928625">
        <ele>55.9</ele>
        <time>2014-10-11T14:47:41Z</time>
      </trkpt>
      <trkpt lat="59.174702" lon="17.92866">
        <ele>56.2</ele>
        <time>2014-10-11T14:47:42Z</time>
      </trkpt>
      <trkpt lat="59.174747" lon="17.928705">
        <ele>56.5</ele>
        <time>2014-10-11T14:47:43Z</time>
      </trkpt>
      <trkpt lat="59.174799" lon="17.928754">
        <ele>56.8</ele>
        <time>2014-10-11T14:47:44Z</time>
      </trkpt>
      <trkpt lat="59.174855" lon="17.9288">
        <ele>57.1</ele>
        <time>2014-10-11T14:47:45Z</time>
      </trkpt>
      <trkpt lat="59.174911" lon="17.928833">
        <ele>57.3</ele>
        <time>2014-10-11T14:47:46Z</time>
      </trkpt>
      <trkpt lat="59.174959" lon="17.928874">
        <ele>57.6</ele>
        <time>2014-10-11T14:47:47Z</time>
      </trkpt>
      <trkpt lat="59.175013" lon="17.928916">
        <ele>57.8</ele>
        <time>2014-10-11T14:47:48Z</time>
      </trkpt>
      <trkpt lat="59.175065" lon="17.928961">
        <ele>58.1</ele>
        <time>2014-10-11T14:47:49Z</time>
      </trkpt>
      <trkpt lat="59.175112" lon="17.928999">
        <ele>58.3</ele>
        <time>2014-10-11T14:47:50Z</time>
      </trkpt>
      <trkpt lat="59.175168" lon="17.929035">
        <ele>58.5</ele>
        <time>2014-10-11T14:47:51Z</time>
      </trkpt>
      <trkpt lat="59.175225" lon="17.929062">
        <ele>58.8</ele>
        <time>2014-10-11T14:47:52Z</time>
      </trkpt>
      <trkpt lat="59.175287" lon="17.929089">
        <ele>59</ele>
        <time>2014-10-11T14:47:53Z</time>
      </trkpt>
      <trkpt lat="59.175344" lon="17.929108">
        <ele>59.2</ele>
        <time>2014-10-11T14:47:54Z</time>
      </trkpt>
      <trkpt lat="59.175408" lon="17.929117">
        <ele>59.4</ele>
        <time>2014-10-11T14:47:55Z</time>
      </trkpt>
      <trkpt lat="59.175463" lon="17.92915">
        <ele>59.8</ele>
        <time>2014-10-11T14:47:56Z</time>
      </trkpt>
      <trkpt lat="59.175513" lon="17.929172">
        <ele>60.1</ele>
        <time>2014-10-11T14:47:57Z</time>
      </trkpt>
      <trkpt lat="59.175568" lon="17.929184">
        <ele>60.4</ele>
        <time>2014-10-11T14:47:58Z</time>
      </trkpt>
      <trkpt lat="59.175618" lon="17.929217">
        <ele>60.7</ele>
        <time>2014-10-11T14:47:59Z</time>
      </trkpt>
      <trkpt lat="59.175655" lon="17.929243">
        <ele>61</ele>
        <time>2014-10-11T14:48:00Z</time>
      </trkpt>
      <trkpt lat="59.176052" lon="17.929263">
        <ele>63.3</ele>
        <time>2014-10-11T14:48:07Z</time>
      </trkpt>
      <trkpt lat="59.17616" lon="17.929285">
        <ele>63.8</ele>
        <time>2014-10-11T14:48:09Z</time>
      </trkpt>
      <trkpt lat="59.176227" lon="17.929295">
        <ele>64.2</ele>
        <time>2014-10-11T14:48:10Z</time>
      </trkpt>
      <trkpt lat="59.17628" lon="17.929302">
        <ele>64.4</ele>
        <time>2014-10-11T14:48:11Z</time>
      </trkpt>
      <trkpt lat="59.176335" lon="17.929274">
        <ele>64.6</ele>
        <time>2014-10-11T14:48:12Z</time>
      </trkpt>
      <trkpt lat="59.176389" lon="17.929282">
        <ele>64.7</ele>
        <time>2014-10-11T14:48:13Z</time>
      </trkpt>
      <trkpt lat="59.176443" lon="17.929288">
        <ele>64.8</ele>
        <time>2014-10-11T14:48:14Z</time>
      </trkpt>
      <trkpt lat="59.176497" lon="17.92929">
        <ele>64.9</ele>
        <time>2014-10-11T14:48:15Z</time>
      </trkpt>
      <trkpt lat="59.176547" lon="17.929271">
        <ele>65.1</ele>
        <time>2014-10-11T14:48:16Z</time>
      </trkpt>
      <trkpt lat="59.176599" lon="17.929246">
        <ele>65.2</ele>
        <time>2014-10-11T14:48:17Z</time>
      </trkpt>
      <trkpt lat="59.176645" lon="17.929229">
        <ele>65.4</ele>
        <time>2014-10-11T14:48:18Z</time>
      </trkpt>
      <trkpt lat="59.176696" lon="17.929222">
        <ele>65.5</ele>
        <time>2014-10-11T14:48:19Z</time>
      </trkpt>
      <trkpt lat="59.176744" lon="17.929236">
        <ele>65.6</ele>
        <time>2014-10-11T14:48:20Z</time>
      </trkpt>
      <trkpt lat="59.176792" lon="17.929207">
        <ele>65.8</ele>
        <time>2014-10-11T14:48:21Z</time>
      </trkpt>
      <trkpt lat="59.176834" lon="17.929207">
        <ele>65.9</ele>
        <time>2014-10-11T14:48:22Z</time>
      </trkpt>
      <trkpt lat="59.176871" lon="17.929196">
        <ele>66</ele>
        <time>2014-10-11T14:48:23Z</time>
      </trkpt>
      <trkpt lat="59.17693" lon="17.929208">
        <ele>66.1</ele>
        <time>2014-10-11T14:48:24Z</time>
      </trkpt>
      <trkpt lat="59.176971" lon="17.929191">
        <ele>66.2</ele>
        <time>2014-10-11T14:48:25Z</time>
      </trkpt>
      <trkpt lat="59.177012" lon="17.929191">
        <ele>66.3</ele>
        <time>2014-10-11T14:48:26Z</time>
      </trkpt>
      <trkpt lat="59.177057" lon="17.929183">
        <ele>66.4</ele>
        <time>2014-10-11T14:48:27Z</time>
      </trkpt>
      <trkpt lat="59.1771" lon="17.929151">
        <ele>66.6</ele>
        <time>2014-10-11T14:48:28Z</time>
      </trkpt>
      <trkpt lat="59.177132" lon="17.92915">
        <ele>66.7</ele>
        <time>2014-10-11T14:48:29Z</time>
      </trkpt>
      <trkpt lat="59.177184" lon="17.929121">
        <ele>67</ele>
        <time>2014-10-11T14:48:30Z</time>
      </trkpt>
      <trkpt lat="59.177229" lon="17.9291">
        <ele>67.2</ele>
        <time>2014-10-11T14:48:31Z</time>
      </trkpt>
      <trkpt lat="59.177272" lon="17.929054">
        <ele>67.4</ele>
        <time>2014-10-11T14:48:32Z</time>
      </trkpt>
      <trkpt lat="59.17732" lon="17.929015">
        <ele>67.6</ele>
        <time>2014-10-11T14:48:33Z</time>
      </trkpt>
      <trkpt lat="59.177365" lon="17.928989">
        <ele>67.8</ele>
        <time>2014-10-11T14:48:34Z</time>
      </trkpt>
      <trkpt lat="59.177407" lon="17.928962">
        <ele>68</ele>
        <time>2014-10-11T14:48:35Z</time>
      </trkpt>
      <trkpt lat="59.177448" lon="17.928935">
        <ele>68.2</ele>
        <time>2014-10-11T14:48:36Z</time>
      </trkpt>
      <trkpt lat="59.17749" lon="17.928903">
        <ele>68.4</ele>
        <time>2014-10-11T14:48:37Z</time>
      </trkpt>
      <trkpt lat="59.177552" lon="17.92883">
        <ele>68.6</ele>
        <time>2014-10-11T14:48:38Z</time>
      </trkpt>
      <trkpt lat="59.177599" lon="17.928797">
        <ele>68.8</ele>
        <time>2014-10-11T14:48:39Z</time>
      </trkpt>
      <trkpt lat="59.177648" lon="17.928771">
        <ele>69</ele>
        <time>2014-10-11T14:48:40Z</time>
      </trkpt>
      <trkpt lat="59.177698" lon="17.928736">
        <ele>69.3</ele>
        <time>2014-10-11T14:48:41Z</time>
      </trkpt>
      <trkpt lat="59.17774" lon="17.928712">
        <ele>69.5</ele>
        <time>2014-10-11T14:48:42Z</time>
      </trkpt>
      <trkpt lat="59.177789" lon="17.928685">
        <ele>69.7</ele>
        <time>2014-10-11T14:48:43Z</time>
      </trkpt>
      <trkpt lat="59.177841" lon="17.92865">
        <ele>70</ele>
        <time>2014-10-11T14:48:44Z</time>
      </trkpt>
      <trkpt lat="59.177876" lon="17.928638">
        <ele>70.1</ele>
        <time>2014-10-11T14:48:45Z</time>
      </trkpt>
      <trkpt lat="59.177932" lon="17.928606">
        <ele>70.4</ele>
        <time>2014-10-11T14:48:46Z</time>
      </trkpt>
      <trkpt lat="59.177984" lon="17.928579">
        <ele>70.6</ele>
        <time>2014-10-11T14:48:47Z</time>
      </trkpt>
      <trkpt lat="59.178039" lon="17.928561">
        <ele>70.8</ele>
        <time>2014-10-11T14:48:48Z</time>
      </trkpt>
      <trkpt lat="59.178103" lon="17.928526">
        <ele>71.1</ele>
        <time>2014-10-11T14:48:49Z</time>
      </trkpt>
      <trkpt lat="59.178162" lon="17.928486">
        <ele>71.3</ele>
        <time>2014-10-11T14:48:50Z</time>
      </trkpt>
      <trkpt lat="59.178227" lon="17.928461">
        <ele>71.6</ele>
        <time>2014-10-11T14:48:51Z</time>
      </trkpt>
      <trkpt lat="59.178285" lon="17.928437">
        <ele>71.7</ele>
        <time>2014-10-11T14:48:52Z</time>
      </trkpt>
      <trkpt lat="59.178349" lon="17.928411">
        <ele>71.9</ele>
        <time>2014-10-11T14:48:53Z</time>
      </trkpt>
      <trkpt lat="59.178391" lon="17.928405">
        <ele>72.1</ele>
        <time>2014-10-11T14:48:54Z</time>
      </trkpt>
      <trkpt lat="59.178447" lon="17.928386">
        <ele>72.2</ele>
        <time>2014-10-11T14:48:55Z</time>
      </trkpt>
      <trkpt lat="59.178503" lon="17.928372">
        <ele>72.4</ele>
        <time>2014-10-11T14:48:56Z</time>
      </trkpt>
      <trkpt lat="59.178561" lon="17.928358">
        <ele>72.5</ele>
        <time>2014-10-11T14:48:57Z</time>
      </trkpt>
      <trkpt lat="59.178608" lon="17.928348">
        <ele>72.7</ele>
        <time>2014-10-11T14:48:58Z</time>
      </trkpt>
      <trkpt lat="59.178649" lon="17.928351">
        <ele>72.8</ele>
        <time>2014-10-11T14:48:59Z</time>
      </trkpt>
      <trkpt lat="59.178708" lon="17.928332">
        <ele>72.9</ele>
        <time>2014-10-11T14:49:00Z</time>
      </trkpt>
      <trkpt lat="59.178765" lon="17.928315">
        <ele>73</ele>
        <time>2014-10-11T14:49:01Z</time>
      </trkpt>
      <trkpt lat="59.178827" lon="17.928298">
        <ele>73.1</ele>
        <time>2014-10-11T14:49:02Z</time>
      </trkpt>
      <trkpt lat="59.178887" lon="17.928279">
        <ele>73.1</ele>
        <time>2014-10-11T14:49:03Z</time>
      </trkpt>
      <trkpt lat="59.178953" lon="17.928272">
        <ele>73.1</ele>
        <time>2014-10-11T14:49:04Z</time>
      </trkpt>
      <trkpt lat="59.17901" lon="17.928265">
        <ele>73.2</ele>
        <time>2014-10-11T14:49:05Z</time>
      </trkpt>
      <trkpt lat="59.179076" lon="17.928258">
        <ele>73.2</ele>
        <time>2014-10-11T14:49:06Z</time>
      </trkpt>
      <trkpt lat="59.179177" lon="17.928217">
        <ele>73.3</ele>
        <time>2014-10-11T14:49:07Z</time>
      </trkpt>
      <trkpt lat="59.179247" lon="17.928217">
        <ele>73.4</ele>
        <time>2014-10-11T14:49:08Z</time>
      </trkpt>
      <trkpt lat="59.179324" lon="17.928207">
        <ele>73.4</ele>
        <time>2014-10-11T14:49:09Z</time>
      </trkpt>
      <trkpt lat="59.179374" lon="17.928218">
        <ele>73.5</ele>
        <time>2014-10-11T14:49:10Z</time>
      </trkpt>
      <trkpt lat="59.179445" lon="17.928233">
        <ele>73.5</ele>
        <time>2014-10-11T14:49:11Z</time>
      </trkpt>
      <trkpt lat="59.179504" lon="17.92826">
        <ele>73.5</ele>
        <time>2014-10-11T14:49:12Z</time>
      </trkpt>
      <trkpt lat="59.179584" lon="17.928282">
        <ele>73.6</ele>
        <time>2014-10-11T14:49:13Z</time>
      </trkpt>
      <trkpt lat="59.179657" lon="17.9283">
        <ele>73.2</ele>
        <time>2014-10-11T14:49:14Z</time>
      </trkpt>
      <trkpt lat="59.17974" lon="17.928341">
        <ele>72.8</ele>
        <time>2014-10-11T14:49:15Z</time>
      </trkpt>
      <trkpt lat="59.179818" lon="17.928352">
        <ele>72.5</ele>
        <time>2014-10-11T14:49:16Z</time>
      </trkpt>
      <trkpt lat="59.179888" lon="17.928373">
        <ele>72.2</ele>
        <time>2014-10-11T14:49:17Z</time>
      </trkpt>
      <trkpt lat="59.179988" lon="17.92841">
        <ele>71.8</ele>
        <time>2014-10-11T14:49:18Z</time>
      </trkpt>
      <trkpt lat="59.180066" lon="17.928453">
        <ele>71.4</ele>
        <time>2014-10-11T14:49:19Z</time>
      </trkpt>
      <trkpt lat="59.180156" lon="17.928487">
        <ele>71</ele>
        <time>2014-10-11T14:49:20Z</time>
      </trkpt>
      <trkpt lat="59.180244" lon="17.928513">
        <ele>70.7</ele>
        <time>2014-10-11T14:49:21Z</time>
      </trkpt>
      <trkpt lat="59.180329" lon="17.928541">
        <ele>70.3</ele>
        <time>2014-10-11T14:49:22Z</time>
      </trkpt>
      <trkpt lat="59.18042" lon="17.928563">
        <ele>70</ele>
        <time>2014-10-11T14:49:23Z</time>
      </trkpt>
      <trkpt lat="59.180513" lon="17.928582">
        <ele>69.7</ele>
        <time>2014-10-11T14:49:24Z</time>
      </trkpt>
      <trkpt lat="59.180597" lon="17.92861">
        <ele>69.4</ele>
        <time>2014-10-11T14:49:25Z</time>
      </trkpt>
      <trkpt lat="59.180692" lon="17.928633">
        <ele>69.1</ele>
        <time>2014-10-11T14:49:26Z</time>
      </trkpt>
      <trkpt lat="59.180791" lon="17.928654">
        <ele>68.8</ele>
        <time>2014-10-11T14:49:27Z</time>
      </trkpt>
      <trkpt lat="59.18088" lon="17.92869">
        <ele>68.4</ele>
        <time>2014-10-11T14:49:28Z</time>
      </trkpt>
      <trkpt lat="59.180971" lon="17.928707">
        <ele>68.1</ele>
        <time>2014-10-11T14:49:29Z</time>
      </trkpt>
      <trkpt lat="59.181064" lon="17.928744">
        <ele>67.7</ele>
        <time>2014-10-11T14:49:30Z</time>
      </trkpt>
      <trkpt lat="59.181164" lon="17.928769">
        <ele>67.2</ele>
        <time>2014-10-11T14:49:31Z</time>
      </trkpt>
      <trkpt lat="59.181257" lon="17.928788">
        <ele>66.9</ele>
        <time>2014-10-11T14:49:32Z</time>
      </trkpt>
      <trkpt lat="59.181341" lon="17.928819">
        <ele>66.9</ele>
        <time>2014-10-11T14:49:33Z</time>
      </trkpt>
      <trkpt lat="59.181439" lon="17.928826">
        <ele>66.9</ele>
        <time>2014-10-11T14:49:34Z</time>
      </trkpt>
      <trkpt lat="59.181532" lon="17.928842">
        <ele>67</ele>
        <time>2014-10-11T14:49:35Z</time>
      </trkpt>
      <trkpt lat="59.181623" lon="17.928836">
        <ele>67.1</ele>
        <time>2014-10-11T14:49:36Z</time>
      </trkpt>
      <trkpt lat="59.181721" lon="17.92883">
        <ele>67.2</ele>
        <time>2014-10-11T14:49:37Z</time>
      </trkpt>
      <trkpt lat="59.181803" lon="17.928853">
        <ele>67.2</ele>
        <time>2014-10-11T14:49:38Z</time>
      </trkpt>
      <trkpt lat="59.181892" lon="17.928848">
        <ele>67.3</ele>
        <time>2014-10-11T14:49:39Z</time>
      </trkpt>
      <trkpt lat="59.181977" lon="17.928837">
        <ele>67.5</ele>
        <time>2014-10-11T14:49:40Z</time>
      </trkpt>
      <trkpt lat="59.182059" lon="17.928839">
        <ele>67.5</ele>
        <time>2014-10-11T14:49:41Z</time>
      </trkpt>
      <trkpt lat="59.182133" lon="17.928828">
        <ele>67.6</ele>
        <time>2014-10-11T14:49:42Z</time>
      </trkpt>
      <trkpt lat="59.182217" lon="17.928781">
        <ele>67.9</ele>
        <time>2014-10-11T14:49:43Z</time>
      </trkpt>
      <trkpt lat="59.182303" lon="17.928745">
        <ele>68</ele>
        <time>2014-10-11T14:49:44Z</time>
      </trkpt>
      <trkpt lat="59.182409" lon="17.928698">
        <ele>68.2</ele>
        <time>2014-10-11T14:49:45Z</time>
      </trkpt>
      <trkpt lat="59.1825" lon="17.928662">
        <ele>68.4</ele>
        <time>2014-10-11T14:49:46Z</time>
      </trkpt>
      <trkpt lat="59.182594" lon="17.928587">
        <ele>68.7</ele>
        <time>2014-10-11T14:49:47Z</time>
      </trkpt>
      <trkpt lat="59.182685" lon="17.928534">
        <ele>68.8</ele>
        <time>2014-10-11T14:49:48Z</time>
      </trkpt>
      <trkpt lat="59.182772" lon="17.928491">
        <ele>69</ele>
        <time>2014-10-11T14:49:49Z</time>
      </trkpt>
      <trkpt lat="59.182866" lon="17.92843">
        <ele>69.2</ele>
        <time>2014-10-11T14:49:50Z</time>
      </trkpt>
      <trkpt lat="59.182944" lon="17.928379">
        <ele>69.2</ele>
        <time>2014-10-11T14:49:51Z</time>
      </trkpt>
      <trkpt lat="59.183029" lon="17.928342">
        <ele>68.7</ele>
        <time>2014-10-11T14:49:52Z</time>
      </trkpt>
      <trkpt lat="59.183101" lon="17.928309">
        <ele>68.3</ele>
        <time>2014-10-11T14:49:53Z</time>
      </trkpt>
      <trkpt lat="59.183175" lon="17.928298">
        <ele>67.9</ele>
        <time>2014-10-11T14:49:54Z</time>
      </trkpt>
      <trkpt lat="59.183271" lon="17.928269">
        <ele>67.2</ele>
        <time>2014-10-11T14:49:55Z</time>
      </trkpt>
      <trkpt lat="59.183341" lon="17.928226">
        <ele>66.8</ele>
        <time>2014-10-11T14:49:56Z</time>
      </trkpt>
      <trkpt lat="59.18341" lon="17.928199">
        <ele>66.3</ele>
        <time>2014-10-11T14:49:57Z</time>
      </trkpt>
      <trkpt lat="59.183488" lon="17.928152">
        <ele>65.6</ele>
        <time>2014-10-11T14:49:58Z</time>
      </trkpt>
      <trkpt lat="59.183561" lon="17.928125">
        <ele>65</ele>
        <time>2014-10-11T14:49:59Z</time>
      </trkpt>
      <trkpt lat="59.183633" lon="17.928078">
        <ele>64.4</ele>
        <time>2014-10-11T14:50:00Z</time>
      </trkpt>
      <trkpt lat="59.183701" lon="17.928041">
        <ele>63.7</ele>
        <time>2014-10-11T14:50:01Z</time>
      </trkpt>
      <trkpt lat="59.183762" lon="17.927997">
        <ele>63.1</ele>
        <time>2014-10-11T14:50:02Z</time>
      </trkpt>
      <trkpt lat="59.183832" lon="17.927971">
        <ele>62.7</ele>
        <time>2014-10-11T14:50:03Z</time>
      </trkpt>
      <trkpt lat="59.183905" lon="17.927962">
        <ele>62.4</ele>
        <time>2014-10-11T14:50:04Z</time>
      </trkpt>
      <trkpt lat="59.183966" lon="17.927937">
        <ele>62</ele>
        <time>2014-10-11T14:50:05Z</time>
      </trkpt>
      <trkpt lat="59.184046" lon="17.927915">
        <ele>61.6</ele>
        <time>2014-10-11T14:50:06Z</time>
      </trkpt>
      <trkpt lat="59.18412" lon="17.927873">
        <ele>61.1</ele>
        <time>2014-10-11T14:50:07Z</time>
      </trkpt>
      <trkpt lat="59.184197" lon="17.927853">
        <ele>60.7</ele>
        <time>2014-10-11T14:50:08Z</time>
      </trkpt>
      <trkpt lat="59.184255" lon="17.927843">
        <ele>60.4</ele>
        <time>2014-10-11T14:50:09Z</time>
      </trkpt>
      <trkpt lat="59.184336" lon="17.927828">
        <ele>60</ele>
        <time>2014-10-11T14:50:10Z</time>
      </trkpt>
      <trkpt lat="59.184406" lon="17.927801">
        <ele>59.6</ele>
        <time>2014-10-11T14:50:11Z</time>
      </trkpt>
      <trkpt lat="59.184463" lon="17.92778">
        <ele>59.3</ele>
        <time>2014-10-11T14:50:12Z</time>
      </trkpt>
      <trkpt lat="59.184538" lon="17.927761">
        <ele>58.9</ele>
        <time>2014-10-11T14:50:13Z</time>
      </trkpt>
      <trkpt lat="59.1846" lon="17.927746">
        <ele>58.6</ele>
        <time>2014-10-11T14:50:14Z</time>
      </trkpt>
      <trkpt lat="59.184665" lon="17.927735">
        <ele>58.8</ele>
        <time>2014-10-11T14:50:15Z</time>
      </trkpt>
      <trkpt lat="59.184727" lon="17.927741">
        <ele>59</ele>
        <time>2014-10-11T14:50:16Z</time>
      </trkpt>
      <trkpt lat="59.184798" lon="17.927727">
        <ele>59.2</ele>
        <time>2014-10-11T14:50:17Z</time>
      </trkpt>
      <trkpt lat="59.184865" lon="17.927729">
        <ele>59.4</ele>
        <time>2014-10-11T14:50:18Z</time>
      </trkpt>
      <trkpt lat="59.184936" lon="17.927732">
        <ele>59.6</ele>
        <time>2014-10-11T14:50:19Z</time>
      </trkpt>
      <trkpt lat="59.185009" lon="17.927724">
        <ele>59.8</ele>
        <time>2014-10-11T14:50:20Z</time>
      </trkpt>
      <trkpt lat="59.18508" lon="17.92773">
        <ele>60</ele>
        <time>2014-10-11T14:50:21Z</time>
      </trkpt>
      <trkpt lat="59.185153" lon="17.927748">
        <ele>60.2</ele>
        <time>2014-10-11T14:50:22Z</time>
      </trkpt>
      <trkpt lat="59.185224" lon="17.927771">
        <ele>60.5</ele>
        <time>2014-10-11T14:50:23Z</time>
      </trkpt>
      <trkpt lat="59.185296" lon="17.927808">
        <ele>60.7</ele>
        <time>2014-10-11T14:50:24Z</time>
      </trkpt>
      <trkpt lat="59.185377" lon="17.927843">
        <ele>60.9</ele>
        <time>2014-10-11T14:50:25Z</time>
      </trkpt>
      <trkpt lat="59.185446" lon="17.927875">
        <ele>61.3</ele>
        <time>2014-10-11T14:50:26Z</time>
      </trkpt>
      <trkpt lat="59.185524" lon="17.927914">
        <ele>61.9</ele>
        <time>2014-10-11T14:50:27Z</time>
      </trkpt>
      <trkpt lat="59.1856" lon="17.927953">
        <ele>62.5</ele>
        <time>2014-10-11T14:50:28Z</time>
      </trkpt>
      <trkpt lat="59.185679" lon="17.927977">
        <ele>63.1</ele>
        <time>2014-10-11T14:50:29Z</time>
      </trkpt>
      <trkpt lat="59.185757" lon="17.928013">
        <ele>63.7</ele>
        <time>2014-10-11T14:50:30Z</time>
      </trkpt>
      <trkpt lat="59.185838" lon="17.928046">
        <ele>64.3</ele>
        <time>2014-10-11T14:50:31Z</time>
      </trkpt>
      <trkpt lat="59.185916" lon="17.928073">
        <ele>64.9</ele>
        <time>2014-10-11T14:50:32Z</time>
      </trkpt>
      <trkpt lat="59.185995" lon="17.928105">
        <ele>65.4</ele>
        <time>2014-10-11T14:50:33Z</time>
      </trkpt>
      <trkpt lat="59.186071" lon="17.928136">
        <ele>65.9</ele>
        <time>2014-10-11T14:50:34Z</time>
      </trkpt>
      <trkpt lat="59.186145" lon="17.92817">
        <ele>66.3</ele>
        <time>2014-10-11T14:50:35Z</time>
      </trkpt>
      <trkpt lat="59.18622" lon="17.928203">
        <ele>66.8</ele>
        <time>2014-10-11T14:50:36Z</time>
      </trkpt>
      <trkpt lat="59.186286" lon="17.928224">
        <ele>67.1</ele>
        <time>2014-10-11T14:50:37Z</time>
      </trkpt>
      <trkpt lat="59.186359" lon="17.928257">
        <ele>67.3</ele>
        <time>2014-10-11T14:50:38Z</time>
      </trkpt>
      <trkpt lat="59.186433" lon="17.928286">
        <ele>67.5</ele>
        <time>2014-10-11T14:50:39Z</time>
      </trkpt>
      <trkpt lat="59.186505" lon="17.928337">
        <ele>67.7</ele>
        <time>2014-10-11T14:50:40Z</time>
      </trkpt>
      <trkpt lat="59.18658" lon="17.928375">
        <ele>67.9</ele>
        <time>2014-10-11T14:50:41Z</time>
      </trkpt>
      <trkpt lat="59.186656" lon="17.928392">
        <ele>68.2</ele>
        <time>2014-10-11T14:50:42Z</time>
      </trkpt>
      <trkpt lat="59.186725" lon="17.92842">
        <ele>68.5</ele>
        <time>2014-10-11T14:50:43Z</time>
      </trkpt>
      <trkpt lat="59.186792" lon="17.928456">
        <ele>68.7</ele>
        <time>2014-10-11T14:50:44Z</time>
      </trkpt>
      <trkpt lat="59.186864" lon="17.928487">
        <ele>68.9</ele>
        <time>2014-10-11T14:50:45Z</time>
      </trkpt>
      <trkpt lat="59.18693" lon="17.928519">
        <ele>69.1</ele>
        <time>2014-10-11T14:50:46Z</time>
      </trkpt>
      <trkpt lat="59.187006" lon="17.928537">
        <ele>69.4</ele>
        <time>2014-10-11T14:50:47Z</time>
      </trkpt>
      <trkpt lat="59.18708" lon="17.928563">
        <ele>69.7</ele>
        <time>2014-10-11T14:50:48Z</time>
      </trkpt>
      <trkpt lat="59.18716" lon="17.928574">
        <ele>69.7</ele>
        <time>2014-10-11T14:50:49Z</time>
      </trkpt>
      <trkpt lat="59.187226" lon="17.928594">
        <ele>69.7</ele>
        <time>2014-10-11T14:50:50Z</time>
      </trkpt>
      <trkpt lat="59.187296" lon="17.928626">
        <ele>69.7</ele>
        <time>2014-10-11T14:50:51Z</time>
      </trkpt>
      <trkpt lat="59.187373" lon="17.928652">
        <ele>69.7</ele>
        <time>2014-10-11T14:50:52Z</time>
      </trkpt>
      <trkpt lat="59.187443" lon="17.928669">
        <ele>69.7</ele>
        <time>2014-10-11T14:50:53Z</time>
      </trkpt>
      <trkpt lat="59.187525" lon="17.928691">
        <ele>69.7</ele>
        <time>2014-10-11T14:50:54Z</time>
      </trkpt>
      <trkpt lat="59.187601" lon="17.928713">
        <ele>69.7</ele>
        <time>2014-10-11T14:50:55Z</time>
      </trkpt>
      <trkpt lat="59.187684" lon="17.928736">
        <ele>69.8</ele>
        <time>2014-10-11T14:50:56Z</time>
      </trkpt>
      <trkpt lat="59.187766" lon="17.928763">
        <ele>69.8</ele>
        <time>2014-10-11T14:50:57Z</time>
      </trkpt>
      <trkpt lat="59.187834" lon="17.928802">
        <ele>69.9</ele>
        <time>2014-10-11T14:50:58Z</time>
      </trkpt>
      <trkpt lat="59.187908" lon="17.928819">
        <ele>70</ele>
        <time>2014-10-11T14:50:59Z</time>
      </trkpt>
      <trkpt lat="59.187987" lon="17.928846">
        <ele>70.2</ele>
        <time>2014-10-11T14:51:00Z</time>
      </trkpt>
      <trkpt lat="59.188066" lon="17.928906">
        <ele>70.5</ele>
        <time>2014-10-11T14:51:01Z</time>
      </trkpt>
      <trkpt lat="59.188133" lon="17.928958">
        <ele>70.7</ele>
        <time>2014-10-11T14:51:02Z</time>
      </trkpt>
      <trkpt lat="59.188211" lon="17.928985">
        <ele>71</ele>
        <time>2014-10-11T14:51:03Z</time>
      </trkpt>
      <trkpt lat="59.188288" lon="17.929006">
        <ele>71.2</ele>
        <time>2014-10-11T14:51:04Z</time>
      </trkpt>
      <trkpt lat="59.188366" lon="17.929033">
        <ele>71.4</ele>
        <time>2014-10-11T14:51:05Z</time>
      </trkpt>
      <trkpt lat="59.188442" lon="17.929068">
        <ele>71.7</ele>
        <time>2014-10-11T14:51:06Z</time>
      </trkpt>
      <trkpt lat="59.188511" lon="17.929098">
        <ele>71.8</ele>
        <time>2014-10-11T14:51:07Z</time>
      </trkpt>
      <trkpt lat="59.188591" lon="17.929124">
        <ele>72.1</ele>
        <time>2014-10-11T14:51:08Z</time>
      </trkpt>
      <trkpt lat="59.188659" lon="17.929152">
        <ele>72.2</ele>
        <time>2014-10-11T14:51:09Z</time>
      </trkpt>
      <trkpt lat="59.188736" lon="17.929168">
        <ele>72.5</ele>
        <time>2014-10-11T14:51:10Z</time>
      </trkpt>
      <trkpt lat="59.188822" lon="17.929181">
        <ele>72.4</ele>
        <time>2014-10-11T14:51:11Z</time>
      </trkpt>
      <trkpt lat="59.188899" lon="17.929193">
        <ele>72.4</ele>
        <time>2014-10-11T14:51:12Z</time>
      </trkpt>
      <trkpt lat="59.188972" lon="17.929239">
        <ele>72.3</ele>
        <time>2014-10-11T14:51:13Z</time>
      </trkpt>
      <trkpt lat="59.189049" lon="17.929258">
        <ele>72.3</ele>
        <time>2014-10-11T14:51:14Z</time>
      </trkpt>
      <trkpt lat="59.189124" lon="17.929237">
        <ele>72.2</ele>
        <time>2014-10-11T14:51:15Z</time>
      </trkpt>
      <trkpt lat="59.189191" lon="17.929243">
        <ele>72.2</ele>
        <time>2014-10-11T14:51:16Z</time>
      </trkpt>
      <trkpt lat="59.189262" lon="17.92926">
        <ele>72.1</ele>
        <time>2014-10-11T14:51:17Z</time>
      </trkpt>
      <trkpt lat="59.18934" lon="17.929266">
        <ele>72.1</ele>
        <time>2014-10-11T14:51:18Z</time>
      </trkpt>
      <trkpt lat="59.189409" lon="17.929281">
        <ele>72.1</ele>
        <time>2014-10-11T14:51:19Z</time>
      </trkpt>
      <trkpt lat="59.189493" lon="17.929282">
        <ele>72</ele>
        <time>2014-10-11T14:51:20Z</time>
      </trkpt>
      <trkpt lat="59.189561" lon="17.929284">
        <ele>72</ele>
        <time>2014-10-11T14:51:21Z</time>
      </trkpt>
      <trkpt lat="59.189636" lon="17.929304">
        <ele>71.7</ele>
        <time>2014-10-11T14:51:22Z</time>
      </trkpt>
      <trkpt lat="59.189698" lon="17.929362">
        <ele>71.3</ele>
        <time>2014-10-11T14:51:23Z</time>
      </trkpt>
      <trkpt lat="59.189756" lon="17.92944">
        <ele>71</ele>
        <time>2014-10-11T14:51:24Z</time>
      </trkpt>
      <trkpt lat="59.189793" lon="17.929538">
        <ele>70.8</ele>
        <time>2014-10-11T14:51:25Z</time>
      </trkpt>
      <trkpt lat="59.189828" lon="17.929639">
        <ele>70.5</ele>
        <time>2014-10-11T14:51:26Z</time>
      </trkpt>
      <trkpt lat="59.189849" lon="17.929775">
        <ele>70.2</ele>
        <time>2014-10-11T14:51:27Z</time>
      </trkpt>
      <trkpt lat="59.189875" lon="17.929892">
        <ele>69.9</ele>
        <time>2014-10-11T14:51:28Z</time>
      </trkpt>
      <trkpt lat="59.1899" lon="17.930015">
        <ele>69.6</ele>
        <time>2014-10-11T14:51:29Z</time>
      </trkpt>
      <trkpt lat="59.189929" lon="17.930138">
        <ele>69.3</ele>
        <time>2014-10-11T14:51:30Z</time>
      </trkpt>
      <trkpt lat="59.189958" lon="17.930265">
        <ele>68.9</ele>
        <time>2014-10-11T14:51:31Z</time>
      </trkpt>
      <trkpt lat="59.189989" lon="17.930385">
        <ele>68.6</ele>
        <time>2014-10-11T14:51:32Z</time>
      </trkpt>
      <trkpt lat="59.190026" lon="17.930515">
        <ele>68.3</ele>
        <time>2014-10-11T14:51:33Z</time>
      </trkpt>
      <trkpt lat="59.19006" lon="17.930645">
        <ele>68.1</ele>
        <time>2014-10-11T14:51:34Z</time>
      </trkpt>
      <trkpt lat="59.190091" lon="17.930784">
        <ele>67.9</ele>
        <time>2014-10-11T14:51:35Z</time>
      </trkpt>
      <trkpt lat="59.190128" lon="17.930918">
        <ele>67.5</ele>
        <time>2014-10-11T14:51:36Z</time>
      </trkpt>
      <trkpt lat="59.190167" lon="17.931038">
        <ele>67.2</ele>
        <time>2014-10-11T14:51:37Z</time>
      </trkpt>
      <trkpt lat="59.190228" lon="17.931146">
        <ele>66.7</ele>
        <time>2014-10-11T14:51:38Z</time>
      </trkpt>
      <trkpt lat="59.190292" lon="17.93122">
        <ele>66.1</ele>
        <time>2014-10-11T14:51:39Z</time>
      </trkpt>
      <trkpt lat="59.190365" lon="17.931264">
        <ele>65.4</ele>
        <time>2014-10-11T14:51:40Z</time>
      </trkpt>
      <trkpt lat="59.190439" lon="17.93127">
        <ele>64.8</ele>
        <time>2014-10-11T14:51:41Z</time>
      </trkpt>
      <trkpt lat="59.190527" lon="17.931231">
        <ele>64.4</ele>
        <time>2014-10-11T14:51:42Z</time>
      </trkpt>
      <trkpt lat="59.190599" lon="17.931168">
        <ele>64</ele>
        <time>2014-10-11T14:51:43Z</time>
      </trkpt>
      <trkpt lat="59.190681" lon="17.931102">
        <ele>63.5</ele>
        <time>2014-10-11T14:51:44Z</time>
      </trkpt>
      <trkpt lat="59.190757" lon="17.931029">
        <ele>63.1</ele>
        <time>2014-10-11T14:51:45Z</time>
      </trkpt>
      <trkpt lat="59.190824" lon="17.930956">
        <ele>62.7</ele>
        <time>2014-10-11T14:51:46Z</time>
      </trkpt>
      <trkpt lat="59.1909" lon="17.930855">
        <ele>62.3</ele>
        <time>2014-10-11T14:51:47Z</time>
      </trkpt>
      <trkpt lat="59.190969" lon="17.93077">
        <ele>61.9</ele>
        <time>2014-10-11T14:51:48Z</time>
      </trkpt>
      <trkpt lat="59.191033" lon="17.930704">
        <ele>61.5</ele>
        <time>2014-10-11T14:51:49Z</time>
      </trkpt>
      <trkpt lat="59.191103" lon="17.930615">
        <ele>61</ele>
        <time>2014-10-11T14:51:50Z</time>
      </trkpt>
      <trkpt lat="59.191171" lon="17.930528">
        <ele>60.6</ele>
        <time>2014-10-11T14:51:51Z</time>
      </trkpt>
      <trkpt lat="59.191239" lon="17.930445">
        <ele>60.1</ele>
        <time>2014-10-11T14:51:52Z</time>
      </trkpt>
      <trkpt lat="59.191301" lon="17.93037">
        <ele>60.1</ele>
        <time>2014-10-11T14:51:53Z</time>
      </trkpt>
      <trkpt lat="59.191352" lon="17.930289">
        <ele>60.3</ele>
        <time>2014-10-11T14:51:54Z</time>
      </trkpt>
      <trkpt lat="59.191407" lon="17.930206">
        <ele>60.5</ele>
        <time>2014-10-11T14:51:55Z</time>
      </trkpt>
      <trkpt lat="59.191464" lon="17.930132">
        <ele>60.6</ele>
        <time>2014-10-11T14:51:56Z</time>
      </trkpt>
      <trkpt lat="59.191517" lon="17.930062">
        <ele>60.7</ele>
        <time>2014-10-11T14:51:57Z</time>
      </trkpt>
      <trkpt lat="59.191585" lon="17.929976">
        <ele>60.8</ele>
        <time>2014-10-11T14:51:58Z</time>
      </trkpt>
      <trkpt lat="59.191642" lon="17.929909">
        <ele>60.8</ele>
        <time>2014-10-11T14:51:59Z</time>
      </trkpt>
      <trkpt lat="59.191707" lon="17.929843">
        <ele>60.8</ele>
        <time>2014-10-11T14:52:00Z</time>
      </trkpt>
      <trkpt lat="59.191774" lon="17.929767">
        <ele>60.7</ele>
        <time>2014-10-11T14:52:01Z</time>
      </trkpt>
      <trkpt lat="59.191852" lon="17.929692">
        <ele>60.6</ele>
        <time>2014-10-11T14:52:02Z</time>
      </trkpt>
      <trkpt lat="59.19192" lon="17.929646">
        <ele>60.5</ele>
        <time>2014-10-11T14:52:03Z</time>
      </trkpt>
      <trkpt lat="59.191971" lon="17.929608">
        <ele>60.4</ele>
        <time>2014-10-11T14:52:04Z</time>
      </trkpt>
      <trkpt lat="59.192039" lon="17.929547">
        <ele>60.2</ele>
        <time>2014-10-11T14:52:05Z</time>
      </trkpt>
      <trkpt lat="59.192106" lon="17.929478">
        <ele>60.1</ele>
        <time>2014-10-11T14:52:06Z</time>
      </trkpt>
      <trkpt lat="59.192163" lon="17.92943">
        <ele>60.1</ele>
        <time>2014-10-11T14:52:07Z</time>
      </trkpt>
      <trkpt lat="59.192227" lon="17.929368">
        <ele>60</ele>
        <time>2014-10-11T14:52:08Z</time>
      </trkpt>
      <trkpt lat="59.1923" lon="17.929319">
        <ele>59.9</ele>
        <time>2014-10-11T14:52:09Z</time>
      </trkpt>
      <trkpt lat="59.192367" lon="17.929275">
        <ele>59.7</ele>
        <time>2014-10-11T14:52:10Z</time>
      </trkpt>
      <trkpt lat="59.192441" lon="17.929224">
        <ele>59.5</ele>
        <time>2014-10-11T14:52:11Z</time>
      </trkpt>
      <trkpt lat="59.192502" lon="17.92917">
        <ele>59.3</ele>
        <time>2014-10-11T14:52:12Z</time>
      </trkpt>
      <trkpt lat="59.192571" lon="17.92913">
        <ele>59</ele>
        <time>2014-10-11T14:52:13Z</time>
      </trkpt>
      <trkpt lat="59.192645" lon="17.929086">
        <ele>58.6</ele>
        <time>2014-10-11T14:52:14Z</time>
      </trkpt>
      <trkpt lat="59.192708" lon="17.929063">
        <ele>58.3</ele>
        <time>2014-10-11T14:52:15Z</time>
      </trkpt>
      <trkpt lat="59.192777" lon="17.929027">
        <ele>57.9</ele>
        <time>2014-10-11T14:52:16Z</time>
      </trkpt>
      <trkpt lat="59.192851" lon="17.928996">
        <ele>57.5</ele>
        <time>2014-10-11T14:52:17Z</time>
      </trkpt>
      <trkpt lat="59.192908" lon="17.928967">
        <ele>57.1</ele>
        <time>2014-10-11T14:52:18Z</time>
      </trkpt>
      <trkpt lat="59.192975" lon="17.928941">
        <ele>57</ele>
        <time>2014-10-11T14:52:19Z</time>
      </trkpt>
      <trkpt lat="59.193041" lon="17.928917">
        <ele>57</ele>
        <time>2014-10-11T14:52:20Z</time>
      </trkpt>
      <trkpt lat="59.193113" lon="17.928905">
        <ele>57</ele>
        <time>2014-10-11T14:52:21Z</time>
      </trkpt>
      <trkpt lat="59.19319" lon="17.928884">
        <ele>57</ele>
        <time>2014-10-11T14:52:22Z</time>
      </trkpt>
      <trkpt lat="59.193253" lon="17.928875">
        <ele>57</ele>
        <time>2014-10-11T14:52:23Z</time>
      </trkpt>
      <trkpt lat="59.193317" lon="17.928867">
        <ele>57</ele>
        <time>2014-10-11T14:52:24Z</time>
      </trkpt>
      <trkpt lat="59.193386" lon="17.928858">
        <ele>57.1</ele>
        <time>2014-10-11T14:52:25Z</time>
      </trkpt>
      <trkpt lat="59.193454" lon="17.928848">
        <ele>57.1</ele>
        <time>2014-10-11T14:52:26Z</time>
      </trkpt>
      <trkpt lat="59.193525" lon="17.928844">
        <ele>57.2</ele>
        <time>2014-10-11T14:52:27Z</time>
      </trkpt>
      <trkpt lat="59.193599" lon="17.928845">
        <ele>57.3</ele>
        <time>2014-10-11T14:52:28Z</time>
      </trkpt>
      <trkpt lat="59.193671" lon="17.928841">
        <ele>57.3</ele>
        <time>2014-10-11T14:52:29Z</time>
      </trkpt>
      <trkpt lat="59.193738" lon="17.928845">
        <ele>57.4</ele>
        <time>2014-10-11T14:52:30Z</time>
      </trkpt>
      <trkpt lat="59.193803" lon="17.92884">
        <ele>57.5</ele>
        <time>2014-10-11T14:52:31Z</time>
      </trkpt>
      <trkpt lat="59.193874" lon="17.92885">
        <ele>57.7</ele>
        <time>2014-10-11T14:52:32Z</time>
      </trkpt>
      <trkpt lat="59.193938" lon="17.928853">
        <ele>57.9</ele>
        <time>2014-10-11T14:52:33Z</time>
      </trkpt>
      <trkpt lat="59.194004" lon="17.928863">
        <ele>58.1</ele>
        <time>2014-10-11T14:52:34Z</time>
      </trkpt>
      <trkpt lat="59.19407" lon="17.92888">
        <ele>58.3</ele>
        <time>2014-10-11T14:52:35Z</time>
      </trkpt>
      <trkpt lat="59.194128" lon="17.928892">
        <ele>58.4</ele>
        <time>2014-10-11T14:52:36Z</time>
      </trkpt>
      <trkpt lat="59.194186" lon="17.928895">
        <ele>58.6</ele>
        <time>2014-10-11T14:52:37Z</time>
      </trkpt>
      <trkpt lat="59.194238" lon="17.92891">
        <ele>58.7</ele>
        <time>2014-10-11T14:52:38Z</time>
      </trkpt>
      <trkpt lat="59.194297" lon="17.928915">
        <ele>58.8</ele>
        <time>2014-10-11T14:52:39Z</time>
      </trkpt>
      <trkpt lat="59.194351" lon="17.92892">
        <ele>59</ele>
        <time>2014-10-11T14:52:40Z</time>
      </trkpt>
      <trkpt lat="59.194409" lon="17.928924">
        <ele>59.1</ele>
        <time>2014-10-11T14:52:41Z</time>
      </trkpt>
      <trkpt lat="59.194461" lon="17.928926">
        <ele>59.2</ele>
        <time>2014-10-11T14:52:42Z</time>
      </trkpt>
      <trkpt lat="59.19452" lon="17.928932">
        <ele>59.3</ele>
        <time>2014-10-11T14:52:43Z</time>
      </trkpt>
      <trkpt lat="59.19458" lon="17.928944">
        <ele>59.5</ele>
        <time>2014-10-11T14:52:44Z</time>
      </trkpt>
      <trkpt lat="59.194638" lon="17.928945">
        <ele>59.9</ele>
        <time>2014-10-11T14:52:45Z</time>
      </trkpt>
      <trkpt lat="59.19469" lon="17.928968">
        <ele>60.4</ele>
        <time>2014-10-11T14:52:46Z</time>
      </trkpt>
      <trkpt lat="59.194745" lon="17.928994">
        <ele>60.9</ele>
        <time>2014-10-11T14:52:47Z</time>
      </trkpt>
      <trkpt lat="59.194802" lon="17.929008">
        <ele>61.4</ele>
        <time>2014-10-11T14:52:48Z</time>
      </trkpt>
      <trkpt lat="59.194856" lon="17.929033">
        <ele>61.9</ele>
        <time>2014-10-11T14:52:49Z</time>
      </trkpt>
      <trkpt lat="59.19491" lon="17.929038">
        <ele>62.3</ele>
        <time>2014-10-11T14:52:50Z</time>
      </trkpt>
      <trkpt lat="59.194957" lon="17.929054">
        <ele>62.7</ele>
        <time>2014-10-11T14:52:51Z</time>
      </trkpt>
      <trkpt lat="59.195011" lon="17.929068">
        <ele>63.2</ele>
        <time>2014-10-11T14:52:52Z</time>
      </trkpt>
      <trkpt lat="59.195066" lon="17.929071">
        <ele>63.6</ele>
        <time>2014-10-11T14:52:53Z</time>
      </trkpt>
      <trkpt lat="59.195118" lon="17.929075">
        <ele>64</ele>
        <time>2014-10-11T14:52:54Z</time>
      </trkpt>
      <trkpt lat="59.195167" lon="17.929084">
        <ele>64.4</ele>
        <time>2014-10-11T14:52:55Z</time>
      </trkpt>
      <trkpt lat="59.195218" lon="17.929084">
        <ele>64.8</ele>
        <time>2014-10-11T14:52:56Z</time>
      </trkpt>
      <trkpt lat="59.195277" lon="17.929094">
        <ele>65.3</ele>
        <time>2014-10-11T14:52:57Z</time>
      </trkpt>
      <trkpt lat="59.19533" lon="17.929116">
        <ele>65.8</ele>
        <time>2014-10-11T14:52:58Z</time>
      </trkpt>
      <trkpt lat="59.195386" lon="17.929125">
        <ele>66.2</ele>
        <time>2014-10-11T14:52:59Z</time>
      </trkpt>
      <trkpt lat="59.195437" lon="17.929145">
        <ele>66.6</ele>
        <time>2014-10-11T14:53:00Z</time>
      </trkpt>
      <trkpt lat="59.195778" lon="17.92922">
        <ele>69.2</ele>
        <time>2014-10-11T14:53:07Z</time>
      </trkpt>
      <trkpt lat="59.195845" lon="17.929204">
        <ele>69.6</ele>
        <time>2014-10-11T14:53:08Z</time>
      </trkpt>
      <trkpt lat="59.195885" lon="17.929214">
        <ele>69.9</ele>
        <time>2014-10-11T14:53:09Z</time>
      </trkpt>
      <trkpt lat="59.195936" lon="17.929228">
        <ele>70.3</ele>
        <time>2014-10-11T14:53:10Z</time>
      </trkpt>
      <trkpt lat="59.19598" lon="17.929227">
        <ele>70.6</ele>
        <time>2014-10-11T14:53:11Z</time>
      </trkpt>
      <trkpt lat="59.196029" lon="17.929258">
        <ele>71</ele>
        <time>2014-10-11T14:53:12Z</time>
      </trkpt>
      <trkpt lat="59.196075" lon="17.92928">
        <ele>71.4</ele>
        <time>2014-10-11T14:53:13Z</time>
      </trkpt>
      <trkpt lat="59.196116" lon="17.929303">
        <ele>71.7</ele>
        <time>2014-10-11T14:53:14Z</time>
      </trkpt>
      <trkpt lat="59.196152" lon="17.929303">
        <ele>72</ele>
        <time>2014-10-11T14:53:15Z</time>
      </trkpt>
      <trkpt lat="59.196206" lon="17.929307">
        <ele>72.4</ele>
        <time>2014-10-11T14:53:16Z</time>
      </trkpt>
      <trkpt lat="59.196261" lon="17.929316">
        <ele>72.7</ele>
        <time>2014-10-11T14:53:17Z</time>
      </trkpt>
      <trkpt lat="59.19631" lon="17.929312">
        <ele>72.6</ele>
        <time>2014-10-11T14:53:18Z</time>
      </trkpt>
      <trkpt lat="59.196361" lon="17.929319">
        <ele>72.6</ele>
        <time>2014-10-11T14:53:19Z</time>
      </trkpt>
      <trkpt lat="59.196412" lon="17.92932">
        <ele>72.6</ele>
        <time>2014-10-11T14:53:20Z</time>
      </trkpt>
      <trkpt lat="59.19646" lon="17.929329">
        <ele>72.5</ele>
        <time>2014-10-11T14:53:21Z</time>
      </trkpt>
      <trkpt lat="59.196512" lon="17.929341">
        <ele>72.5</ele>
        <time>2014-10-11T14:53:22Z</time>
      </trkpt>
      <trkpt lat="59.196572" lon="17.929338">
        <ele>72.4</ele>
        <time>2014-10-11T14:53:23Z</time>
      </trkpt>
      <trkpt lat="59.196616" lon="17.929338">
        <ele>72.4</ele>
        <time>2014-10-11T14:53:24Z</time>
      </trkpt>
      <trkpt lat="59.196674" lon="17.929351">
        <ele>72.4</ele>
        <time>2014-10-11T14:53:25Z</time>
      </trkpt>
      <trkpt lat="59.196736" lon="17.929342">
        <ele>72.3</ele>
        <time>2014-10-11T14:53:26Z</time>
      </trkpt>
      <trkpt lat="59.196788" lon="17.929333">
        <ele>72.2</ele>
        <time>2014-10-11T14:53:27Z</time>
      </trkpt>
      <trkpt lat="59.196834" lon="17.929333">
        <ele>72.2</ele>
        <time>2014-10-11T14:53:28Z</time>
      </trkpt>
      <trkpt lat="59.196891" lon="17.929328">
        <ele>72.2</ele>
        <time>2014-10-11T14:53:29Z</time>
      </trkpt>
      <trkpt lat="59.196952" lon="17.929324">
        <ele>72.1</ele>
        <time>2014-10-11T14:53:30Z</time>
      </trkpt>
      <trkpt lat="59.197009" lon="17.929331">
        <ele>72.1</ele>
        <time>2014-10-11T14:53:31Z</time>
      </trkpt>
      <trkpt lat="59.197068" lon="17.929318">
        <ele>72</ele>
        <time>2014-10-11T14:53:32Z</time>
      </trkpt>
      <trkpt lat="59.197128" lon="17.929314">
        <ele>71.9</ele>
        <time>2014-10-11T14:53:33Z</time>
      </trkpt>
      <trkpt lat="59.197188" lon="17.929302">
        <ele>71.7</ele>
        <time>2014-10-11T14:53:34Z</time>
      </trkpt>
      <trkpt lat="59.197256" lon="17.929295">
        <ele>71.6</ele>
        <time>2014-10-11T14:53:35Z</time>
      </trkpt>
      <trkpt lat="59.197325" lon="17.929279">
        <ele>71.4</ele>
        <time>2014-10-11T14:53:36Z</time>
      </trkpt>
      <trkpt lat="59.197393" lon="17.929269">
        <ele>71.3</ele>
        <time>2014-10-11T14:53:37Z</time>
      </trkpt>
      <trkpt lat="59.197473" lon="17.929269">
        <ele>71.1</ele>
        <time>2014-10-11T14:53:38Z</time>
      </trkpt>
      <trkpt lat="59.197544" lon="17.929255">
        <ele>70.9</ele>
        <time>2014-10-11T14:53:39Z</time>
      </trkpt>
      <trkpt lat="59.197608" lon="17.929232">
        <ele>70.7</ele>
        <time>2014-10-11T14:53:40Z</time>
      </trkpt>
      <trkpt lat="59.197685" lon="17.929221">
        <ele>70.6</ele>
        <time>2014-10-11T14:53:41Z</time>
      </trkpt>
      <trkpt lat="59.197751" lon="17.929201">
        <ele>70.4</ele>
        <time>2014-10-11T14:53:42Z</time>
      </trkpt>
      <trkpt lat="59.197816" lon="17.92919">
        <ele>70.2</ele>
        <time>2014-10-11T14:53:43Z</time>
      </trkpt>
      <trkpt lat="59.197902" lon="17.929158">
        <ele>70</ele>
        <time>2014-10-11T14:53:44Z</time>
      </trkpt>
      <trkpt lat="59.197967" lon="17.929135">
        <ele>70</ele>
        <time>2014-10-11T14:53:45Z</time>
      </trkpt>
      <trkpt lat="59.19803" lon="17.929126">
        <ele>69.9</ele>
        <time>2014-10-11T14:53:46Z</time>
      </trkpt>
      <trkpt lat="59.198094" lon="17.929101">
        <ele>69.9</ele>
        <time>2014-10-11T14:53:47Z</time>
      </trkpt>
      <trkpt lat="59.198162" lon="17.929067">
        <ele>69.8</ele>
        <time>2014-10-11T14:53:48Z</time>
      </trkpt>
      <trkpt lat="59.198223" lon="17.929042">
        <ele>69.8</ele>
        <time>2014-10-11T14:53:49Z</time>
      </trkpt>
      <trkpt lat="59.198273" lon="17.929034">
        <ele>69.7</ele>
        <time>2014-10-11T14:53:50Z</time>
      </trkpt>
      <trkpt lat="59.198338" lon="17.929013">
        <ele>69.7</ele>
        <time>2014-10-11T14:53:51Z</time>
      </trkpt>
      <trkpt lat="59.198401" lon="17.929001">
        <ele>69.6</ele>
        <time>2014-10-11T14:53:52Z</time>
      </trkpt>
      <trkpt lat="59.198465" lon="17.92897">
        <ele>69.5</ele>
        <time>2014-10-11T14:53:53Z</time>
      </trkpt>
      <trkpt lat="59.198528" lon="17.928928">
        <ele>69.4</ele>
        <time>2014-10-11T14:53:54Z</time>
      </trkpt>
      <trkpt lat="59.198597" lon="17.928898">
        <ele>69.3</ele>
        <time>2014-10-11T14:53:55Z</time>
      </trkpt>
      <trkpt lat="59.198661" lon="17.92887">
        <ele>69.2</ele>
        <time>2014-10-11T14:53:56Z</time>
      </trkpt>
      <trkpt lat="59.198726" lon="17.928803">
        <ele>69.1</ele>
        <time>2014-10-11T14:53:57Z</time>
      </trkpt>
      <trkpt lat="59.198809" lon="17.928758">
        <ele>68.9</ele>
        <time>2014-10-11T14:53:58Z</time>
      </trkpt>
      <trkpt lat="59.198878" lon="17.928713">
        <ele>68.7</ele>
        <time>2014-10-11T14:53:59Z</time>
      </trkpt>
      <trkpt lat="59.198946" lon="17.928666">
        <ele>68.5</ele>
        <time>2014-10-11T14:54:00Z</time>
      </trkpt>
      <trkpt lat="59.199024" lon="17.928617">
        <ele>68.3</ele>
        <time>2014-10-11T14:54:01Z</time>
      </trkpt>
      <trkpt lat="59.199088" lon="17.928576">
        <ele>68.1</ele>
        <time>2014-10-11T14:54:02Z</time>
      </trkpt>
      <trkpt lat="59.199158" lon="17.92852">
        <ele>68</ele>
        <time>2014-10-11T14:54:03Z</time>
      </trkpt>
      <trkpt lat="59.199224" lon="17.928461">
        <ele>67.9</ele>
        <time>2014-10-11T14:54:04Z</time>
      </trkpt>
      <trkpt lat="59.19929" lon="17.92841">
        <ele>67.8</ele>
        <time>2014-10-11T14:54:05Z</time>
      </trkpt>
      <trkpt lat="59.199351" lon="17.92837">
        <ele>67.8</ele>
        <time>2014-10-11T14:54:06Z</time>
      </trkpt>
      <trkpt lat="59.199411" lon="17.928319">
        <ele>67.7</ele>
        <time>2014-10-11T14:54:07Z</time>
      </trkpt>
      <trkpt lat="59.199472" lon="17.928261">
        <ele>67.7</ele>
        <time>2014-10-11T14:54:08Z</time>
      </trkpt>
      <trkpt lat="59.199548" lon="17.928197">
        <ele>67.7</ele>
        <time>2014-10-11T14:54:09Z</time>
      </trkpt>
      <trkpt lat="59.199606" lon="17.928146">
        <ele>67.7</ele>
        <time>2014-10-11T14:54:10Z</time>
      </trkpt>
      <trkpt lat="59.199667" lon="17.928082">
        <ele>67.7</ele>
        <time>2014-10-11T14:54:11Z</time>
      </trkpt>
      <trkpt lat="59.199725" lon="17.928019">
        <ele>67.6</ele>
        <time>2014-10-11T14:54:12Z</time>
      </trkpt>
      <trkpt lat="59.199776" lon="17.927958">
        <ele>67.5</ele>
        <time>2014-10-11T14:54:13Z</time>
      </trkpt>
      <trkpt lat="59.199836" lon="17.927895">
        <ele>67.4</ele>
        <time>2014-10-11T14:54:14Z</time>
      </trkpt>
      <trkpt lat="59.199896" lon="17.927814">
        <ele>67.2</ele>
        <time>2014-10-11T14:54:15Z</time>
      </trkpt>
      <trkpt lat="59.199959" lon="17.927734">
        <ele>66.9</ele>
        <time>2014-10-11T14:54:16Z</time>
      </trkpt>
      <trkpt lat="59.200017" lon="17.927655">
        <ele>66.6</ele>
        <time>2014-10-11T14:54:17Z</time>
      </trkpt>
      <trkpt lat="59.200066" lon="17.927587">
        <ele>66.3</ele>
        <time>2014-10-11T14:54:18Z</time>
      </trkpt>
      <trkpt lat="59.200126" lon="17.927491">
        <ele>65.9</ele>
        <time>2014-10-11T14:54:19Z</time>
      </trkpt>
      <trkpt lat="59.200177" lon="17.927403">
        <ele>65.4</ele>
        <time>2014-10-11T14:54:20Z</time>
      </trkpt>
      <trkpt lat="59.200241" lon="17.927323">
        <ele>64.9</ele>
        <time>2014-10-11T14:54:21Z</time>
      </trkpt>
      <trkpt lat="59.2003" lon="17.927248">
        <ele>64.3</ele>
        <time>2014-10-11T14:54:22Z</time>
      </trkpt>
      <trkpt lat="59.200364" lon="17.927169">
        <ele>63.7</ele>
        <time>2014-10-11T14:54:23Z</time>
      </trkpt>
      <trkpt lat="59.200432" lon="17.927102">
        <ele>63.1</ele>
        <time>2014-10-11T14:54:24Z</time>
      </trkpt>
      <trkpt lat="59.200498" lon="17.927012">
        <ele>63.7</ele>
        <time>2014-10-11T14:54:25Z</time>
      </trkpt>
      <trkpt lat="59.200565" lon="17.926919">
        <ele>64.4</ele>
        <time>2014-10-11T14:54:26Z</time>
      </trkpt>
      <trkpt lat="59.200626" lon="17.926824">
        <ele>65.2</ele>
        <time>2014-10-11T14:54:27Z</time>
      </trkpt>
      <trkpt lat="59.200683" lon="17.926743">
        <ele>65.7</ele>
        <time>2014-10-11T14:54:28Z</time>
      </trkpt>
      <trkpt lat="59.200745" lon="17.926653">
        <ele>66.4</ele>
        <time>2014-10-11T14:54:29Z</time>
      </trkpt>
      <trkpt lat="59.200809" lon="17.926578">
        <ele>66.9</ele>
        <time>2014-10-11T14:54:30Z</time>
      </trkpt>
      <trkpt lat="59.200876" lon="17.926506">
        <ele>67.4</ele>
        <time>2014-10-11T14:54:31Z</time>
      </trkpt>
      <trkpt lat="59.200945" lon="17.926432">
        <ele>67.8</ele>
        <time>2014-10-11T14:54:32Z</time>
      </trkpt>
      <trkpt lat="59.201017" lon="17.926344">
        <ele>68.3</ele>
        <time>2014-10-11T14:54:33Z</time>
      </trkpt>
      <trkpt lat="59.201081" lon="17.926276">
        <ele>68.7</ele>
        <time>2014-10-11T14:54:34Z</time>
      </trkpt>
      <trkpt lat="59.201145" lon="17.926207">
        <ele>69</ele>
        <time>2014-10-11T14:54:35Z</time>
      </trkpt>
      <trkpt lat="59.201214" lon="17.926131">
        <ele>69.3</ele>
        <time>2014-10-11T14:54:36Z</time>
      </trkpt>
      <trkpt lat="59.201273" lon="17.926078">
        <ele>69.4</ele>
        <time>2014-10-11T14:54:37Z</time>
      </trkpt>
      <trkpt lat="59.201343" lon="17.926021">
        <ele>69.6</ele>
        <time>2014-10-11T14:54:38Z</time>
      </trkpt>
      <trkpt lat="59.201421" lon="17.925937">
        <ele>69.7</ele>
        <time>2014-10-11T14:54:39Z</time>
      </trkpt>
      <trkpt lat="59.201498" lon="17.925859">
        <ele>69.8</ele>
        <time>2014-10-11T14:54:40Z</time>
      </trkpt>
      <trkpt lat="59.201571" lon="17.925792">
        <ele>69.8</ele>
        <time>2014-10-11T14:54:41Z</time>
      </trkpt>
      <trkpt lat="59.201653" lon="17.925702">
        <ele>69.8</ele>
        <time>2014-10-11T14:54:42Z</time>
      </trkpt>
      <trkpt lat="59.201732" lon="17.925646">
        <ele>69.8</ele>
        <time>2014-10-11T14:54:43Z</time>
      </trkpt>
      <trkpt lat="59.201804" lon="17.925594">
        <ele>69.7</ele>
        <time>2014-10-11T14:54:44Z</time>
      </trkpt>
      <trkpt lat="59.201885" lon="17.925535">
        <ele>69.5</ele>
        <time>2014-10-11T14:54:45Z</time>
      </trkpt>
      <trkpt lat="59.201975" lon="17.925478">
        <ele>69.3</ele>
        <time>2014-10-11T14:54:46Z</time>
      </trkpt>
      <trkpt lat="59.202056" lon="17.925435">
        <ele>69.1</ele>
        <time>2014-10-11T14:54:47Z</time>
      </trkpt>
      <trkpt lat="59.202142" lon="17.925389">
        <ele>69.1</ele>
        <time>2014-10-11T14:54:48Z</time>
      </trkpt>
      <trkpt lat="59.202223" lon="17.925352">
        <ele>69.3</ele>
        <time>2014-10-11T14:54:49Z</time>
      </trkpt>
      <trkpt lat="59.202304" lon="17.925319">
        <ele>69.5</ele>
        <time>2014-10-11T14:54:50Z</time>
      </trkpt>
      <trkpt lat="59.202392" lon="17.925279">
        <ele>69.6</ele>
        <time>2014-10-11T14:54:51Z</time>
      </trkpt>
      <trkpt lat="59.202478" lon="17.925244">
        <ele>69.8</ele>
        <time>2014-10-11T14:54:52Z</time>
      </trkpt>
      <trkpt lat="59.202558" lon="17.925212">
        <ele>69.9</ele>
        <time>2014-10-11T14:54:53Z</time>
      </trkpt>
      <trkpt lat="59.202643" lon="17.925174">
        <ele>70.1</ele>
        <time>2014-10-11T14:54:54Z</time>
      </trkpt>
      <trkpt lat="59.202722" lon="17.92515">
        <ele>70.2</ele>
        <time>2014-10-11T14:54:55Z</time>
      </trkpt>
      <trkpt lat="59.202814" lon="17.925133">
        <ele>70.3</ele>
        <time>2014-10-11T14:54:56Z</time>
      </trkpt>
      <trkpt lat="59.202904" lon="17.925107">
        <ele>70.4</ele>
        <time>2014-10-11T14:54:57Z</time>
      </trkpt>
      <trkpt lat="59.202961" lon="17.925102">
        <ele>70.5</ele>
        <time>2014-10-11T14:54:58Z</time>
      </trkpt>
      <trkpt lat="59.203049" lon="17.925083">
        <ele>70.7</ele>
        <time>2014-10-11T14:54:59Z</time>
      </trkpt>
      <trkpt lat="59.203131" lon="17.925062">
        <ele>70.9</ele>
        <time>2014-10-11T14:55:00Z</time>
      </trkpt>
      <trkpt lat="59.203224" lon="17.925027">
        <ele>71.2</ele>
        <time>2014-10-11T14:55:01Z</time>
      </trkpt>
      <trkpt lat="59.203323" lon="17.925001">
        <ele>71.5</ele>
        <time>2014-10-11T14:55:02Z</time>
      </trkpt>
      <trkpt lat="59.203407" lon="17.924973">
        <ele>71.8</ele>
        <time>2014-10-11T14:55:03Z</time>
      </trkpt>
      <trkpt lat="59.203489" lon="17.924952">
        <ele>72.1</ele>
        <time>2014-10-11T14:55:04Z</time>
      </trkpt>
      <trkpt lat="59.203571" lon="17.924939">
        <ele>72.4</ele>
        <time>2014-10-11T14:55:05Z</time>
      </trkpt>
      <trkpt lat="59.203641" lon="17.924916">
        <ele>72.7</ele>
        <time>2014-10-11T14:55:06Z</time>
      </trkpt>
      <trkpt lat="59.203716" lon="17.924904">
        <ele>73</ele>
        <time>2014-10-11T14:55:07Z</time>
      </trkpt>
      <trkpt lat="59.203795" lon="17.924888">
        <ele>73</ele>
        <time>2014-10-11T14:55:08Z</time>
      </trkpt>
      <trkpt lat="59.203891" lon="17.924855">
        <ele>72.8</ele>
        <time>2014-10-11T14:55:09Z</time>
      </trkpt>
      <trkpt lat="59.203962" lon="17.924834">
        <ele>72.6</ele>
        <time>2014-10-11T14:55:10Z</time>
      </trkpt>
      <trkpt lat="59.204039" lon="17.924817">
        <ele>72.4</ele>
        <time>2014-10-11T14:55:11Z</time>
      </trkpt>
      <trkpt lat="59.204122" lon="17.924805">
        <ele>72.1</ele>
        <time>2014-10-11T14:55:12Z</time>
      </trkpt>
      <trkpt lat="59.2042" lon="17.924788">
        <ele>71.9</ele>
        <time>2014-10-11T14:55:13Z</time>
      </trkpt>
      <trkpt lat="59.204293" lon="17.924783">
        <ele>71.5</ele>
        <time>2014-10-11T14:55:14Z</time>
      </trkpt>
      <trkpt lat="59.204386" lon="17.924761">
        <ele>71.2</ele>
        <time>2014-10-11T14:55:15Z</time>
      </trkpt>
      <trkpt lat="59.204481" lon="17.924726">
        <ele>70.9</ele>
        <time>2014-10-11T14:55:16Z</time>
      </trkpt>
      <trkpt lat="59.204573" lon="17.924704">
        <ele>70.6</ele>
        <time>2014-10-11T14:55:17Z</time>
      </trkpt>
      <trkpt lat="59.204668" lon="17.924682">
        <ele>70</ele>
        <time>2014-10-11T14:55:18Z</time>
      </trkpt>
      <trkpt lat="59.20476" lon="17.924658">
        <ele>69.3</ele>
        <time>2014-10-11T14:55:19Z</time>
      </trkpt>
      <trkpt lat="59.204876" lon="17.924621">
        <ele>68.5</ele>
        <time>2014-10-11T14:55:20Z</time>
      </trkpt>
      <trkpt lat="59.204982" lon="17.924614">
        <ele>67.6</ele>
        <time>2014-10-11T14:55:21Z</time>
      </trkpt>
      <trkpt lat="59.205076" lon="17.924579">
        <ele>66.9</ele>
        <time>2014-10-11T14:55:22Z</time>
      </trkpt>
      <trkpt lat="59.205176" lon="17.924556">
        <ele>66.1</ele>
        <time>2014-10-11T14:55:23Z</time>
      </trkpt>
      <trkpt lat="59.205277" lon="17.924519">
        <ele>65.2</ele>
        <time>2014-10-11T14:55:24Z</time>
      </trkpt>
      <trkpt lat="59.205377" lon="17.924492">
        <ele>64.3</ele>
        <time>2014-10-11T14:55:25Z</time>
      </trkpt>
      <trkpt lat="59.205474" lon="17.924456">
        <ele>63.2</ele>
        <time>2014-10-11T14:55:26Z</time>
      </trkpt>
      <trkpt lat="59.205564" lon="17.924433">
        <ele>62.1</ele>
        <time>2014-10-11T14:55:27Z</time>
      </trkpt>
      <trkpt lat="59.205665" lon="17.924417">
        <ele>60.7</ele>
        <time>2014-10-11T14:55:28Z</time>
      </trkpt>
      <trkpt lat="59.205763" lon="17.924376">
        <ele>59.4</ele>
        <time>2014-10-11T14:55:29Z</time>
      </trkpt>
      <trkpt lat="59.205853" lon="17.924352">
        <ele>58.2</ele>
        <time>2014-10-11T14:55:30Z</time>
      </trkpt>
      <trkpt lat="59.205943" lon="17.924315">
        <ele>57.1</ele>
        <time>2014-10-11T14:55:31Z</time>
      </trkpt>
      <trkpt lat="59.206023" lon="17.924264">
        <ele>56</ele>
        <time>2014-10-11T14:55:32Z</time>
      </trkpt>
      <trkpt lat="59.206117" lon="17.924218">
        <ele>54.8</ele>
        <time>2014-10-11T14:55:33Z</time>
      </trkpt>
      <trkpt lat="59.206196" lon="17.924168">
        <ele>53.7</ele>
        <time>2014-10-11T14:55:34Z</time>
      </trkpt>
      <trkpt lat="59.206281" lon="17.924124">
        <ele>52.9</ele>
        <time>2014-10-11T14:55:35Z</time>
      </trkpt>
      <trkpt lat="59.206367" lon="17.924064">
        <ele>52.6</ele>
        <time>2014-10-11T14:55:36Z</time>
      </trkpt>
      <trkpt lat="59.206468" lon="17.924003">
        <ele>52.2</ele>
        <time>2014-10-11T14:55:37Z</time>
      </trkpt>
      <trkpt lat="59.206547" lon="17.923939">
        <ele>51.9</ele>
        <time>2014-10-11T14:55:38Z</time>
      </trkpt>
      <trkpt lat="59.206621" lon="17.923873">
        <ele>51.7</ele>
        <time>2014-10-11T14:55:39Z</time>
      </trkpt>
      <trkpt lat="59.206692" lon="17.923804">
        <ele>51.4</ele>
        <time>2014-10-11T14:55:40Z</time>
      </trkpt>
      <trkpt lat="59.206766" lon="17.923734">
        <ele>51.2</ele>
        <time>2014-10-11T14:55:41Z</time>
      </trkpt>
      <trkpt lat="59.206835" lon="17.923669">
        <ele>51</ele>
        <time>2014-10-11T14:55:42Z</time>
      </trkpt>
      <trkpt lat="59.206899" lon="17.923594">
        <ele>50.9</ele>
        <time>2014-10-11T14:55:43Z</time>
      </trkpt>
      <trkpt lat="59.206967" lon="17.923515">
        <ele>50.7</ele>
        <time>2014-10-11T14:55:44Z</time>
      </trkpt>
      <trkpt lat="59.207036" lon="17.923396">
        <ele>50.6</ele>
        <time>2014-10-11T14:55:45Z</time>
      </trkpt>
      <trkpt lat="59.207089" lon="17.923308">
        <ele>50.6</ele>
        <time>2014-10-11T14:55:46Z</time>
      </trkpt>
      <trkpt lat="59.207163" lon="17.923234">
        <ele>51.3</ele>
        <time>2014-10-11T14:55:47Z</time>
      </trkpt>
      <trkpt lat="59.20722" lon="17.923155">
        <ele>51.9</ele>
        <time>2014-10-11T14:55:48Z</time>
      </trkpt>
      <trkpt lat="59.207274" lon="17.923064">
        <ele>52.5</ele>
        <time>2014-10-11T14:55:49Z</time>
      </trkpt>
      <trkpt lat="59.207322" lon="17.92298">
        <ele>53.1</ele>
        <time>2014-10-11T14:55:50Z</time>
      </trkpt>
      <trkpt lat="59.207369" lon="17.922873">
        <ele>53.8</ele>
        <time>2014-10-11T14:55:51Z</time>
      </trkpt>
      <trkpt lat="59.207423" lon="17.922778">
        <ele>54.6</ele>
        <time>2014-10-11T14:55:52Z</time>
      </trkpt>
      <trkpt lat="59.207466" lon="17.922704">
        <ele>55.3</ele>
        <time>2014-10-11T14:55:53Z</time>
      </trkpt>
      <trkpt lat="59.207499" lon="17.922624">
        <ele>55.9</ele>
        <time>2014-10-11T14:55:54Z</time>
      </trkpt>
      <trkpt lat="59.20754" lon="17.922547">
        <ele>56.6</ele>
        <time>2014-10-11T14:55:55Z</time>
      </trkpt>
      <trkpt lat="59.207582" lon="17.922464">
        <ele>57.3</ele>
        <time>2014-10-11T14:55:56Z</time>
      </trkpt>
      <trkpt lat="59.20762" lon="17.922388">
        <ele>58</ele>
        <time>2014-10-11T14:55:57Z</time>
      </trkpt>
      <trkpt lat="59.207657" lon="17.922327">
        <ele>58.7</ele>
        <time>2014-10-11T14:55:58Z</time>
      </trkpt>
      <trkpt lat="59.207697" lon="17.92226">
        <ele>59.4</ele>
        <time>2014-10-11T14:55:59Z</time>
      </trkpt>
      <trkpt lat="59.207733" lon="17.922185">
        <ele>60.2</ele>
        <time>2014-10-11T14:56:00Z</time>
      </trkpt>
      <trkpt lat="59.207767" lon="17.922127">
        <ele>60.8</ele>
        <time>2014-10-11T14:56:01Z</time>
      </trkpt>
      <trkpt lat="59.207801" lon="17.922067">
        <ele>61.5</ele>
        <time>2014-10-11T14:56:02Z</time>
      </trkpt>
      <trkpt lat="59.207839" lon="17.922001">
        <ele>62.1</ele>
        <time>2014-10-11T14:56:03Z</time>
      </trkpt>
      <trkpt lat="59.207883" lon="17.921912">
        <ele>62.7</ele>
        <time>2014-10-11T14:56:04Z</time>
      </trkpt>
      <trkpt lat="59.207915" lon="17.921838">
        <ele>63.3</ele>
        <time>2014-10-11T14:56:05Z</time>
      </trkpt>
      <trkpt lat="59.207938" lon="17.921777">
        <ele>63.3</ele>
        <time>2014-10-11T14:56:06Z</time>
      </trkpt>
      <trkpt lat="59.207974" lon="17.921698">
        <ele>63.3</ele>
        <time>2014-10-11T14:56:07Z</time>
      </trkpt>
      <trkpt lat="59.208006" lon="17.921622">
        <ele>63.3</ele>
        <time>2014-10-11T14:56:08Z</time>
      </trkpt>
      <trkpt lat="59.208036" lon="17.921557">
        <ele>63.3</ele>
        <time>2014-10-11T14:56:09Z</time>
      </trkpt>
      <trkpt lat="59.208058" lon="17.921479">
        <ele>63.4</ele>
        <time>2014-10-11T14:56:10Z</time>
      </trkpt>
      <trkpt lat="59.208092" lon="17.921414">
        <ele>63.4</ele>
        <time>2014-10-11T14:56:11Z</time>
      </trkpt>
      <trkpt lat="59.208121" lon="17.921349">
        <ele>63.4</ele>
        <time>2014-10-11T14:56:12Z</time>
      </trkpt>
      <trkpt lat="59.208146" lon="17.921282">
        <ele>63.4</ele>
        <time>2014-10-11T14:56:13Z</time>
      </trkpt>
      <trkpt lat="59.208171" lon="17.921219">
        <ele>63.4</ele>
        <time>2014-10-11T14:56:14Z</time>
      </trkpt>
      <trkpt lat="59.208213" lon="17.921134">
        <ele>63.4</ele>
        <time>2014-10-11T14:56:15Z</time>
      </trkpt>
      <trkpt lat="59.208237" lon="17.921057">
        <ele>63.5</ele>
        <time>2014-10-11T14:56:16Z</time>
      </trkpt>
      <trkpt lat="59.20828" lon="17.920965">
        <ele>63.5</ele>
        <time>2014-10-11T14:56:17Z</time>
      </trkpt>
      <trkpt lat="59.208308" lon="17.920886">
        <ele>63.5</ele>
        <time>2014-10-11T14:56:18Z</time>
      </trkpt>
      <trkpt lat="59.208347" lon="17.9208">
        <ele>63.5</ele>
        <time>2014-10-11T14:56:19Z</time>
      </trkpt>
      <trkpt lat="59.20837" lon="17.92072">
        <ele>63.5</ele>
        <time>2014-10-11T14:56:20Z</time>
      </trkpt>
      <trkpt lat="59.2084" lon="17.920643">
        <ele>63.6</ele>
        <time>2014-10-11T14:56:21Z</time>
      </trkpt>
      <trkpt lat="59.208429" lon="17.92055">
        <ele>63.6</ele>
        <time>2014-10-11T14:56:22Z</time>
      </trkpt>
      <trkpt lat="59.208468" lon="17.920479">
        <ele>63.6</ele>
        <time>2014-10-11T14:56:23Z</time>
      </trkpt>
      <trkpt lat="59.208506" lon="17.920403">
        <ele>63.6</ele>
        <time>2014-10-11T14:56:24Z</time>
      </trkpt>
      <trkpt lat="59.208535" lon="17.920327">
        <ele>63.6</ele>
        <time>2014-10-11T14:56:25Z</time>
      </trkpt>
      <trkpt lat="59.208567" lon="17.92025">
        <ele>63.6</ele>
        <time>2014-10-11T14:56:26Z</time>
      </trkpt>
      <trkpt lat="59.208587" lon="17.920159">
        <ele>63.7</ele>
        <time>2014-10-11T14:56:27Z</time>
      </trkpt>
      <trkpt lat="59.208633" lon="17.920076">
        <ele>63.7</ele>
        <time>2014-10-11T14:56:28Z</time>
      </trkpt>
      <trkpt lat="59.208667" lon="17.919992">
        <ele>63.7</ele>
        <time>2014-10-11T14:56:29Z</time>
      </trkpt>
      <trkpt lat="59.208695" lon="17.919907">
        <ele>63.7</ele>
        <time>2014-10-11T14:56:30Z</time>
      </trkpt>
      <trkpt lat="59.20873" lon="17.919827">
        <ele>63.8</ele>
        <time>2014-10-11T14:56:31Z</time>
      </trkpt>
      <trkpt lat="59.208763" lon="17.919744">
        <ele>63.7</ele>
        <time>2014-10-11T14:56:32Z</time>
      </trkpt>
      <trkpt lat="59.208798" lon="17.919659">
        <ele>63.4</ele>
        <time>2014-10-11T14:56:33Z</time>
      </trkpt>
      <trkpt lat="59.208837" lon="17.919585">
        <ele>63.1</ele>
        <time>2014-10-11T14:56:34Z</time>
      </trkpt>
      <trkpt lat="59.208875" lon="17.919525">
        <ele>62.7</ele>
        <time>2014-10-11T14:56:35Z</time>
      </trkpt>
      <trkpt lat="59.208914" lon="17.91943">
        <ele>62.4</ele>
        <time>2014-10-11T14:56:36Z</time>
      </trkpt>
      <trkpt lat="59.208947" lon="17.919336">
        <ele>62.1</ele>
        <time>2014-10-11T14:56:37Z</time>
      </trkpt>
      <trkpt lat="59.208988" lon="17.919238">
        <ele>61.7</ele>
        <time>2014-10-11T14:56:38Z</time>
      </trkpt>
      <trkpt lat="59.20902" lon="17.919142">
        <ele>61.4</ele>
        <time>2014-10-11T14:56:39Z</time>
      </trkpt>
      <trkpt lat="59.209047" lon="17.919054">
        <ele>61.2</ele>
        <time>2014-10-11T14:56:40Z</time>
      </trkpt>
      <trkpt lat="59.209079" lon="17.918962">
        <ele>60.9</ele>
        <time>2014-10-11T14:56:41Z</time>
      </trkpt>
      <trkpt lat="59.209115" lon="17.918883">
        <ele>60.5</ele>
        <time>2014-10-11T14:56:42Z</time>
      </trkpt>
      <trkpt lat="59.209154" lon="17.918817">
        <ele>60.1</ele>
        <time>2014-10-11T14:56:43Z</time>
      </trkpt>
      <trkpt lat="59.2092" lon="17.918735">
        <ele>59.6</ele>
        <time>2014-10-11T14:56:44Z</time>
      </trkpt>
      <trkpt lat="59.209241" lon="17.918674">
        <ele>59.1</ele>
        <time>2014-10-11T14:56:45Z</time>
      </trkpt>
      <trkpt lat="59.20928" lon="17.918622">
        <ele>58.7</ele>
        <time>2014-10-11T14:56:46Z</time>
      </trkpt>
      <trkpt lat="59.209318" lon="17.91855">
        <ele>58.3</ele>
        <time>2014-10-11T14:56:47Z</time>
      </trkpt>
      <trkpt lat="59.209365" lon="17.918503">
        <ele>57.8</ele>
        <time>2014-10-11T14:56:48Z</time>
      </trkpt>
      <trkpt lat="59.209398" lon="17.918472">
        <ele>57.5</ele>
        <time>2014-10-11T14:56:49Z</time>
      </trkpt>
      <trkpt lat="59.209466" lon="17.918389">
        <ele>57</ele>
        <time>2014-10-11T14:56:52Z</time>
      </trkpt>
      <trkpt lat="59.209511" lon="17.918361">
        <ele>56.6</ele>
        <time>2014-10-11T14:57:31Z</time>
      </trkpt>
      <trkpt lat="59.209557" lon="17.918332">
        <ele>56.2</ele>
        <time>2014-10-11T14:57:32Z</time>
      </trkpt>
      <trkpt lat="59.209609" lon="17.918292">
        <ele>56.3</ele>
        <time>2014-10-11T14:57:33Z</time>
      </trkpt>
      <trkpt lat="59.20966" lon="17.918231">
        <ele>56.8</ele>
        <time>2014-10-11T14:57:34Z</time>
      </trkpt>
      <trkpt lat="59.209715" lon="17.918158">
        <ele>57.4</ele>
        <time>2014-10-11T14:57:35Z</time>
      </trkpt>
      <trkpt lat="59.209771" lon="17.91809">
        <ele>57.9</ele>
        <time>2014-10-11T14:57:36Z</time>
      </trkpt>
      <trkpt lat="59.20983" lon="17.918027">
        <ele>58.5</ele>
        <time>2014-10-11T14:57:37Z</time>
      </trkpt>
      <trkpt lat="59.209882" lon="17.917971">
        <ele>59</ele>
        <time>2014-10-11T14:57:38Z</time>
      </trkpt>
      <trkpt lat="59.209942" lon="17.917924">
        <ele>59.6</ele>
        <time>2014-10-11T14:57:39Z</time>
      </trkpt>
      <trkpt lat="59.210002" lon="17.917876">
        <ele>60.1</ele>
        <time>2014-10-11T14:57:40Z</time>
      </trkpt>
      <trkpt lat="59.210065" lon="17.917825">
        <ele>60.6</ele>
        <time>2014-10-11T14:57:41Z</time>
      </trkpt>
      <trkpt lat="59.210114" lon="17.917785">
        <ele>61</ele>
        <time>2014-10-11T14:57:42Z</time>
      </trkpt>
      <trkpt lat="59.210176" lon="17.917732">
        <ele>61.6</ele>
        <time>2014-10-11T14:57:43Z</time>
      </trkpt>
      <trkpt lat="59.210232" lon="17.917726">
        <ele>61.9</ele>
        <time>2014-10-11T14:57:44Z</time>
      </trkpt>
      <trkpt lat="59.210288" lon="17.917679">
        <ele>62.4</ele>
        <time>2014-10-11T14:57:45Z</time>
      </trkpt>
      <trkpt lat="59.210344" lon="17.917635">
        <ele>62.8</ele>
        <time>2014-10-11T14:57:46Z</time>
      </trkpt>
      <trkpt lat="59.210402" lon="17.91759">
        <ele>63.3</ele>
        <time>2014-10-11T14:57:47Z</time>
      </trkpt>
      <trkpt lat="59.210451" lon="17.917561">
        <ele>63.5</ele>
        <time>2014-10-11T14:57:48Z</time>
      </trkpt>
      <trkpt lat="59.210503" lon="17.917528">
        <ele>63.6</ele>
        <time>2014-10-11T14:57:49Z</time>
      </trkpt>
      <trkpt lat="59.210566" lon="17.917477">
        <ele>63.8</ele>
        <time>2014-10-11T14:57:50Z</time>
      </trkpt>
      <trkpt lat="59.210629" lon="17.917431">
        <ele>63.9</ele>
        <time>2014-10-11T14:57:51Z</time>
      </trkpt>
      <trkpt lat="59.210686" lon="17.917389">
        <ele>63.9</ele>
        <time>2014-10-11T14:57:52Z</time>
      </trkpt>
      <trkpt lat="59.210749" lon="17.917335">
        <ele>63.9</ele>
        <time>2014-10-11T14:57:53Z</time>
      </trkpt>
      <trkpt lat="59.210807" lon="17.917299">
        <ele>63.9</ele>
        <time>2014-10-11T14:57:54Z</time>
      </trkpt>
      <trkpt lat="59.210865" lon="17.917248">
        <ele>63.8</ele>
        <time>2014-10-11T14:57:55Z</time>
      </trkpt>
      <trkpt lat="59.210918" lon="17.91721">
        <ele>63.7</ele>
        <time>2014-10-11T14:57:56Z</time>
      </trkpt>
      <trkpt lat="59.21095" lon="17.917185">
        <ele>63.6</ele>
        <time>2014-10-11T14:57:57Z</time>
      </trkpt>
      <trkpt lat="59.211007" lon="17.917151">
        <ele>63.5</ele>
        <time>2014-10-11T14:57:58Z</time>
      </trkpt>
      <trkpt lat="59.211066" lon="17.917125">
        <ele>63.4</ele>
        <time>2014-10-11T14:57:59Z</time>
      </trkpt>
      <trkpt lat="59.211102" lon="17.917124">
        <ele>63.3</ele>
        <time>2014-10-11T14:58:00Z</time>
      </trkpt>
      <trkpt lat="59.211547" lon="17.916739">
        <ele>64.2</ele>
        <time>2014-10-11T14:58:07Z</time>
      </trkpt>
      <trkpt lat="59.211709" lon="17.916526">
        <ele>64.6</ele>
        <time>2014-10-11T14:58:09Z</time>
      </trkpt>
      <trkpt lat="59.211776" lon="17.916515">
        <ele>64.7</ele>
        <time>2014-10-11T14:58:10Z</time>
      </trkpt>
      <trkpt lat="59.211833" lon="17.91649">
        <ele>64.8</ele>
        <time>2014-10-11T14:58:11Z</time>
      </trkpt>
      <trkpt lat="59.211907" lon="17.916449">
        <ele>64.9</ele>
        <time>2014-10-11T14:58:12Z</time>
      </trkpt>
      <trkpt lat="59.211976" lon="17.91643">
        <ele>65</ele>
        <time>2014-10-11T14:58:13Z</time>
      </trkpt>
      <trkpt lat="59.212051" lon="17.916395">
        <ele>65.1</ele>
        <time>2014-10-11T14:58:14Z</time>
      </trkpt>
      <trkpt lat="59.212125" lon="17.916365">
        <ele>65.1</ele>
        <time>2014-10-11T14:58:15Z</time>
      </trkpt>
      <trkpt lat="59.212199" lon="17.916342">
        <ele>64.9</ele>
        <time>2014-10-11T14:58:16Z</time>
      </trkpt>
      <trkpt lat="59.212278" lon="17.91632">
        <ele>64.8</ele>
        <time>2014-10-11T14:58:17Z</time>
      </trkpt>
      <trkpt lat="59.212348" lon="17.916299">
        <ele>64.7</ele>
        <time>2014-10-11T14:58:18Z</time>
      </trkpt>
      <trkpt lat="59.21243" lon="17.916289">
        <ele>64.6</ele>
        <time>2014-10-11T14:58:19Z</time>
      </trkpt>
      <trkpt lat="59.212501" lon="17.916218">
        <ele>64.5</ele>
        <time>2014-10-11T14:58:20Z</time>
      </trkpt>
      <trkpt lat="59.21258" lon="17.916178">
        <ele>64.4</ele>
        <time>2014-10-11T14:58:21Z</time>
      </trkpt>
      <trkpt lat="59.212672" lon="17.916148">
        <ele>64.3</ele>
        <time>2014-10-11T14:58:22Z</time>
      </trkpt>
      <trkpt lat="59.212745" lon="17.916162">
        <ele>64.3</ele>
        <time>2014-10-11T14:58:23Z</time>
      </trkpt>
      <trkpt lat="59.212834" lon="17.916164">
        <ele>64.2</ele>
        <time>2014-10-11T14:58:24Z</time>
      </trkpt>
      <trkpt lat="59.212919" lon="17.916144">
        <ele>64.1</ele>
        <time>2014-10-11T14:58:25Z</time>
      </trkpt>
      <trkpt lat="59.212999" lon="17.916107">
        <ele>63.7</ele>
        <time>2014-10-11T14:58:26Z</time>
      </trkpt>
      <trkpt lat="59.21309" lon="17.916064">
        <ele>63.2</ele>
        <time>2014-10-11T14:58:27Z</time>
      </trkpt>
      <trkpt lat="59.21317" lon="17.916045">
        <ele>62.7</ele>
        <time>2014-10-11T14:58:28Z</time>
      </trkpt>
      <trkpt lat="59.213269" lon="17.915976">
        <ele>62.2</ele>
        <time>2014-10-11T14:58:29Z</time>
      </trkpt>
      <trkpt lat="59.213368" lon="17.915898">
        <ele>61.7</ele>
        <time>2014-10-11T14:58:30Z</time>
      </trkpt>
      <trkpt lat="59.213461" lon="17.915835">
        <ele>61.2</ele>
        <time>2014-10-11T14:58:31Z</time>
      </trkpt>
      <trkpt lat="59.213561" lon="17.915769">
        <ele>60.7</ele>
        <time>2014-10-11T14:58:32Z</time>
      </trkpt>
      <trkpt lat="59.213668" lon="17.915694">
        <ele>60.2</ele>
        <time>2014-10-11T14:58:33Z</time>
      </trkpt>
      <trkpt lat="59.213764" lon="17.915622">
        <ele>59.7</ele>
        <time>2014-10-11T14:58:34Z</time>
      </trkpt>
      <trkpt lat="59.213874" lon="17.915554">
        <ele>59.3</ele>
        <time>2014-10-11T14:58:35Z</time>
      </trkpt>
      <trkpt lat="59.213974" lon="17.915483">
        <ele>58.9</ele>
        <time>2014-10-11T14:58:36Z</time>
      </trkpt>
      <trkpt lat="59.214068" lon="17.91542">
        <ele>58.5</ele>
        <time>2014-10-11T14:58:37Z</time>
      </trkpt>
      <trkpt lat="59.214153" lon="17.915358">
        <ele>58.2</ele>
        <time>2014-10-11T14:58:38Z</time>
      </trkpt>
      <trkpt lat="59.214239" lon="17.915294">
        <ele>57.9</ele>
        <time>2014-10-11T14:58:39Z</time>
      </trkpt>
      <trkpt lat="59.214306" lon="17.915243">
        <ele>57.7</ele>
        <time>2014-10-11T14:58:40Z</time>
      </trkpt>
      <trkpt lat="59.214393" lon="17.915177">
        <ele>57.5</ele>
        <time>2014-10-11T14:58:41Z</time>
      </trkpt>
      <trkpt lat="59.214492" lon="17.915145">
        <ele>57.1</ele>
        <time>2014-10-11T14:58:42Z</time>
      </trkpt>
      <trkpt lat="59.214586" lon="17.915088">
        <ele>56.8</ele>
        <time>2014-10-11T14:58:43Z</time>
      </trkpt>
      <trkpt lat="59.214654" lon="17.914986">
        <ele>56.8</ele>
        <time>2014-10-11T14:58:44Z</time>
      </trkpt>
      <trkpt lat="59.214741" lon="17.914892">
        <ele>56.6</ele>
        <time>2014-10-11T14:58:45Z</time>
      </trkpt>
      <trkpt lat="59.214837" lon="17.914816">
        <ele>56.4</ele>
        <time>2014-10-11T14:58:46Z</time>
      </trkpt>
      <trkpt lat="59.214911" lon="17.914742">
        <ele>56.2</ele>
        <time>2014-10-11T14:58:47Z</time>
      </trkpt>
      <trkpt lat="59.214977" lon="17.914651">
        <ele>56</ele>
        <time>2014-10-11T14:58:48Z</time>
      </trkpt>
      <trkpt lat="59.215056" lon="17.914545">
        <ele>55.8</ele>
        <time>2014-10-11T14:58:49Z</time>
      </trkpt>
      <trkpt lat="59.215131" lon="17.914478">
        <ele>55.5</ele>
        <time>2014-10-11T14:58:50Z</time>
      </trkpt>
      <trkpt lat="59.215209" lon="17.914409">
        <ele>55.1</ele>
        <time>2014-10-11T14:58:51Z</time>
      </trkpt>
      <trkpt lat="59.215295" lon="17.914303">
        <ele>54.7</ele>
        <time>2014-10-11T14:58:52Z</time>
      </trkpt>
      <trkpt lat="59.215331" lon="17.914164">
        <ele>54.5</ele>
        <time>2014-10-11T14:58:53Z</time>
      </trkpt>
      <trkpt lat="59.215351" lon="17.914017">
        <ele>54.4</ele>
        <time>2014-10-11T14:58:54Z</time>
      </trkpt>
      <trkpt lat="59.215371" lon="17.913875">
        <ele>54.3</ele>
        <time>2014-10-11T14:58:55Z</time>
      </trkpt>
      <trkpt lat="59.215401" lon="17.913743">
        <ele>54.1</ele>
        <time>2014-10-11T14:58:56Z</time>
      </trkpt>
      <trkpt lat="59.215443" lon="17.913602">
        <ele>54.2</ele>
        <time>2014-10-11T14:58:57Z</time>
      </trkpt>
      <trkpt lat="59.215479" lon="17.913474">
        <ele>54.2</ele>
        <time>2014-10-11T14:58:58Z</time>
      </trkpt>
      <trkpt lat="59.215501" lon="17.913335">
        <ele>54.3</ele>
        <time>2014-10-11T14:58:59Z</time>
      </trkpt>
      <trkpt lat="59.215527" lon="17.913188">
        <ele>54.4</ele>
        <time>2014-10-11T14:59:00Z</time>
      </trkpt>
      <trkpt lat="59.215553" lon="17.913041">
        <ele>54.5</ele>
        <time>2014-10-11T14:59:01Z</time>
      </trkpt>
      <trkpt lat="59.21557" lon="17.912882">
        <ele>54.6</ele>
        <time>2014-10-11T14:59:02Z</time>
      </trkpt>
      <trkpt lat="59.215585" lon="17.912728">
        <ele>54.6</ele>
        <time>2014-10-11T14:59:03Z</time>
      </trkpt>
      <trkpt lat="59.215597" lon="17.912592">
        <ele>54.6</ele>
        <time>2014-10-11T14:59:04Z</time>
      </trkpt>
      <trkpt lat="59.21561" lon="17.912447">
        <ele>54.6</ele>
        <time>2014-10-11T14:59:05Z</time>
      </trkpt>
      <trkpt lat="59.215624" lon="17.912292">
        <ele>54.6</ele>
        <time>2014-10-11T14:59:06Z</time>
      </trkpt>
      <trkpt lat="59.215634" lon="17.912145">
        <ele>54.6</ele>
        <time>2014-10-11T14:59:07Z</time>
      </trkpt>
      <trkpt lat="59.21564" lon="17.911984">
        <ele>54.8</ele>
        <time>2014-10-11T14:59:08Z</time>
      </trkpt>
      <trkpt lat="59.215657" lon="17.911855">
        <ele>54.9</ele>
        <time>2014-10-11T14:59:09Z</time>
      </trkpt>
      <trkpt lat="59.215674" lon="17.911729">
        <ele>54.9</ele>
        <time>2014-10-11T14:59:10Z</time>
      </trkpt>
      <trkpt lat="59.215683" lon="17.911581">
        <ele>55.1</ele>
        <time>2014-10-11T14:59:11Z</time>
      </trkpt>
      <trkpt lat="59.215701" lon="17.911441">
        <ele>55.2</ele>
        <time>2014-10-11T14:59:12Z</time>
      </trkpt>
      <trkpt lat="59.21571" lon="17.911282">
        <ele>55.4</ele>
        <time>2014-10-11T14:59:13Z</time>
      </trkpt>
      <trkpt lat="59.215716" lon="17.911138">
        <ele>55.6</ele>
        <time>2014-10-11T14:59:14Z</time>
      </trkpt>
      <trkpt lat="59.215727" lon="17.910977">
        <ele>55.7</ele>
        <time>2014-10-11T14:59:15Z</time>
      </trkpt>
      <trkpt lat="59.215743" lon="17.91083">
        <ele>55.7</ele>
        <time>2014-10-11T14:59:16Z</time>
      </trkpt>
      <trkpt lat="59.215754" lon="17.910677">
        <ele>55.8</ele>
        <time>2014-10-11T14:59:17Z</time>
      </trkpt>
      <trkpt lat="59.21577" lon="17.910532">
        <ele>55.8</ele>
        <time>2014-10-11T14:59:18Z</time>
      </trkpt>
      <trkpt lat="59.215783" lon="17.910378">
        <ele>55.7</ele>
        <time>2014-10-11T14:59:19Z</time>
      </trkpt>
      <trkpt lat="59.215796" lon="17.910223">
        <ele>55.6</ele>
        <time>2014-10-11T14:59:20Z</time>
      </trkpt>
      <trkpt lat="59.215811" lon="17.910046">
        <ele>55.5</ele>
        <time>2014-10-11T14:59:21Z</time>
      </trkpt>
      <trkpt lat="59.215827" lon="17.909885">
        <ele>55.4</ele>
        <time>2014-10-11T14:59:22Z</time>
      </trkpt>
      <trkpt lat="59.215842" lon="17.909709">
        <ele>55.3</ele>
        <time>2014-10-11T14:59:23Z</time>
      </trkpt>
      <trkpt lat="59.215853" lon="17.909533">
        <ele>55.3</ele>
        <time>2014-10-11T14:59:24Z</time>
      </trkpt>
      <trkpt lat="59.215867" lon="17.909373">
        <ele>55.2</ele>
        <time>2014-10-11T14:59:25Z</time>
      </trkpt>
      <trkpt lat="59.215876" lon="17.909221">
        <ele>55.2</ele>
        <time>2014-10-11T14:59:26Z</time>
      </trkpt>
      <trkpt lat="59.215883" lon="17.909055">
        <ele>55.2</ele>
        <time>2014-10-11T14:59:27Z</time>
      </trkpt>
      <trkpt lat="59.215883" lon="17.90889">
        <ele>55.3</ele>
        <time>2014-10-11T14:59:28Z</time>
      </trkpt>
      <trkpt lat="59.21589" lon="17.908735">
        <ele>55.4</ele>
        <time>2014-10-11T14:59:29Z</time>
      </trkpt>
      <trkpt lat="59.215888" lon="17.908564">
        <ele>56</ele>
        <time>2014-10-11T14:59:30Z</time>
      </trkpt>
      <trkpt lat="59.215884" lon="17.908425">
        <ele>56.6</ele>
        <time>2014-10-11T14:59:31Z</time>
      </trkpt>
      <trkpt lat="59.215874" lon="17.908274">
        <ele>57.2</ele>
        <time>2014-10-11T14:59:32Z</time>
      </trkpt>
      <trkpt lat="59.215871" lon="17.908109">
        <ele>57.9</ele>
        <time>2014-10-11T14:59:33Z</time>
      </trkpt>
      <trkpt lat="59.215871" lon="17.90795">
        <ele>58.4</ele>
        <time>2014-10-11T14:59:34Z</time>
      </trkpt>
      <trkpt lat="59.215873" lon="17.90779">
        <ele>58.8</ele>
        <time>2014-10-11T14:59:35Z</time>
      </trkpt>
      <trkpt lat="59.21588" lon="17.907641">
        <ele>59.1</ele>
        <time>2014-10-11T14:59:36Z</time>
      </trkpt>
      <trkpt lat="59.215905" lon="17.907499">
        <ele>59.1</ele>
        <time>2014-10-11T14:59:37Z</time>
      </trkpt>
      <trkpt lat="59.215933" lon="17.907383">
        <ele>59.1</ele>
        <time>2014-10-11T14:59:38Z</time>
      </trkpt>
      <trkpt lat="59.21598" lon="17.90727">
        <ele>58.8</ele>
        <time>2014-10-11T14:59:39Z</time>
      </trkpt>
      <trkpt lat="59.216037" lon="17.907149">
        <ele>58.4</ele>
        <time>2014-10-11T14:59:40Z</time>
      </trkpt>
      <trkpt lat="59.216099" lon="17.907039">
        <ele>57.9</ele>
        <time>2014-10-11T14:59:41Z</time>
      </trkpt>
      <trkpt lat="59.216169" lon="17.906935">
        <ele>57.4</ele>
        <time>2014-10-11T14:59:42Z</time>
      </trkpt>
      <trkpt lat="59.21624" lon="17.906808">
        <ele>57.1</ele>
        <time>2014-10-11T14:59:43Z</time>
      </trkpt>
      <trkpt lat="59.2163" lon="17.90667">
        <ele>56.9</ele>
        <time>2014-10-11T14:59:44Z</time>
      </trkpt>
      <trkpt lat="59.216363" lon="17.906545">
        <ele>56.5</ele>
        <time>2014-10-11T14:59:45Z</time>
      </trkpt>
      <trkpt lat="59.216427" lon="17.906419">
        <ele>56.1</ele>
        <time>2014-10-11T14:59:46Z</time>
      </trkpt>
      <trkpt lat="59.216487" lon="17.906269">
        <ele>55.8</ele>
        <time>2014-10-11T14:59:47Z</time>
      </trkpt>
      <trkpt lat="59.216519" lon="17.906106">
        <ele>55.7</ele>
        <time>2014-10-11T14:59:48Z</time>
      </trkpt>
      <trkpt lat="59.216548" lon="17.905946">
        <ele>55.7</ele>
        <time>2014-10-11T14:59:49Z</time>
      </trkpt>
      <trkpt lat="59.216578" lon="17.905761">
        <ele>55.6</ele>
        <time>2014-10-11T14:59:50Z</time>
      </trkpt>
      <trkpt lat="59.216603" lon="17.905606">
        <ele>55.6</ele>
        <time>2014-10-11T14:59:51Z</time>
      </trkpt>
      <trkpt lat="59.216625" lon="17.905451">
        <ele>55.5</ele>
        <time>2014-10-11T14:59:52Z</time>
      </trkpt>
      <trkpt lat="59.216638" lon="17.905301">
        <ele>55.1</ele>
        <time>2014-10-11T14:59:53Z</time>
      </trkpt>
      <trkpt lat="59.216658" lon="17.905126">
        <ele>54.4</ele>
        <time>2014-10-11T14:59:54Z</time>
      </trkpt>
      <trkpt lat="59.216682" lon="17.904954">
        <ele>53.6</ele>
        <time>2014-10-11T14:59:55Z</time>
      </trkpt>
      <trkpt lat="59.216703" lon="17.904779">
        <ele>52.9</ele>
        <time>2014-10-11T14:59:56Z</time>
      </trkpt>
      <trkpt lat="59.216722" lon="17.904612">
        <ele>52.1</ele>
        <time>2014-10-11T14:59:57Z</time>
      </trkpt>
      <trkpt lat="59.216745" lon="17.904432">
        <ele>51.5</ele>
        <time>2014-10-11T14:59:58Z</time>
      </trkpt>
      <trkpt lat="59.216769" lon="17.904274">
        <ele>50.8</ele>
        <time>2014-10-11T14:59:59Z</time>
      </trkpt>
      <trkpt lat="59.216794" lon="17.904108">
        <ele>50.1</ele>
        <time>2014-10-11T15:00:00Z</time>
      </trkpt>
      <trkpt lat="59.21682" lon="17.903942">
        <ele>49.4</ele>
        <time>2014-10-11T15:00:01Z</time>
      </trkpt>
      <trkpt lat="59.216828" lon="17.903851">
        <ele>49.1</ele>
        <time>2014-10-11T15:00:02Z</time>
      </trkpt>
      <trkpt lat="59.216869" lon="17.903675">
        <ele>47.8</ele>
        <time>2014-10-11T15:00:03Z</time>
      </trkpt>
      <trkpt lat="59.21691" lon="17.903517">
        <ele>46.4</ele>
        <time>2014-10-11T15:00:04Z</time>
      </trkpt>
      <trkpt lat="59.216958" lon="17.903375">
        <ele>45</ele>
        <time>2014-10-11T15:00:05Z</time>
      </trkpt>
      <trkpt lat="59.217013" lon="17.903269">
        <ele>43.6</ele>
        <time>2014-10-11T15:00:06Z</time>
      </trkpt>
      <trkpt lat="59.217082" lon="17.903193">
        <ele>42</ele>
        <time>2014-10-11T15:00:07Z</time>
      </trkpt>
      <trkpt lat="59.21716" lon="17.903159">
        <ele>42.1</ele>
        <time>2014-10-11T15:00:08Z</time>
      </trkpt>
      <trkpt lat="59.217223" lon="17.903183">
        <ele>42.4</ele>
        <time>2014-10-11T15:00:09Z</time>
      </trkpt>
      <trkpt lat="59.217302" lon="17.90321">
        <ele>42.6</ele>
        <time>2014-10-11T15:00:10Z</time>
      </trkpt>
      <trkpt lat="59.217381" lon="17.903298">
        <ele>43</ele>
        <time>2014-10-11T15:00:11Z</time>
      </trkpt>
      <trkpt lat="59.217448" lon="17.903413">
        <ele>43.2</ele>
        <time>2014-10-11T15:00:12Z</time>
      </trkpt>
      <trkpt lat="59.217501" lon="17.903544">
        <ele>43.4</ele>
        <time>2014-10-11T15:00:13Z</time>
      </trkpt>
      <trkpt lat="59.217554" lon="17.903698">
        <ele>43.4</ele>
        <time>2014-10-11T15:00:14Z</time>
      </trkpt>
      <trkpt lat="59.217599" lon="17.903843">
        <ele>43.5</ele>
        <time>2014-10-11T15:00:15Z</time>
      </trkpt>
      <trkpt lat="59.217651" lon="17.903985">
        <ele>43.7</ele>
        <time>2014-10-11T15:00:16Z</time>
      </trkpt>
      <trkpt lat="59.217709" lon="17.904133">
        <ele>43.8</ele>
        <time>2014-10-11T15:00:17Z</time>
      </trkpt>
      <trkpt lat="59.217762" lon="17.904246">
        <ele>43.9</ele>
        <time>2014-10-11T15:00:18Z</time>
      </trkpt>
      <trkpt lat="59.217817" lon="17.904385">
        <ele>44</ele>
        <time>2014-10-11T15:00:19Z</time>
      </trkpt>
      <trkpt lat="59.217872" lon="17.904517">
        <ele>44</ele>
        <time>2014-10-11T15:00:20Z</time>
      </trkpt>
      <trkpt lat="59.217922" lon="17.904649">
        <ele>44.1</ele>
        <time>2014-10-11T15:00:21Z</time>
      </trkpt>
      <trkpt lat="59.217974" lon="17.90478">
        <ele>44.6</ele>
        <time>2014-10-11T15:00:22Z</time>
      </trkpt>
      <trkpt lat="59.218025" lon="17.904915">
        <ele>44.9</ele>
        <time>2014-10-11T15:00:23Z</time>
      </trkpt>
      <trkpt lat="59.218082" lon="17.905041">
        <ele>45.2</ele>
        <time>2014-10-11T15:00:24Z</time>
      </trkpt>
      <trkpt lat="59.218131" lon="17.905173">
        <ele>45.3</ele>
        <time>2014-10-11T15:00:25Z</time>
      </trkpt>
      <trkpt lat="59.218187" lon="17.905302">
        <ele>45.4</ele>
        <time>2014-10-11T15:00:26Z</time>
      </trkpt>
      <trkpt lat="59.218238" lon="17.90545">
        <ele>45.4</ele>
        <time>2014-10-11T15:00:27Z</time>
      </trkpt>
      <trkpt lat="59.218284" lon="17.905579">
        <ele>45.6</ele>
        <time>2014-10-11T15:00:28Z</time>
      </trkpt>
      <trkpt lat="59.218328" lon="17.905733">
        <ele>45.7</ele>
        <time>2014-10-11T15:00:29Z</time>
      </trkpt>
      <trkpt lat="59.21837" lon="17.905868">
        <ele>45.7</ele>
        <time>2014-10-11T15:00:30Z</time>
      </trkpt>
      <trkpt lat="59.218423" lon="17.906001">
        <ele>45.7</ele>
        <time>2014-10-11T15:00:31Z</time>
      </trkpt>
      <trkpt lat="59.218472" lon="17.906128">
        <ele>45.7</ele>
        <time>2014-10-11T15:00:32Z</time>
      </trkpt>
      <trkpt lat="59.21852" lon="17.906254">
        <ele>45.5</ele>
        <time>2014-10-11T15:00:33Z</time>
      </trkpt>
      <trkpt lat="59.218565" lon="17.906364">
        <ele>45.3</ele>
        <time>2014-10-11T15:00:34Z</time>
      </trkpt>
      <trkpt lat="59.218609" lon="17.906489">
        <ele>45</ele>
        <time>2014-10-11T15:00:35Z</time>
      </trkpt>
      <trkpt lat="59.218656" lon="17.906607">
        <ele>44.6</ele>
        <time>2014-10-11T15:00:36Z</time>
      </trkpt>
      <trkpt lat="59.218703" lon="17.90672">
        <ele>44.1</ele>
        <time>2014-10-11T15:00:37Z</time>
      </trkpt>
      <trkpt lat="59.218754" lon="17.906841">
        <ele>43.6</ele>
        <time>2014-10-11T15:00:38Z</time>
      </trkpt>
      <trkpt lat="59.218805" lon="17.906953">
        <ele>43.2</ele>
        <time>2014-10-11T15:00:39Z</time>
      </trkpt>
      <trkpt lat="59.218855" lon="17.907071">
        <ele>42.8</ele>
        <time>2014-10-11T15:00:40Z</time>
      </trkpt>
      <trkpt lat="59.218903" lon="17.907194">
        <ele>43.2</ele>
        <time>2014-10-11T15:00:41Z</time>
      </trkpt>
      <trkpt lat="59.218935" lon="17.907322">
        <ele>43.7</ele>
        <time>2014-10-11T15:00:42Z</time>
      </trkpt>
      <trkpt lat="59.218964" lon="17.907488">
        <ele>44.4</ele>
        <time>2014-10-11T15:00:43Z</time>
      </trkpt>
      <trkpt lat="59.218977" lon="17.907641">
        <ele>45.1</ele>
        <time>2014-10-11T15:00:44Z</time>
      </trkpt>
      <trkpt lat="59.218996" lon="17.907793">
        <ele>45.7</ele>
        <time>2014-10-11T15:00:45Z</time>
      </trkpt>
      <trkpt lat="59.219027" lon="17.907917">
        <ele>46</ele>
        <time>2014-10-11T15:00:46Z</time>
      </trkpt>
      <trkpt lat="59.219071" lon="17.908046">
        <ele>46.3</ele>
        <time>2014-10-11T15:00:47Z</time>
      </trkpt>
      <trkpt lat="59.219116" lon="17.908161">
        <ele>46.5</ele>
        <time>2014-10-11T15:00:48Z</time>
      </trkpt>
      <trkpt lat="59.219159" lon="17.908278">
        <ele>46.6</ele>
        <time>2014-10-11T15:00:49Z</time>
      </trkpt>
      <trkpt lat="59.219204" lon="17.908411">
        <ele>46.7</ele>
        <time>2014-10-11T15:00:50Z</time>
      </trkpt>
      <trkpt lat="59.219247" lon="17.908522">
        <ele>46.6</ele>
        <time>2014-10-11T15:00:51Z</time>
      </trkpt>
      <trkpt lat="59.219288" lon="17.908629">
        <ele>46.5</ele>
        <time>2014-10-11T15:00:52Z</time>
      </trkpt>
      <trkpt lat="59.219332" lon="17.908759">
        <ele>46.4</ele>
        <time>2014-10-11T15:00:53Z</time>
      </trkpt>
      <trkpt lat="59.219372" lon="17.908857">
        <ele>46.3</ele>
        <time>2014-10-11T15:00:54Z</time>
      </trkpt>
      <trkpt lat="59.219415" lon="17.908958">
        <ele>46.3</ele>
        <time>2014-10-11T15:00:55Z</time>
      </trkpt>
      <trkpt lat="59.219459" lon="17.909063">
        <ele>46.3</ele>
        <time>2014-10-11T15:00:56Z</time>
      </trkpt>
      <trkpt lat="59.219502" lon="17.90918">
        <ele>46.5</ele>
        <time>2014-10-11T15:00:57Z</time>
      </trkpt>
      <trkpt lat="59.219547" lon="17.909302">
        <ele>46.7</ele>
        <time>2014-10-11T15:00:58Z</time>
      </trkpt>
      <trkpt lat="59.219577" lon="17.909416">
        <ele>47.1</ele>
        <time>2014-10-11T15:00:59Z</time>
      </trkpt>
      <trkpt lat="59.219636" lon="17.909542">
        <ele>47.4</ele>
        <time>2014-10-11T15:01:00Z</time>
      </trkpt>
      <trkpt lat="59.219708" lon="17.909617">
        <ele>47.5</ele>
        <time>2014-10-11T15:01:01Z</time>
      </trkpt>
      <trkpt lat="59.219785" lon="17.909679">
        <ele>47.3</ele>
        <time>2014-10-11T15:01:02Z</time>
      </trkpt>
      <trkpt lat="59.219849" lon="17.909747">
        <ele>47.3</ele>
        <time>2014-10-11T15:01:03Z</time>
      </trkpt>
      <trkpt lat="59.219904" lon="17.909861">
        <ele>47.4</ele>
        <time>2014-10-11T15:01:04Z</time>
      </trkpt>
      <trkpt lat="59.219953" lon="17.909995">
        <ele>47.7</ele>
        <time>2014-10-11T15:01:05Z</time>
      </trkpt>
      <trkpt lat="59.219995" lon="17.910113">
        <ele>47.8</ele>
        <time>2014-10-11T15:01:06Z</time>
      </trkpt>
      <trkpt lat="59.22004" lon="17.910237">
        <ele>47.8</ele>
        <time>2014-10-11T15:01:07Z</time>
      </trkpt>
      <trkpt lat="59.220074" lon="17.910353">
        <ele>47.9</ele>
        <time>2014-10-11T15:01:08Z</time>
      </trkpt>
      <trkpt lat="59.220119" lon="17.910466">
        <ele>47.8</ele>
        <time>2014-10-11T15:01:09Z</time>
      </trkpt>
      <trkpt lat="59.220167" lon="17.910589">
        <ele>48</ele>
        <time>2014-10-11T15:01:10Z</time>
      </trkpt>
      <trkpt lat="59.220208" lon="17.910693">
        <ele>48.1</ele>
        <time>2014-10-11T15:01:11Z</time>
      </trkpt>
      <trkpt lat="59.220253" lon="17.910815">
        <ele>48.3</ele>
        <time>2014-10-11T15:01:12Z</time>
      </trkpt>
      <trkpt lat="59.220307" lon="17.910938">
        <ele>48.4</ele>
        <time>2014-10-11T15:01:13Z</time>
      </trkpt>
      <trkpt lat="59.220345" lon="17.911033">
        <ele>48.5</ele>
        <time>2014-10-11T15:01:14Z</time>
      </trkpt>
      <trkpt lat="59.2204" lon="17.911155">
        <ele>48.6</ele>
        <time>2014-10-11T15:01:15Z</time>
      </trkpt>
      <trkpt lat="59.220449" lon="17.911263">
        <ele>49</ele>
        <time>2014-10-11T15:01:16Z</time>
      </trkpt>
      <trkpt lat="59.220489" lon="17.911364">
        <ele>49.5</ele>
        <time>2014-10-11T15:01:17Z</time>
      </trkpt>
      <trkpt lat="59.220539" lon="17.911479">
        <ele>50</ele>
        <time>2014-10-11T15:01:18Z</time>
      </trkpt>
      <trkpt lat="59.220583" lon="17.911584">
        <ele>50.3</ele>
        <time>2014-10-11T15:01:19Z</time>
      </trkpt>
      <trkpt lat="59.220625" lon="17.911698">
        <ele>50.6</ele>
        <time>2014-10-11T15:01:20Z</time>
      </trkpt>
      <trkpt lat="59.220669" lon="17.911824">
        <ele>50.9</ele>
        <time>2014-10-11T15:01:21Z</time>
      </trkpt>
      <trkpt lat="59.220711" lon="17.911923">
        <ele>51</ele>
        <time>2014-10-11T15:01:22Z</time>
      </trkpt>
      <trkpt lat="59.220759" lon="17.91205">
        <ele>51</ele>
        <time>2014-10-11T15:01:23Z</time>
      </trkpt>
      <trkpt lat="59.220802" lon="17.912164">
        <ele>50.9</ele>
        <time>2014-10-11T15:01:24Z</time>
      </trkpt>
      <trkpt lat="59.220845" lon="17.912275">
        <ele>50.6</ele>
        <time>2014-10-11T15:01:25Z</time>
      </trkpt>
      <trkpt lat="59.220888" lon="17.912379">
        <ele>50.3</ele>
        <time>2014-10-11T15:01:26Z</time>
      </trkpt>
      <trkpt lat="59.220935" lon="17.912497">
        <ele>50</ele>
        <time>2014-10-11T15:01:27Z</time>
      </trkpt>
      <trkpt lat="59.220976" lon="17.912602">
        <ele>49.7</ele>
        <time>2014-10-11T15:01:28Z</time>
      </trkpt>
      <trkpt lat="59.221024" lon="17.912703">
        <ele>49.3</ele>
        <time>2014-10-11T15:01:29Z</time>
      </trkpt>
      <trkpt lat="59.221069" lon="17.912804">
        <ele>48.9</ele>
        <time>2014-10-11T15:01:30Z</time>
      </trkpt>
      <trkpt lat="59.22111" lon="17.912902">
        <ele>48.5</ele>
        <time>2014-10-11T15:01:31Z</time>
      </trkpt>
      <trkpt lat="59.221154" lon="17.91301">
        <ele>48.1</ele>
        <time>2014-10-11T15:01:32Z</time>
      </trkpt>
      <trkpt lat="59.221185" lon="17.913107">
        <ele>47.8</ele>
        <time>2014-10-11T15:01:33Z</time>
      </trkpt>
      <trkpt lat="59.221223" lon="17.913212">
        <ele>47.3</ele>
        <time>2014-10-11T15:01:34Z</time>
      </trkpt>
      <trkpt lat="59.221263" lon="17.913319">
        <ele>47.1</ele>
        <time>2014-10-11T15:01:35Z</time>
      </trkpt>
      <trkpt lat="59.221298" lon="17.913419">
        <ele>47.2</ele>
        <time>2014-10-11T15:01:36Z</time>
      </trkpt>
      <trkpt lat="59.221328" lon="17.91353">
        <ele>47.3</ele>
        <time>2014-10-11T15:01:37Z</time>
      </trkpt>
      <trkpt lat="59.221356" lon="17.913641">
        <ele>47.4</ele>
        <time>2014-10-11T15:01:38Z</time>
      </trkpt>
      <trkpt lat="59.221387" lon="17.913768">
        <ele>47.5</ele>
        <time>2014-10-11T15:01:39Z</time>
      </trkpt>
      <trkpt lat="59.221412" lon="17.913879">
        <ele>47.7</ele>
        <time>2014-10-11T15:01:40Z</time>
      </trkpt>
      <trkpt lat="59.221445" lon="17.913975">
        <ele>48</ele>
        <time>2014-10-11T15:01:41Z</time>
      </trkpt>
      <trkpt lat="59.221496" lon="17.914033">
        <ele>48.2</ele>
        <time>2014-10-11T15:01:42Z</time>
      </trkpt>
      <trkpt lat="59.221554" lon="17.914082">
        <ele>48.5</ele>
        <time>2014-10-11T15:01:43Z</time>
      </trkpt>
      <trkpt lat="59.221605" lon="17.914132">
        <ele>48.7</ele>
        <time>2014-10-11T15:01:44Z</time>
      </trkpt>
      <trkpt lat="59.221656" lon="17.914193">
        <ele>49</ele>
        <time>2014-10-11T15:01:45Z</time>
      </trkpt>
      <trkpt lat="59.2217" lon="17.914277">
        <ele>49.3</ele>
        <time>2014-10-11T15:01:46Z</time>
      </trkpt>
      <trkpt lat="59.221745" lon="17.914365">
        <ele>49.5</ele>
        <time>2014-10-11T15:01:47Z</time>
      </trkpt>
      <trkpt lat="59.22179" lon="17.914444">
        <ele>49.8</ele>
        <time>2014-10-11T15:01:48Z</time>
      </trkpt>
      <trkpt lat="59.221835" lon="17.914524">
        <ele>50</ele>
        <time>2014-10-11T15:01:49Z</time>
      </trkpt>
      <trkpt lat="59.221887" lon="17.914615">
        <ele>50.3</ele>
        <time>2014-10-11T15:01:50Z</time>
      </trkpt>
      <trkpt lat="59.221929" lon="17.914709">
        <ele>50.6</ele>
        <time>2014-10-11T15:01:51Z</time>
      </trkpt>
      <trkpt lat="59.221977" lon="17.914786">
        <ele>50.9</ele>
        <time>2014-10-11T15:01:52Z</time>
      </trkpt>
      <trkpt lat="59.222022" lon="17.914859">
        <ele>51.1</ele>
        <time>2014-10-11T15:01:53Z</time>
      </trkpt>
      <trkpt lat="59.222062" lon="17.914933">
        <ele>51.3</ele>
        <time>2014-10-11T15:01:54Z</time>
      </trkpt>
      <trkpt lat="59.222106" lon="17.915049">
        <ele>51.7</ele>
        <time>2014-10-11T15:01:55Z</time>
      </trkpt>
      <trkpt lat="59.222145" lon="17.915141">
        <ele>52</ele>
        <time>2014-10-11T15:01:56Z</time>
      </trkpt>
      <trkpt lat="59.222191" lon="17.915217">
        <ele>52.4</ele>
        <time>2014-10-11T15:01:57Z</time>
      </trkpt>
      <trkpt lat="59.222236" lon="17.915296">
        <ele>52.7</ele>
        <time>2014-10-11T15:01:58Z</time>
      </trkpt>
      <trkpt lat="59.222279" lon="17.915395">
        <ele>52.9</ele>
        <time>2014-10-11T15:01:59Z</time>
      </trkpt>
      <trkpt lat="59.222323" lon="17.915476">
        <ele>53.2</ele>
        <time>2014-10-11T15:02:00Z</time>
      </trkpt>
      <trkpt lat="59.222366" lon="17.915544">
        <ele>53.4</ele>
        <time>2014-10-11T15:02:01Z</time>
      </trkpt>
      <trkpt lat="59.22241" lon="17.915628">
        <ele>53.5</ele>
        <time>2014-10-11T15:02:02Z</time>
      </trkpt>
      <trkpt lat="59.222454" lon="17.915707">
        <ele>53.7</ele>
        <time>2014-10-11T15:02:03Z</time>
      </trkpt>
      <trkpt lat="59.2225" lon="17.915795">
        <ele>53.8</ele>
        <time>2014-10-11T15:02:04Z</time>
      </trkpt>
      <trkpt lat="59.222539" lon="17.915863">
        <ele>53.8</ele>
        <time>2014-10-11T15:02:05Z</time>
      </trkpt>
      <trkpt lat="59.222578" lon="17.915943">
        <ele>53.9</ele>
        <time>2014-10-11T15:02:06Z</time>
      </trkpt>
      <trkpt lat="59.222616" lon="17.916032">
        <ele>53.9</ele>
        <time>2014-10-11T15:02:07Z</time>
      </trkpt>
      <trkpt lat="59.222658" lon="17.916126">
        <ele>53.8</ele>
        <time>2014-10-11T15:02:08Z</time>
      </trkpt>
      <trkpt lat="59.222697" lon="17.916215">
        <ele>53.8</ele>
        <time>2014-10-11T15:02:09Z</time>
      </trkpt>
      <trkpt lat="59.222735" lon="17.91629">
        <ele>53.7</ele>
        <time>2014-10-11T15:02:10Z</time>
      </trkpt>
      <trkpt lat="59.222774" lon="17.916389">
        <ele>53.5</ele>
        <time>2014-10-11T15:02:11Z</time>
      </trkpt>
      <trkpt lat="59.222807" lon="17.91648">
        <ele>53.2</ele>
        <time>2014-10-11T15:02:12Z</time>
      </trkpt>
      <trkpt lat="59.222841" lon="17.91658">
        <ele>52.9</ele>
        <time>2014-10-11T15:02:13Z</time>
      </trkpt>
      <trkpt lat="59.222865" lon="17.916681">
        <ele>52.5</ele>
        <time>2014-10-11T15:02:14Z</time>
      </trkpt>
      <trkpt lat="59.222897" lon="17.916782">
        <ele>52.1</ele>
        <time>2014-10-11T15:02:15Z</time>
      </trkpt>
      <trkpt lat="59.222925" lon="17.916888">
        <ele>51.8</ele>
        <time>2014-10-11T15:02:16Z</time>
      </trkpt>
      <trkpt lat="59.22295" lon="17.917003">
        <ele>51.6</ele>
        <time>2014-10-11T15:02:17Z</time>
      </trkpt>
      <trkpt lat="59.222968" lon="17.917107">
        <ele>51.5</ele>
        <time>2014-10-11T15:02:18Z</time>
      </trkpt>
      <trkpt lat="59.222995" lon="17.917219">
        <ele>51.9</ele>
        <time>2014-10-11T15:02:19Z</time>
      </trkpt>
      <trkpt lat="59.223023" lon="17.917346">
        <ele>52.2</ele>
        <time>2014-10-11T15:02:20Z</time>
      </trkpt>
      <trkpt lat="59.223043" lon="17.917449">
        <ele>52.4</ele>
        <time>2014-10-11T15:02:21Z</time>
      </trkpt>
      <trkpt lat="59.223063" lon="17.917576">
        <ele>52.6</ele>
        <time>2014-10-11T15:02:22Z</time>
      </trkpt>
      <trkpt lat="59.223086" lon="17.91769">
        <ele>52.8</ele>
        <time>2014-10-11T15:02:23Z</time>
      </trkpt>
      <trkpt lat="59.223113" lon="17.917812">
        <ele>52.9</ele>
        <time>2014-10-11T15:02:24Z</time>
      </trkpt>
      <trkpt lat="59.223141" lon="17.917934">
        <ele>53.1</ele>
        <time>2014-10-11T15:02:25Z</time>
      </trkpt>
      <trkpt lat="59.223171" lon="17.918021">
        <ele>53.3</ele>
        <time>2014-10-11T15:02:26Z</time>
      </trkpt>
      <trkpt lat="59.223204" lon="17.918149">
        <ele>53.5</ele>
        <time>2014-10-11T15:02:27Z</time>
      </trkpt>
      <trkpt lat="59.223217" lon="17.918256">
        <ele>53.5</ele>
        <time>2014-10-11T15:02:28Z</time>
      </trkpt>
      <trkpt lat="59.223237" lon="17.918363">
        <ele>53.6</ele>
        <time>2014-10-11T15:02:29Z</time>
      </trkpt>
      <trkpt lat="59.22326" lon="17.918478">
        <ele>53.6</ele>
        <time>2014-10-11T15:02:30Z</time>
      </trkpt>
      <trkpt lat="59.22329" lon="17.918593">
        <ele>53.6</ele>
        <time>2014-10-11T15:02:31Z</time>
      </trkpt>
      <trkpt lat="59.223315" lon="17.918703">
        <ele>53.5</ele>
        <time>2014-10-11T15:02:32Z</time>
      </trkpt>
      <trkpt lat="59.223329" lon="17.91881">
        <ele>53.7</ele>
        <time>2014-10-11T15:02:33Z</time>
      </trkpt>
      <trkpt lat="59.223344" lon="17.918909">
        <ele>54</ele>
        <time>2014-10-11T15:02:34Z</time>
      </trkpt>
      <trkpt lat="59.22337" lon="17.919008">
        <ele>54.2</ele>
        <time>2014-10-11T15:02:35Z</time>
      </trkpt>
      <trkpt lat="59.223384" lon="17.919119">
        <ele>54.5</ele>
        <time>2014-10-11T15:02:36Z</time>
      </trkpt>
      <trkpt lat="59.223402" lon="17.919214">
        <ele>54.8</ele>
        <time>2014-10-11T15:02:37Z</time>
      </trkpt>
      <trkpt lat="59.223425" lon="17.919325">
        <ele>55</ele>
        <time>2014-10-11T15:02:38Z</time>
      </trkpt>
      <trkpt lat="59.223443" lon="17.919425">
        <ele>55.3</ele>
        <time>2014-10-11T15:02:39Z</time>
      </trkpt>
      <trkpt lat="59.223462" lon="17.919524">
        <ele>55.5</ele>
        <time>2014-10-11T15:02:40Z</time>
      </trkpt>
      <trkpt lat="59.223481" lon="17.919626">
        <ele>55.8</ele>
        <time>2014-10-11T15:02:41Z</time>
      </trkpt>
      <trkpt lat="59.223497" lon="17.919727">
        <ele>56.1</ele>
        <time>2014-10-11T15:02:42Z</time>
      </trkpt>
      <trkpt lat="59.223519" lon="17.919843">
        <ele>56.4</ele>
        <time>2014-10-11T15:02:43Z</time>
      </trkpt>
      <trkpt lat="59.223541" lon="17.919935">
        <ele>56.6</ele>
        <time>2014-10-11T15:02:44Z</time>
      </trkpt>
      <trkpt lat="59.223567" lon="17.920046">
        <ele>56.8</ele>
        <time>2014-10-11T15:02:45Z</time>
      </trkpt>
      <trkpt lat="59.223585" lon="17.920159">
        <ele>57.1</ele>
        <time>2014-10-11T15:02:46Z</time>
      </trkpt>
      <trkpt lat="59.223608" lon="17.920275">
        <ele>57.3</ele>
        <time>2014-10-11T15:02:47Z</time>
      </trkpt>
      <trkpt lat="59.223633" lon="17.920387">
        <ele>57.5</ele>
        <time>2014-10-11T15:02:48Z</time>
      </trkpt>
      <trkpt lat="59.223662" lon="17.920504">
        <ele>57.8</ele>
        <time>2014-10-11T15:02:49Z</time>
      </trkpt>
      <trkpt lat="59.223688" lon="17.920625">
        <ele>58.1</ele>
        <time>2014-10-11T15:02:50Z</time>
      </trkpt>
      <trkpt lat="59.223715" lon="17.92072">
        <ele>58.3</ele>
        <time>2014-10-11T15:02:51Z</time>
      </trkpt>
      <trkpt lat="59.223742" lon="17.920825">
        <ele>58.5</ele>
        <time>2014-10-11T15:02:52Z</time>
      </trkpt>
      <trkpt lat="59.223772" lon="17.920922">
        <ele>59</ele>
        <time>2014-10-11T15:02:53Z</time>
      </trkpt>
      <trkpt lat="59.223795" lon="17.921031">
        <ele>59.4</ele>
        <time>2014-10-11T15:02:54Z</time>
      </trkpt>
      <trkpt lat="59.22382" lon="17.921145">
        <ele>59.9</ele>
        <time>2014-10-11T15:02:55Z</time>
      </trkpt>
      <trkpt lat="59.223847" lon="17.92125">
        <ele>60.3</ele>
        <time>2014-10-11T15:02:56Z</time>
      </trkpt>
      <trkpt lat="59.223872" lon="17.921357">
        <ele>60.8</ele>
        <time>2014-10-11T15:02:57Z</time>
      </trkpt>
      <trkpt lat="59.223899" lon="17.921464">
        <ele>61.3</ele>
        <time>2014-10-11T15:02:58Z</time>
      </trkpt>
      <trkpt lat="59.223927" lon="17.921573">
        <ele>61.7</ele>
        <time>2014-10-11T15:02:59Z</time>
      </trkpt>
      <trkpt lat="59.223955" lon="17.921681">
        <ele>62</ele>
        <time>2014-10-11T15:03:00Z</time>
      </trkpt>
      <trkpt lat="59.223989" lon="17.921787">
        <ele>62.3</ele>
        <time>2014-10-11T15:03:01Z</time>
      </trkpt>
      <trkpt lat="59.22421" lon="17.922558">
        <ele>62.8</ele>
        <time>2014-10-11T15:03:08Z</time>
      </trkpt>
      <trkpt lat="59.224227" lon="17.922626">
        <ele>62.7</ele>
        <time>2014-10-11T15:03:09Z</time>
      </trkpt>
      <trkpt lat="59.224264" lon="17.922739">
        <ele>62.6</ele>
        <time>2014-10-11T15:03:10Z</time>
      </trkpt>
      <trkpt lat="59.224293" lon="17.922836">
        <ele>62.4</ele>
        <time>2014-10-11T15:03:11Z</time>
      </trkpt>
      <trkpt lat="59.22432" lon="17.922949">
        <ele>62.2</ele>
        <time>2014-10-11T15:03:12Z</time>
      </trkpt>
      <trkpt lat="59.224355" lon="17.923077">
        <ele>62</ele>
        <time>2014-10-11T15:03:13Z</time>
      </trkpt>
      <trkpt lat="59.224386" lon="17.923192">
        <ele>61.7</ele>
        <time>2014-10-11T15:03:14Z</time>
      </trkpt>
      <trkpt lat="59.224427" lon="17.9233">
        <ele>61.3</ele>
        <time>2014-10-11T15:03:15Z</time>
      </trkpt>
      <trkpt lat="59.224448" lon="17.923437">
        <ele>61</ele>
        <time>2014-10-11T15:03:16Z</time>
      </trkpt>
      <trkpt lat="59.224465" lon="17.923577">
        <ele>60.8</ele>
        <time>2014-10-11T15:03:17Z</time>
      </trkpt>
      <trkpt lat="59.224492" lon="17.923701">
        <ele>60.3</ele>
        <time>2014-10-11T15:03:18Z</time>
      </trkpt>
      <trkpt lat="59.224513" lon="17.923828">
        <ele>60.1</ele>
        <time>2014-10-11T15:03:19Z</time>
      </trkpt>
      <trkpt lat="59.224534" lon="17.923966">
        <ele>60</ele>
        <time>2014-10-11T15:03:20Z</time>
      </trkpt>
      <trkpt lat="59.224566" lon="17.924082">
        <ele>59.6</ele>
        <time>2014-10-11T15:03:21Z</time>
      </trkpt>
      <trkpt lat="59.224597" lon="17.924181">
        <ele>59.6</ele>
        <time>2014-10-11T15:03:22Z</time>
      </trkpt>
      <trkpt lat="59.22462" lon="17.924296">
        <ele>59.8</ele>
        <time>2014-10-11T15:03:23Z</time>
      </trkpt>
      <trkpt lat="59.224652" lon="17.924421">
        <ele>60.1</ele>
        <time>2014-10-11T15:03:24Z</time>
      </trkpt>
      <trkpt lat="59.224674" lon="17.924545">
        <ele>60.3</ele>
        <time>2014-10-11T15:03:25Z</time>
      </trkpt>
      <trkpt lat="59.22471" lon="17.924649">
        <ele>60.5</ele>
        <time>2014-10-11T15:03:26Z</time>
      </trkpt>
      <trkpt lat="59.224749" lon="17.924764">
        <ele>60.7</ele>
        <time>2014-10-11T15:03:27Z</time>
      </trkpt>
      <trkpt lat="59.224787" lon="17.924882">
        <ele>60.8</ele>
        <time>2014-10-11T15:03:28Z</time>
      </trkpt>
      <trkpt lat="59.22483" lon="17.925015">
        <ele>60.9</ele>
        <time>2014-10-11T15:03:29Z</time>
      </trkpt>
      <trkpt lat="59.22487" lon="17.925122">
        <ele>61</ele>
        <time>2014-10-11T15:03:30Z</time>
      </trkpt>
      <trkpt lat="59.224914" lon="17.925238">
        <ele>61</ele>
        <time>2014-10-11T15:03:31Z</time>
      </trkpt>
      <trkpt lat="59.224956" lon="17.92535">
        <ele>61</ele>
        <time>2014-10-11T15:03:32Z</time>
      </trkpt>
      <trkpt lat="59.224988" lon="17.925467">
        <ele>61</ele>
        <time>2014-10-11T15:03:33Z</time>
      </trkpt>
      <trkpt lat="59.225019" lon="17.925607">
        <ele>60.9</ele>
        <time>2014-10-11T15:03:34Z</time>
      </trkpt>
      <trkpt lat="59.225063" lon="17.925723">
        <ele>60.8</ele>
        <time>2014-10-11T15:03:35Z</time>
      </trkpt>
      <trkpt lat="59.225101" lon="17.925829">
        <ele>60.8</ele>
        <time>2014-10-11T15:03:36Z</time>
      </trkpt>
      <trkpt lat="59.225135" lon="17.925936">
        <ele>60.8</ele>
        <time>2014-10-11T15:03:37Z</time>
      </trkpt>
      <trkpt lat="59.225173" lon="17.926037">
        <ele>60.8</ele>
        <time>2014-10-11T15:03:38Z</time>
      </trkpt>
      <trkpt lat="59.225212" lon="17.926144">
        <ele>60.8</ele>
        <time>2014-10-11T15:03:39Z</time>
      </trkpt>
      <trkpt lat="59.225253" lon="17.92624">
        <ele>60.8</ele>
        <time>2014-10-11T15:03:40Z</time>
      </trkpt>
      <trkpt lat="59.225293" lon="17.926338">
        <ele>60.7</ele>
        <time>2014-10-11T15:03:41Z</time>
      </trkpt>
      <trkpt lat="59.225333" lon="17.926432">
        <ele>60.7</ele>
        <time>2014-10-11T15:03:42Z</time>
      </trkpt>
      <trkpt lat="59.225368" lon="17.926522">
        <ele>60.6</ele>
        <time>2014-10-11T15:03:43Z</time>
      </trkpt>
      <trkpt lat="59.225395" lon="17.926616">
        <ele>60.5</ele>
        <time>2014-10-11T15:03:44Z</time>
      </trkpt>
      <trkpt lat="59.225419" lon="17.926738">
        <ele>60.4</ele>
        <time>2014-10-11T15:03:45Z</time>
      </trkpt>
      <trkpt lat="59.225447" lon="17.926832">
        <ele>60.5</ele>
        <time>2014-10-11T15:03:46Z</time>
      </trkpt>
      <trkpt lat="59.225483" lon="17.926936">
        <ele>60.7</ele>
        <time>2014-10-11T15:03:47Z</time>
      </trkpt>
      <trkpt lat="59.225516" lon="17.927027">
        <ele>60.8</ele>
        <time>2014-10-11T15:03:48Z</time>
      </trkpt>
      <trkpt lat="59.225561" lon="17.927133">
        <ele>61</ele>
        <time>2014-10-11T15:03:49Z</time>
      </trkpt>
      <trkpt lat="59.225601" lon="17.927235">
        <ele>61.3</ele>
        <time>2014-10-11T15:03:50Z</time>
      </trkpt>
      <trkpt lat="59.22564" lon="17.927343">
        <ele>61.5</ele>
        <time>2014-10-11T15:03:51Z</time>
      </trkpt>
      <trkpt lat="59.225668" lon="17.927447">
        <ele>61.7</ele>
        <time>2014-10-11T15:03:52Z</time>
      </trkpt>
      <trkpt lat="59.225684" lon="17.927561">
        <ele>61.7</ele>
        <time>2014-10-11T15:03:53Z</time>
      </trkpt>
      <trkpt lat="59.225718" lon="17.927661">
        <ele>61.9</ele>
        <time>2014-10-11T15:03:54Z</time>
      </trkpt>
      <trkpt lat="59.225743" lon="17.927807">
        <ele>62</ele>
        <time>2014-10-11T15:03:55Z</time>
      </trkpt>
      <trkpt lat="59.225771" lon="17.927945">
        <ele>62.1</ele>
        <time>2014-10-11T15:03:56Z</time>
      </trkpt>
      <trkpt lat="59.225789" lon="17.928091">
        <ele>62.2</ele>
        <time>2014-10-11T15:03:57Z</time>
      </trkpt>
      <trkpt lat="59.225809" lon="17.928233">
        <ele>62.2</ele>
        <time>2014-10-11T15:03:58Z</time>
      </trkpt>
      <trkpt lat="59.225827" lon="17.928378">
        <ele>62.2</ele>
        <time>2014-10-11T15:03:59Z</time>
      </trkpt>
      <trkpt lat="59.225841" lon="17.928523">
        <ele>62.2</ele>
        <time>2014-10-11T15:04:00Z</time>
      </trkpt>
      <trkpt lat="59.225841" lon="17.928665">
        <ele>62.1</ele>
        <time>2014-10-11T15:04:01Z</time>
      </trkpt>
      <trkpt lat="59.225845" lon="17.928814">
        <ele>62</ele>
        <time>2014-10-11T15:04:02Z</time>
      </trkpt>
      <trkpt lat="59.22584" lon="17.928958">
        <ele>61.8</ele>
        <time>2014-10-11T15:04:03Z</time>
      </trkpt>
      <trkpt lat="59.22583" lon="17.929095">
        <ele>61.6</ele>
        <time>2014-10-11T15:04:04Z</time>
      </trkpt>
      <trkpt lat="59.225822" lon="17.929248">
        <ele>61.4</ele>
        <time>2014-10-11T15:04:05Z</time>
      </trkpt>
      <trkpt lat="59.225821" lon="17.929395">
        <ele>61.2</ele>
        <time>2014-10-11T15:04:06Z</time>
      </trkpt>
      <trkpt lat="59.225821" lon="17.929533">
        <ele>61</ele>
        <time>2014-10-11T15:04:07Z</time>
      </trkpt>
      <trkpt lat="59.225804" lon="17.929708">
        <ele>60.6</ele>
        <time>2014-10-11T15:04:08Z</time>
      </trkpt>
      <trkpt lat="59.225796" lon="17.929871">
        <ele>60.2</ele>
        <time>2014-10-11T15:04:09Z</time>
      </trkpt>
      <trkpt lat="59.225787" lon="17.930018">
        <ele>59.8</ele>
        <time>2014-10-11T15:04:10Z</time>
      </trkpt>
      <trkpt lat="59.225785" lon="17.930176">
        <ele>59.5</ele>
        <time>2014-10-11T15:04:11Z</time>
      </trkpt>
      <trkpt lat="59.225786" lon="17.930324">
        <ele>59.1</ele>
        <time>2014-10-11T15:04:12Z</time>
      </trkpt>
      <trkpt lat="59.225784" lon="17.930481">
        <ele>58.7</ele>
        <time>2014-10-11T15:04:13Z</time>
      </trkpt>
      <trkpt lat="59.225799" lon="17.930617">
        <ele>58.4</ele>
        <time>2014-10-11T15:04:14Z</time>
      </trkpt>
      <trkpt lat="59.225809" lon="17.930763">
        <ele>58.1</ele>
        <time>2014-10-11T15:04:15Z</time>
      </trkpt>
      <trkpt lat="59.225815" lon="17.930915">
        <ele>57.8</ele>
        <time>2014-10-11T15:04:16Z</time>
      </trkpt>
      <trkpt lat="59.225831" lon="17.931075">
        <ele>57.4</ele>
        <time>2014-10-11T15:04:17Z</time>
      </trkpt>
      <trkpt lat="59.225836" lon="17.931214">
        <ele>57.1</ele>
        <time>2014-10-11T15:04:18Z</time>
      </trkpt>
      <trkpt lat="59.225857" lon="17.931372">
        <ele>56.8</ele>
        <time>2014-10-11T15:04:19Z</time>
      </trkpt>
      <trkpt lat="59.225877" lon="17.931516">
        <ele>56.5</ele>
        <time>2014-10-11T15:04:20Z</time>
      </trkpt>
      <trkpt lat="59.225896" lon="17.931684">
        <ele>56.1</ele>
        <time>2014-10-11T15:04:21Z</time>
      </trkpt>
      <trkpt lat="59.225913" lon="17.931846">
        <ele>55.8</ele>
        <time>2014-10-11T15:04:22Z</time>
      </trkpt>
      <trkpt lat="59.225924" lon="17.932009">
        <ele>55.4</ele>
        <time>2014-10-11T15:04:23Z</time>
      </trkpt>
      <trkpt lat="59.225958" lon="17.932176">
        <ele>55.4</ele>
        <time>2014-10-11T15:04:24Z</time>
      </trkpt>
      <trkpt lat="59.22598" lon="17.932348">
        <ele>55.5</ele>
        <time>2014-10-11T15:04:25Z</time>
      </trkpt>
      <trkpt lat="59.22601" lon="17.932521">
        <ele>55.7</ele>
        <time>2014-10-11T15:04:26Z</time>
      </trkpt>
      <trkpt lat="59.226035" lon="17.932683">
        <ele>55.7</ele>
        <time>2014-10-11T15:04:27Z</time>
      </trkpt>
      <trkpt lat="59.226069" lon="17.932878">
        <ele>55.6</ele>
        <time>2014-10-11T15:04:28Z</time>
      </trkpt>
      <trkpt lat="59.226093" lon="17.93303">
        <ele>55.6</ele>
        <time>2014-10-11T15:04:29Z</time>
      </trkpt>
      <trkpt lat="59.226122" lon="17.933205">
        <ele>55.4</ele>
        <time>2014-10-11T15:04:30Z</time>
      </trkpt>
      <trkpt lat="59.226166" lon="17.933375">
        <ele>55</ele>
        <time>2014-10-11T15:04:31Z</time>
      </trkpt>
      <trkpt lat="59.226205" lon="17.933566">
        <ele>54.6</ele>
        <time>2014-10-11T15:04:32Z</time>
      </trkpt>
      <trkpt lat="59.226236" lon="17.933752">
        <ele>54.1</ele>
        <time>2014-10-11T15:04:33Z</time>
      </trkpt>
      <trkpt lat="59.226273" lon="17.933963">
        <ele>54.1</ele>
        <time>2014-10-11T15:04:34Z</time>
      </trkpt>
      <trkpt lat="59.226309" lon="17.934167">
        <ele>54.1</ele>
        <time>2014-10-11T15:04:35Z</time>
      </trkpt>
      <trkpt lat="59.226345" lon="17.934365">
        <ele>54.1</ele>
        <time>2014-10-11T15:04:36Z</time>
      </trkpt>
      <trkpt lat="59.226387" lon="17.934572">
        <ele>54</ele>
        <time>2014-10-11T15:04:37Z</time>
      </trkpt>
      <trkpt lat="59.226442" lon="17.934782">
        <ele>53.5</ele>
        <time>2014-10-11T15:04:38Z</time>
      </trkpt>
      <trkpt lat="59.226494" lon="17.934963">
        <ele>53</ele>
        <time>2014-10-11T15:04:39Z</time>
      </trkpt>
      <trkpt lat="59.226561" lon="17.935143">
        <ele>52.3</ele>
        <time>2014-10-11T15:04:40Z</time>
      </trkpt>
      <trkpt lat="59.22663" lon="17.935309">
        <ele>51.5</ele>
        <time>2014-10-11T15:04:41Z</time>
      </trkpt>
      <trkpt lat="59.226705" lon="17.93548">
        <ele>51.1</ele>
        <time>2014-10-11T15:04:42Z</time>
      </trkpt>
      <trkpt lat="59.226799" lon="17.935635">
        <ele>51.4</ele>
        <time>2014-10-11T15:04:43Z</time>
      </trkpt>
      <trkpt lat="59.226892" lon="17.935782">
        <ele>51.8</ele>
        <time>2014-10-11T15:04:44Z</time>
      </trkpt>
      <trkpt lat="59.226984" lon="17.935927">
        <ele>52.3</ele>
        <time>2014-10-11T15:04:45Z</time>
      </trkpt>
      <trkpt lat="59.227071" lon="17.936049">
        <ele>52.8</ele>
        <time>2014-10-11T15:04:46Z</time>
      </trkpt>
      <trkpt lat="59.227155" lon="17.93616">
        <ele>53.1</ele>
        <time>2014-10-11T15:04:47Z</time>
      </trkpt>
      <trkpt lat="59.227232" lon="17.936256">
        <ele>53.1</ele>
        <time>2014-10-11T15:04:48Z</time>
      </trkpt>
      <trkpt lat="59.227318" lon="17.936349">
        <ele>53</ele>
        <time>2014-10-11T15:04:49Z</time>
      </trkpt>
      <trkpt lat="59.227391" lon="17.936418">
        <ele>52.7</ele>
        <time>2014-10-11T15:04:50Z</time>
      </trkpt>
      <trkpt lat="59.227479" lon="17.936493">
        <ele>52.3</ele>
        <time>2014-10-11T15:04:51Z</time>
      </trkpt>
      <trkpt lat="59.227566" lon="17.936568">
        <ele>51.7</ele>
        <time>2014-10-11T15:04:52Z</time>
      </trkpt>
      <trkpt lat="59.22765" lon="17.936628">
        <ele>51</ele>
        <time>2014-10-11T15:04:53Z</time>
      </trkpt>
      <trkpt lat="59.227738" lon="17.936682">
        <ele>50.2</ele>
        <time>2014-10-11T15:04:54Z</time>
      </trkpt>
      <trkpt lat="59.227825" lon="17.936733">
        <ele>49.4</ele>
        <time>2014-10-11T15:04:55Z</time>
      </trkpt>
      <trkpt lat="59.227911" lon="17.936779">
        <ele>48.4</ele>
        <time>2014-10-11T15:04:56Z</time>
      </trkpt>
      <trkpt lat="59.228" lon="17.936835">
        <ele>47.9</ele>
        <time>2014-10-11T15:04:57Z</time>
      </trkpt>
      <trkpt lat="59.228086" lon="17.936874">
        <ele>47.4</ele>
        <time>2014-10-11T15:04:58Z</time>
      </trkpt>
      <trkpt lat="59.228176" lon="17.936929">
        <ele>46.9</ele>
        <time>2014-10-11T15:04:59Z</time>
      </trkpt>
      <trkpt lat="59.22827" lon="17.936981">
        <ele>46.2</ele>
        <time>2014-10-11T15:05:00Z</time>
      </trkpt>
      <trkpt lat="59.228366" lon="17.937037">
        <ele>45.5</ele>
        <time>2014-10-11T15:05:01Z</time>
      </trkpt>
      <trkpt lat="59.228475" lon="17.937104">
        <ele>44.7</ele>
        <time>2014-10-11T15:05:02Z</time>
      </trkpt>
      <trkpt lat="59.228574" lon="17.937152">
        <ele>44.1</ele>
        <time>2014-10-11T15:05:03Z</time>
      </trkpt>
      <trkpt lat="59.228674" lon="17.937197">
        <ele>43.5</ele>
        <time>2014-10-11T15:05:04Z</time>
      </trkpt>
      <trkpt lat="59.228775" lon="17.937247">
        <ele>42.8</ele>
        <time>2014-10-11T15:05:05Z</time>
      </trkpt>
      <trkpt lat="59.228898" lon="17.937287">
        <ele>41.8</ele>
        <time>2014-10-11T15:05:06Z</time>
      </trkpt>
      <trkpt lat="59.229016" lon="17.937333">
        <ele>40.7</ele>
        <time>2014-10-11T15:05:07Z</time>
      </trkpt>
      <trkpt lat="59.229128" lon="17.937362">
        <ele>39.7</ele>
        <time>2014-10-11T15:05:08Z</time>
      </trkpt>
      <trkpt lat="59.229244" lon="17.93739">
        <ele>38.6</ele>
        <time>2014-10-11T15:05:09Z</time>
      </trkpt>
      <trkpt lat="59.229363" lon="17.937435">
        <ele>37.3</ele>
        <time>2014-10-11T15:05:10Z</time>
      </trkpt>
      <trkpt lat="59.229468" lon="17.93749">
        <ele>36.1</ele>
        <time>2014-10-11T15:05:11Z</time>
      </trkpt>
      <trkpt lat="59.229581" lon="17.937521">
        <ele>34.9</ele>
        <time>2014-10-11T15:05:12Z</time>
      </trkpt>
      <trkpt lat="59.229679" lon="17.937563">
        <ele>33.9</ele>
        <time>2014-10-11T15:05:13Z</time>
      </trkpt>
      <trkpt lat="59.229786" lon="17.937589">
        <ele>32.8</ele>
        <time>2014-10-11T15:05:14Z</time>
      </trkpt>
      <trkpt lat="59.229908" lon="17.937625">
        <ele>31.7</ele>
        <time>2014-10-11T15:05:15Z</time>
      </trkpt>
      <trkpt lat="59.230015" lon="17.937656">
        <ele>30.7</ele>
        <time>2014-10-11T15:05:16Z</time>
      </trkpt>
      <trkpt lat="59.230102" lon="17.937686">
        <ele>29.9</ele>
        <time>2014-10-11T15:05:17Z</time>
      </trkpt>
      <trkpt lat="59.230193" lon="17.937728">
        <ele>29</ele>
        <time>2014-10-11T15:05:18Z</time>
      </trkpt>
      <trkpt lat="59.230284" lon="17.937777">
        <ele>28.2</ele>
        <time>2014-10-11T15:05:19Z</time>
      </trkpt>
      <trkpt lat="59.230374" lon="17.937823">
        <ele>27.4</ele>
        <time>2014-10-11T15:05:20Z</time>
      </trkpt>
      <trkpt lat="59.230457" lon="17.937868">
        <ele>27.3</ele>
        <time>2014-10-11T15:05:21Z</time>
      </trkpt>
      <trkpt lat="59.230533" lon="17.937904">
        <ele>27.7</ele>
        <time>2014-10-11T15:05:22Z</time>
      </trkpt>
      <trkpt lat="59.230611" lon="17.937933">
        <ele>28.1</ele>
        <time>2014-10-11T15:05:23Z</time>
      </trkpt>
      <trkpt lat="59.230685" lon="17.937955">
        <ele>28.6</ele>
        <time>2014-10-11T15:05:24Z</time>
      </trkpt>
      <trkpt lat="59.230765" lon="17.938001">
        <ele>29</ele>
        <time>2014-10-11T15:05:25Z</time>
      </trkpt>
      <trkpt lat="59.230828" lon="17.938103">
        <ele>29.2</ele>
        <time>2014-10-11T15:05:26Z</time>
      </trkpt>
      <trkpt lat="59.230862" lon="17.93823">
        <ele>29.3</ele>
        <time>2014-10-11T15:05:27Z</time>
      </trkpt>
      <trkpt lat="59.23087" lon="17.938377">
        <ele>29.2</ele>
        <time>2014-10-11T15:05:28Z</time>
      </trkpt>
      <trkpt lat="59.230863" lon="17.938537">
        <ele>28.9</ele>
        <time>2014-10-11T15:05:29Z</time>
      </trkpt>
      <trkpt lat="59.230851" lon="17.938697">
        <ele>28.7</ele>
        <time>2014-10-11T15:05:30Z</time>
      </trkpt>
      <trkpt lat="59.230838" lon="17.938867">
        <ele>28.5</ele>
        <time>2014-10-11T15:05:31Z</time>
      </trkpt>
      <trkpt lat="59.230816" lon="17.939082">
        <ele>28.4</ele>
        <time>2014-10-11T15:05:32Z</time>
      </trkpt>
      <trkpt lat="59.230797" lon="17.939272">
        <ele>28.3</ele>
        <time>2014-10-11T15:05:33Z</time>
      </trkpt>
      <trkpt lat="59.230786" lon="17.939451">
        <ele>28.2</ele>
        <time>2014-10-11T15:05:34Z</time>
      </trkpt>
      <trkpt lat="59.230776" lon="17.93964">
        <ele>28.2</ele>
        <time>2014-10-11T15:05:35Z</time>
      </trkpt>
      <trkpt lat="59.230766" lon="17.939826">
        <ele>28.4</ele>
        <time>2014-10-11T15:05:36Z</time>
      </trkpt>
      <trkpt lat="59.230759" lon="17.940002">
        <ele>28.6</ele>
        <time>2014-10-11T15:05:37Z</time>
      </trkpt>
      <trkpt lat="59.230746" lon="17.940169">
        <ele>28.7</ele>
        <time>2014-10-11T15:05:38Z</time>
      </trkpt>
      <trkpt lat="59.230742" lon="17.940355">
        <ele>28.9</ele>
        <time>2014-10-11T15:05:39Z</time>
      </trkpt>
      <trkpt lat="59.230742" lon="17.940537">
        <ele>29.1</ele>
        <time>2014-10-11T15:05:40Z</time>
      </trkpt>
      <trkpt lat="59.230738" lon="17.940705">
        <ele>29.2</ele>
        <time>2014-10-11T15:05:41Z</time>
      </trkpt>
      <trkpt lat="59.230731" lon="17.940866">
        <ele>29.3</ele>
        <time>2014-10-11T15:05:42Z</time>
      </trkpt>
      <trkpt lat="59.230724" lon="17.941033">
        <ele>29.4</ele>
        <time>2014-10-11T15:05:43Z</time>
      </trkpt>
      <trkpt lat="59.230716" lon="17.941196">
        <ele>29.5</ele>
        <time>2014-10-11T15:05:44Z</time>
      </trkpt>
      <trkpt lat="59.23072" lon="17.941355">
        <ele>29.6</ele>
        <time>2014-10-11T15:05:45Z</time>
      </trkpt>
      <trkpt lat="59.230712" lon="17.941513">
        <ele>29.7</ele>
        <time>2014-10-11T15:05:46Z</time>
      </trkpt>
      <trkpt lat="59.230708" lon="17.941671">
        <ele>29.8</ele>
        <time>2014-10-11T15:05:47Z</time>
      </trkpt>
      <trkpt lat="59.230705" lon="17.941835">
        <ele>29.9</ele>
        <time>2014-10-11T15:05:48Z</time>
      </trkpt>
      <trkpt lat="59.230704" lon="17.941971">
        <ele>30</ele>
        <time>2014-10-11T15:05:49Z</time>
      </trkpt>
      <trkpt lat="59.2307" lon="17.942114">
        <ele>30.1</ele>
        <time>2014-10-11T15:05:50Z</time>
      </trkpt>
      <trkpt lat="59.230693" lon="17.942238">
        <ele>30</ele>
        <time>2014-10-11T15:05:51Z</time>
      </trkpt>
      <trkpt lat="59.23069" lon="17.942374">
        <ele>30</ele>
        <time>2014-10-11T15:05:52Z</time>
      </trkpt>
      <trkpt lat="59.230674" lon="17.942528">
        <ele>29.8</ele>
        <time>2014-10-11T15:05:53Z</time>
      </trkpt>
      <trkpt lat="59.23067" lon="17.942663">
        <ele>29.7</ele>
        <time>2014-10-11T15:05:54Z</time>
      </trkpt>
      <trkpt lat="59.230668" lon="17.942809">
        <ele>29.7</ele>
        <time>2014-10-11T15:05:55Z</time>
      </trkpt>
      <trkpt lat="59.230659" lon="17.942944">
        <ele>29.6</ele>
        <time>2014-10-11T15:05:56Z</time>
      </trkpt>
      <trkpt lat="59.230649" lon="17.9431">
        <ele>29.4</ele>
        <time>2014-10-11T15:05:57Z</time>
      </trkpt>
      <trkpt lat="59.230639" lon="17.943234">
        <ele>29.3</ele>
        <time>2014-10-11T15:05:58Z</time>
      </trkpt>
      <trkpt lat="59.230639" lon="17.943369">
        <ele>29.3</ele>
        <time>2014-10-11T15:05:59Z</time>
      </trkpt>
      <trkpt lat="59.230635" lon="17.943501">
        <ele>29.2</ele>
        <time>2014-10-11T15:06:00Z</time>
      </trkpt>
      <trkpt lat="59.230643" lon="17.943649">
        <ele>29.2</ele>
        <time>2014-10-11T15:06:01Z</time>
      </trkpt>
      <trkpt lat="59.230655" lon="17.943796">
        <ele>29.3</ele>
        <time>2014-10-11T15:06:02Z</time>
      </trkpt>
      <trkpt lat="59.230653" lon="17.943929">
        <ele>29.3</ele>
        <time>2014-10-11T15:06:03Z</time>
      </trkpt>
      <trkpt lat="59.230646" lon="17.944065">
        <ele>29.2</ele>
        <time>2014-10-11T15:06:04Z</time>
      </trkpt>
      <trkpt lat="59.230642" lon="17.9442">
        <ele>29.2</ele>
        <time>2014-10-11T15:06:05Z</time>
      </trkpt>
      <trkpt lat="59.230643" lon="17.944346">
        <ele>29.2</ele>
        <time>2014-10-11T15:06:06Z</time>
      </trkpt>
      <trkpt lat="59.230638" lon="17.944486">
        <ele>29.1</ele>
        <time>2014-10-11T15:06:07Z</time>
      </trkpt>
      <trkpt lat="59.230641" lon="17.944632">
        <ele>29.2</ele>
        <time>2014-10-11T15:06:08Z</time>
      </trkpt>
      <trkpt lat="59.230636" lon="17.944788">
        <ele>29.2</ele>
        <time>2014-10-11T15:06:09Z</time>
      </trkpt>
      <trkpt lat="59.230633" lon="17.944929">
        <ele>29.3</ele>
        <time>2014-10-11T15:06:10Z</time>
      </trkpt>
      <trkpt lat="59.230628" lon="17.945089">
        <ele>29.3</ele>
        <time>2014-10-11T15:06:11Z</time>
      </trkpt>
      <trkpt lat="59.230631" lon="17.945241">
        <ele>29.4</ele>
        <time>2014-10-11T15:06:12Z</time>
      </trkpt>
      <trkpt lat="59.230626" lon="17.945404">
        <ele>29.5</ele>
        <time>2014-10-11T15:06:13Z</time>
      </trkpt>
      <trkpt lat="59.230617" lon="17.945555">
        <ele>29.5</ele>
        <time>2014-10-11T15:06:14Z</time>
      </trkpt>
      <trkpt lat="59.23061" lon="17.945705">
        <ele>29.5</ele>
        <time>2014-10-11T15:06:15Z</time>
      </trkpt>
      <trkpt lat="59.230601" lon="17.94586">
        <ele>29.4</ele>
        <time>2014-10-11T15:06:16Z</time>
      </trkpt>
      <trkpt lat="59.230596" lon="17.946014">
        <ele>29.4</ele>
        <time>2014-10-11T15:06:17Z</time>
      </trkpt>
      <trkpt lat="59.230596" lon="17.946178">
        <ele>29.5</ele>
        <time>2014-10-11T15:06:18Z</time>
      </trkpt>
      <trkpt lat="59.230589" lon="17.946337">
        <ele>29.5</ele>
        <time>2014-10-11T15:06:19Z</time>
      </trkpt>
      <trkpt lat="59.230584" lon="17.946502">
        <ele>29.5</ele>
        <time>2014-10-11T15:06:20Z</time>
      </trkpt>
      <trkpt lat="59.230579" lon="17.946655">
        <ele>29.5</ele>
        <time>2014-10-11T15:06:21Z</time>
      </trkpt>
      <trkpt lat="59.230575" lon="17.946813">
        <ele>29.5</ele>
        <time>2014-10-11T15:06:22Z</time>
      </trkpt>
      <trkpt lat="59.230579" lon="17.946953">
        <ele>29.5</ele>
        <time>2014-10-11T15:06:23Z</time>
      </trkpt>
      <trkpt lat="59.230578" lon="17.947106">
        <ele>29.5</ele>
        <time>2014-10-11T15:06:24Z</time>
      </trkpt>
      <trkpt lat="59.23058" lon="17.947264">
        <ele>29.5</ele>
        <time>2014-10-11T15:06:25Z</time>
      </trkpt>
      <trkpt lat="59.230582" lon="17.947413">
        <ele>29.4</ele>
        <time>2014-10-11T15:06:26Z</time>
      </trkpt>
      <trkpt lat="59.230619" lon="17.947542">
        <ele>29.7</ele>
        <time>2014-10-11T15:06:27Z</time>
      </trkpt>
      <trkpt lat="59.230644" lon="17.947676">
        <ele>29.8</ele>
        <time>2014-10-11T15:06:28Z</time>
      </trkpt>
      <trkpt lat="59.230668" lon="17.947842">
        <ele>29.9</ele>
        <time>2014-10-11T15:06:29Z</time>
      </trkpt>
      <trkpt lat="59.230694" lon="17.948002">
        <ele>29.9</ele>
        <time>2014-10-11T15:06:30Z</time>
      </trkpt>
      <trkpt lat="59.230726" lon="17.948171">
        <ele>29.9</ele>
        <time>2014-10-11T15:06:31Z</time>
      </trkpt>
      <trkpt lat="59.230761" lon="17.948336">
        <ele>29.9</ele>
        <time>2014-10-11T15:06:32Z</time>
      </trkpt>
      <trkpt lat="59.230787" lon="17.948482">
        <ele>29.8</ele>
        <time>2014-10-11T15:06:33Z</time>
      </trkpt>
      <trkpt lat="59.230819" lon="17.948634">
        <ele>29.7</ele>
        <time>2014-10-11T15:06:34Z</time>
      </trkpt>
      <trkpt lat="59.230848" lon="17.948766">
        <ele>29.5</ele>
        <time>2014-10-11T15:06:35Z</time>
      </trkpt>
      <trkpt lat="59.230874" lon="17.948909">
        <ele>29.4</ele>
        <time>2014-10-11T15:06:36Z</time>
      </trkpt>
      <trkpt lat="59.230895" lon="17.949046">
        <ele>29.3</ele>
        <time>2014-10-11T15:06:37Z</time>
      </trkpt>
      <trkpt lat="59.23089" lon="17.949196">
        <ele>29.1</ele>
        <time>2014-10-11T15:06:38Z</time>
      </trkpt>
      <trkpt lat="59.230893" lon="17.949348">
        <ele>28.9</ele>
        <time>2014-10-11T15:06:39Z</time>
      </trkpt>
      <trkpt lat="59.230938" lon="17.949448">
        <ele>28.8</ele>
        <time>2014-10-11T15:06:40Z</time>
      </trkpt>
      <trkpt lat="59.230991" lon="17.94951">
        <ele>28.8</ele>
        <time>2014-10-11T15:06:41Z</time>
      </trkpt>
      <trkpt lat="59.231058" lon="17.949491">
        <ele>28.9</ele>
        <time>2014-10-11T15:06:42Z</time>
      </trkpt>
      <trkpt lat="59.231115" lon="17.949428">
        <ele>29.2</ele>
        <time>2014-10-11T15:06:43Z</time>
      </trkpt>
      <trkpt lat="59.23116" lon="17.949382">
        <ele>29.3</ele>
        <time>2014-10-11T15:06:44Z</time>
      </trkpt>
      <trkpt lat="59.23122" lon="17.949312">
        <ele>29.6</ele>
        <time>2014-10-11T15:06:45Z</time>
      </trkpt>
      <trkpt lat="59.231282" lon="17.949251">
        <ele>29.8</ele>
        <time>2014-10-11T15:06:46Z</time>
      </trkpt>
      <trkpt lat="59.231343" lon="17.949204">
        <ele>30</ele>
        <time>2014-10-11T15:06:47Z</time>
      </trkpt>
      <trkpt lat="59.231404" lon="17.949179">
        <ele>30.1</ele>
        <time>2014-10-11T15:06:48Z</time>
      </trkpt>
      <trkpt lat="59.231461" lon="17.949157">
        <ele>30.2</ele>
        <time>2014-10-11T15:06:49Z</time>
      </trkpt>
      <trkpt lat="59.231521" lon="17.949148">
        <ele>30.2</ele>
        <time>2014-10-11T15:06:50Z</time>
      </trkpt>
      <trkpt lat="59.231586" lon="17.94913">
        <ele>30.3</ele>
        <time>2014-10-11T15:06:51Z</time>
      </trkpt>
      <trkpt lat="59.231648" lon="17.949098">
        <ele>30.4</ele>
        <time>2014-10-11T15:06:52Z</time>
      </trkpt>
      <trkpt lat="59.231705" lon="17.949064">
        <ele>30.6</ele>
        <time>2014-10-11T15:06:53Z</time>
      </trkpt>
      <trkpt lat="59.23176" lon="17.949012">
        <ele>30.8</ele>
        <time>2014-10-11T15:06:54Z</time>
      </trkpt>
      <trkpt lat="59.231814" lon="17.948991">
        <ele>30.9</ele>
        <time>2014-10-11T15:06:55Z</time>
      </trkpt>
      <trkpt lat="59.231873" lon="17.948981">
        <ele>31</ele>
        <time>2014-10-11T15:06:56Z</time>
      </trkpt>
      <trkpt lat="59.231936" lon="17.948985">
        <ele>31</ele>
        <time>2014-10-11T15:06:57Z</time>
      </trkpt>
      <trkpt lat="59.231994" lon="17.948971">
        <ele>31.1</ele>
        <time>2014-10-11T15:06:58Z</time>
      </trkpt>
      <trkpt lat="59.232058" lon="17.948929">
        <ele>31.3</ele>
        <time>2014-10-11T15:06:59Z</time>
      </trkpt>
      <trkpt lat="59.232115" lon="17.948888">
        <ele>31.5</ele>
        <time>2014-10-11T15:07:00Z</time>
      </trkpt>
      <trkpt lat="59.232177" lon="17.948847">
        <ele>31.6</ele>
        <time>2014-10-11T15:07:01Z</time>
      </trkpt>
      <trkpt lat="59.232226" lon="17.948805">
        <ele>31.7</ele>
        <time>2014-10-11T15:07:02Z</time>
      </trkpt>
      <trkpt lat="59.232288" lon="17.948772">
        <ele>31.7</ele>
        <time>2014-10-11T15:07:03Z</time>
      </trkpt>
      <trkpt lat="59.232339" lon="17.948728">
        <ele>31.8</ele>
        <time>2014-10-11T15:07:04Z</time>
      </trkpt>
      <trkpt lat="59.232395" lon="17.94868">
        <ele>32</ele>
        <time>2014-10-11T15:07:05Z</time>
      </trkpt>
      <trkpt lat="59.232443" lon="17.94866">
        <ele>32.1</ele>
        <time>2014-10-11T15:07:06Z</time>
      </trkpt>
      <trkpt lat="59.232499" lon="17.948611">
        <ele>32.3</ele>
        <time>2014-10-11T15:07:07Z</time>
      </trkpt>
      <trkpt lat="59.232559" lon="17.94857">
        <ele>32.4</ele>
        <time>2014-10-11T15:07:08Z</time>
      </trkpt>
      <trkpt lat="59.232613" lon="17.948527">
        <ele>32.5</ele>
        <time>2014-10-11T15:07:09Z</time>
      </trkpt>
      <trkpt lat="59.232665" lon="17.948511">
        <ele>32.5</ele>
        <time>2014-10-11T15:07:10Z</time>
      </trkpt>
      <trkpt lat="59.232718" lon="17.948482">
        <ele>32.6</ele>
        <time>2014-10-11T15:07:11Z</time>
      </trkpt>
      <trkpt lat="59.23278" lon="17.948426">
        <ele>32.8</ele>
        <time>2014-10-11T15:07:12Z</time>
      </trkpt>
      <trkpt lat="59.232849" lon="17.948392">
        <ele>32.8</ele>
        <time>2014-10-11T15:07:13Z</time>
      </trkpt>
      <trkpt lat="59.232904" lon="17.948353">
        <ele>32.9</ele>
        <time>2014-10-11T15:07:14Z</time>
      </trkpt>
      <trkpt lat="59.232959" lon="17.948333">
        <ele>32.9</ele>
        <time>2014-10-11T15:07:15Z</time>
      </trkpt>
      <trkpt lat="59.233016" lon="17.948299">
        <ele>32.9</ele>
        <time>2014-10-11T15:07:16Z</time>
      </trkpt>
      <trkpt lat="59.233074" lon="17.948286">
        <ele>32.8</ele>
        <time>2014-10-11T15:07:17Z</time>
      </trkpt>
      <trkpt lat="59.233132" lon="17.948273">
        <ele>32.7</ele>
        <time>2014-10-11T15:07:18Z</time>
      </trkpt>
      <trkpt lat="59.233189" lon="17.948259">
        <ele>32.6</ele>
        <time>2014-10-11T15:07:19Z</time>
      </trkpt>
      <trkpt lat="59.233251" lon="17.948231">
        <ele>32.6</ele>
        <time>2014-10-11T15:07:20Z</time>
      </trkpt>
      <trkpt lat="59.233313" lon="17.948231">
        <ele>32.4</ele>
        <time>2014-10-11T15:07:21Z</time>
      </trkpt>
      <trkpt lat="59.233374" lon="17.948218">
        <ele>32.3</ele>
        <time>2014-10-11T15:07:22Z</time>
      </trkpt>
      <trkpt lat="59.233442" lon="17.948196">
        <ele>32.2</ele>
        <time>2014-10-11T15:07:23Z</time>
      </trkpt>
      <trkpt lat="59.233508" lon="17.948182">
        <ele>32</ele>
        <time>2014-10-11T15:07:24Z</time>
      </trkpt>
      <trkpt lat="59.233558" lon="17.948174">
        <ele>31.9</ele>
        <time>2014-10-11T15:07:25Z</time>
      </trkpt>
      <trkpt lat="59.23362" lon="17.948148">
        <ele>31.8</ele>
        <time>2014-10-11T15:07:26Z</time>
      </trkpt>
      <trkpt lat="59.233673" lon="17.948147">
        <ele>31.7</ele>
        <time>2014-10-11T15:07:27Z</time>
      </trkpt>
      <trkpt lat="59.233729" lon="17.948136">
        <ele>31.5</ele>
        <time>2014-10-11T15:07:28Z</time>
      </trkpt>
      <trkpt lat="59.233796" lon="17.94813">
        <ele>31.6</ele>
        <time>2014-10-11T15:07:29Z</time>
      </trkpt>
      <trkpt lat="59.233855" lon="17.94813">
        <ele>31.7</ele>
        <time>2014-10-11T15:07:30Z</time>
      </trkpt>
      <trkpt lat="59.233917" lon="17.94813">
        <ele>31.8</ele>
        <time>2014-10-11T15:07:31Z</time>
      </trkpt>
      <trkpt lat="59.233966" lon="17.948148">
        <ele>31.8</ele>
        <time>2014-10-11T15:07:32Z</time>
      </trkpt>
      <trkpt lat="59.234034" lon="17.948155">
        <ele>32</ele>
        <time>2014-10-11T15:07:33Z</time>
      </trkpt>
      <trkpt lat="59.234116" lon="17.948167">
        <ele>32.1</ele>
        <time>2014-10-11T15:07:34Z</time>
      </trkpt>
      <trkpt lat="59.234177" lon="17.948172">
        <ele>32.2</ele>
        <time>2014-10-11T15:07:35Z</time>
      </trkpt>
      <trkpt lat="59.23424" lon="17.948166">
        <ele>32.3</ele>
        <time>2014-10-11T15:07:36Z</time>
      </trkpt>
      <trkpt lat="59.234306" lon="17.948188">
        <ele>32.5</ele>
        <time>2014-10-11T15:07:37Z</time>
      </trkpt>
      <trkpt lat="59.234357" lon="17.948183">
        <ele>32.6</ele>
        <time>2014-10-11T15:07:38Z</time>
      </trkpt>
      <trkpt lat="59.23442" lon="17.948181">
        <ele>32.7</ele>
        <time>2014-10-11T15:07:39Z</time>
      </trkpt>
      <trkpt lat="59.234483" lon="17.948167">
        <ele>32.8</ele>
        <time>2014-10-11T15:07:40Z</time>
      </trkpt>
      <trkpt lat="59.234554" lon="17.948142">
        <ele>32.9</ele>
        <time>2014-10-11T15:07:41Z</time>
      </trkpt>
      <trkpt lat="59.234611" lon="17.948122">
        <ele>33.1</ele>
        <time>2014-10-11T15:07:42Z</time>
      </trkpt>
      <trkpt lat="59.234665" lon="17.948117">
        <ele>33.4</ele>
        <time>2014-10-11T15:07:43Z</time>
      </trkpt>
      <trkpt lat="59.234726" lon="17.948097">
        <ele>33.6</ele>
        <time>2014-10-11T15:07:44Z</time>
      </trkpt>
      <trkpt lat="59.23478" lon="17.948076">
        <ele>33.8</ele>
        <time>2014-10-11T15:07:45Z</time>
      </trkpt>
      <trkpt lat="59.23483" lon="17.948076">
        <ele>34.1</ele>
        <time>2014-10-11T15:07:46Z</time>
      </trkpt>
      <trkpt lat="59.234889" lon="17.948063">
        <ele>34.3</ele>
        <time>2014-10-11T15:07:47Z</time>
      </trkpt>
      <trkpt lat="59.234936" lon="17.948065">
        <ele>34.5</ele>
        <time>2014-10-11T15:07:48Z</time>
      </trkpt>
      <trkpt lat="59.234989" lon="17.948066">
        <ele>34.7</ele>
        <time>2014-10-11T15:07:49Z</time>
      </trkpt>
      <trkpt lat="59.235047" lon="17.94804">
        <ele>34.9</ele>
        <time>2014-10-11T15:07:50Z</time>
      </trkpt>
      <trkpt lat="59.2351" lon="17.948015">
        <ele>35.1</ele>
        <time>2014-10-11T15:07:51Z</time>
      </trkpt>
      <trkpt lat="59.23515" lon="17.94799">
        <ele>35.2</ele>
        <time>2014-10-11T15:07:52Z</time>
      </trkpt>
      <trkpt lat="59.23519" lon="17.947988">
        <ele>35.4</ele>
        <time>2014-10-11T15:07:53Z</time>
      </trkpt>
      <trkpt lat="59.235227" lon="17.947979">
        <ele>35.5</ele>
        <time>2014-10-11T15:07:54Z</time>
      </trkpt>
      <trkpt lat="59.235283" lon="17.947965">
        <ele>35.7</ele>
        <time>2014-10-11T15:07:55Z</time>
      </trkpt>
      <trkpt lat="59.235341" lon="17.947956">
        <ele>35.9</ele>
        <time>2014-10-11T15:07:56Z</time>
      </trkpt>
      <trkpt lat="59.23539" lon="17.947928">
        <ele>35.9</ele>
        <time>2014-10-11T15:07:57Z</time>
      </trkpt>
      <trkpt lat="59.235433" lon="17.947898">
        <ele>36</ele>
        <time>2014-10-11T15:07:58Z</time>
      </trkpt>
      <trkpt lat="59.235486" lon="17.947879">
        <ele>36.2</ele>
        <time>2014-10-11T15:07:59Z</time>
      </trkpt>
      <trkpt lat="59.235541" lon="17.947835">
        <ele>36.3</ele>
        <time>2014-10-11T15:08:00Z</time>
      </trkpt>
      <trkpt lat="59.235589" lon="17.947802">
        <ele>36.4</ele>
        <time>2014-10-11T15:08:01Z</time>
      </trkpt>
      <trkpt lat="59.235871" lon="17.947396">
        <ele>36</ele>
        <time>2014-10-11T15:08:08Z</time>
      </trkpt>
      <trkpt lat="59.235934" lon="17.947324">
        <ele>35.9</ele>
        <time>2014-10-11T15:08:10Z</time>
      </trkpt>
      <trkpt lat="59.23598" lon="17.947258">
        <ele>35.8</ele>
        <time>2014-10-11T15:08:11Z</time>
      </trkpt>
      <trkpt lat="59.236035" lon="17.947223">
        <ele>35.9</ele>
        <time>2014-10-11T15:08:12Z</time>
      </trkpt>
      <trkpt lat="59.236081" lon="17.947186">
        <ele>35.9</ele>
        <time>2014-10-11T15:08:13Z</time>
      </trkpt>
      <trkpt lat="59.236134" lon="17.947157">
        <ele>35.9</ele>
        <time>2014-10-11T15:08:14Z</time>
      </trkpt>
      <trkpt lat="59.236179" lon="17.947135">
        <ele>36</ele>
        <time>2014-10-11T15:08:15Z</time>
      </trkpt>
      <trkpt lat="59.236216" lon="17.947103">
        <ele>36</ele>
        <time>2014-10-11T15:08:16Z</time>
      </trkpt>
      <trkpt lat="59.236278" lon="17.94706">
        <ele>36.1</ele>
        <time>2014-10-11T15:08:17Z</time>
      </trkpt>
      <trkpt lat="59.236324" lon="17.947025">
        <ele>36.3</ele>
        <time>2014-10-11T15:08:18Z</time>
      </trkpt>
      <trkpt lat="59.236373" lon="17.947016">
        <ele>36.5</ele>
        <time>2014-10-11T15:08:19Z</time>
      </trkpt>
      <trkpt lat="59.236421" lon="17.947013">
        <ele>36.7</ele>
        <time>2014-10-11T15:08:20Z</time>
      </trkpt>
      <trkpt lat="59.236475" lon="17.947014">
        <ele>36.9</ele>
        <time>2014-10-11T15:08:21Z</time>
      </trkpt>
      <trkpt lat="59.236528" lon="17.947018">
        <ele>37.1</ele>
        <time>2014-10-11T15:08:22Z</time>
      </trkpt>
      <trkpt lat="59.236597" lon="17.947045">
        <ele>37.3</ele>
        <time>2014-10-11T15:08:23Z</time>
      </trkpt>
      <trkpt lat="59.236641" lon="17.947084">
        <ele>37.4</ele>
        <time>2014-10-11T15:08:24Z</time>
      </trkpt>
      <trkpt lat="59.236701" lon="17.947126">
        <ele>37.8</ele>
        <time>2014-10-11T15:08:25Z</time>
      </trkpt>
      <trkpt lat="59.236749" lon="17.947161">
        <ele>38.1</ele>
        <time>2014-10-11T15:08:26Z</time>
      </trkpt>
      <trkpt lat="59.236795" lon="17.947201">
        <ele>38.3</ele>
        <time>2014-10-11T15:08:27Z</time>
      </trkpt>
      <trkpt lat="59.236845" lon="17.947271">
        <ele>38.7</ele>
        <time>2014-10-11T15:08:28Z</time>
      </trkpt>
      <trkpt lat="59.236894" lon="17.947318">
        <ele>39</ele>
        <time>2014-10-11T15:08:29Z</time>
      </trkpt>
      <trkpt lat="59.236944" lon="17.947374">
        <ele>39.3</ele>
        <time>2014-10-11T15:08:30Z</time>
      </trkpt>
      <trkpt lat="59.236988" lon="17.947426">
        <ele>39.6</ele>
        <time>2014-10-11T15:08:31Z</time>
      </trkpt>
      <trkpt lat="59.237039" lon="17.947471">
        <ele>39.8</ele>
        <time>2014-10-11T15:08:32Z</time>
      </trkpt>
      <trkpt lat="59.23708" lon="17.947533">
        <ele>40.1</ele>
        <time>2014-10-11T15:08:33Z</time>
      </trkpt>
      <trkpt lat="59.237111" lon="17.947595">
        <ele>40.4</ele>
        <time>2014-10-11T15:08:34Z</time>
      </trkpt>
      <trkpt lat="59.237148" lon="17.947673">
        <ele>40.7</ele>
        <time>2014-10-11T15:08:35Z</time>
      </trkpt>
      <trkpt lat="59.237179" lon="17.947744">
        <ele>41</ele>
        <time>2014-10-11T15:08:36Z</time>
      </trkpt>
      <trkpt lat="59.237226" lon="17.947823">
        <ele>41.5</ele>
        <time>2014-10-11T15:08:37Z</time>
      </trkpt>
      <trkpt lat="59.237284" lon="17.947845">
        <ele>41.8</ele>
        <time>2014-10-11T15:08:38Z</time>
      </trkpt>
      <trkpt lat="59.237344" lon="17.947813">
        <ele>42</ele>
        <time>2014-10-11T15:08:39Z</time>
      </trkpt>
      <trkpt lat="59.237371" lon="17.947744">
        <ele>42</ele>
        <time>2014-10-11T15:08:40Z</time>
      </trkpt>
      <trkpt lat="59.237391" lon="17.947664">
        <ele>41.9</ele>
        <time>2014-10-11T15:08:41Z</time>
      </trkpt>
      <trkpt lat="59.237406" lon="17.947582">
        <ele>41.7</ele>
        <time>2014-10-11T15:08:42Z</time>
      </trkpt>
      <trkpt lat="59.237429" lon="17.947484">
        <ele>41.6</ele>
        <time>2014-10-11T15:08:43Z</time>
      </trkpt>
      <trkpt lat="59.23746" lon="17.947387">
        <ele>41.5</ele>
        <time>2014-10-11T15:08:44Z</time>
      </trkpt>
      <trkpt lat="59.237485" lon="17.947321">
        <ele>41.5</ele>
        <time>2014-10-11T15:08:45Z</time>
      </trkpt>
      <trkpt lat="59.237513" lon="17.947226">
        <ele>41.4</ele>
        <time>2014-10-11T15:08:46Z</time>
      </trkpt>
      <trkpt lat="59.237542" lon="17.947134">
        <ele>41.3</ele>
        <time>2014-10-11T15:08:47Z</time>
      </trkpt>
      <trkpt lat="59.237571" lon="17.947044">
        <ele>41.4</ele>
        <time>2014-10-11T15:08:48Z</time>
      </trkpt>
      <trkpt lat="59.237593" lon="17.946947">
        <ele>41.6</ele>
        <time>2014-10-11T15:08:49Z</time>
      </trkpt>
      <trkpt lat="59.237622" lon="17.946868">
        <ele>41.8</ele>
        <time>2014-10-11T15:08:50Z</time>
      </trkpt>
      <trkpt lat="59.237652" lon="17.946779">
        <ele>42.1</ele>
        <time>2014-10-11T15:08:51Z</time>
      </trkpt>
      <trkpt lat="59.237684" lon="17.946704">
        <ele>42.3</ele>
        <time>2014-10-11T15:08:52Z</time>
      </trkpt>
      <trkpt lat="59.23772" lon="17.946624">
        <ele>42.6</ele>
        <time>2014-10-11T15:08:53Z</time>
      </trkpt>
      <trkpt lat="59.237753" lon="17.946549">
        <ele>42.9</ele>
        <time>2014-10-11T15:08:54Z</time>
      </trkpt>
      <trkpt lat="59.237789" lon="17.946484">
        <ele>43.1</ele>
        <time>2014-10-11T15:08:55Z</time>
      </trkpt>
      <trkpt lat="59.237818" lon="17.946415">
        <ele>43.3</ele>
        <time>2014-10-11T15:08:56Z</time>
      </trkpt>
      <trkpt lat="59.237853" lon="17.946348">
        <ele>43.6</ele>
        <time>2014-10-11T15:08:57Z</time>
      </trkpt>
      <trkpt lat="59.237877" lon="17.946299">
        <ele>43.8</ele>
        <time>2014-10-11T15:08:58Z</time>
      </trkpt>
      <trkpt lat="59.23793" lon="17.946275">
        <ele>44</ele>
        <time>2014-10-11T15:09:00Z</time>
      </trkpt>
      <trkpt lat="59.237977" lon="17.94633">
        <ele>44.2</ele>
        <time>2014-10-11T15:09:02Z</time>
      </trkpt>
      <trkpt lat="59.238003" lon="17.946348">
        <ele>44.3</ele>
        <time>2014-10-11T15:09:03Z</time>
      </trkpt>
      <trkpt lat="59.238031" lon="17.946386">
        <ele>44.4</ele>
        <time>2014-10-11T15:09:09Z</time>
      </trkpt>
    </trkseg>
  </trk>
</gpx>